<?xml version='1.0' encoding='UTF-8'?><gpx version="1.1" creator="JPX - https://github.com/jenetics/jpx" xmlns="http://www.topografix.com/GPX/1/1"><trk><trkseg><trkpt lat="44.0745575" lon="8.2126685"><ele>3.9999999999999996</ele><time>2026-04-10T06:58:41.542Z</time></trkpt><trkpt lat="44.0745277" lon="8.2127467"><ele>4.0</ele><time>2026-04-10T06:58:44.951Z</time></trkpt><trkpt lat="44.0744698" lon="8.2127958"><ele>4.0</ele><time>2026-04-10T06:59:02.951Z</time></trkpt><trkpt lat="44.0745299" lon="8.2128497"><ele>4.0</ele><time>2026-04-10T06:59:20.951Z</time></trkpt><trkpt lat="44.0746409" lon="8.2129075"><ele>3.9999999999999996</ele><time>2026-04-10T06:59:22.951Z</time></trkpt><trkpt lat="44.0747077" lon="8.2129381"><ele>4.0</ele><time>2026-04-10T06:59:23.952Z</time></trkpt><trkpt lat="44.0747854" lon="8.2129632"><ele>4.0</ele><time>2026-04-10T06:59:24.951Z</time></trkpt><trkpt lat="44.0748668" lon="8.2129966"><ele>4.0</ele><time>2026-04-10T06:59:25.951Z</time></trkpt><trkpt lat="44.0749535" lon="8.2130374"><ele>4.0</ele><time>2026-04-10T06:59:26.951Z</time></trkpt><trkpt lat="44.0750423" lon="8.2130886"><ele>4.0</ele><time>2026-04-10T06:59:27.951Z</time></trkpt><trkpt lat="44.0751263" lon="8.2131565"><ele>4.0</ele><time>2026-04-10T06:59:28.952Z</time></trkpt><trkpt lat="44.0752086" lon="8.2132394"><ele>3.9999999999999996</ele><time>2026-04-10T06:59:29.951Z</time></trkpt><trkpt lat="44.0752893" lon="8.2133163"><ele>4.0</ele><time>2026-04-10T06:59:30.951Z</time></trkpt><trkpt lat="44.0753731" lon="8.2133888"><ele>4.0</ele><time>2026-04-10T06:59:31.951Z</time></trkpt><trkpt lat="44.0754499" lon="8.2134509"><ele>4.0</ele><time>2026-04-10T06:59:32.951Z</time></trkpt><trkpt lat="44.0755193" lon="8.2135004"><ele>3.9999999999999996</ele><time>2026-04-10T06:59:33.951Z</time></trkpt><trkpt lat="44.0755805" lon="8.2135537"><ele>4.0</ele><time>2026-04-10T06:59:34.951Z</time></trkpt><trkpt lat="44.0756358" lon="8.2136033"><ele>3.9999999999999996</ele><time>2026-04-10T06:59:35.951Z</time></trkpt><trkpt lat="44.0756922" lon="8.2136487"><ele>4.0</ele><time>2026-04-10T06:59:36.951Z</time></trkpt><trkpt lat="44.0757788" lon="8.2137292"><ele>4.0</ele><time>2026-04-10T06:59:38.952Z</time></trkpt><trkpt lat="44.0758196" lon="8.2137968"><ele>4.0</ele><time>2026-04-10T07:00:52.95Z</time></trkpt><trkpt lat="44.0759094" lon="8.2138908"><ele>3.9999999999999996</ele><time>2026-04-10T07:00:54.95Z</time></trkpt><trkpt lat="44.0759699" lon="8.2139527"><ele>4.0</ele><time>2026-04-10T07:00:55.95Z</time></trkpt><trkpt lat="44.0760378" lon="8.214005"><ele>3.833333333333333</ele><time>2026-04-10T07:00:56.95Z</time></trkpt><trkpt lat="44.0760993" lon="8.214053"><ele>3.6666666666666665</ele><time>2026-04-10T07:00:57.951Z</time></trkpt><trkpt lat="44.0761622" lon="8.214111"><ele>3.5</ele><time>2026-04-10T07:00:58.95Z</time></trkpt><trkpt lat="44.0762336" lon="8.214154"><ele>3.333333333333333</ele><time>2026-04-10T07:00:59.95Z</time></trkpt><trkpt lat="44.0763178" lon="8.2141844"><ele>3.1666666666666665</ele><time>2026-04-10T07:01:00.95Z</time></trkpt><trkpt lat="44.0764142" lon="8.2142151"><ele>3.0</ele><time>2026-04-10T07:01:01.95Z</time></trkpt><trkpt lat="44.0765079" lon="8.2142415"><ele>3.0</ele><time>2026-04-10T07:01:02.95Z</time></trkpt><trkpt lat="44.0765869" lon="8.2142662"><ele>3.0</ele><time>2026-04-10T07:01:03.95Z</time></trkpt><trkpt lat="44.0766532" lon="8.2142855"><ele>3.0</ele><time>2026-04-10T07:01:04.95Z</time></trkpt><trkpt lat="44.0767563" lon="8.2143396"><ele>3.0</ele><time>2026-04-10T07:01:06.95Z</time></trkpt><trkpt lat="44.0767944" lon="8.2144151"><ele>3.0</ele><time>2026-04-10T07:01:08.95Z</time></trkpt><trkpt lat="44.0768635" lon="8.2143525"><ele>3.0</ele><time>2026-04-10T07:01:16.95Z</time></trkpt><trkpt lat="44.0769371" lon="8.2142275"><ele>3.3333333333333335</ele><time>2026-04-10T07:01:18.95Z</time></trkpt><trkpt lat="44.0769829" lon="8.2141645"><ele>3.666666666666667</ele><time>2026-04-10T07:01:19.95Z</time></trkpt><trkpt lat="44.0770296" lon="8.2141022"><ele>4.0</ele><time>2026-04-10T07:01:20.95Z</time></trkpt><trkpt lat="44.0771237" lon="8.2139891"><ele>4.333333333333334</ele><time>2026-04-10T07:01:22.951Z</time></trkpt><trkpt lat="44.0772023" lon="8.2139062"><ele>4.666666666666667</ele><time>2026-04-10T07:01:24.95Z</time></trkpt><trkpt lat="44.0772735" lon="8.2138356"><ele>5.0</ele><time>2026-04-10T07:01:26.95Z</time></trkpt><trkpt lat="44.0773322" lon="8.21377"><ele>5.0</ele><time>2026-04-10T07:01:28.95Z</time></trkpt><trkpt lat="44.0774028" lon="8.2137003"><ele>5.0</ele><time>2026-04-10T07:01:38.95Z</time></trkpt><trkpt lat="44.0774841" lon="8.2136372"><ele>5.0</ele><time>2026-04-10T07:01:41.95Z</time></trkpt><trkpt lat="44.0775473" lon="8.2135781"><ele>5.0</ele><time>2026-04-10T07:01:43.95Z</time></trkpt><trkpt lat="44.0776252" lon="8.2135131"><ele>5.0</ele><time>2026-04-10T07:01:45.95Z</time></trkpt><trkpt lat="44.0777024" lon="8.2134568"><ele>5.0</ele><time>2026-04-10T07:01:47.95Z</time></trkpt><trkpt lat="44.0777678" lon="8.2133901"><ele>5.2</ele><time>2026-04-10T07:02:02.95Z</time></trkpt><trkpt lat="44.0778238" lon="8.213332"><ele>5.4</ele><time>2026-04-10T07:02:04.95Z</time></trkpt><trkpt lat="44.0778761" lon="8.2132614"><ele>5.6</ele><time>2026-04-10T07:02:05.95Z</time></trkpt><trkpt lat="44.077941" lon="8.2131677"><ele>5.8</ele><time>2026-04-10T07:02:06.95Z</time></trkpt><trkpt lat="44.0780148" lon="8.2130539"><ele>6.0</ele><time>2026-04-10T07:02:07.95Z</time></trkpt><trkpt lat="44.0780924" lon="8.212919"><ele>6.25</ele><time>2026-04-10T07:02:08.95Z</time></trkpt><trkpt lat="44.0781717" lon="8.2127826"><ele>6.5</ele><time>2026-04-10T07:02:09.95Z</time></trkpt><trkpt lat="44.0782516" lon="8.2126447"><ele>6.75</ele><time>2026-04-10T07:02:10.95Z</time></trkpt><trkpt lat="44.0783225" lon="8.2125121"><ele>7.0</ele><time>2026-04-10T07:02:11.951Z</time></trkpt><trkpt lat="44.0783881" lon="8.2123905"><ele>7.6</ele><time>2026-04-10T07:02:12.95Z</time></trkpt><trkpt lat="44.078455" lon="8.2122693"><ele>8.2</ele><time>2026-04-10T07:02:13.95Z</time></trkpt><trkpt lat="44.0785269" lon="8.2121392"><ele>8.8</ele><time>2026-04-10T07:02:14.95Z</time></trkpt><trkpt lat="44.0785891" lon="8.2120154"><ele>9.4</ele><time>2026-04-10T07:02:15.95Z</time></trkpt><trkpt lat="44.0786509" lon="8.2119016"><ele>10.0</ele><time>2026-04-10T07:02:16.95Z</time></trkpt><trkpt lat="44.0787064" lon="8.2118007"><ele>10.0</ele><time>2026-04-10T07:02:17.95Z</time></trkpt><trkpt lat="44.0787644" lon="8.2117182"><ele>10.0</ele><time>2026-04-10T07:02:18.95Z</time></trkpt><trkpt lat="44.0788479" lon="8.2116398"><ele>10.0</ele><time>2026-04-10T07:02:19.95Z</time></trkpt><trkpt lat="44.0789488" lon="8.2115467"><ele>10.0</ele><time>2026-04-10T07:02:20.95Z</time></trkpt><trkpt lat="44.079047" lon="8.2114358"><ele>10.0</ele><time>2026-04-10T07:02:21.95Z</time></trkpt><trkpt lat="44.0791378" lon="8.2113208"><ele>11.25</ele><time>2026-04-10T07:02:22.95Z</time></trkpt><trkpt lat="44.0792225" lon="8.2112152"><ele>12.5</ele><time>2026-04-10T07:02:23.95Z</time></trkpt><trkpt lat="44.079295" lon="8.2111105"><ele>13.75</ele><time>2026-04-10T07:02:24.95Z</time></trkpt><trkpt lat="44.079362" lon="8.2109838"><ele>15.0</ele><time>2026-04-10T07:02:25.95Z</time></trkpt><trkpt lat="44.079434" lon="8.2108294"><ele>15.0</ele><time>2026-04-10T07:02:26.95Z</time></trkpt><trkpt lat="44.0795075" lon="8.2106704"><ele>15.0</ele><time>2026-04-10T07:02:27.95Z</time></trkpt><trkpt lat="44.079581" lon="8.2105252"><ele>15.0</ele><time>2026-04-10T07:02:28.951Z</time></trkpt><trkpt lat="44.0796454" lon="8.2103816"><ele>15.0</ele><time>2026-04-10T07:02:29.95Z</time></trkpt><trkpt lat="44.079711" lon="8.2102293"><ele>15.0</ele><time>2026-04-10T07:02:30.95Z</time></trkpt><trkpt lat="44.0797786" lon="8.2100867"><ele>15.0</ele><time>2026-04-10T07:02:31.951Z</time></trkpt><trkpt lat="44.0798499" lon="8.2099395"><ele>15.0</ele><time>2026-04-10T07:02:32.95Z</time></trkpt><trkpt lat="44.0799266" lon="8.2097939"><ele>15.0</ele><time>2026-04-10T07:02:33.95Z</time></trkpt><trkpt lat="44.0800113" lon="8.2096241"><ele>16.25</ele><time>2026-04-10T07:02:34.95Z</time></trkpt><trkpt lat="44.0801034" lon="8.2094705"><ele>17.5</ele><time>2026-04-10T07:02:35.95Z</time></trkpt><trkpt lat="44.0801696" lon="8.2093017"><ele>18.75</ele><time>2026-04-10T07:02:36.95Z</time></trkpt><trkpt lat="44.0802196" lon="8.2091578"><ele>20.0</ele><time>2026-04-10T07:02:37.95Z</time></trkpt><trkpt lat="44.0802487" lon="8.2090605"><ele>19.8</ele><time>2026-04-10T07:02:38.951Z</time></trkpt><trkpt lat="44.0802877" lon="8.2089493"><ele>19.6</ele><time>2026-04-10T07:02:40.95Z</time></trkpt><trkpt lat="44.0802218" lon="8.2088462"><ele>19.4</ele><time>2026-04-10T07:02:44.95Z</time></trkpt><trkpt lat="44.0801386" lon="8.2087949"><ele>19.2</ele><time>2026-04-10T07:02:45.95Z</time></trkpt><trkpt lat="44.0800311" lon="8.2087222"><ele>19.0</ele><time>2026-04-10T07:02:46.95Z</time></trkpt><trkpt lat="44.079924" lon="8.2086259"><ele>19.0</ele><time>2026-04-10T07:02:47.95Z</time></trkpt><trkpt lat="44.0798365" lon="8.2085052"><ele>19.0</ele><time>2026-04-10T07:02:48.95Z</time></trkpt><trkpt lat="44.0797798" lon="8.2083472"><ele>19.0</ele><time>2026-04-10T07:02:49.95Z</time></trkpt><trkpt lat="44.0797223" lon="8.208148"><ele>19.0</ele><time>2026-04-10T07:02:50.95Z</time></trkpt><trkpt lat="44.0796523" lon="8.2079019"><ele>18.666666666666664</ele><time>2026-04-10T07:02:51.95Z</time></trkpt><trkpt lat="44.0795827" lon="8.2076518"><ele>18.333333333333332</ele><time>2026-04-10T07:02:52.95Z</time></trkpt><trkpt lat="44.0795192" lon="8.2074189"><ele>18.0</ele><time>2026-04-10T07:02:53.951Z</time></trkpt><trkpt lat="44.0794733" lon="8.2072284"><ele>18.0</ele><time>2026-04-10T07:02:54.95Z</time></trkpt><trkpt lat="44.0794463" lon="8.207087"><ele>18.0</ele><time>2026-04-10T07:02:55.95Z</time></trkpt><trkpt lat="44.079417" lon="8.2069945"><ele>18.0</ele><time>2026-04-10T07:02:56.95Z</time></trkpt><trkpt lat="44.0793845" lon="8.206905"><ele>18.0</ele><time>2026-04-10T07:02:58.95Z</time></trkpt><trkpt lat="44.0794519" lon="8.2068055"><ele>18.0</ele><time>2026-04-10T07:03:01.951Z</time></trkpt><trkpt lat="44.0795008" lon="8.2067471"><ele>18.0</ele><time>2026-04-10T07:03:02.95Z</time></trkpt><trkpt lat="44.0795617" lon="8.2066639"><ele>18.0</ele><time>2026-04-10T07:03:03.95Z</time></trkpt><trkpt lat="44.0796385" lon="8.2065632"><ele>18.0</ele><time>2026-04-10T07:03:04.95Z</time></trkpt><trkpt lat="44.0797287" lon="8.2064488"><ele>18.0</ele><time>2026-04-10T07:03:05.95Z</time></trkpt><trkpt lat="44.0798164" lon="8.2063384"><ele>18.0</ele><time>2026-04-10T07:03:06.95Z</time></trkpt><trkpt lat="44.0799" lon="8.2062377"><ele>19.2</ele><time>2026-04-10T07:03:07.95Z</time></trkpt><trkpt lat="44.0799793" lon="8.2061388"><ele>20.4</ele><time>2026-04-10T07:03:08.95Z</time></trkpt><trkpt lat="44.0800606" lon="8.2060347"><ele>21.599999999999998</ele><time>2026-04-10T07:03:09.95Z</time></trkpt><trkpt lat="44.0801399" lon="8.2059365"><ele>22.8</ele><time>2026-04-10T07:03:10.95Z</time></trkpt><trkpt lat="44.0802184" lon="8.2058344"><ele>24.0</ele><time>2026-04-10T07:03:11.95Z</time></trkpt><trkpt lat="44.080299" lon="8.2057351"><ele>23.4</ele><time>2026-04-10T07:03:12.95Z</time></trkpt><trkpt lat="44.0803771" lon="8.2056415"><ele>22.799999999999997</ele><time>2026-04-10T07:03:13.95Z</time></trkpt><trkpt lat="44.0804635" lon="8.2055547"><ele>22.200000000000003</ele><time>2026-04-10T07:03:14.951Z</time></trkpt><trkpt lat="44.0805499" lon="8.2054537"><ele>21.6</ele><time>2026-04-10T07:03:15.95Z</time></trkpt><trkpt lat="44.0806434" lon="8.2053453"><ele>21.0</ele><time>2026-04-10T07:03:16.95Z</time></trkpt><trkpt lat="44.0807414" lon="8.2052344"><ele>22.200000000000003</ele><time>2026-04-10T07:03:17.95Z</time></trkpt><trkpt lat="44.0808382" lon="8.2051259"><ele>23.400000000000002</ele><time>2026-04-10T07:03:18.95Z</time></trkpt><trkpt lat="44.0809352" lon="8.2050386"><ele>24.6</ele><time>2026-04-10T07:03:19.95Z</time></trkpt><trkpt lat="44.0810238" lon="8.204956"><ele>25.8</ele><time>2026-04-10T07:03:20.95Z</time></trkpt><trkpt lat="44.0811097" lon="8.2048874"><ele>27.0</ele><time>2026-04-10T07:03:21.95Z</time></trkpt><trkpt lat="44.0811843" lon="8.2048291"><ele>27.0</ele><time>2026-04-10T07:03:22.951Z</time></trkpt><trkpt lat="44.0812631" lon="8.2047715"><ele>27.0</ele><time>2026-04-10T07:03:23.95Z</time></trkpt><trkpt lat="44.0813313" lon="8.2047083"><ele>27.0</ele><time>2026-04-10T07:03:24.95Z</time></trkpt><trkpt lat="44.0814043" lon="8.2046804"><ele>27.0</ele><time>2026-04-10T07:03:25.95Z</time></trkpt><trkpt lat="44.0814915" lon="8.2046671"><ele>27.0</ele><time>2026-04-10T07:03:26.95Z</time></trkpt><trkpt lat="44.0815997" lon="8.2046872"><ele>27.0</ele><time>2026-04-10T07:03:27.95Z</time></trkpt><trkpt lat="44.081721" lon="8.2047146"><ele>28.0</ele><time>2026-04-10T07:03:28.95Z</time></trkpt><trkpt lat="44.0818525" lon="8.2047516"><ele>29.0</ele><time>2026-04-10T07:03:29.95Z</time></trkpt><trkpt lat="44.0819896" lon="8.2047834"><ele>30.0</ele><time>2026-04-10T07:03:30.95Z</time></trkpt><trkpt lat="44.0821262" lon="8.204788"><ele>31.0</ele><time>2026-04-10T07:03:31.95Z</time></trkpt><trkpt lat="44.0822428" lon="8.2047649"><ele>31.0</ele><time>2026-04-10T07:03:32.95Z</time></trkpt><trkpt lat="44.0823509" lon="8.2047448"><ele>31.0</ele><time>2026-04-10T07:03:33.95Z</time></trkpt><trkpt lat="44.0824685" lon="8.20474"><ele>31.0</ele><time>2026-04-10T07:03:34.95Z</time></trkpt><trkpt lat="44.0825822" lon="8.2047582"><ele>31.0</ele><time>2026-04-10T07:03:35.95Z</time></trkpt><trkpt lat="44.0826954" lon="8.2048205"><ele>32.25</ele><time>2026-04-10T07:03:36.95Z</time></trkpt><trkpt lat="44.0827935" lon="8.2049197"><ele>33.5</ele><time>2026-04-10T07:03:37.95Z</time></trkpt><trkpt lat="44.0828889" lon="8.2050382"><ele>34.75</ele><time>2026-04-10T07:03:38.95Z</time></trkpt><trkpt lat="44.0829959" lon="8.2051596"><ele>36.0</ele><time>2026-04-10T07:03:39.95Z</time></trkpt><trkpt lat="44.0831069" lon="8.2052682"><ele>36.0</ele><time>2026-04-10T07:03:40.95Z</time></trkpt><trkpt lat="44.0832267" lon="8.2053572"><ele>36.0</ele><time>2026-04-10T07:03:41.95Z</time></trkpt><trkpt lat="44.0833565" lon="8.2054181"><ele>36.0</ele><time>2026-04-10T07:03:42.95Z</time></trkpt><trkpt lat="44.0834908" lon="8.205476"><ele>36.0</ele><time>2026-04-10T07:03:43.95Z</time></trkpt><trkpt lat="44.0836337" lon="8.2055087"><ele>37.0</ele><time>2026-04-10T07:03:44.95Z</time></trkpt><trkpt lat="44.0837762" lon="8.2054982"><ele>38.0</ele><time>2026-04-10T07:03:45.951Z</time></trkpt><trkpt lat="44.0839266" lon="8.2054915"><ele>39.0</ele><time>2026-04-10T07:03:46.95Z</time></trkpt><trkpt lat="44.084075" lon="8.2054878"><ele>40.0</ele><time>2026-04-10T07:03:47.95Z</time></trkpt><trkpt lat="44.0842212" lon="8.2054885"><ele>42.0</ele><time>2026-04-10T07:03:48.95Z</time></trkpt><trkpt lat="44.0843567" lon="8.2054734"><ele>44.0</ele><time>2026-04-10T07:03:49.95Z</time></trkpt><trkpt lat="44.0844903" lon="8.2054572"><ele>46.0</ele><time>2026-04-10T07:03:50.95Z</time></trkpt><trkpt lat="44.0846161" lon="8.2054045"><ele>48.0</ele><time>2026-04-10T07:03:51.95Z</time></trkpt><trkpt lat="44.0847373" lon="8.2053464"><ele>48.0</ele><time>2026-04-10T07:03:52.95Z</time></trkpt><trkpt lat="44.0848514" lon="8.2052613"><ele>48.0</ele><time>2026-04-10T07:03:53.95Z</time></trkpt><trkpt lat="44.0849707" lon="8.2051803"><ele>48.0</ele><time>2026-04-10T07:03:54.951Z</time></trkpt><trkpt lat="44.0850943" lon="8.2050985"><ele>48.0</ele><time>2026-04-10T07:03:55.95Z</time></trkpt><trkpt lat="44.0852161" lon="8.2050089"><ele>48.599999999999994</ele><time>2026-04-10T07:03:56.95Z</time></trkpt><trkpt lat="44.0853397" lon="8.2049275"><ele>49.199999999999996</ele><time>2026-04-10T07:03:57.95Z</time></trkpt><trkpt lat="44.0854521" lon="8.2048549"><ele>49.8</ele><time>2026-04-10T07:03:58.95Z</time></trkpt><trkpt lat="44.0855408" lon="8.204785"><ele>50.4</ele><time>2026-04-10T07:03:59.95Z</time></trkpt><trkpt lat="44.085608" lon="8.2047134"><ele>51.0</ele><time>2026-04-10T07:04:00.95Z</time></trkpt><trkpt lat="44.0856599" lon="8.2046373"><ele>51.199999999999996</ele><time>2026-04-10T07:04:01.95Z</time></trkpt><trkpt lat="44.0857078" lon="8.2045663"><ele>51.4</ele><time>2026-04-10T07:04:02.95Z</time></trkpt><trkpt lat="44.0857723" lon="8.2044432"><ele>51.6</ele><time>2026-04-10T07:04:04.95Z</time></trkpt><trkpt lat="44.0858495" lon="8.2043102"><ele>51.8</ele><time>2026-04-10T07:04:06.95Z</time></trkpt><trkpt lat="44.0859117" lon="8.2042236"><ele>52.0</ele><time>2026-04-10T07:04:07.951Z</time></trkpt><trkpt lat="44.0859802" lon="8.2041079"><ele>53.0</ele><time>2026-04-10T07:04:08.951Z</time></trkpt><trkpt lat="44.0860527" lon="8.2039844"><ele>54.0</ele><time>2026-04-10T07:04:09.95Z</time></trkpt><trkpt lat="44.0861334" lon="8.2038521"><ele>55.0</ele><time>2026-04-10T07:04:10.95Z</time></trkpt><trkpt lat="44.0862171" lon="8.2037209"><ele>56.0</ele><time>2026-04-10T07:04:11.95Z</time></trkpt><trkpt lat="44.0863021" lon="8.2035999"><ele>56.0</ele><time>2026-04-10T07:04:12.95Z</time></trkpt><trkpt lat="44.0863823" lon="8.2034811"><ele>56.0</ele><time>2026-04-10T07:04:13.951Z</time></trkpt><trkpt lat="44.0864537" lon="8.2033497"><ele>56.0</ele><time>2026-04-10T07:04:14.95Z</time></trkpt><trkpt lat="44.0865252" lon="8.2032348"><ele>56.0</ele><time>2026-04-10T07:04:15.95Z</time></trkpt><trkpt lat="44.086548" lon="8.2030914"><ele>56.199999999999996</ele><time>2026-04-10T07:04:16.95Z</time></trkpt><trkpt lat="44.0865382" lon="8.2029392"><ele>56.39999999999999</ele><time>2026-04-10T07:04:17.951Z</time></trkpt><trkpt lat="44.0865327" lon="8.2027951"><ele>56.6</ele><time>2026-04-10T07:04:18.95Z</time></trkpt><trkpt lat="44.0865576" lon="8.2026686"><ele>56.8</ele><time>2026-04-10T07:04:19.95Z</time></trkpt><trkpt lat="44.0866027" lon="8.2025646"><ele>57.0</ele><time>2026-04-10T07:04:20.95Z</time></trkpt><trkpt lat="44.086651" lon="8.2024812"><ele>57.0</ele><time>2026-04-10T07:04:21.95Z</time></trkpt><trkpt lat="44.0866982" lon="8.2024156"><ele>57.0</ele><time>2026-04-10T07:04:22.95Z</time></trkpt><trkpt lat="44.0867758" lon="8.2022819"><ele>57.0</ele><time>2026-04-10T07:04:24.95Z</time></trkpt><trkpt lat="44.0868149" lon="8.2021871"><ele>57.0</ele><time>2026-04-10T07:04:25.95Z</time></trkpt><trkpt lat="44.0868587" lon="8.2020786"><ele>57.0</ele><time>2026-04-10T07:04:26.95Z</time></trkpt><trkpt lat="44.0869164" lon="8.2019561"><ele>56.400000000000006</ele><time>2026-04-10T07:04:27.95Z</time></trkpt><trkpt lat="44.0869869" lon="8.2018401"><ele>55.800000000000004</ele><time>2026-04-10T07:04:28.95Z</time></trkpt><trkpt lat="44.0870649" lon="8.2017402"><ele>55.2</ele><time>2026-04-10T07:04:29.95Z</time></trkpt><trkpt lat="44.0871403" lon="8.2016694"><ele>54.6</ele><time>2026-04-10T07:04:30.95Z</time></trkpt><trkpt lat="44.0872113" lon="8.2016179"><ele>54.0</ele><time>2026-04-10T07:04:31.95Z</time></trkpt><trkpt lat="44.0872678" lon="8.2015723"><ele>54.2</ele><time>2026-04-10T07:04:32.95Z</time></trkpt><trkpt lat="44.0873071" lon="8.2014588"><ele>54.400000000000006</ele><time>2026-04-10T07:04:34.95Z</time></trkpt><trkpt lat="44.0872121" lon="8.2013137"><ele>54.6</ele><time>2026-04-10T07:04:36.951Z</time></trkpt><trkpt lat="44.0871399" lon="8.2012241"><ele>54.8</ele><time>2026-04-10T07:04:37.951Z</time></trkpt><trkpt lat="44.0870672" lon="8.2011325"><ele>55.0</ele><time>2026-04-10T07:04:38.95Z</time></trkpt><trkpt lat="44.0870013" lon="8.2010467"><ele>55.0</ele><time>2026-04-10T07:04:39.95Z</time></trkpt><trkpt lat="44.0869456" lon="8.2009738"><ele>55.0</ele><time>2026-04-10T07:04:40.95Z</time></trkpt><trkpt lat="44.0868731" lon="8.2008523"><ele>55.0</ele><time>2026-04-10T07:04:42.95Z</time></trkpt><trkpt lat="44.0869145" lon="8.2006915"><ele>55.0</ele><time>2026-04-10T07:04:44.95Z</time></trkpt><trkpt lat="44.0869524" lon="8.2006131"><ele>55.0</ele><time>2026-04-10T07:04:45.95Z</time></trkpt><trkpt lat="44.0869864" lon="8.2004776"><ele>54.4</ele><time>2026-04-10T07:04:47.951Z</time></trkpt><trkpt lat="44.086858" lon="8.2004045"><ele>53.8</ele><time>2026-04-10T07:04:49.95Z</time></trkpt><trkpt lat="44.0867614" lon="8.2003651"><ele>53.2</ele><time>2026-04-10T07:04:50.951Z</time></trkpt><trkpt lat="44.0866732" lon="8.2003177"><ele>52.6</ele><time>2026-04-10T07:04:51.95Z</time></trkpt><trkpt lat="44.0865996" lon="8.2002636"><ele>52.0</ele><time>2026-04-10T07:04:52.95Z</time></trkpt><trkpt lat="44.0865418" lon="8.2002001"><ele>51.99999999999999</ele><time>2026-04-10T07:04:53.95Z</time></trkpt><trkpt lat="44.0864955" lon="8.2001275"><ele>52.0</ele><time>2026-04-10T07:04:54.951Z</time></trkpt><trkpt lat="44.0864511" lon="8.200026"><ele>52.0</ele><time>2026-04-10T07:04:55.951Z</time></trkpt><trkpt lat="44.0864176" lon="8.1999007"><ele>52.0</ele><time>2026-04-10T07:04:56.95Z</time></trkpt><trkpt lat="44.0863858" lon="8.1997861"><ele>51.99999999999999</ele><time>2026-04-10T07:04:57.95Z</time></trkpt><trkpt lat="44.0863476" lon="8.1996848"><ele>52.0</ele><time>2026-04-10T07:04:58.95Z</time></trkpt><trkpt lat="44.086315" lon="8.1995861"><ele>51.8</ele><time>2026-04-10T07:04:59.95Z</time></trkpt><trkpt lat="44.0862814" lon="8.199501"><ele>51.6</ele><time>2026-04-10T07:05:00.95Z</time></trkpt><trkpt lat="44.0862457" lon="8.1994274"><ele>51.4</ele><time>2026-04-10T07:05:01.95Z</time></trkpt><trkpt lat="44.0861992" lon="8.1992957"><ele>51.199999999999996</ele><time>2026-04-10T07:05:03.95Z</time></trkpt><trkpt lat="44.0862143" lon="8.1991745"><ele>51.0</ele><time>2026-04-10T07:05:05.951Z</time></trkpt><trkpt lat="44.0862322" lon="8.1989993"><ele>49.8</ele><time>2026-04-10T07:05:07.95Z</time></trkpt><trkpt lat="44.0862334" lon="8.198865"><ele>48.599999999999994</ele><time>2026-04-10T07:05:08.95Z</time></trkpt><trkpt lat="44.0862377" lon="8.1987074"><ele>47.4</ele><time>2026-04-10T07:05:09.95Z</time></trkpt><trkpt lat="44.0862418" lon="8.1985516"><ele>46.2</ele><time>2026-04-10T07:05:10.951Z</time></trkpt><trkpt lat="44.0862425" lon="8.1984209"><ele>45.0</ele><time>2026-04-10T07:05:11.951Z</time></trkpt><trkpt lat="44.0862431" lon="8.1983154"><ele>45.0</ele><time>2026-04-10T07:05:12.95Z</time></trkpt><trkpt lat="44.0862588" lon="8.1982031"><ele>45.0</ele><time>2026-04-10T07:05:14.95Z</time></trkpt><trkpt lat="44.0863423" lon="8.1981472"><ele>45.0</ele><time>2026-04-10T07:05:17.95Z</time></trkpt><trkpt lat="44.086408" lon="8.198098"><ele>45.0</ele><time>2026-04-10T07:05:19.951Z</time></trkpt><trkpt lat="44.0864805" lon="8.1980277"><ele>45.0</ele><time>2026-04-10T07:05:21.95Z</time></trkpt><trkpt lat="44.0865782" lon="8.1979606"><ele>45.0</ele><time>2026-04-10T07:05:23.95Z</time></trkpt><trkpt lat="44.0866894" lon="8.19792"><ele>46.0</ele><time>2026-04-10T07:05:25.951Z</time></trkpt><trkpt lat="44.0868181" lon="8.197931"><ele>47.0</ele><time>2026-04-10T07:05:27.95Z</time></trkpt><trkpt lat="44.0868829" lon="8.1979409"><ele>48.0</ele><time>2026-04-10T07:05:28.95Z</time></trkpt><trkpt lat="44.0869543" lon="8.197943"><ele>49.0</ele><time>2026-04-10T07:05:29.95Z</time></trkpt><trkpt lat="44.0870202" lon="8.1979279"><ele>50.0</ele><time>2026-04-10T07:05:30.95Z</time></trkpt><trkpt lat="44.0870844" lon="8.1979029"><ele>51.0</ele><time>2026-04-10T07:05:31.951Z</time></trkpt><trkpt lat="44.0871977" lon="8.197875"><ele>51.0</ele><time>2026-04-10T07:05:33.95Z</time></trkpt><trkpt lat="44.0872966" lon="8.19784"><ele>51.0</ele><time>2026-04-10T07:05:35.95Z</time></trkpt><trkpt lat="44.0874081" lon="8.1978029"><ele>51.0</ele><time>2026-04-10T07:05:37.95Z</time></trkpt><trkpt lat="44.0875181" lon="8.1977608"><ele>51.0</ele><time>2026-04-10T07:05:39.95Z</time></trkpt><trkpt lat="44.0876132" lon="8.1977329"><ele>51.0</ele><time>2026-04-10T07:05:41.95Z</time></trkpt><trkpt lat="44.0877034" lon="8.1976933"><ele>52.199999999999996</ele><time>2026-04-10T07:05:43.95Z</time></trkpt><trkpt lat="44.0877931" lon="8.1976566"><ele>53.4</ele><time>2026-04-10T07:05:45.95Z</time></trkpt><trkpt lat="44.0878847" lon="8.1976519"><ele>54.6</ele><time>2026-04-10T07:05:47.95Z</time></trkpt><trkpt lat="44.0880014" lon="8.1976703"><ele>55.8</ele><time>2026-04-10T07:05:49.95Z</time></trkpt><trkpt lat="44.0881024" lon="8.1976817"><ele>57.0</ele><time>2026-04-10T07:05:51.95Z</time></trkpt><trkpt lat="44.0881711" lon="8.1977031"><ele>57.0</ele><time>2026-04-10T07:05:53.95Z</time></trkpt><trkpt lat="44.0882232" lon="8.1977528"><ele>57.0</ele><time>2026-04-10T07:05:55.95Z</time></trkpt><trkpt lat="44.0882982" lon="8.1977886"><ele>57.0</ele><time>2026-04-10T07:05:57.95Z</time></trkpt><trkpt lat="44.0884032" lon="8.197812"><ele>57.0</ele><time>2026-04-10T07:05:59.951Z</time></trkpt><trkpt lat="44.0885105" lon="8.1978313"><ele>57.0</ele><time>2026-04-10T07:06:01.95Z</time></trkpt><trkpt lat="44.0885806" lon="8.1978835"><ele>57.0</ele><time>2026-04-10T07:06:03.95Z</time></trkpt><trkpt lat="44.088645" lon="8.1979199"><ele>58.666666666666664</ele><time>2026-04-10T07:06:05.95Z</time></trkpt><trkpt lat="44.088716" lon="8.1979347"><ele>60.33333333333333</ele><time>2026-04-10T07:06:07.95Z</time></trkpt><trkpt lat="44.0888003" lon="8.1979401"><ele>62.0</ele><time>2026-04-10T07:06:09.95Z</time></trkpt><trkpt lat="44.088872" lon="8.1979658"><ele>63.666666666666664</ele><time>2026-04-10T07:06:11.95Z</time></trkpt><trkpt lat="44.088936" lon="8.1979905"><ele>65.33333333333333</ele><time>2026-04-10T07:06:13.95Z</time></trkpt><trkpt lat="44.0890142" lon="8.1980388"><ele>67.0</ele><time>2026-04-10T07:06:16.951Z</time></trkpt><trkpt lat="44.089097" lon="8.1980249"><ele>67.83333333333333</ele><time>2026-04-10T07:06:19.95Z</time></trkpt><trkpt lat="44.0891799" lon="8.1980464"><ele>68.66666666666666</ele><time>2026-04-10T07:06:22.951Z</time></trkpt><trkpt lat="44.0892495" lon="8.1980566"><ele>69.5</ele><time>2026-04-10T07:06:24.95Z</time></trkpt><trkpt lat="44.0893343" lon="8.1980841"><ele>70.33333333333333</ele><time>2026-04-10T07:06:26.95Z</time></trkpt><trkpt lat="44.0894337" lon="8.1981196"><ele>71.16666666666667</ele><time>2026-04-10T07:06:28.95Z</time></trkpt><trkpt lat="44.0894986" lon="8.1981765"><ele>72.0</ele><time>2026-04-10T07:06:30.95Z</time></trkpt><trkpt lat="44.089567" lon="8.1982309"><ele>72.66666666666667</ele><time>2026-04-10T07:06:32.95Z</time></trkpt><trkpt lat="44.0896535" lon="8.1982927"><ele>73.33333333333333</ele><time>2026-04-10T07:06:34.95Z</time></trkpt><trkpt lat="44.0897365" lon="8.1983503"><ele>74.0</ele><time>2026-04-10T07:06:36.95Z</time></trkpt><trkpt lat="44.0898095" lon="8.1983656"><ele>74.66666666666666</ele><time>2026-04-10T07:06:38.95Z</time></trkpt><trkpt lat="44.0898851" lon="8.1983617"><ele>75.33333333333333</ele><time>2026-04-10T07:06:40.95Z</time></trkpt><trkpt lat="44.0899657" lon="8.1984107"><ele>76.0</ele><time>2026-04-10T07:06:42.95Z</time></trkpt><trkpt lat="44.0900609" lon="8.1984891"><ele>76.66666666666666</ele><time>2026-04-10T07:06:44.95Z</time></trkpt><trkpt lat="44.0901487" lon="8.1985211"><ele>77.33333333333333</ele><time>2026-04-10T07:06:46.95Z</time></trkpt><trkpt lat="44.0902341" lon="8.1985329"><ele>78.0</ele><time>2026-04-10T07:06:48.95Z</time></trkpt><trkpt lat="44.0903192" lon="8.1985371"><ele>78.66666666666667</ele><time>2026-04-10T07:06:51.951Z</time></trkpt><trkpt lat="44.0904208" lon="8.1985302"><ele>79.33333333333334</ele><time>2026-04-10T07:07:53.95Z</time></trkpt><trkpt lat="44.0904869" lon="8.1985201"><ele>80.0</ele><time>2026-04-10T07:07:56.95Z</time></trkpt><trkpt lat="44.0905622" lon="8.1984817"><ele>80.0</ele><time>2026-04-10T07:08:02.95Z</time></trkpt><trkpt lat="44.0905658" lon="8.1983807"><ele>80.0</ele><time>2026-04-10T07:08:45.95Z</time></trkpt><trkpt lat="44.0905079" lon="8.1983371"><ele>80.0</ele><time>2026-04-10T07:08:48.95Z</time></trkpt><trkpt lat="44.0904237" lon="8.1983567"><ele>80.0</ele><time>2026-04-10T07:08:51.95Z</time></trkpt><trkpt lat="44.0903689" lon="8.1982876"><ele>80.0</ele><time>2026-04-10T07:08:56.95Z</time></trkpt><trkpt lat="44.0903645" lon="8.19816"><ele>80.0</ele><time>2026-04-10T07:08:59.95Z</time></trkpt><trkpt lat="44.0903618" lon="8.1980459"><ele>79.33333333333334</ele><time>2026-04-10T07:09:02.95Z</time></trkpt><trkpt lat="44.0903338" lon="8.1979508"><ele>78.66666666666667</ele><time>2026-04-10T07:09:05.95Z</time></trkpt><trkpt lat="44.0903001" lon="8.1978471"><ele>78.0</ele><time>2026-04-10T07:09:08.95Z</time></trkpt><trkpt lat="44.0902617" lon="8.197716"><ele>77.33333333333333</ele><time>2026-04-10T07:09:10.95Z</time></trkpt><trkpt lat="44.0901945" lon="8.1976254"><ele>76.66666666666666</ele><time>2026-04-10T07:09:12.95Z</time></trkpt><trkpt lat="44.0901014" lon="8.197594"><ele>76.0</ele><time>2026-04-10T07:09:14.95Z</time></trkpt><trkpt lat="44.0899767" lon="8.1975698"><ele>75.2</ele><time>2026-04-10T07:09:16.95Z</time></trkpt><trkpt lat="44.0899152" lon="8.1975423"><ele>74.39999999999999</ele><time>2026-04-10T07:09:17.95Z</time></trkpt><trkpt lat="44.089812" lon="8.1974893"><ele>73.6</ele><time>2026-04-10T07:09:19.95Z</time></trkpt><trkpt lat="44.0896942" lon="8.1974783"><ele>72.8</ele><time>2026-04-10T07:09:21.951Z</time></trkpt><trkpt lat="44.0895901" lon="8.197483"><ele>72.0</ele><time>2026-04-10T07:09:23.951Z</time></trkpt><trkpt lat="44.0894751" lon="8.1974659"><ele>72.0</ele><time>2026-04-10T07:09:25.951Z</time></trkpt><trkpt lat="44.0894009" lon="8.1974554"><ele>72.0</ele><time>2026-04-10T07:09:26.951Z</time></trkpt><trkpt lat="44.089325" lon="8.1974532"><ele>72.0</ele><time>2026-04-10T07:09:27.95Z</time></trkpt><trkpt lat="44.0892357" lon="8.1974626"><ele>72.0</ele><time>2026-04-10T07:09:28.95Z</time></trkpt><trkpt lat="44.0891471" lon="8.1974715"><ele>72.0</ele><time>2026-04-10T07:09:29.95Z</time></trkpt><trkpt lat="44.0890588" lon="8.1974764"><ele>72.0</ele><time>2026-04-10T07:09:30.95Z</time></trkpt><trkpt lat="44.0889711" lon="8.1974691"><ele>71.16666666666667</ele><time>2026-04-10T07:09:31.95Z</time></trkpt><trkpt lat="44.0888826" lon="8.1974573"><ele>70.33333333333333</ele><time>2026-04-10T07:09:32.95Z</time></trkpt><trkpt lat="44.0887918" lon="8.1974502"><ele>69.5</ele><time>2026-04-10T07:09:33.95Z</time></trkpt><trkpt lat="44.0887069" lon="8.197454"><ele>68.66666666666666</ele><time>2026-04-10T07:09:34.95Z</time></trkpt><trkpt lat="44.0886225" lon="8.1974587"><ele>67.83333333333333</ele><time>2026-04-10T07:09:35.95Z</time></trkpt><trkpt lat="44.0885333" lon="8.197456"><ele>67.0</ele><time>2026-04-10T07:09:36.95Z</time></trkpt><trkpt lat="44.088451" lon="8.1974607"><ele>67.0</ele><time>2026-04-10T07:09:37.95Z</time></trkpt><trkpt lat="44.0883835" lon="8.1974522"><ele>67.0</ele><time>2026-04-10T07:09:38.95Z</time></trkpt><trkpt lat="44.0883182" lon="8.1974298"><ele>67.0</ele><time>2026-04-10T07:09:39.95Z</time></trkpt><trkpt lat="44.0882432" lon="8.1973979"><ele>67.0</ele><time>2026-04-10T07:09:40.95Z</time></trkpt><trkpt lat="44.0881573" lon="8.1973588"><ele>67.0</ele><time>2026-04-10T07:09:41.951Z</time></trkpt><trkpt lat="44.0880716" lon="8.1973293"><ele>67.0</ele><time>2026-04-10T07:09:42.95Z</time></trkpt><trkpt lat="44.0879952" lon="8.1973003"><ele>67.28571428571429</ele><time>2026-04-10T07:09:43.95Z</time></trkpt><trkpt lat="44.0879278" lon="8.1972795"><ele>67.57142857142857</ele><time>2026-04-10T07:09:44.95Z</time></trkpt><trkpt lat="44.0878655" lon="8.1972643"><ele>67.85714285714286</ele><time>2026-04-10T07:09:45.95Z</time></trkpt><trkpt lat="44.087797" lon="8.1972803"><ele>68.14285714285714</ele><time>2026-04-10T07:09:46.95Z</time></trkpt><trkpt lat="44.0877305" lon="8.1973165"><ele>68.42857142857143</ele><time>2026-04-10T07:09:47.95Z</time></trkpt><trkpt lat="44.0876715" lon="8.197351"><ele>68.71428571428572</ele><time>2026-04-10T07:09:48.95Z</time></trkpt><trkpt lat="44.087608" lon="8.1973717"><ele>69.0</ele><time>2026-04-10T07:09:49.95Z</time></trkpt><trkpt lat="44.0874892" lon="8.1973698"><ele>65.4</ele><time>2026-04-10T07:09:51.95Z</time></trkpt><trkpt lat="44.0873911" lon="8.1974002"><ele>61.800000000000004</ele><time>2026-04-10T07:09:53.951Z</time></trkpt><trkpt lat="44.087305" lon="8.1974399"><ele>58.2</ele><time>2026-04-10T07:09:55.95Z</time></trkpt><trkpt lat="44.0872359" lon="8.1974536"><ele>54.599999999999994</ele><time>2026-04-10T07:09:57.95Z</time></trkpt><trkpt lat="44.087163" lon="8.1974772"><ele>51.0</ele><time>2026-04-10T07:09:59.951Z</time></trkpt><trkpt lat="44.0870507" lon="8.1974506"><ele>51.0</ele><time>2026-04-10T07:10:01.95Z</time></trkpt><trkpt lat="44.0869204" lon="8.1974084"><ele>51.0</ele><time>2026-04-10T07:10:03.95Z</time></trkpt><trkpt lat="44.0868474" lon="8.1974039"><ele>51.0</ele><time>2026-04-10T07:10:04.951Z</time></trkpt><trkpt lat="44.0867768" lon="8.1974062"><ele>51.0</ele><time>2026-04-10T07:10:05.95Z</time></trkpt><trkpt lat="44.0866915" lon="8.1974052"><ele>51.0</ele><time>2026-04-10T07:10:06.95Z</time></trkpt><trkpt lat="44.0866071" lon="8.1973949"><ele>51.0</ele><time>2026-04-10T07:10:07.95Z</time></trkpt><trkpt lat="44.0865278" lon="8.1973886"><ele>51.333333333333336</ele><time>2026-04-10T07:10:08.95Z</time></trkpt><trkpt lat="44.0864527" lon="8.197384"><ele>51.66666666666667</ele><time>2026-04-10T07:10:09.951Z</time></trkpt><trkpt lat="44.0863801" lon="8.1973777"><ele>52.0</ele><time>2026-04-10T07:10:10.95Z</time></trkpt><trkpt lat="44.0862662" lon="8.1973796"><ele>52.333333333333336</ele><time>2026-04-10T07:10:12.95Z</time></trkpt><trkpt lat="44.0861935" lon="8.1973592"><ele>52.66666666666667</ele><time>2026-04-10T07:10:14.95Z</time></trkpt><trkpt lat="44.0862389" lon="8.1972453"><ele>53.0</ele><time>2026-04-10T07:10:17.951Z</time></trkpt><trkpt lat="44.0863014" lon="8.1972033"><ele>55.333333333333336</ele><time>2026-04-10T07:10:18.95Z</time></trkpt><trkpt lat="44.0863739" lon="8.197168"><ele>57.66666666666667</ele><time>2026-04-10T07:10:19.95Z</time></trkpt><trkpt lat="44.0864549" lon="8.1971309"><ele>60.0</ele><time>2026-04-10T07:10:20.95Z</time></trkpt><trkpt lat="44.0865284" lon="8.1970849"><ele>62.33333333333333</ele><time>2026-04-10T07:10:21.95Z</time></trkpt><trkpt lat="44.0865839" lon="8.1970298"><ele>64.66666666666666</ele><time>2026-04-10T07:10:22.95Z</time></trkpt><trkpt lat="44.0866647" lon="8.1969092"><ele>67.0</ele><time>2026-04-10T07:10:24.95Z</time></trkpt><trkpt lat="44.0867328" lon="8.1967855"><ele>67.16666666666666</ele><time>2026-04-10T07:10:26.95Z</time></trkpt><trkpt lat="44.0867781" lon="8.1966571"><ele>67.33333333333333</ele><time>2026-04-10T07:10:28.95Z</time></trkpt><trkpt lat="44.0868002" lon="8.1965385"><ele>67.5</ele><time>2026-04-10T07:10:30.95Z</time></trkpt><trkpt lat="44.0868308" lon="8.1964232"><ele>67.66666666666667</ele><time>2026-04-10T07:10:32.95Z</time></trkpt><trkpt lat="44.0868481" lon="8.1963372"><ele>67.83333333333334</ele><time>2026-04-10T07:10:34.95Z</time></trkpt><trkpt lat="44.0868449" lon="8.1962398"><ele>68.0</ele><time>2026-04-10T07:10:39.95Z</time></trkpt><trkpt lat="44.0868125" lon="8.1961376"><ele>68.5</ele><time>2026-04-10T07:10:44.95Z</time></trkpt><trkpt lat="44.0868359" lon="8.1960128"><ele>69.0</ele><time>2026-04-10T07:10:47.951Z</time></trkpt><trkpt lat="44.0868813" lon="8.1959091"><ele>69.5</ele><time>2026-04-10T07:10:49.951Z</time></trkpt><trkpt lat="44.0869648" lon="8.1958014"><ele>70.0</ele><time>2026-04-10T07:10:51.95Z</time></trkpt><trkpt lat="44.0869695" lon="8.1956908"><ele>70.5</ele><time>2026-04-10T07:10:54.951Z</time></trkpt><trkpt lat="44.0869236" lon="8.1956075"><ele>71.0</ele><time>2026-04-10T07:10:55.95Z</time></trkpt><trkpt lat="44.0868685" lon="8.1955065"><ele>71.0</ele><time>2026-04-10T07:10:56.95Z</time></trkpt><trkpt lat="44.0868049" lon="8.195417"><ele>71.0</ele><time>2026-04-10T07:10:57.95Z</time></trkpt><trkpt lat="44.0867347" lon="8.1953437"><ele>71.0</ele><time>2026-04-10T07:10:58.95Z</time></trkpt><trkpt lat="44.0866492" lon="8.1952847"><ele>71.0</ele><time>2026-04-10T07:10:59.95Z</time></trkpt><trkpt lat="44.0865583" lon="8.195233"><ele>71.0</ele><time>2026-04-10T07:11:00.95Z</time></trkpt><trkpt lat="44.0864736" lon="8.1951864"><ele>70.39999999999999</ele><time>2026-04-10T07:11:01.951Z</time></trkpt><trkpt lat="44.0863888" lon="8.195157"><ele>69.8</ele><time>2026-04-10T07:11:02.95Z</time></trkpt><trkpt lat="44.0863038" lon="8.1951333"><ele>69.19999999999999</ele><time>2026-04-10T07:11:03.95Z</time></trkpt><trkpt lat="44.0861935" lon="8.1950988"><ele>68.6</ele><time>2026-04-10T07:11:04.95Z</time></trkpt><trkpt lat="44.0860771" lon="8.1950493"><ele>68.0</ele><time>2026-04-10T07:11:05.95Z</time></trkpt><trkpt lat="44.0859533" lon="8.1950002"><ele>68.0</ele><time>2026-04-10T07:11:06.95Z</time></trkpt><trkpt lat="44.0858397" lon="8.1949594"><ele>68.0</ele><time>2026-04-10T07:11:07.95Z</time></trkpt><trkpt lat="44.0857345" lon="8.1949286"><ele>68.0</ele><time>2026-04-10T07:11:08.951Z</time></trkpt><trkpt lat="44.0856458" lon="8.1949039"><ele>68.0</ele><time>2026-04-10T07:11:09.951Z</time></trkpt><trkpt lat="44.0855726" lon="8.1948852"><ele>68.0</ele><time>2026-04-10T07:11:10.95Z</time></trkpt><trkpt lat="44.0854678" lon="8.1948781"><ele>68.0</ele><time>2026-04-10T07:11:12.95Z</time></trkpt><trkpt lat="44.0853682" lon="8.1948844"><ele>68.0</ele><time>2026-04-10T07:11:14.95Z</time></trkpt><trkpt lat="44.0852938" lon="8.1949211"><ele>68.0</ele><time>2026-04-10T07:11:16.95Z</time></trkpt><trkpt lat="44.0852213" lon="8.1949223"><ele>68.0</ele><time>2026-04-10T07:11:18.95Z</time></trkpt><trkpt lat="44.0851317" lon="8.1949292"><ele>68.0</ele><time>2026-04-10T07:11:20.951Z</time></trkpt><trkpt lat="44.0850358" lon="8.1949319"><ele>68.0</ele><time>2026-04-10T07:11:22.95Z</time></trkpt><trkpt lat="44.0849509" lon="8.1948961"><ele>67.0</ele><time>2026-04-10T07:11:24.95Z</time></trkpt><trkpt lat="44.0848634" lon="8.1948745"><ele>66.0</ele><time>2026-04-10T07:11:26.951Z</time></trkpt><trkpt lat="44.0847895" lon="8.194875"><ele>65.0</ele><time>2026-04-10T07:11:28.95Z</time></trkpt><trkpt lat="44.0847034" lon="8.1949332"><ele>64.0</ele><time>2026-04-10T07:11:30.95Z</time></trkpt><trkpt lat="44.0846503" lon="8.1949818"><ele>63.00000000000001</ele><time>2026-04-10T07:11:31.95Z</time></trkpt><trkpt lat="44.08454" lon="8.1950622"><ele>62.0</ele><time>2026-04-10T07:11:33.95Z</time></trkpt><trkpt lat="44.0844135" lon="8.1951182"><ele>62.00000000000001</ele><time>2026-04-10T07:11:35.951Z</time></trkpt><trkpt lat="44.0843332" lon="8.1951388"><ele>62.0</ele><time>2026-04-10T07:11:36.95Z</time></trkpt><trkpt lat="44.0842514" lon="8.1951475"><ele>62.0</ele><time>2026-04-10T07:11:37.95Z</time></trkpt><trkpt lat="44.0841711" lon="8.1951499"><ele>62.0</ele><time>2026-04-10T07:11:38.95Z</time></trkpt><trkpt lat="44.0840995" lon="8.1951601"><ele>62.00000000000001</ele><time>2026-04-10T07:11:39.95Z</time></trkpt><trkpt lat="44.084034" lon="8.1951668"><ele>62.0</ele><time>2026-04-10T07:11:40.95Z</time></trkpt><trkpt lat="44.0839655" lon="8.1951842"><ele>60.85714285714286</ele><time>2026-04-10T07:11:41.95Z</time></trkpt><trkpt lat="44.0838944" lon="8.1951944"><ele>59.71428571428572</ele><time>2026-04-10T07:11:42.95Z</time></trkpt><trkpt lat="44.0838176" lon="8.1952014"><ele>58.57142857142857</ele><time>2026-04-10T07:11:43.95Z</time></trkpt><trkpt lat="44.0837467" lon="8.1952254"><ele>57.42857142857143</ele><time>2026-04-10T07:11:44.951Z</time></trkpt><trkpt lat="44.0836759" lon="8.1952557"><ele>56.285714285714285</ele><time>2026-04-10T07:11:45.95Z</time></trkpt><trkpt lat="44.083608" lon="8.1953019"><ele>55.14285714285714</ele><time>2026-04-10T07:11:46.95Z</time></trkpt><trkpt lat="44.0835371" lon="8.195348"><ele>54.0</ele><time>2026-04-10T07:11:47.95Z</time></trkpt><trkpt lat="44.0834715" lon="8.1953876"><ele>54.0</ele><time>2026-04-10T07:11:48.95Z</time></trkpt><trkpt lat="44.0834149" lon="8.1954441"><ele>54.00000000000001</ele><time>2026-04-10T07:11:49.95Z</time></trkpt><trkpt lat="44.0833666" lon="8.1955029"><ele>54.00000000000001</ele><time>2026-04-10T07:11:50.95Z</time></trkpt><trkpt lat="44.0832698" lon="8.1955663"><ele>54.0</ele><time>2026-04-10T07:11:52.95Z</time></trkpt><trkpt lat="44.0831894" lon="8.1956719"><ele>54.0</ele><time>2026-04-10T07:11:54.95Z</time></trkpt><trkpt lat="44.0830915" lon="8.1957675"><ele>53.0</ele><time>2026-04-10T07:11:56.95Z</time></trkpt><trkpt lat="44.0830271" lon="8.195808"><ele>52.0</ele><time>2026-04-10T07:11:57.95Z</time></trkpt><trkpt lat="44.0829569" lon="8.1958361"><ele>51.0</ele><time>2026-04-10T07:11:58.95Z</time></trkpt><trkpt lat="44.082874" lon="8.1958637"><ele>50.0</ele><time>2026-04-10T07:11:59.95Z</time></trkpt><trkpt lat="44.0827907" lon="8.1958868"><ele>49.0</ele><time>2026-04-10T07:12:00.95Z</time></trkpt><trkpt lat="44.0827109" lon="8.1959048"><ele>48.0</ele><time>2026-04-10T07:12:01.95Z</time></trkpt><trkpt lat="44.0826345" lon="8.1959178"><ele>48.0</ele><time>2026-04-10T07:12:02.951Z</time></trkpt><trkpt lat="44.0825665" lon="8.1959285"><ele>48.0</ele><time>2026-04-10T07:12:03.95Z</time></trkpt><trkpt lat="44.0824542" lon="8.1959314"><ele>48.0</ele><time>2026-04-10T07:12:05.95Z</time></trkpt><trkpt lat="44.0823835" lon="8.1959007"><ele>48.0</ele><time>2026-04-10T07:12:07.95Z</time></trkpt><trkpt lat="44.0823955" lon="8.1957799"><ele>48.0</ele><time>2026-04-10T07:12:09.95Z</time></trkpt><trkpt lat="44.0824088" lon="8.1956777"><ele>48.0</ele><time>2026-04-10T07:12:11.95Z</time></trkpt><trkpt lat="44.0823779" lon="8.1955714"><ele>46.4</ele><time>2026-04-10T07:12:14.95Z</time></trkpt><trkpt lat="44.0823535" lon="8.195428"><ele>44.8</ele><time>2026-04-10T07:12:16.95Z</time></trkpt><trkpt lat="44.0823469" lon="8.1952698"><ele>43.2</ele><time>2026-04-10T07:12:18.95Z</time></trkpt><trkpt lat="44.0823382" lon="8.1951169"><ele>41.6</ele><time>2026-04-10T07:12:20.95Z</time></trkpt><trkpt lat="44.0822928" lon="8.1950436"><ele>40.0</ele><time>2026-04-10T07:12:23.95Z</time></trkpt><trkpt lat="44.0821681" lon="8.1950113"><ele>40.0</ele><time>2026-04-10T07:12:25.95Z</time></trkpt><trkpt lat="44.0821043" lon="8.1949748"><ele>40.0</ele><time>2026-04-10T07:12:26.95Z</time></trkpt><trkpt lat="44.0820456" lon="8.1949266"><ele>40.0</ele><time>2026-04-10T07:12:27.95Z</time></trkpt><trkpt lat="44.0819938" lon="8.1948756"><ele>40.0</ele><time>2026-04-10T07:12:28.95Z</time></trkpt><trkpt lat="44.0819331" lon="8.1948349"><ele>40.0</ele><time>2026-04-10T07:12:29.95Z</time></trkpt><trkpt lat="44.0818697" lon="8.1948022"><ele>40.0</ele><time>2026-04-10T07:12:30.95Z</time></trkpt><trkpt lat="44.0818085" lon="8.1947713"><ele>40.0</ele><time>2026-04-10T07:12:31.95Z</time></trkpt><trkpt lat="44.0817071" lon="8.1946896"><ele>38.833333333333336</ele><time>2026-04-10T07:12:33.95Z</time></trkpt><trkpt lat="44.0816037" lon="8.1945876"><ele>37.66666666666667</ele><time>2026-04-10T07:12:35.95Z</time></trkpt><trkpt lat="44.0815401" lon="8.1945292"><ele>36.5</ele><time>2026-04-10T07:12:36.95Z</time></trkpt><trkpt lat="44.0814793" lon="8.1944725"><ele>35.333333333333336</ele><time>2026-04-10T07:12:37.95Z</time></trkpt><trkpt lat="44.0814205" lon="8.1944384"><ele>34.166666666666664</ele><time>2026-04-10T07:12:38.95Z</time></trkpt><trkpt lat="44.0813578" lon="8.1944211"><ele>33.0</ele><time>2026-04-10T07:12:39.95Z</time></trkpt><trkpt lat="44.0812908" lon="8.1943981"><ele>33.0</ele><time>2026-04-10T07:12:40.95Z</time></trkpt><trkpt lat="44.0812111" lon="8.1943796"><ele>33.0</ele><time>2026-04-10T07:12:41.95Z</time></trkpt><trkpt lat="44.0811287" lon="8.1943618"><ele>33.0</ele><time>2026-04-10T07:12:42.95Z</time></trkpt><trkpt lat="44.0810388" lon="8.1943544"><ele>33.0</ele><time>2026-04-10T07:12:43.95Z</time></trkpt><trkpt lat="44.0809458" lon="8.1943496"><ele>33.0</ele><time>2026-04-10T07:12:44.951Z</time></trkpt><trkpt lat="44.0808598" lon="8.1943573"><ele>33.0</ele><time>2026-04-10T07:12:45.95Z</time></trkpt><trkpt lat="44.0807862" lon="8.1943706"><ele>33.0</ele><time>2026-04-10T07:12:46.95Z</time></trkpt><trkpt lat="44.0806704" lon="8.1944319"><ele>33.0</ele><time>2026-04-10T07:12:48.95Z</time></trkpt><trkpt lat="44.0806062" lon="8.1944751"><ele>33.0</ele><time>2026-04-10T07:12:49.951Z</time></trkpt><trkpt lat="44.0805431" lon="8.1945263"><ele>33.0</ele><time>2026-04-10T07:12:50.95Z</time></trkpt><trkpt lat="44.0804775" lon="8.1946014"><ele>33.0</ele><time>2026-04-10T07:12:51.951Z</time></trkpt><trkpt lat="44.0804122" lon="8.1946841"><ele>33.0</ele><time>2026-04-10T07:12:52.95Z</time></trkpt><trkpt lat="44.0803557" lon="8.1947636"><ele>33.0</ele><time>2026-04-10T07:12:53.95Z</time></trkpt><trkpt lat="44.0802917" lon="8.1948284"><ele>33.0</ele><time>2026-04-10T07:12:54.95Z</time></trkpt><trkpt lat="44.0802227" lon="8.1949129"><ele>33.0</ele><time>2026-04-10T07:12:55.951Z</time></trkpt><trkpt lat="44.0801625" lon="8.1950171"><ele>33.0</ele><time>2026-04-10T07:12:56.95Z</time></trkpt><trkpt lat="44.0800985" lon="8.1951153"><ele>33.0</ele><time>2026-04-10T07:12:57.95Z</time></trkpt><trkpt lat="44.0800235" lon="8.1952038"><ele>32.0</ele><time>2026-04-10T07:12:58.95Z</time></trkpt><trkpt lat="44.0799415" lon="8.1952718"><ele>30.999999999999996</ele><time>2026-04-10T07:12:59.95Z</time></trkpt><trkpt lat="44.0798536" lon="8.195337"><ele>29.999999999999996</ele><time>2026-04-10T07:13:00.95Z</time></trkpt><trkpt lat="44.079764" lon="8.1953902"><ele>29.0</ele><time>2026-04-10T07:13:01.95Z</time></trkpt><trkpt lat="44.0796734" lon="8.1954414"><ele>28.0</ele><time>2026-04-10T07:13:02.95Z</time></trkpt><trkpt lat="44.0795828" lon="8.195492"><ele>27.666666666666668</ele><time>2026-04-10T07:13:03.95Z</time></trkpt><trkpt lat="44.0794952" lon="8.1955404"><ele>27.333333333333336</ele><time>2026-04-10T07:13:04.95Z</time></trkpt><trkpt lat="44.0794175" lon="8.1955962"><ele>27.0</ele><time>2026-04-10T07:13:05.95Z</time></trkpt><trkpt lat="44.079352" lon="8.1956555"><ele>26.666666666666664</ele><time>2026-04-10T07:13:06.95Z</time></trkpt><trkpt lat="44.0792924" lon="8.1957221"><ele>26.333333333333332</ele><time>2026-04-10T07:13:07.95Z</time></trkpt><trkpt lat="44.0792455" lon="8.1958062"><ele>26.0</ele><time>2026-04-10T07:13:08.95Z</time></trkpt><trkpt lat="44.0791967" lon="8.1959055"><ele>25.166666666666664</ele><time>2026-04-10T07:13:09.95Z</time></trkpt><trkpt lat="44.0791595" lon="8.196012"><ele>24.333333333333332</ele><time>2026-04-10T07:13:10.95Z</time></trkpt><trkpt lat="44.0791215" lon="8.1961077"><ele>23.5</ele><time>2026-04-10T07:13:11.95Z</time></trkpt><trkpt lat="44.0790654" lon="8.1961915"><ele>22.666666666666664</ele><time>2026-04-10T07:13:12.951Z</time></trkpt><trkpt lat="44.0790033" lon="8.1962584"><ele>21.833333333333332</ele><time>2026-04-10T07:13:13.95Z</time></trkpt><trkpt lat="44.0789325" lon="8.1963237"><ele>21.0</ele><time>2026-04-10T07:13:14.95Z</time></trkpt><trkpt lat="44.0788565" lon="8.1963787"><ele>20.2</ele><time>2026-04-10T07:13:15.951Z</time></trkpt><trkpt lat="44.078779" lon="8.1964161"><ele>19.400000000000002</ele><time>2026-04-10T07:13:16.951Z</time></trkpt><trkpt lat="44.0786854" lon="8.1964586"><ele>18.6</ele><time>2026-04-10T07:13:17.95Z</time></trkpt><trkpt lat="44.0785892" lon="8.1965018"><ele>17.8</ele><time>2026-04-10T07:13:18.95Z</time></trkpt><trkpt lat="44.0784945" lon="8.1965471"><ele>17.0</ele><time>2026-04-10T07:13:19.95Z</time></trkpt><trkpt lat="44.0783986" lon="8.1965913"><ele>17.0</ele><time>2026-04-10T07:13:20.95Z</time></trkpt><trkpt lat="44.0783222" lon="8.1966356"><ele>17.0</ele><time>2026-04-10T07:13:21.95Z</time></trkpt><trkpt lat="44.0782587" lon="8.1966874"><ele>17.0</ele><time>2026-04-10T07:13:22.95Z</time></trkpt><trkpt lat="44.0781783" lon="8.1968307"><ele>17.0</ele><time>2026-04-10T07:13:24.95Z</time></trkpt><trkpt lat="44.0781517" lon="8.1969386"><ele>17.0</ele><time>2026-04-10T07:13:25.95Z</time></trkpt><trkpt lat="44.0781233" lon="8.1970396"><ele>17.0</ele><time>2026-04-10T07:13:26.95Z</time></trkpt><trkpt lat="44.0780993" lon="8.1971299"><ele>17.2</ele><time>2026-04-10T07:13:27.95Z</time></trkpt><trkpt lat="44.0780311" lon="8.1972391"><ele>17.4</ele><time>2026-04-10T07:13:29.951Z</time></trkpt><trkpt lat="44.0779285" lon="8.197168"><ele>17.6</ele><time>2026-04-10T07:13:31.95Z</time></trkpt><trkpt lat="44.077861" lon="8.197105"><ele>17.8</ele><time>2026-04-10T07:13:32.951Z</time></trkpt><trkpt lat="44.0777671" lon="8.197045"><ele>18.0</ele><time>2026-04-10T07:13:33.95Z</time></trkpt><trkpt lat="44.0776711" lon="8.1970009"><ele>18.0</ele><time>2026-04-10T07:13:34.95Z</time></trkpt><trkpt lat="44.0775756" lon="8.1969728"><ele>18.0</ele><time>2026-04-10T07:13:35.95Z</time></trkpt><trkpt lat="44.0774823" lon="8.1969699"><ele>18.0</ele><time>2026-04-10T07:13:36.95Z</time></trkpt><trkpt lat="44.0773975" lon="8.1969924"><ele>18.0</ele><time>2026-04-10T07:13:37.951Z</time></trkpt><trkpt lat="44.0773229" lon="8.1970257"><ele>18.0</ele><time>2026-04-10T07:13:38.95Z</time></trkpt><trkpt lat="44.0772621" lon="8.19708"><ele>18.0</ele><time>2026-04-10T07:13:39.95Z</time></trkpt><trkpt lat="44.0772111" lon="8.1971338"><ele>17.75</ele><time>2026-04-10T07:13:40.951Z</time></trkpt><trkpt lat="44.0771656" lon="8.1972321"><ele>17.5</ele><time>2026-04-10T07:13:42.95Z</time></trkpt><trkpt lat="44.0771934" lon="8.197406"><ele>17.25</ele><time>2026-04-10T07:13:44.95Z</time></trkpt><trkpt lat="44.0772368" lon="8.1975737"><ele>17.0</ele><time>2026-04-10T07:13:45.95Z</time></trkpt><trkpt lat="44.0772829" lon="8.1977553"><ele>16.8</ele><time>2026-04-10T07:13:46.95Z</time></trkpt><trkpt lat="44.0773115" lon="8.1979071"><ele>16.6</ele><time>2026-04-10T07:13:47.95Z</time></trkpt><trkpt lat="44.0773224" lon="8.1980311"><ele>16.400000000000002</ele><time>2026-04-10T07:13:48.95Z</time></trkpt><trkpt lat="44.0773168" lon="8.19812"><ele>16.2</ele><time>2026-04-10T07:13:49.951Z</time></trkpt><trkpt lat="44.0772096" lon="8.1981927"><ele>16.0</ele><time>2026-04-10T07:13:51.95Z</time></trkpt><trkpt lat="44.0771264" lon="8.1982258"><ele>16.0</ele><time>2026-04-10T07:13:52.95Z</time></trkpt><trkpt lat="44.0770397" lon="8.1982645"><ele>16.0</ele><time>2026-04-10T07:13:53.95Z</time></trkpt><trkpt lat="44.0769544" lon="8.1983262"><ele>16.0</ele><time>2026-04-10T07:13:54.951Z</time></trkpt><trkpt lat="44.0768785" lon="8.1984133"><ele>16.0</ele><time>2026-04-10T07:13:55.951Z</time></trkpt><trkpt lat="44.0768199" lon="8.1985477"><ele>16.0</ele><time>2026-04-10T07:13:56.951Z</time></trkpt><trkpt lat="44.0767735" lon="8.1986715"><ele>16.0</ele><time>2026-04-10T07:13:57.951Z</time></trkpt><trkpt lat="44.0767385" lon="8.1987742"><ele>16.0</ele><time>2026-04-10T07:13:58.95Z</time></trkpt><trkpt lat="44.0767035" lon="8.1988515"><ele>16.0</ele><time>2026-04-10T07:13:59.95Z</time></trkpt><trkpt lat="44.0766561" lon="8.1989303"><ele>16.0</ele><time>2026-04-10T07:14:01.951Z</time></trkpt><trkpt lat="44.0765911" lon="8.1987843"><ele>16.0</ele><time>2026-04-10T07:14:14.95Z</time></trkpt><trkpt lat="44.0765395" lon="8.1986186"><ele>15.0</ele><time>2026-04-10T07:14:15.95Z</time></trkpt><trkpt lat="44.0764708" lon="8.1984247"><ele>14.0</ele><time>2026-04-10T07:14:16.95Z</time></trkpt><trkpt lat="44.0763839" lon="8.1982147"><ele>13.0</ele><time>2026-04-10T07:14:17.95Z</time></trkpt><trkpt lat="44.0762859" lon="8.1979824"><ele>13.0</ele><time>2026-04-10T07:14:18.95Z</time></trkpt><trkpt lat="44.0761845" lon="8.1977495"><ele>13.0</ele><time>2026-04-10T07:14:19.95Z</time></trkpt><trkpt lat="44.0760851" lon="8.1975321"><ele>13.0</ele><time>2026-04-10T07:14:20.95Z</time></trkpt><trkpt lat="44.0759947" lon="8.1973254"><ele>14.25</ele><time>2026-04-10T07:14:21.95Z</time></trkpt><trkpt lat="44.0759091" lon="8.1971406"><ele>15.5</ele><time>2026-04-10T07:14:22.95Z</time></trkpt><trkpt lat="44.0758407" lon="8.196984"><ele>16.75</ele><time>2026-04-10T07:14:23.95Z</time></trkpt><trkpt lat="44.075784" lon="8.1968599"><ele>18.0</ele><time>2026-04-10T07:14:24.95Z</time></trkpt><trkpt lat="44.0757565" lon="8.1967711"><ele>18.5</ele><time>2026-04-10T07:14:25.95Z</time></trkpt><trkpt lat="44.0757435" lon="8.1966488"><ele>19.0</ele><time>2026-04-10T07:14:27.95Z</time></trkpt><trkpt lat="44.0757384" lon="8.1964701"><ele>19.5</ele><time>2026-04-10T07:14:32.95Z</time></trkpt><trkpt lat="44.075721" lon="8.1963002"><ele>20.0</ele><time>2026-04-10T07:14:33.951Z</time></trkpt><trkpt lat="44.0756964" lon="8.1960791"><ele>20.333333333333336</ele><time>2026-04-10T07:14:34.951Z</time></trkpt><trkpt lat="44.0756752" lon="8.1958058"><ele>20.666666666666668</ele><time>2026-04-10T07:14:35.95Z</time></trkpt><trkpt lat="44.0756341" lon="8.1955437"><ele>21.0</ele><time>2026-04-10T07:14:36.95Z</time></trkpt><trkpt lat="44.0755607" lon="8.1952842"><ele>21.666666666666668</ele><time>2026-04-10T07:14:37.95Z</time></trkpt><trkpt lat="44.075455" lon="8.1950286"><ele>22.333333333333336</ele><time>2026-04-10T07:14:38.951Z</time></trkpt><trkpt lat="44.0753419" lon="8.1947759"><ele>23.0</ele><time>2026-04-10T07:14:39.95Z</time></trkpt><trkpt lat="44.0752345" lon="8.1945201"><ele>23.666666666666668</ele><time>2026-04-10T07:14:40.95Z</time></trkpt><trkpt lat="44.0751285" lon="8.1942599"><ele>24.333333333333336</ele><time>2026-04-10T07:14:41.95Z</time></trkpt><trkpt lat="44.0750192" lon="8.1940033"><ele>25.0</ele><time>2026-04-10T07:14:42.95Z</time></trkpt><trkpt lat="44.0749087" lon="8.1937439"><ele>25.0</ele><time>2026-04-10T07:14:43.95Z</time></trkpt><trkpt lat="44.074816" lon="8.1934822"><ele>25.0</ele><time>2026-04-10T07:14:44.951Z</time></trkpt><trkpt lat="44.0747218" lon="8.193225"><ele>25.0</ele><time>2026-04-10T07:14:45.95Z</time></trkpt><trkpt lat="44.0746351" lon="8.192974"><ele>25.333333333333336</ele><time>2026-04-10T07:14:46.95Z</time></trkpt><trkpt lat="44.0745573" lon="8.1927272"><ele>25.666666666666664</ele><time>2026-04-10T07:14:47.95Z</time></trkpt><trkpt lat="44.0745066" lon="8.1924778"><ele>26.0</ele><time>2026-04-10T07:14:48.951Z</time></trkpt><trkpt lat="44.0744682" lon="8.1922273"><ele>26.666666666666664</ele><time>2026-04-10T07:14:49.951Z</time></trkpt><trkpt lat="44.0744526" lon="8.1919748"><ele>27.333333333333336</ele><time>2026-04-10T07:14:50.95Z</time></trkpt><trkpt lat="44.0744536" lon="8.1917067"><ele>28.0</ele><time>2026-04-10T07:14:51.95Z</time></trkpt><trkpt lat="44.0744724" lon="8.191434"><ele>28.333333333333336</ele><time>2026-04-10T07:14:52.95Z</time></trkpt><trkpt lat="44.074467" lon="8.1911663"><ele>28.666666666666664</ele><time>2026-04-10T07:14:53.95Z</time></trkpt><trkpt lat="44.0744426" lon="8.1908723"><ele>29.0</ele><time>2026-04-10T07:14:54.95Z</time></trkpt><trkpt lat="44.074433" lon="8.1905772"><ele>29.333333333333332</ele><time>2026-04-10T07:14:55.95Z</time></trkpt><trkpt lat="44.0744341" lon="8.1902875"><ele>29.666666666666664</ele><time>2026-04-10T07:14:56.95Z</time></trkpt><trkpt lat="44.0744348" lon="8.1900117"><ele>30.0</ele><time>2026-04-10T07:14:57.951Z</time></trkpt><trkpt lat="44.0744291" lon="8.1897593"><ele>29.333333333333336</ele><time>2026-04-10T07:14:58.95Z</time></trkpt><trkpt lat="44.0744302" lon="8.1895336"><ele>28.666666666666668</ele><time>2026-04-10T07:14:59.95Z</time></trkpt><trkpt lat="44.0744239" lon="8.1893321"><ele>28.0</ele><time>2026-04-10T07:15:00.951Z</time></trkpt><trkpt lat="44.0744287" lon="8.1891283"><ele>27.666666666666668</ele><time>2026-04-10T07:15:01.95Z</time></trkpt><trkpt lat="44.0744375" lon="8.1889093"><ele>27.333333333333336</ele><time>2026-04-10T07:15:02.95Z</time></trkpt><trkpt lat="44.0744381" lon="8.1886668"><ele>27.0</ele><time>2026-04-10T07:15:03.95Z</time></trkpt><trkpt lat="44.0744258" lon="8.1884055"><ele>27.0</ele><time>2026-04-10T07:15:04.95Z</time></trkpt><trkpt lat="44.074415" lon="8.1881342"><ele>27.0</ele><time>2026-04-10T07:15:05.95Z</time></trkpt><trkpt lat="44.0743992" lon="8.1878561"><ele>27.0</ele><time>2026-04-10T07:15:06.95Z</time></trkpt><trkpt lat="44.0743719" lon="8.1875971"><ele>27.0</ele><time>2026-04-10T07:15:07.95Z</time></trkpt><trkpt lat="44.0743533" lon="8.1873648"><ele>27.0</ele><time>2026-04-10T07:15:08.95Z</time></trkpt><trkpt lat="44.0743537" lon="8.187169"><ele>27.0</ele><time>2026-04-10T07:15:09.95Z</time></trkpt><trkpt lat="44.0743689" lon="8.1869793"><ele>27.0</ele><time>2026-04-10T07:15:10.951Z</time></trkpt><trkpt lat="44.0744083" lon="8.1867875"><ele>27.0</ele><time>2026-04-10T07:15:11.95Z</time></trkpt><trkpt lat="44.0744741" lon="8.1865893"><ele>27.0</ele><time>2026-04-10T07:15:12.95Z</time></trkpt><trkpt lat="44.0745676" lon="8.1863967"><ele>27.0</ele><time>2026-04-10T07:15:13.951Z</time></trkpt><trkpt lat="44.0746603" lon="8.1862022"><ele>27.0</ele><time>2026-04-10T07:15:14.95Z</time></trkpt><trkpt lat="44.0747441" lon="8.186022"><ele>27.0</ele><time>2026-04-10T07:15:15.95Z</time></trkpt><trkpt lat="44.0748231" lon="8.185848"><ele>27.0</ele><time>2026-04-10T07:15:16.95Z</time></trkpt><trkpt lat="44.0749073" lon="8.1856943"><ele>27.0</ele><time>2026-04-10T07:15:17.95Z</time></trkpt><trkpt lat="44.0749935" lon="8.1855564"><ele>27.25</ele><time>2026-04-10T07:15:18.95Z</time></trkpt><trkpt lat="44.0750873" lon="8.1854463"><ele>27.5</ele><time>2026-04-10T07:15:19.95Z</time></trkpt><trkpt lat="44.075195" lon="8.1853634"><ele>27.75</ele><time>2026-04-10T07:15:20.95Z</time></trkpt><trkpt lat="44.075308" lon="8.1852931"><ele>28.0</ele><time>2026-04-10T07:15:21.95Z</time></trkpt><trkpt lat="44.0754219" lon="8.1852171"><ele>28.0</ele><time>2026-04-10T07:15:22.95Z</time></trkpt><trkpt lat="44.0755419" lon="8.1851319"><ele>28.0</ele><time>2026-04-10T07:15:23.95Z</time></trkpt><trkpt lat="44.0756708" lon="8.1850421"><ele>28.0</ele><time>2026-04-10T07:15:24.951Z</time></trkpt><trkpt lat="44.0757967" lon="8.1849535"><ele>28.0</ele><time>2026-04-10T07:15:25.95Z</time></trkpt><trkpt lat="44.0759393" lon="8.184874"><ele>29.333333333333336</ele><time>2026-04-10T07:15:26.95Z</time></trkpt><trkpt lat="44.0760818" lon="8.1848092"><ele>30.666666666666664</ele><time>2026-04-10T07:15:27.95Z</time></trkpt><trkpt lat="44.0762315" lon="8.1847695"><ele>32.0</ele><time>2026-04-10T07:15:28.951Z</time></trkpt><trkpt lat="44.0763853" lon="8.1847379"><ele>32.0</ele><time>2026-04-10T07:15:29.95Z</time></trkpt><trkpt lat="44.0765376" lon="8.1847019"><ele>32.0</ele><time>2026-04-10T07:15:30.95Z</time></trkpt><trkpt lat="44.0766883" lon="8.1846449"><ele>32.0</ele><time>2026-04-10T07:15:31.951Z</time></trkpt><trkpt lat="44.0768505" lon="8.1845821"><ele>32.666666666666664</ele><time>2026-04-10T07:15:32.95Z</time></trkpt><trkpt lat="44.0770038" lon="8.1845041"><ele>33.333333333333336</ele><time>2026-04-10T07:15:33.95Z</time></trkpt><trkpt lat="44.077147" lon="8.184413"><ele>34.0</ele><time>2026-04-10T07:15:34.95Z</time></trkpt><trkpt lat="44.077287" lon="8.184309"><ele>34.0</ele><time>2026-04-10T07:15:35.95Z</time></trkpt><trkpt lat="44.0774215" lon="8.1841978"><ele>34.0</ele><time>2026-04-10T07:15:36.95Z</time></trkpt><trkpt lat="44.0775539" lon="8.1840868"><ele>34.0</ele><time>2026-04-10T07:15:37.95Z</time></trkpt><trkpt lat="44.0776953" lon="8.1839873"><ele>35.66666666666667</ele><time>2026-04-10T07:15:38.95Z</time></trkpt><trkpt lat="44.0778364" lon="8.1838808"><ele>37.333333333333336</ele><time>2026-04-10T07:15:39.95Z</time></trkpt><trkpt lat="44.0779638" lon="8.1837685"><ele>39.0</ele><time>2026-04-10T07:15:40.95Z</time></trkpt><trkpt lat="44.0780845" lon="8.1836289"><ele>39.0</ele><time>2026-04-10T07:15:41.95Z</time></trkpt><trkpt lat="44.0781991" lon="8.1834687"><ele>39.0</ele><time>2026-04-10T07:15:42.95Z</time></trkpt><trkpt lat="44.0783029" lon="8.1833166"><ele>39.0</ele><time>2026-04-10T07:15:43.95Z</time></trkpt><trkpt lat="44.0784052" lon="8.1831505"><ele>39.5</ele><time>2026-04-10T07:15:44.95Z</time></trkpt><trkpt lat="44.0785069" lon="8.1829784"><ele>40.0</ele><time>2026-04-10T07:15:45.95Z</time></trkpt><trkpt lat="44.0786065" lon="8.1828464"><ele>40.5</ele><time>2026-04-10T07:15:46.95Z</time></trkpt><trkpt lat="44.0787033" lon="8.1826995"><ele>41.0</ele><time>2026-04-10T07:15:47.95Z</time></trkpt><trkpt lat="44.0787954" lon="8.1825647"><ele>41.0</ele><time>2026-04-10T07:15:48.95Z</time></trkpt><trkpt lat="44.0788784" lon="8.1824319"><ele>41.0</ele><time>2026-04-10T07:15:49.95Z</time></trkpt><trkpt lat="44.0789487" lon="8.1822887"><ele>41.0</ele><time>2026-04-10T07:15:50.95Z</time></trkpt><trkpt lat="44.0789928" lon="8.1821183"><ele>41.0</ele><time>2026-04-10T07:15:51.95Z</time></trkpt><trkpt lat="44.0789931" lon="8.1819198"><ele>40.33333333333333</ele><time>2026-04-10T07:15:52.95Z</time></trkpt><trkpt lat="44.0789731" lon="8.1817158"><ele>39.666666666666664</ele><time>2026-04-10T07:15:53.95Z</time></trkpt><trkpt lat="44.0789498" lon="8.1814977"><ele>39.0</ele><time>2026-04-10T07:15:54.95Z</time></trkpt><trkpt lat="44.0789263" lon="8.1812612"><ele>39.0</ele><time>2026-04-10T07:15:55.95Z</time></trkpt><trkpt lat="44.0788999" lon="8.1810299"><ele>39.0</ele><time>2026-04-10T07:15:56.95Z</time></trkpt><trkpt lat="44.0788677" lon="8.1807862"><ele>39.0</ele><time>2026-04-10T07:15:57.95Z</time></trkpt><trkpt lat="44.0788375" lon="8.1805367"><ele>40.666666666666664</ele><time>2026-04-10T07:15:58.95Z</time></trkpt><trkpt lat="44.0788161" lon="8.1802908"><ele>42.33333333333333</ele><time>2026-04-10T07:15:59.95Z</time></trkpt><trkpt lat="44.0788086" lon="8.180041"><ele>44.0</ele><time>2026-04-10T07:16:00.95Z</time></trkpt><trkpt lat="44.0788258" lon="8.1797954"><ele>44.666666666666664</ele><time>2026-04-10T07:16:01.95Z</time></trkpt><trkpt lat="44.0788692" lon="8.1795584"><ele>45.333333333333336</ele><time>2026-04-10T07:16:02.95Z</time></trkpt><trkpt lat="44.0789314" lon="8.1793249"><ele>46.0</ele><time>2026-04-10T07:16:03.95Z</time></trkpt><trkpt lat="44.0789977" lon="8.179094"><ele>45.66666666666667</ele><time>2026-04-10T07:16:04.951Z</time></trkpt><trkpt lat="44.0790592" lon="8.1788588"><ele>45.333333333333336</ele><time>2026-04-10T07:16:05.95Z</time></trkpt><trkpt lat="44.0791219" lon="8.1786208"><ele>45.0</ele><time>2026-04-10T07:16:06.95Z</time></trkpt><trkpt lat="44.0791699" lon="8.1783763"><ele>47.66666666666667</ele><time>2026-04-10T07:16:07.949Z</time></trkpt><trkpt lat="44.0792044" lon="8.1781311"><ele>50.333333333333336</ele><time>2026-04-10T07:16:08.949Z</time></trkpt><trkpt lat="44.0791888" lon="8.1778664"><ele>53.0</ele><time>2026-04-10T07:16:09.949Z</time></trkpt><trkpt lat="44.0791851" lon="8.1776149"><ele>53.333333333333336</ele><time>2026-04-10T07:16:10.949Z</time></trkpt><trkpt lat="44.0791846" lon="8.1773515"><ele>53.66666666666667</ele><time>2026-04-10T07:16:11.95Z</time></trkpt><trkpt lat="44.0791581" lon="8.1770925"><ele>54.0</ele><time>2026-04-10T07:16:12.949Z</time></trkpt><trkpt lat="44.0791213" lon="8.1768361"><ele>52.33333333333333</ele><time>2026-04-10T07:16:13.949Z</time></trkpt><trkpt lat="44.079068" lon="8.1766023"><ele>50.666666666666664</ele><time>2026-04-10T07:16:14.949Z</time></trkpt><trkpt lat="44.0790065" lon="8.1763554"><ele>49.0</ele><time>2026-04-10T07:16:15.949Z</time></trkpt><trkpt lat="44.0789358" lon="8.1760939"><ele>48.666666666666664</ele><time>2026-04-10T07:16:16.949Z</time></trkpt><trkpt lat="44.0788577" lon="8.1758417"><ele>48.33333333333333</ele><time>2026-04-10T07:16:17.949Z</time></trkpt><trkpt lat="44.0787937" lon="8.1755603"><ele>48.0</ele><time>2026-04-10T07:16:18.949Z</time></trkpt><trkpt lat="44.0787327" lon="8.1752839"><ele>48.0</ele><time>2026-04-10T07:16:19.949Z</time></trkpt><trkpt lat="44.0786717" lon="8.1750158"><ele>48.0</ele><time>2026-04-10T07:16:20.949Z</time></trkpt><trkpt lat="44.0786315" lon="8.1747276"><ele>48.0</ele><time>2026-04-10T07:16:21.949Z</time></trkpt><trkpt lat="44.0786298" lon="8.1744354"><ele>47.666666666666664</ele><time>2026-04-10T07:16:22.949Z</time></trkpt><trkpt lat="44.0786364" lon="8.1741556"><ele>47.33333333333333</ele><time>2026-04-10T07:16:23.949Z</time></trkpt><trkpt lat="44.0786393" lon="8.1738917"><ele>47.0</ele><time>2026-04-10T07:16:24.949Z</time></trkpt><trkpt lat="44.0786369" lon="8.1736588"><ele>48.0</ele><time>2026-04-10T07:16:25.949Z</time></trkpt><trkpt lat="44.078632" lon="8.1734439"><ele>49.0</ele><time>2026-04-10T07:16:26.949Z</time></trkpt><trkpt lat="44.0786292" lon="8.1732419"><ele>50.0</ele><time>2026-04-10T07:16:27.949Z</time></trkpt><trkpt lat="44.0786319" lon="8.1730567"><ele>51.0</ele><time>2026-04-10T07:16:28.949Z</time></trkpt><trkpt lat="44.0786334" lon="8.1728885"><ele>51.599999999999994</ele><time>2026-04-10T07:16:29.949Z</time></trkpt><trkpt lat="44.0786354" lon="8.1727443"><ele>52.2</ele><time>2026-04-10T07:16:30.949Z</time></trkpt><trkpt lat="44.0786392" lon="8.1726201"><ele>52.800000000000004</ele><time>2026-04-10T07:16:31.95Z</time></trkpt><trkpt lat="44.0786349" lon="8.1725116"><ele>53.400000000000006</ele><time>2026-04-10T07:16:32.949Z</time></trkpt><trkpt lat="44.0786251" lon="8.1724223"><ele>54.0</ele><time>2026-04-10T07:16:33.949Z</time></trkpt><trkpt lat="44.0785266" lon="8.1723043"><ele>54.0</ele><time>2026-04-10T07:16:35.949Z</time></trkpt><trkpt lat="44.0784407" lon="8.172287"><ele>54.0</ele><time>2026-04-10T07:16:36.949Z</time></trkpt><trkpt lat="44.0783415" lon="8.172332"><ele>54.0</ele><time>2026-04-10T07:16:37.949Z</time></trkpt><trkpt lat="44.0782456" lon="8.1724373"><ele>54.0</ele><time>2026-04-10T07:16:38.949Z</time></trkpt><trkpt lat="44.0781484" lon="8.1726151"><ele>53.66666666666667</ele><time>2026-04-10T07:16:39.949Z</time></trkpt><trkpt lat="44.0780475" lon="8.1728326"><ele>53.333333333333336</ele><time>2026-04-10T07:16:40.949Z</time></trkpt><trkpt lat="44.0779525" lon="8.1730536"><ele>53.0</ele><time>2026-04-10T07:16:41.949Z</time></trkpt><trkpt lat="44.0778686" lon="8.1732727"><ele>52.66666666666667</ele><time>2026-04-10T07:16:42.949Z</time></trkpt><trkpt lat="44.0777991" lon="8.1734904"><ele>52.33333333333333</ele><time>2026-04-10T07:16:43.95Z</time></trkpt><trkpt lat="44.0777225" lon="8.1736764"><ele>52.0</ele><time>2026-04-10T07:16:44.949Z</time></trkpt><trkpt lat="44.0776504" lon="8.173841"><ele>52.0</ele><time>2026-04-10T07:16:45.949Z</time></trkpt><trkpt lat="44.0775698" lon="8.1739884"><ele>52.0</ele><time>2026-04-10T07:16:46.95Z</time></trkpt><trkpt lat="44.077476" lon="8.1741296"><ele>52.0</ele><time>2026-04-10T07:16:47.949Z</time></trkpt><trkpt lat="44.0773845" lon="8.1742514"><ele>52.0</ele><time>2026-04-10T07:16:48.949Z</time></trkpt><trkpt lat="44.0773017" lon="8.1743576"><ele>51.49999999999999</ele><time>2026-04-10T07:16:49.949Z</time></trkpt><trkpt lat="44.0772192" lon="8.1744447"><ele>51.0</ele><time>2026-04-10T07:16:50.949Z</time></trkpt><trkpt lat="44.0771414" lon="8.1745142"><ele>50.5</ele><time>2026-04-10T07:16:51.949Z</time></trkpt><trkpt lat="44.0770673" lon="8.1745736"><ele>50.0</ele><time>2026-04-10T07:16:52.949Z</time></trkpt><trkpt lat="44.0769941" lon="8.1746171"><ele>49.49999999999999</ele><time>2026-04-10T07:16:53.949Z</time></trkpt><trkpt lat="44.0769314" lon="8.1746612"><ele>49.0</ele><time>2026-04-10T07:16:54.949Z</time></trkpt><trkpt lat="44.0768815" lon="8.1747192"><ele>48.99999999999999</ele><time>2026-04-10T07:16:55.949Z</time></trkpt><trkpt lat="44.0768327" lon="8.1747887"><ele>49.0</ele><time>2026-04-10T07:16:56.949Z</time></trkpt><trkpt lat="44.0767759" lon="8.1748815"><ele>49.0</ele><time>2026-04-10T07:16:57.949Z</time></trkpt><trkpt lat="44.0767236" lon="8.1749695"><ele>49.0</ele><time>2026-04-10T07:16:58.95Z</time></trkpt><trkpt lat="44.0766655" lon="8.1750588"><ele>48.99999999999999</ele><time>2026-04-10T07:16:59.95Z</time></trkpt><trkpt lat="44.0766048" lon="8.1751461"><ele>49.0</ele><time>2026-04-10T07:17:00.949Z</time></trkpt><trkpt lat="44.0765359" lon="8.1752248"><ele>48.2</ele><time>2026-04-10T07:17:01.949Z</time></trkpt><trkpt lat="44.0764595" lon="8.1753078"><ele>47.400000000000006</ele><time>2026-04-10T07:17:02.949Z</time></trkpt><trkpt lat="44.0763805" lon="8.1753923"><ele>46.6</ele><time>2026-04-10T07:17:03.949Z</time></trkpt><trkpt lat="44.0762994" lon="8.1754715"><ele>45.8</ele><time>2026-04-10T07:17:04.949Z</time></trkpt><trkpt lat="44.0762294" lon="8.1755281"><ele>45.0</ele><time>2026-04-10T07:17:05.949Z</time></trkpt><trkpt lat="44.0761304" lon="8.1755833"><ele>45.0</ele><time>2026-04-10T07:17:07.949Z</time></trkpt><trkpt lat="44.0760333" lon="8.1756315"><ele>45.0</ele><time>2026-04-10T07:17:15.949Z</time></trkpt><trkpt lat="44.0759472" lon="8.175673"><ele>45.0</ele><time>2026-04-10T07:17:16.949Z</time></trkpt><trkpt lat="44.0758432" lon="8.175706"><ele>45.0</ele><time>2026-04-10T07:17:17.95Z</time></trkpt><trkpt lat="44.0757377" lon="8.1757377"><ele>45.0</ele><time>2026-04-10T07:17:18.95Z</time></trkpt><trkpt lat="44.0756296" lon="8.1757702"><ele>44.0</ele><time>2026-04-10T07:17:19.949Z</time></trkpt><trkpt lat="44.0755181" lon="8.1758075"><ele>43.0</ele><time>2026-04-10T07:17:20.949Z</time></trkpt><trkpt lat="44.0753994" lon="8.1758461"><ele>42.0</ele><time>2026-04-10T07:17:21.949Z</time></trkpt><trkpt lat="44.0752826" lon="8.1758814"><ele>41.0</ele><time>2026-04-10T07:17:22.95Z</time></trkpt><trkpt lat="44.0751523" lon="8.175924"><ele>41.0</ele><time>2026-04-10T07:17:23.949Z</time></trkpt><trkpt lat="44.075023" lon="8.1759742"><ele>41.0</ele><time>2026-04-10T07:17:24.949Z</time></trkpt><trkpt lat="44.0749094" lon="8.176003"><ele>41.0</ele><time>2026-04-10T07:17:25.949Z</time></trkpt><trkpt lat="44.0747919" lon="8.1760219"><ele>41.0</ele><time>2026-04-10T07:17:26.949Z</time></trkpt><trkpt lat="44.0746918" lon="8.1760302"><ele>41.0</ele><time>2026-04-10T07:17:27.949Z</time></trkpt><trkpt lat="44.0746064" lon="8.1760365"><ele>41.0</ele><time>2026-04-10T07:17:28.949Z</time></trkpt><trkpt lat="44.0745186" lon="8.1760431"><ele>41.0</ele><time>2026-04-10T07:17:29.949Z</time></trkpt><trkpt lat="44.0744146" lon="8.1760663"><ele>41.0</ele><time>2026-04-10T07:17:30.949Z</time></trkpt><trkpt lat="44.0743091" lon="8.1760794"><ele>41.0</ele><time>2026-04-10T07:17:31.949Z</time></trkpt><trkpt lat="44.0741978" lon="8.1760882"><ele>40.5</ele><time>2026-04-10T07:17:32.949Z</time></trkpt><trkpt lat="44.0740676" lon="8.1760948"><ele>40.0</ele><time>2026-04-10T07:17:33.95Z</time></trkpt><trkpt lat="44.0739381" lon="8.1761021"><ele>39.5</ele><time>2026-04-10T07:17:34.949Z</time></trkpt><trkpt lat="44.0738156" lon="8.1761104"><ele>39.0</ele><time>2026-04-10T07:17:35.949Z</time></trkpt><trkpt lat="44.0737093" lon="8.1761116"><ele>39.0</ele><time>2026-04-10T07:17:36.949Z</time></trkpt><trkpt lat="44.0736076" lon="8.1761126"><ele>39.0</ele><time>2026-04-10T07:17:37.949Z</time></trkpt><trkpt lat="44.0735131" lon="8.1761102"><ele>39.0</ele><time>2026-04-10T07:17:38.949Z</time></trkpt><trkpt lat="44.0734281" lon="8.1761023"><ele>39.0</ele><time>2026-04-10T07:17:39.949Z</time></trkpt><trkpt lat="44.0733444" lon="8.1761075"><ele>39.0</ele><time>2026-04-10T07:17:40.949Z</time></trkpt><trkpt lat="44.073262" lon="8.1761143"><ele>39.0</ele><time>2026-04-10T07:17:41.948Z</time></trkpt><trkpt lat="44.0731831" lon="8.1761234"><ele>39.0</ele><time>2026-04-10T07:17:42.949Z</time></trkpt><trkpt lat="44.0731088" lon="8.1761296"><ele>39.0</ele><time>2026-04-10T07:17:43.95Z</time></trkpt><trkpt lat="44.0730396" lon="8.1761242"><ele>39.0</ele><time>2026-04-10T07:17:44.95Z</time></trkpt><trkpt lat="44.0729745" lon="8.1761202"><ele>39.0</ele><time>2026-04-10T07:17:45.949Z</time></trkpt><trkpt lat="44.0729089" lon="8.1761257"><ele>39.0</ele><time>2026-04-10T07:17:46.949Z</time></trkpt><trkpt lat="44.0728426" lon="8.1761324"><ele>39.0</ele><time>2026-04-10T07:17:47.949Z</time></trkpt><trkpt lat="44.0727711" lon="8.1761419"><ele>39.0</ele><time>2026-04-10T07:17:48.949Z</time></trkpt><trkpt lat="44.0726892" lon="8.1761401"><ele>39.0</ele><time>2026-04-10T07:17:49.949Z</time></trkpt><trkpt lat="44.072597" lon="8.176119"><ele>39.0</ele><time>2026-04-10T07:17:50.949Z</time></trkpt><trkpt lat="44.0724927" lon="8.1760685"><ele>39.0</ele><time>2026-04-10T07:17:51.949Z</time></trkpt><trkpt lat="44.0723846" lon="8.1760036"><ele>39.0</ele><time>2026-04-10T07:17:52.949Z</time></trkpt><trkpt lat="44.0722838" lon="8.1759343"><ele>39.0</ele><time>2026-04-10T07:17:53.949Z</time></trkpt><trkpt lat="44.0721827" lon="8.1758727"><ele>39.0</ele><time>2026-04-10T07:17:54.949Z</time></trkpt><trkpt lat="44.0720883" lon="8.1758134"><ele>39.0</ele><time>2026-04-10T07:17:55.949Z</time></trkpt><trkpt lat="44.0720108" lon="8.175753"><ele>39.0</ele><time>2026-04-10T07:17:56.949Z</time></trkpt><trkpt lat="44.071939" lon="8.1757108"><ele>39.0</ele><time>2026-04-10T07:17:57.949Z</time></trkpt><trkpt lat="44.0718757" lon="8.1756673"><ele>39.0</ele><time>2026-04-10T07:17:58.95Z</time></trkpt><trkpt lat="44.0718092" lon="8.1756246"><ele>39.0</ele><time>2026-04-10T07:17:59.949Z</time></trkpt><trkpt lat="44.0717413" lon="8.1755755"><ele>39.166666666666664</ele><time>2026-04-10T07:18:00.949Z</time></trkpt><trkpt lat="44.071666" lon="8.1755183"><ele>39.333333333333336</ele><time>2026-04-10T07:18:01.949Z</time></trkpt><trkpt lat="44.0715963" lon="8.1754439"><ele>39.5</ele><time>2026-04-10T07:18:02.949Z</time></trkpt><trkpt lat="44.0715386" lon="8.1753594"><ele>39.66666666666667</ele><time>2026-04-10T07:18:03.949Z</time></trkpt><trkpt lat="44.0714895" lon="8.1752736"><ele>39.833333333333336</ele><time>2026-04-10T07:18:04.949Z</time></trkpt><trkpt lat="44.0714487" lon="8.1751842"><ele>40.0</ele><time>2026-04-10T07:18:05.949Z</time></trkpt><trkpt lat="44.0714018" lon="8.1750862"><ele>38.8</ele><time>2026-04-10T07:18:06.95Z</time></trkpt><trkpt lat="44.0713539" lon="8.1749697"><ele>37.6</ele><time>2026-04-10T07:18:07.949Z</time></trkpt><trkpt lat="44.0713187" lon="8.1748521"><ele>36.4</ele><time>2026-04-10T07:18:08.949Z</time></trkpt><trkpt lat="44.0712845" lon="8.1747113"><ele>35.2</ele><time>2026-04-10T07:18:09.949Z</time></trkpt><trkpt lat="44.0712669" lon="8.1745364"><ele>34.0</ele><time>2026-04-10T07:18:10.949Z</time></trkpt><trkpt lat="44.0712539" lon="8.1743505"><ele>34.0</ele><time>2026-04-10T07:18:11.949Z</time></trkpt><trkpt lat="44.0712457" lon="8.1741748"><ele>34.0</ele><time>2026-04-10T07:18:12.949Z</time></trkpt><trkpt lat="44.0712365" lon="8.1739981"><ele>34.0</ele><time>2026-04-10T07:18:13.95Z</time></trkpt><trkpt lat="44.0711999" lon="8.1738416"><ele>34.0</ele><time>2026-04-10T07:18:14.949Z</time></trkpt><trkpt lat="44.0711454" lon="8.1737067"><ele>34.2</ele><time>2026-04-10T07:18:15.949Z</time></trkpt><trkpt lat="44.0710843" lon="8.1735841"><ele>34.4</ele><time>2026-04-10T07:18:16.949Z</time></trkpt><trkpt lat="44.0710192" lon="8.1734703"><ele>34.6</ele><time>2026-04-10T07:18:17.949Z</time></trkpt><trkpt lat="44.0709562" lon="8.1733634"><ele>34.8</ele><time>2026-04-10T07:18:18.949Z</time></trkpt><trkpt lat="44.0708971" lon="8.1732605"><ele>35.0</ele><time>2026-04-10T07:18:19.949Z</time></trkpt><trkpt lat="44.070844" lon="8.1731585"><ele>34.33333333333333</ele><time>2026-04-10T07:18:20.949Z</time></trkpt><trkpt lat="44.0707973" lon="8.1730599"><ele>33.666666666666664</ele><time>2026-04-10T07:18:21.949Z</time></trkpt><trkpt lat="44.070756" lon="8.1729619"><ele>33.0</ele><time>2026-04-10T07:18:22.949Z</time></trkpt><trkpt lat="44.0707178" lon="8.1728535"><ele>32.333333333333336</ele><time>2026-04-10T07:18:23.949Z</time></trkpt><trkpt lat="44.0706948" lon="8.1727293"><ele>31.666666666666668</ele><time>2026-04-10T07:18:24.949Z</time></trkpt><trkpt lat="44.0706745" lon="8.1725933"><ele>31.0</ele><time>2026-04-10T07:18:25.949Z</time></trkpt><trkpt lat="44.0706461" lon="8.1724586"><ele>29.5</ele><time>2026-04-10T07:18:26.95Z</time></trkpt><trkpt lat="44.0706037" lon="8.1723381"><ele>28.0</ele><time>2026-04-10T07:18:27.949Z</time></trkpt><trkpt lat="44.0705347" lon="8.1722305"><ele>26.5</ele><time>2026-04-10T07:18:28.949Z</time></trkpt><trkpt lat="44.0704328" lon="8.1721377"><ele>25.0</ele><time>2026-04-10T07:18:29.95Z</time></trkpt><trkpt lat="44.0703076" lon="8.1720536"><ele>25.0</ele><time>2026-04-10T07:18:30.949Z</time></trkpt><trkpt lat="44.0701651" lon="8.1719633"><ele>25.0</ele><time>2026-04-10T07:18:31.949Z</time></trkpt><trkpt lat="44.0700102" lon="8.1718543"><ele>25.0</ele><time>2026-04-10T07:18:32.949Z</time></trkpt><trkpt lat="44.0698428" lon="8.1717215"><ele>25.0</ele><time>2026-04-10T07:18:33.949Z</time></trkpt><trkpt lat="44.0696638" lon="8.1715936"><ele>25.0</ele><time>2026-04-10T07:18:34.949Z</time></trkpt><trkpt lat="44.0694817" lon="8.1714628"><ele>25.0</ele><time>2026-04-10T07:18:35.949Z</time></trkpt><trkpt lat="44.069316" lon="8.1713336"><ele>25.0</ele><time>2026-04-10T07:18:36.949Z</time></trkpt><trkpt lat="44.069168" lon="8.1712221"><ele>25.0</ele><time>2026-04-10T07:18:37.95Z</time></trkpt><trkpt lat="44.0690291" lon="8.1711241"><ele>25.0</ele><time>2026-04-10T07:18:38.95Z</time></trkpt><trkpt lat="44.0688974" lon="8.171029"><ele>24.2</ele><time>2026-04-10T07:18:39.949Z</time></trkpt><trkpt lat="44.068779" lon="8.1709399"><ele>23.4</ele><time>2026-04-10T07:18:40.95Z</time></trkpt><trkpt lat="44.0686927" lon="8.1708602"><ele>22.6</ele><time>2026-04-10T07:18:41.95Z</time></trkpt><trkpt lat="44.0686485" lon="8.1707685"><ele>21.8</ele><time>2026-04-10T07:18:42.949Z</time></trkpt><trkpt lat="44.0686438" lon="8.1706701"><ele>21.0</ele><time>2026-04-10T07:18:43.949Z</time></trkpt><trkpt lat="44.0686478" lon="8.1705796"><ele>21.0</ele><time>2026-04-10T07:18:44.949Z</time></trkpt><trkpt lat="44.0686826" lon="8.1704216"><ele>21.0</ele><time>2026-04-10T07:18:46.95Z</time></trkpt><trkpt lat="44.0687158" lon="8.1703379"><ele>21.0</ele><time>2026-04-10T07:18:47.949Z</time></trkpt><trkpt lat="44.0687575" lon="8.1702616"><ele>21.0</ele><time>2026-04-10T07:18:48.949Z</time></trkpt><trkpt lat="44.0688424" lon="8.1701513"><ele>21.0</ele><time>2026-04-10T07:18:50.949Z</time></trkpt><trkpt lat="44.0689199" lon="8.1701183"><ele>21.0</ele><time>2026-04-10T07:18:52.949Z</time></trkpt><trkpt lat="44.0690073" lon="8.1700955"><ele>21.0</ele><time>2026-04-10T07:18:55.949Z</time></trkpt><trkpt lat="44.0690835" lon="8.1700803"><ele>21.0</ele><time>2026-04-10T07:18:57.949Z</time></trkpt><trkpt lat="44.0691469" lon="8.170013"><ele>21.0</ele><time>2026-04-10T07:19:00.949Z</time></trkpt><trkpt lat="44.0692335" lon="8.1699705"><ele>21.0</ele><time>2026-04-10T07:19:03.949Z</time></trkpt><trkpt lat="44.0693004" lon="8.1699658"><ele>21.0</ele><time>2026-04-10T07:19:05.949Z</time></trkpt><trkpt lat="44.0693793" lon="8.1699065"><ele>21.166666666666668</ele><time>2026-04-10T07:19:07.949Z</time></trkpt><trkpt lat="44.0694421" lon="8.1698498"><ele>21.333333333333332</ele><time>2026-04-10T07:19:08.949Z</time></trkpt><trkpt lat="44.0695078" lon="8.1697805"><ele>21.5</ele><time>2026-04-10T07:19:09.949Z</time></trkpt><trkpt lat="44.0695645" lon="8.1697092"><ele>21.666666666666664</ele><time>2026-04-10T07:19:10.949Z</time></trkpt><trkpt lat="44.0696148" lon="8.1696453"><ele>21.833333333333332</ele><time>2026-04-10T07:19:11.949Z</time></trkpt><trkpt lat="44.0696986" lon="8.1695421"><ele>22.0</ele><time>2026-04-10T07:19:13.949Z</time></trkpt><trkpt lat="44.069793" lon="8.1694565"><ele>22.0</ele><time>2026-04-10T07:19:15.95Z</time></trkpt><trkpt lat="44.0698513" lon="8.1693941"><ele>22.0</ele><time>2026-04-10T07:19:17.949Z</time></trkpt><trkpt lat="44.0698859" lon="8.1694868"><ele>22.0</ele><time>2026-04-10T07:26:33.948Z</time></trkpt><trkpt lat="44.0699324" lon="8.1695979"><ele>22.0</ele><time>2026-04-10T07:38:50.947Z</time></trkpt><trkpt lat="44.0699417" lon="8.1695087"><ele>22.0</ele><time>2026-04-10T07:43:59.947Z</time></trkpt><trkpt lat="44.069975" lon="8.1694173"><ele>22.0</ele><time>2026-04-10T07:44:12.946Z</time></trkpt><trkpt lat="44.0700149" lon="8.1693485"><ele>22.0</ele><time>2026-04-10T07:44:19.946Z</time></trkpt><trkpt lat="44.070074" lon="8.1693087"><ele>22.0</ele><time>2026-04-10T07:44:23.946Z</time></trkpt><trkpt lat="44.070114" lon="8.1692386"><ele>22.0</ele><time>2026-04-10T07:44:25.946Z</time></trkpt><trkpt lat="44.070171" lon="8.1691718"><ele>22.0</ele><time>2026-04-10T07:44:27.946Z</time></trkpt><trkpt lat="44.0702186" lon="8.1691132"><ele>22.0</ele><time>2026-04-10T07:44:29.946Z</time></trkpt><trkpt lat="44.0702292" lon="8.1689852"><ele>22.0</ele><time>2026-04-10T07:44:36.946Z</time></trkpt><trkpt lat="44.0702708" lon="8.1688862"><ele>22.0</ele><time>2026-04-10T07:44:40.946Z</time></trkpt><trkpt lat="44.070268" lon="8.1687867"><ele>22.0</ele><time>2026-04-10T07:44:43.946Z</time></trkpt><trkpt lat="44.0702865" lon="8.1686836"><ele>22.0</ele><time>2026-04-10T07:45:00.947Z</time></trkpt><trkpt lat="44.0703369" lon="8.168618"><ele>22.0</ele><time>2026-04-10T07:45:01.946Z</time></trkpt><trkpt lat="44.070399" lon="8.1685291"><ele>22.0</ele><time>2026-04-10T07:45:02.946Z</time></trkpt><trkpt lat="44.0704994" lon="8.1684089"><ele>22.0</ele><time>2026-04-10T07:45:03.946Z</time></trkpt><trkpt lat="44.070627" lon="8.1682851"><ele>22.0</ele><time>2026-04-10T07:45:04.946Z</time></trkpt><trkpt lat="44.0707558" lon="8.1681641"><ele>22.5</ele><time>2026-04-10T07:45:05.946Z</time></trkpt><trkpt lat="44.0708637" lon="8.1680571"><ele>23.0</ele><time>2026-04-10T07:45:06.946Z</time></trkpt><trkpt lat="44.070959" lon="8.1679697"><ele>23.5</ele><time>2026-04-10T07:45:07.947Z</time></trkpt><trkpt lat="44.0710491" lon="8.1678854"><ele>24.0</ele><time>2026-04-10T07:45:08.946Z</time></trkpt><trkpt lat="44.0711429" lon="8.167807"><ele>24.0</ele><time>2026-04-10T07:45:09.946Z</time></trkpt><trkpt lat="44.0712477" lon="8.1677328"><ele>24.0</ele><time>2026-04-10T07:45:10.946Z</time></trkpt><trkpt lat="44.0713554" lon="8.167664"><ele>24.0</ele><time>2026-04-10T07:45:11.946Z</time></trkpt><trkpt lat="44.0714449" lon="8.1675956"><ele>24.0</ele><time>2026-04-10T07:45:12.946Z</time></trkpt><trkpt lat="44.0715356" lon="8.1675277"><ele>24.0</ele><time>2026-04-10T07:45:13.946Z</time></trkpt><trkpt lat="44.0716282" lon="8.1674762"><ele>24.6</ele><time>2026-04-10T07:45:14.946Z</time></trkpt><trkpt lat="44.07171" lon="8.1674088"><ele>25.2</ele><time>2026-04-10T07:45:15.947Z</time></trkpt><trkpt lat="44.0718004" lon="8.1673333"><ele>25.800000000000004</ele><time>2026-04-10T07:45:16.946Z</time></trkpt><trkpt lat="44.0719027" lon="8.1672593"><ele>26.400000000000002</ele><time>2026-04-10T07:45:17.946Z</time></trkpt><trkpt lat="44.0720009" lon="8.1671918"><ele>27.0</ele><time>2026-04-10T07:45:18.946Z</time></trkpt><trkpt lat="44.0721058" lon="8.1671338"><ele>27.0</ele><time>2026-04-10T07:45:19.946Z</time></trkpt><trkpt lat="44.0722218" lon="8.1670902"><ele>27.0</ele><time>2026-04-10T07:45:20.946Z</time></trkpt><trkpt lat="44.0723507" lon="8.167058"><ele>27.0</ele><time>2026-04-10T07:45:21.947Z</time></trkpt><trkpt lat="44.0724754" lon="8.1670196"><ele>27.0</ele><time>2026-04-10T07:45:22.946Z</time></trkpt><trkpt lat="44.0726023" lon="8.1669824"><ele>26.75</ele><time>2026-04-10T07:45:23.946Z</time></trkpt><trkpt lat="44.0727255" lon="8.1669355"><ele>26.5</ele><time>2026-04-10T07:45:24.946Z</time></trkpt><trkpt lat="44.0728417" lon="8.1668483"><ele>26.25</ele><time>2026-04-10T07:45:25.947Z</time></trkpt><trkpt lat="44.0729525" lon="8.1667283"><ele>26.0</ele><time>2026-04-10T07:45:26.946Z</time></trkpt><trkpt lat="44.0730449" lon="8.166565"><ele>26.0</ele><time>2026-04-10T07:45:27.947Z</time></trkpt><trkpt lat="44.0731358" lon="8.1663892"><ele>26.0</ele><time>2026-04-10T07:45:28.947Z</time></trkpt><trkpt lat="44.0732303" lon="8.1662305"><ele>26.0</ele><time>2026-04-10T07:45:29.946Z</time></trkpt><trkpt lat="44.0733223" lon="8.1660703"><ele>26.0</ele><time>2026-04-10T07:45:30.946Z</time></trkpt><trkpt lat="44.0734178" lon="8.1659129"><ele>26.0</ele><time>2026-04-10T07:45:31.946Z</time></trkpt><trkpt lat="44.0735116" lon="8.1657438"><ele>26.0</ele><time>2026-04-10T07:45:32.946Z</time></trkpt><trkpt lat="44.0735897" lon="8.1655863"><ele>26.0</ele><time>2026-04-10T07:45:33.946Z</time></trkpt><trkpt lat="44.0736537" lon="8.1653949"><ele>26.666666666666664</ele><time>2026-04-10T07:45:34.946Z</time></trkpt><trkpt lat="44.073702" lon="8.1651891"><ele>27.333333333333336</ele><time>2026-04-10T07:45:35.946Z</time></trkpt><trkpt lat="44.0737348" lon="8.1649759"><ele>28.0</ele><time>2026-04-10T07:45:36.946Z</time></trkpt><trkpt lat="44.0737557" lon="8.1647557"><ele>28.333333333333336</ele><time>2026-04-10T07:45:37.946Z</time></trkpt><trkpt lat="44.0737662" lon="8.1645379"><ele>28.666666666666664</ele><time>2026-04-10T07:45:38.946Z</time></trkpt><trkpt lat="44.0737857" lon="8.1643094"><ele>29.0</ele><time>2026-04-10T07:45:39.946Z</time></trkpt><trkpt lat="44.0737986" lon="8.1640831"><ele>28.666666666666664</ele><time>2026-04-10T07:45:40.947Z</time></trkpt><trkpt lat="44.0738263" lon="8.1638509"><ele>28.333333333333336</ele><time>2026-04-10T07:45:41.946Z</time></trkpt><trkpt lat="44.07387" lon="8.1636162"><ele>28.0</ele><time>2026-04-10T07:45:42.946Z</time></trkpt><trkpt lat="44.0739143" lon="8.163383"><ele>27.0</ele><time>2026-04-10T07:45:43.946Z</time></trkpt><trkpt lat="44.0739791" lon="8.1631532"><ele>26.0</ele><time>2026-04-10T07:45:44.946Z</time></trkpt><trkpt lat="44.0740416" lon="8.1629247"><ele>25.0</ele><time>2026-04-10T07:45:45.946Z</time></trkpt><trkpt lat="44.074104" lon="8.162699"><ele>26.333333333333336</ele><time>2026-04-10T07:45:46.946Z</time></trkpt><trkpt lat="44.0741579" lon="8.162467"><ele>27.666666666666664</ele><time>2026-04-10T07:45:47.946Z</time></trkpt><trkpt lat="44.074225" lon="8.1622391"><ele>29.0</ele><time>2026-04-10T07:45:48.946Z</time></trkpt><trkpt lat="44.0742987" lon="8.1620184"><ele>29.333333333333332</ele><time>2026-04-10T07:45:49.946Z</time></trkpt><trkpt lat="44.0743896" lon="8.1618096"><ele>29.666666666666664</ele><time>2026-04-10T07:45:50.946Z</time></trkpt><trkpt lat="44.0744777" lon="8.1616008"><ele>30.0</ele><time>2026-04-10T07:45:51.947Z</time></trkpt><trkpt lat="44.0745701" lon="8.161392"><ele>30.0</ele><time>2026-04-10T07:45:52.946Z</time></trkpt><trkpt lat="44.0746877" lon="8.1611916"><ele>30.0</ele><time>2026-04-10T07:45:53.946Z</time></trkpt><trkpt lat="44.0748216" lon="8.1610037"><ele>30.0</ele><time>2026-04-10T07:45:54.946Z</time></trkpt><trkpt lat="44.074946" lon="8.160819"><ele>31.0</ele><time>2026-04-10T07:45:55.946Z</time></trkpt><trkpt lat="44.0750654" lon="8.1606297"><ele>32.0</ele><time>2026-04-10T07:45:56.946Z</time></trkpt><trkpt lat="44.0751818" lon="8.1604361"><ele>33.0</ele><time>2026-04-10T07:45:57.946Z</time></trkpt><trkpt lat="44.0752966" lon="8.1602394"><ele>33.0</ele><time>2026-04-10T07:45:58.947Z</time></trkpt><trkpt lat="44.0753829" lon="8.1600354"><ele>33.0</ele><time>2026-04-10T07:45:59.946Z</time></trkpt><trkpt lat="44.0754708" lon="8.15983"><ele>33.0</ele><time>2026-04-10T07:46:00.946Z</time></trkpt><trkpt lat="44.0755759" lon="8.1596251"><ele>33.0</ele><time>2026-04-10T07:46:01.946Z</time></trkpt><trkpt lat="44.0756871" lon="8.1594416"><ele>33.0</ele><time>2026-04-10T07:46:02.947Z</time></trkpt><trkpt lat="44.0758145" lon="8.1592788"><ele>33.0</ele><time>2026-04-10T07:46:03.947Z</time></trkpt><trkpt lat="44.0759421" lon="8.1591254"><ele>32.333333333333336</ele><time>2026-04-10T07:46:04.946Z</time></trkpt><trkpt lat="44.0760733" lon="8.1589664"><ele>31.666666666666668</ele><time>2026-04-10T07:46:05.946Z</time></trkpt><trkpt lat="44.0761994" lon="8.1588072"><ele>31.0</ele><time>2026-04-10T07:46:06.946Z</time></trkpt><trkpt lat="44.0763278" lon="8.1586505"><ele>31.0</ele><time>2026-04-10T07:46:07.946Z</time></trkpt><trkpt lat="44.0764696" lon="8.1585045"><ele>31.0</ele><time>2026-04-10T07:46:08.946Z</time></trkpt><trkpt lat="44.076619" lon="8.158373"><ele>31.0</ele><time>2026-04-10T07:46:09.946Z</time></trkpt><trkpt lat="44.0767629" lon="8.1582462"><ele>31.333333333333336</ele><time>2026-04-10T07:46:10.946Z</time></trkpt><trkpt lat="44.0769174" lon="8.1581377"><ele>31.666666666666664</ele><time>2026-04-10T07:46:11.946Z</time></trkpt><trkpt lat="44.077083" lon="8.1580466"><ele>32.0</ele><time>2026-04-10T07:46:12.946Z</time></trkpt><trkpt lat="44.0772446" lon="8.157963"><ele>32.0</ele><time>2026-04-10T07:46:13.946Z</time></trkpt><trkpt lat="44.0774136" lon="8.1578809"><ele>32.0</ele><time>2026-04-10T07:46:14.946Z</time></trkpt><trkpt lat="44.0775808" lon="8.1578012"><ele>32.0</ele><time>2026-04-10T07:46:15.946Z</time></trkpt><trkpt lat="44.0777419" lon="8.157729"><ele>33.666666666666664</ele><time>2026-04-10T07:46:16.946Z</time></trkpt><trkpt lat="44.0778989" lon="8.1576433"><ele>35.333333333333336</ele><time>2026-04-10T07:46:17.946Z</time></trkpt><trkpt lat="44.0780767" lon="8.1575604"><ele>37.0</ele><time>2026-04-10T07:46:18.946Z</time></trkpt><trkpt lat="44.0782547" lon="8.1574751"><ele>37.333333333333336</ele><time>2026-04-10T07:46:19.946Z</time></trkpt><trkpt lat="44.0784329" lon="8.1573726"><ele>37.666666666666664</ele><time>2026-04-10T07:46:20.946Z</time></trkpt><trkpt lat="44.0785812" lon="8.1572674"><ele>38.0</ele><time>2026-04-10T07:46:21.946Z</time></trkpt><trkpt lat="44.0787362" lon="8.1571731"><ele>37.33333333333333</ele><time>2026-04-10T07:46:22.946Z</time></trkpt><trkpt lat="44.0788944" lon="8.1570878"><ele>36.666666666666664</ele><time>2026-04-10T07:46:23.946Z</time></trkpt><trkpt lat="44.0790516" lon="8.1570056"><ele>36.0</ele><time>2026-04-10T07:46:24.946Z</time></trkpt><trkpt lat="44.0791967" lon="8.1569324"><ele>36.0</ele><time>2026-04-10T07:46:25.946Z</time></trkpt><trkpt lat="44.0793548" lon="8.1568602"><ele>36.0</ele><time>2026-04-10T07:46:26.946Z</time></trkpt><trkpt lat="44.0795099" lon="8.1567909"><ele>36.0</ele><time>2026-04-10T07:46:27.946Z</time></trkpt><trkpt lat="44.0796731" lon="8.1567315"><ele>36.0</ele><time>2026-04-10T07:46:28.947Z</time></trkpt><trkpt lat="44.0798281" lon="8.1566707"><ele>36.0</ele><time>2026-04-10T07:46:29.946Z</time></trkpt><trkpt lat="44.0799713" lon="8.1566034"><ele>36.0</ele><time>2026-04-10T07:46:30.946Z</time></trkpt><trkpt lat="44.0801029" lon="8.156513"><ele>36.25</ele><time>2026-04-10T07:46:31.946Z</time></trkpt><trkpt lat="44.0802439" lon="8.1564304"><ele>36.5</ele><time>2026-04-10T07:46:32.946Z</time></trkpt><trkpt lat="44.0803722" lon="8.1563491"><ele>36.75</ele><time>2026-04-10T07:46:33.946Z</time></trkpt><trkpt lat="44.0804953" lon="8.1562637"><ele>37.0</ele><time>2026-04-10T07:46:34.947Z</time></trkpt><trkpt lat="44.0806249" lon="8.1561706"><ele>37.0</ele><time>2026-04-10T07:46:35.946Z</time></trkpt><trkpt lat="44.0807541" lon="8.1560421"><ele>37.0</ele><time>2026-04-10T07:46:36.946Z</time></trkpt><trkpt lat="44.0808944" lon="8.1559056"><ele>37.0</ele><time>2026-04-10T07:46:37.946Z</time></trkpt><trkpt lat="44.0810467" lon="8.1557488"><ele>38.0</ele><time>2026-04-10T07:46:38.946Z</time></trkpt><trkpt lat="44.0812108" lon="8.1555922"><ele>39.0</ele><time>2026-04-10T07:46:39.946Z</time></trkpt><trkpt lat="44.0813976" lon="8.1554458"><ele>40.0</ele><time>2026-04-10T07:46:40.946Z</time></trkpt><trkpt lat="44.0815953" lon="8.155284"><ele>42.0</ele><time>2026-04-10T07:46:41.946Z</time></trkpt><trkpt lat="44.0817912" lon="8.1551265"><ele>44.0</ele><time>2026-04-10T07:46:42.946Z</time></trkpt><trkpt lat="44.0819794" lon="8.1549547"><ele>44.33333333333333</ele><time>2026-04-10T07:46:43.947Z</time></trkpt><trkpt lat="44.0821501" lon="8.1547746"><ele>44.666666666666664</ele><time>2026-04-10T07:46:44.946Z</time></trkpt><trkpt lat="44.0823117" lon="8.1545719"><ele>45.0</ele><time>2026-04-10T07:46:45.946Z</time></trkpt><trkpt lat="44.0824713" lon="8.1543689"><ele>45.666666666666664</ele><time>2026-04-10T07:46:46.946Z</time></trkpt><trkpt lat="44.082607" lon="8.1541774"><ele>46.33333333333333</ele><time>2026-04-10T07:46:47.946Z</time></trkpt><trkpt lat="44.0827231" lon="8.1539917"><ele>47.0</ele><time>2026-04-10T07:46:48.946Z</time></trkpt><trkpt lat="44.0828223" lon="8.1538167"><ele>47.0</ele><time>2026-04-10T07:46:49.946Z</time></trkpt><trkpt lat="44.0829337" lon="8.1536525"><ele>47.0</ele><time>2026-04-10T07:46:50.946Z</time></trkpt><trkpt lat="44.0830381" lon="8.1534831"><ele>47.0</ele><time>2026-04-10T07:46:51.946Z</time></trkpt><trkpt lat="44.083141" lon="8.1533221"><ele>46.75</ele><time>2026-04-10T07:46:52.946Z</time></trkpt><trkpt lat="44.0832393" lon="8.1531617"><ele>46.5</ele><time>2026-04-10T07:46:53.946Z</time></trkpt><trkpt lat="44.0833313" lon="8.1530188"><ele>46.25</ele><time>2026-04-10T07:46:54.947Z</time></trkpt><trkpt lat="44.0834173" lon="8.152887"><ele>46.0</ele><time>2026-04-10T07:46:55.946Z</time></trkpt><trkpt lat="44.0834919" lon="8.1527452"><ele>46.5</ele><time>2026-04-10T07:46:56.946Z</time></trkpt><trkpt lat="44.0835793" lon="8.1526061"><ele>47.0</ele><time>2026-04-10T07:46:57.946Z</time></trkpt><trkpt lat="44.0836752" lon="8.1524679"><ele>47.5</ele><time>2026-04-10T07:46:58.946Z</time></trkpt><trkpt lat="44.0837635" lon="8.1523299"><ele>48.0</ele><time>2026-04-10T07:46:59.947Z</time></trkpt><trkpt lat="44.0838523" lon="8.1521677"><ele>48.0</ele><time>2026-04-10T07:47:00.946Z</time></trkpt><trkpt lat="44.0839478" lon="8.1520043"><ele>48.0</ele><time>2026-04-10T07:47:01.947Z</time></trkpt><trkpt lat="44.0840372" lon="8.1518468"><ele>48.0</ele><time>2026-04-10T07:47:02.946Z</time></trkpt><trkpt lat="44.0841494" lon="8.1516736"><ele>48.33333333333333</ele><time>2026-04-10T07:47:03.946Z</time></trkpt><trkpt lat="44.0842758" lon="8.1514956"><ele>48.666666666666664</ele><time>2026-04-10T07:47:04.946Z</time></trkpt><trkpt lat="44.0844136" lon="8.1513044"><ele>49.0</ele><time>2026-04-10T07:47:05.946Z</time></trkpt><trkpt lat="44.0845423" lon="8.1511163"><ele>49.0</ele><time>2026-04-10T07:47:06.946Z</time></trkpt><trkpt lat="44.0846614" lon="8.1509262"><ele>49.0</ele><time>2026-04-10T07:47:07.946Z</time></trkpt><trkpt lat="44.0847809" lon="8.1507347"><ele>49.0</ele><time>2026-04-10T07:47:08.947Z</time></trkpt><trkpt lat="44.0849074" lon="8.1505488"><ele>49.33333333333333</ele><time>2026-04-10T07:47:09.946Z</time></trkpt><trkpt lat="44.0850164" lon="8.1503539"><ele>49.66666666666667</ele><time>2026-04-10T07:47:10.946Z</time></trkpt><trkpt lat="44.0851277" lon="8.1501553"><ele>50.0</ele><time>2026-04-10T07:47:11.946Z</time></trkpt><trkpt lat="44.0852186" lon="8.1499593"><ele>50.0</ele><time>2026-04-10T07:47:12.946Z</time></trkpt><trkpt lat="44.085304" lon="8.1497736"><ele>50.0</ele><time>2026-04-10T07:47:13.946Z</time></trkpt><trkpt lat="44.0853921" lon="8.1495947"><ele>50.0</ele><time>2026-04-10T07:47:14.946Z</time></trkpt><trkpt lat="44.0854865" lon="8.1494319"><ele>50.0</ele><time>2026-04-10T07:47:15.946Z</time></trkpt><trkpt lat="44.0855958" lon="8.1492568"><ele>50.0</ele><time>2026-04-10T07:47:16.946Z</time></trkpt><trkpt lat="44.0857088" lon="8.1490829"><ele>50.0</ele><time>2026-04-10T07:47:17.946Z</time></trkpt><trkpt lat="44.08583" lon="8.1489272"><ele>51.333333333333336</ele><time>2026-04-10T07:47:18.946Z</time></trkpt><trkpt lat="44.0859566" lon="8.1487758"><ele>52.66666666666667</ele><time>2026-04-10T07:47:19.946Z</time></trkpt><trkpt lat="44.0860893" lon="8.1486181"><ele>54.0</ele><time>2026-04-10T07:47:20.946Z</time></trkpt><trkpt lat="44.0862171" lon="8.1484516"><ele>54.0</ele><time>2026-04-10T07:47:21.946Z</time></trkpt><trkpt lat="44.0863468" lon="8.1482795"><ele>54.0</ele><time>2026-04-10T07:47:22.946Z</time></trkpt><trkpt lat="44.0864784" lon="8.1481133"><ele>54.0</ele><time>2026-04-10T07:47:23.946Z</time></trkpt><trkpt lat="44.0866016" lon="8.147956"><ele>55.0</ele><time>2026-04-10T07:47:24.945Z</time></trkpt><trkpt lat="44.0867298" lon="8.1477979"><ele>56.0</ele><time>2026-04-10T07:47:25.945Z</time></trkpt><trkpt lat="44.0868538" lon="8.1476421"><ele>57.0</ele><time>2026-04-10T07:47:26.945Z</time></trkpt><trkpt lat="44.086964" lon="8.1474889"><ele>57.25</ele><time>2026-04-10T07:47:27.945Z</time></trkpt><trkpt lat="44.0870619" lon="8.1473512"><ele>57.5</ele><time>2026-04-10T07:47:28.945Z</time></trkpt><trkpt lat="44.0871616" lon="8.1472188"><ele>57.75</ele><time>2026-04-10T07:47:29.945Z</time></trkpt><trkpt lat="44.0872666" lon="8.1470904"><ele>58.0</ele><time>2026-04-10T07:47:30.946Z</time></trkpt><trkpt lat="44.0873701" lon="8.1469609"><ele>58.25</ele><time>2026-04-10T07:47:31.945Z</time></trkpt><trkpt lat="44.087463" lon="8.1468323"><ele>58.5</ele><time>2026-04-10T07:47:32.945Z</time></trkpt><trkpt lat="44.0875622" lon="8.146714"><ele>58.75</ele><time>2026-04-10T07:47:33.945Z</time></trkpt><trkpt lat="44.0876437" lon="8.1466048"><ele>59.0</ele><time>2026-04-10T07:47:34.946Z</time></trkpt><trkpt lat="44.0876975" lon="8.1464835"><ele>59.0</ele><time>2026-04-10T07:47:35.945Z</time></trkpt><trkpt lat="44.0877336" lon="8.1463426"><ele>59.0</ele><time>2026-04-10T07:47:36.946Z</time></trkpt><trkpt lat="44.0877628" lon="8.1461889"><ele>59.0</ele><time>2026-04-10T07:47:37.945Z</time></trkpt><trkpt lat="44.0877923" lon="8.1460171"><ele>59.0</ele><time>2026-04-10T07:47:38.945Z</time></trkpt><trkpt lat="44.0878228" lon="8.1458334"><ele>58.0</ele><time>2026-04-10T07:47:39.945Z</time></trkpt><trkpt lat="44.0878716" lon="8.1456588"><ele>57.0</ele><time>2026-04-10T07:47:40.945Z</time></trkpt><trkpt lat="44.087927" lon="8.1454844"><ele>56.0</ele><time>2026-04-10T07:47:41.946Z</time></trkpt><trkpt lat="44.0879814" lon="8.1453046"><ele>55.0</ele><time>2026-04-10T07:47:42.945Z</time></trkpt><trkpt lat="44.0880425" lon="8.1451403"><ele>55.0</ele><time>2026-04-10T07:47:43.945Z</time></trkpt><trkpt lat="44.0880931" lon="8.1449693"><ele>55.0</ele><time>2026-04-10T07:47:44.945Z</time></trkpt><trkpt lat="44.0881421" lon="8.1447997"><ele>55.0</ele><time>2026-04-10T07:47:45.945Z</time></trkpt><trkpt lat="44.0881881" lon="8.1446471"><ele>55.0</ele><time>2026-04-10T07:47:46.945Z</time></trkpt><trkpt lat="44.0882342" lon="8.1444822"><ele>55.0</ele><time>2026-04-10T07:47:47.945Z</time></trkpt><trkpt lat="44.0882803" lon="8.1443011"><ele>55.0</ele><time>2026-04-10T07:47:48.945Z</time></trkpt><trkpt lat="44.0883217" lon="8.1441113"><ele>55.0</ele><time>2026-04-10T07:47:49.945Z</time></trkpt><trkpt lat="44.0883514" lon="8.1439259"><ele>55.0</ele><time>2026-04-10T07:47:50.945Z</time></trkpt><trkpt lat="44.0884022" lon="8.1437565"><ele>55.0</ele><time>2026-04-10T07:47:51.945Z</time></trkpt><trkpt lat="44.0884575" lon="8.1435904"><ele>55.0</ele><time>2026-04-10T07:47:52.945Z</time></trkpt><trkpt lat="44.0885133" lon="8.1434302"><ele>55.0</ele><time>2026-04-10T07:47:53.945Z</time></trkpt><trkpt lat="44.0885671" lon="8.1432799"><ele>55.0</ele><time>2026-04-10T07:47:54.945Z</time></trkpt><trkpt lat="44.0886142" lon="8.1431308"><ele>53.75</ele><time>2026-04-10T07:47:55.945Z</time></trkpt><trkpt lat="44.0886544" lon="8.1429776"><ele>52.5</ele><time>2026-04-10T07:47:56.945Z</time></trkpt><trkpt lat="44.0886872" lon="8.1428098"><ele>51.25</ele><time>2026-04-10T07:47:57.945Z</time></trkpt><trkpt lat="44.0887114" lon="8.1426258"><ele>50.0</ele><time>2026-04-10T07:47:58.946Z</time></trkpt><trkpt lat="44.0887409" lon="8.142406"><ele>51.0</ele><time>2026-04-10T07:47:59.945Z</time></trkpt><trkpt lat="44.0887772" lon="8.1421454"><ele>52.0</ele><time>2026-04-10T07:48:00.945Z</time></trkpt><trkpt lat="44.0888162" lon="8.1418377"><ele>53.0</ele><time>2026-04-10T07:48:01.945Z</time></trkpt><trkpt lat="44.0888487" lon="8.141506"><ele>53.0</ele><time>2026-04-10T07:48:02.945Z</time></trkpt><trkpt lat="44.088889" lon="8.1412042"><ele>53.0</ele><time>2026-04-10T07:48:03.945Z</time></trkpt><trkpt lat="44.0889209" lon="8.1409404"><ele>53.0</ele><time>2026-04-10T07:48:04.945Z</time></trkpt><trkpt lat="44.0889447" lon="8.1406951"><ele>52.0</ele><time>2026-04-10T07:48:05.946Z</time></trkpt><trkpt lat="44.0889729" lon="8.1404531"><ele>51.0</ele><time>2026-04-10T07:48:06.945Z</time></trkpt><trkpt lat="44.0890026" lon="8.1402226"><ele>50.0</ele><time>2026-04-10T07:48:07.945Z</time></trkpt><trkpt lat="44.0890394" lon="8.1400018"><ele>53.66666666666667</ele><time>2026-04-10T07:48:08.945Z</time></trkpt><trkpt lat="44.0891007" lon="8.1397794"><ele>57.33333333333333</ele><time>2026-04-10T07:48:09.946Z</time></trkpt><trkpt lat="44.089186" lon="8.1395527"><ele>61.0</ele><time>2026-04-10T07:48:10.945Z</time></trkpt><trkpt lat="44.0892936" lon="8.1393186"><ele>61.0</ele><time>2026-04-10T07:48:11.945Z</time></trkpt><trkpt lat="44.0894272" lon="8.1390809"><ele>61.0</ele><time>2026-04-10T07:48:12.945Z</time></trkpt><trkpt lat="44.0895615" lon="8.1388271"><ele>61.0</ele><time>2026-04-10T07:48:13.945Z</time></trkpt><trkpt lat="44.0897003" lon="8.1385668"><ele>60.666666666666664</ele><time>2026-04-10T07:48:14.945Z</time></trkpt><trkpt lat="44.0898294" lon="8.138311"><ele>60.33333333333333</ele><time>2026-04-10T07:48:15.945Z</time></trkpt><trkpt lat="44.0899661" lon="8.1380641"><ele>60.0</ele><time>2026-04-10T07:48:16.946Z</time></trkpt><trkpt lat="44.0900957" lon="8.1378172"><ele>60.0</ele><time>2026-04-10T07:48:17.946Z</time></trkpt><trkpt lat="44.0902253" lon="8.1375628"><ele>60.0</ele><time>2026-04-10T07:48:18.945Z</time></trkpt><trkpt lat="44.0903476" lon="8.1372991"><ele>60.0</ele><time>2026-04-10T07:48:19.946Z</time></trkpt><trkpt lat="44.0904611" lon="8.1370387"><ele>60.0</ele><time>2026-04-10T07:48:20.946Z</time></trkpt><trkpt lat="44.0905655" lon="8.1367905"><ele>60.0</ele><time>2026-04-10T07:48:21.945Z</time></trkpt><trkpt lat="44.0906781" lon="8.136568"><ele>60.0</ele><time>2026-04-10T07:48:22.945Z</time></trkpt><trkpt lat="44.0907877" lon="8.1363627"><ele>60.0</ele><time>2026-04-10T07:48:23.945Z</time></trkpt><trkpt lat="44.0908843" lon="8.1361671"><ele>60.0</ele><time>2026-04-10T07:48:24.945Z</time></trkpt><trkpt lat="44.0909762" lon="8.1359781"><ele>60.0</ele><time>2026-04-10T07:48:25.945Z</time></trkpt><trkpt lat="44.0910773" lon="8.1357933"><ele>59.33333333333333</ele><time>2026-04-10T07:48:26.946Z</time></trkpt><trkpt lat="44.0911767" lon="8.1356031"><ele>58.666666666666664</ele><time>2026-04-10T07:48:27.945Z</time></trkpt><trkpt lat="44.091272" lon="8.1353984"><ele>58.0</ele><time>2026-04-10T07:48:28.945Z</time></trkpt><trkpt lat="44.0913464" lon="8.1351825"><ele>58.0</ele><time>2026-04-10T07:48:29.945Z</time></trkpt><trkpt lat="44.0913995" lon="8.1349582"><ele>58.0</ele><time>2026-04-10T07:48:30.945Z</time></trkpt><trkpt lat="44.0914312" lon="8.1347255"><ele>58.0</ele><time>2026-04-10T07:48:31.945Z</time></trkpt><trkpt lat="44.0914642" lon="8.1344943"><ele>60.33333333333333</ele><time>2026-04-10T07:48:32.945Z</time></trkpt><trkpt lat="44.0915028" lon="8.1342452"><ele>62.66666666666667</ele><time>2026-04-10T07:48:33.945Z</time></trkpt><trkpt lat="44.0915485" lon="8.1339922"><ele>65.0</ele><time>2026-04-10T07:48:34.945Z</time></trkpt><trkpt lat="44.0915982" lon="8.1337301"><ele>66.0</ele><time>2026-04-10T07:48:35.945Z</time></trkpt><trkpt lat="44.0916359" lon="8.1334642"><ele>67.0</ele><time>2026-04-10T07:48:36.946Z</time></trkpt><trkpt lat="44.0916768" lon="8.1332048"><ele>68.0</ele><time>2026-04-10T07:48:37.945Z</time></trkpt><trkpt lat="44.0917159" lon="8.1329491"><ele>68.0</ele><time>2026-04-10T07:48:38.945Z</time></trkpt><trkpt lat="44.0917604" lon="8.1327064"><ele>68.0</ele><time>2026-04-10T07:48:39.945Z</time></trkpt><trkpt lat="44.0918179" lon="8.1324859"><ele>68.0</ele><time>2026-04-10T07:48:40.946Z</time></trkpt><trkpt lat="44.0918702" lon="8.1322701"><ele>67.66666666666667</ele><time>2026-04-10T07:48:41.946Z</time></trkpt><trkpt lat="44.0919074" lon="8.132038"><ele>67.33333333333333</ele><time>2026-04-10T07:48:42.946Z</time></trkpt><trkpt lat="44.0919152" lon="8.1318016"><ele>67.0</ele><time>2026-04-10T07:48:43.945Z</time></trkpt><trkpt lat="44.0919099" lon="8.1315523"><ele>67.0</ele><time>2026-04-10T07:48:44.944Z</time></trkpt><trkpt lat="44.091893" lon="8.1313066"><ele>67.0</ele><time>2026-04-10T07:48:45.945Z</time></trkpt><trkpt lat="44.0918833" lon="8.1310562"><ele>67.0</ele><time>2026-04-10T07:48:46.945Z</time></trkpt><trkpt lat="44.0918739" lon="8.1308105"><ele>66.33333333333333</ele><time>2026-04-10T07:48:47.946Z</time></trkpt><trkpt lat="44.0918807" lon="8.1305637"><ele>65.66666666666667</ele><time>2026-04-10T07:48:48.945Z</time></trkpt><trkpt lat="44.0918937" lon="8.1303248"><ele>65.0</ele><time>2026-04-10T07:48:49.945Z</time></trkpt><trkpt lat="44.0919119" lon="8.1300839"><ele>66.0</ele><time>2026-04-10T07:48:50.945Z</time></trkpt><trkpt lat="44.0919338" lon="8.1298516"><ele>67.0</ele><time>2026-04-10T07:48:51.945Z</time></trkpt><trkpt lat="44.0919567" lon="8.1296466"><ele>68.0</ele><time>2026-04-10T07:48:52.945Z</time></trkpt><trkpt lat="44.0920026" lon="8.1294559"><ele>68.0</ele><time>2026-04-10T07:48:53.946Z</time></trkpt><trkpt lat="44.0920514" lon="8.1292767"><ele>68.0</ele><time>2026-04-10T07:48:54.945Z</time></trkpt><trkpt lat="44.0921082" lon="8.1291219"><ele>68.0</ele><time>2026-04-10T07:48:55.946Z</time></trkpt><trkpt lat="44.0921704" lon="8.1289751"><ele>68.0</ele><time>2026-04-10T07:48:56.945Z</time></trkpt><trkpt lat="44.0922362" lon="8.1288456"><ele>68.5</ele><time>2026-04-10T07:48:57.945Z</time></trkpt><trkpt lat="44.0923092" lon="8.1287211"><ele>69.0</ele><time>2026-04-10T07:48:58.945Z</time></trkpt><trkpt lat="44.0923846" lon="8.1285927"><ele>69.5</ele><time>2026-04-10T07:48:59.946Z</time></trkpt><trkpt lat="44.0924644" lon="8.1284612"><ele>70.0</ele><time>2026-04-10T07:49:00.945Z</time></trkpt><trkpt lat="44.0925514" lon="8.1283317"><ele>71.0</ele><time>2026-04-10T07:49:01.945Z</time></trkpt><trkpt lat="44.0926375" lon="8.128207"><ele>72.0</ele><time>2026-04-10T07:49:02.945Z</time></trkpt><trkpt lat="44.0927295" lon="8.1281244"><ele>73.0</ele><time>2026-04-10T07:49:03.945Z</time></trkpt><trkpt lat="44.0928358" lon="8.1280788"><ele>74.0</ele><time>2026-04-10T07:49:04.945Z</time></trkpt><trkpt lat="44.0929551" lon="8.1280448"><ele>74.0</ele><time>2026-04-10T07:49:05.945Z</time></trkpt><trkpt lat="44.0930892" lon="8.1280176"><ele>74.0</ele><time>2026-04-10T07:49:06.945Z</time></trkpt><trkpt lat="44.0932293" lon="8.1279967"><ele>74.0</ele><time>2026-04-10T07:49:07.945Z</time></trkpt><trkpt lat="44.0933702" lon="8.1279768"><ele>74.0</ele><time>2026-04-10T07:49:08.945Z</time></trkpt><trkpt lat="44.0935144" lon="8.1279578"><ele>74.5</ele><time>2026-04-10T07:49:09.945Z</time></trkpt><trkpt lat="44.0936608" lon="8.1279458"><ele>75.0</ele><time>2026-04-10T07:49:10.945Z</time></trkpt><trkpt lat="44.0938112" lon="8.1279432"><ele>75.5</ele><time>2026-04-10T07:49:11.945Z</time></trkpt><trkpt lat="44.0939595" lon="8.1279576"><ele>76.0</ele><time>2026-04-10T07:49:12.945Z</time></trkpt><trkpt lat="44.0941145" lon="8.1279872"><ele>76.0</ele><time>2026-04-10T07:49:13.945Z</time></trkpt><trkpt lat="44.0942675" lon="8.1280177"><ele>76.0</ele><time>2026-04-10T07:49:14.946Z</time></trkpt><trkpt lat="44.0944236" lon="8.1280325"><ele>76.0</ele><time>2026-04-10T07:49:15.945Z</time></trkpt><trkpt lat="44.0945868" lon="8.1280288"><ele>76.0</ele><time>2026-04-10T07:49:16.945Z</time></trkpt><trkpt lat="44.094746" lon="8.1280069"><ele>76.0</ele><time>2026-04-10T07:49:17.945Z</time></trkpt><trkpt lat="44.0949027" lon="8.127963"><ele>76.0</ele><time>2026-04-10T07:49:18.946Z</time></trkpt><trkpt lat="44.0950672" lon="8.1278876"><ele>76.33333333333333</ele><time>2026-04-10T07:49:19.945Z</time></trkpt><trkpt lat="44.0952397" lon="8.1277841"><ele>76.66666666666667</ele><time>2026-04-10T07:49:20.945Z</time></trkpt><trkpt lat="44.0953941" lon="8.127687"><ele>77.0</ele><time>2026-04-10T07:49:21.945Z</time></trkpt><trkpt lat="44.09554" lon="8.1275942"><ele>77.0</ele><time>2026-04-10T07:49:22.945Z</time></trkpt><trkpt lat="44.0956728" lon="8.1274871"><ele>77.0</ele><time>2026-04-10T07:49:23.945Z</time></trkpt><trkpt lat="44.0958032" lon="8.1273573"><ele>77.0</ele><time>2026-04-10T07:49:24.945Z</time></trkpt><trkpt lat="44.0959266" lon="8.1272003"><ele>78.66666666666667</ele><time>2026-04-10T07:49:25.946Z</time></trkpt><trkpt lat="44.0960368" lon="8.1270142"><ele>80.33333333333333</ele><time>2026-04-10T07:49:26.945Z</time></trkpt><trkpt lat="44.0961296" lon="8.1268121"><ele>82.0</ele><time>2026-04-10T07:49:27.945Z</time></trkpt><trkpt lat="44.096218" lon="8.1266126"><ele>83.0</ele><time>2026-04-10T07:49:28.945Z</time></trkpt><trkpt lat="44.0963113" lon="8.1264139"><ele>84.0</ele><time>2026-04-10T07:49:29.945Z</time></trkpt><trkpt lat="44.0964166" lon="8.1262082"><ele>85.0</ele><time>2026-04-10T07:49:30.945Z</time></trkpt><trkpt lat="44.0965257" lon="8.126012"><ele>84.66666666666666</ele><time>2026-04-10T07:49:31.945Z</time></trkpt><trkpt lat="44.096633" lon="8.1258283"><ele>84.33333333333333</ele><time>2026-04-10T07:49:32.945Z</time></trkpt><trkpt lat="44.096756" lon="8.1256306"><ele>84.0</ele><time>2026-04-10T07:49:33.945Z</time></trkpt><trkpt lat="44.0968917" lon="8.1254455"><ele>84.0</ele><time>2026-04-10T07:49:34.945Z</time></trkpt><trkpt lat="44.0970327" lon="8.1252852"><ele>84.0</ele><time>2026-04-10T07:49:35.945Z</time></trkpt><trkpt lat="44.0971809" lon="8.125165"><ele>84.0</ele><time>2026-04-10T07:49:36.945Z</time></trkpt><trkpt lat="44.0973237" lon="8.1250922"><ele>86.25</ele><time>2026-04-10T07:49:37.945Z</time></trkpt><trkpt lat="44.0974475" lon="8.1250564"><ele>88.5</ele><time>2026-04-10T07:49:38.945Z</time></trkpt><trkpt lat="44.0975587" lon="8.1250298"><ele>90.75</ele><time>2026-04-10T07:49:39.945Z</time></trkpt><trkpt lat="44.0976886" lon="8.1250353"><ele>93.0</ele><time>2026-04-10T07:49:40.945Z</time></trkpt><trkpt lat="44.097847" lon="8.1250816"><ele>93.0</ele><time>2026-04-10T07:49:41.945Z</time></trkpt><trkpt lat="44.0980215" lon="8.1251078"><ele>93.0</ele><time>2026-04-10T07:49:42.945Z</time></trkpt><trkpt lat="44.0982024" lon="8.1251651"><ele>93.0</ele><time>2026-04-10T07:49:43.945Z</time></trkpt><trkpt lat="44.0983818" lon="8.1252136"><ele>92.75</ele><time>2026-04-10T07:49:44.945Z</time></trkpt><trkpt lat="44.0985392" lon="8.1252108"><ele>92.5</ele><time>2026-04-10T07:49:45.945Z</time></trkpt><trkpt lat="44.0986667" lon="8.1251573"><ele>92.25</ele><time>2026-04-10T07:49:46.945Z</time></trkpt><trkpt lat="44.0987846" lon="8.1250733"><ele>92.0</ele><time>2026-04-10T07:49:47.945Z</time></trkpt><trkpt lat="44.0988987" lon="8.1249547"><ele>92.0</ele><time>2026-04-10T07:49:48.945Z</time></trkpt><trkpt lat="44.0990107" lon="8.1248184"><ele>92.0</ele><time>2026-04-10T07:49:49.945Z</time></trkpt><trkpt lat="44.0991264" lon="8.1246675"><ele>92.0</ele><time>2026-04-10T07:49:50.945Z</time></trkpt><trkpt lat="44.0992441" lon="8.124507"><ele>92.0</ele><time>2026-04-10T07:49:51.945Z</time></trkpt><trkpt lat="44.0993736" lon="8.1243417"><ele>92.0</ele><time>2026-04-10T07:49:52.945Z</time></trkpt><trkpt lat="44.0995104" lon="8.1241825"><ele>92.0</ele><time>2026-04-10T07:49:53.945Z</time></trkpt><trkpt lat="44.0996464" lon="8.1240168"><ele>92.33333333333334</ele><time>2026-04-10T07:49:54.945Z</time></trkpt><trkpt lat="44.0997729" lon="8.1238282"><ele>92.66666666666667</ele><time>2026-04-10T07:49:55.945Z</time></trkpt><trkpt lat="44.0998998" lon="8.1236526"><ele>93.0</ele><time>2026-04-10T07:49:56.946Z</time></trkpt><trkpt lat="44.10002" lon="8.1235075"><ele>93.0</ele><time>2026-04-10T07:49:57.945Z</time></trkpt><trkpt lat="44.1001579" lon="8.1233848"><ele>93.0</ele><time>2026-04-10T07:49:58.946Z</time></trkpt><trkpt lat="44.1003022" lon="8.1232804"><ele>93.0</ele><time>2026-04-10T07:49:59.945Z</time></trkpt><trkpt lat="44.100444" lon="8.123185"><ele>95.33333333333334</ele><time>2026-04-10T07:50:00.945Z</time></trkpt><trkpt lat="44.1005924" lon="8.1231228"><ele>97.66666666666667</ele><time>2026-04-10T07:50:01.945Z</time></trkpt><trkpt lat="44.1007489" lon="8.123093"><ele>100.0</ele><time>2026-04-10T07:50:02.945Z</time></trkpt><trkpt lat="44.1009047" lon="8.1230839"><ele>100.0</ele><time>2026-04-10T07:50:03.946Z</time></trkpt><trkpt lat="44.1010566" lon="8.1231135"><ele>100.0</ele><time>2026-04-10T07:50:04.945Z</time></trkpt><trkpt lat="44.1012009" lon="8.1231825"><ele>100.0</ele><time>2026-04-10T07:50:05.945Z</time></trkpt><trkpt lat="44.1013424" lon="8.1232847"><ele>99.33333333333334</ele><time>2026-04-10T07:50:06.945Z</time></trkpt><trkpt lat="44.101489" lon="8.1233948"><ele>98.66666666666666</ele><time>2026-04-10T07:50:07.945Z</time></trkpt><trkpt lat="44.1016362" lon="8.123507"><ele>98.0</ele><time>2026-04-10T07:50:08.945Z</time></trkpt><trkpt lat="44.101794" lon="8.1236041"><ele>97.66666666666666</ele><time>2026-04-10T07:50:09.945Z</time></trkpt><trkpt lat="44.101972" lon="8.1236906"><ele>97.33333333333334</ele><time>2026-04-10T07:50:10.945Z</time></trkpt><trkpt lat="44.1021508" lon="8.1237455"><ele>97.0</ele><time>2026-04-10T07:50:11.945Z</time></trkpt><trkpt lat="44.1023143" lon="8.1237632"><ele>97.66666666666667</ele><time>2026-04-10T07:50:12.945Z</time></trkpt><trkpt lat="44.1024743" lon="8.1237824"><ele>98.33333333333334</ele><time>2026-04-10T07:50:13.945Z</time></trkpt><trkpt lat="44.1026301" lon="8.1238118"><ele>99.0</ele><time>2026-04-10T07:50:14.945Z</time></trkpt><trkpt lat="44.1027846" lon="8.1238462"><ele>99.0</ele><time>2026-04-10T07:50:15.945Z</time></trkpt><trkpt lat="44.1029351" lon="8.1238947"><ele>99.0</ele><time>2026-04-10T07:50:16.945Z</time></trkpt><trkpt lat="44.1030818" lon="8.1239625"><ele>99.0</ele><time>2026-04-10T07:50:17.945Z</time></trkpt><trkpt lat="44.1032289" lon="8.1240472"><ele>101.66666666666666</ele><time>2026-04-10T07:50:18.945Z</time></trkpt><trkpt lat="44.1033795" lon="8.1241525"><ele>104.33333333333333</ele><time>2026-04-10T07:50:19.945Z</time></trkpt><trkpt lat="44.1035425" lon="8.1242603"><ele>107.0</ele><time>2026-04-10T07:50:20.945Z</time></trkpt><trkpt lat="44.1037189" lon="8.1243806"><ele>107.0</ele><time>2026-04-10T07:50:21.946Z</time></trkpt><trkpt lat="44.1038921" lon="8.1244985"><ele>107.0</ele><time>2026-04-10T07:50:22.945Z</time></trkpt><trkpt lat="44.1040564" lon="8.1246088"><ele>107.0</ele><time>2026-04-10T07:50:23.945Z</time></trkpt><trkpt lat="44.1042198" lon="8.1246939"><ele>106.0</ele><time>2026-04-10T07:50:24.945Z</time></trkpt><trkpt lat="44.1043804" lon="8.1247522"><ele>105.0</ele><time>2026-04-10T07:50:25.945Z</time></trkpt><trkpt lat="44.1045454" lon="8.1247613"><ele>104.0</ele><time>2026-04-10T07:50:26.945Z</time></trkpt><trkpt lat="44.1047167" lon="8.124719"><ele>104.0</ele><time>2026-04-10T07:50:27.945Z</time></trkpt><trkpt lat="44.104872" lon="8.1245981"><ele>104.0</ele><time>2026-04-10T07:50:28.945Z</time></trkpt><trkpt lat="44.1050211" lon="8.1244698"><ele>104.0</ele><time>2026-04-10T07:50:29.945Z</time></trkpt><trkpt lat="44.1051634" lon="8.1243281"><ele>104.0</ele><time>2026-04-10T07:50:30.945Z</time></trkpt><trkpt lat="44.1052932" lon="8.1241636"><ele>104.0</ele><time>2026-04-10T07:50:31.945Z</time></trkpt><trkpt lat="44.1054174" lon="8.1239975"><ele>104.0</ele><time>2026-04-10T07:50:32.946Z</time></trkpt><trkpt lat="44.1055523" lon="8.1238303"><ele>105.0</ele><time>2026-04-10T07:50:33.945Z</time></trkpt><trkpt lat="44.1056956" lon="8.1236706"><ele>106.0</ele><time>2026-04-10T07:50:34.945Z</time></trkpt><trkpt lat="44.1058347" lon="8.1234982"><ele>107.0</ele><time>2026-04-10T07:50:35.945Z</time></trkpt><trkpt lat="44.1059918" lon="8.1233287"><ele>109.0</ele><time>2026-04-10T07:50:36.945Z</time></trkpt><trkpt lat="44.1061467" lon="8.1231729"><ele>111.0</ele><time>2026-04-10T07:50:37.945Z</time></trkpt><trkpt lat="44.1062914" lon="8.1230311"><ele>113.0</ele><time>2026-04-10T07:50:38.945Z</time></trkpt><trkpt lat="44.1064293" lon="8.1229023"><ele>113.0</ele><time>2026-04-10T07:50:39.945Z</time></trkpt><trkpt lat="44.1065703" lon="8.1227733"><ele>113.0</ele><time>2026-04-10T07:50:40.945Z</time></trkpt><trkpt lat="44.1067089" lon="8.1226503"><ele>113.0</ele><time>2026-04-10T07:50:41.946Z</time></trkpt><trkpt lat="44.106848" lon="8.1225199"><ele>112.0</ele><time>2026-04-10T07:50:42.945Z</time></trkpt><trkpt lat="44.1069793" lon="8.1223949"><ele>111.0</ele><time>2026-04-10T07:50:43.945Z</time></trkpt><trkpt lat="44.1071145" lon="8.122268"><ele>110.0</ele><time>2026-04-10T07:50:44.945Z</time></trkpt><trkpt lat="44.107257" lon="8.1221366"><ele>110.0</ele><time>2026-04-10T07:50:45.945Z</time></trkpt><trkpt lat="44.1073977" lon="8.1219962"><ele>110.0</ele><time>2026-04-10T07:50:46.946Z</time></trkpt><trkpt lat="44.1075243" lon="8.1218579"><ele>110.0</ele><time>2026-04-10T07:50:47.946Z</time></trkpt><trkpt lat="44.1076574" lon="8.1217383"><ele>108.5</ele><time>2026-04-10T07:50:48.945Z</time></trkpt><trkpt lat="44.1077804" lon="8.1216149"><ele>107.0</ele><time>2026-04-10T07:50:49.946Z</time></trkpt><trkpt lat="44.1078877" lon="8.1214841"><ele>105.5</ele><time>2026-04-10T07:50:50.945Z</time></trkpt><trkpt lat="44.1079788" lon="8.1213511"><ele>104.0</ele><time>2026-04-10T07:50:51.945Z</time></trkpt><trkpt lat="44.1080491" lon="8.121183"><ele>104.0</ele><time>2026-04-10T07:50:52.946Z</time></trkpt><trkpt lat="44.1080936" lon="8.1209918"><ele>104.0</ele><time>2026-04-10T07:50:53.945Z</time></trkpt><trkpt lat="44.1081142" lon="8.1207797"><ele>104.0</ele><time>2026-04-10T07:50:54.945Z</time></trkpt><trkpt lat="44.1080986" lon="8.120554"><ele>106.66666666666666</ele><time>2026-04-10T07:50:55.945Z</time></trkpt><trkpt lat="44.1080595" lon="8.1203366"><ele>109.33333333333334</ele><time>2026-04-10T07:50:56.945Z</time></trkpt><trkpt lat="44.1080151" lon="8.1201265"><ele>112.0</ele><time>2026-04-10T07:50:57.946Z</time></trkpt><trkpt lat="44.10798" lon="8.1199057"><ele>113.66666666666667</ele><time>2026-04-10T07:50:58.946Z</time></trkpt><trkpt lat="44.1079758" lon="8.1196872"><ele>115.33333333333334</ele><time>2026-04-10T07:50:59.945Z</time></trkpt><trkpt lat="44.1079831" lon="8.1194622"><ele>117.0</ele><time>2026-04-10T07:51:00.945Z</time></trkpt><trkpt lat="44.107991" lon="8.1192518"><ele>119.66666666666666</ele><time>2026-04-10T07:51:01.945Z</time></trkpt><trkpt lat="44.1080081" lon="8.1190418"><ele>122.33333333333333</ele><time>2026-04-10T07:51:02.945Z</time></trkpt><trkpt lat="44.1080261" lon="8.1188319"><ele>125.0</ele><time>2026-04-10T07:51:03.945Z</time></trkpt><trkpt lat="44.1080476" lon="8.1186185"><ele>125.0</ele><time>2026-04-10T07:51:04.945Z</time></trkpt><trkpt lat="44.1080823" lon="8.1184056"><ele>125.0</ele><time>2026-04-10T07:51:05.945Z</time></trkpt><trkpt lat="44.1081239" lon="8.1182017"><ele>125.0</ele><time>2026-04-10T07:51:06.945Z</time></trkpt><trkpt lat="44.108191" lon="8.1180089"><ele>124.75</ele><time>2026-04-10T07:51:07.946Z</time></trkpt><trkpt lat="44.1082818" lon="8.1178451"><ele>124.5</ele><time>2026-04-10T07:51:08.946Z</time></trkpt><trkpt lat="44.1083819" lon="8.1176915"><ele>124.25</ele><time>2026-04-10T07:51:09.945Z</time></trkpt><trkpt lat="44.1084831" lon="8.1175436"><ele>124.0</ele><time>2026-04-10T07:51:10.945Z</time></trkpt><trkpt lat="44.1085728" lon="8.1173949"><ele>124.0</ele><time>2026-04-10T07:51:11.945Z</time></trkpt><trkpt lat="44.1086444" lon="8.1172447"><ele>124.0</ele><time>2026-04-10T07:51:12.945Z</time></trkpt><trkpt lat="44.1086981" lon="8.1170705"><ele>124.0</ele><time>2026-04-10T07:51:13.946Z</time></trkpt><trkpt lat="44.1087496" lon="8.1168792"><ele>124.0</ele><time>2026-04-10T07:51:14.945Z</time></trkpt><trkpt lat="44.1088128" lon="8.1166866"><ele>133.33333333333334</ele><time>2026-04-10T07:51:15.945Z</time></trkpt><trkpt lat="44.1088765" lon="8.1164989"><ele>142.66666666666666</ele><time>2026-04-10T07:51:16.945Z</time></trkpt><trkpt lat="44.1089627" lon="8.1163216"><ele>152.0</ele><time>2026-04-10T07:51:17.946Z</time></trkpt><trkpt lat="44.1090717" lon="8.1161719"><ele>143.0</ele><time>2026-04-10T07:51:18.945Z</time></trkpt><trkpt lat="44.1091911" lon="8.1160386"><ele>134.0</ele><time>2026-04-10T07:51:19.946Z</time></trkpt><trkpt lat="44.1093145" lon="8.1158995"><ele>125.0</ele><time>2026-04-10T07:51:20.945Z</time></trkpt><trkpt lat="44.1094382" lon="8.1157666"><ele>136.0</ele><time>2026-04-10T07:51:21.945Z</time></trkpt><trkpt lat="44.1095634" lon="8.1156242"><ele>147.0</ele><time>2026-04-10T07:51:22.945Z</time></trkpt><trkpt lat="44.1096842" lon="8.1154855"><ele>158.0</ele><time>2026-04-10T07:51:23.945Z</time></trkpt><trkpt lat="44.1098167" lon="8.1153752"><ele>149.0</ele><time>2026-04-10T07:51:24.945Z</time></trkpt><trkpt lat="44.1099549" lon="8.1153008"><ele>140.0</ele><time>2026-04-10T07:51:25.945Z</time></trkpt><trkpt lat="44.1101022" lon="8.1152354"><ele>131.0</ele><time>2026-04-10T07:51:26.945Z</time></trkpt><trkpt lat="44.1102617" lon="8.1151732"><ele>131.0</ele><time>2026-04-10T07:51:27.946Z</time></trkpt><trkpt lat="44.1104247" lon="8.115104"><ele>131.0</ele><time>2026-04-10T07:51:28.945Z</time></trkpt><trkpt lat="44.1105832" lon="8.1150217"><ele>131.0</ele><time>2026-04-10T07:51:29.945Z</time></trkpt><trkpt lat="44.1107436" lon="8.1149365"><ele>136.66666666666666</ele><time>2026-04-10T07:51:30.945Z</time></trkpt><trkpt lat="44.1109048" lon="8.114847"><ele>142.33333333333334</ele><time>2026-04-10T07:51:31.945Z</time></trkpt><trkpt lat="44.1110458" lon="8.1147536"><ele>148.0</ele><time>2026-04-10T07:51:32.945Z</time></trkpt><trkpt lat="44.1111902" lon="8.1146711"><ele>148.0</ele><time>2026-04-10T07:51:33.945Z</time></trkpt><trkpt lat="44.1113285" lon="8.1146164"><ele>148.0</ele><time>2026-04-10T07:51:34.946Z</time></trkpt><trkpt lat="44.1114656" lon="8.1145967"><ele>148.0</ele><time>2026-04-10T07:51:35.945Z</time></trkpt><trkpt lat="44.1116075" lon="8.1146097"><ele>148.0</ele><time>2026-04-10T07:51:36.945Z</time></trkpt><trkpt lat="44.1117468" lon="8.1146541"><ele>145.0</ele><time>2026-04-10T07:51:37.945Z</time></trkpt><trkpt lat="44.1118779" lon="8.1147243"><ele>142.0</ele><time>2026-04-10T07:51:38.945Z</time></trkpt><trkpt lat="44.1120116" lon="8.1148089"><ele>139.0</ele><time>2026-04-10T07:51:39.946Z</time></trkpt><trkpt lat="44.1121494" lon="8.1148937"><ele>136.0</ele><time>2026-04-10T07:51:40.945Z</time></trkpt><trkpt lat="44.1122838" lon="8.114992"><ele>133.0</ele><time>2026-04-10T07:51:41.945Z</time></trkpt><trkpt lat="44.1124055" lon="8.115084"><ele>130.0</ele><time>2026-04-10T07:51:42.945Z</time></trkpt><trkpt lat="44.1125144" lon="8.1151759"><ele>127.0</ele><time>2026-04-10T07:51:43.945Z</time></trkpt><trkpt lat="44.1126137" lon="8.1152585"><ele>124.0</ele><time>2026-04-10T07:51:44.946Z</time></trkpt><trkpt lat="44.1127098" lon="8.1153311"><ele>124.0</ele><time>2026-04-10T07:51:45.945Z</time></trkpt><trkpt lat="44.1128043" lon="8.1153949"><ele>124.0</ele><time>2026-04-10T07:51:46.946Z</time></trkpt><trkpt lat="44.1128946" lon="8.115467"><ele>124.0</ele><time>2026-04-10T07:51:47.945Z</time></trkpt><trkpt lat="44.1129734" lon="8.1155413"><ele>124.0</ele><time>2026-04-10T07:51:48.945Z</time></trkpt><trkpt lat="44.1130414" lon="8.1156025"><ele>124.0</ele><time>2026-04-10T07:51:49.946Z</time></trkpt><trkpt lat="44.113102" lon="8.1156375"><ele>124.0</ele><time>2026-04-10T07:51:50.946Z</time></trkpt><trkpt lat="44.1131835" lon="8.1156011"><ele>124.0</ele><time>2026-04-10T07:51:52.945Z</time></trkpt><trkpt lat="44.1132587" lon="8.1154764"><ele>124.0</ele><time>2026-04-10T07:51:54.945Z</time></trkpt><trkpt lat="44.1133809" lon="8.115478"><ele>124.0</ele><time>2026-04-10T07:51:56.945Z</time></trkpt><trkpt lat="44.1134676" lon="8.1155215"><ele>124.0</ele><time>2026-04-10T07:51:57.946Z</time></trkpt><trkpt lat="44.113567" lon="8.115569"><ele>125.2</ele><time>2026-04-10T07:51:58.945Z</time></trkpt><trkpt lat="44.1136661" lon="8.1156191"><ele>126.4</ele><time>2026-04-10T07:51:59.945Z</time></trkpt><trkpt lat="44.1137657" lon="8.1156651"><ele>127.6</ele><time>2026-04-10T07:52:00.945Z</time></trkpt><trkpt lat="44.1138652" lon="8.1157011"><ele>128.8</ele><time>2026-04-10T07:52:01.945Z</time></trkpt><trkpt lat="44.1139663" lon="8.1157297"><ele>130.0</ele><time>2026-04-10T07:52:02.945Z</time></trkpt><trkpt lat="44.1140904" lon="8.1157485"><ele>130.0</ele><time>2026-04-10T07:52:03.945Z</time></trkpt><trkpt lat="44.1142183" lon="8.115763"><ele>130.0</ele><time>2026-04-10T07:52:04.945Z</time></trkpt><trkpt lat="44.114339" lon="8.115766"><ele>130.0</ele><time>2026-04-10T07:52:05.945Z</time></trkpt><trkpt lat="44.114455" lon="8.1157538"><ele>130.0</ele><time>2026-04-10T07:52:06.945Z</time></trkpt><trkpt lat="44.1145691" lon="8.1157339"><ele>134.6</ele><time>2026-04-10T07:52:07.945Z</time></trkpt><trkpt lat="44.1146848" lon="8.1156896"><ele>139.2</ele><time>2026-04-10T07:52:08.945Z</time></trkpt><trkpt lat="44.1147933" lon="8.1156403"><ele>143.8</ele><time>2026-04-10T07:52:09.945Z</time></trkpt><trkpt lat="44.1148937" lon="8.1156079"><ele>148.4</ele><time>2026-04-10T07:52:10.945Z</time></trkpt><trkpt lat="44.1149806" lon="8.1155937"><ele>153.0</ele><time>2026-04-10T07:52:11.945Z</time></trkpt><trkpt lat="44.1150876" lon="8.1155931"><ele>155.2</ele><time>2026-04-10T07:52:12.945Z</time></trkpt><trkpt lat="44.1151946" lon="8.1155879"><ele>157.4</ele><time>2026-04-10T07:52:13.945Z</time></trkpt><trkpt lat="44.1152789" lon="8.1155667"><ele>159.6</ele><time>2026-04-10T07:52:14.945Z</time></trkpt><trkpt lat="44.1153538" lon="8.1155275"><ele>161.79999999999998</ele><time>2026-04-10T07:52:15.945Z</time></trkpt><trkpt lat="44.1154103" lon="8.1154865"><ele>164.0</ele><time>2026-04-10T07:52:16.945Z</time></trkpt><trkpt lat="44.1154419" lon="8.1153302"><ele>164.0</ele><time>2026-04-10T07:52:18.945Z</time></trkpt><trkpt lat="44.1154374" lon="8.1151996"><ele>164.0</ele><time>2026-04-10T07:52:19.945Z</time></trkpt><trkpt lat="44.1154462" lon="8.1150706"><ele>164.0</ele><time>2026-04-10T07:52:20.945Z</time></trkpt><trkpt lat="44.1154748" lon="8.114962"><ele>164.0</ele><time>2026-04-10T07:52:21.946Z</time></trkpt><trkpt lat="44.1155144" lon="8.1148709"><ele>164.0</ele><time>2026-04-10T07:52:22.945Z</time></trkpt><trkpt lat="44.115557" lon="8.1147777"><ele>164.0</ele><time>2026-04-10T07:52:23.945Z</time></trkpt><trkpt lat="44.1156186" lon="8.114696"><ele>164.2</ele><time>2026-04-10T07:52:24.946Z</time></trkpt><trkpt lat="44.1156883" lon="8.114584"><ele>164.39999999999998</ele><time>2026-04-10T07:52:25.945Z</time></trkpt><trkpt lat="44.1157569" lon="8.1144733"><ele>164.6</ele><time>2026-04-10T07:52:26.945Z</time></trkpt><trkpt lat="44.1158327" lon="8.1143594"><ele>164.8</ele><time>2026-04-10T07:52:27.945Z</time></trkpt><trkpt lat="44.1159012" lon="8.1142457"><ele>165.0</ele><time>2026-04-10T07:52:28.945Z</time></trkpt><trkpt lat="44.1159672" lon="8.1141436"><ele>173.8</ele><time>2026-04-10T07:52:29.945Z</time></trkpt><trkpt lat="44.1160442" lon="8.1140587"><ele>182.6</ele><time>2026-04-10T07:52:30.945Z</time></trkpt><trkpt lat="44.1161356" lon="8.1139937"><ele>191.39999999999998</ele><time>2026-04-10T07:52:31.945Z</time></trkpt><trkpt lat="44.1162382" lon="8.1139484"><ele>200.2</ele><time>2026-04-10T07:52:32.946Z</time></trkpt><trkpt lat="44.1163443" lon="8.1139125"><ele>209.0</ele><time>2026-04-10T07:52:33.945Z</time></trkpt><trkpt lat="44.1164549" lon="8.1138908"><ele>209.0</ele><time>2026-04-10T07:52:34.945Z</time></trkpt><trkpt lat="44.1165626" lon="8.1138545"><ele>209.0</ele><time>2026-04-10T07:52:35.946Z</time></trkpt><trkpt lat="44.1166691" lon="8.113785"><ele>209.0</ele><time>2026-04-10T07:52:36.945Z</time></trkpt><trkpt lat="44.1167771" lon="8.1137095"><ele>209.0</ele><time>2026-04-10T07:52:37.945Z</time></trkpt><trkpt lat="44.1168682" lon="8.1136195"><ele>202.00000000000003</ele><time>2026-04-10T07:52:38.945Z</time></trkpt><trkpt lat="44.11694" lon="8.1135387"><ele>195.0</ele><time>2026-04-10T07:52:39.945Z</time></trkpt><trkpt lat="44.1169978" lon="8.1134521"><ele>188.0</ele><time>2026-04-10T07:52:40.945Z</time></trkpt><trkpt lat="44.1170268" lon="8.1133496"><ele>181.0</ele><time>2026-04-10T07:52:41.945Z</time></trkpt><trkpt lat="44.1170143" lon="8.1132312"><ele>174.0</ele><time>2026-04-10T07:52:42.945Z</time></trkpt><trkpt lat="44.1170023" lon="8.1131317"><ele>167.0</ele><time>2026-04-10T07:52:43.945Z</time></trkpt><trkpt lat="44.1169852" lon="8.1130442"><ele>167.0</ele><time>2026-04-10T07:52:44.945Z</time></trkpt><trkpt lat="44.117049" lon="8.1129375"><ele>167.0</ele><time>2026-04-10T07:52:46.945Z</time></trkpt><trkpt lat="44.1171574" lon="8.112913"><ele>167.0</ele><time>2026-04-10T07:52:48.945Z</time></trkpt><trkpt lat="44.1172204" lon="8.112993"><ele>167.0</ele><time>2026-04-10T07:52:49.945Z</time></trkpt><trkpt lat="44.1172712" lon="8.113088"><ele>167.0</ele><time>2026-04-10T07:52:50.945Z</time></trkpt><trkpt lat="44.117318" lon="8.1131848"><ele>165.66666666666666</ele><time>2026-04-10T07:52:51.945Z</time></trkpt><trkpt lat="44.1173495" lon="8.1132641"><ele>164.33333333333331</ele><time>2026-04-10T07:52:52.945Z</time></trkpt><trkpt lat="44.1174206" lon="8.1133544"><ele>163.0</ele><time>2026-04-10T07:52:54.946Z</time></trkpt><trkpt lat="44.1175345" lon="8.1133852"><ele>161.66666666666666</ele><time>2026-04-10T07:52:56.945Z</time></trkpt><trkpt lat="44.1176112" lon="8.113392"><ele>160.33333333333334</ele><time>2026-04-10T07:52:57.945Z</time></trkpt><trkpt lat="44.1177031" lon="8.1134013"><ele>159.0</ele><time>2026-04-10T07:52:58.945Z</time></trkpt><trkpt lat="44.1177933" lon="8.1134133"><ele>157.0</ele><time>2026-04-10T07:52:59.945Z</time></trkpt><trkpt lat="44.1178814" lon="8.1134252"><ele>155.0</ele><time>2026-04-10T07:53:00.945Z</time></trkpt><trkpt lat="44.1179883" lon="8.113441"><ele>153.0</ele><time>2026-04-10T07:53:01.945Z</time></trkpt><trkpt lat="44.1181232" lon="8.1134634"><ele>151.0</ele><time>2026-04-10T07:53:02.945Z</time></trkpt><trkpt lat="44.1182465" lon="8.1134915"><ele>155.0</ele><time>2026-04-10T07:53:03.945Z</time></trkpt><trkpt lat="44.1183493" lon="8.1135145"><ele>159.0</ele><time>2026-04-10T07:53:04.945Z</time></trkpt><trkpt lat="44.1184396" lon="8.1135447"><ele>163.0</ele><time>2026-04-10T07:53:05.945Z</time></trkpt><trkpt lat="44.1185292" lon="8.1135818"><ele>167.0</ele><time>2026-04-10T07:53:06.945Z</time></trkpt><trkpt lat="44.1186347" lon="8.1136303"><ele>171.0</ele><time>2026-04-10T07:53:07.945Z</time></trkpt><trkpt lat="44.1187344" lon="8.1136966"><ele>171.0</ele><time>2026-04-10T07:53:08.945Z</time></trkpt><trkpt lat="44.1188314" lon="8.1137566"><ele>171.0</ele><time>2026-04-10T07:53:09.945Z</time></trkpt><trkpt lat="44.1189124" lon="8.1138096"><ele>171.0</ele><time>2026-04-10T07:53:10.945Z</time></trkpt><trkpt lat="44.1189856" lon="8.1138396"><ele>171.0</ele><time>2026-04-10T07:53:11.946Z</time></trkpt><trkpt lat="44.1190619" lon="8.1138509"><ele>171.0</ele><time>2026-04-10T07:53:12.945Z</time></trkpt><trkpt lat="44.1191432" lon="8.1138418"><ele>171.0</ele><time>2026-04-10T07:53:13.945Z</time></trkpt><trkpt lat="44.1192231" lon="8.1138203"><ele>172.0</ele><time>2026-04-10T07:53:14.945Z</time></trkpt><trkpt lat="44.1193026" lon="8.1137837"><ele>173.0</ele><time>2026-04-10T07:53:15.945Z</time></trkpt><trkpt lat="44.1193706" lon="8.1137269"><ele>174.0</ele><time>2026-04-10T07:53:16.945Z</time></trkpt><trkpt lat="44.1194175" lon="8.1136445"><ele>175.0</ele><time>2026-04-10T07:53:17.946Z</time></trkpt><trkpt lat="44.1194503" lon="8.1135417"><ele>176.0</ele><time>2026-04-10T07:53:18.945Z</time></trkpt><trkpt lat="44.1194933" lon="8.1134313"><ele>177.0</ele><time>2026-04-10T07:53:19.946Z</time></trkpt><trkpt lat="44.119506" lon="8.1132884"><ele>184.0</ele><time>2026-04-10T07:53:20.945Z</time></trkpt><trkpt lat="44.1195306" lon="8.1131493"><ele>191.0</ele><time>2026-04-10T07:53:21.945Z</time></trkpt><trkpt lat="44.1195522" lon="8.113005"><ele>198.0</ele><time>2026-04-10T07:53:22.945Z</time></trkpt><trkpt lat="44.1195884" lon="8.1128698"><ele>205.0</ele><time>2026-04-10T07:53:23.945Z</time></trkpt><trkpt lat="44.1196419" lon="8.1127362"><ele>212.0</ele><time>2026-04-10T07:53:24.946Z</time></trkpt><trkpt lat="44.1196851" lon="8.112584"><ele>212.0</ele><time>2026-04-10T07:53:25.945Z</time></trkpt><trkpt lat="44.1197421" lon="8.112439"><ele>212.0</ele><time>2026-04-10T07:53:26.945Z</time></trkpt><trkpt lat="44.1197956" lon="8.1123092"><ele>212.0</ele><time>2026-04-10T07:53:27.946Z</time></trkpt><trkpt lat="44.1198568" lon="8.1121874"><ele>212.0</ele><time>2026-04-10T07:53:28.945Z</time></trkpt><trkpt lat="44.1199176" lon="8.1120677"><ele>212.0</ele><time>2026-04-10T07:53:29.945Z</time></trkpt><trkpt lat="44.1199756" lon="8.1119521"><ele>211.8</ele><time>2026-04-10T07:53:30.945Z</time></trkpt><trkpt lat="44.1200455" lon="8.1118475"><ele>211.6</ele><time>2026-04-10T07:53:31.945Z</time></trkpt><trkpt lat="44.1201136" lon="8.1117551"><ele>211.4</ele><time>2026-04-10T07:53:32.945Z</time></trkpt><trkpt lat="44.1201821" lon="8.1116922"><ele>211.20000000000002</ele><time>2026-04-10T07:53:33.945Z</time></trkpt><trkpt lat="44.1202679" lon="8.1116613"><ele>211.0</ele><time>2026-04-10T07:53:34.945Z</time></trkpt><trkpt lat="44.1203473" lon="8.1116362"><ele>211.0</ele><time>2026-04-10T07:53:35.946Z</time></trkpt><trkpt lat="44.1204024" lon="8.1115837"><ele>211.0</ele><time>2026-04-10T07:53:36.945Z</time></trkpt><trkpt lat="44.1204559" lon="8.1115236"><ele>211.0</ele><time>2026-04-10T07:53:37.945Z</time></trkpt><trkpt lat="44.1205092" lon="8.1114432"><ele>211.0</ele><time>2026-04-10T07:53:38.945Z</time></trkpt><trkpt lat="44.1205463" lon="8.1113518"><ele>211.0</ele><time>2026-04-10T07:53:39.945Z</time></trkpt><trkpt lat="44.1205714" lon="8.1112441"><ele>211.0</ele><time>2026-04-10T07:53:40.945Z</time></trkpt><trkpt lat="44.1206023" lon="8.1111432"><ele>211.0</ele><time>2026-04-10T07:53:41.945Z</time></trkpt><trkpt lat="44.120643" lon="8.1110499"><ele>212.49999999999997</ele><time>2026-04-10T07:53:42.945Z</time></trkpt><trkpt lat="44.1206925" lon="8.1109668"><ele>214.0</ele><time>2026-04-10T07:53:43.945Z</time></trkpt><trkpt lat="44.1207765" lon="8.1108653"><ele>215.5</ele><time>2026-04-10T07:53:45.944Z</time></trkpt><trkpt lat="44.1208301" lon="8.1108128"><ele>217.0</ele><time>2026-04-10T07:53:47.944Z</time></trkpt><trkpt lat="44.1208931" lon="8.1109488"><ele>218.49999999999997</ele><time>2026-04-10T07:56:34.944Z</time></trkpt><trkpt lat="44.1209545" lon="8.1109748"><ele>220.0</ele><time>2026-04-10T07:56:36.944Z</time></trkpt><trkpt lat="44.1210782" lon="8.1109812"><ele>219.99999999999997</ele><time>2026-04-10T07:56:38.944Z</time></trkpt><trkpt lat="44.1211513" lon="8.1109414"><ele>220.0</ele><time>2026-04-10T07:56:39.944Z</time></trkpt><trkpt lat="44.1212187" lon="8.1108838"><ele>220.0</ele><time>2026-04-10T07:56:40.944Z</time></trkpt><trkpt lat="44.1212782" lon="8.1108451"><ele>220.0</ele><time>2026-04-10T07:56:41.945Z</time></trkpt><trkpt lat="44.1213902" lon="8.1108626"><ele>219.99999999999997</ele><time>2026-04-10T07:56:43.945Z</time></trkpt><trkpt lat="44.1214629" lon="8.1108573"><ele>220.0</ele><time>2026-04-10T07:56:45.944Z</time></trkpt><trkpt lat="44.1215369" lon="8.1109046"><ele>220.2</ele><time>2026-04-10T07:57:00.944Z</time></trkpt><trkpt lat="44.121612" lon="8.1109156"><ele>220.4</ele><time>2026-04-10T07:57:02.944Z</time></trkpt><trkpt lat="44.1217006" lon="8.1109033"><ele>220.60000000000002</ele><time>2026-04-10T07:57:04.944Z</time></trkpt><trkpt lat="44.121806" lon="8.1108406"><ele>220.8</ele><time>2026-04-10T07:57:06.944Z</time></trkpt><trkpt lat="44.1218976" lon="8.1107167"><ele>221.0</ele><time>2026-04-10T07:57:08.944Z</time></trkpt><trkpt lat="44.1219753" lon="8.1106213"><ele>226.66666666666669</ele><time>2026-04-10T07:57:10.944Z</time></trkpt><trkpt lat="44.1220464" lon="8.1106106"><ele>232.33333333333334</ele><time>2026-04-10T07:57:12.944Z</time></trkpt><trkpt lat="44.1221449" lon="8.110675"><ele>238.0</ele><time>2026-04-10T07:57:14.944Z</time></trkpt><trkpt lat="44.1222432" lon="8.1107064"><ele>243.66666666666669</ele><time>2026-04-10T07:57:15.944Z</time></trkpt><trkpt lat="44.1223242" lon="8.1107186"><ele>249.33333333333334</ele><time>2026-04-10T07:57:16.945Z</time></trkpt><trkpt lat="44.1223925" lon="8.1107212"><ele>255.0</ele><time>2026-04-10T07:57:17.944Z</time></trkpt><trkpt lat="44.122458" lon="8.1107093"><ele>257.1666666666667</ele><time>2026-04-10T07:57:18.944Z</time></trkpt><trkpt lat="44.1225247" lon="8.1106895"><ele>259.3333333333333</ele><time>2026-04-10T07:57:19.945Z</time></trkpt><trkpt lat="44.1225984" lon="8.1106943"><ele>261.5</ele><time>2026-04-10T07:57:20.944Z</time></trkpt><trkpt lat="44.1226739" lon="8.1107116"><ele>263.66666666666663</ele><time>2026-04-10T07:57:21.944Z</time></trkpt><trkpt lat="44.1227504" lon="8.1107394"><ele>265.8333333333333</ele><time>2026-04-10T07:57:22.944Z</time></trkpt><trkpt lat="44.122837" lon="8.1107642"><ele>268.0</ele><time>2026-04-10T07:57:23.944Z</time></trkpt><trkpt lat="44.1229205" lon="8.1107813"><ele>265.5</ele><time>2026-04-10T07:57:24.944Z</time></trkpt><trkpt lat="44.1229971" lon="8.1107947"><ele>263.0</ele><time>2026-04-10T07:57:25.944Z</time></trkpt><trkpt lat="44.1230698" lon="8.1108024"><ele>260.5</ele><time>2026-04-10T07:57:26.944Z</time></trkpt><trkpt lat="44.1231513" lon="8.1108038"><ele>258.0</ele><time>2026-04-10T07:57:27.944Z</time></trkpt><trkpt lat="44.1232389" lon="8.1108126"><ele>255.49999999999997</ele><time>2026-04-10T07:57:28.944Z</time></trkpt><trkpt lat="44.123332" lon="8.1108207"><ele>253.0</ele><time>2026-04-10T07:57:29.944Z</time></trkpt><trkpt lat="44.1233966" lon="8.110854"><ele>252.99999999999997</ele><time>2026-04-10T07:57:30.944Z</time></trkpt><trkpt lat="44.1234709" lon="8.1108989"><ele>253.0</ele><time>2026-04-10T07:57:31.944Z</time></trkpt><trkpt lat="44.1235418" lon="8.1109462"><ele>253.0</ele><time>2026-04-10T07:57:32.944Z</time></trkpt><trkpt lat="44.1236125" lon="8.1109909"><ele>253.0</ele><time>2026-04-10T07:57:33.944Z</time></trkpt><trkpt lat="44.1236916" lon="8.1110179"><ele>252.99999999999997</ele><time>2026-04-10T07:57:34.944Z</time></trkpt><trkpt lat="44.123775" lon="8.1110283"><ele>253.0</ele><time>2026-04-10T07:57:35.944Z</time></trkpt><trkpt lat="44.1238623" lon="8.1110301"><ele>252.99999999999997</ele><time>2026-04-10T07:57:36.944Z</time></trkpt><trkpt lat="44.1239528" lon="8.1110216"><ele>253.0</ele><time>2026-04-10T07:57:37.944Z</time></trkpt><trkpt lat="44.1240479" lon="8.1110068"><ele>253.0</ele><time>2026-04-10T07:57:38.944Z</time></trkpt><trkpt lat="44.1241406" lon="8.1109904"><ele>253.0</ele><time>2026-04-10T07:57:39.944Z</time></trkpt><trkpt lat="44.1242284" lon="8.1109635"><ele>252.99999999999997</ele><time>2026-04-10T07:57:40.944Z</time></trkpt><trkpt lat="44.1242988" lon="8.1109342"><ele>253.0</ele><time>2026-04-10T07:57:41.944Z</time></trkpt><trkpt lat="44.1243677" lon="8.1108949"><ele>253.33333333333331</ele><time>2026-04-10T07:57:42.944Z</time></trkpt><trkpt lat="44.1244368" lon="8.1108511"><ele>253.66666666666666</ele><time>2026-04-10T07:57:43.944Z</time></trkpt><trkpt lat="44.12451" lon="8.1108009"><ele>254.0</ele><time>2026-04-10T07:57:44.944Z</time></trkpt><trkpt lat="44.1245772" lon="8.1107378"><ele>254.33333333333331</ele><time>2026-04-10T07:57:45.944Z</time></trkpt><trkpt lat="44.1246344" lon="8.1106494"><ele>254.66666666666666</ele><time>2026-04-10T07:57:46.944Z</time></trkpt><trkpt lat="44.1246814" lon="8.1105392"><ele>255.0</ele><time>2026-04-10T07:57:47.944Z</time></trkpt><trkpt lat="44.1247231" lon="8.1104302"><ele>261.5</ele><time>2026-04-10T07:57:48.944Z</time></trkpt><trkpt lat="44.1247683" lon="8.1103334"><ele>268.0</ele><time>2026-04-10T07:57:49.945Z</time></trkpt><trkpt lat="44.124805" lon="8.1102375"><ele>274.5</ele><time>2026-04-10T07:57:50.944Z</time></trkpt><trkpt lat="44.1248235" lon="8.1101436"><ele>281.0</ele><time>2026-04-10T07:57:51.944Z</time></trkpt><trkpt lat="44.1248165" lon="8.110056"><ele>287.5</ele><time>2026-04-10T07:57:52.944Z</time></trkpt><trkpt lat="44.1247869" lon="8.1099609"><ele>294.0</ele><time>2026-04-10T07:57:53.944Z</time></trkpt><trkpt lat="44.1247382" lon="8.1098517"><ele>295.8</ele><time>2026-04-10T07:57:54.945Z</time></trkpt><trkpt lat="44.1246838" lon="8.1097397"><ele>297.59999999999997</ele><time>2026-04-10T07:57:55.944Z</time></trkpt><trkpt lat="44.1246402" lon="8.1096298"><ele>299.4</ele><time>2026-04-10T07:57:56.944Z</time></trkpt><trkpt lat="44.1245954" lon="8.1095112"><ele>301.2</ele><time>2026-04-10T07:57:57.944Z</time></trkpt><trkpt lat="44.1245535" lon="8.1093925"><ele>303.0</ele><time>2026-04-10T07:57:58.944Z</time></trkpt><trkpt lat="44.124516" lon="8.1092632"><ele>303.0</ele><time>2026-04-10T07:57:59.944Z</time></trkpt><trkpt lat="44.1244915" lon="8.1091343"><ele>303.0</ele><time>2026-04-10T07:58:00.944Z</time></trkpt><trkpt lat="44.1244777" lon="8.108993"><ele>303.0</ele><time>2026-04-10T07:58:01.944Z</time></trkpt><trkpt lat="44.1244777" lon="8.1088389"><ele>303.0</ele><time>2026-04-10T07:58:02.944Z</time></trkpt><trkpt lat="44.1244931" lon="8.1086838"><ele>303.0</ele><time>2026-04-10T07:58:03.944Z</time></trkpt><trkpt lat="44.1245198" lon="8.1085288"><ele>303.4</ele><time>2026-04-10T07:58:04.944Z</time></trkpt><trkpt lat="44.1245673" lon="8.1083765"><ele>303.8</ele><time>2026-04-10T07:58:05.944Z</time></trkpt><trkpt lat="44.124609" lon="8.1082255"><ele>304.2</ele><time>2026-04-10T07:58:06.944Z</time></trkpt><trkpt lat="44.1246407" lon="8.1080842"><ele>304.6</ele><time>2026-04-10T07:58:07.944Z</time></trkpt><trkpt lat="44.1246664" lon="8.1079542"><ele>305.0</ele><time>2026-04-10T07:58:08.944Z</time></trkpt><trkpt lat="44.1246755" lon="8.1078409"><ele>303.33333333333337</ele><time>2026-04-10T07:58:09.944Z</time></trkpt><trkpt lat="44.1246704" lon="8.107737"><ele>301.6666666666667</ele><time>2026-04-10T07:58:10.944Z</time></trkpt><trkpt lat="44.1246475" lon="8.1076391"><ele>300.0</ele><time>2026-04-10T07:58:11.944Z</time></trkpt><trkpt lat="44.124591" lon="8.107544"><ele>298.3333333333333</ele><time>2026-04-10T07:58:12.944Z</time></trkpt><trkpt lat="44.1245231" lon="8.1074526"><ele>296.66666666666663</ele><time>2026-04-10T07:58:13.944Z</time></trkpt><trkpt lat="44.1244517" lon="8.1073669"><ele>295.0</ele><time>2026-04-10T07:58:14.945Z</time></trkpt><trkpt lat="44.1243753" lon="8.1072918"><ele>293.16666666666663</ele><time>2026-04-10T07:58:15.944Z</time></trkpt><trkpt lat="44.1242928" lon="8.1072234"><ele>291.3333333333333</ele><time>2026-04-10T07:58:16.944Z</time></trkpt><trkpt lat="44.124225" lon="8.107147"><ele>289.5</ele><time>2026-04-10T07:58:17.945Z</time></trkpt><trkpt lat="44.1241735" lon="8.1070565"><ele>287.6666666666667</ele><time>2026-04-10T07:58:18.944Z</time></trkpt><trkpt lat="44.1241258" lon="8.1069693"><ele>285.83333333333337</ele><time>2026-04-10T07:58:19.944Z</time></trkpt><trkpt lat="44.1240973" lon="8.1068729"><ele>284.0</ele><time>2026-04-10T07:58:20.944Z</time></trkpt><trkpt lat="44.124115" lon="8.1067827"><ele>284.0</ele><time>2026-04-10T07:58:21.945Z</time></trkpt><trkpt lat="44.1241364" lon="8.1066931"><ele>284.0</ele><time>2026-04-10T07:58:22.944Z</time></trkpt><trkpt lat="44.1241613" lon="8.1065911"><ele>284.0</ele><time>2026-04-10T07:58:23.944Z</time></trkpt><trkpt lat="44.12418" lon="8.1064669"><ele>284.0</ele><time>2026-04-10T07:58:24.944Z</time></trkpt><trkpt lat="44.1241949" lon="8.1063119"><ele>284.0</ele><time>2026-04-10T07:58:25.944Z</time></trkpt><trkpt lat="44.1242077" lon="8.1061394"><ele>285.0</ele><time>2026-04-10T07:58:26.944Z</time></trkpt><trkpt lat="44.1242032" lon="8.1059643"><ele>286.0</ele><time>2026-04-10T07:58:27.944Z</time></trkpt><trkpt lat="44.1242061" lon="8.1057956"><ele>287.0</ele><time>2026-04-10T07:58:28.945Z</time></trkpt><trkpt lat="44.1242143" lon="8.1056285"><ele>288.0</ele><time>2026-04-10T07:58:29.944Z</time></trkpt><trkpt lat="44.1242165" lon="8.1054571"><ele>288.6</ele><time>2026-04-10T07:58:30.944Z</time></trkpt><trkpt lat="44.1242246" lon="8.1052924"><ele>289.20000000000005</ele><time>2026-04-10T07:58:31.944Z</time></trkpt><trkpt lat="44.1242279" lon="8.1051276"><ele>289.8</ele><time>2026-04-10T07:58:32.944Z</time></trkpt><trkpt lat="44.1242527" lon="8.1049902"><ele>290.40000000000003</ele><time>2026-04-10T07:58:33.945Z</time></trkpt><trkpt lat="44.124272" lon="8.1048661"><ele>291.0</ele><time>2026-04-10T07:58:34.944Z</time></trkpt><trkpt lat="44.1242863" lon="8.1047478"><ele>291.0</ele><time>2026-04-10T07:58:35.944Z</time></trkpt><trkpt lat="44.1242999" lon="8.1046337"><ele>291.0</ele><time>2026-04-10T07:58:36.944Z</time></trkpt><trkpt lat="44.1243041" lon="8.1045136"><ele>291.0</ele><time>2026-04-10T07:58:37.944Z</time></trkpt><trkpt lat="44.1243026" lon="8.1043882"><ele>291.0</ele><time>2026-04-10T07:58:38.944Z</time></trkpt><trkpt lat="44.1242966" lon="8.1042483"><ele>291.0</ele><time>2026-04-10T07:58:39.944Z</time></trkpt><trkpt lat="44.124287" lon="8.1040898"><ele>292.2</ele><time>2026-04-10T07:58:40.944Z</time></trkpt><trkpt lat="44.1242763" lon="8.1039311"><ele>293.40000000000003</ele><time>2026-04-10T07:58:41.944Z</time></trkpt><trkpt lat="44.1242511" lon="8.1037864"><ele>294.6</ele><time>2026-04-10T07:58:42.944Z</time></trkpt><trkpt lat="44.124221" lon="8.1036642"><ele>295.8</ele><time>2026-04-10T07:58:43.944Z</time></trkpt><trkpt lat="44.124168" lon="8.1035472"><ele>297.0</ele><time>2026-04-10T07:58:44.945Z</time></trkpt><trkpt lat="44.1241088" lon="8.10345"><ele>297.0</ele><time>2026-04-10T07:58:45.944Z</time></trkpt><trkpt lat="44.1240579" lon="8.1033744"><ele>297.0</ele><time>2026-04-10T07:58:46.944Z</time></trkpt><trkpt lat="44.1241436" lon="8.1033508"><ele>297.0</ele><time>2026-04-10T07:58:52.944Z</time></trkpt><trkpt lat="44.1242231" lon="8.1032788"><ele>297.0</ele><time>2026-04-10T07:58:54.944Z</time></trkpt><trkpt lat="44.1243012" lon="8.1031586"><ele>297.0</ele><time>2026-04-10T07:58:56.944Z</time></trkpt><trkpt lat="44.124337" lon="8.1030769"><ele>297.0</ele><time>2026-04-10T07:58:57.945Z</time></trkpt><trkpt lat="44.1243738" lon="8.1029884"><ele>300.4</ele><time>2026-04-10T07:58:58.944Z</time></trkpt><trkpt lat="44.1244091" lon="8.102886"><ele>303.79999999999995</ele><time>2026-04-10T07:58:59.944Z</time></trkpt><trkpt lat="44.1244413" lon="8.1027984"><ele>307.2</ele><time>2026-04-10T07:59:00.945Z</time></trkpt><trkpt lat="44.1244992" lon="8.1026631"><ele>310.59999999999997</ele><time>2026-04-10T07:59:02.944Z</time></trkpt><trkpt lat="44.1245489" lon="8.1025397"><ele>314.0</ele><time>2026-04-10T07:59:04.945Z</time></trkpt><trkpt lat="44.1246445" lon="8.1024572"><ele>319.0</ele><time>2026-04-10T07:59:06.945Z</time></trkpt><trkpt lat="44.1247426" lon="8.1023881"><ele>324.0</ele><time>2026-04-10T07:59:08.944Z</time></trkpt><trkpt lat="44.1248288" lon="8.1023452"><ele>329.0</ele><time>2026-04-10T07:59:10.944Z</time></trkpt><trkpt lat="44.1249132" lon="8.1022999"><ele>334.0</ele><time>2026-04-10T07:59:16.944Z</time></trkpt><trkpt lat="44.1250031" lon="8.1023176"><ele>339.0</ele><time>2026-04-10T07:59:18.944Z</time></trkpt><trkpt lat="44.1249769" lon="8.1021699"><ele>339.0</ele><time>2026-04-10T07:59:22.945Z</time></trkpt><trkpt lat="44.1249291" lon="8.1021086"><ele>339.0</ele><time>2026-04-10T07:59:23.944Z</time></trkpt><trkpt lat="44.1248331" lon="8.102049"><ele>339.0</ele><time>2026-04-10T07:59:25.944Z</time></trkpt><trkpt lat="44.1247245" lon="8.1020201"><ele>339.0</ele><time>2026-04-10T07:59:27.944Z</time></trkpt><trkpt lat="44.1246219" lon="8.1019788"><ele>339.0</ele><time>2026-04-10T07:59:29.944Z</time></trkpt><trkpt lat="44.1245678" lon="8.1019213"><ele>339.0</ele><time>2026-04-10T07:59:31.945Z</time></trkpt><trkpt lat="44.1246086" lon="8.101853"><ele>339.0</ele><time>2026-04-10T07:59:33.944Z</time></trkpt><trkpt lat="44.124695" lon="8.1018131"><ele>339.0</ele><time>2026-04-10T07:59:35.945Z</time></trkpt><trkpt lat="44.1247995" lon="8.1017677"><ele>339.0</ele><time>2026-04-10T07:59:37.944Z</time></trkpt><trkpt lat="44.124877" lon="8.1016773"><ele>339.0</ele><time>2026-04-10T07:59:39.944Z</time></trkpt><trkpt lat="44.1249546" lon="8.1015845"><ele>345.3333333333333</ele><time>2026-04-10T07:59:41.945Z</time></trkpt><trkpt lat="44.1250377" lon="8.101482"><ele>351.6666666666667</ele><time>2026-04-10T07:59:43.944Z</time></trkpt><trkpt lat="44.1250918" lon="8.1014107"><ele>358.0</ele><time>2026-04-10T07:59:44.944Z</time></trkpt><trkpt lat="44.1251435" lon="8.1013439"><ele>364.33333333333337</ele><time>2026-04-10T07:59:45.944Z</time></trkpt><trkpt lat="44.1252004" lon="8.1012889"><ele>370.6666666666667</ele><time>2026-04-10T07:59:46.944Z</time></trkpt><trkpt lat="44.1253089" lon="8.1012054"><ele>377.0</ele><time>2026-04-10T07:59:48.944Z</time></trkpt><trkpt lat="44.1253652" lon="8.1011631"><ele>377.0</ele><time>2026-04-10T07:59:49.944Z</time></trkpt><trkpt lat="44.1254226" lon="8.1011143"><ele>377.0</ele><time>2026-04-10T07:59:50.944Z</time></trkpt><trkpt lat="44.1254864" lon="8.1010662"><ele>377.0</ele><time>2026-04-10T07:59:51.944Z</time></trkpt><trkpt lat="44.1255432" lon="8.1010205"><ele>377.0</ele><time>2026-04-10T07:59:52.944Z</time></trkpt><trkpt lat="44.1256607" lon="8.1009393"><ele>377.0</ele><time>2026-04-10T07:59:54.944Z</time></trkpt><trkpt lat="44.1257309" lon="8.1008928"><ele>377.0</ele><time>2026-04-10T07:59:55.944Z</time></trkpt><trkpt lat="44.125796" lon="8.1008587"><ele>376.40000000000003</ele><time>2026-04-10T07:59:56.944Z</time></trkpt><trkpt lat="44.1258793" lon="8.1008532"><ele>375.8</ele><time>2026-04-10T07:59:58.944Z</time></trkpt><trkpt lat="44.1259172" lon="8.1009449"><ele>375.2</ele><time>2026-04-10T08:00:00.944Z</time></trkpt><trkpt lat="44.1259167" lon="8.1010345"><ele>374.6</ele><time>2026-04-10T08:00:01.944Z</time></trkpt><trkpt lat="44.1259183" lon="8.1011971"><ele>374.0</ele><time>2026-04-10T08:00:02.945Z</time></trkpt><trkpt lat="44.1259169" lon="8.1013653"><ele>374.0</ele><time>2026-04-10T08:00:03.945Z</time></trkpt><trkpt lat="44.1259305" lon="8.1015342"><ele>374.0</ele><time>2026-04-10T08:00:04.944Z</time></trkpt><trkpt lat="44.1259533" lon="8.1016772"><ele>374.0</ele><time>2026-04-10T08:00:05.944Z</time></trkpt><trkpt lat="44.125974" lon="8.1017893"><ele>374.0</ele><time>2026-04-10T08:00:06.943Z</time></trkpt><trkpt lat="44.1259804" lon="8.1018784"><ele>374.0</ele><time>2026-04-10T08:00:07.943Z</time></trkpt><trkpt lat="44.1259714" lon="8.101978"><ele>374.0</ele><time>2026-04-10T08:00:08.943Z</time></trkpt><trkpt lat="44.1259477" lon="8.1020884"><ele>371.0</ele><time>2026-04-10T08:00:09.943Z</time></trkpt><trkpt lat="44.125919" lon="8.1022068"><ele>368.0</ele><time>2026-04-10T08:00:10.943Z</time></trkpt><trkpt lat="44.1258839" lon="8.1023262"><ele>365.0</ele><time>2026-04-10T08:00:11.943Z</time></trkpt><trkpt lat="44.1258505" lon="8.1024416"><ele>362.0</ele><time>2026-04-10T08:00:12.943Z</time></trkpt><trkpt lat="44.1258236" lon="8.102551"><ele>359.0</ele><time>2026-04-10T08:00:13.943Z</time></trkpt><trkpt lat="44.1258086" lon="8.1026611"><ele>356.0</ele><time>2026-04-10T08:00:14.943Z</time></trkpt><trkpt lat="44.1258132" lon="8.1027612"><ele>355.83333333333337</ele><time>2026-04-10T08:00:15.944Z</time></trkpt><trkpt lat="44.1258293" lon="8.10285"><ele>355.6666666666667</ele><time>2026-04-10T08:00:16.943Z</time></trkpt><trkpt lat="44.1258939" lon="8.1029633"><ele>355.5</ele><time>2026-04-10T08:00:18.943Z</time></trkpt><trkpt lat="44.1259546" lon="8.1028445"><ele>355.3333333333333</ele><time>2026-04-10T08:00:21.943Z</time></trkpt><trkpt lat="44.1259668" lon="8.1027562"><ele>355.16666666666663</ele><time>2026-04-10T08:00:22.943Z</time></trkpt><trkpt lat="44.1259771" lon="8.1026596"><ele>355.0</ele><time>2026-04-10T08:00:23.943Z</time></trkpt><trkpt lat="44.1260052" lon="8.1025593"><ele>355.0</ele><time>2026-04-10T08:00:24.943Z</time></trkpt><trkpt lat="44.1260495" lon="8.1024459"><ele>355.0</ele><time>2026-04-10T08:00:25.943Z</time></trkpt><trkpt lat="44.1261054" lon="8.1023309"><ele>355.0</ele><time>2026-04-10T08:00:26.943Z</time></trkpt><trkpt lat="44.1261805" lon="8.1021937"><ele>355.0</ele><time>2026-04-10T08:00:27.943Z</time></trkpt><trkpt lat="44.1262585" lon="8.1020647"><ele>355.0</ele><time>2026-04-10T08:00:28.943Z</time></trkpt><trkpt lat="44.1263208" lon="8.1019513"><ele>355.16666666666663</ele><time>2026-04-10T08:00:29.943Z</time></trkpt><trkpt lat="44.1263733" lon="8.1018448"><ele>355.3333333333333</ele><time>2026-04-10T08:00:30.943Z</time></trkpt><trkpt lat="44.1264046" lon="8.1017635"><ele>355.5</ele><time>2026-04-10T08:00:31.943Z</time></trkpt><trkpt lat="44.1264046" lon="8.1016753"><ele>355.6666666666667</ele><time>2026-04-10T08:00:32.943Z</time></trkpt><trkpt lat="44.1263783" lon="8.1015586"><ele>355.83333333333337</ele><time>2026-04-10T08:00:33.943Z</time></trkpt><trkpt lat="44.1263431" lon="8.1014543"><ele>356.0</ele><time>2026-04-10T08:00:34.943Z</time></trkpt><trkpt lat="44.1263358" lon="8.101343"><ele>356.0</ele><time>2026-04-10T08:00:36.943Z</time></trkpt><trkpt lat="44.1264254" lon="8.1014429"><ele>356.0</ele><time>2026-04-10T08:00:39.943Z</time></trkpt><trkpt lat="44.126459" lon="8.1015316"><ele>356.0</ele><time>2026-04-10T08:00:40.943Z</time></trkpt><trkpt lat="44.1264897" lon="8.1016379"><ele>356.0</ele><time>2026-04-10T08:00:41.943Z</time></trkpt><trkpt lat="44.1265314" lon="8.1017516"><ele>356.0</ele><time>2026-04-10T08:00:42.944Z</time></trkpt><trkpt lat="44.1265766" lon="8.1018778"><ele>355.83333333333337</ele><time>2026-04-10T08:00:43.943Z</time></trkpt><trkpt lat="44.126614" lon="8.1019991"><ele>355.6666666666667</ele><time>2026-04-10T08:00:44.943Z</time></trkpt><trkpt lat="44.1266321" lon="8.1021155"><ele>355.5</ele><time>2026-04-10T08:00:45.943Z</time></trkpt><trkpt lat="44.1266259" lon="8.1022121"><ele>355.3333333333333</ele><time>2026-04-10T08:00:46.943Z</time></trkpt><trkpt lat="44.1265898" lon="8.1023118"><ele>355.16666666666663</ele><time>2026-04-10T08:00:47.943Z</time></trkpt><trkpt lat="44.1265415" lon="8.1024169"><ele>355.0</ele><time>2026-04-10T08:00:48.943Z</time></trkpt><trkpt lat="44.1265098" lon="8.1025233"><ele>355.0</ele><time>2026-04-10T08:00:49.943Z</time></trkpt><trkpt lat="44.1264902" lon="8.1026177"><ele>355.0</ele><time>2026-04-10T08:00:50.943Z</time></trkpt><trkpt lat="44.1264792" lon="8.1027583"><ele>355.0</ele><time>2026-04-10T08:00:52.944Z</time></trkpt><trkpt lat="44.1264972" lon="8.1028451"><ele>355.0</ele><time>2026-04-10T08:00:56.943Z</time></trkpt><trkpt lat="44.1265526" lon="8.1029011"><ele>355.0</ele><time>2026-04-10T08:01:25.943Z</time></trkpt><trkpt lat="44.1266222" lon="8.1030038"><ele>355.0</ele><time>2026-04-10T08:01:27.943Z</time></trkpt><trkpt lat="44.1267016" lon="8.1030827"><ele>360.0</ele><time>2026-04-10T08:01:28.943Z</time></trkpt><trkpt lat="44.1267911" lon="8.1031685"><ele>365.0</ele><time>2026-04-10T08:01:29.943Z</time></trkpt><trkpt lat="44.1268771" lon="8.103261"><ele>370.0</ele><time>2026-04-10T08:01:30.943Z</time></trkpt><trkpt lat="44.1269557" lon="8.1033614"><ele>375.0</ele><time>2026-04-10T08:01:31.943Z</time></trkpt><trkpt lat="44.1270272" lon="8.1034957"><ele>380.0</ele><time>2026-04-10T08:01:32.944Z</time></trkpt><trkpt lat="44.1271077" lon="8.1036433"><ele>380.0</ele><time>2026-04-10T08:01:33.943Z</time></trkpt><trkpt lat="44.1271965" lon="8.1037777"><ele>380.0</ele><time>2026-04-10T08:01:34.943Z</time></trkpt><trkpt lat="44.1272756" lon="8.1038843"><ele>380.0</ele><time>2026-04-10T08:01:35.943Z</time></trkpt><trkpt lat="44.1273579" lon="8.1039699"><ele>380.0</ele><time>2026-04-10T08:01:36.943Z</time></trkpt><trkpt lat="44.1274484" lon="8.1040374"><ele>380.0</ele><time>2026-04-10T08:01:37.943Z</time></trkpt><trkpt lat="44.1275583" lon="8.104104"><ele>382.0</ele><time>2026-04-10T08:01:38.943Z</time></trkpt><trkpt lat="44.1276676" lon="8.104163"><ele>384.0</ele><time>2026-04-10T08:01:39.943Z</time></trkpt><trkpt lat="44.1277669" lon="8.104217"><ele>386.0</ele><time>2026-04-10T08:01:40.943Z</time></trkpt><trkpt lat="44.1278473" lon="8.1042819"><ele>388.0</ele><time>2026-04-10T08:01:41.943Z</time></trkpt><trkpt lat="44.127909" lon="8.1043717"><ele>390.0</ele><time>2026-04-10T08:01:42.943Z</time></trkpt><trkpt lat="44.127929" lon="8.1044754"><ele>390.0</ele><time>2026-04-10T08:01:43.944Z</time></trkpt><trkpt lat="44.1279523" lon="8.104577"><ele>390.0</ele><time>2026-04-10T08:01:44.943Z</time></trkpt><trkpt lat="44.1280164" lon="8.1046915"><ele>390.0</ele><time>2026-04-10T08:01:46.943Z</time></trkpt><trkpt lat="44.1281104" lon="8.1046688"><ele>390.0</ele><time>2026-04-10T08:01:48.943Z</time></trkpt><trkpt lat="44.1281701" lon="8.1046197"><ele>390.0</ele><time>2026-04-10T08:01:49.943Z</time></trkpt><trkpt lat="44.1282491" lon="8.104571"><ele>390.0</ele><time>2026-04-10T08:01:50.943Z</time></trkpt><trkpt lat="44.1283387" lon="8.1045448"><ele>391.8</ele><time>2026-04-10T08:01:51.943Z</time></trkpt><trkpt lat="44.1284502" lon="8.1045335"><ele>393.6</ele><time>2026-04-10T08:01:52.943Z</time></trkpt><trkpt lat="44.1285596" lon="8.1045229"><ele>395.4</ele><time>2026-04-10T08:01:53.943Z</time></trkpt><trkpt lat="44.1286611" lon="8.1045045"><ele>397.2</ele><time>2026-04-10T08:01:54.943Z</time></trkpt><trkpt lat="44.1287487" lon="8.1044904"><ele>399.0</ele><time>2026-04-10T08:01:55.944Z</time></trkpt><trkpt lat="44.128826" lon="8.1044951"><ele>399.0</ele><time>2026-04-10T08:01:56.944Z</time></trkpt><trkpt lat="44.1288903" lon="8.1045229"><ele>399.0</ele><time>2026-04-10T08:01:57.943Z</time></trkpt><trkpt lat="44.1289563" lon="8.1045545"><ele>399.0</ele><time>2026-04-10T08:01:58.944Z</time></trkpt><trkpt lat="44.1290245" lon="8.1045766"><ele>399.0</ele><time>2026-04-10T08:01:59.943Z</time></trkpt><trkpt lat="44.129104" lon="8.1045818"><ele>399.0</ele><time>2026-04-10T08:02:00.943Z</time></trkpt><trkpt lat="44.1291972" lon="8.1045797"><ele>399.0</ele><time>2026-04-10T08:02:01.944Z</time></trkpt><trkpt lat="44.1292993" lon="8.1045484"><ele>399.0</ele><time>2026-04-10T08:02:02.943Z</time></trkpt><trkpt lat="44.1293932" lon="8.1045138"><ele>399.0</ele><time>2026-04-10T08:02:03.944Z</time></trkpt><trkpt lat="44.1294781" lon="8.1044799"><ele>399.0</ele><time>2026-04-10T08:02:04.943Z</time></trkpt><trkpt lat="44.1295554" lon="8.1044406"><ele>399.0</ele><time>2026-04-10T08:02:05.943Z</time></trkpt><trkpt lat="44.129621" lon="8.1043981"><ele>399.0</ele><time>2026-04-10T08:02:06.943Z</time></trkpt><trkpt lat="44.1296841" lon="8.1043217"><ele>399.0</ele><time>2026-04-10T08:02:07.943Z</time></trkpt><trkpt lat="44.1297564" lon="8.1042426"><ele>399.0</ele><time>2026-04-10T08:02:08.944Z</time></trkpt><trkpt lat="44.1298379" lon="8.1041856"><ele>399.0</ele><time>2026-04-10T08:02:09.943Z</time></trkpt><trkpt lat="44.1299154" lon="8.1041411"><ele>399.0</ele><time>2026-04-10T08:02:10.943Z</time></trkpt><trkpt lat="44.1300008" lon="8.1041118"><ele>399.0</ele><time>2026-04-10T08:02:11.943Z</time></trkpt><trkpt lat="44.1300941" lon="8.1040925"><ele>399.0</ele><time>2026-04-10T08:02:12.944Z</time></trkpt><trkpt lat="44.1301907" lon="8.1040738"><ele>399.3333333333333</ele><time>2026-04-10T08:02:13.943Z</time></trkpt><trkpt lat="44.130284" lon="8.1040533"><ele>399.66666666666663</ele><time>2026-04-10T08:02:14.943Z</time></trkpt><trkpt lat="44.130376" lon="8.1040322"><ele>400.0</ele><time>2026-04-10T08:02:15.943Z</time></trkpt><trkpt lat="44.1304826" lon="8.1039839"><ele>400.3333333333333</ele><time>2026-04-10T08:02:17.943Z</time></trkpt><trkpt lat="44.130548" lon="8.1039425"><ele>400.66666666666663</ele><time>2026-04-10T08:02:18.943Z</time></trkpt><trkpt lat="44.1306056" lon="8.1038911"><ele>401.0</ele><time>2026-04-10T08:02:19.944Z</time></trkpt><trkpt lat="44.1306638" lon="8.1038056"><ele>396.6</ele><time>2026-04-10T08:02:20.943Z</time></trkpt><trkpt lat="44.1307279" lon="8.1037058"><ele>392.20000000000005</ele><time>2026-04-10T08:02:21.943Z</time></trkpt><trkpt lat="44.1308014" lon="8.1036059"><ele>387.79999999999995</ele><time>2026-04-10T08:02:22.943Z</time></trkpt><trkpt lat="44.1308812" lon="8.1035078"><ele>383.4</ele><time>2026-04-10T08:02:23.943Z</time></trkpt><trkpt lat="44.1309479" lon="8.103418"><ele>379.0</ele><time>2026-04-10T08:02:24.944Z</time></trkpt><trkpt lat="44.1309981" lon="8.103337"><ele>382.66666666666663</ele><time>2026-04-10T08:02:25.943Z</time></trkpt><trkpt lat="44.1310394" lon="8.103244"><ele>386.3333333333333</ele><time>2026-04-10T08:02:26.943Z</time></trkpt><trkpt lat="44.1310819" lon="8.1031478"><ele>390.0</ele><time>2026-04-10T08:02:27.943Z</time></trkpt><trkpt lat="44.1311326" lon="8.1030703"><ele>393.66666666666663</ele><time>2026-04-10T08:02:28.943Z</time></trkpt><trkpt lat="44.1311924" lon="8.103006"><ele>397.3333333333333</ele><time>2026-04-10T08:02:29.943Z</time></trkpt><trkpt lat="44.1312726" lon="8.1029487"><ele>401.0</ele><time>2026-04-10T08:02:30.943Z</time></trkpt><trkpt lat="44.1313722" lon="8.1028886"><ele>401.0</ele><time>2026-04-10T08:02:31.943Z</time></trkpt><trkpt lat="44.13147" lon="8.102816"><ele>401.0</ele><time>2026-04-10T08:02:32.943Z</time></trkpt><trkpt lat="44.1315616" lon="8.1027369"><ele>401.0</ele><time>2026-04-10T08:02:33.943Z</time></trkpt><trkpt lat="44.1316435" lon="8.1026567"><ele>401.0</ele><time>2026-04-10T08:02:34.943Z</time></trkpt><trkpt lat="44.1317072" lon="8.1025846"><ele>401.0</ele><time>2026-04-10T08:02:35.943Z</time></trkpt><trkpt lat="44.1317764" lon="8.1025272"><ele>401.16666666666663</ele><time>2026-04-10T08:02:36.943Z</time></trkpt><trkpt lat="44.1318463" lon="8.1024686"><ele>401.3333333333333</ele><time>2026-04-10T08:02:37.943Z</time></trkpt><trkpt lat="44.1319145" lon="8.1023888"><ele>401.5</ele><time>2026-04-10T08:02:38.943Z</time></trkpt><trkpt lat="44.1319804" lon="8.1022877"><ele>401.66666666666663</ele><time>2026-04-10T08:02:39.943Z</time></trkpt><trkpt lat="44.132032" lon="8.1021962"><ele>401.8333333333333</ele><time>2026-04-10T08:02:40.943Z</time></trkpt><trkpt lat="44.1320744" lon="8.1020914"><ele>402.0</ele><time>2026-04-10T08:02:41.943Z</time></trkpt><trkpt lat="44.1321057" lon="8.1019771"><ele>402.0</ele><time>2026-04-10T08:02:42.943Z</time></trkpt><trkpt lat="44.132141" lon="8.1018609"><ele>402.0</ele><time>2026-04-10T08:02:43.943Z</time></trkpt><trkpt lat="44.1321783" lon="8.1017543"><ele>402.0</ele><time>2026-04-10T08:02:44.943Z</time></trkpt><trkpt lat="44.1322218" lon="8.1016553"><ele>402.0</ele><time>2026-04-10T08:02:45.943Z</time></trkpt><trkpt lat="44.1322771" lon="8.1015744"><ele>402.0</ele><time>2026-04-10T08:02:46.943Z</time></trkpt><trkpt lat="44.1323337" lon="8.1015072"><ele>402.0</ele><time>2026-04-10T08:02:47.943Z</time></trkpt><trkpt lat="44.132399" lon="8.1014481"><ele>398.1666666666667</ele><time>2026-04-10T08:02:48.943Z</time></trkpt><trkpt lat="44.1324699" lon="8.1013898"><ele>394.3333333333333</ele><time>2026-04-10T08:02:49.944Z</time></trkpt><trkpt lat="44.1325382" lon="8.1013176"><ele>390.5</ele><time>2026-04-10T08:02:50.943Z</time></trkpt><trkpt lat="44.132599" lon="8.101229"><ele>386.66666666666663</ele><time>2026-04-10T08:02:51.943Z</time></trkpt><trkpt lat="44.1326545" lon="8.1011404"><ele>382.8333333333333</ele><time>2026-04-10T08:02:52.943Z</time></trkpt><trkpt lat="44.1326985" lon="8.1010539"><ele>379.0</ele><time>2026-04-10T08:02:53.943Z</time></trkpt><trkpt lat="44.1327302" lon="8.1009757"><ele>379.00000000000006</ele><time>2026-04-10T08:02:54.943Z</time></trkpt><trkpt lat="44.1327658" lon="8.1008976"><ele>379.0</ele><time>2026-04-10T08:02:57.943Z</time></trkpt><trkpt lat="44.132705" lon="8.1009263"><ele>379.0</ele><time>2026-04-10T08:03:32.943Z</time></trkpt><trkpt lat="44.132663" lon="8.101003"><ele>379.0</ele><time>2026-04-10T08:03:35.943Z</time></trkpt><trkpt lat="44.1326124" lon="8.1010851"><ele>379.0</ele><time>2026-04-10T08:03:38.943Z</time></trkpt><trkpt lat="44.1325445" lon="8.1011229"><ele>379.00000000000006</ele><time>2026-04-10T08:03:41.943Z</time></trkpt><trkpt lat="44.1324758" lon="8.1011636"><ele>379.0</ele><time>2026-04-10T08:03:44.943Z</time></trkpt><trkpt lat="44.1324093" lon="8.1012198"><ele>385.8333333333333</ele><time>2026-04-10T08:03:46.943Z</time></trkpt><trkpt lat="44.1323263" lon="8.1012868"><ele>392.66666666666663</ele><time>2026-04-10T08:03:48.943Z</time></trkpt><trkpt lat="44.132262" lon="8.1012831"><ele>399.5</ele><time>2026-04-10T08:03:59.943Z</time></trkpt><trkpt lat="44.1322425" lon="8.1011694"><ele>406.3333333333333</ele><time>2026-04-10T08:04:02.943Z</time></trkpt><trkpt lat="44.1322641" lon="8.1010729"><ele>413.1666666666667</ele><time>2026-04-10T08:04:05.943Z</time></trkpt><trkpt lat="44.1322583" lon="8.1009799"><ele>420.0</ele><time>2026-04-10T08:04:08.943Z</time></trkpt><trkpt lat="44.1322366" lon="8.1008846"><ele>420.0</ele><time>2026-04-10T08:04:12.943Z</time></trkpt><trkpt lat="44.1322799" lon="8.1008122"><ele>420.0</ele><time>2026-04-10T08:04:15.943Z</time></trkpt><trkpt lat="44.1323113" lon="8.1007161"><ele>420.0</ele><time>2026-04-10T08:04:18.943Z</time></trkpt><trkpt lat="44.1322867" lon="8.1006161"><ele>420.0</ele><time>2026-04-10T08:04:22.943Z</time></trkpt><trkpt lat="44.1322308" lon="8.1005721"><ele>420.0</ele><time>2026-04-10T08:04:26.943Z</time></trkpt><trkpt lat="44.132196" lon="8.1004297"><ele>420.0</ele><time>2026-04-10T08:04:47.943Z</time></trkpt><trkpt lat="44.1321795" lon="8.1003057"><ele>423.57142857142856</ele><time>2026-04-10T08:05:21.943Z</time></trkpt><trkpt lat="44.1321076" lon="8.1002519"><ele>427.1428571428571</ele><time>2026-04-10T08:06:01.943Z</time></trkpt><trkpt lat="44.1320441" lon="8.1003122"><ele>430.7142857142857</ele><time>2026-04-10T08:06:04.943Z</time></trkpt><trkpt lat="44.1319783" lon="8.1003501"><ele>434.2857142857143</ele><time>2026-04-10T08:06:08.943Z</time></trkpt><trkpt lat="44.1319124" lon="8.1004068"><ele>437.85714285714283</ele><time>2026-04-10T08:06:26.943Z</time></trkpt><trkpt lat="44.13185" lon="8.100444"><ele>441.42857142857144</ele><time>2026-04-10T08:06:28.944Z</time></trkpt><trkpt lat="44.1318306" lon="8.1003599"><ele>445.0</ele><time>2026-04-10T08:06:35.943Z</time></trkpt><trkpt lat="44.1318599" lon="8.1002572"><ele>445.0</ele><time>2026-04-10T08:06:39.943Z</time></trkpt><trkpt lat="44.131862" lon="8.1001656"><ele>445.0</ele><time>2026-04-10T08:06:42.943Z</time></trkpt><trkpt lat="44.131819" lon="8.1000793"><ele>445.0</ele><time>2026-04-10T08:06:50.942Z</time></trkpt><trkpt lat="44.1317773" lon="8.1000027"><ele>445.0</ele><time>2026-04-10T08:06:57.942Z</time></trkpt><trkpt lat="44.1317057" lon="8.1000253"><ele>445.0</ele><time>2026-04-10T08:07:10.942Z</time></trkpt><trkpt lat="44.1316494" lon="8.1000869"><ele>445.0</ele><time>2026-04-10T08:07:13.942Z</time></trkpt><trkpt lat="44.1316076" lon="8.1001681"><ele>445.0</ele><time>2026-04-10T08:07:16.942Z</time></trkpt><trkpt lat="44.131538" lon="8.1001849"><ele>450.50000000000006</ele><time>2026-04-10T08:07:20.942Z</time></trkpt><trkpt lat="44.1314762" lon="8.1002205"><ele>456.0</ele><time>2026-04-10T08:07:23.942Z</time></trkpt><trkpt lat="44.1314553" lon="8.1000973"><ele>461.5</ele><time>2026-04-10T08:07:30.942Z</time></trkpt><trkpt lat="44.1314305" lon="8.0999947"><ele>467.0</ele><time>2026-04-10T08:07:33.942Z</time></trkpt><trkpt lat="44.1313655" lon="8.0998971"><ele>472.50000000000006</ele><time>2026-04-10T08:07:55.943Z</time></trkpt><trkpt lat="44.1313009" lon="8.0998404"><ele>478.0</ele><time>2026-04-10T08:07:58.942Z</time></trkpt><trkpt lat="44.131292" lon="8.0999362"><ele>478.00000000000006</ele><time>2026-04-10T08:08:02.943Z</time></trkpt><trkpt lat="44.131253" lon="8.1000173"><ele>478.0</ele><time>2026-04-10T08:08:05.942Z</time></trkpt><trkpt lat="44.1311857" lon="8.0999967"><ele>478.0</ele><time>2026-04-10T08:08:10.942Z</time></trkpt><trkpt lat="44.1311382" lon="8.0999159"><ele>478.0</ele><time>2026-04-10T08:08:44.942Z</time></trkpt><trkpt lat="44.131087" lon="8.0998308"><ele>478.00000000000006</ele><time>2026-04-10T08:08:47.942Z</time></trkpt><trkpt lat="44.1310491" lon="8.0997489"><ele>478.0</ele><time>2026-04-10T08:08:51.942Z</time></trkpt><trkpt lat="44.130971" lon="8.0996836"><ele>479.33333333333337</ele><time>2026-04-10T08:09:04.942Z</time></trkpt><trkpt lat="44.1309263" lon="8.099608"><ele>480.6666666666667</ele><time>2026-04-10T08:09:07.942Z</time></trkpt><trkpt lat="44.1308928" lon="8.0995008"><ele>482.0</ele><time>2026-04-10T08:09:10.942Z</time></trkpt><trkpt lat="44.1308576" lon="8.0994201"><ele>483.33333333333337</ele><time>2026-04-10T08:09:13.942Z</time></trkpt><trkpt lat="44.1308387" lon="8.0995614"><ele>484.6666666666667</ele><time>2026-04-10T08:09:19.942Z</time></trkpt><trkpt lat="44.1308044" lon="8.0996746"><ele>486.0</ele><time>2026-04-10T08:09:21.942Z</time></trkpt><trkpt lat="44.1307787" lon="8.0997573"><ele>491.0</ele><time>2026-04-10T08:09:23.942Z</time></trkpt><trkpt lat="44.1307148" lon="8.0998218"><ele>496.0</ele><time>2026-04-10T08:09:26.942Z</time></trkpt><trkpt lat="44.130648" lon="8.0998256"><ele>501.0</ele><time>2026-04-10T08:09:29.942Z</time></trkpt><trkpt lat="44.1305872" lon="8.0997782"><ele>506.0</ele><time>2026-04-10T08:09:33.942Z</time></trkpt><trkpt lat="44.130504" lon="8.0997371"><ele>511.0</ele><time>2026-04-10T08:09:36.942Z</time></trkpt><trkpt lat="44.1304119" lon="8.0997192"><ele>516.0</ele><time>2026-04-10T08:09:38.942Z</time></trkpt><trkpt lat="44.1303607" lon="8.0996447"><ele>516.0</ele><time>2026-04-10T08:09:41.942Z</time></trkpt><trkpt lat="44.1303558" lon="8.099544"><ele>516.0</ele><time>2026-04-10T08:09:43.942Z</time></trkpt><trkpt lat="44.1303392" lon="8.0994242"><ele>516.0</ele><time>2026-04-10T08:09:45.942Z</time></trkpt><trkpt lat="44.1302986" lon="8.099321"><ele>516.0</ele><time>2026-04-10T08:09:47.943Z</time></trkpt><trkpt lat="44.1302493" lon="8.099207"><ele>516.0</ele><time>2026-04-10T08:09:49.942Z</time></trkpt><trkpt lat="44.1302077" lon="8.0991351"><ele>516.0</ele><time>2026-04-10T08:09:51.942Z</time></trkpt><trkpt lat="44.1301414" lon="8.0990655"><ele>516.0</ele><time>2026-04-10T08:09:54.942Z</time></trkpt><trkpt lat="44.1300791" lon="8.0990808"><ele>516.0</ele><time>2026-04-10T08:09:57.942Z</time></trkpt><trkpt lat="44.1300066" lon="8.0990945"><ele>516.0</ele><time>2026-04-10T08:09:59.942Z</time></trkpt><trkpt lat="44.1299368" lon="8.0991143"><ele>516.0</ele><time>2026-04-10T08:10:01.942Z</time></trkpt><trkpt lat="44.1298402" lon="8.0991346"><ele>516.0</ele><time>2026-04-10T08:10:03.942Z</time></trkpt><trkpt lat="44.1297459" lon="8.0991654"><ele>516.0</ele><time>2026-04-10T08:10:05.942Z</time></trkpt><trkpt lat="44.1296617" lon="8.099226"><ele>518.8333333333334</ele><time>2026-04-10T08:10:07.942Z</time></trkpt><trkpt lat="44.1295953" lon="8.099273"><ele>521.6666666666666</ele><time>2026-04-10T08:10:09.943Z</time></trkpt><trkpt lat="44.129494" lon="8.0993236"><ele>524.5</ele><time>2026-04-10T08:10:12.942Z</time></trkpt><trkpt lat="44.1293999" lon="8.0993522"><ele>527.3333333333333</ele><time>2026-04-10T08:10:14.942Z</time></trkpt><trkpt lat="44.129324" lon="8.0993728"><ele>530.1666666666666</ele><time>2026-04-10T08:10:16.942Z</time></trkpt><trkpt lat="44.1292446" lon="8.0993726"><ele>533.0</ele><time>2026-04-10T08:10:18.942Z</time></trkpt><trkpt lat="44.1291708" lon="8.099301"><ele>533.0</ele><time>2026-04-10T08:11:40.942Z</time></trkpt><trkpt lat="44.1291365" lon="8.099219"><ele>533.0</ele><time>2026-04-10T08:11:45.942Z</time></trkpt><trkpt lat="44.1291219" lon="8.0991191"><ele>533.0</ele><time>2026-04-10T08:11:47.942Z</time></trkpt><trkpt lat="44.1290916" lon="8.0990084"><ele>533.0</ele><time>2026-04-10T08:11:50.942Z</time></trkpt><trkpt lat="44.1290578" lon="8.0988973"><ele>533.0</ele><time>2026-04-10T08:11:54.943Z</time></trkpt><trkpt lat="44.1290487" lon="8.0988045"><ele>533.0</ele><time>2026-04-10T08:11:57.942Z</time></trkpt><trkpt lat="44.1290006" lon="8.0986866"><ele>533.5</ele><time>2026-04-10T08:12:04.942Z</time></trkpt><trkpt lat="44.1289775" lon="8.0985614"><ele>534.0</ele><time>2026-04-10T08:12:07.942Z</time></trkpt><trkpt lat="44.1289492" lon="8.0984742"><ele>534.5</ele><time>2026-04-10T08:12:10.942Z</time></trkpt><trkpt lat="44.1289202" lon="8.098363"><ele>535.0</ele><time>2026-04-10T08:12:14.942Z</time></trkpt><trkpt lat="44.128875" lon="8.0982763"><ele>535.5</ele><time>2026-04-10T08:12:17.942Z</time></trkpt><trkpt lat="44.1288809" lon="8.0981718"><ele>536.0</ele><time>2026-04-10T08:12:20.942Z</time></trkpt><trkpt lat="44.1289017" lon="8.0980618"><ele>540.5</ele><time>2026-04-10T08:12:23.943Z</time></trkpt><trkpt lat="44.1289221" lon="8.0979616"><ele>545.0</ele><time>2026-04-10T08:12:26.942Z</time></trkpt><trkpt lat="44.1289331" lon="8.0978591"><ele>549.5</ele><time>2026-04-10T08:12:29.942Z</time></trkpt><trkpt lat="44.1289901" lon="8.0978179"><ele>554.0</ele><time>2026-04-10T08:12:33.942Z</time></trkpt><trkpt lat="44.1290784" lon="8.0977901"><ele>558.5</ele><time>2026-04-10T08:12:36.942Z</time></trkpt><trkpt lat="44.1291516" lon="8.0977505"><ele>563.0</ele><time>2026-04-10T08:12:40.943Z</time></trkpt><trkpt lat="44.1291759" lon="8.0976609"><ele>564.3333333333333</ele><time>2026-04-10T08:12:44.942Z</time></trkpt><trkpt lat="44.1291485" lon="8.097565"><ele>565.6666666666666</ele><time>2026-04-10T08:12:51.942Z</time></trkpt><trkpt lat="44.1291039" lon="8.0974579"><ele>567.0</ele><time>2026-04-10T08:12:54.942Z</time></trkpt><trkpt lat="44.1290707" lon="8.0973564"><ele>568.3333333333334</ele><time>2026-04-10T08:12:57.942Z</time></trkpt><trkpt lat="44.1290404" lon="8.0972766"><ele>569.6666666666667</ele><time>2026-04-10T08:13:00.942Z</time></trkpt><trkpt lat="44.1290084" lon="8.0971913"><ele>571.0</ele><time>2026-04-10T08:13:04.942Z</time></trkpt><trkpt lat="44.1289974" lon="8.0970834"><ele>574.8333333333334</ele><time>2026-04-10T08:13:08.942Z</time></trkpt><trkpt lat="44.1290421" lon="8.0970043"><ele>578.6666666666667</ele><time>2026-04-10T08:13:12.942Z</time></trkpt><trkpt lat="44.1290705" lon="8.0969167"><ele>582.5</ele><time>2026-04-10T08:13:16.942Z</time></trkpt><trkpt lat="44.1290354" lon="8.0968396"><ele>586.3333333333334</ele><time>2026-04-10T08:13:19.943Z</time></trkpt><trkpt lat="44.1289863" lon="8.0967567"><ele>590.1666666666666</ele><time>2026-04-10T08:13:23.943Z</time></trkpt><trkpt lat="44.1289435" lon="8.0965655"><ele>594.0</ele><time>2026-04-10T08:14:11.941Z</time></trkpt><trkpt lat="44.1289163" lon="8.0964784"><ele>600.0</ele><time>2026-04-10T08:14:13.941Z</time></trkpt><trkpt lat="44.1288914" lon="8.0963736"><ele>606.0</ele><time>2026-04-10T08:14:17.941Z</time></trkpt><trkpt lat="44.1289268" lon="8.0962941"><ele>612.0</ele><time>2026-04-10T08:14:29.941Z</time></trkpt><trkpt lat="44.1289945" lon="8.0962634"><ele>618.0</ele><time>2026-04-10T08:14:33.941Z</time></trkpt><trkpt lat="44.1290054" lon="8.0961677"><ele>624.0</ele><time>2026-04-10T08:14:47.941Z</time></trkpt><trkpt lat="44.1289506" lon="8.0961071"><ele>630.0</ele><time>2026-04-10T08:14:52.941Z</time></trkpt><trkpt lat="44.1289964" lon="8.0960439"><ele>636.0</ele><time>2026-04-10T08:14:58.941Z</time></trkpt><trkpt lat="44.1290313" lon="8.0959624"><ele>636.0</ele><time>2026-04-10T08:15:01.941Z</time></trkpt><trkpt lat="44.1289883" lon="8.0958874"><ele>636.0</ele><time>2026-04-10T08:15:06.941Z</time></trkpt><trkpt lat="44.1289846" lon="8.09579"><ele>636.0</ele><time>2026-04-10T08:16:00.941Z</time></trkpt><trkpt lat="44.1289733" lon="8.0956083"><ele>636.0</ele><time>2026-04-10T08:18:14.941Z</time></trkpt><trkpt lat="44.1290267" lon="8.0955367"><ele>636.0</ele><time>2026-04-10T08:18:28.941Z</time></trkpt><trkpt lat="44.1290517" lon="8.0954367"><ele>636.0</ele><time>2026-04-10T08:20:10.941Z</time></trkpt><trkpt lat="44.1290883" lon="8.0953417"><ele>640.5</ele><time>2026-04-10T08:20:13.941Z</time></trkpt><trkpt lat="44.12912" lon="8.0952367"><ele>645.0</ele><time>2026-04-10T08:20:16.941Z</time></trkpt><trkpt lat="44.1291533" lon="8.095155"><ele>649.5</ele><time>2026-04-10T08:20:18.941Z</time></trkpt><trkpt lat="44.1291833" lon="8.095055"><ele>654.0</ele><time>2026-04-10T08:20:20.942Z</time></trkpt><trkpt lat="44.1292167" lon="8.0949567"><ele>658.5</ele><time>2026-04-10T08:20:22.941Z</time></trkpt><trkpt lat="44.1292567" lon="8.0948717"><ele>663.0</ele><time>2026-04-10T08:20:24.941Z</time></trkpt><trkpt lat="44.1292967" lon="8.0947733"><ele>667.6666666666666</ele><time>2026-04-10T08:20:26.941Z</time></trkpt><trkpt lat="44.1293083" lon="8.0946617"><ele>672.3333333333334</ele><time>2026-04-10T08:20:28.941Z</time></trkpt><trkpt lat="44.1293267" lon="8.0945617"><ele>677.0</ele><time>2026-04-10T08:20:30.941Z</time></trkpt><trkpt lat="44.12935" lon="8.0944633"><ele>681.6666666666667</ele><time>2026-04-10T08:20:32.941Z</time></trkpt><trkpt lat="44.1293783" lon="8.094365"><ele>686.3333333333334</ele><time>2026-04-10T08:20:34.941Z</time></trkpt><trkpt lat="44.1293933" lon="8.094245"><ele>691.0</ele><time>2026-04-10T08:20:36.941Z</time></trkpt><trkpt lat="44.12938" lon="8.0941217"><ele>694.6666666666667</ele><time>2026-04-10T08:20:39.941Z</time></trkpt><trkpt lat="44.1293867" lon="8.0940017"><ele>698.3333333333334</ele><time>2026-04-10T08:20:41.941Z</time></trkpt><trkpt lat="44.12939" lon="8.0939117"><ele>702.0</ele><time>2026-04-10T08:20:42.941Z</time></trkpt><trkpt lat="44.1293967" lon="8.0938183"><ele>705.6666666666666</ele><time>2026-04-10T08:20:43.942Z</time></trkpt><trkpt lat="44.1294117" lon="8.093675"><ele>709.3333333333333</ele><time>2026-04-10T08:20:45.942Z</time></trkpt><trkpt lat="44.12943" lon="8.0935483"><ele>713.0</ele><time>2026-04-10T08:20:47.941Z</time></trkpt><trkpt lat="44.1294583" lon="8.09344"><ele>713.0</ele><time>2026-04-10T08:20:49.941Z</time></trkpt><trkpt lat="44.1294883" lon="8.0933367"><ele>713.0</ele><time>2026-04-10T08:20:51.941Z</time></trkpt><trkpt lat="44.1295383" lon="8.09325"><ele>713.0</ele><time>2026-04-10T08:20:53.941Z</time></trkpt><trkpt lat="44.129565" lon="8.09317"><ele>713.0</ele><time>2026-04-10T08:20:55.942Z</time></trkpt><trkpt lat="44.129595" lon="8.0930833"><ele>713.0</ele><time>2026-04-10T08:20:57.941Z</time></trkpt><trkpt lat="44.1296333" lon="8.09297"><ele>713.0</ele><time>2026-04-10T08:21:00.941Z</time></trkpt><trkpt lat="44.1296817" lon="8.092885"><ele>717.8333333333333</ele><time>2026-04-10T08:21:02.941Z</time></trkpt><trkpt lat="44.1297233" lon="8.0927283"><ele>722.6666666666666</ele><time>2026-04-10T08:21:07.94Z</time></trkpt><trkpt lat="44.1297283" lon="8.0926283"><ele>727.5</ele><time>2026-04-10T08:21:09.94Z</time></trkpt><trkpt lat="44.12973" lon="8.09254"><ele>732.3333333333334</ele><time>2026-04-10T08:21:11.941Z</time></trkpt><trkpt lat="44.12974" lon="8.09241"><ele>737.1666666666667</ele><time>2026-04-10T08:21:14.94Z</time></trkpt><trkpt lat="44.1297533" lon="8.0922983"><ele>742.0</ele><time>2026-04-10T08:21:16.94Z</time></trkpt><trkpt lat="44.129755" lon="8.0921867"><ele>745.1666666666667</ele><time>2026-04-10T08:21:18.94Z</time></trkpt><trkpt lat="44.1297617" lon="8.092085"><ele>748.3333333333334</ele><time>2026-04-10T08:21:20.94Z</time></trkpt><trkpt lat="44.1297383" lon="8.09196"><ele>751.5</ele><time>2026-04-10T08:21:23.94Z</time></trkpt><trkpt lat="44.1297267" lon="8.0918367"><ele>754.6666666666666</ele><time>2026-04-10T08:21:26.94Z</time></trkpt><trkpt lat="44.1297217" lon="8.0917417"><ele>757.8333333333333</ele><time>2026-04-10T08:21:28.94Z</time></trkpt><trkpt lat="44.12974" lon="8.0916467"><ele>761.0</ele><time>2026-04-10T08:21:30.94Z</time></trkpt><trkpt lat="44.12975" lon="8.091485"><ele>762.4</ele><time>2026-04-10T08:28:20.94Z</time></trkpt><trkpt lat="44.129745" lon="8.0913833"><ele>763.8</ele><time>2026-04-10T08:28:23.94Z</time></trkpt><trkpt lat="44.12974" lon="8.0912517"><ele>765.1999999999999</ele><time>2026-04-10T08:28:25.94Z</time></trkpt><trkpt lat="44.129725" lon="8.09113"><ele>766.5999999999999</ele><time>2026-04-10T08:28:27.94Z</time></trkpt><trkpt lat="44.129695" lon="8.090995"><ele>768.0</ele><time>2026-04-10T08:28:29.94Z</time></trkpt><trkpt lat="44.12966" lon="8.0908717"><ele>768.0</ele><time>2026-04-10T08:28:31.94Z</time></trkpt><trkpt lat="44.1296233" lon="8.0907533"><ele>768.0</ele><time>2026-04-10T08:28:33.94Z</time></trkpt><trkpt lat="44.1296117" lon="8.0906283"><ele>768.0</ele><time>2026-04-10T08:28:35.941Z</time></trkpt><trkpt lat="44.1295917" lon="8.090525"><ele>768.0</ele><time>2026-04-10T08:28:37.941Z</time></trkpt><trkpt lat="44.129545" lon="8.0903517"><ele>768.0</ele><time>2026-04-10T08:29:05.939Z</time></trkpt><trkpt lat="44.1294783" lon="8.0902617"><ele>768.0</ele><time>2026-04-10T08:30:37.939Z</time></trkpt><trkpt lat="44.1295083" lon="8.0901717"><ele>768.0</ele><time>2026-04-10T08:33:17.939Z</time></trkpt><trkpt lat="44.1294717" lon="8.090095"><ele>768.0</ele><time>2026-04-10T08:33:19.939Z</time></trkpt><trkpt lat="44.1294233" lon="8.0899883"><ele>768.0</ele><time>2026-04-10T08:33:22.94Z</time></trkpt><trkpt lat="44.129395" lon="8.0898917"><ele>768.0</ele><time>2026-04-10T08:33:25.939Z</time></trkpt><trkpt lat="44.1294067" lon="8.0897867"><ele>768.0</ele><time>2026-04-10T08:33:29.939Z</time></trkpt><trkpt lat="44.1293733" lon="8.0897"><ele>766.5</ele><time>2026-04-10T08:33:31.939Z</time></trkpt><trkpt lat="44.1293383" lon="8.089585"><ele>765.0</ele><time>2026-04-10T08:33:33.939Z</time></trkpt><trkpt lat="44.1293017" lon="8.0895067"><ele>763.5</ele><time>2026-04-10T08:33:35.939Z</time></trkpt><trkpt lat="44.1292817" lon="8.08942"><ele>762.0</ele><time>2026-04-10T08:33:39.939Z</time></trkpt><trkpt lat="44.12924" lon="8.0893167"><ele>760.5</ele><time>2026-04-10T08:33:43.939Z</time></trkpt><trkpt lat="44.129175" lon="8.0892233"><ele>759.0</ele><time>2026-04-10T08:33:45.939Z</time></trkpt><trkpt lat="44.1291083" lon="8.0891183"><ele>772.2</ele><time>2026-04-10T08:33:47.939Z</time></trkpt><trkpt lat="44.129045" lon="8.0890017"><ele>785.4000000000001</ele><time>2026-04-10T08:33:49.939Z</time></trkpt><trkpt lat="44.1290017" lon="8.08893"><ele>798.6</ele><time>2026-04-10T08:33:51.939Z</time></trkpt><trkpt lat="44.1289383" lon="8.0888767"><ele>811.8</ele><time>2026-04-10T08:33:54.939Z</time></trkpt><trkpt lat="44.1288367" lon="8.0887283"><ele>825.0</ele><time>2026-04-10T08:34:56.94Z</time></trkpt><trkpt lat="44.1287533" lon="8.088645"><ele>825.0</ele><time>2026-04-10T08:36:08.939Z</time></trkpt><trkpt lat="44.1286883" lon="8.0884967"><ele>825.0</ele><time>2026-04-10T08:37:04.939Z</time></trkpt><trkpt lat="44.1286133" lon="8.0883017"><ele>825.0</ele><time>2026-04-10T08:42:21.938Z</time></trkpt><trkpt lat="44.1286017" lon="8.0881983"><ele>825.0</ele><time>2026-04-10T08:42:31.938Z</time></trkpt><trkpt lat="44.1285917" lon="8.0881117"><ele>825.0</ele><time>2026-04-10T08:42:33.938Z</time></trkpt><trkpt lat="44.1285767" lon="8.0879783"><ele>826.6666666666666</ele><time>2026-04-10T08:42:36.938Z</time></trkpt><trkpt lat="44.128575" lon="8.0878817"><ele>828.3333333333333</ele><time>2026-04-10T08:42:38.938Z</time></trkpt><trkpt lat="44.1285567" lon="8.0877717"><ele>830.0</ele><time>2026-04-10T08:42:40.938Z</time></trkpt><trkpt lat="44.1285417" lon="8.0876617"><ele>831.6666666666666</ele><time>2026-04-10T08:42:42.938Z</time></trkpt><trkpt lat="44.1285233" lon="8.087545"><ele>833.3333333333333</ele><time>2026-04-10T08:42:44.938Z</time></trkpt><trkpt lat="44.1284933" lon="8.08744"><ele>835.0</ele><time>2026-04-10T08:42:46.938Z</time></trkpt><trkpt lat="44.12847" lon="8.0873367"><ele>839.3333333333333</ele><time>2026-04-10T08:42:49.938Z</time></trkpt><trkpt lat="44.12845" lon="8.087245"><ele>843.6666666666666</ele><time>2026-04-10T08:42:54.938Z</time></trkpt><trkpt lat="44.1284267" lon="8.08716"><ele>848.0</ele><time>2026-04-10T08:43:27.938Z</time></trkpt><trkpt lat="44.128415" lon="8.0870583"><ele>852.3333333333333</ele><time>2026-04-10T08:43:31.939Z</time></trkpt><trkpt lat="44.128415" lon="8.0869633"><ele>856.6666666666666</ele><time>2026-04-10T08:43:36.938Z</time></trkpt><trkpt lat="44.1284017" lon="8.0868167"><ele>861.0</ele><time>2026-04-10T08:43:50.938Z</time></trkpt><trkpt lat="44.128375" lon="8.0867283"><ele>869.0</ele><time>2026-04-10T08:49:52.938Z</time></trkpt><trkpt lat="44.1284667" lon="8.0865733"><ele>877.0</ele><time>2026-04-10T08:50:05.937Z</time></trkpt><trkpt lat="44.1284117" lon="8.086455"><ele>885.0</ele><time>2026-04-10T09:09:12.935Z</time></trkpt><trkpt lat="44.1282883" lon="8.08646"><ele>893.0</ele><time>2026-04-10T09:12:50.935Z</time></trkpt><trkpt lat="44.1281883" lon="8.08631"><ele>893.0</ele><time>2026-04-10T09:15:06.935Z</time></trkpt><trkpt lat="44.1282333" lon="8.0862083"><ele>893.0</ele><time>2026-04-10T09:22:46.935Z</time></trkpt><trkpt lat="44.1281783" lon="8.0861017"><ele>893.0</ele><time>2026-04-10T09:25:20.934Z</time></trkpt><trkpt lat="44.1281667" lon="8.0862483"><ele>893.0</ele><time>2026-04-10T09:31:17.933Z</time></trkpt><trkpt lat="44.1282183" lon="8.0861483"><ele>893.0</ele><time>2026-04-10T09:38:47.934Z</time></trkpt><trkpt lat="44.12825" lon="8.085995"><ele>898.0</ele><time>2026-04-10T09:40:12.934Z</time></trkpt><trkpt lat="44.1282017" lon="8.0859233"><ele>903.0</ele><time>2026-04-10T09:40:15.933Z</time></trkpt><trkpt lat="44.12814" lon="8.08583"><ele>908.0</ele><time>2026-04-10T09:40:18.934Z</time></trkpt><trkpt lat="44.12809" lon="8.0856483"><ele>913.0</ele><time>2026-04-10T09:40:26.933Z</time></trkpt><trkpt lat="44.1280683" lon="8.085535"><ele>918.0</ele><time>2026-04-10T09:40:30.934Z</time></trkpt><trkpt lat="44.1280433" lon="8.08539"><ele>919.3333333333334</ele><time>2026-04-10T09:44:05.933Z</time></trkpt><trkpt lat="44.1280033" lon="8.085305"><ele>920.6666666666667</ele><time>2026-04-10T09:44:09.933Z</time></trkpt><trkpt lat="44.12798" lon="8.0852167"><ele>922.0</ele><time>2026-04-10T09:44:12.933Z</time></trkpt><trkpt lat="44.12797" lon="8.0851167"><ele>923.3333333333334</ele><time>2026-04-10T09:44:14.933Z</time></trkpt><trkpt lat="44.1279433" lon="8.0849867"><ele>924.6666666666667</ele><time>2026-04-10T09:44:16.934Z</time></trkpt><trkpt lat="44.127885" lon="8.0848633"><ele>926.0</ele><time>2026-04-10T09:44:18.933Z</time></trkpt><trkpt lat="44.12781" lon="8.0847067"><ele>927.8333333333334</ele><time>2026-04-10T09:44:20.933Z</time></trkpt><trkpt lat="44.1277667" lon="8.0846183"><ele>929.6666666666667</ele><time>2026-04-10T09:44:21.933Z</time></trkpt><trkpt lat="44.1277267" lon="8.0845467"><ele>931.5</ele><time>2026-04-10T09:44:22.933Z</time></trkpt><trkpt lat="44.1276833" lon="8.084455"><ele>933.3333333333333</ele><time>2026-04-10T09:44:24.933Z</time></trkpt><trkpt lat="44.127685" lon="8.08435"><ele>935.1666666666666</ele><time>2026-04-10T09:44:30.933Z</time></trkpt><trkpt lat="44.1277267" lon="8.08424"><ele>937.0</ele><time>2026-04-10T09:44:33.933Z</time></trkpt><trkpt lat="44.1277433" lon="8.084145"><ele>938.6666666666666</ele><time>2026-04-10T09:44:35.933Z</time></trkpt><trkpt lat="44.1277067" lon="8.0840583"><ele>940.3333333333333</ele><time>2026-04-10T09:44:38.933Z</time></trkpt><trkpt lat="44.1276783" lon="8.0839467"><ele>942.0</ele><time>2026-04-10T09:44:41.933Z</time></trkpt><trkpt lat="44.1276317" lon="8.0838267"><ele>943.6666666666667</ele><time>2026-04-10T09:44:44.933Z</time></trkpt><trkpt lat="44.1275967" lon="8.0837267"><ele>945.3333333333334</ele><time>2026-04-10T09:44:46.933Z</time></trkpt><trkpt lat="44.1275717" lon="8.0836083"><ele>947.0</ele><time>2026-04-10T09:44:48.933Z</time></trkpt><trkpt lat="44.12755" lon="8.083505"><ele>947.0</ele><time>2026-04-10T09:44:50.933Z</time></trkpt><trkpt lat="44.1275567" lon="8.08339"><ele>947.0</ele><time>2026-04-10T09:44:52.933Z</time></trkpt><trkpt lat="44.12753" lon="8.0832867"><ele>947.0</ele><time>2026-04-10T09:44:55.933Z</time></trkpt><trkpt lat="44.12747" lon="8.083105"><ele>947.0</ele><time>2026-04-10T09:45:06.934Z</time></trkpt><trkpt lat="44.1274483" lon="8.0829967"><ele>947.0</ele><time>2026-04-10T09:45:08.934Z</time></trkpt><trkpt lat="44.1274383" lon="8.0828317"><ele>947.5000000000001</ele><time>2026-04-10T09:45:10.933Z</time></trkpt><trkpt lat="44.1274617" lon="8.0826933"><ele>948.0</ele><time>2026-04-10T09:45:12.933Z</time></trkpt><trkpt lat="44.127475" lon="8.082585"><ele>948.5</ele><time>2026-04-10T09:45:14.933Z</time></trkpt><trkpt lat="44.12748" lon="8.0824517"><ele>949.0</ele><time>2026-04-10T09:45:16.932Z</time></trkpt><trkpt lat="44.1274617" lon="8.08234"><ele>949.5000000000001</ele><time>2026-04-10T09:45:18.932Z</time></trkpt><trkpt lat="44.127415" lon="8.08227"><ele>950.0</ele><time>2026-04-10T09:45:20.932Z</time></trkpt><trkpt lat="44.12737" lon="8.0821833"><ele>944.5000000000001</ele><time>2026-04-10T09:45:59.933Z</time></trkpt><trkpt lat="44.1272983" lon="8.0821933"><ele>939.0</ele><time>2026-04-10T09:46:01.932Z</time></trkpt><trkpt lat="44.1272217" lon="8.0822467"><ele>933.5</ele><time>2026-04-10T09:46:03.932Z</time></trkpt><trkpt lat="44.1271217" lon="8.0823017"><ele>928.0</ele><time>2026-04-10T09:46:05.932Z</time></trkpt><trkpt lat="44.1270567" lon="8.082335"><ele>922.5000000000001</ele><time>2026-04-10T09:46:06.932Z</time></trkpt><trkpt lat="44.1269833" lon="8.0823767"><ele>917.0</ele><time>2026-04-10T09:46:07.932Z</time></trkpt><trkpt lat="44.12692" lon="8.08243"><ele>923.2</ele><time>2026-04-10T09:46:08.932Z</time></trkpt><trkpt lat="44.12686" lon="8.0824767"><ele>929.4000000000001</ele><time>2026-04-10T09:46:09.933Z</time></trkpt><trkpt lat="44.12675" lon="8.08254"><ele>935.5999999999999</ele><time>2026-04-10T09:46:11.932Z</time></trkpt><trkpt lat="44.1266683" lon="8.08266"><ele>941.8</ele><time>2026-04-10T09:46:13.932Z</time></trkpt><trkpt lat="44.12663" lon="8.0828117"><ele>948.0</ele><time>2026-04-10T09:46:15.932Z</time></trkpt><trkpt lat="44.1265883" lon="8.0829467"><ele>949.1666666666666</ele><time>2026-04-10T09:46:17.932Z</time></trkpt><trkpt lat="44.126535" lon="8.0830667"><ele>950.3333333333333</ele><time>2026-04-10T09:46:19.932Z</time></trkpt><trkpt lat="44.1264783" lon="8.083215"><ele>951.5</ele><time>2026-04-10T09:46:21.932Z</time></trkpt><trkpt lat="44.1264417" lon="8.0833067"><ele>952.6666666666666</ele><time>2026-04-10T09:46:22.932Z</time></trkpt><trkpt lat="44.1264133" lon="8.0834017"><ele>953.8333333333333</ele><time>2026-04-10T09:46:23.932Z</time></trkpt><trkpt lat="44.12639" lon="8.08349"><ele>955.0</ele><time>2026-04-10T09:46:24.932Z</time></trkpt><trkpt lat="44.1263367" lon="8.083625"><ele>954.9999999999999</ele><time>2026-04-10T09:46:26.932Z</time></trkpt><trkpt lat="44.126305" lon="8.0837033"><ele>955.0</ele><time>2026-04-10T09:46:27.932Z</time></trkpt><trkpt lat="44.1262717" lon="8.0837967"><ele>955.0</ele><time>2026-04-10T09:46:28.932Z</time></trkpt><trkpt lat="44.1262417" lon="8.0839017"><ele>955.0</ele><time>2026-04-10T09:46:29.933Z</time></trkpt><trkpt lat="44.126215" lon="8.08399"><ele>954.9999999999999</ele><time>2026-04-10T09:46:30.932Z</time></trkpt><trkpt lat="44.12617" lon="8.0841283"><ele>955.0</ele><time>2026-04-10T09:46:32.932Z</time></trkpt><trkpt lat="44.1261267" lon="8.084265"><ele>958.2857142857142</ele><time>2026-04-10T09:46:34.932Z</time></trkpt><trkpt lat="44.1260417" lon="8.084265"><ele>961.5714285714286</ele><time>2026-04-10T09:46:55.932Z</time></trkpt><trkpt lat="44.1259783" lon="8.08425"><ele>964.8571428571429</ele><time>2026-04-10T09:46:57.932Z</time></trkpt><trkpt lat="44.12593" lon="8.08419"><ele>968.1428571428571</ele><time>2026-04-10T09:46:59.932Z</time></trkpt><trkpt lat="44.1258633" lon="8.0841883"><ele>971.4285714285716</ele><time>2026-04-10T09:47:03.932Z</time></trkpt><trkpt lat="44.12582" lon="8.084265"><ele>974.7142857142858</ele><time>2026-04-10T09:47:05.932Z</time></trkpt><trkpt lat="44.1258033" lon="8.0843667"><ele>978.0</ele><time>2026-04-10T09:47:09.932Z</time></trkpt><trkpt lat="44.1257967" lon="8.08448"><ele>978.0</ele><time>2026-04-10T09:47:19.932Z</time></trkpt><trkpt lat="44.1257683" lon="8.0845867"><ele>978.0</ele><time>2026-04-10T09:47:22.932Z</time></trkpt><trkpt lat="44.1257483" lon="8.084695"><ele>978.0</ele><time>2026-04-10T09:47:25.932Z</time></trkpt><trkpt lat="44.1257317" lon="8.0848"><ele>978.0</ele><time>2026-04-10T09:47:28.932Z</time></trkpt><trkpt lat="44.1257133" lon="8.084915"><ele>978.0</ele><time>2026-04-10T09:47:31.932Z</time></trkpt><trkpt lat="44.125685" lon="8.0850267"><ele>978.0</ele><time>2026-04-10T09:47:34.932Z</time></trkpt><trkpt lat="44.1256783" lon="8.0851233"><ele>979.3333333333334</ele><time>2026-04-10T09:47:37.932Z</time></trkpt><trkpt lat="44.12563" lon="8.085225"><ele>980.6666666666667</ele><time>2026-04-10T09:47:40.933Z</time></trkpt><trkpt lat="44.125585" lon="8.0852933"><ele>982.0</ele><time>2026-04-10T09:47:42.933Z</time></trkpt><trkpt lat="44.1255383" lon="8.0853783"><ele>983.3333333333334</ele><time>2026-04-10T09:47:44.932Z</time></trkpt><trkpt lat="44.1255" lon="8.085485"><ele>984.6666666666667</ele><time>2026-04-10T09:47:46.932Z</time></trkpt><trkpt lat="44.1254733" lon="8.0855767"><ele>986.0</ele><time>2026-04-10T09:47:48.932Z</time></trkpt><trkpt lat="44.1254633" lon="8.0856733"><ele>990.1666666666667</ele><time>2026-04-10T09:47:52.932Z</time></trkpt><trkpt lat="44.125445" lon="8.0857817"><ele>994.3333333333334</ele><time>2026-04-10T09:47:56.932Z</time></trkpt><trkpt lat="44.1254383" lon="8.0858933"><ele>998.5</ele><time>2026-04-10T09:47:59.932Z</time></trkpt><trkpt lat="44.1254167" lon="8.08601"><ele>1002.6666666666667</ele><time>2026-04-10T09:48:02.932Z</time></trkpt><trkpt lat="44.1253833" lon="8.0861367"><ele>1006.8333333333334</ele><time>2026-04-10T09:48:05.932Z</time></trkpt><trkpt lat="44.12536" lon="8.08626"><ele>1011.0</ele><time>2026-04-10T09:48:07.932Z</time></trkpt><trkpt lat="44.1253517" lon="8.0863883"><ele>1011.0</ele><time>2026-04-10T09:48:09.932Z</time></trkpt><trkpt lat="44.1253517" lon="8.0865167"><ele>1011.0</ele><time>2026-04-10T09:48:11.932Z</time></trkpt><trkpt lat="44.125345" lon="8.08666"><ele>1011.0</ele><time>2026-04-10T09:48:13.933Z</time></trkpt><trkpt lat="44.1253467" lon="8.0867767"><ele>1011.0</ele><time>2026-04-10T09:48:15.932Z</time></trkpt><trkpt lat="44.125335" lon="8.0868717"><ele>1011.0</ele><time>2026-04-10T09:48:17.932Z</time></trkpt><trkpt lat="44.1253217" lon="8.0869683"><ele>1011.0</ele><time>2026-04-10T09:48:19.932Z</time></trkpt><trkpt lat="44.12531" lon="8.0870667"><ele>1011.5</ele><time>2026-04-10T09:48:21.932Z</time></trkpt><trkpt lat="44.1252933" lon="8.0871883"><ele>1012.0</ele><time>2026-04-10T09:48:24.932Z</time></trkpt><trkpt lat="44.125275" lon="8.0873"><ele>1012.5</ele><time>2026-04-10T09:48:27.932Z</time></trkpt><trkpt lat="44.125335" lon="8.08722"><ele>1013.0</ele><time>2026-04-10T09:49:47.932Z</time></trkpt><trkpt lat="44.125355" lon="8.0871217"><ele>1013.5</ele><time>2026-04-10T09:49:55.933Z</time></trkpt><trkpt lat="44.1253533" lon="8.0870317"><ele>1014.0</ele><time>2026-04-10T09:49:57.932Z</time></trkpt><trkpt lat="44.125355" lon="8.0869433"><ele>1014.0</ele><time>2026-04-10T09:49:59.932Z</time></trkpt><trkpt lat="44.1253633" lon="8.086855"><ele>1014.0</ele><time>2026-04-10T09:50:01.932Z</time></trkpt><trkpt lat="44.1253733" lon="8.086735"><ele>1014.0</ele><time>2026-04-10T09:50:04.932Z</time></trkpt><trkpt lat="44.1253667" lon="8.0866417"><ele>1014.0</ele><time>2026-04-10T09:50:06.932Z</time></trkpt><trkpt lat="44.1253767" lon="8.0865283"><ele>1014.0</ele><time>2026-04-10T09:50:08.932Z</time></trkpt><trkpt lat="44.12538" lon="8.086425"><ele>1014.0</ele><time>2026-04-10T09:50:10.932Z</time></trkpt><trkpt lat="44.1253783" lon="8.086325"><ele>1014.0</ele><time>2026-04-10T09:50:12.933Z</time></trkpt><trkpt lat="44.1253817" lon="8.086195"><ele>1013.5</ele><time>2026-04-10T09:50:14.933Z</time></trkpt><trkpt lat="44.1254017" lon="8.0860933"><ele>1013.0</ele><time>2026-04-10T09:50:16.932Z</time></trkpt><trkpt lat="44.125435" lon="8.0860083"><ele>1012.5</ele><time>2026-04-10T09:50:18.932Z</time></trkpt><trkpt lat="44.1254717" lon="8.085905"><ele>1012.0</ele><time>2026-04-10T09:50:21.932Z</time></trkpt><trkpt lat="44.1254783" lon="8.0857767"><ele>1011.5</ele><time>2026-04-10T09:50:29.932Z</time></trkpt><trkpt lat="44.1254733" lon="8.0856667"><ele>1011.0</ele><time>2026-04-10T09:50:40.932Z</time></trkpt><trkpt lat="44.1254867" lon="8.085555"><ele>1006.8333333333334</ele><time>2026-04-10T09:50:43.932Z</time></trkpt><trkpt lat="44.1255183" lon="8.0854667"><ele>1002.6666666666667</ele><time>2026-04-10T09:50:45.932Z</time></trkpt><trkpt lat="44.125555" lon="8.0853767"><ele>998.5</ele><time>2026-04-10T09:50:47.932Z</time></trkpt><trkpt lat="44.1255917" lon="8.0852917"><ele>994.3333333333334</ele><time>2026-04-10T09:50:49.932Z</time></trkpt><trkpt lat="44.1256517" lon="8.0851983"><ele>990.1666666666667</ele><time>2026-04-10T09:50:52.932Z</time></trkpt><trkpt lat="44.1256917" lon="8.0851033"><ele>986.0</ele><time>2026-04-10T09:50:55.932Z</time></trkpt><trkpt lat="44.1257083" lon="8.085015"><ele>984.6666666666667</ele><time>2026-04-10T09:50:58.932Z</time></trkpt><trkpt lat="44.125745" lon="8.0849067"><ele>983.3333333333334</ele><time>2026-04-10T09:51:01.932Z</time></trkpt><trkpt lat="44.1257683" lon="8.0848167"><ele>982.0</ele><time>2026-04-10T09:51:04.932Z</time></trkpt><trkpt lat="44.12576" lon="8.0847067"><ele>980.6666666666667</ele><time>2026-04-10T09:51:11.932Z</time></trkpt><trkpt lat="44.12578" lon="8.0846017"><ele>979.3333333333334</ele><time>2026-04-10T09:51:18.932Z</time></trkpt><trkpt lat="44.125805" lon="8.08448"><ele>978.0</ele><time>2026-04-10T09:51:31.932Z</time></trkpt><trkpt lat="44.125815" lon="8.0843883"><ele>978.0</ele><time>2026-04-10T09:51:34.932Z</time></trkpt><trkpt lat="44.1258267" lon="8.0842883"><ele>978.0</ele><time>2026-04-10T09:51:37.932Z</time></trkpt><trkpt lat="44.1258683" lon="8.08419"><ele>978.0</ele><time>2026-04-10T09:51:41.932Z</time></trkpt><trkpt lat="44.1259367" lon="8.0841967"><ele>978.0</ele><time>2026-04-10T09:51:46.932Z</time></trkpt><trkpt lat="44.1259933" lon="8.084245"><ele>978.0</ele><time>2026-04-10T09:51:49.933Z</time></trkpt><trkpt lat="44.1260733" lon="8.084285"><ele>978.0</ele><time>2026-04-10T09:51:52.932Z</time></trkpt><trkpt lat="44.126135" lon="8.0842017"><ele>973.4</ele><time>2026-04-10T09:51:57.933Z</time></trkpt><trkpt lat="44.126175" lon="8.0840617"><ele>968.8</ele><time>2026-04-10T09:51:59.932Z</time></trkpt><trkpt lat="44.1262317" lon="8.0839133"><ele>964.2</ele><time>2026-04-10T09:52:01.932Z</time></trkpt><trkpt lat="44.1262617" lon="8.08383"><ele>959.6</ele><time>2026-04-10T09:52:02.932Z</time></trkpt><trkpt lat="44.1262967" lon="8.0837533"><ele>955.0</ele><time>2026-04-10T09:52:03.932Z</time></trkpt><trkpt lat="44.126355" lon="8.0836017"><ele>955.0</ele><time>2026-04-10T09:52:05.933Z</time></trkpt><trkpt lat="44.1264017" lon="8.0834833"><ele>955.0</ele><time>2026-04-10T09:52:07.932Z</time></trkpt><trkpt lat="44.1264417" lon="8.083365"><ele>955.0</ele><time>2026-04-10T09:52:09.933Z</time></trkpt><trkpt lat="44.126495" lon="8.0832217"><ele>955.0</ele><time>2026-04-10T09:52:11.932Z</time></trkpt><trkpt lat="44.1265283" lon="8.0831367"><ele>955.0</ele><time>2026-04-10T09:52:12.932Z</time></trkpt><trkpt lat="44.126595" lon="8.082995"><ele>953.6</ele><time>2026-04-10T09:52:14.933Z</time></trkpt><trkpt lat="44.1266367" lon="8.082925"><ele>952.2</ele><time>2026-04-10T09:52:15.932Z</time></trkpt><trkpt lat="44.1266817" lon="8.082845"><ele>950.8</ele><time>2026-04-10T09:52:16.932Z</time></trkpt><trkpt lat="44.126775" lon="8.0827267"><ele>949.4</ele><time>2026-04-10T09:52:18.932Z</time></trkpt><trkpt lat="44.1268567" lon="8.0826333"><ele>948.0</ele><time>2026-04-10T09:52:20.932Z</time></trkpt><trkpt lat="44.12692" lon="8.0825583"><ele>948.0</ele><time>2026-04-10T09:52:22.933Z</time></trkpt><trkpt lat="44.1269817" lon="8.0824883"><ele>948.0</ele><time>2026-04-10T09:52:24.932Z</time></trkpt><trkpt lat="44.1270517" lon="8.08244"><ele>948.0</ele><time>2026-04-10T09:52:26.933Z</time></trkpt><trkpt lat="44.1271217" lon="8.0823867"><ele>948.0</ele><time>2026-04-10T09:52:28.932Z</time></trkpt><trkpt lat="44.1271833" lon="8.0823367"><ele>948.0</ele><time>2026-04-10T09:52:30.932Z</time></trkpt><trkpt lat="44.12727" lon="8.08229"><ele>948.0</ele><time>2026-04-10T09:52:32.932Z</time></trkpt><trkpt lat="44.1273483" lon="8.08225"><ele>946.5</ele><time>2026-04-10T09:52:34.932Z</time></trkpt><trkpt lat="44.12741" lon="8.0822"><ele>945.0</ele><time>2026-04-10T09:52:36.932Z</time></trkpt><trkpt lat="44.1274717" lon="8.0821217"><ele>943.5</ele><time>2026-04-10T09:52:39.932Z</time></trkpt><trkpt lat="44.1275267" lon="8.0820383"><ele>942.0</ele><time>2026-04-10T09:54:20.932Z</time></trkpt><trkpt lat="44.1276117" lon="8.0819667"><ele>940.5</ele><time>2026-04-10T09:54:22.933Z</time></trkpt><trkpt lat="44.1276917" lon="8.0818767"><ele>939.0</ele><time>2026-04-10T09:54:24.932Z</time></trkpt><trkpt lat="44.1277483" lon="8.0817483"><ele>939.0</ele><time>2026-04-10T09:54:26.932Z</time></trkpt><trkpt lat="44.1277817" lon="8.0816183"><ele>939.0</ele><time>2026-04-10T09:54:28.932Z</time></trkpt><trkpt lat="44.1278133" lon="8.0815417"><ele>939.0</ele><time>2026-04-10T09:54:29.932Z</time></trkpt><trkpt lat="44.1278483" lon="8.0814633"><ele>939.0</ele><time>2026-04-10T09:54:30.932Z</time></trkpt><trkpt lat="44.1279017" lon="8.0813367"><ele>939.0</ele><time>2026-04-10T09:54:32.932Z</time></trkpt><trkpt lat="44.1279133" lon="8.08125"><ele>939.0</ele><time>2026-04-10T09:54:35.932Z</time></trkpt><trkpt lat="44.1279317" lon="8.0811483"><ele>934.5</ele><time>2026-04-10T09:54:38.932Z</time></trkpt><trkpt lat="44.1279667" lon="8.0810317"><ele>930.0</ele><time>2026-04-10T09:54:40.932Z</time></trkpt><trkpt lat="44.1279767" lon="8.0809083"><ele>925.5</ele><time>2026-04-10T09:54:43.933Z</time></trkpt><trkpt lat="44.1279883" lon="8.0808"><ele>921.0</ele><time>2026-04-10T09:54:45.933Z</time></trkpt><trkpt lat="44.1280317" lon="8.0806983"><ele>916.5</ele><time>2026-04-10T09:54:48.932Z</time></trkpt><trkpt lat="44.128005" lon="8.0808183"><ele>912.0</ele><time>2026-04-10T09:57:42.932Z</time></trkpt><trkpt lat="44.1279967" lon="8.08094"><ele>912.0</ele><time>2026-04-10T09:57:44.932Z</time></trkpt><trkpt lat="44.1279767" lon="8.0810533"><ele>912.0</ele><time>2026-04-10T09:57:46.932Z</time></trkpt><trkpt lat="44.1279483" lon="8.0811533"><ele>912.0</ele><time>2026-04-10T09:57:48.932Z</time></trkpt><trkpt lat="44.1279283" lon="8.0812517"><ele>912.0</ele><time>2026-04-10T09:57:50.932Z</time></trkpt><trkpt lat="44.1279233" lon="8.08135"><ele>912.0</ele><time>2026-04-10T09:57:52.932Z</time></trkpt><trkpt lat="44.12798" lon="8.0812917"><ele>912.0</ele><time>2026-04-10T09:58:37.932Z</time></trkpt><trkpt lat="44.1280183" lon="8.0811967"><ele>912.0</ele><time>2026-04-10T09:58:41.932Z</time></trkpt><trkpt lat="44.128065" lon="8.0811117"><ele>912.0</ele><time>2026-04-10T09:58:45.932Z</time></trkpt><trkpt lat="44.1281267" lon="8.0810233"><ele>912.0</ele><time>2026-04-10T09:58:48.932Z</time></trkpt><trkpt lat="44.1281967" lon="8.080935"><ele>912.0</ele><time>2026-04-10T09:58:50.932Z</time></trkpt><trkpt lat="44.1282717" lon="8.0808417"><ele>912.0</ele><time>2026-04-10T09:58:52.932Z</time></trkpt><trkpt lat="44.128355" lon="8.0807983"><ele>912.0</ele><time>2026-04-10T09:58:55.932Z</time></trkpt><trkpt lat="44.128425" lon="8.0807317"><ele>915.8333333333334</ele><time>2026-04-10T09:58:58.932Z</time></trkpt><trkpt lat="44.1284967" lon="8.0806517"><ele>919.6666666666667</ele><time>2026-04-10T09:59:01.932Z</time></trkpt><trkpt lat="44.128525" lon="8.0805733"><ele>923.5</ele><time>2026-04-10T09:59:03.932Z</time></trkpt><trkpt lat="44.1285517" lon="8.08049"><ele>927.3333333333334</ele><time>2026-04-10T09:59:05.932Z</time></trkpt><trkpt lat="44.1286" lon="8.0804"><ele>931.1666666666667</ele><time>2026-04-10T09:59:08.932Z</time></trkpt><trkpt lat="44.128625" lon="8.080315"><ele>935.0</ele><time>2026-04-10T09:59:10.932Z</time></trkpt><trkpt lat="44.1286483" lon="8.0801933"><ele>935.0000000000001</ele><time>2026-04-10T09:59:12.932Z</time></trkpt><trkpt lat="44.1286917" lon="8.08004"><ele>935.0</ele><time>2026-04-10T09:59:14.932Z</time></trkpt><trkpt lat="44.1287417" lon="8.07992"><ele>935.0</ele><time>2026-04-10T09:59:16.932Z</time></trkpt><trkpt lat="44.1287867" lon="8.079825"><ele>935.0</ele><time>2026-04-10T09:59:18.933Z</time></trkpt><trkpt lat="44.12883" lon="8.0797583"><ele>935.0000000000001</ele><time>2026-04-10T09:59:20.933Z</time></trkpt><trkpt lat="44.1289017" lon="8.0797033"><ele>935.0</ele><time>2026-04-10T09:59:23.933Z</time></trkpt><trkpt lat="44.1289467" lon="8.0796383"><ele>934.1666666666667</ele><time>2026-04-10T09:59:27.932Z</time></trkpt><trkpt lat="44.1288917" lon="8.0795583"><ele>933.3333333333334</ele><time>2026-04-10T09:59:42.932Z</time></trkpt><trkpt lat="44.1289383" lon="8.079485"><ele>932.5</ele><time>2026-04-10T09:59:48.932Z</time></trkpt><trkpt lat="44.129" lon="8.0794483"><ele>931.6666666666667</ele><time>2026-04-10T09:59:51.932Z</time></trkpt><trkpt lat="44.1290583" lon="8.079395"><ele>930.8333333333334</ele><time>2026-04-10T09:59:54.932Z</time></trkpt><trkpt lat="44.12911" lon="8.079295"><ele>930.0</ele><time>2026-04-10T10:00:40.932Z</time></trkpt><trkpt lat="44.1291217" lon="8.0791917"><ele>936.0</ele><time>2026-04-10T10:00:56.932Z</time></trkpt><trkpt lat="44.12917" lon="8.079125"><ele>942.0</ele><time>2026-04-10T10:00:59.932Z</time></trkpt><trkpt lat="44.12917" lon="8.0790267"><ele>948.0</ele><time>2026-04-10T10:01:05.932Z</time></trkpt><trkpt lat="44.1292083" lon="8.0789483"><ele>954.0</ele><time>2026-04-10T10:01:13.933Z</time></trkpt><trkpt lat="44.1292733" lon="8.0788783"><ele>960.0</ele><time>2026-04-10T10:01:16.932Z</time></trkpt><trkpt lat="44.1293083" lon="8.0787683"><ele>966.0</ele><time>2026-04-10T10:01:34.932Z</time></trkpt><trkpt lat="44.1293683" lon="8.0787183"><ele>972.0</ele><time>2026-04-10T10:01:37.932Z</time></trkpt><trkpt lat="44.129435" lon="8.0786633"><ele>972.3333333333334</ele><time>2026-04-10T10:01:40.932Z</time></trkpt><trkpt lat="44.1294983" lon="8.0786167"><ele>972.6666666666667</ele><time>2026-04-10T10:01:43.932Z</time></trkpt><trkpt lat="44.129565" lon="8.0785417"><ele>973.0</ele><time>2026-04-10T10:01:46.932Z</time></trkpt><trkpt lat="44.129615" lon="8.0784583"><ele>973.3333333333334</ele><time>2026-04-10T10:01:49.932Z</time></trkpt><trkpt lat="44.12966" lon="8.0783517"><ele>973.6666666666667</ele><time>2026-04-10T10:01:51.932Z</time></trkpt><trkpt lat="44.1297083" lon="8.0782333"><ele>974.0</ele><time>2026-04-10T10:01:53.932Z</time></trkpt><trkpt lat="44.129735" lon="8.0781283"><ele>974.0</ele><time>2026-04-10T10:01:55.932Z</time></trkpt><trkpt lat="44.129735" lon="8.077985"><ele>974.0000000000001</ele><time>2026-04-10T10:01:57.932Z</time></trkpt><trkpt lat="44.1297167" lon="8.0778417"><ele>974.0000000000001</ele><time>2026-04-10T10:01:59.932Z</time></trkpt><trkpt lat="44.1296933" lon="8.077685"><ele>974.0</ele><time>2026-04-10T10:02:01.932Z</time></trkpt><trkpt lat="44.12967" lon="8.0775233"><ele>974.0</ele><time>2026-04-10T10:02:03.932Z</time></trkpt><trkpt lat="44.1296433" lon="8.07738"><ele>971.8000000000001</ele><time>2026-04-10T10:02:05.932Z</time></trkpt><trkpt lat="44.1296117" lon="8.0772433"><ele>969.6000000000001</ele><time>2026-04-10T10:02:07.932Z</time></trkpt><trkpt lat="44.1296" lon="8.0771283"><ele>967.4</ele><time>2026-04-10T10:02:09.932Z</time></trkpt><trkpt lat="44.12961" lon="8.07699"><ele>965.2</ele><time>2026-04-10T10:02:11.932Z</time></trkpt><trkpt lat="44.1296233" lon="8.0768467"><ele>963.0</ele><time>2026-04-10T10:02:13.932Z</time></trkpt><trkpt lat="44.1296317" lon="8.0766933"><ele>963.8</ele><time>2026-04-10T10:02:15.932Z</time></trkpt><trkpt lat="44.1296517" lon="8.0765433"><ele>964.5999999999999</ele><time>2026-04-10T10:02:17.93Z</time></trkpt><trkpt lat="44.1296683" lon="8.0764133"><ele>965.4000000000001</ele><time>2026-04-10T10:02:19.932Z</time></trkpt><trkpt lat="44.1296767" lon="8.076285"><ele>966.2</ele><time>2026-04-10T10:02:21.933Z</time></trkpt><trkpt lat="44.1296933" lon="8.076145"><ele>967.0</ele><time>2026-04-10T10:02:23.932Z</time></trkpt><trkpt lat="44.1297183" lon="8.0760067"><ele>967.0</ele><time>2026-04-10T10:02:25.932Z</time></trkpt><trkpt lat="44.1297683" lon="8.0758683"><ele>967.0</ele><time>2026-04-10T10:02:27.932Z</time></trkpt><trkpt lat="44.1298033" lon="8.0757567"><ele>967.0</ele><time>2026-04-10T10:02:29.932Z</time></trkpt><trkpt lat="44.12985" lon="8.0756733"><ele>967.0</ele><time>2026-04-10T10:02:31.932Z</time></trkpt><trkpt lat="44.1299167" lon="8.0755433"><ele>967.0</ele><time>2026-04-10T10:02:37.932Z</time></trkpt><trkpt lat="44.1299667" lon="8.0754467"><ele>970.8333333333333</ele><time>2026-04-10T10:02:39.932Z</time></trkpt><trkpt lat="44.1300067" lon="8.075345"><ele>974.6666666666666</ele><time>2026-04-10T10:02:41.932Z</time></trkpt><trkpt lat="44.1300267" lon="8.0752617"><ele>978.5</ele><time>2026-04-10T10:02:43.932Z</time></trkpt><trkpt lat="44.13006" lon="8.0751833"><ele>982.3333333333333</ele><time>2026-04-10T10:02:45.932Z</time></trkpt><trkpt lat="44.13013" lon="8.0750267"><ele>986.1666666666666</ele><time>2026-04-10T10:02:47.932Z</time></trkpt><trkpt lat="44.130175" lon="8.0749333"><ele>990.0</ele><time>2026-04-10T10:02:48.933Z</time></trkpt><trkpt lat="44.1302317" lon="8.074835"><ele>990.0</ele><time>2026-04-10T10:02:49.932Z</time></trkpt><trkpt lat="44.130295" lon="8.0747383"><ele>990.0</ele><time>2026-04-10T10:02:50.932Z</time></trkpt><trkpt lat="44.1303617" lon="8.0746567"><ele>990.0</ele><time>2026-04-10T10:02:51.932Z</time></trkpt><trkpt lat="44.13042" lon="8.074595"><ele>990.0</ele><time>2026-04-10T10:02:52.932Z</time></trkpt><trkpt lat="44.1304733" lon="8.0745467"><ele>990.0</ele><time>2026-04-10T10:02:53.933Z</time></trkpt><trkpt lat="44.1305667" lon="8.07448"><ele>990.0</ele><time>2026-04-10T10:02:55.932Z</time></trkpt><trkpt lat="44.1306167" lon="8.0743917"><ele>990.0</ele><time>2026-04-10T10:02:57.932Z</time></trkpt><trkpt lat="44.13062" lon="8.074295"><ele>990.0</ele><time>2026-04-10T10:03:00.932Z</time></trkpt><trkpt lat="44.1306567" lon="8.0742083"><ele>990.0</ele><time>2026-04-10T10:03:19.932Z</time></trkpt><trkpt lat="44.1306733" lon="8.074115"><ele>990.0</ele><time>2026-04-10T10:03:21.932Z</time></trkpt><trkpt lat="44.1306483" lon="8.0739667"><ele>990.0</ele><time>2026-04-10T10:03:23.932Z</time></trkpt><trkpt lat="44.130635" lon="8.0738783"><ele>990.0</ele><time>2026-04-10T10:03:24.933Z</time></trkpt><trkpt lat="44.1305867" lon="8.0737183"><ele>987.1666666666666</ele><time>2026-04-10T10:03:26.933Z</time></trkpt><trkpt lat="44.1305767" lon="8.0736317"><ele>984.3333333333333</ele><time>2026-04-10T10:03:27.932Z</time></trkpt><trkpt lat="44.1305783" lon="8.0735417"><ele>981.5</ele><time>2026-04-10T10:03:28.932Z</time></trkpt><trkpt lat="44.1305733" lon="8.0734483"><ele>978.6666666666666</ele><time>2026-04-10T10:03:29.932Z</time></trkpt><trkpt lat="44.13058" lon="8.073275"><ele>975.8333333333333</ele><time>2026-04-10T10:03:31.933Z</time></trkpt><trkpt lat="44.13059" lon="8.0731417"><ele>973.0</ele><time>2026-04-10T10:03:33.932Z</time></trkpt><trkpt lat="44.1306267" lon="8.073045"><ele>976.5999999999999</ele><time>2026-04-10T10:03:37.932Z</time></trkpt><trkpt lat="44.1306783" lon="8.07294"><ele>980.1999999999999</ele><time>2026-04-10T10:03:40.932Z</time></trkpt><trkpt lat="44.13073" lon="8.0728733"><ele>983.8</ele><time>2026-04-10T10:03:42.932Z</time></trkpt><trkpt lat="44.1307983" lon="8.07278"><ele>987.4</ele><time>2026-04-10T10:03:45.932Z</time></trkpt><trkpt lat="44.1308483" lon="8.0727"><ele>991.0</ele><time>2026-04-10T10:03:47.932Z</time></trkpt><trkpt lat="44.130945" lon="8.072575"><ele>991.0</ele><time>2026-04-10T10:04:09.932Z</time></trkpt><trkpt lat="44.130985" lon="8.0725067"><ele>990.9999999999999</ele><time>2026-04-10T10:04:11.932Z</time></trkpt><trkpt lat="44.13101" lon="8.07241"><ele>990.9999999999999</ele><time>2026-04-10T10:04:13.932Z</time></trkpt><trkpt lat="44.1309817" lon="8.0721967"><ele>991.0</ele><time>2026-04-10T10:05:49.931Z</time></trkpt><trkpt lat="44.1310667" lon="8.0720667"><ele>991.0</ele><time>2026-04-10T10:07:57.931Z</time></trkpt><trkpt lat="44.1310967" lon="8.07197"><ele>985.8333333333333</ele><time>2026-04-10T10:08:12.931Z</time></trkpt><trkpt lat="44.13112" lon="8.0718483"><ele>980.6666666666666</ele><time>2026-04-10T10:08:15.931Z</time></trkpt><trkpt lat="44.131125" lon="8.0717333"><ele>975.5</ele><time>2026-04-10T10:08:18.931Z</time></trkpt><trkpt lat="44.13117" lon="8.0716217"><ele>970.3333333333333</ele><time>2026-04-10T10:08:25.931Z</time></trkpt><trkpt lat="44.1312417" lon="8.071515"><ele>965.1666666666666</ele><time>2026-04-10T10:08:36.931Z</time></trkpt><trkpt lat="44.131295" lon="8.0714433"><ele>960.0</ele><time>2026-04-10T10:08:39.932Z</time></trkpt><trkpt lat="44.131345" lon="8.0713633"><ele>957.6666666666666</ele><time>2026-04-10T10:08:42.931Z</time></trkpt><trkpt lat="44.1313933" lon="8.0712517"><ele>955.3333333333333</ele><time>2026-04-10T10:08:47.931Z</time></trkpt><trkpt lat="44.1314833" lon="8.07114"><ele>953.0</ele><time>2026-04-10T10:09:26.931Z</time></trkpt><trkpt lat="44.1315217" lon="8.07107"><ele>950.6666666666666</ele><time>2026-04-10T10:09:29.931Z</time></trkpt><trkpt lat="44.1315883" lon="8.0709733"><ele>948.3333333333333</ele><time>2026-04-10T10:09:34.932Z</time></trkpt><trkpt lat="44.1316517" lon="8.0709233"><ele>946.0</ele><time>2026-04-10T10:09:38.931Z</time></trkpt><trkpt lat="44.1317317" lon="8.0707467"><ele>939.0</ele><time>2026-04-10T10:09:54.931Z</time></trkpt><trkpt lat="44.1317767" lon="8.0705367"><ele>932.0</ele><time>2026-04-10T10:10:05.931Z</time></trkpt><trkpt lat="44.1318017" lon="8.070445"><ele>925.0</ele><time>2026-04-10T10:10:07.931Z</time></trkpt><trkpt lat="44.1318417" lon="8.07022"><ele>918.0</ele><time>2026-04-10T10:10:28.931Z</time></trkpt><trkpt lat="44.1319333" lon="8.07007"><ele>918.0</ele><time>2026-04-10T10:10:39.931Z</time></trkpt><trkpt lat="44.1319917" lon="8.069945"><ele>918.0</ele><time>2026-04-10T10:10:41.931Z</time></trkpt><trkpt lat="44.1320367" lon="8.0698367"><ele>918.0</ele><time>2026-04-10T10:10:43.931Z</time></trkpt><trkpt lat="44.132065" lon="8.069755"><ele>918.0</ele><time>2026-04-10T10:10:45.931Z</time></trkpt><trkpt lat="44.132105" lon="8.06967"><ele>918.0</ele><time>2026-04-10T10:10:48.931Z</time></trkpt><trkpt lat="44.132145" lon="8.06957"><ele>918.0</ele><time>2026-04-10T10:10:51.931Z</time></trkpt><trkpt lat="44.1321667" lon="8.069415"><ele>911.4</ele><time>2026-04-10T10:11:18.932Z</time></trkpt><trkpt lat="44.1321567" lon="8.0692333"><ele>904.8</ele><time>2026-04-10T10:12:43.931Z</time></trkpt><trkpt lat="44.1321967" lon="8.0691083"><ele>898.2</ele><time>2026-04-10T10:14:15.932Z</time></trkpt><trkpt lat="44.132195" lon="8.068925"><ele>891.6</ele><time>2026-04-10T10:14:24.931Z</time></trkpt><trkpt lat="44.13221" lon="8.068835"><ele>885.0</ele><time>2026-04-10T10:14:26.931Z</time></trkpt><trkpt lat="44.13224" lon="8.06873"><ele>887.7142857142857</ele><time>2026-04-10T10:14:29.931Z</time></trkpt><trkpt lat="44.13226" lon="8.0686433"><ele>890.4285714285713</ele><time>2026-04-10T10:15:07.931Z</time></trkpt><trkpt lat="44.1322933" lon="8.06854"><ele>893.1428571428571</ele><time>2026-04-10T10:15:11.931Z</time></trkpt><trkpt lat="44.1323483" lon="8.068495"><ele>895.8571428571429</ele><time>2026-04-10T10:15:14.931Z</time></trkpt><trkpt lat="44.1324183" lon="8.0684583"><ele>898.5714285714286</ele><time>2026-04-10T10:15:18.931Z</time></trkpt><trkpt lat="44.1324667" lon="8.0683833"><ele>901.2857142857143</ele><time>2026-04-10T10:15:41.931Z</time></trkpt><trkpt lat="44.1325217" lon="8.068285"><ele>904.0</ele><time>2026-04-10T10:16:00.931Z</time></trkpt><trkpt lat="44.13263" lon="8.0682367"><ele>904.5</ele><time>2026-04-10T10:16:16.931Z</time></trkpt><trkpt lat="44.1327683" lon="8.0682117"><ele>905.0</ele><time>2026-04-10T10:16:44.931Z</time></trkpt><trkpt lat="44.1328117" lon="8.0681467"><ele>905.5</ele><time>2026-04-10T10:16:46.932Z</time></trkpt><trkpt lat="44.1329417" lon="8.0679583"><ele>906.0</ele><time>2026-04-10T10:17:51.931Z</time></trkpt><trkpt lat="44.1329933" lon="8.0678683"><ele>906.0</ele><time>2026-04-10T10:17:54.932Z</time></trkpt><trkpt lat="44.133045" lon="8.06781"><ele>906.0</ele><time>2026-04-10T10:17:56.931Z</time></trkpt><trkpt lat="44.1331167" lon="8.0677617"><ele>906.0</ele><time>2026-04-10T10:18:01.931Z</time></trkpt><trkpt lat="44.13304" lon="8.0677717"><ele>906.0</ele><time>2026-04-10T10:26:15.931Z</time></trkpt><trkpt lat="44.132995" lon="8.0678667"><ele>906.0</ele><time>2026-04-10T10:26:18.931Z</time></trkpt><trkpt lat="44.1329383" lon="8.0679567"><ele>906.0</ele><time>2026-04-10T10:26:21.932Z</time></trkpt><trkpt lat="44.1328867" lon="8.0680667"><ele>906.0</ele><time>2026-04-10T10:26:24.931Z</time></trkpt><trkpt lat="44.1328317" lon="8.0681467"><ele>905.9999999999999</ele><time>2026-04-10T10:26:27.931Z</time></trkpt><trkpt lat="44.13281" lon="8.06823"><ele>905.9999999999999</ele><time>2026-04-10T10:26:30.931Z</time></trkpt><trkpt lat="44.13269" lon="8.06823"><ele>906.0</ele><time>2026-04-10T10:26:42.931Z</time></trkpt><trkpt lat="44.1326383" lon="8.0682917"><ele>906.0</ele><time>2026-04-10T10:26:46.931Z</time></trkpt><trkpt lat="44.1325167" lon="8.0683467"><ele>905.5999999999999</ele><time>2026-04-10T10:27:07.931Z</time></trkpt><trkpt lat="44.132405" lon="8.0684317"><ele>905.1999999999999</ele><time>2026-04-10T10:27:35.931Z</time></trkpt><trkpt lat="44.132295" lon="8.0685617"><ele>904.8000000000001</ele><time>2026-04-10T10:27:46.931Z</time></trkpt><trkpt lat="44.132255" lon="8.0686417"><ele>904.4000000000001</ele><time>2026-04-10T10:27:50.931Z</time></trkpt><trkpt lat="44.1322133" lon="8.0687583"><ele>904.0</ele><time>2026-04-10T10:27:53.931Z</time></trkpt><trkpt lat="44.1321833" lon="8.0688917"><ele>900.8333333333333</ele><time>2026-04-10T10:28:11.931Z</time></trkpt><trkpt lat="44.1321717" lon="8.0689917"><ele>897.6666666666666</ele><time>2026-04-10T10:28:14.931Z</time></trkpt><trkpt lat="44.1321483" lon="8.06909"><ele>894.5</ele><time>2026-04-10T10:28:17.932Z</time></trkpt><trkpt lat="44.1321333" lon="8.0691917"><ele>891.3333333333333</ele><time>2026-04-10T10:28:23.932Z</time></trkpt><trkpt lat="44.13213" lon="8.0692883"><ele>888.1666666666666</ele><time>2026-04-10T10:28:26.931Z</time></trkpt><trkpt lat="44.1321417" lon="8.0694867"><ele>885.0</ele><time>2026-04-10T10:28:38.931Z</time></trkpt><trkpt lat="44.1320983" lon="8.0695817"><ele>885.0</ele><time>2026-04-10T10:28:41.931Z</time></trkpt><trkpt lat="44.1320733" lon="8.0696783"><ele>885.0</ele><time>2026-04-10T10:28:43.931Z</time></trkpt><trkpt lat="44.13204" lon="8.06979"><ele>885.0</ele><time>2026-04-10T10:28:45.931Z</time></trkpt><trkpt lat="44.131995" lon="8.06988"><ele>885.0</ele><time>2026-04-10T10:28:47.931Z</time></trkpt><trkpt lat="44.1319183" lon="8.0699867"><ele>885.0</ele><time>2026-04-10T10:28:53.931Z</time></trkpt><trkpt lat="44.1318433" lon="8.070115"><ele>889.7142857142857</ele><time>2026-04-10T10:29:03.931Z</time></trkpt><trkpt lat="44.13183" lon="8.0702133"><ele>894.4285714285713</ele><time>2026-04-10T10:29:07.931Z</time></trkpt><trkpt lat="44.13181" lon="8.0703"><ele>899.1428571428571</ele><time>2026-04-10T10:29:09.931Z</time></trkpt><trkpt lat="44.1317867" lon="8.07041"><ele>903.8571428571429</ele><time>2026-04-10T10:29:11.931Z</time></trkpt><trkpt lat="44.1317783" lon="8.0704983"><ele>908.5714285714286</ele><time>2026-04-10T10:29:13.931Z</time></trkpt><trkpt lat="44.1317833" lon="8.0705917"><ele>913.2857142857143</ele><time>2026-04-10T10:29:16.931Z</time></trkpt><trkpt lat="44.1317383" lon="8.070655"><ele>918.0</ele><time>2026-04-10T10:29:19.931Z</time></trkpt><trkpt lat="44.1316967" lon="8.0707433"><ele>918.0</ele><time>2026-04-10T10:29:23.931Z</time></trkpt><trkpt lat="44.1316767" lon="8.0708517"><ele>918.0</ele><time>2026-04-10T10:29:26.931Z</time></trkpt><trkpt lat="44.1316183" lon="8.0709033"><ele>918.0</ele><time>2026-04-10T10:29:29.932Z</time></trkpt><trkpt lat="44.131565" lon="8.07096"><ele>918.0</ele><time>2026-04-10T10:29:31.931Z</time></trkpt><trkpt lat="44.1314917" lon="8.0710867"><ele>918.0</ele><time>2026-04-10T10:29:41.931Z</time></trkpt><trkpt lat="44.1314217" lon="8.0711767"><ele>918.0</ele><time>2026-04-10T10:29:58.931Z</time></trkpt><trkpt lat="44.1313817" lon="8.0712767"><ele>918.0</ele><time>2026-04-10T10:30:02.931Z</time></trkpt><trkpt lat="44.1313383" lon="8.0713633"><ele>918.0</ele><time>2026-04-10T10:30:04.931Z</time></trkpt><trkpt lat="44.13127" lon="8.0714167"><ele>918.0</ele><time>2026-04-10T10:30:06.932Z</time></trkpt><trkpt lat="44.1312117" lon="8.0714833"><ele>918.0</ele><time>2026-04-10T10:30:08.931Z</time></trkpt><trkpt lat="44.13117" lon="8.0715517"><ele>918.0</ele><time>2026-04-10T10:30:10.931Z</time></trkpt><trkpt lat="44.13114" lon="8.07166"><ele>918.0</ele><time>2026-04-10T10:30:13.931Z</time></trkpt><trkpt lat="44.1311433" lon="8.0717733"><ele>928.5</ele><time>2026-04-10T10:30:16.931Z</time></trkpt><trkpt lat="44.1311133" lon="8.0718883"><ele>939.0</ele><time>2026-04-10T10:30:51.931Z</time></trkpt><trkpt lat="44.1310333" lon="8.0720867"><ele>949.5</ele><time>2026-04-10T10:31:07.931Z</time></trkpt><trkpt lat="44.1309917" lon="8.0721683"><ele>960.0</ele><time>2026-04-10T10:31:10.931Z</time></trkpt><trkpt lat="44.1310283" lon="8.072355"><ele>965.1666666666666</ele><time>2026-04-10T10:34:06.932Z</time></trkpt><trkpt lat="44.130995" lon="8.07247"><ele>970.3333333333333</ele><time>2026-04-10T10:34:08.932Z</time></trkpt><trkpt lat="44.1309533" lon="8.0725567"><ele>975.5</ele><time>2026-04-10T10:34:10.931Z</time></trkpt><trkpt lat="44.130895" lon="8.0726317"><ele>980.6666666666666</ele><time>2026-04-10T10:34:13.931Z</time></trkpt><trkpt lat="44.1308267" lon="8.072745"><ele>985.8333333333333</ele><time>2026-04-10T10:34:15.931Z</time></trkpt><trkpt lat="44.13078" lon="8.072825"><ele>991.0</ele><time>2026-04-10T10:34:16.931Z</time></trkpt><trkpt lat="44.1307333" lon="8.0729033"><ele>987.9999999999999</ele><time>2026-04-10T10:34:17.931Z</time></trkpt><trkpt lat="44.1306883" lon="8.0729733"><ele>985.0</ele><time>2026-04-10T10:34:18.932Z</time></trkpt><trkpt lat="44.1306183" lon="8.0731117"><ele>982.0</ele><time>2026-04-10T10:34:20.931Z</time></trkpt><trkpt lat="44.1305917" lon="8.0732"><ele>979.0</ele><time>2026-04-10T10:34:21.931Z</time></trkpt><trkpt lat="44.1305717" lon="8.07329"><ele>975.9999999999999</ele><time>2026-04-10T10:34:22.931Z</time></trkpt><trkpt lat="44.1305667" lon="8.0733783"><ele>973.0</ele><time>2026-04-10T10:34:23.932Z</time></trkpt><trkpt lat="44.1305667" lon="8.0734767"><ele>972.9999999999999</ele><time>2026-04-10T10:34:24.931Z</time></trkpt><trkpt lat="44.1305667" lon="8.0735867"><ele>973.0</ele><time>2026-04-10T10:34:25.932Z</time></trkpt><trkpt lat="44.130575" lon="8.07369"><ele>973.0</ele><time>2026-04-10T10:34:26.931Z</time></trkpt><trkpt lat="44.1306133" lon="8.0738483"><ele>973.0</ele><time>2026-04-10T10:34:28.931Z</time></trkpt><trkpt lat="44.1306433" lon="8.0739367"><ele>972.9999999999999</ele><time>2026-04-10T10:34:29.931Z</time></trkpt><trkpt lat="44.1306817" lon="8.0740717"><ele>973.0</ele><time>2026-04-10T10:34:31.931Z</time></trkpt><trkpt lat="44.1306933" lon="8.07419"><ele>975.8333333333333</ele><time>2026-04-10T10:34:33.931Z</time></trkpt><trkpt lat="44.130685" lon="8.0742983"><ele>978.6666666666666</ele><time>2026-04-10T10:34:35.931Z</time></trkpt><trkpt lat="44.1306383" lon="8.0743767"><ele>981.5</ele><time>2026-04-10T10:34:38.931Z</time></trkpt><trkpt lat="44.1305767" lon="8.07445"><ele>984.3333333333333</ele><time>2026-04-10T10:34:41.932Z</time></trkpt><trkpt lat="44.1305217" lon="8.0745317"><ele>987.1666666666666</ele><time>2026-04-10T10:34:43.931Z</time></trkpt><trkpt lat="44.130405" lon="8.0746117"><ele>990.0</ele><time>2026-04-10T10:34:45.931Z</time></trkpt><trkpt lat="44.1303317" lon="8.074665"><ele>990.0</ele><time>2026-04-10T10:34:46.931Z</time></trkpt><trkpt lat="44.1302633" lon="8.0747317"><ele>990.0</ele><time>2026-04-10T10:34:47.932Z</time></trkpt><trkpt lat="44.13021" lon="8.0748133"><ele>990.0</ele><time>2026-04-10T10:34:48.931Z</time></trkpt><trkpt lat="44.1301667" lon="8.0748917"><ele>990.0</ele><time>2026-04-10T10:34:49.931Z</time></trkpt><trkpt lat="44.1301233" lon="8.0749667"><ele>990.0</ele><time>2026-04-10T10:34:50.931Z</time></trkpt><trkpt lat="44.1300767" lon="8.0751067"><ele>990.0</ele><time>2026-04-10T10:34:52.931Z</time></trkpt><trkpt lat="44.13003" lon="8.075225"><ele>993.0</ele><time>2026-04-10T10:34:54.931Z</time></trkpt><trkpt lat="44.130005" lon="8.0753333"><ele>996.0</ele><time>2026-04-10T10:34:56.931Z</time></trkpt><trkpt lat="44.1299627" lon="8.0754714"><ele>999.0</ele><time>2026-04-10T10:34:58.931Z</time></trkpt><trkpt lat="44.1299269" lon="8.0755445"><ele>1002.0</ele><time>2026-04-10T10:34:59.931Z</time></trkpt><trkpt lat="44.1298531" lon="8.0756914"><ele>1005.0</ele><time>2026-04-10T10:35:01.931Z</time></trkpt><trkpt lat="44.1298064" lon="8.0757756"><ele>998.6666666666666</ele><time>2026-04-10T10:35:02.931Z</time></trkpt><trkpt lat="44.1297578" lon="8.0758615"><ele>992.3333333333333</ele><time>2026-04-10T10:35:03.931Z</time></trkpt><trkpt lat="44.1297216" lon="8.0759549"><ele>986.0</ele><time>2026-04-10T10:35:04.932Z</time></trkpt><trkpt lat="44.1296961" lon="8.0760381"><ele>979.6666666666666</ele><time>2026-04-10T10:35:05.931Z</time></trkpt><trkpt lat="44.1296781" lon="8.0761229"><ele>973.3333333333333</ele><time>2026-04-10T10:35:06.931Z</time></trkpt><trkpt lat="44.1296623" lon="8.0762944"><ele>967.0</ele><time>2026-04-10T10:35:08.931Z</time></trkpt><trkpt lat="44.1296479" lon="8.0763879"><ele>966.9999999999999</ele><time>2026-04-10T10:35:09.931Z</time></trkpt><trkpt lat="44.129641" lon="8.0764819"><ele>967.0</ele><time>2026-04-10T10:35:10.931Z</time></trkpt><trkpt lat="44.1296322" lon="8.0765769"><ele>967.0</ele><time>2026-04-10T10:35:11.932Z</time></trkpt><trkpt lat="44.129619" lon="8.0766695"><ele>967.0</ele><time>2026-04-10T10:35:12.932Z</time></trkpt><trkpt lat="44.129603" lon="8.0768313"><ele>966.9999999999999</ele><time>2026-04-10T10:35:14.931Z</time></trkpt><trkpt lat="44.1295943" lon="8.0770066"><ele>967.0</ele><time>2026-04-10T10:35:16.931Z</time></trkpt><trkpt lat="44.1295819" lon="8.0770926"><ele>966.4285714285714</ele><time>2026-04-10T10:35:17.931Z</time></trkpt><trkpt lat="44.1295664" lon="8.0771804"><ele>965.8571428571429</ele><time>2026-04-10T10:35:18.932Z</time></trkpt><trkpt lat="44.1295619" lon="8.0772692"><ele>965.2857142857143</ele><time>2026-04-10T10:35:19.931Z</time></trkpt><trkpt lat="44.1295527" lon="8.0773587"><ele>964.7142857142858</ele><time>2026-04-10T10:35:20.931Z</time></trkpt><trkpt lat="44.1295383" lon="8.0774471"><ele>964.1428571428571</ele><time>2026-04-10T10:35:21.931Z</time></trkpt><trkpt lat="44.1295276" lon="8.0775601"><ele>963.5714285714287</ele><time>2026-04-10T10:35:23.931Z</time></trkpt><trkpt lat="44.1295808" lon="8.0776419"><ele>963.0000000000001</ele><time>2026-04-10T10:35:26.931Z</time></trkpt><trkpt lat="44.129635" lon="8.0777133"><ele>964.8333333333334</ele><time>2026-04-10T10:35:29.931Z</time></trkpt><trkpt lat="44.1296887" lon="8.0778095"><ele>966.6666666666667</ele><time>2026-04-10T10:35:37.931Z</time></trkpt><trkpt lat="44.1297083" lon="8.0779249"><ele>968.5</ele><time>2026-04-10T10:35:40.931Z</time></trkpt><trkpt lat="44.1297157" lon="8.0780388"><ele>970.3333333333334</ele><time>2026-04-10T10:35:43.931Z</time></trkpt><trkpt lat="44.1296955" lon="8.0781512"><ele>972.1666666666667</ele><time>2026-04-10T10:35:46.931Z</time></trkpt><trkpt lat="44.1296681" lon="8.0782477"><ele>974.0</ele><time>2026-04-10T10:35:48.931Z</time></trkpt><trkpt lat="44.1296477" lon="8.0783343"><ele>974.8333333333334</ele><time>2026-04-10T10:35:52.931Z</time></trkpt><trkpt lat="44.1295938" lon="8.078431"><ele>975.6666666666667</ele><time>2026-04-10T10:35:56.931Z</time></trkpt><trkpt lat="44.1295355" lon="8.078502"><ele>976.5</ele><time>2026-04-10T10:35:58.931Z</time></trkpt><trkpt lat="44.1294639" lon="8.0785729"><ele>977.3333333333333</ele><time>2026-04-10T10:36:01.931Z</time></trkpt><trkpt lat="44.1294117" lon="8.0786313"><ele>978.1666666666666</ele><time>2026-04-10T10:36:04.931Z</time></trkpt><trkpt lat="44.1293517" lon="8.0786847"><ele>979.0</ele><time>2026-04-10T10:36:18.931Z</time></trkpt><trkpt lat="44.1292873" lon="8.0787876"><ele>978.9999999999999</ele><time>2026-04-10T10:37:08.931Z</time></trkpt><trkpt lat="44.1292136" lon="8.0788537"><ele>979.0</ele><time>2026-04-10T10:37:11.931Z</time></trkpt><trkpt lat="44.1291842" lon="8.0789742"><ele>979.0</ele><time>2026-04-10T10:37:36.931Z</time></trkpt><trkpt lat="44.1291682" lon="8.0790618"><ele>979.0</ele><time>2026-04-10T10:37:38.932Z</time></trkpt><trkpt lat="44.1291221" lon="8.0791501"><ele>978.9999999999999</ele><time>2026-04-10T10:37:41.931Z</time></trkpt><trkpt lat="44.1291494" lon="8.0792581"><ele>979.0</ele><time>2026-04-10T10:38:46.932Z</time></trkpt><trkpt lat="44.1291032" lon="8.0793358"><ele>970.8333333333333</ele><time>2026-04-10T10:38:49.931Z</time></trkpt><trkpt lat="44.1290468" lon="8.0794071"><ele>962.6666666666666</ele><time>2026-04-10T10:38:53.931Z</time></trkpt><trkpt lat="44.1289853" lon="8.0794488"><ele>954.5</ele><time>2026-04-10T10:38:56.931Z</time></trkpt><trkpt lat="44.1289149" lon="8.0794595"><ele>946.3333333333333</ele><time>2026-04-10T10:38:59.931Z</time></trkpt><trkpt lat="44.1288568" lon="8.0795871"><ele>938.1666666666666</ele><time>2026-04-10T10:39:16.931Z</time></trkpt><trkpt lat="44.1288297" lon="8.0796938"><ele>930.0</ele><time>2026-04-10T10:39:19.931Z</time></trkpt><trkpt lat="44.1287769" lon="8.0797831"><ele>930.0</ele><time>2026-04-10T10:39:24.932Z</time></trkpt><trkpt lat="44.1287375" lon="8.0798624"><ele>930.0</ele><time>2026-04-10T10:39:28.932Z</time></trkpt><trkpt lat="44.1287092" lon="8.0799718"><ele>930.0</ele><time>2026-04-10T10:39:31.931Z</time></trkpt><trkpt lat="44.1286797" lon="8.0800871"><ele>930.0</ele><time>2026-04-10T10:39:33.932Z</time></trkpt><trkpt lat="44.1286632" lon="8.0801968"><ele>930.0</ele><time>2026-04-10T10:39:35.931Z</time></trkpt><trkpt lat="44.1286429" lon="8.0803087"><ele>930.0</ele><time>2026-04-10T10:39:38.931Z</time></trkpt><trkpt lat="44.1285853" lon="8.0804122"><ele>930.8333333333334</ele><time>2026-04-10T10:39:41.931Z</time></trkpt><trkpt lat="44.1285422" lon="8.080522"><ele>931.6666666666667</ele><time>2026-04-10T10:39:44.931Z</time></trkpt><trkpt lat="44.1285202" lon="8.0806075"><ele>932.5</ele><time>2026-04-10T10:39:46.931Z</time></trkpt><trkpt lat="44.1284744" lon="8.0806807"><ele>933.3333333333334</ele><time>2026-04-10T10:39:48.931Z</time></trkpt><trkpt lat="44.128421" lon="8.0807681"><ele>934.1666666666667</ele><time>2026-04-10T10:39:50.932Z</time></trkpt><trkpt lat="44.1283647" lon="8.0808416"><ele>935.0</ele><time>2026-04-10T10:39:52.931Z</time></trkpt><trkpt lat="44.1283121" lon="8.0808983"><ele>935.4285714285716</ele><time>2026-04-10T10:39:57.931Z</time></trkpt><trkpt lat="44.1282401" lon="8.0809168"><ele>935.8571428571429</ele><time>2026-04-10T10:40:00.931Z</time></trkpt><trkpt lat="44.1281906" lon="8.0809714"><ele>936.2857142857143</ele><time>2026-04-10T10:40:02.931Z</time></trkpt><trkpt lat="44.1281299" lon="8.0810071"><ele>936.7142857142858</ele><time>2026-04-10T10:40:04.931Z</time></trkpt><trkpt lat="44.12808" lon="8.0809516"><ele>937.1428571428571</ele><time>2026-04-10T10:40:07.932Z</time></trkpt><trkpt lat="44.1280555" lon="8.08085"><ele>937.5714285714286</ele><time>2026-04-10T10:40:11.931Z</time></trkpt><trkpt lat="44.1280432" lon="8.0807584"><ele>938.0</ele><time>2026-04-10T10:40:16.932Z</time></trkpt><trkpt lat="44.1280745" lon="8.0806464"><ele>929.6666666666667</ele><time>2026-04-10T10:40:24.931Z</time></trkpt><trkpt lat="44.1280785" lon="8.0805447"><ele>921.3333333333334</ele><time>2026-04-10T10:40:27.931Z</time></trkpt><trkpt lat="44.1280589" lon="8.0804274"><ele>913.0</ele><time>2026-04-10T10:40:30.931Z</time></trkpt><trkpt lat="44.1279779" lon="8.0804591"><ele>904.6666666666667</ele><time>2026-04-10T10:40:35.931Z</time></trkpt><trkpt lat="44.12794" lon="8.0803496"><ele>896.3333333333334</ele><time>2026-04-10T10:40:41.931Z</time></trkpt><trkpt lat="44.1279332" lon="8.0802266"><ele>888.0</ele><time>2026-04-10T10:40:44.931Z</time></trkpt><trkpt lat="44.1279329" lon="8.0801061"><ele>888.0</ele><time>2026-04-10T10:40:47.931Z</time></trkpt><trkpt lat="44.1279273" lon="8.0799989"><ele>888.0</ele><time>2026-04-10T10:40:50.932Z</time></trkpt><trkpt lat="44.1279051" lon="8.0799039"><ele>888.0</ele><time>2026-04-10T10:40:53.932Z</time></trkpt><trkpt lat="44.1278488" lon="8.079833"><ele>888.0</ele><time>2026-04-10T10:41:20.931Z</time></trkpt><trkpt lat="44.1277829" lon="8.0798545"><ele>888.0</ele><time>2026-04-10T10:41:59.93Z</time></trkpt><trkpt lat="44.1277323" lon="8.0799155"><ele>888.0</ele><time>2026-04-10T10:42:02.93Z</time></trkpt><trkpt lat="44.1277126" lon="8.0800248"><ele>888.0</ele><time>2026-04-10T10:42:13.93Z</time></trkpt><trkpt lat="44.127635" lon="8.0800768"><ele>888.0</ele><time>2026-04-10T10:42:49.93Z</time></trkpt><trkpt lat="44.1275861" lon="8.0801473"><ele>888.0</ele><time>2026-04-10T10:42:52.93Z</time></trkpt><trkpt lat="44.1275068" lon="8.0801978"><ele>888.0</ele><time>2026-04-10T10:42:56.931Z</time></trkpt><trkpt lat="44.1274337" lon="8.0802406"><ele>888.0</ele><time>2026-04-10T10:42:59.93Z</time></trkpt><trkpt lat="44.1273585" lon="8.0802739"><ele>888.0</ele><time>2026-04-10T10:43:02.93Z</time></trkpt><trkpt lat="44.1272837" lon="8.0802757"><ele>888.0</ele><time>2026-04-10T10:43:05.93Z</time></trkpt><trkpt lat="44.1272665" lon="8.0801893"><ele>880.5</ele><time>2026-04-10T10:44:10.93Z</time></trkpt><trkpt lat="44.1271919" lon="8.0801635"><ele>873.0</ele><time>2026-04-10T10:44:12.93Z</time></trkpt><trkpt lat="44.1271218" lon="8.0801431"><ele>865.5</ele><time>2026-04-10T10:44:14.93Z</time></trkpt><trkpt lat="44.1270466" lon="8.0801564"><ele>858.0</ele><time>2026-04-10T10:44:18.93Z</time></trkpt><trkpt lat="44.1269752" lon="8.0801924"><ele>850.5</ele><time>2026-04-10T10:44:21.93Z</time></trkpt><trkpt lat="44.1269019" lon="8.080249"><ele>843.0</ele><time>2026-04-10T10:44:24.931Z</time></trkpt><trkpt lat="44.1268449" lon="8.0803037"><ele>843.0</ele><time>2026-04-10T10:44:26.931Z</time></trkpt><trkpt lat="44.1267961" lon="8.0803728"><ele>843.0</ele><time>2026-04-10T10:44:28.93Z</time></trkpt><trkpt lat="44.1267412" lon="8.080423"><ele>843.0</ele><time>2026-04-10T10:44:31.93Z</time></trkpt><trkpt lat="44.1266517" lon="8.0803873"><ele>843.0</ele><time>2026-04-10T10:44:37.93Z</time></trkpt><trkpt lat="44.1265818" lon="8.0803837"><ele>843.0</ele><time>2026-04-10T10:44:39.931Z</time></trkpt><trkpt lat="44.1264947" lon="8.0804053"><ele>843.0</ele><time>2026-04-10T10:44:42.93Z</time></trkpt><trkpt lat="44.1264352" lon="8.0804571"><ele>836.1666666666666</ele><time>2026-04-10T10:44:45.93Z</time></trkpt><trkpt lat="44.1263597" lon="8.0804896"><ele>829.3333333333333</ele><time>2026-04-10T10:44:48.93Z</time></trkpt><trkpt lat="44.1262831" lon="8.080502"><ele>822.5</ele><time>2026-04-10T10:44:52.93Z</time></trkpt><trkpt lat="44.1261652" lon="8.0805097"><ele>815.6666666666666</ele><time>2026-04-10T10:45:05.93Z</time></trkpt><trkpt lat="44.126084" lon="8.0805398"><ele>808.8333333333333</ele><time>2026-04-10T10:45:09.93Z</time></trkpt><trkpt lat="44.1259965" lon="8.0805223"><ele>802.0</ele><time>2026-04-10T10:45:12.93Z</time></trkpt><trkpt lat="44.1259392" lon="8.0805698"><ele>802.0</ele><time>2026-04-10T10:45:39.93Z</time></trkpt><trkpt lat="44.1258745" lon="8.0806352"><ele>802.0</ele><time>2026-04-10T10:47:17.93Z</time></trkpt><trkpt lat="44.1258348" lon="8.0807245"><ele>802.0</ele><time>2026-04-10T10:47:20.931Z</time></trkpt><trkpt lat="44.1257696" lon="8.080773"><ele>802.0</ele><time>2026-04-10T10:47:23.93Z</time></trkpt><trkpt lat="44.1257093" lon="8.0808036"><ele>802.0</ele><time>2026-04-10T10:47:25.93Z</time></trkpt><trkpt lat="44.1256461" lon="8.0808404"><ele>802.0</ele><time>2026-04-10T10:47:27.93Z</time></trkpt><trkpt lat="44.1256242" lon="8.0809324"><ele>802.0</ele><time>2026-04-10T10:47:32.93Z</time></trkpt><trkpt lat="44.1255624" lon="8.0809984"><ele>803.8333333333333</ele><time>2026-04-10T10:47:36.931Z</time></trkpt><trkpt lat="44.125495" lon="8.0810087"><ele>805.6666666666666</ele><time>2026-04-10T10:47:39.93Z</time></trkpt><trkpt lat="44.1254135" lon="8.081029"><ele>807.5</ele><time>2026-04-10T10:47:44.931Z</time></trkpt><trkpt lat="44.1253286" lon="8.080993"><ele>809.3333333333333</ele><time>2026-04-10T10:47:47.93Z</time></trkpt><trkpt lat="44.1252342" lon="8.0809511"><ele>811.1666666666666</ele><time>2026-04-10T10:47:50.93Z</time></trkpt><trkpt lat="44.1251697" lon="8.0809229"><ele>813.0</ele><time>2026-04-10T10:47:52.931Z</time></trkpt><trkpt lat="44.1250841" lon="8.0808853"><ele>813.0</ele><time>2026-04-10T10:47:55.93Z</time></trkpt><trkpt lat="44.1250056" lon="8.0808575"><ele>813.0</ele><time>2026-04-10T10:47:58.93Z</time></trkpt><trkpt lat="44.1249208" lon="8.0808223"><ele>813.0</ele><time>2026-04-10T10:48:01.931Z</time></trkpt><trkpt lat="44.1248536" lon="8.080794"><ele>813.0</ele><time>2026-04-10T10:48:03.93Z</time></trkpt><trkpt lat="44.1247813" lon="8.080803"><ele>813.0</ele><time>2026-04-10T10:48:06.93Z</time></trkpt><trkpt lat="44.1246868" lon="8.0807971"><ele>813.0</ele><time>2026-04-10T10:48:09.93Z</time></trkpt><trkpt lat="44.1245963" lon="8.0807767"><ele>805.6666666666666</ele><time>2026-04-10T10:48:11.931Z</time></trkpt><trkpt lat="44.1245023" lon="8.0807461"><ele>798.3333333333333</ele><time>2026-04-10T10:48:13.93Z</time></trkpt><trkpt lat="44.1244324" lon="8.0807116"><ele>791.0</ele><time>2026-04-10T10:48:15.93Z</time></trkpt><trkpt lat="44.1243703" lon="8.0806781"><ele>783.6666666666666</ele><time>2026-04-10T10:48:17.931Z</time></trkpt><trkpt lat="44.124298" lon="8.0806278"><ele>776.3333333333333</ele><time>2026-04-10T10:48:20.93Z</time></trkpt><trkpt lat="44.1242193" lon="8.0805605"><ele>769.0</ele><time>2026-04-10T10:48:23.93Z</time></trkpt><trkpt lat="44.1241293" lon="8.0805534"><ele>767.0</ele><time>2026-04-10T10:48:25.93Z</time></trkpt><trkpt lat="44.1240624" lon="8.0805126"><ele>765.0</ele><time>2026-04-10T10:48:29.93Z</time></trkpt><trkpt lat="44.1240109" lon="8.0804544"><ele>763.0</ele><time>2026-04-10T10:48:32.93Z</time></trkpt><trkpt lat="44.1239487" lon="8.0804788"><ele>761.0</ele><time>2026-04-10T10:48:37.931Z</time></trkpt><trkpt lat="44.1238826" lon="8.0804265"><ele>759.0</ele><time>2026-04-10T10:48:42.93Z</time></trkpt><trkpt lat="44.123877" lon="8.0803313"><ele>757.0</ele><time>2026-04-10T10:48:45.93Z</time></trkpt><trkpt lat="44.1238173" lon="8.0804062"><ele>755.0</ele><time>2026-04-10T10:48:54.93Z</time></trkpt><trkpt lat="44.1237695" lon="8.080501"><ele>755.0</ele><time>2026-04-10T10:48:57.93Z</time></trkpt><trkpt lat="44.1237542" lon="8.0805994"><ele>755.0</ele><time>2026-04-10T10:49:00.93Z</time></trkpt><trkpt lat="44.1236999" lon="8.0805348"><ele>755.0</ele><time>2026-04-10T10:49:22.93Z</time></trkpt><trkpt lat="44.1236408" lon="8.0804991"><ele>755.0</ele><time>2026-04-10T10:49:51.931Z</time></trkpt><trkpt lat="44.1235928" lon="8.0804341"><ele>755.0</ele><time>2026-04-10T10:49:53.93Z</time></trkpt><trkpt lat="44.1235734" lon="8.0803467"><ele>755.0</ele><time>2026-04-10T10:49:56.93Z</time></trkpt><trkpt lat="44.123554" lon="8.0802629"><ele>755.0</ele><time>2026-04-10T10:49:59.93Z</time></trkpt><trkpt lat="44.1235567" lon="8.0801302"><ele>755.0</ele><time>2026-04-10T10:50:31.93Z</time></trkpt><trkpt lat="44.1234769" lon="8.0800855"><ele>755.0</ele><time>2026-04-10T10:50:40.93Z</time></trkpt><trkpt lat="44.1234097" lon="8.0800284"><ele>755.0</ele><time>2026-04-10T10:50:43.93Z</time></trkpt><trkpt lat="44.1233483" lon="8.0799379"><ele>755.0</ele><time>2026-04-10T10:50:46.93Z</time></trkpt><trkpt lat="44.123281" lon="8.0799165"><ele>755.0</ele><time>2026-04-10T10:50:49.93Z</time></trkpt><trkpt lat="44.123203" lon="8.0799281"><ele>755.0</ele><time>2026-04-10T10:50:55.93Z</time></trkpt><trkpt lat="44.1231806" lon="8.0800105"><ele>748.6666666666666</ele><time>2026-04-10T10:50:59.93Z</time></trkpt><trkpt lat="44.1231351" lon="8.0800835"><ele>742.3333333333333</ele><time>2026-04-10T10:51:03.93Z</time></trkpt><trkpt lat="44.123103" lon="8.0801961"><ele>736.0</ele><time>2026-04-10T10:51:06.93Z</time></trkpt><trkpt lat="44.1231109" lon="8.0802978"><ele>729.6666666666666</ele><time>2026-04-10T10:51:08.93Z</time></trkpt><trkpt lat="44.1231121" lon="8.0803996"><ele>723.3333333333334</ele><time>2026-04-10T10:51:11.93Z</time></trkpt><trkpt lat="44.1230828" lon="8.0805119"><ele>717.0</ele><time>2026-04-10T10:51:16.93Z</time></trkpt><trkpt lat="44.1230577" lon="8.0805965"><ele>717.0</ele><time>2026-04-10T10:51:18.93Z</time></trkpt><trkpt lat="44.1230168" lon="8.080687"><ele>717.0</ele><time>2026-04-10T10:51:20.931Z</time></trkpt><trkpt lat="44.1229786" lon="8.0807717"><ele>717.0</ele><time>2026-04-10T10:51:23.93Z</time></trkpt><trkpt lat="44.1229234" lon="8.0808139"><ele>717.0</ele><time>2026-04-10T10:51:26.93Z</time></trkpt><trkpt lat="44.1228476" lon="8.0808715"><ele>717.0</ele><time>2026-04-10T10:51:29.93Z</time></trkpt><trkpt lat="44.1227827" lon="8.0808739"><ele>717.0</ele><time>2026-04-10T10:51:32.93Z</time></trkpt><trkpt lat="44.1227265" lon="8.080951"><ele>717.0</ele><time>2026-04-10T10:51:59.93Z</time></trkpt><trkpt lat="44.1227073" lon="8.0810406"><ele>717.7142857142857</ele><time>2026-04-10T10:52:02.93Z</time></trkpt><trkpt lat="44.1227154" lon="8.08113"><ele>718.4285714285713</ele><time>2026-04-10T10:52:06.93Z</time></trkpt><trkpt lat="44.1226866" lon="8.0812185"><ele>719.1428571428571</ele><time>2026-04-10T10:52:10.93Z</time></trkpt><trkpt lat="44.1226313" lon="8.0812731"><ele>719.8571428571429</ele><time>2026-04-10T10:52:14.93Z</time></trkpt><trkpt lat="44.1225541" lon="8.0812636"><ele>720.5714285714286</ele><time>2026-04-10T10:54:54.93Z</time></trkpt><trkpt lat="44.1224797" lon="8.0812489"><ele>721.2857142857143</ele><time>2026-04-10T10:55:11.93Z</time></trkpt><trkpt lat="44.1224702" lon="8.0811215"><ele>722.0</ele><time>2026-04-10T10:55:37.93Z</time></trkpt><trkpt lat="44.1224352" lon="8.0810469"><ele>715.2857142857143</ele><time>2026-04-10T10:55:39.93Z</time></trkpt><trkpt lat="44.1223902" lon="8.0809801"><ele>708.5714285714286</ele><time>2026-04-10T10:55:41.931Z</time></trkpt><trkpt lat="44.1223405" lon="8.0809041"><ele>701.8571428571429</ele><time>2026-04-10T10:55:44.93Z</time></trkpt><trkpt lat="44.1223045" lon="8.0808104"><ele>695.1428571428571</ele><time>2026-04-10T10:55:47.93Z</time></trkpt><trkpt lat="44.1222722" lon="8.0807181"><ele>688.4285714285714</ele><time>2026-04-10T10:55:51.93Z</time></trkpt><trkpt lat="44.1222812" lon="8.0806202"><ele>681.7142857142857</ele><time>2026-04-10T10:55:56.93Z</time></trkpt><trkpt lat="44.1223183" lon="8.0805398"><ele>675.0</ele><time>2026-04-10T10:56:00.93Z</time></trkpt><trkpt lat="44.1223495" lon="8.0804541"><ele>675.0</ele><time>2026-04-10T10:56:04.93Z</time></trkpt><trkpt lat="44.1223435" lon="8.0803647"><ele>675.0</ele><time>2026-04-10T10:56:08.93Z</time></trkpt><trkpt lat="44.1223042" lon="8.0802926"><ele>675.0</ele><time>2026-04-10T10:56:11.93Z</time></trkpt><trkpt lat="44.1222473" lon="8.0802423"><ele>675.0</ele><time>2026-04-10T10:56:14.93Z</time></trkpt><trkpt lat="44.1221888" lon="8.0802029"><ele>675.0</ele><time>2026-04-10T10:56:17.93Z</time></trkpt><trkpt lat="44.1221581" lon="8.0802925"><ele>675.0</ele><time>2026-04-10T10:57:40.93Z</time></trkpt><trkpt lat="44.1221045" lon="8.0803807"><ele>675.0</ele><time>2026-04-10T10:57:44.93Z</time></trkpt><trkpt lat="44.1220226" lon="8.0804256"><ele>675.0</ele><time>2026-04-10T10:57:47.93Z</time></trkpt><trkpt lat="44.1219744" lon="8.0804964"><ele>675.0</ele><time>2026-04-10T10:57:50.93Z</time></trkpt><trkpt lat="44.1219279" lon="8.0805571"><ele>675.0</ele><time>2026-04-10T10:57:59.93Z</time></trkpt><trkpt lat="44.121893" lon="8.0806566"><ele>675.0</ele><time>2026-04-10T10:58:02.931Z</time></trkpt><trkpt lat="44.121814" lon="8.0805937"><ele>675.0</ele><time>2026-04-10T10:58:34.93Z</time></trkpt><trkpt lat="44.1218011" lon="8.08049"><ele>675.0</ele><time>2026-04-10T10:58:38.931Z</time></trkpt><trkpt lat="44.1218275" lon="8.0803962"><ele>675.0</ele><time>2026-04-10T10:58:42.93Z</time></trkpt><trkpt lat="44.1218338" lon="8.0803004"><ele>675.0</ele><time>2026-04-10T10:58:45.93Z</time></trkpt><trkpt lat="44.1217697" lon="8.0803066"><ele>675.0</ele><time>2026-04-10T10:58:52.93Z</time></trkpt><trkpt lat="44.1216917" lon="8.0803133"><ele>675.0</ele><time>2026-04-10T10:59:54.93Z</time></trkpt><trkpt lat="44.121665" lon="8.0802283"><ele>675.0</ele><time>2026-04-10T10:59:56.93Z</time></trkpt><trkpt lat="44.1216317" lon="8.0801217"><ele>675.0</ele><time>2026-04-10T10:59:59.931Z</time></trkpt><trkpt lat="44.1216067" lon="8.0800333"><ele>675.0</ele><time>2026-04-10T11:00:02.93Z</time></trkpt><trkpt lat="44.1216317" lon="8.0799233"><ele>673.4285714285714</ele><time>2026-04-10T11:00:06.93Z</time></trkpt><trkpt lat="44.12166" lon="8.0798317"><ele>671.8571428571429</ele><time>2026-04-10T11:00:09.93Z</time></trkpt><trkpt lat="44.1216967" lon="8.07976"><ele>670.2857142857142</ele><time>2026-04-10T11:00:13.93Z</time></trkpt><trkpt lat="44.1217183" lon="8.0796583"><ele>668.7142857142858</ele><time>2026-04-10T11:00:18.93Z</time></trkpt><trkpt lat="44.1217217" lon="8.0795233"><ele>667.1428571428572</ele><time>2026-04-10T11:00:57.931Z</time></trkpt><trkpt lat="44.1216583" lon="8.07954"><ele>665.5714285714286</ele><time>2026-04-10T11:00:59.93Z</time></trkpt><trkpt lat="44.1215933" lon="8.079555"><ele>664.0</ele><time>2026-04-10T11:01:02.93Z</time></trkpt><trkpt lat="44.12151" lon="8.079595"><ele>660.0</ele><time>2026-04-10T11:01:05.93Z</time></trkpt><trkpt lat="44.1214517" lon="8.07963"><ele>656.0</ele><time>2026-04-10T11:01:08.93Z</time></trkpt><trkpt lat="44.1213667" lon="8.0796033"><ele>652.0</ele><time>2026-04-10T11:01:12.93Z</time></trkpt><trkpt lat="44.1212867" lon="8.0796383"><ele>648.0</ele><time>2026-04-10T11:01:16.93Z</time></trkpt><trkpt lat="44.1212233" lon="8.07963"><ele>644.0</ele><time>2026-04-10T11:01:19.93Z</time></trkpt><trkpt lat="44.121155" lon="8.07962"><ele>640.0</ele><time>2026-04-10T11:01:22.931Z</time></trkpt><trkpt lat="44.1210883" lon="8.079585"><ele>636.0</ele><time>2026-04-10T11:01:24.93Z</time></trkpt><trkpt lat="44.1210117" lon="8.0795633"><ele>636.0</ele><time>2026-04-10T11:01:26.931Z</time></trkpt><trkpt lat="44.12093" lon="8.0795733"><ele>636.0</ele><time>2026-04-10T11:01:28.93Z</time></trkpt><trkpt lat="44.1208667" lon="8.0795883"><ele>636.0</ele><time>2026-04-10T11:01:30.93Z</time></trkpt><trkpt lat="44.120805" lon="8.079645"><ele>636.0</ele><time>2026-04-10T11:01:33.93Z</time></trkpt><trkpt lat="44.1207433" lon="8.0796817"><ele>636.0</ele><time>2026-04-10T11:01:36.93Z</time></trkpt><trkpt lat="44.1206583" lon="8.0796783"><ele>636.0</ele><time>2026-04-10T11:01:39.931Z</time></trkpt><trkpt lat="44.1205917" lon="8.0796933"><ele>636.0</ele><time>2026-04-10T11:01:41.93Z</time></trkpt><trkpt lat="44.1205267" lon="8.0796883"><ele>630.5</ele><time>2026-04-10T11:01:44.93Z</time></trkpt><trkpt lat="44.120465" lon="8.07971"><ele>625.0</ele><time>2026-04-10T11:01:47.93Z</time></trkpt><trkpt lat="44.1204017" lon="8.0797367"><ele>619.5</ele><time>2026-04-10T11:01:49.93Z</time></trkpt><trkpt lat="44.1203383" lon="8.0797717"><ele>614.0</ele><time>2026-04-10T11:01:52.931Z</time></trkpt><trkpt lat="44.1202583" lon="8.079905"><ele>608.5</ele><time>2026-04-10T11:02:08.93Z</time></trkpt><trkpt lat="44.1202233" lon="8.0799883"><ele>603.0</ele><time>2026-04-10T11:02:11.93Z</time></trkpt><trkpt lat="44.1202567" lon="8.0800983"><ele>603.0</ele><time>2026-04-10T11:02:15.93Z</time></trkpt><trkpt lat="44.1203017" lon="8.0801717"><ele>603.0</ele><time>2026-04-10T11:02:17.93Z</time></trkpt><trkpt lat="44.12036" lon="8.0802717"><ele>603.0</ele><time>2026-04-10T11:02:20.93Z</time></trkpt><trkpt lat="44.1204283" lon="8.0803217"><ele>603.0</ele><time>2026-04-10T11:02:23.93Z</time></trkpt><trkpt lat="44.1204833" lon="8.0803717"><ele>603.0</ele><time>2026-04-10T11:02:26.93Z</time></trkpt><trkpt lat="44.12055" lon="8.0804317"><ele>603.0</ele><time>2026-04-10T11:02:30.93Z</time></trkpt><trkpt lat="44.1206117" lon="8.080495"><ele>603.0</ele><time>2026-04-10T11:02:33.93Z</time></trkpt><trkpt lat="44.1206767" lon="8.0805583"><ele>603.0</ele><time>2026-04-10T11:02:36.93Z</time></trkpt><trkpt lat="44.1207017" lon="8.08064"><ele>603.0</ele><time>2026-04-10T11:02:39.93Z</time></trkpt><trkpt lat="44.120675" lon="8.0807583"><ele>603.0</ele><time>2026-04-10T11:02:43.93Z</time></trkpt><trkpt lat="44.120675" lon="8.0808883"><ele>603.0</ele><time>2026-04-10T11:02:46.93Z</time></trkpt><trkpt lat="44.1206733" lon="8.0810083"><ele>603.0</ele><time>2026-04-10T11:02:49.93Z</time></trkpt><trkpt lat="44.12066" lon="8.0811033"><ele>599.5</ele><time>2026-04-10T11:02:52.93Z</time></trkpt><trkpt lat="44.1206333" lon="8.08121"><ele>596.0</ele><time>2026-04-10T11:02:55.93Z</time></trkpt><trkpt lat="44.1205433" lon="8.0813083"><ele>592.5</ele><time>2026-04-10T11:03:15.93Z</time></trkpt><trkpt lat="44.1204733" lon="8.081315"><ele>589.0</ele><time>2026-04-10T11:03:18.93Z</time></trkpt><trkpt lat="44.1204167" lon="8.081245"><ele>585.5</ele><time>2026-04-10T11:03:23.93Z</time></trkpt><trkpt lat="44.1203367" lon="8.081275"><ele>582.0</ele><time>2026-04-10T11:03:27.93Z</time></trkpt><trkpt lat="44.1202567" lon="8.0813"><ele>582.0</ele><time>2026-04-10T11:03:31.93Z</time></trkpt><trkpt lat="44.1201967" lon="8.08139"><ele>582.0</ele><time>2026-04-10T11:04:00.93Z</time></trkpt><trkpt lat="44.1201633" lon="8.0814717"><ele>582.0</ele><time>2026-04-10T11:04:04.93Z</time></trkpt><trkpt lat="44.120135" lon="8.0815683"><ele>582.0</ele><time>2026-04-10T11:04:07.93Z</time></trkpt><trkpt lat="44.1201217" lon="8.0816767"><ele>582.0</ele><time>2026-04-10T11:04:10.931Z</time></trkpt><trkpt lat="44.120095" lon="8.0817733"><ele>582.0</ele><time>2026-04-10T11:04:13.931Z</time></trkpt><trkpt lat="44.1200583" lon="8.0818533"><ele>580.2857142857142</ele><time>2026-04-10T11:04:16.93Z</time></trkpt><trkpt lat="44.1200217" lon="8.0819267"><ele>578.5714285714286</ele><time>2026-04-10T11:04:18.93Z</time></trkpt><trkpt lat="44.1199933" lon="8.082005"><ele>576.8571428571429</ele><time>2026-04-10T11:04:20.93Z</time></trkpt><trkpt lat="44.1199517" lon="8.082095"><ele>575.1428571428571</ele><time>2026-04-10T11:04:23.93Z</time></trkpt><trkpt lat="44.1199133" lon="8.0821933"><ele>573.4285714285714</ele><time>2026-04-10T11:04:26.93Z</time></trkpt><trkpt lat="44.1198983" lon="8.0822983"><ele>571.7142857142857</ele><time>2026-04-10T11:04:30.93Z</time></trkpt><trkpt lat="44.11989" lon="8.08239"><ele>570.0</ele><time>2026-04-10T11:04:33.93Z</time></trkpt><trkpt lat="44.119845" lon="8.0824517"><ele>563.5</ele><time>2026-04-10T11:05:13.931Z</time></trkpt><trkpt lat="44.1197867" lon="8.08254"><ele>557.0</ele><time>2026-04-10T11:05:39.93Z</time></trkpt><trkpt lat="44.11979" lon="8.082655"><ele>550.5</ele><time>2026-04-10T11:05:42.93Z</time></trkpt><trkpt lat="44.119755" lon="8.0827417"><ele>544.0</ele><time>2026-04-10T11:05:47.931Z</time></trkpt><trkpt lat="44.11969" lon="8.0828267"><ele>537.5</ele><time>2026-04-10T11:05:51.93Z</time></trkpt><trkpt lat="44.11965" lon="8.082895"><ele>531.0</ele><time>2026-04-10T11:05:53.93Z</time></trkpt><trkpt lat="44.11961" lon="8.0829817"><ele>531.0</ele><time>2026-04-10T11:05:56.93Z</time></trkpt><trkpt lat="44.11956" lon="8.0830567"><ele>531.0</ele><time>2026-04-10T11:05:59.93Z</time></trkpt><trkpt lat="44.119495" lon="8.0830883"><ele>531.0</ele><time>2026-04-10T11:06:02.93Z</time></trkpt><trkpt lat="44.1194183" lon="8.0831467"><ele>531.0</ele><time>2026-04-10T11:06:06.93Z</time></trkpt><trkpt lat="44.1193533" lon="8.083165"><ele>531.0</ele><time>2026-04-10T11:06:09.93Z</time></trkpt><trkpt lat="44.1192717" lon="8.0831783"><ele>531.0</ele><time>2026-04-10T11:06:12.93Z</time></trkpt><trkpt lat="44.119185" lon="8.083165"><ele>531.0</ele><time>2026-04-10T11:06:15.93Z</time></trkpt><trkpt lat="44.1191283" lon="8.0832033"><ele>531.0</ele><time>2026-04-10T11:06:17.93Z</time></trkpt><trkpt lat="44.1190567" lon="8.0832267"><ele>531.0</ele><time>2026-04-10T11:06:20.93Z</time></trkpt><trkpt lat="44.1189767" lon="8.0832517"><ele>531.0</ele><time>2026-04-10T11:06:23.931Z</time></trkpt><trkpt lat="44.1188933" lon="8.0833033"><ele>531.0</ele><time>2026-04-10T11:06:26.93Z</time></trkpt><trkpt lat="44.1188333" lon="8.08335"><ele>531.0</ele><time>2026-04-10T11:06:28.93Z</time></trkpt><trkpt lat="44.1187633" lon="8.0833967"><ele>530.6666666666666</ele><time>2026-04-10T11:06:31.93Z</time></trkpt><trkpt lat="44.1186767" lon="8.083435"><ele>530.3333333333334</ele><time>2026-04-10T11:06:34.93Z</time></trkpt><trkpt lat="44.118605" lon="8.0834883"><ele>530.0</ele><time>2026-04-10T11:06:37.93Z</time></trkpt><trkpt lat="44.1185383" lon="8.08343"><ele>529.6666666666667</ele><time>2026-04-10T11:07:01.93Z</time></trkpt><trkpt lat="44.1184783" lon="8.0833417"><ele>529.3333333333334</ele><time>2026-04-10T11:07:03.93Z</time></trkpt><trkpt lat="44.1184183" lon="8.0832367"><ele>529.0</ele><time>2026-04-10T11:07:05.931Z</time></trkpt><trkpt lat="44.118355" lon="8.0831217"><ele>526.1428571428571</ele><time>2026-04-10T11:07:07.93Z</time></trkpt><trkpt lat="44.1183183" lon="8.0830317"><ele>523.2857142857142</ele><time>2026-04-10T11:07:09.93Z</time></trkpt><trkpt lat="44.1182967" lon="8.0829333"><ele>520.4285714285713</ele><time>2026-04-10T11:07:12.93Z</time></trkpt><trkpt lat="44.1182583" lon="8.08283"><ele>517.5714285714286</ele><time>2026-04-10T11:07:15.93Z</time></trkpt><trkpt lat="44.1182417" lon="8.0827283"><ele>514.7142857142857</ele><time>2026-04-10T11:07:18.93Z</time></trkpt><trkpt lat="44.11824" lon="8.0826233"><ele>511.8571428571428</ele><time>2026-04-10T11:07:21.931Z</time></trkpt><trkpt lat="44.1182467" lon="8.0825333"><ele>508.99999999999994</ele><time>2026-04-10T11:07:23.93Z</time></trkpt><trkpt lat="44.11825" lon="8.082405"><ele>502.8333333333333</ele><time>2026-04-10T11:07:26.93Z</time></trkpt><trkpt lat="44.1182183" lon="8.0822833"><ele>496.66666666666663</ele><time>2026-04-10T11:07:29.931Z</time></trkpt><trkpt lat="44.1181533" lon="8.0822017"><ele>490.5</ele><time>2026-04-10T11:07:32.93Z</time></trkpt><trkpt lat="44.1180933" lon="8.08212"><ele>484.33333333333337</ele><time>2026-04-10T11:07:35.931Z</time></trkpt><trkpt lat="44.118045" lon="8.0820483"><ele>478.1666666666667</ele><time>2026-04-10T11:07:38.93Z</time></trkpt><trkpt lat="44.1179767" lon="8.0819883"><ele>472.0</ele><time>2026-04-10T11:07:40.93Z</time></trkpt><trkpt lat="44.1179117" lon="8.0819167"><ele>472.0</ele><time>2026-04-10T11:07:42.931Z</time></trkpt><trkpt lat="44.11785" lon="8.0818633"><ele>472.0</ele><time>2026-04-10T11:07:44.93Z</time></trkpt><trkpt lat="44.1177833" lon="8.081875"><ele>472.0</ele><time>2026-04-10T11:07:59.93Z</time></trkpt><trkpt lat="44.1177683" lon="8.08177"><ele>472.0</ele><time>2026-04-10T11:08:08.93Z</time></trkpt><trkpt lat="44.1176917" lon="8.0817567"><ele>472.0</ele><time>2026-04-10T11:08:46.93Z</time></trkpt><trkpt lat="44.11761" lon="8.0818017"><ele>472.0</ele><time>2026-04-10T11:08:49.93Z</time></trkpt><trkpt lat="44.117595" lon="8.0817133"><ele>472.0</ele><time>2026-04-10T11:09:11.93Z</time></trkpt><trkpt lat="44.1176317" lon="8.0816217"><ele>468.6666666666667</ele><time>2026-04-10T11:09:15.93Z</time></trkpt><trkpt lat="44.1176333" lon="8.0815333"><ele>465.33333333333337</ele><time>2026-04-10T11:12:52.929Z</time></trkpt><trkpt lat="44.1175633" lon="8.0815417"><ele>462.0</ele><time>2026-04-10T11:12:54.929Z</time></trkpt><trkpt lat="44.1174783" lon="8.0815417"><ele>458.66666666666663</ele><time>2026-04-10T11:12:56.929Z</time></trkpt><trkpt lat="44.117385" lon="8.081565"><ele>455.3333333333333</ele><time>2026-04-10T11:12:58.929Z</time></trkpt><trkpt lat="44.1172967" lon="8.0816233"><ele>452.0</ele><time>2026-04-10T11:13:00.929Z</time></trkpt><trkpt lat="44.1172433" lon="8.0816983"><ele>449.40000000000003</ele><time>2026-04-10T11:13:02.929Z</time></trkpt><trkpt lat="44.1171783" lon="8.081765"><ele>446.80000000000007</ele><time>2026-04-10T11:13:04.929Z</time></trkpt><trkpt lat="44.1170983" lon="8.08183"><ele>444.2</ele><time>2026-04-10T11:13:06.93Z</time></trkpt><trkpt lat="44.1170117" lon="8.0818817"><ele>441.6</ele><time>2026-04-10T11:13:08.929Z</time></trkpt><trkpt lat="44.11692" lon="8.0819083"><ele>439.0</ele><time>2026-04-10T11:13:10.929Z</time></trkpt><trkpt lat="44.116835" lon="8.0819517"><ele>439.0</ele><time>2026-04-10T11:13:12.929Z</time></trkpt><trkpt lat="44.1167517" lon="8.082025"><ele>439.0</ele><time>2026-04-10T11:13:14.929Z</time></trkpt><trkpt lat="44.116685" lon="8.0821333"><ele>439.0</ele><time>2026-04-10T11:13:16.929Z</time></trkpt><trkpt lat="44.1166167" lon="8.08225"><ele>439.0</ele><time>2026-04-10T11:13:18.929Z</time></trkpt><trkpt lat="44.1165267" lon="8.0823267"><ele>439.0</ele><time>2026-04-10T11:13:20.93Z</time></trkpt><trkpt lat="44.1164667" lon="8.0824033"><ele>433.50000000000006</ele><time>2026-04-10T11:13:22.929Z</time></trkpt><trkpt lat="44.11648" lon="8.0822467"><ele>428.0</ele><time>2026-04-10T11:14:10.929Z</time></trkpt><trkpt lat="44.1164833" lon="8.0821467"><ele>422.5</ele><time>2026-04-10T11:14:11.929Z</time></trkpt><trkpt lat="44.1164883" lon="8.0820467"><ele>417.0</ele><time>2026-04-10T11:14:12.929Z</time></trkpt><trkpt lat="44.1165" lon="8.0819383"><ele>411.50000000000006</ele><time>2026-04-10T11:14:13.929Z</time></trkpt><trkpt lat="44.1165183" lon="8.0818333"><ele>406.0</ele><time>2026-04-10T11:14:14.929Z</time></trkpt><trkpt lat="44.1165367" lon="8.081725"><ele>406.00000000000006</ele><time>2026-04-10T11:14:15.929Z</time></trkpt><trkpt lat="44.11654" lon="8.0816133"><ele>406.0</ele><time>2026-04-10T11:14:16.929Z</time></trkpt><trkpt lat="44.1165583" lon="8.0814533"><ele>406.0</ele><time>2026-04-10T11:14:18.929Z</time></trkpt><trkpt lat="44.1166133" lon="8.0813667"><ele>406.0</ele><time>2026-04-10T11:14:20.929Z</time></trkpt><trkpt lat="44.1166883" lon="8.0813233"><ele>406.00000000000006</ele><time>2026-04-10T11:14:22.929Z</time></trkpt><trkpt lat="44.1167683" lon="8.081275"><ele>406.0</ele><time>2026-04-10T11:14:24.929Z</time></trkpt><trkpt lat="44.1168283" lon="8.0812117"><ele>408.00000000000006</ele><time>2026-04-10T11:14:26.929Z</time></trkpt><trkpt lat="44.1168633" lon="8.0811183"><ele>410.0</ele><time>2026-04-10T11:14:28.929Z</time></trkpt><trkpt lat="44.1169017" lon="8.0810317"><ele>412.0</ele><time>2026-04-10T11:14:30.93Z</time></trkpt><trkpt lat="44.1169517" lon="8.08096"><ele>414.0</ele><time>2026-04-10T11:14:32.929Z</time></trkpt><trkpt lat="44.1170167" lon="8.0808983"><ele>416.00000000000006</ele><time>2026-04-10T11:14:34.929Z</time></trkpt><trkpt lat="44.117085" lon="8.0808367"><ele>418.0</ele><time>2026-04-10T11:14:36.929Z</time></trkpt><trkpt lat="44.1171567" lon="8.0807833"><ele>418.00000000000006</ele><time>2026-04-10T11:14:38.929Z</time></trkpt><trkpt lat="44.1172167" lon="8.0807033"><ele>418.0</ele><time>2026-04-10T11:14:40.929Z</time></trkpt><trkpt lat="44.1172233" lon="8.08061"><ele>418.0</ele><time>2026-04-10T11:14:50.929Z</time></trkpt><trkpt lat="44.1171517" lon="8.0804983"><ele>418.0</ele><time>2026-04-10T11:15:19.929Z</time></trkpt><trkpt lat="44.1171117" lon="8.080425"><ele>418.00000000000006</ele><time>2026-04-10T11:15:20.929Z</time></trkpt><trkpt lat="44.117075" lon="8.0803533"><ele>418.0</ele><time>2026-04-10T11:15:21.929Z</time></trkpt><trkpt lat="44.1170283" lon="8.0801983"><ele>418.0</ele><time>2026-04-10T11:15:23.929Z</time></trkpt><trkpt lat="44.11702" lon="8.0800433"><ele>418.0</ele><time>2026-04-10T11:15:25.929Z</time></trkpt><trkpt lat="44.1169917" lon="8.079895"><ele>418.0</ele><time>2026-04-10T11:15:27.929Z</time></trkpt><trkpt lat="44.1169117" lon="8.07978"><ele>418.0</ele><time>2026-04-10T11:15:29.929Z</time></trkpt><trkpt lat="44.1168583" lon="8.07973"><ele>418.0</ele><time>2026-04-10T11:15:30.929Z</time></trkpt><trkpt lat="44.1168" lon="8.0796717"><ele>421.42857142857144</ele><time>2026-04-10T11:15:31.929Z</time></trkpt><trkpt lat="44.1167383" lon="8.07961"><ele>424.85714285714283</ele><time>2026-04-10T11:15:32.929Z</time></trkpt><trkpt lat="44.116675" lon="8.07955"><ele>428.28571428571433</ele><time>2026-04-10T11:15:33.929Z</time></trkpt><trkpt lat="44.1166017" lon="8.0794917"><ele>431.7142857142857</ele><time>2026-04-10T11:15:34.929Z</time></trkpt><trkpt lat="44.1165367" lon="8.0794433"><ele>435.14285714285717</ele><time>2026-04-10T11:15:35.929Z</time></trkpt><trkpt lat="44.1164783" lon="8.07941"><ele>438.5714285714286</ele><time>2026-04-10T11:15:36.929Z</time></trkpt><trkpt lat="44.1164133" lon="8.0793783"><ele>442.0</ele><time>2026-04-10T11:15:37.929Z</time></trkpt><trkpt lat="44.1163533" lon="8.0793517"><ele>433.0</ele><time>2026-04-10T11:15:38.929Z</time></trkpt><trkpt lat="44.116265" lon="8.079235"><ele>424.00000000000006</ele><time>2026-04-10T11:15:40.929Z</time></trkpt><trkpt lat="44.1162083" lon="8.07913"><ele>415.0</ele><time>2026-04-10T11:15:42.93Z</time></trkpt><trkpt lat="44.1161567" lon="8.0789933"><ele>406.0</ele><time>2026-04-10T11:16:23.929Z</time></trkpt><trkpt lat="44.11614" lon="8.0789083"><ele>397.0</ele><time>2026-04-10T11:16:24.929Z</time></trkpt><trkpt lat="44.1161183" lon="8.0788017"><ele>397.00000000000006</ele><time>2026-04-10T11:16:25.929Z</time></trkpt><trkpt lat="44.1161" lon="8.078685"><ele>397.0</ele><time>2026-04-10T11:16:26.93Z</time></trkpt><trkpt lat="44.1160833" lon="8.078565"><ele>397.0</ele><time>2026-04-10T11:16:27.929Z</time></trkpt><trkpt lat="44.1160733" lon="8.078445"><ele>397.0</ele><time>2026-04-10T11:16:28.929Z</time></trkpt><trkpt lat="44.116055" lon="8.0783117"><ele>397.00000000000006</ele><time>2026-04-10T11:16:29.929Z</time></trkpt><trkpt lat="44.1160467" lon="8.07819"><ele>397.0</ele><time>2026-04-10T11:16:30.929Z</time></trkpt><trkpt lat="44.1160433" lon="8.07806"><ele>398.40000000000003</ele><time>2026-04-10T11:16:31.929Z</time></trkpt><trkpt lat="44.1160317" lon="8.0779333"><ele>399.8</ele><time>2026-04-10T11:16:32.929Z</time></trkpt><trkpt lat="44.1160183" lon="8.0778"><ele>401.2</ele><time>2026-04-10T11:16:33.929Z</time></trkpt><trkpt lat="44.1159983" lon="8.0776667"><ele>402.6</ele><time>2026-04-10T11:16:34.929Z</time></trkpt><trkpt lat="44.11597" lon="8.077535"><ele>404.0</ele><time>2026-04-10T11:16:35.929Z</time></trkpt><trkpt lat="44.1159317" lon="8.0774067"><ele>407.2</ele><time>2026-04-10T11:16:36.929Z</time></trkpt><trkpt lat="44.11589" lon="8.077275"><ele>410.4</ele><time>2026-04-10T11:16:37.929Z</time></trkpt><trkpt lat="44.1158483" lon="8.0771533"><ele>413.6</ele><time>2026-04-10T11:16:38.929Z</time></trkpt><trkpt lat="44.1157967" lon="8.0770433"><ele>416.8</ele><time>2026-04-10T11:16:39.929Z</time></trkpt><trkpt lat="44.1157383" lon="8.0769433"><ele>420.0</ele><time>2026-04-10T11:16:40.929Z</time></trkpt><trkpt lat="44.1156767" lon="8.07684"><ele>417.0</ele><time>2026-04-10T11:16:41.93Z</time></trkpt><trkpt lat="44.1156167" lon="8.0767433"><ele>414.0</ele><time>2026-04-10T11:16:42.929Z</time></trkpt><trkpt lat="44.1155617" lon="8.07666"><ele>411.0</ele><time>2026-04-10T11:16:43.93Z</time></trkpt><trkpt lat="44.1155117" lon="8.07658"><ele>408.0</ele><time>2026-04-10T11:16:44.929Z</time></trkpt><trkpt lat="44.1154683" lon="8.0765017"><ele>405.0</ele><time>2026-04-10T11:16:45.929Z</time></trkpt><trkpt lat="44.115425" lon="8.0764217"><ele>402.0</ele><time>2026-04-10T11:16:46.929Z</time></trkpt><trkpt lat="44.115375" lon="8.07635"><ele>402.0</ele><time>2026-04-10T11:16:47.93Z</time></trkpt><trkpt lat="44.1153233" lon="8.0762667"><ele>402.0</ele><time>2026-04-10T11:16:48.929Z</time></trkpt><trkpt lat="44.115265" lon="8.0761717"><ele>402.0</ele><time>2026-04-10T11:16:49.93Z</time></trkpt><trkpt lat="44.1152033" lon="8.0760633"><ele>402.0</ele><time>2026-04-10T11:16:50.929Z</time></trkpt><trkpt lat="44.115145" lon="8.0759533"><ele>402.0</ele><time>2026-04-10T11:16:51.929Z</time></trkpt><trkpt lat="44.1150967" lon="8.07583"><ele>406.0</ele><time>2026-04-10T11:16:52.929Z</time></trkpt><trkpt lat="44.1150417" lon="8.0757233"><ele>410.0</ele><time>2026-04-10T11:16:53.929Z</time></trkpt><trkpt lat="44.1149783" lon="8.0756283"><ele>414.0</ele><time>2026-04-10T11:16:54.929Z</time></trkpt><trkpt lat="44.1149033" lon="8.07555"><ele>418.0</ele><time>2026-04-10T11:16:55.929Z</time></trkpt><trkpt lat="44.1148317" lon="8.0754733"><ele>422.0</ele><time>2026-04-10T11:16:56.929Z</time></trkpt><trkpt lat="44.1147617" lon="8.0754133"><ele>415.8333333333333</ele><time>2026-04-10T11:16:57.929Z</time></trkpt><trkpt lat="44.1146967" lon="8.0753433"><ele>409.66666666666663</ele><time>2026-04-10T11:16:58.929Z</time></trkpt><trkpt lat="44.114645" lon="8.0752683"><ele>403.5</ele><time>2026-04-10T11:16:59.929Z</time></trkpt><trkpt lat="44.1146117" lon="8.0751717"><ele>397.33333333333337</ele><time>2026-04-10T11:17:00.929Z</time></trkpt><trkpt lat="44.1145867" lon="8.0750367"><ele>391.1666666666667</ele><time>2026-04-10T11:17:01.93Z</time></trkpt><trkpt lat="44.1145733" lon="8.0748833"><ele>385.0</ele><time>2026-04-10T11:17:02.929Z</time></trkpt><trkpt lat="44.11457" lon="8.0747417"><ele>385.0</ele><time>2026-04-10T11:17:03.929Z</time></trkpt><trkpt lat="44.11455" lon="8.0745983"><ele>385.0</ele><time>2026-04-10T11:17:04.929Z</time></trkpt><trkpt lat="44.114525" lon="8.0744567"><ele>385.0</ele><time>2026-04-10T11:17:05.929Z</time></trkpt><trkpt lat="44.114495" lon="8.07433"><ele>385.0</ele><time>2026-04-10T11:17:06.929Z</time></trkpt><trkpt lat="44.11445" lon="8.074215"><ele>385.0</ele><time>2026-04-10T11:17:07.929Z</time></trkpt><trkpt lat="44.1143983" lon="8.074105"><ele>385.83333333333337</ele><time>2026-04-10T11:17:08.929Z</time></trkpt><trkpt lat="44.1143317" lon="8.0740067"><ele>386.6666666666667</ele><time>2026-04-10T11:17:09.929Z</time></trkpt><trkpt lat="44.1142667" lon="8.0739117"><ele>387.5</ele><time>2026-04-10T11:17:10.929Z</time></trkpt><trkpt lat="44.114205" lon="8.073815"><ele>388.33333333333337</ele><time>2026-04-10T11:17:11.93Z</time></trkpt><trkpt lat="44.11415" lon="8.073725"><ele>389.1666666666667</ele><time>2026-04-10T11:17:12.929Z</time></trkpt><trkpt lat="44.114125" lon="8.0736333"><ele>390.0</ele><time>2026-04-10T11:17:13.929Z</time></trkpt><trkpt lat="44.1141033" lon="8.0735317"><ele>390.0</ele><time>2026-04-10T11:17:14.93Z</time></trkpt><trkpt lat="44.1140933" lon="8.0734017"><ele>390.0</ele><time>2026-04-10T11:17:15.929Z</time></trkpt><trkpt lat="44.1140817" lon="8.0732533"><ele>390.0</ele><time>2026-04-10T11:17:16.929Z</time></trkpt><trkpt lat="44.1140717" lon="8.0730933"><ele>390.0</ele><time>2026-04-10T11:17:17.929Z</time></trkpt><trkpt lat="44.1140567" lon="8.0729567"><ele>390.0</ele><time>2026-04-10T11:17:18.929Z</time></trkpt><trkpt lat="44.114045" lon="8.0728383"><ele>385.1666666666667</ele><time>2026-04-10T11:17:19.929Z</time></trkpt><trkpt lat="44.1140333" lon="8.0727233"><ele>380.3333333333333</ele><time>2026-04-10T11:17:20.929Z</time></trkpt><trkpt lat="44.1140133" lon="8.0726133"><ele>375.5</ele><time>2026-04-10T11:17:21.929Z</time></trkpt><trkpt lat="44.1139767" lon="8.07252"><ele>370.66666666666663</ele><time>2026-04-10T11:17:22.929Z</time></trkpt><trkpt lat="44.1139467" lon="8.0724233"><ele>365.8333333333333</ele><time>2026-04-10T11:17:23.929Z</time></trkpt><trkpt lat="44.1139317" lon="8.0723233"><ele>361.0</ele><time>2026-04-10T11:17:24.929Z</time></trkpt><trkpt lat="44.113925" lon="8.0722117"><ele>361.0</ele><time>2026-04-10T11:17:25.929Z</time></trkpt><trkpt lat="44.1139267" lon="8.0721033"><ele>361.0</ele><time>2026-04-10T11:17:26.929Z</time></trkpt><trkpt lat="44.1139467" lon="8.0719967"><ele>361.0</ele><time>2026-04-10T11:17:27.929Z</time></trkpt><trkpt lat="44.1139767" lon="8.0718983"><ele>361.0</ele><time>2026-04-10T11:17:28.929Z</time></trkpt><trkpt lat="44.1140333" lon="8.07181"><ele>361.0</ele><time>2026-04-10T11:17:29.929Z</time></trkpt><trkpt lat="44.11411" lon="8.071735"><ele>361.0</ele><time>2026-04-10T11:17:30.929Z</time></trkpt><trkpt lat="44.11418" lon="8.0716717"><ele>360.3333333333333</ele><time>2026-04-10T11:17:31.929Z</time></trkpt><trkpt lat="44.1142483" lon="8.0716133"><ele>359.66666666666663</ele><time>2026-04-10T11:17:32.929Z</time></trkpt><trkpt lat="44.11431" lon="8.0715417"><ele>359.0</ele><time>2026-04-10T11:17:33.929Z</time></trkpt><trkpt lat="44.11438" lon="8.0714683"><ele>358.3333333333333</ele><time>2026-04-10T11:17:34.929Z</time></trkpt><trkpt lat="44.1144483" lon="8.0713817"><ele>357.6666666666667</ele><time>2026-04-10T11:17:35.929Z</time></trkpt><trkpt lat="44.114505" lon="8.0712933"><ele>357.0</ele><time>2026-04-10T11:17:36.929Z</time></trkpt><trkpt lat="44.1145533" lon="8.0711867"><ele>357.0</ele><time>2026-04-10T11:17:37.929Z</time></trkpt><trkpt lat="44.1145933" lon="8.0710683"><ele>357.0</ele><time>2026-04-10T11:17:38.929Z</time></trkpt><trkpt lat="44.1146333" lon="8.0709467"><ele>357.0</ele><time>2026-04-10T11:17:39.929Z</time></trkpt><trkpt lat="44.11468" lon="8.070825"><ele>357.0</ele><time>2026-04-10T11:17:40.929Z</time></trkpt><trkpt lat="44.1147267" lon="8.0707117"><ele>357.0</ele><time>2026-04-10T11:17:41.929Z</time></trkpt><trkpt lat="44.114765" lon="8.0706067"><ele>357.3333333333333</ele><time>2026-04-10T11:17:42.929Z</time></trkpt><trkpt lat="44.1147967" lon="8.0705033"><ele>357.6666666666667</ele><time>2026-04-10T11:17:43.929Z</time></trkpt><trkpt lat="44.1148133" lon="8.0704067"><ele>358.0</ele><time>2026-04-10T11:17:44.929Z</time></trkpt><trkpt lat="44.1148267" lon="8.0703017"><ele>358.33333333333337</ele><time>2026-04-10T11:17:45.93Z</time></trkpt><trkpt lat="44.1148783" lon="8.07017"><ele>358.6666666666667</ele><time>2026-04-10T11:17:47.929Z</time></trkpt><trkpt lat="44.1149833" lon="8.07016"><ele>359.0</ele><time>2026-04-10T11:17:49.929Z</time></trkpt><trkpt lat="44.1150867" lon="8.0702283"><ele>359.0</ele><time>2026-04-10T11:17:51.929Z</time></trkpt><trkpt lat="44.1152033" lon="8.0702883"><ele>359.0</ele><time>2026-04-10T11:17:53.929Z</time></trkpt><trkpt lat="44.1152617" lon="8.0703317"><ele>359.0</ele><time>2026-04-10T11:17:54.929Z</time></trkpt><trkpt lat="44.1153367" lon="8.0704033"><ele>359.0</ele><time>2026-04-10T11:17:56.929Z</time></trkpt><trkpt lat="44.1153167" lon="8.070295"><ele>359.0</ele><time>2026-04-10T11:18:09.929Z</time></trkpt><trkpt lat="44.115265" lon="8.0702233"><ele>359.0</ele><time>2026-04-10T11:18:10.929Z</time></trkpt><trkpt lat="44.1152017" lon="8.0701317"><ele>359.0</ele><time>2026-04-10T11:18:11.929Z</time></trkpt><trkpt lat="44.1151383" lon="8.0700267"><ele>359.0</ele><time>2026-04-10T11:18:12.929Z</time></trkpt><trkpt lat="44.1150767" lon="8.0699283"><ele>359.0</ele><time>2026-04-10T11:18:13.93Z</time></trkpt><trkpt lat="44.1150233" lon="8.0698233"><ele>359.0</ele><time>2026-04-10T11:18:14.929Z</time></trkpt><trkpt lat="44.1149683" lon="8.0697183"><ele>359.0</ele><time>2026-04-10T11:18:15.929Z</time></trkpt><trkpt lat="44.1149233" lon="8.06961"><ele>352.0</ele><time>2026-04-10T11:18:16.929Z</time></trkpt><trkpt lat="44.1148833" lon="8.0695067"><ele>345.0</ele><time>2026-04-10T11:18:17.929Z</time></trkpt><trkpt lat="44.1148367" lon="8.0694117"><ele>338.0</ele><time>2026-04-10T11:18:18.929Z</time></trkpt><trkpt lat="44.1147967" lon="8.06932"><ele>331.0</ele><time>2026-04-10T11:18:19.929Z</time></trkpt><trkpt lat="44.1147433" lon="8.0692517"><ele>324.0</ele><time>2026-04-10T11:18:20.929Z</time></trkpt><trkpt lat="44.11463" lon="8.0692267"><ele>317.0</ele><time>2026-04-10T11:18:22.929Z</time></trkpt><trkpt lat="44.1145567" lon="8.0693633"><ele>317.0</ele><time>2026-04-10T11:18:24.929Z</time></trkpt><trkpt lat="44.1145317" lon="8.0694667"><ele>317.0</ele><time>2026-04-10T11:18:25.93Z</time></trkpt><trkpt lat="44.1145217" lon="8.0695667"><ele>317.0</ele><time>2026-04-10T11:18:26.929Z</time></trkpt><trkpt lat="44.1145217" lon="8.069675"><ele>317.0</ele><time>2026-04-10T11:18:27.929Z</time></trkpt><trkpt lat="44.1145117" lon="8.06979"><ele>317.0</ele><time>2026-04-10T11:18:28.929Z</time></trkpt><trkpt lat="44.1144967" lon="8.0699183"><ele>317.0</ele><time>2026-04-10T11:18:29.929Z</time></trkpt><trkpt lat="44.1144683" lon="8.0700483"><ele>320.5</ele><time>2026-04-10T11:18:30.929Z</time></trkpt><trkpt lat="44.11443" lon="8.07017"><ele>324.0</ele><time>2026-04-10T11:18:31.929Z</time></trkpt><trkpt lat="44.1143933" lon="8.07028"><ele>327.5</ele><time>2026-04-10T11:18:32.929Z</time></trkpt><trkpt lat="44.114345" lon="8.0703733"><ele>331.0</ele><time>2026-04-10T11:18:33.93Z</time></trkpt><trkpt lat="44.1142833" lon="8.07046"><ele>334.5</ele><time>2026-04-10T11:18:34.929Z</time></trkpt><trkpt lat="44.11422" lon="8.070555"><ele>338.0</ele><time>2026-04-10T11:18:35.929Z</time></trkpt><trkpt lat="44.1141533" lon="8.0706483"><ele>338.0</ele><time>2026-04-10T11:18:36.929Z</time></trkpt><trkpt lat="44.1140883" lon="8.0707267"><ele>338.0</ele><time>2026-04-10T11:18:37.929Z</time></trkpt><trkpt lat="44.114015" lon="8.0707817"><ele>338.0</ele><time>2026-04-10T11:18:38.929Z</time></trkpt><trkpt lat="44.1139233" lon="8.0708233"><ele>338.0</ele><time>2026-04-10T11:18:39.929Z</time></trkpt><trkpt lat="44.113835" lon="8.0708633"><ele>338.0</ele><time>2026-04-10T11:18:40.929Z</time></trkpt><trkpt lat="44.113755" lon="8.0708933"><ele>338.0</ele><time>2026-04-10T11:18:41.929Z</time></trkpt><trkpt lat="44.11368" lon="8.0709233"><ele>337.5</ele><time>2026-04-10T11:18:42.929Z</time></trkpt><trkpt lat="44.113615" lon="8.0709383"><ele>337.0</ele><time>2026-04-10T11:18:43.929Z</time></trkpt><trkpt lat="44.113545" lon="8.07096"><ele>336.5</ele><time>2026-04-10T11:18:44.93Z</time></trkpt><trkpt lat="44.113455" lon="8.0709833"><ele>336.0</ele><time>2026-04-10T11:18:45.929Z</time></trkpt><trkpt lat="44.1133633" lon="8.0710033"><ele>335.5</ele><time>2026-04-10T11:18:46.929Z</time></trkpt><trkpt lat="44.11328" lon="8.0710367"><ele>335.0</ele><time>2026-04-10T11:18:47.929Z</time></trkpt><trkpt lat="44.1131983" lon="8.0710683"><ele>333.1666666666667</ele><time>2026-04-10T11:18:48.929Z</time></trkpt><trkpt lat="44.11312" lon="8.0710867"><ele>331.33333333333337</ele><time>2026-04-10T11:18:49.929Z</time></trkpt><trkpt lat="44.11304" lon="8.0711117"><ele>329.5</ele><time>2026-04-10T11:18:50.929Z</time></trkpt><trkpt lat="44.11296" lon="8.0711383"><ele>327.6666666666667</ele><time>2026-04-10T11:18:51.929Z</time></trkpt><trkpt lat="44.112885" lon="8.07116"><ele>325.8333333333333</ele><time>2026-04-10T11:18:52.929Z</time></trkpt><trkpt lat="44.1128183" lon="8.071165"><ele>324.0</ele><time>2026-04-10T11:18:53.929Z</time></trkpt><trkpt lat="44.112755" lon="8.0711667"><ele>324.0</ele><time>2026-04-10T11:18:54.93Z</time></trkpt><trkpt lat="44.1126767" lon="8.0711517"><ele>324.0</ele><time>2026-04-10T11:18:55.929Z</time></trkpt><trkpt lat="44.1126083" lon="8.0711083"><ele>324.0</ele><time>2026-04-10T11:18:56.929Z</time></trkpt><trkpt lat="44.11249" lon="8.0711583"><ele>324.0</ele><time>2026-04-10T11:18:58.929Z</time></trkpt><trkpt lat="44.112415" lon="8.0711917"><ele>324.0</ele><time>2026-04-10T11:19:00.929Z</time></trkpt><trkpt lat="44.1124667" lon="8.071115"><ele>324.0</ele><time>2026-04-10T11:19:04.93Z</time></trkpt><trkpt lat="44.112595" lon="8.0710767"><ele>324.0</ele><time>2026-04-10T11:19:06.929Z</time></trkpt><trkpt lat="44.11268" lon="8.0710583"><ele>324.0</ele><time>2026-04-10T11:19:07.929Z</time></trkpt><trkpt lat="44.1127733" lon="8.0710367"><ele>324.0</ele><time>2026-04-10T11:19:08.929Z</time></trkpt><trkpt lat="44.1128667" lon="8.071015"><ele>324.0</ele><time>2026-04-10T11:19:09.929Z</time></trkpt><trkpt lat="44.1129633" lon="8.0709683"><ele>324.0</ele><time>2026-04-10T11:19:10.929Z</time></trkpt><trkpt lat="44.1130583" lon="8.0709283"><ele>324.0</ele><time>2026-04-10T11:19:11.929Z</time></trkpt><trkpt lat="44.11316" lon="8.0708933"><ele>324.0</ele><time>2026-04-10T11:19:12.929Z</time></trkpt><trkpt lat="44.1132567" lon="8.0708433"><ele>324.0</ele><time>2026-04-10T11:19:13.929Z</time></trkpt><trkpt lat="44.113355" lon="8.070785"><ele>324.0</ele><time>2026-04-10T11:19:14.93Z</time></trkpt><trkpt lat="44.11345" lon="8.0707"><ele>324.0</ele><time>2026-04-10T11:19:15.93Z</time></trkpt><trkpt lat="44.113545" lon="8.0706017"><ele>319.59999999999997</ele><time>2026-04-10T11:19:16.929Z</time></trkpt><trkpt lat="44.1136317" lon="8.0704967"><ele>315.2</ele><time>2026-04-10T11:19:17.929Z</time></trkpt><trkpt lat="44.1137133" lon="8.07038"><ele>310.79999999999995</ele><time>2026-04-10T11:19:18.929Z</time></trkpt><trkpt lat="44.1137733" lon="8.0702933"><ele>306.4</ele><time>2026-04-10T11:19:19.929Z</time></trkpt><trkpt lat="44.11383" lon="8.07021"><ele>302.0</ele><time>2026-04-10T11:19:20.929Z</time></trkpt><trkpt lat="44.1139033" lon="8.070095"><ele>302.0</ele><time>2026-04-10T11:19:21.929Z</time></trkpt><trkpt lat="44.113985" lon="8.0699867"><ele>302.0</ele><time>2026-04-10T11:19:22.929Z</time></trkpt><trkpt lat="44.11406" lon="8.0698767"><ele>302.0</ele><time>2026-04-10T11:19:23.929Z</time></trkpt><trkpt lat="44.1141283" lon="8.0697517"><ele>302.0</ele><time>2026-04-10T11:19:24.929Z</time></trkpt><trkpt lat="44.1141883" lon="8.069625"><ele>302.0</ele><time>2026-04-10T11:19:25.93Z</time></trkpt><trkpt lat="44.1142483" lon="8.0694767"><ele>299.6</ele><time>2026-04-10T11:19:26.93Z</time></trkpt><trkpt lat="44.1143017" lon="8.069325"><ele>297.2</ele><time>2026-04-10T11:19:27.929Z</time></trkpt><trkpt lat="44.1143533" lon="8.0691783"><ele>294.8</ele><time>2026-04-10T11:19:28.929Z</time></trkpt><trkpt lat="44.1143967" lon="8.0690567"><ele>292.4</ele><time>2026-04-10T11:19:29.929Z</time></trkpt><trkpt lat="44.11443" lon="8.068975"><ele>290.0</ele><time>2026-04-10T11:19:30.929Z</time></trkpt><trkpt lat="44.1144733" lon="8.0689083"><ele>290.0</ele><time>2026-04-10T11:19:33.93Z</time></trkpt><trkpt lat="44.1145133" lon="8.0688"><ele>290.0</ele><time>2026-04-10T11:19:37.929Z</time></trkpt><trkpt lat="44.11461" lon="8.0687467"><ele>290.0</ele><time>2026-04-10T11:19:39.929Z</time></trkpt><trkpt lat="44.1146767" lon="8.0687567"><ele>290.0</ele><time>2026-04-10T11:19:40.929Z</time></trkpt><trkpt lat="44.1147567" lon="8.0687967"><ele>290.0</ele><time>2026-04-10T11:19:41.929Z</time></trkpt><trkpt lat="44.1148533" lon="8.0688517"><ele>290.0</ele><time>2026-04-10T11:19:42.929Z</time></trkpt><trkpt lat="44.1149533" lon="8.0689417"><ele>290.0</ele><time>2026-04-10T11:19:43.93Z</time></trkpt><trkpt lat="44.1150367" lon="8.0690317"><ele>290.0</ele><time>2026-04-10T11:19:44.929Z</time></trkpt><trkpt lat="44.1150883" lon="8.0690983"><ele>290.0</ele><time>2026-04-10T11:19:45.929Z</time></trkpt><trkpt lat="44.1150367" lon="8.0689917"><ele>290.0</ele><time>2026-04-10T11:19:50.929Z</time></trkpt><trkpt lat="44.1149483" lon="8.068915"><ele>290.0</ele><time>2026-04-10T11:19:51.93Z</time></trkpt><trkpt lat="44.114855" lon="8.068845"><ele>290.0</ele><time>2026-04-10T11:19:52.929Z</time></trkpt><trkpt lat="44.1147583" lon="8.0687817"><ele>290.0</ele><time>2026-04-10T11:19:53.929Z</time></trkpt><trkpt lat="44.1146733" lon="8.0687517"><ele>290.0</ele><time>2026-04-10T11:19:54.929Z</time></trkpt><trkpt lat="44.1145917" lon="8.0687483"><ele>290.0</ele><time>2026-04-10T11:19:55.929Z</time></trkpt><trkpt lat="44.114525" lon="8.0687683"><ele>290.0</ele><time>2026-04-10T11:19:56.929Z</time></trkpt><trkpt lat="44.11446" lon="8.06886"><ele>290.0</ele><time>2026-04-10T11:19:57.929Z</time></trkpt><trkpt lat="44.11441" lon="8.06898"><ele>290.0</ele><time>2026-04-10T11:19:58.929Z</time></trkpt><trkpt lat="44.114365" lon="8.06912"><ele>290.0</ele><time>2026-04-10T11:19:59.929Z</time></trkpt><trkpt lat="44.1143317" lon="8.0692533"><ele>290.0</ele><time>2026-04-10T11:20:00.929Z</time></trkpt><trkpt lat="44.1143" lon="8.0693417"><ele>290.0</ele><time>2026-04-10T11:20:01.929Z</time></trkpt><trkpt lat="44.11427" lon="8.0692567"><ele>290.0</ele><time>2026-04-10T11:20:08.929Z</time></trkpt><trkpt lat="44.1142733" lon="8.0691617"><ele>290.0</ele><time>2026-04-10T11:20:10.929Z</time></trkpt><trkpt lat="44.1142917" lon="8.0690767"><ele>290.0</ele><time>2026-04-10T11:20:12.93Z</time></trkpt><trkpt lat="44.114305" lon="8.06897"><ele>290.0</ele><time>2026-04-10T11:20:14.929Z</time></trkpt><trkpt lat="44.1143083" lon="8.0688583"><ele>290.0</ele><time>2026-04-10T11:20:16.929Z</time></trkpt><trkpt lat="44.114325" lon="8.068735"><ele>290.0</ele><time>2026-04-10T11:20:18.929Z</time></trkpt><trkpt lat="44.1143517" lon="8.068635"><ele>290.0</ele><time>2026-04-10T11:20:20.929Z</time></trkpt><trkpt lat="44.1143817" lon="8.0685317"><ele>290.0</ele><time>2026-04-10T11:20:22.929Z</time></trkpt><trkpt lat="44.1144067" lon="8.0684367"><ele>290.0</ele><time>2026-04-10T11:20:25.929Z</time></trkpt><trkpt lat="44.1144817" lon="8.0684317"><ele>290.0</ele><time>2026-04-10T11:20:29.929Z</time></trkpt><trkpt lat="44.114545" lon="8.0684317"><ele>290.0</ele><time>2026-04-10T11:20:31.93Z</time></trkpt><trkpt lat="44.11463" lon="8.0684117"><ele>290.0</ele><time>2026-04-10T11:20:33.929Z</time></trkpt><trkpt lat="44.114695" lon="8.068405"><ele>290.0</ele><time>2026-04-10T11:20:35.929Z</time></trkpt><trkpt lat="44.1147733" lon="8.0684117"><ele>290.0</ele><time>2026-04-10T11:20:37.929Z</time></trkpt><trkpt lat="44.1148617" lon="8.068435"><ele>292.8</ele><time>2026-04-10T11:20:39.929Z</time></trkpt><trkpt lat="44.11493" lon="8.0684767"><ele>295.6</ele><time>2026-04-10T11:20:41.929Z</time></trkpt><trkpt lat="44.1150233" lon="8.0685117"><ele>298.4</ele><time>2026-04-10T11:20:43.929Z</time></trkpt><trkpt lat="44.1151083" lon="8.068555"><ele>301.2</ele><time>2026-04-10T11:20:45.929Z</time></trkpt><trkpt lat="44.1151983" lon="8.0686267"><ele>304.0</ele><time>2026-04-10T11:20:47.929Z</time></trkpt><trkpt lat="44.11529" lon="8.06873"><ele>304.0</ele><time>2026-04-10T11:20:49.929Z</time></trkpt><trkpt lat="44.115345" lon="8.0687983"><ele>304.0</ele><time>2026-04-10T11:20:51.929Z</time></trkpt><trkpt lat="44.1153967" lon="8.0688667"><ele>304.0</ele><time>2026-04-10T11:20:55.929Z</time></trkpt><trkpt lat="44.11546" lon="8.0689433"><ele>304.0</ele><time>2026-04-10T11:20:59.929Z</time></trkpt><trkpt lat="44.11552" lon="8.069025"><ele>304.0</ele><time>2026-04-10T11:21:01.929Z</time></trkpt><trkpt lat="44.1155817" lon="8.069095"><ele>304.0</ele><time>2026-04-10T11:21:03.929Z</time></trkpt><trkpt lat="44.11566" lon="8.0691433"><ele>304.0</ele><time>2026-04-10T11:21:06.929Z</time></trkpt><trkpt lat="44.115775" lon="8.0691733"><ele>304.0</ele><time>2026-04-10T11:21:41.929Z</time></trkpt><trkpt lat="44.1158667" lon="8.0692067"><ele>304.0</ele><time>2026-04-10T11:21:43.929Z</time></trkpt><trkpt lat="44.11596" lon="8.0692483"><ele>304.0</ele><time>2026-04-10T11:21:45.929Z</time></trkpt><trkpt lat="44.11603" lon="8.069315"><ele>304.0</ele><time>2026-04-10T11:21:47.93Z</time></trkpt><trkpt lat="44.116155" lon="8.0693217"><ele>304.0</ele><time>2026-04-10T11:21:56.929Z</time></trkpt><trkpt lat="44.11625" lon="8.06932"><ele>304.0</ele><time>2026-04-10T11:21:58.929Z</time></trkpt><trkpt lat="44.1163317" lon="8.0693483"><ele>304.0</ele><time>2026-04-10T11:22:00.929Z</time></trkpt><trkpt lat="44.1163917" lon="8.06943"><ele>304.0</ele><time>2026-04-10T11:22:02.929Z</time></trkpt><trkpt lat="44.1164533" lon="8.0695467"><ele>304.0</ele><time>2026-04-10T11:22:04.929Z</time></trkpt><trkpt lat="44.1165067" lon="8.069655"><ele>304.0</ele><time>2026-04-10T11:22:06.929Z</time></trkpt><trkpt lat="44.116555" lon="8.0697317"><ele>304.0</ele><time>2026-04-10T11:22:08.929Z</time></trkpt><trkpt lat="44.1166067" lon="8.0697883"><ele>304.0</ele><time>2026-04-10T11:22:10.929Z</time></trkpt><trkpt lat="44.1166733" lon="8.0698683"><ele>304.0</ele><time>2026-04-10T11:22:12.93Z</time></trkpt><trkpt lat="44.11673" lon="8.0699167"><ele>304.0</ele><time>2026-04-10T11:22:13.929Z</time></trkpt><trkpt lat="44.11683" lon="8.069985"><ele>304.0</ele><time>2026-04-10T11:22:15.929Z</time></trkpt><trkpt lat="44.1169267" lon="8.0700467"><ele>304.8333333333333</ele><time>2026-04-10T11:22:17.929Z</time></trkpt><trkpt lat="44.11698" lon="8.0701017"><ele>305.66666666666663</ele><time>2026-04-10T11:22:19.929Z</time></trkpt><trkpt lat="44.1170317" lon="8.070195"><ele>306.5</ele><time>2026-04-10T11:22:21.929Z</time></trkpt><trkpt lat="44.117125" lon="8.0702967"><ele>307.3333333333333</ele><time>2026-04-10T11:23:14.929Z</time></trkpt><trkpt lat="44.1171667" lon="8.070175"><ele>308.1666666666667</ele><time>2026-04-10T11:23:17.929Z</time></trkpt><trkpt lat="44.1171883" lon="8.07007"><ele>309.0</ele><time>2026-04-10T11:23:19.929Z</time></trkpt><trkpt lat="44.1171667" lon="8.0699083"><ele>304.5</ele><time>2026-04-10T11:23:41.929Z</time></trkpt><trkpt lat="44.1171617" lon="8.0697983"><ele>300.0</ele><time>2026-04-10T11:23:44.929Z</time></trkpt><trkpt lat="44.1171717" lon="8.0697117"><ele>295.5</ele><time>2026-04-10T11:23:46.93Z</time></trkpt><trkpt lat="44.1171683" lon="8.069605"><ele>291.0</ele><time>2026-04-10T11:23:52.929Z</time></trkpt><trkpt lat="44.117175" lon="8.0695033"><ele>286.5</ele><time>2026-04-10T11:23:55.929Z</time></trkpt><trkpt lat="44.1171917" lon="8.0694167"><ele>282.0</ele><time>2026-04-10T11:23:58.929Z</time></trkpt><trkpt lat="44.1172183" lon="8.069285"><ele>282.0</ele><time>2026-04-10T11:24:01.929Z</time></trkpt><trkpt lat="44.1172617" lon="8.0691967"><ele>282.0</ele><time>2026-04-10T11:24:03.929Z</time></trkpt><trkpt lat="44.1173333" lon="8.0691217"><ele>282.0</ele><time>2026-04-10T11:24:06.929Z</time></trkpt><trkpt lat="44.1173967" lon="8.06909"><ele>282.0</ele><time>2026-04-10T11:24:08.929Z</time></trkpt><trkpt lat="44.1174667" lon="8.0690617"><ele>282.0</ele><time>2026-04-10T11:24:11.93Z</time></trkpt><trkpt lat="44.1175617" lon="8.0689967"><ele>282.0</ele><time>2026-04-10T11:24:52.929Z</time></trkpt><trkpt lat="44.117645" lon="8.068915"><ele>282.0</ele><time>2026-04-10T11:24:55.929Z</time></trkpt><trkpt lat="44.1177133" lon="8.0688467"><ele>282.0</ele><time>2026-04-10T11:24:57.929Z</time></trkpt><trkpt lat="44.117785" lon="8.06878"><ele>282.0</ele><time>2026-04-10T11:24:59.929Z</time></trkpt><trkpt lat="44.1178517" lon="8.0687"><ele>282.0</ele><time>2026-04-10T11:25:02.929Z</time></trkpt><trkpt lat="44.1179" lon="8.0686433"><ele>282.0</ele><time>2026-04-10T11:25:14.929Z</time></trkpt><trkpt lat="44.1179417" lon="8.06856"><ele>282.0</ele><time>2026-04-10T11:25:23.929Z</time></trkpt><trkpt lat="44.117995" lon="8.0684967"><ele>282.0</ele><time>2026-04-10T11:25:26.929Z</time></trkpt><trkpt lat="44.1180483" lon="8.06845"><ele>282.0</ele><time>2026-04-10T11:25:40.929Z</time></trkpt><trkpt lat="44.118115" lon="8.0684033"><ele>282.0</ele><time>2026-04-10T11:25:44.929Z</time></trkpt><trkpt lat="44.1181967" lon="8.0683033"><ele>282.0</ele><time>2026-04-10T11:25:46.929Z</time></trkpt><trkpt lat="44.1182417" lon="8.0682333"><ele>282.0</ele><time>2026-04-10T11:25:47.929Z</time></trkpt><trkpt lat="44.1183017" lon="8.068115"><ele>282.0</ele><time>2026-04-10T11:25:49.929Z</time></trkpt><trkpt lat="44.1183483" lon="8.0680067"><ele>284.6666666666667</ele><time>2026-04-10T11:25:52.93Z</time></trkpt><trkpt lat="44.1183817" lon="8.0679267"><ele>287.3333333333333</ele><time>2026-04-10T11:25:54.929Z</time></trkpt><trkpt lat="44.118415" lon="8.0678183"><ele>290.0</ele><time>2026-04-10T11:25:57.929Z</time></trkpt><trkpt lat="44.1184567" lon="8.0676917"><ele>292.66666666666663</ele><time>2026-04-10T11:25:59.929Z</time></trkpt><trkpt lat="44.1184917" lon="8.067615"><ele>295.3333333333333</ele><time>2026-04-10T11:26:00.929Z</time></trkpt><trkpt lat="44.1185433" lon="8.06752"><ele>298.0</ele><time>2026-04-10T11:26:01.929Z</time></trkpt><trkpt lat="44.1186083" lon="8.0674083"><ele>298.4</ele><time>2026-04-10T11:26:02.929Z</time></trkpt><trkpt lat="44.118685" lon="8.0672983"><ele>298.8</ele><time>2026-04-10T11:26:03.929Z</time></trkpt><trkpt lat="44.118755" lon="8.0671967"><ele>299.2</ele><time>2026-04-10T11:26:04.93Z</time></trkpt><trkpt lat="44.1188317" lon="8.06712"><ele>299.6</ele><time>2026-04-10T11:26:05.929Z</time></trkpt><trkpt lat="44.118915" lon="8.0670617"><ele>300.0</ele><time>2026-04-10T11:26:06.929Z</time></trkpt><trkpt lat="44.1190083" lon="8.0669917"><ele>301.0</ele><time>2026-04-10T11:26:07.929Z</time></trkpt><trkpt lat="44.1191033" lon="8.066905"><ele>302.0</ele><time>2026-04-10T11:26:08.929Z</time></trkpt><trkpt lat="44.11919" lon="8.0668233"><ele>303.0</ele><time>2026-04-10T11:26:09.929Z</time></trkpt><trkpt lat="44.11927" lon="8.0667417"><ele>304.0</ele><time>2026-04-10T11:26:10.929Z</time></trkpt><trkpt lat="44.11935" lon="8.0666783"><ele>305.0</ele><time>2026-04-10T11:26:11.929Z</time></trkpt><trkpt lat="44.1194183" lon="8.0666567"><ele>305.0</ele><time>2026-04-10T11:26:12.929Z</time></trkpt><trkpt lat="44.1194867" lon="8.066655"><ele>305.0</ele><time>2026-04-10T11:26:13.929Z</time></trkpt><trkpt lat="44.119555" lon="8.0666567"><ele>305.0</ele><time>2026-04-10T11:26:14.929Z</time></trkpt><trkpt lat="44.1196183" lon="8.066625"><ele>305.0</ele><time>2026-04-10T11:26:15.929Z</time></trkpt><trkpt lat="44.1196717" lon="8.0665217"><ele>305.0</ele><time>2026-04-10T11:26:17.929Z</time></trkpt><trkpt lat="44.1196067" lon="8.0664"><ele>305.0</ele><time>2026-04-10T11:26:19.93Z</time></trkpt><trkpt lat="44.1195517" lon="8.0663217"><ele>306.2</ele><time>2026-04-10T11:26:20.929Z</time></trkpt><trkpt lat="44.1194967" lon="8.0662133"><ele>307.4</ele><time>2026-04-10T11:26:21.929Z</time></trkpt><trkpt lat="44.1194667" lon="8.0661"><ele>308.6</ele><time>2026-04-10T11:26:22.929Z</time></trkpt><trkpt lat="44.1194617" lon="8.06598"><ele>309.8</ele><time>2026-04-10T11:26:23.929Z</time></trkpt><trkpt lat="44.1194817" lon="8.0658517"><ele>311.0</ele><time>2026-04-10T11:26:24.929Z</time></trkpt><trkpt lat="44.1195117" lon="8.065715"><ele>315.6</ele><time>2026-04-10T11:26:25.929Z</time></trkpt><trkpt lat="44.1195267" lon="8.0655833"><ele>320.20000000000005</ele><time>2026-04-10T11:26:26.929Z</time></trkpt><trkpt lat="44.119525" lon="8.0654717"><ele>324.79999999999995</ele><time>2026-04-10T11:26:27.929Z</time></trkpt><trkpt lat="44.1194517" lon="8.0653883"><ele>329.4</ele><time>2026-04-10T11:26:29.929Z</time></trkpt><trkpt lat="44.1193367" lon="8.0653933"><ele>334.0</ele><time>2026-04-10T11:26:31.929Z</time></trkpt><trkpt lat="44.119285" lon="8.065465"><ele>334.0</ele><time>2026-04-10T11:26:32.929Z</time></trkpt><trkpt lat="44.11922" lon="8.0655533"><ele>334.0</ele><time>2026-04-10T11:26:33.929Z</time></trkpt><trkpt lat="44.119135" lon="8.0656533"><ele>334.0</ele><time>2026-04-10T11:26:34.929Z</time></trkpt><trkpt lat="44.1190417" lon="8.0657483"><ele>334.0</ele><time>2026-04-10T11:26:35.929Z</time></trkpt><trkpt lat="44.118955" lon="8.0658333"><ele>334.0</ele><time>2026-04-10T11:26:36.929Z</time></trkpt><trkpt lat="44.11888" lon="8.065905"><ele>333.66666666666663</ele><time>2026-04-10T11:26:37.929Z</time></trkpt><trkpt lat="44.1188017" lon="8.0659733"><ele>333.3333333333333</ele><time>2026-04-10T11:26:38.929Z</time></trkpt><trkpt lat="44.1187283" lon="8.0660383"><ele>333.0</ele><time>2026-04-10T11:26:39.929Z</time></trkpt><trkpt lat="44.118655" lon="8.0661067"><ele>332.6666666666667</ele><time>2026-04-10T11:26:40.929Z</time></trkpt><trkpt lat="44.1185817" lon="8.066175"><ele>332.33333333333337</ele><time>2026-04-10T11:26:41.929Z</time></trkpt><trkpt lat="44.11851" lon="8.0662383"><ele>332.0</ele><time>2026-04-10T11:26:42.929Z</time></trkpt><trkpt lat="44.11843" lon="8.0662983"><ele>332.0</ele><time>2026-04-10T11:26:43.929Z</time></trkpt><trkpt lat="44.11835" lon="8.0663517"><ele>332.0</ele><time>2026-04-10T11:26:44.929Z</time></trkpt><trkpt lat="44.118265" lon="8.0664233"><ele>332.0</ele><time>2026-04-10T11:26:45.929Z</time></trkpt><trkpt lat="44.1181867" lon="8.0664883"><ele>332.0</ele><time>2026-04-10T11:26:46.929Z</time></trkpt><trkpt lat="44.11811" lon="8.0665583"><ele>332.0</ele><time>2026-04-10T11:26:47.929Z</time></trkpt><trkpt lat="44.1180333" lon="8.06664"><ele>327.6</ele><time>2026-04-10T11:26:48.929Z</time></trkpt><trkpt lat="44.1179567" lon="8.06672"><ele>323.20000000000005</ele><time>2026-04-10T11:26:49.93Z</time></trkpt><trkpt lat="44.1178733" lon="8.0667867"><ele>318.8</ele><time>2026-04-10T11:26:50.929Z</time></trkpt><trkpt lat="44.1178033" lon="8.06686"><ele>314.4</ele><time>2026-04-10T11:26:51.93Z</time></trkpt><trkpt lat="44.1177467" lon="8.066935"><ele>310.0</ele><time>2026-04-10T11:26:52.929Z</time></trkpt><trkpt lat="44.11765" lon="8.0670317"><ele>310.0</ele><time>2026-04-10T11:26:54.929Z</time></trkpt><trkpt lat="44.1175367" lon="8.0670567"><ele>310.0</ele><time>2026-04-10T11:26:56.929Z</time></trkpt><trkpt lat="44.117465" lon="8.0670683"><ele>310.0</ele><time>2026-04-10T11:26:57.93Z</time></trkpt><trkpt lat="44.11739" lon="8.0670817"><ele>310.0</ele><time>2026-04-10T11:26:58.929Z</time></trkpt><trkpt lat="44.1173083" lon="8.0670783"><ele>310.0</ele><time>2026-04-10T11:26:59.929Z</time></trkpt><trkpt lat="44.1172333" lon="8.0670533"><ele>310.0</ele><time>2026-04-10T11:27:00.929Z</time></trkpt><trkpt lat="44.117145" lon="8.0670367"><ele>307.8333333333333</ele><time>2026-04-10T11:27:01.929Z</time></trkpt><trkpt lat="44.11706" lon="8.06701"><ele>305.66666666666663</ele><time>2026-04-10T11:27:02.929Z</time></trkpt><trkpt lat="44.1169833" lon="8.0669733"><ele>303.5</ele><time>2026-04-10T11:27:03.929Z</time></trkpt><trkpt lat="44.11691" lon="8.0669383"><ele>301.3333333333333</ele><time>2026-04-10T11:27:04.929Z</time></trkpt><trkpt lat="44.1168467" lon="8.06689"><ele>299.1666666666667</ele><time>2026-04-10T11:27:05.929Z</time></trkpt><trkpt lat="44.1167933" lon="8.0668217"><ele>297.0</ele><time>2026-04-10T11:27:06.929Z</time></trkpt><trkpt lat="44.116745" lon="8.0667317"><ele>297.0</ele><time>2026-04-10T11:27:07.929Z</time></trkpt><trkpt lat="44.116695" lon="8.0666317"><ele>297.0</ele><time>2026-04-10T11:27:08.929Z</time></trkpt><trkpt lat="44.1166483" lon="8.0665183"><ele>297.0</ele><time>2026-04-10T11:27:09.929Z</time></trkpt><trkpt lat="44.11661" lon="8.0664067"><ele>297.0</ele><time>2026-04-10T11:27:10.929Z</time></trkpt><trkpt lat="44.1165783" lon="8.0662683"><ele>297.0</ele><time>2026-04-10T11:27:11.929Z</time></trkpt><trkpt lat="44.11654" lon="8.0661417"><ele>295.4</ele><time>2026-04-10T11:27:12.929Z</time></trkpt><trkpt lat="44.1165" lon="8.0660133"><ele>293.79999999999995</ele><time>2026-04-10T11:27:13.929Z</time></trkpt><trkpt lat="44.1164633" lon="8.0658867"><ele>292.2</ele><time>2026-04-10T11:27:14.929Z</time></trkpt><trkpt lat="44.1164217" lon="8.0657567"><ele>290.59999999999997</ele><time>2026-04-10T11:27:15.929Z</time></trkpt><trkpt lat="44.1163767" lon="8.0656283"><ele>289.0</ele><time>2026-04-10T11:27:16.929Z</time></trkpt><trkpt lat="44.116335" lon="8.0655"><ele>294.5</ele><time>2026-04-10T11:27:17.93Z</time></trkpt><trkpt lat="44.1163" lon="8.0653717"><ele>300.0</ele><time>2026-04-10T11:27:18.929Z</time></trkpt><trkpt lat="44.1162733" lon="8.06525"><ele>305.5</ele><time>2026-04-10T11:27:19.929Z</time></trkpt><trkpt lat="44.1162367" lon="8.0651517"><ele>311.0</ele><time>2026-04-10T11:27:20.929Z</time></trkpt><trkpt lat="44.1161883" lon="8.065085"><ele>316.5</ele><time>2026-04-10T11:27:21.929Z</time></trkpt><trkpt lat="44.116095" lon="8.065075"><ele>322.0</ele><time>2026-04-10T11:27:23.929Z</time></trkpt><trkpt lat="44.11604" lon="8.0651867"><ele>322.0</ele><time>2026-04-10T11:27:24.929Z</time></trkpt><trkpt lat="44.1159933" lon="8.0653033"><ele>322.0</ele><time>2026-04-10T11:27:25.929Z</time></trkpt><trkpt lat="44.115955" lon="8.06543"><ele>322.0</ele><time>2026-04-10T11:27:26.929Z</time></trkpt><trkpt lat="44.1159117" lon="8.06556"><ele>322.0</ele><time>2026-04-10T11:27:27.929Z</time></trkpt><trkpt lat="44.1158483" lon="8.0656883"><ele>322.0</ele><time>2026-04-10T11:27:28.929Z</time></trkpt><trkpt lat="44.115775" lon="8.0657783"><ele>323.5</ele><time>2026-04-10T11:27:29.929Z</time></trkpt><trkpt lat="44.1156967" lon="8.0657983"><ele>325.0</ele><time>2026-04-10T11:27:30.929Z</time></trkpt><trkpt lat="44.1156083" lon="8.06579"><ele>326.5</ele><time>2026-04-10T11:27:31.929Z</time></trkpt><trkpt lat="44.1155233" lon="8.0657583"><ele>328.0</ele><time>2026-04-10T11:27:32.93Z</time></trkpt><trkpt lat="44.1154433" lon="8.0657333"><ele>329.5</ele><time>2026-04-10T11:27:33.929Z</time></trkpt><trkpt lat="44.11536" lon="8.0657133"><ele>331.0</ele><time>2026-04-10T11:27:34.929Z</time></trkpt><trkpt lat="44.1152667" lon="8.065695"><ele>331.0</ele><time>2026-04-10T11:27:35.929Z</time></trkpt><trkpt lat="44.1151683" lon="8.065675"><ele>331.0</ele><time>2026-04-10T11:27:36.929Z</time></trkpt><trkpt lat="44.11507" lon="8.06565"><ele>331.0</ele><time>2026-04-10T11:27:37.929Z</time></trkpt><trkpt lat="44.1149717" lon="8.0656133"><ele>331.0</ele><time>2026-04-10T11:27:38.929Z</time></trkpt><trkpt lat="44.1148767" lon="8.0655783"><ele>331.0</ele><time>2026-04-10T11:27:39.929Z</time></trkpt><trkpt lat="44.11478" lon="8.06554"><ele>330.6</ele><time>2026-04-10T11:27:40.929Z</time></trkpt><trkpt lat="44.1146817" lon="8.0654967"><ele>330.20000000000005</ele><time>2026-04-10T11:27:41.929Z</time></trkpt><trkpt lat="44.1145817" lon="8.0654567"><ele>329.79999999999995</ele><time>2026-04-10T11:27:42.929Z</time></trkpt><trkpt lat="44.1144883" lon="8.0654467"><ele>329.4</ele><time>2026-04-10T11:27:43.929Z</time></trkpt><trkpt lat="44.1144017" lon="8.065445"><ele>329.0</ele><time>2026-04-10T11:27:44.929Z</time></trkpt><trkpt lat="44.1143083" lon="8.0654733"><ele>329.0</ele><time>2026-04-10T11:27:45.929Z</time></trkpt><trkpt lat="44.1142167" lon="8.0655167"><ele>329.0</ele><time>2026-04-10T11:27:46.929Z</time></trkpt><trkpt lat="44.1141333" lon="8.0655517"><ele>329.0</ele><time>2026-04-10T11:27:47.93Z</time></trkpt><trkpt lat="44.1140517" lon="8.0655833"><ele>329.0</ele><time>2026-04-10T11:27:48.93Z</time></trkpt><trkpt lat="44.1139667" lon="8.0656183"><ele>329.0</ele><time>2026-04-10T11:27:49.929Z</time></trkpt><trkpt lat="44.11389" lon="8.0656733"><ele>329.0</ele><time>2026-04-10T11:27:50.929Z</time></trkpt><trkpt lat="44.1138217" lon="8.0657467"><ele>318.83333333333337</ele><time>2026-04-10T11:27:51.929Z</time></trkpt><trkpt lat="44.1137733" lon="8.0658133"><ele>308.6666666666667</ele><time>2026-04-10T11:27:52.929Z</time></trkpt><trkpt lat="44.1137133" lon="8.0658767"><ele>298.5</ele><time>2026-04-10T11:27:53.929Z</time></trkpt><trkpt lat="44.1136383" lon="8.0659117"><ele>288.3333333333333</ele><time>2026-04-10T11:27:54.929Z</time></trkpt><trkpt lat="44.11356" lon="8.0659283"><ele>278.16666666666663</ele><time>2026-04-10T11:27:55.929Z</time></trkpt><trkpt lat="44.113485" lon="8.0659317"><ele>268.0</ele><time>2026-04-10T11:27:56.929Z</time></trkpt><trkpt lat="44.1133933" lon="8.06594"><ele>268.0</ele><time>2026-04-10T11:27:57.929Z</time></trkpt><trkpt lat="44.1133033" lon="8.0659367"><ele>268.0</ele><time>2026-04-10T11:27:58.929Z</time></trkpt><trkpt lat="44.113215" lon="8.0659283"><ele>268.0</ele><time>2026-04-10T11:27:59.93Z</time></trkpt><trkpt lat="44.1131283" lon="8.0659233"><ele>268.0</ele><time>2026-04-10T11:28:00.929Z</time></trkpt><trkpt lat="44.1130383" lon="8.0659083"><ele>268.0</ele><time>2026-04-10T11:28:01.929Z</time></trkpt><trkpt lat="44.11295" lon="8.0659067"><ele>268.0</ele><time>2026-04-10T11:28:02.929Z</time></trkpt><trkpt lat="44.1128617" lon="8.06593"><ele>263.8333333333333</ele><time>2026-04-10T11:28:03.929Z</time></trkpt><trkpt lat="44.1127983" lon="8.0659867"><ele>259.66666666666663</ele><time>2026-04-10T11:28:04.929Z</time></trkpt><trkpt lat="44.112745" lon="8.066065"><ele>255.5</ele><time>2026-04-10T11:28:05.929Z</time></trkpt><trkpt lat="44.1126567" lon="8.0661717"><ele>251.33333333333331</ele><time>2026-04-10T11:28:07.929Z</time></trkpt><trkpt lat="44.1125883" lon="8.0662117"><ele>247.16666666666666</ele><time>2026-04-10T11:28:19.93Z</time></trkpt><trkpt lat="44.11261" lon="8.0663033"><ele>243.0</ele><time>2026-04-10T11:28:22.929Z</time></trkpt><trkpt lat="44.1126067" lon="8.0664017"><ele>243.0</ele><time>2026-04-10T11:28:25.929Z</time></trkpt><trkpt lat="44.1125467" lon="8.066475"><ele>243.0</ele><time>2026-04-10T12:05:32.929Z</time></trkpt><trkpt lat="44.1125133" lon="8.0665833"><ele>243.0</ele><time>2026-04-10T12:05:41.929Z</time></trkpt></trkseg><trkseg><trkpt lat="44.1167721" lon="8.0825455"><ele>457.00000000000006</ele><time>2026-04-10T12:40:15.194Z</time></trkpt><trkpt lat="44.1167171" lon="8.0824614"><ele>457.0</ele><time>2026-04-10T12:40:18.194Z</time></trkpt><trkpt lat="44.1166828" lon="8.0823857"><ele>457.0</ele><time>2026-04-10T12:40:20.195Z</time></trkpt><trkpt lat="44.11664" lon="8.0822928"><ele>457.0</ele><time>2026-04-10T12:40:25.195Z</time></trkpt><trkpt lat="44.1166619" lon="8.0822053"><ele>457.00000000000006</ele><time>2026-04-10T12:40:41.951Z</time></trkpt><trkpt lat="44.1167372" lon="8.0820777"><ele>457.0</ele><time>2026-04-10T12:40:43.951Z</time></trkpt><trkpt lat="44.1168291" lon="8.0819804"><ele>454.00000000000006</ele><time>2026-04-10T12:40:45.951Z</time></trkpt><trkpt lat="44.1169461" lon="8.0819269"><ele>451.0</ele><time>2026-04-10T12:40:47.951Z</time></trkpt><trkpt lat="44.1170076" lon="8.0819055"><ele>448.0</ele><time>2026-04-10T12:40:48.951Z</time></trkpt><trkpt lat="44.1170726" lon="8.0818807"><ele>445.0</ele><time>2026-04-10T12:40:49.952Z</time></trkpt><trkpt lat="44.117141" lon="8.08184"><ele>442.00000000000006</ele><time>2026-04-10T12:40:50.951Z</time></trkpt><trkpt lat="44.1172032" lon="8.0817811"><ele>439.0</ele><time>2026-04-10T12:40:51.952Z</time></trkpt><trkpt lat="44.1172662" lon="8.0817169"><ele>439.00000000000006</ele><time>2026-04-10T12:40:52.951Z</time></trkpt><trkpt lat="44.1173428" lon="8.0816616"><ele>439.0</ele><time>2026-04-10T12:40:53.951Z</time></trkpt><trkpt lat="44.1174173" lon="8.0816195"><ele>439.0</ele><time>2026-04-10T12:40:54.951Z</time></trkpt><trkpt lat="44.1174865" lon="8.0815963"><ele>439.0</ele><time>2026-04-10T12:40:55.951Z</time></trkpt><trkpt lat="44.1175805" lon="8.081577"><ele>439.00000000000006</ele><time>2026-04-10T12:40:57.951Z</time></trkpt><trkpt lat="44.1176634" lon="8.0815178"><ele>439.0</ele><time>2026-04-10T12:40:59.951Z</time></trkpt><trkpt lat="44.1177283" lon="8.0814297"><ele>441.6</ele><time>2026-04-10T12:41:01.951Z</time></trkpt><trkpt lat="44.1177943" lon="8.0814106"><ele>444.2</ele><time>2026-04-10T12:41:03.951Z</time></trkpt><trkpt lat="44.1178829" lon="8.0814711"><ele>446.80000000000007</ele><time>2026-04-10T12:41:05.951Z</time></trkpt><trkpt lat="44.1179778" lon="8.0815831"><ele>449.40000000000003</ele><time>2026-04-10T12:41:07.951Z</time></trkpt><trkpt lat="44.1180329" lon="8.0816312"><ele>452.0</ele><time>2026-04-10T12:41:08.952Z</time></trkpt><trkpt lat="44.118126" lon="8.0816849"><ele>455.3333333333333</ele><time>2026-04-10T12:41:10.951Z</time></trkpt><trkpt lat="44.1182312" lon="8.0816599"><ele>458.66666666666663</ele><time>2026-04-10T12:41:26.951Z</time></trkpt><trkpt lat="44.1183027" lon="8.0816423"><ele>462.0</ele><time>2026-04-10T12:41:28.951Z</time></trkpt><trkpt lat="44.1183714" lon="8.0816414"><ele>465.33333333333337</ele><time>2026-04-10T12:41:30.951Z</time></trkpt><trkpt lat="44.1184437" lon="8.08162"><ele>468.6666666666667</ele><time>2026-04-10T12:41:33.952Z</time></trkpt><trkpt lat="44.1183508" lon="8.0816051"><ele>472.0</ele><time>2026-04-10T12:41:47.951Z</time></trkpt><trkpt lat="44.118267" lon="8.0816113"><ele>472.00000000000006</ele><time>2026-04-10T12:41:50.951Z</time></trkpt><trkpt lat="44.1181842" lon="8.0816367"><ele>472.0</ele><time>2026-04-10T12:42:03.951Z</time></trkpt><trkpt lat="44.1180998" lon="8.0816151"><ele>472.0</ele><time>2026-04-10T12:42:05.952Z</time></trkpt><trkpt lat="44.1180032" lon="8.0815343"><ele>472.0</ele><time>2026-04-10T12:42:07.952Z</time></trkpt><trkpt lat="44.1179258" lon="8.0814539"><ele>472.00000000000006</ele><time>2026-04-10T12:42:09.951Z</time></trkpt><trkpt lat="44.1178619" lon="8.0814204"><ele>472.0</ele><time>2026-04-10T12:42:11.951Z</time></trkpt><trkpt lat="44.1177927" lon="8.0814006"><ele>468.6666666666667</ele><time>2026-04-10T12:42:13.951Z</time></trkpt><trkpt lat="44.1177194" lon="8.0814184"><ele>465.33333333333337</ele><time>2026-04-10T12:42:15.951Z</time></trkpt><trkpt lat="44.1176452" lon="8.0814762"><ele>462.0</ele><time>2026-04-10T12:42:18.951Z</time></trkpt><trkpt lat="44.1177159" lon="8.0813679"><ele>458.66666666666663</ele><time>2026-04-10T12:42:39.951Z</time></trkpt><trkpt lat="44.1177849" lon="8.081309"><ele>455.3333333333333</ele><time>2026-04-10T12:42:42.951Z</time></trkpt><trkpt lat="44.1178648" lon="8.0813061"><ele>452.0</ele><time>2026-04-10T12:42:45.952Z</time></trkpt><trkpt lat="44.1178017" lon="8.0812899"><ele>451.99999999999994</ele><time>2026-04-10T12:43:54.951Z</time></trkpt><trkpt lat="44.1177287" lon="8.0813364"><ele>452.0</ele><time>2026-04-10T12:44:01.951Z</time></trkpt><trkpt lat="44.1176777" lon="8.0814223"><ele>452.0</ele><time>2026-04-10T12:44:08.951Z</time></trkpt><trkpt lat="44.1176098" lon="8.0814689"><ele>452.0</ele><time>2026-04-10T12:44:10.951Z</time></trkpt><trkpt lat="44.1175412" lon="8.0814865"><ele>451.99999999999994</ele><time>2026-04-10T12:44:12.951Z</time></trkpt><trkpt lat="44.117461" lon="8.0814955"><ele>452.0</ele><time>2026-04-10T12:44:14.951Z</time></trkpt><trkpt lat="44.1173512" lon="8.0815565"><ele>449.40000000000003</ele><time>2026-04-10T12:44:16.951Z</time></trkpt><trkpt lat="44.1172414" lon="8.0816318"><ele>446.80000000000007</ele><time>2026-04-10T12:44:18.951Z</time></trkpt><trkpt lat="44.1171344" lon="8.0817271"><ele>444.2</ele><time>2026-04-10T12:44:20.951Z</time></trkpt><trkpt lat="44.1170795" lon="8.0817942"><ele>441.6</ele><time>2026-04-10T12:44:21.951Z</time></trkpt><trkpt lat="44.1170152" lon="8.0818535"><ele>439.0</ele><time>2026-04-10T12:44:22.951Z</time></trkpt><trkpt lat="44.1169478" lon="8.0818936"><ele>439.0</ele><time>2026-04-10T12:44:23.952Z</time></trkpt><trkpt lat="44.1168325" lon="8.0819313"><ele>439.0</ele><time>2026-04-10T12:44:25.951Z</time></trkpt><trkpt lat="44.1167418" lon="8.0820112"><ele>439.0</ele><time>2026-04-10T12:44:27.951Z</time></trkpt><trkpt lat="44.1166721" lon="8.082133"><ele>439.0</ele><time>2026-04-10T12:44:29.951Z</time></trkpt><trkpt lat="44.116609" lon="8.082253"><ele>439.0</ele><time>2026-04-10T12:44:31.951Z</time></trkpt><trkpt lat="44.1165289" lon="8.0823239"><ele>433.50000000000006</ele><time>2026-04-10T12:44:33.951Z</time></trkpt><trkpt lat="44.1164617" lon="8.0823948"><ele>428.0</ele><time>2026-04-10T12:44:35.951Z</time></trkpt><trkpt lat="44.116437" lon="8.0823134"><ele>422.5</ele><time>2026-04-10T12:58:19.951Z</time></trkpt><trkpt lat="44.1164323" lon="8.0821787"><ele>417.0</ele><time>2026-04-10T12:58:21.951Z</time></trkpt><trkpt lat="44.1164371" lon="8.0820541"><ele>411.50000000000006</ele><time>2026-04-10T12:58:23.951Z</time></trkpt><trkpt lat="44.1164263" lon="8.0819644"><ele>406.0</ele><time>2026-04-10T12:58:27.951Z</time></trkpt><trkpt lat="44.1163679" lon="8.082079"><ele>406.00000000000006</ele><time>2026-04-10T12:58:48.951Z</time></trkpt><trkpt lat="44.1163411" lon="8.0821705"><ele>406.0</ele><time>2026-04-10T12:58:49.951Z</time></trkpt><trkpt lat="44.1163127" lon="8.0822855"><ele>406.0</ele><time>2026-04-10T12:58:50.951Z</time></trkpt><trkpt lat="44.1162894" lon="8.082402"><ele>406.0</ele><time>2026-04-10T12:58:51.951Z</time></trkpt><trkpt lat="44.1162817" lon="8.082517"><ele>406.00000000000006</ele><time>2026-04-10T12:58:52.951Z</time></trkpt><trkpt lat="44.1162636" lon="8.0826363"><ele>406.0</ele><time>2026-04-10T12:58:53.951Z</time></trkpt><trkpt lat="44.116253" lon="8.0827502"><ele>408.1666666666667</ele><time>2026-04-10T12:58:54.951Z</time></trkpt><trkpt lat="44.1162424" lon="8.082856"><ele>410.33333333333337</ele><time>2026-04-10T12:58:55.951Z</time></trkpt><trkpt lat="44.1162217" lon="8.0829523"><ele>412.5</ele><time>2026-04-10T12:58:56.951Z</time></trkpt><trkpt lat="44.1162035" lon="8.0830583"><ele>414.66666666666663</ele><time>2026-04-10T12:58:57.951Z</time></trkpt><trkpt lat="44.1161914" lon="8.083176"><ele>416.8333333333333</ele><time>2026-04-10T12:58:58.951Z</time></trkpt><trkpt lat="44.1161749" lon="8.0832667"><ele>419.0</ele><time>2026-04-10T12:58:59.952Z</time></trkpt><trkpt lat="44.1161508" lon="8.0833669"><ele>422.57142857142856</ele><time>2026-04-10T12:59:00.951Z</time></trkpt><trkpt lat="44.116115" lon="8.0834576"><ele>426.1428571428571</ele><time>2026-04-10T12:59:01.951Z</time></trkpt><trkpt lat="44.116069" lon="8.0835231"><ele>429.71428571428567</ele><time>2026-04-10T12:59:02.951Z</time></trkpt><trkpt lat="44.1160142" lon="8.0835802"><ele>433.2857142857143</ele><time>2026-04-10T12:59:03.951Z</time></trkpt><trkpt lat="44.1159541" lon="8.0836303"><ele>436.8571428571429</ele><time>2026-04-10T12:59:04.951Z</time></trkpt><trkpt lat="44.1158933" lon="8.0836895"><ele>440.4285714285714</ele><time>2026-04-10T12:59:05.952Z</time></trkpt><trkpt lat="44.1158073" lon="8.0837282"><ele>444.0</ele><time>2026-04-10T12:59:07.951Z</time></trkpt><trkpt lat="44.1157202" lon="8.0836486"><ele>444.8333333333333</ele><time>2026-04-10T12:59:09.951Z</time></trkpt><trkpt lat="44.1156792" lon="8.0835717"><ele>445.66666666666663</ele><time>2026-04-10T12:59:10.951Z</time></trkpt><trkpt lat="44.1156358" lon="8.0834838"><ele>446.5</ele><time>2026-04-10T12:59:11.951Z</time></trkpt><trkpt lat="44.1155893" lon="8.0833908"><ele>447.3333333333333</ele><time>2026-04-10T12:59:12.951Z</time></trkpt><trkpt lat="44.1155436" lon="8.0832962"><ele>448.16666666666663</ele><time>2026-04-10T12:59:13.951Z</time></trkpt><trkpt lat="44.1154924" lon="8.0832032"><ele>449.0</ele><time>2026-04-10T12:59:14.951Z</time></trkpt><trkpt lat="44.115432" lon="8.0831107"><ele>443.79999999999995</ele><time>2026-04-10T12:59:15.951Z</time></trkpt><trkpt lat="44.1153542" lon="8.083018"><ele>438.59999999999997</ele><time>2026-04-10T12:59:16.951Z</time></trkpt><trkpt lat="44.1152748" lon="8.0829338"><ele>433.4</ele><time>2026-04-10T12:59:17.951Z</time></trkpt><trkpt lat="44.1151951" lon="8.0828534"><ele>428.2</ele><time>2026-04-10T12:59:18.951Z</time></trkpt><trkpt lat="44.1151102" lon="8.0827848"><ele>423.0</ele><time>2026-04-10T12:59:19.951Z</time></trkpt><trkpt lat="44.1150133" lon="8.0827146"><ele>423.0</ele><time>2026-04-10T12:59:20.951Z</time></trkpt><trkpt lat="44.1149127" lon="8.0826618"><ele>423.0</ele><time>2026-04-10T12:59:21.951Z</time></trkpt><trkpt lat="44.1148227" lon="8.0826257"><ele>423.0</ele><time>2026-04-10T12:59:22.951Z</time></trkpt><trkpt lat="44.1147377" lon="8.0825872"><ele>423.0</ele><time>2026-04-10T12:59:23.952Z</time></trkpt><trkpt lat="44.1146634" lon="8.0825377"><ele>423.0</ele><time>2026-04-10T12:59:24.952Z</time></trkpt><trkpt lat="44.1145905" lon="8.0824752"><ele>419.0</ele><time>2026-04-10T12:59:25.952Z</time></trkpt><trkpt lat="44.1145338" lon="8.0823985"><ele>415.0</ele><time>2026-04-10T12:59:26.951Z</time></trkpt><trkpt lat="44.1144839" lon="8.0823261"><ele>411.0</ele><time>2026-04-10T12:59:27.951Z</time></trkpt><trkpt lat="44.1143986" lon="8.082212"><ele>407.0</ele><time>2026-04-10T12:59:29.952Z</time></trkpt><trkpt lat="44.1143027" lon="8.0821571"><ele>403.0</ele><time>2026-04-10T12:59:31.951Z</time></trkpt><trkpt lat="44.1141823" lon="8.0821436"><ele>403.00000000000006</ele><time>2026-04-10T12:59:33.952Z</time></trkpt><trkpt lat="44.1141061" lon="8.0821084"><ele>403.0</ele><time>2026-04-10T12:59:34.952Z</time></trkpt><trkpt lat="44.1140354" lon="8.0820863"><ele>403.0</ele><time>2026-04-10T12:59:35.951Z</time></trkpt><trkpt lat="44.1139677" lon="8.0820557"><ele>403.0</ele><time>2026-04-10T12:59:36.951Z</time></trkpt><trkpt lat="44.1139069" lon="8.0820186"><ele>403.00000000000006</ele><time>2026-04-10T12:59:37.951Z</time></trkpt><trkpt lat="44.1138315" lon="8.0819328"><ele>403.0</ele><time>2026-04-10T12:59:39.951Z</time></trkpt><trkpt lat="44.1137522" lon="8.0818887"><ele>404.0</ele><time>2026-04-10T13:00:19.951Z</time></trkpt><trkpt lat="44.1136306" lon="8.0819263"><ele>405.0</ele><time>2026-04-10T13:00:21.951Z</time></trkpt><trkpt lat="44.1135408" lon="8.0819616"><ele>406.0</ele><time>2026-04-10T13:00:22.951Z</time></trkpt><trkpt lat="44.1134328" lon="8.0820014"><ele>407.0</ele><time>2026-04-10T13:00:23.951Z</time></trkpt><trkpt lat="44.1133082" lon="8.0820465"><ele>403.0</ele><time>2026-04-10T13:00:24.952Z</time></trkpt><trkpt lat="44.1131844" lon="8.0820942"><ele>399.0</ele><time>2026-04-10T13:00:25.951Z</time></trkpt><trkpt lat="44.1130676" lon="8.0821388"><ele>395.0</ele><time>2026-04-10T13:00:26.951Z</time></trkpt><trkpt lat="44.1129512" lon="8.0822039"><ele>391.0</ele><time>2026-04-10T13:00:27.951Z</time></trkpt><trkpt lat="44.1128504" lon="8.0822579"><ele>391.0</ele><time>2026-04-10T13:00:28.951Z</time></trkpt><trkpt lat="44.1127589" lon="8.0823134"><ele>391.0</ele><time>2026-04-10T13:00:29.951Z</time></trkpt><trkpt lat="44.1126607" lon="8.0823764"><ele>391.0</ele><time>2026-04-10T13:00:30.951Z</time></trkpt><trkpt lat="44.1125636" lon="8.0824412"><ele>391.0</ele><time>2026-04-10T13:00:31.951Z</time></trkpt><trkpt lat="44.1124725" lon="8.0825131"><ele>391.0</ele><time>2026-04-10T13:00:32.951Z</time></trkpt><trkpt lat="44.1123886" lon="8.0826021"><ele>391.0</ele><time>2026-04-10T13:00:33.951Z</time></trkpt><trkpt lat="44.1122929" lon="8.0826753"><ele>391.0</ele><time>2026-04-10T13:00:34.951Z</time></trkpt><trkpt lat="44.1121939" lon="8.0827382"><ele>391.0</ele><time>2026-04-10T13:00:35.951Z</time></trkpt><trkpt lat="44.1121039" lon="8.0828052"><ele>391.0</ele><time>2026-04-10T13:00:36.951Z</time></trkpt><trkpt lat="44.1120098" lon="8.0828737"><ele>391.0</ele><time>2026-04-10T13:00:37.951Z</time></trkpt><trkpt lat="44.1119244" lon="8.0829497"><ele>391.0</ele><time>2026-04-10T13:00:38.951Z</time></trkpt><trkpt lat="44.1118445" lon="8.0830282"><ele>391.0</ele><time>2026-04-10T13:00:39.952Z</time></trkpt><trkpt lat="44.1117583" lon="8.0831033"><ele>391.0</ele><time>2026-04-10T13:00:40.951Z</time></trkpt><trkpt lat="44.111677" lon="8.0831705"><ele>391.0</ele><time>2026-04-10T13:00:41.951Z</time></trkpt><trkpt lat="44.1116022" lon="8.083249"><ele>391.0</ele><time>2026-04-10T13:00:42.951Z</time></trkpt><trkpt lat="44.1115276" lon="8.0833213"><ele>392.33333333333337</ele><time>2026-04-10T13:00:43.951Z</time></trkpt><trkpt lat="44.1114475" lon="8.0833992"><ele>393.6666666666667</ele><time>2026-04-10T13:00:44.952Z</time></trkpt><trkpt lat="44.1113781" lon="8.0834849"><ele>395.0</ele><time>2026-04-10T13:00:45.951Z</time></trkpt><trkpt lat="44.111316" lon="8.0835734"><ele>396.33333333333337</ele><time>2026-04-10T13:00:46.951Z</time></trkpt><trkpt lat="44.1112686" lon="8.0836537"><ele>397.6666666666667</ele><time>2026-04-10T13:00:47.951Z</time></trkpt><trkpt lat="44.1112388" lon="8.0837437"><ele>399.0</ele><time>2026-04-10T13:00:49.952Z</time></trkpt><trkpt lat="44.1112951" lon="8.0838588"><ele>399.0</ele><time>2026-04-10T13:01:18.951Z</time></trkpt><trkpt lat="44.111342" lon="8.0840158"><ele>399.0</ele><time>2026-04-10T13:01:20.951Z</time></trkpt><trkpt lat="44.1113693" lon="8.0841046"><ele>399.0</ele><time>2026-04-10T13:01:21.951Z</time></trkpt><trkpt lat="44.1113979" lon="8.084202"><ele>399.0</ele><time>2026-04-10T13:01:22.951Z</time></trkpt><trkpt lat="44.1114292" lon="8.0842959"><ele>399.0</ele><time>2026-04-10T13:01:23.951Z</time></trkpt><trkpt lat="44.1114686" lon="8.0843768"><ele>399.0</ele><time>2026-04-10T13:01:24.952Z</time></trkpt><trkpt lat="44.1115077" lon="8.0844558"><ele>398.2</ele><time>2026-04-10T13:01:25.951Z</time></trkpt><trkpt lat="44.1115358" lon="8.0845349"><ele>397.4</ele><time>2026-04-10T13:01:26.951Z</time></trkpt><trkpt lat="44.1115943" lon="8.0846788"><ele>396.6</ele><time>2026-04-10T13:01:28.951Z</time></trkpt><trkpt lat="44.1116662" lon="8.08481"><ele>395.8</ele><time>2026-04-10T13:01:30.951Z</time></trkpt><trkpt lat="44.1117749" lon="8.0849046"><ele>395.0</ele><time>2026-04-10T13:01:32.951Z</time></trkpt><trkpt lat="44.1118403" lon="8.0849249"><ele>397.3333333333333</ele><time>2026-04-10T13:01:33.951Z</time></trkpt><trkpt lat="44.1119242" lon="8.0849375"><ele>399.66666666666663</ele><time>2026-04-10T13:01:34.951Z</time></trkpt><trkpt lat="44.1120067" lon="8.0849614"><ele>402.0</ele><time>2026-04-10T13:01:35.951Z</time></trkpt><trkpt lat="44.1120806" lon="8.085011"><ele>404.33333333333337</ele><time>2026-04-10T13:01:36.952Z</time></trkpt><trkpt lat="44.1121554" lon="8.085089"><ele>406.6666666666667</ele><time>2026-04-10T13:01:37.951Z</time></trkpt><trkpt lat="44.1122166" lon="8.0851854"><ele>409.0</ele><time>2026-04-10T13:01:38.951Z</time></trkpt><trkpt lat="44.1122665" lon="8.0852935"><ele>409.00000000000006</ele><time>2026-04-10T13:01:39.951Z</time></trkpt><trkpt lat="44.1123024" lon="8.0854051"><ele>409.0</ele><time>2026-04-10T13:01:40.951Z</time></trkpt><trkpt lat="44.1123316" lon="8.0855148"><ele>409.0</ele><time>2026-04-10T13:01:41.951Z</time></trkpt><trkpt lat="44.1123511" lon="8.0856039"><ele>409.0</ele><time>2026-04-10T13:01:42.951Z</time></trkpt><trkpt lat="44.1123332" lon="8.0857492"><ele>409.00000000000006</ele><time>2026-04-10T13:01:44.951Z</time></trkpt><trkpt lat="44.1122786" lon="8.0858096"><ele>409.0</ele><time>2026-04-10T13:01:46.951Z</time></trkpt><trkpt lat="44.1122039" lon="8.085782"><ele>409.0</ele><time>2026-04-10T13:01:48.951Z</time></trkpt><trkpt lat="44.1121259" lon="8.0856943"><ele>409.0</ele><time>2026-04-10T13:01:50.951Z</time></trkpt><trkpt lat="44.112052" lon="8.0856611"><ele>409.0</ele><time>2026-04-10T13:01:52.951Z</time></trkpt><trkpt lat="44.111966" lon="8.0857134"><ele>409.0</ele><time>2026-04-10T13:01:54.951Z</time></trkpt><trkpt lat="44.1118985" lon="8.0857889"><ele>409.0</ele><time>2026-04-10T13:01:55.951Z</time></trkpt><trkpt lat="44.1118265" lon="8.0858788"><ele>409.33333333333337</ele><time>2026-04-10T13:01:56.952Z</time></trkpt><trkpt lat="44.111761" lon="8.0859611"><ele>409.6666666666667</ele><time>2026-04-10T13:01:57.951Z</time></trkpt><trkpt lat="44.1117003" lon="8.086042"><ele>410.0</ele><time>2026-04-10T13:01:58.951Z</time></trkpt><trkpt lat="44.1116427" lon="8.0861082"><ele>410.33333333333337</ele><time>2026-04-10T13:01:59.951Z</time></trkpt><trkpt lat="44.1115573" lon="8.0861948"><ele>410.6666666666667</ele><time>2026-04-10T13:02:01.951Z</time></trkpt><trkpt lat="44.1114732" lon="8.0861453"><ele>411.0</ele><time>2026-04-10T13:02:04.951Z</time></trkpt><trkpt lat="44.1114239" lon="8.0860151"><ele>411.0</ele><time>2026-04-10T13:02:06.951Z</time></trkpt><trkpt lat="44.1113554" lon="8.0858982"><ele>411.0</ele><time>2026-04-10T13:02:08.951Z</time></trkpt><trkpt lat="44.1113056" lon="8.0858434"><ele>411.0</ele><time>2026-04-10T13:02:09.951Z</time></trkpt><trkpt lat="44.1112485" lon="8.0857889"><ele>411.0</ele><time>2026-04-10T13:02:10.951Z</time></trkpt><trkpt lat="44.1111896" lon="8.0857443"><ele>411.0</ele><time>2026-04-10T13:02:11.952Z</time></trkpt><trkpt lat="44.1111238" lon="8.0857108"><ele>411.0</ele><time>2026-04-10T13:02:12.951Z</time></trkpt><trkpt lat="44.1110594" lon="8.0856649"><ele>406.6666666666667</ele><time>2026-04-10T13:02:13.952Z</time></trkpt><trkpt lat="44.1109998" lon="8.0856252"><ele>402.33333333333337</ele><time>2026-04-10T13:02:14.951Z</time></trkpt><trkpt lat="44.110942" lon="8.0855868"><ele>398.0</ele><time>2026-04-10T13:02:15.951Z</time></trkpt><trkpt lat="44.110886" lon="8.0855445"><ele>393.6666666666667</ele><time>2026-04-10T13:02:16.951Z</time></trkpt><trkpt lat="44.1107765" lon="8.0854386"><ele>389.33333333333337</ele><time>2026-04-10T13:02:18.951Z</time></trkpt><trkpt lat="44.1107161" lon="8.0853837"><ele>385.0</ele><time>2026-04-10T13:02:19.951Z</time></trkpt><trkpt lat="44.1106556" lon="8.0853459"><ele>383.14285714285717</ele><time>2026-04-10T13:02:20.951Z</time></trkpt><trkpt lat="44.1105966" lon="8.0853073"><ele>381.2857142857143</ele><time>2026-04-10T13:02:21.951Z</time></trkpt><trkpt lat="44.1105325" lon="8.0852762"><ele>379.42857142857144</ele><time>2026-04-10T13:02:22.951Z</time></trkpt><trkpt lat="44.1104711" lon="8.0852492"><ele>377.57142857142856</ele><time>2026-04-10T13:02:23.951Z</time></trkpt><trkpt lat="44.1104052" lon="8.085226"><ele>375.7142857142857</ele><time>2026-04-10T13:02:24.951Z</time></trkpt><trkpt lat="44.1103211" lon="8.0851984"><ele>373.8571428571429</ele><time>2026-04-10T13:02:25.951Z</time></trkpt><trkpt lat="44.110235" lon="8.0851833"><ele>372.0</ele><time>2026-04-10T13:02:26.951Z</time></trkpt><trkpt lat="44.1101617" lon="8.0851717"><ele>372.0</ele><time>2026-04-10T13:02:27.951Z</time></trkpt><trkpt lat="44.1100867" lon="8.0851583"><ele>372.0</ele><time>2026-04-10T13:02:28.951Z</time></trkpt><trkpt lat="44.110015" lon="8.0851533"><ele>372.0</ele><time>2026-04-10T13:02:29.951Z</time></trkpt><trkpt lat="44.1099483" lon="8.0851583"><ele>372.0</ele><time>2026-04-10T13:02:30.951Z</time></trkpt><trkpt lat="44.1098317" lon="8.085205"><ele>372.0</ele><time>2026-04-10T13:02:32.951Z</time></trkpt><trkpt lat="44.1097633" lon="8.08525"><ele>372.0</ele><time>2026-04-10T13:02:33.951Z</time></trkpt><trkpt lat="44.1097" lon="8.0853"><ele>368.0</ele><time>2026-04-10T13:02:34.951Z</time></trkpt><trkpt lat="44.10964" lon="8.08536"><ele>364.0</ele><time>2026-04-10T13:02:35.952Z</time></trkpt><trkpt lat="44.1095817" lon="8.0854383"><ele>360.0</ele><time>2026-04-10T13:02:36.951Z</time></trkpt><trkpt lat="44.109535" lon="8.0855283"><ele>356.0</ele><time>2026-04-10T13:02:37.951Z</time></trkpt><trkpt lat="44.1094867" lon="8.0856167"><ele>352.0</ele><time>2026-04-10T13:02:38.951Z</time></trkpt><trkpt lat="44.10938" lon="8.0857083"><ele>348.0</ele><time>2026-04-10T13:02:40.951Z</time></trkpt><trkpt lat="44.1093183" lon="8.085735"><ele>348.0</ele><time>2026-04-10T13:02:41.951Z</time></trkpt><trkpt lat="44.109255" lon="8.0857517"><ele>348.0</ele><time>2026-04-10T13:02:42.951Z</time></trkpt><trkpt lat="44.109185" lon="8.0857817"><ele>348.0</ele><time>2026-04-10T13:02:43.951Z</time></trkpt><trkpt lat="44.10912" lon="8.0858217"><ele>348.0</ele><time>2026-04-10T13:02:44.951Z</time></trkpt><trkpt lat="44.1090533" lon="8.085875"><ele>348.0</ele><time>2026-04-10T13:02:45.951Z</time></trkpt><trkpt lat="44.1089833" lon="8.0859167"><ele>348.0</ele><time>2026-04-10T13:02:46.951Z</time></trkpt><trkpt lat="44.1089183" lon="8.0859517"><ele>348.0</ele><time>2026-04-10T13:02:47.951Z</time></trkpt><trkpt lat="44.1088483" lon="8.0859633"><ele>350.3333333333333</ele><time>2026-04-10T13:02:48.951Z</time></trkpt><trkpt lat="44.1087667" lon="8.0859617"><ele>352.6666666666667</ele><time>2026-04-10T13:02:49.951Z</time></trkpt><trkpt lat="44.1086783" lon="8.0859583"><ele>355.0</ele><time>2026-04-10T13:02:50.951Z</time></trkpt><trkpt lat="44.1085833" lon="8.08596"><ele>357.33333333333337</ele><time>2026-04-10T13:02:51.951Z</time></trkpt><trkpt lat="44.1085" lon="8.0859633"><ele>359.6666666666667</ele><time>2026-04-10T13:02:52.952Z</time></trkpt><trkpt lat="44.1084183" lon="8.0859617"><ele>362.0</ele><time>2026-04-10T13:02:53.951Z</time></trkpt><trkpt lat="44.108335" lon="8.0859617"><ele>362.0</ele><time>2026-04-10T13:02:54.951Z</time></trkpt><trkpt lat="44.108245" lon="8.08598"><ele>362.0</ele><time>2026-04-10T13:02:55.951Z</time></trkpt><trkpt lat="44.10816" lon="8.08599"><ele>362.0</ele><time>2026-04-10T13:02:56.952Z</time></trkpt><trkpt lat="44.10808" lon="8.085985"><ele>362.0</ele><time>2026-04-10T13:02:57.951Z</time></trkpt><trkpt lat="44.1080017" lon="8.0859833"><ele>362.0</ele><time>2026-04-10T13:02:58.952Z</time></trkpt><trkpt lat="44.10793" lon="8.0859717"><ele>362.0</ele><time>2026-04-10T13:02:59.951Z</time></trkpt><trkpt lat="44.1078633" lon="8.0859683"><ele>360.8</ele><time>2026-04-10T13:03:00.951Z</time></trkpt><trkpt lat="44.1078" lon="8.0859917"><ele>359.6</ele><time>2026-04-10T13:03:01.951Z</time></trkpt><trkpt lat="44.10772" lon="8.0860383"><ele>358.40000000000003</ele><time>2026-04-10T13:03:02.951Z</time></trkpt><trkpt lat="44.1076467" lon="8.0860867"><ele>357.20000000000005</ele><time>2026-04-10T13:03:03.951Z</time></trkpt><trkpt lat="44.1075667" lon="8.08613"><ele>356.0</ele><time>2026-04-10T13:03:04.951Z</time></trkpt><trkpt lat="44.10745" lon="8.0862117"><ele>356.0</ele><time>2026-04-10T13:03:06.951Z</time></trkpt><trkpt lat="44.107355" lon="8.0863017"><ele>356.0</ele><time>2026-04-10T13:03:08.951Z</time></trkpt><trkpt lat="44.107295" lon="8.08624"><ele>356.0</ele><time>2026-04-10T13:03:11.952Z</time></trkpt><trkpt lat="44.1073383" lon="8.086115"><ele>356.0</ele><time>2026-04-10T13:03:13.951Z</time></trkpt><trkpt lat="44.1073883" lon="8.0859917"><ele>356.0</ele><time>2026-04-10T13:03:15.951Z</time></trkpt><trkpt lat="44.1074267" lon="8.08592"><ele>356.0</ele><time>2026-04-10T13:03:16.951Z</time></trkpt><trkpt lat="44.10747" lon="8.0858483"><ele>356.0</ele><time>2026-04-10T13:03:17.951Z</time></trkpt><trkpt lat="44.1075667" lon="8.08573"><ele>356.0</ele><time>2026-04-10T13:03:19.951Z</time></trkpt><trkpt lat="44.1076217" lon="8.0856867"><ele>356.0</ele><time>2026-04-10T13:03:20.951Z</time></trkpt><trkpt lat="44.1077183" lon="8.0856"><ele>356.0</ele><time>2026-04-10T13:03:22.951Z</time></trkpt><trkpt lat="44.1077883" lon="8.0855333"><ele>351.83333333333337</ele><time>2026-04-10T13:03:24.951Z</time></trkpt><trkpt lat="44.10772" lon="8.0855683"><ele>347.6666666666667</ele><time>2026-04-10T13:04:28.951Z</time></trkpt><trkpt lat="44.1076517" lon="8.0856117"><ele>343.5</ele><time>2026-04-10T13:04:29.951Z</time></trkpt><trkpt lat="44.1075817" lon="8.0856483"><ele>339.3333333333333</ele><time>2026-04-10T13:04:30.951Z</time></trkpt><trkpt lat="44.1075067" lon="8.0856833"><ele>335.16666666666663</ele><time>2026-04-10T13:04:31.951Z</time></trkpt><trkpt lat="44.1074317" lon="8.0857283"><ele>331.0</ele><time>2026-04-10T13:04:32.951Z</time></trkpt><trkpt lat="44.107355" lon="8.08578"><ele>331.0</ele><time>2026-04-10T13:04:33.951Z</time></trkpt><trkpt lat="44.1072783" lon="8.0858433"><ele>331.0</ele><time>2026-04-10T13:04:34.951Z</time></trkpt><trkpt lat="44.107195" lon="8.08593"><ele>331.0</ele><time>2026-04-10T13:04:35.951Z</time></trkpt><trkpt lat="44.1071167" lon="8.0860017"><ele>331.0</ele><time>2026-04-10T13:04:36.952Z</time></trkpt><trkpt lat="44.107045" lon="8.08607"><ele>331.0</ele><time>2026-04-10T13:04:37.951Z</time></trkpt><trkpt lat="44.1069833" lon="8.08611"><ele>331.0</ele><time>2026-04-10T13:04:38.951Z</time></trkpt><trkpt lat="44.1069333" lon="8.086165"><ele>331.0</ele><time>2026-04-10T13:04:39.951Z</time></trkpt><trkpt lat="44.10688" lon="8.086305"><ele>331.0</ele><time>2026-04-10T13:04:41.951Z</time></trkpt><trkpt lat="44.106885" lon="8.0864617"><ele>331.0</ele><time>2026-04-10T13:04:43.952Z</time></trkpt><trkpt lat="44.1068967" lon="8.086555"><ele>331.0</ele><time>2026-04-10T13:04:44.951Z</time></trkpt><trkpt lat="44.1069083" lon="8.0866517"><ele>331.0</ele><time>2026-04-10T13:04:45.951Z</time></trkpt><trkpt lat="44.1069433" lon="8.0868133"><ele>331.5</ele><time>2026-04-10T13:04:47.951Z</time></trkpt><trkpt lat="44.106975" lon="8.0869"><ele>332.0</ele><time>2026-04-10T13:04:48.951Z</time></trkpt><trkpt lat="44.1070267" lon="8.08697"><ele>332.5</ele><time>2026-04-10T13:04:49.951Z</time></trkpt><trkpt lat="44.10708" lon="8.0870517"><ele>333.0</ele><time>2026-04-10T13:04:50.951Z</time></trkpt><trkpt lat="44.1071233" lon="8.087155"><ele>333.5</ele><time>2026-04-10T13:04:51.951Z</time></trkpt><trkpt lat="44.1071733" lon="8.0872483"><ele>334.0</ele><time>2026-04-10T13:04:52.951Z</time></trkpt><trkpt lat="44.10722" lon="8.08735"><ele>330.2</ele><time>2026-04-10T13:04:53.951Z</time></trkpt><trkpt lat="44.107275" lon="8.0874517"><ele>326.4</ele><time>2026-04-10T13:04:54.951Z</time></trkpt><trkpt lat="44.1073283" lon="8.0875483"><ele>322.6</ele><time>2026-04-10T13:04:55.951Z</time></trkpt><trkpt lat="44.10738" lon="8.0876517"><ele>318.8</ele><time>2026-04-10T13:04:56.951Z</time></trkpt><trkpt lat="44.107425" lon="8.0877667"><ele>315.0</ele><time>2026-04-10T13:04:57.951Z</time></trkpt><trkpt lat="44.107465" lon="8.08788"><ele>322.0</ele><time>2026-04-10T13:04:58.951Z</time></trkpt><trkpt lat="44.1075017" lon="8.088005"><ele>329.0</ele><time>2026-04-10T13:04:59.951Z</time></trkpt><trkpt lat="44.1075283" lon="8.0881167"><ele>336.0</ele><time>2026-04-10T13:05:00.951Z</time></trkpt><trkpt lat="44.10754" lon="8.0882317"><ele>343.0</ele><time>2026-04-10T13:05:01.951Z</time></trkpt><trkpt lat="44.10754" lon="8.0883433"><ele>350.0</ele><time>2026-04-10T13:05:02.951Z</time></trkpt><trkpt lat="44.1075183" lon="8.0884517"><ele>357.0</ele><time>2026-04-10T13:05:03.951Z</time></trkpt><trkpt lat="44.1074883" lon="8.0885633"><ele>357.0</ele><time>2026-04-10T13:05:04.951Z</time></trkpt><trkpt lat="44.1074483" lon="8.0886817"><ele>357.0</ele><time>2026-04-10T13:05:05.951Z</time></trkpt><trkpt lat="44.1074017" lon="8.08878"><ele>357.0</ele><time>2026-04-10T13:05:06.951Z</time></trkpt><trkpt lat="44.1073417" lon="8.08887"><ele>357.0</ele><time>2026-04-10T13:05:07.951Z</time></trkpt><trkpt lat="44.107285" lon="8.0889567"><ele>357.0</ele><time>2026-04-10T13:05:08.951Z</time></trkpt><trkpt lat="44.1072217" lon="8.0890333"><ele>357.0</ele><time>2026-04-10T13:05:09.952Z</time></trkpt><trkpt lat="44.1071617" lon="8.0891133"><ele>348.5</ele><time>2026-04-10T13:05:10.951Z</time></trkpt><trkpt lat="44.1071083" lon="8.0892017"><ele>340.0</ele><time>2026-04-10T13:05:11.951Z</time></trkpt><trkpt lat="44.10707" lon="8.0892883"><ele>331.5</ele><time>2026-04-10T13:05:12.952Z</time></trkpt><trkpt lat="44.1070417" lon="8.08938"><ele>323.0</ele><time>2026-04-10T13:05:13.951Z</time></trkpt><trkpt lat="44.1070367" lon="8.0894817"><ele>314.5</ele><time>2026-04-10T13:05:14.951Z</time></trkpt><trkpt lat="44.1070367" lon="8.0895967"><ele>306.0</ele><time>2026-04-10T13:05:15.952Z</time></trkpt><trkpt lat="44.10705" lon="8.0897233"><ele>306.0</ele><time>2026-04-10T13:05:16.951Z</time></trkpt><trkpt lat="44.107065" lon="8.0898517"><ele>306.0</ele><time>2026-04-10T13:05:17.951Z</time></trkpt><trkpt lat="44.1070783" lon="8.0899833"><ele>306.0</ele><time>2026-04-10T13:05:18.951Z</time></trkpt><trkpt lat="44.1070883" lon="8.0901133"><ele>306.0</ele><time>2026-04-10T13:05:19.951Z</time></trkpt><trkpt lat="44.1071" lon="8.0902483"><ele>306.0</ele><time>2026-04-10T13:05:20.951Z</time></trkpt><trkpt lat="44.107105" lon="8.0903783"><ele>308.5</ele><time>2026-04-10T13:05:21.951Z</time></trkpt><trkpt lat="44.10709" lon="8.0905133"><ele>311.0</ele><time>2026-04-10T13:05:22.952Z</time></trkpt><trkpt lat="44.1070767" lon="8.0906333"><ele>313.5</ele><time>2026-04-10T13:05:23.951Z</time></trkpt><trkpt lat="44.1070567" lon="8.0907417"><ele>316.0</ele><time>2026-04-10T13:05:24.951Z</time></trkpt><trkpt lat="44.1070333" lon="8.0908383"><ele>318.5</ele><time>2026-04-10T13:05:25.951Z</time></trkpt><trkpt lat="44.1070217" lon="8.0909783"><ele>321.0</ele><time>2026-04-10T13:05:27.951Z</time></trkpt><trkpt lat="44.10706" lon="8.0910983"><ele>323.20000000000005</ele><time>2026-04-10T13:05:29.951Z</time></trkpt><trkpt lat="44.107175" lon="8.0911717"><ele>325.40000000000003</ele><time>2026-04-10T13:05:31.952Z</time></trkpt><trkpt lat="44.1072483" lon="8.0911883"><ele>327.6</ele><time>2026-04-10T13:05:32.951Z</time></trkpt><trkpt lat="44.1073333" lon="8.09121"><ele>329.8</ele><time>2026-04-10T13:05:33.951Z</time></trkpt><trkpt lat="44.1074317" lon="8.09123"><ele>332.0</ele><time>2026-04-10T13:05:34.951Z</time></trkpt><trkpt lat="44.107535" lon="8.09124"><ele>336.83333333333337</ele><time>2026-04-10T13:05:35.951Z</time></trkpt><trkpt lat="44.1076217" lon="8.0912767"><ele>341.6666666666667</ele><time>2026-04-10T13:05:36.951Z</time></trkpt><trkpt lat="44.10768" lon="8.09134"><ele>346.5</ele><time>2026-04-10T13:05:37.951Z</time></trkpt><trkpt lat="44.10771" lon="8.0914233"><ele>351.3333333333333</ele><time>2026-04-10T13:05:38.951Z</time></trkpt><trkpt lat="44.1077083" lon="8.0915233"><ele>356.16666666666663</ele><time>2026-04-10T13:05:39.951Z</time></trkpt><trkpt lat="44.1076867" lon="8.0916683"><ele>361.0</ele><time>2026-04-10T13:05:41.951Z</time></trkpt><trkpt lat="44.1076533" lon="8.0918167"><ele>361.0</ele><time>2026-04-10T13:05:43.952Z</time></trkpt><trkpt lat="44.1076233" lon="8.0919017"><ele>361.0</ele><time>2026-04-10T13:05:44.951Z</time></trkpt><trkpt lat="44.1076" lon="8.0920017"><ele>361.0</ele><time>2026-04-10T13:05:45.951Z</time></trkpt><trkpt lat="44.1075917" lon="8.0920967"><ele>361.0</ele><time>2026-04-10T13:05:46.951Z</time></trkpt><trkpt lat="44.1075883" lon="8.0922167"><ele>361.0</ele><time>2026-04-10T13:05:48.951Z</time></trkpt><trkpt lat="44.10766" lon="8.0923383"><ele>361.0</ele><time>2026-04-10T13:06:10.951Z</time></trkpt><trkpt lat="44.1077283" lon="8.092425"><ele>361.5</ele><time>2026-04-10T13:06:12.951Z</time></trkpt><trkpt lat="44.10779" lon="8.0925167"><ele>362.0</ele><time>2026-04-10T13:06:14.951Z</time></trkpt><trkpt lat="44.1078383" lon="8.0925983"><ele>362.5</ele><time>2026-04-10T13:06:16.951Z</time></trkpt><trkpt lat="44.10789" lon="8.09269"><ele>363.0</ele><time>2026-04-10T13:06:19.951Z</time></trkpt><trkpt lat="44.107945" lon="8.09279"><ele>363.5</ele><time>2026-04-10T13:06:22.951Z</time></trkpt><trkpt lat="44.1079733" lon="8.092875"><ele>364.0</ele><time>2026-04-10T13:06:25.951Z</time></trkpt><trkpt lat="44.108015" lon="8.0929517"><ele>364.0</ele><time>2026-04-10T13:06:28.951Z</time></trkpt><trkpt lat="44.108075" lon="8.093045"><ele>364.0</ele><time>2026-04-10T13:06:31.951Z</time></trkpt><trkpt lat="44.1081283" lon="8.0931167"><ele>364.0</ele><time>2026-04-10T13:06:33.951Z</time></trkpt><trkpt lat="44.1082033" lon="8.0931983"><ele>364.0</ele><time>2026-04-10T13:06:35.952Z</time></trkpt><trkpt lat="44.10826" lon="8.0932883"><ele>364.0</ele><time>2026-04-10T13:06:37.951Z</time></trkpt><trkpt lat="44.10831" lon="8.0933583"><ele>364.0</ele><time>2026-04-10T13:06:39.951Z</time></trkpt><trkpt lat="44.1082583" lon="8.093305"><ele>364.0</ele><time>2026-04-10T13:07:33.951Z</time></trkpt><trkpt lat="44.108205" lon="8.093245"><ele>364.0</ele><time>2026-04-10T13:07:36.951Z</time></trkpt><trkpt lat="44.10816" lon="8.09316"><ele>364.0</ele><time>2026-04-10T13:07:40.952Z</time></trkpt><trkpt lat="44.1081083" lon="8.0930733"><ele>364.0</ele><time>2026-04-10T13:07:49.951Z</time></trkpt><trkpt lat="44.1080583" lon="8.0929967"><ele>364.0</ele><time>2026-04-10T13:07:51.951Z</time></trkpt><trkpt lat="44.108015" lon="8.0929317"><ele>364.0</ele><time>2026-04-10T13:07:54.951Z</time></trkpt><trkpt lat="44.1079733" lon="8.092845"><ele>364.0</ele><time>2026-04-10T13:07:58.951Z</time></trkpt><trkpt lat="44.1079233" lon="8.0927633"><ele>364.0</ele><time>2026-04-10T13:08:02.952Z</time></trkpt><trkpt lat="44.1078783" lon="8.09267"><ele>364.0</ele><time>2026-04-10T13:08:07.951Z</time></trkpt><trkpt lat="44.1078233" lon="8.0925733"><ele>364.0</ele><time>2026-04-10T13:08:10.951Z</time></trkpt><trkpt lat="44.1077817" lon="8.0924767"><ele>364.0</ele><time>2026-04-10T13:08:13.951Z</time></trkpt><trkpt lat="44.1077267" lon="8.0923833"><ele>364.0</ele><time>2026-04-10T13:08:16.951Z</time></trkpt><trkpt lat="44.1076817" lon="8.0923183"><ele>364.0</ele><time>2026-04-10T13:08:18.951Z</time></trkpt><trkpt lat="44.107615" lon="8.0922917"><ele>364.0</ele><time>2026-04-10T13:08:22.951Z</time></trkpt><trkpt lat="44.1075967" lon="8.0923833"><ele>364.0</ele><time>2026-04-10T13:08:26.951Z</time></trkpt><trkpt lat="44.1075767" lon="8.09247"><ele>364.0</ele><time>2026-04-10T13:09:17.951Z</time></trkpt><trkpt lat="44.1075783" lon="8.0925617"><ele>364.0</ele><time>2026-04-10T13:09:18.951Z</time></trkpt><trkpt lat="44.1075683" lon="8.09266"><ele>364.0</ele><time>2026-04-10T13:09:19.951Z</time></trkpt><trkpt lat="44.107535" lon="8.0928283"><ele>364.0</ele><time>2026-04-10T13:09:21.952Z</time></trkpt><trkpt lat="44.10752" lon="8.0929183"><ele>364.0</ele><time>2026-04-10T13:09:22.951Z</time></trkpt><trkpt lat="44.1075083" lon="8.0930167"><ele>364.0</ele><time>2026-04-10T13:09:23.951Z</time></trkpt><trkpt lat="44.1075" lon="8.0931117"><ele>364.0</ele><time>2026-04-10T13:09:24.951Z</time></trkpt><trkpt lat="44.1075017" lon="8.0932083"><ele>364.0</ele><time>2026-04-10T13:09:25.951Z</time></trkpt><trkpt lat="44.10751" lon="8.093305"><ele>364.0</ele><time>2026-04-10T13:09:26.951Z</time></trkpt><trkpt lat="44.1075233" lon="8.0933967"><ele>364.0</ele><time>2026-04-10T13:09:27.951Z</time></trkpt><trkpt lat="44.1075383" lon="8.0935067"><ele>364.0</ele><time>2026-04-10T13:09:28.951Z</time></trkpt><trkpt lat="44.1075617" lon="8.0936183"><ele>363.0</ele><time>2026-04-10T13:09:29.951Z</time></trkpt><trkpt lat="44.107585" lon="8.0937317"><ele>362.0</ele><time>2026-04-10T13:09:30.951Z</time></trkpt><trkpt lat="44.1076067" lon="8.0938417"><ele>361.0</ele><time>2026-04-10T13:09:31.952Z</time></trkpt><trkpt lat="44.1076267" lon="8.0939567"><ele>360.0</ele><time>2026-04-10T13:09:32.952Z</time></trkpt><trkpt lat="44.1076567" lon="8.09407"><ele>359.0</ele><time>2026-04-10T13:09:33.951Z</time></trkpt><trkpt lat="44.1076833" lon="8.0941717"><ele>358.0</ele><time>2026-04-10T13:09:34.951Z</time></trkpt><trkpt lat="44.107765" lon="8.0943233"><ele>357.0</ele><time>2026-04-10T13:09:36.951Z</time></trkpt><trkpt lat="44.1078267" lon="8.0944067"><ele>356.0</ele><time>2026-04-10T13:09:37.951Z</time></trkpt><trkpt lat="44.1078667" lon="8.0945133"><ele>355.0</ele><time>2026-04-10T13:09:38.952Z</time></trkpt><trkpt lat="44.1078983" lon="8.0946133"><ele>354.0</ele><time>2026-04-10T13:09:39.952Z</time></trkpt><trkpt lat="44.107905" lon="8.094735"><ele>353.0</ele><time>2026-04-10T13:09:40.951Z</time></trkpt><trkpt lat="44.1078783" lon="8.094835"><ele>352.0</ele><time>2026-04-10T13:09:41.952Z</time></trkpt><trkpt lat="44.1078483" lon="8.09494"><ele>352.0</ele><time>2026-04-10T13:09:42.951Z</time></trkpt><trkpt lat="44.1077967" lon="8.0950433"><ele>352.0</ele><time>2026-04-10T13:09:43.951Z</time></trkpt><trkpt lat="44.1077367" lon="8.09515"><ele>352.0</ele><time>2026-04-10T13:09:44.951Z</time></trkpt><trkpt lat="44.107675" lon="8.0952617"><ele>352.0</ele><time>2026-04-10T13:09:45.951Z</time></trkpt><trkpt lat="44.1076267" lon="8.09538"><ele>352.0</ele><time>2026-04-10T13:09:46.951Z</time></trkpt><trkpt lat="44.1076067" lon="8.0954967"><ele>352.0</ele><time>2026-04-10T13:09:47.951Z</time></trkpt><trkpt lat="44.1075717" lon="8.09562"><ele>352.0</ele><time>2026-04-10T13:09:48.951Z</time></trkpt><trkpt lat="44.10754" lon="8.095735"><ele>352.0</ele><time>2026-04-10T13:09:49.951Z</time></trkpt><trkpt lat="44.10748" lon="8.095825"><ele>352.0</ele><time>2026-04-10T13:09:50.951Z</time></trkpt><trkpt lat="44.1074133" lon="8.0958933"><ele>352.0</ele><time>2026-04-10T13:09:51.951Z</time></trkpt><trkpt lat="44.1073417" lon="8.09595"><ele>352.0</ele><time>2026-04-10T13:09:52.951Z</time></trkpt><trkpt lat="44.1072667" lon="8.0959983"><ele>349.5</ele><time>2026-04-10T13:09:53.951Z</time></trkpt><trkpt lat="44.1071883" lon="8.0960483"><ele>347.0</ele><time>2026-04-10T13:09:54.951Z</time></trkpt><trkpt lat="44.10712" lon="8.0961"><ele>344.5</ele><time>2026-04-10T13:09:55.951Z</time></trkpt><trkpt lat="44.107045" lon="8.0961517"><ele>342.0</ele><time>2026-04-10T13:09:56.951Z</time></trkpt><trkpt lat="44.1069683" lon="8.0962033"><ele>339.5</ele><time>2026-04-10T13:09:57.951Z</time></trkpt><trkpt lat="44.1069" lon="8.0962667"><ele>337.0</ele><time>2026-04-10T13:09:58.952Z</time></trkpt><trkpt lat="44.10684" lon="8.096345"><ele>337.0</ele><time>2026-04-10T13:09:59.951Z</time></trkpt><trkpt lat="44.1067867" lon="8.0964183"><ele>337.0</ele><time>2026-04-10T13:10:00.951Z</time></trkpt><trkpt lat="44.1067283" lon="8.0964967"><ele>337.0</ele><time>2026-04-10T13:10:01.951Z</time></trkpt><trkpt lat="44.1066667" lon="8.0965833"><ele>337.0</ele><time>2026-04-10T13:10:02.951Z</time></trkpt><trkpt lat="44.1066133" lon="8.0966767"><ele>337.0</ele><time>2026-04-10T13:10:03.951Z</time></trkpt><trkpt lat="44.1065733" lon="8.0967817"><ele>337.0</ele><time>2026-04-10T13:10:04.951Z</time></trkpt><trkpt lat="44.1065483" lon="8.096895"><ele>335.8</ele><time>2026-04-10T13:10:05.951Z</time></trkpt><trkpt lat="44.1065317" lon="8.09701"><ele>334.6</ele><time>2026-04-10T13:10:06.951Z</time></trkpt><trkpt lat="44.1065067" lon="8.0971317"><ele>333.40000000000003</ele><time>2026-04-10T13:10:07.951Z</time></trkpt><trkpt lat="44.10648" lon="8.0972633"><ele>332.20000000000005</ele><time>2026-04-10T13:10:08.951Z</time></trkpt><trkpt lat="44.1064483" lon="8.09737"><ele>331.0</ele><time>2026-04-10T13:10:09.951Z</time></trkpt><trkpt lat="44.1063917" lon="8.0974833"><ele>331.0</ele><time>2026-04-10T13:10:10.951Z</time></trkpt><trkpt lat="44.106325" lon="8.097585"><ele>331.0</ele><time>2026-04-10T13:10:11.951Z</time></trkpt><trkpt lat="44.1062617" lon="8.097685"><ele>331.0</ele><time>2026-04-10T13:10:12.951Z</time></trkpt><trkpt lat="44.1062017" lon="8.097795"><ele>331.0</ele><time>2026-04-10T13:10:13.951Z</time></trkpt><trkpt lat="44.1061483" lon="8.097915"><ele>331.0</ele><time>2026-04-10T13:10:14.952Z</time></trkpt><trkpt lat="44.1060933" lon="8.0980433"><ele>331.0</ele><time>2026-04-10T13:10:15.951Z</time></trkpt><trkpt lat="44.1060333" lon="8.0981583"><ele>331.0</ele><time>2026-04-10T13:10:16.951Z</time></trkpt><trkpt lat="44.1059667" lon="8.098255"><ele>331.0</ele><time>2026-04-10T13:10:17.951Z</time></trkpt><trkpt lat="44.1059017" lon="8.0983433"><ele>331.0</ele><time>2026-04-10T13:10:18.952Z</time></trkpt><trkpt lat="44.10585" lon="8.0984383"><ele>331.0</ele><time>2026-04-10T13:10:19.951Z</time></trkpt><trkpt lat="44.1058283" lon="8.0985267"><ele>331.0</ele><time>2026-04-10T13:10:20.951Z</time></trkpt><trkpt lat="44.105825" lon="8.0986183"><ele>333.16666666666663</ele><time>2026-04-10T13:10:21.951Z</time></trkpt><trkpt lat="44.1058433" lon="8.0987233"><ele>335.3333333333333</ele><time>2026-04-10T13:10:22.951Z</time></trkpt><trkpt lat="44.1058717" lon="8.0988333"><ele>337.5</ele><time>2026-04-10T13:10:23.951Z</time></trkpt><trkpt lat="44.1058983" lon="8.0989383"><ele>339.6666666666667</ele><time>2026-04-10T13:10:24.951Z</time></trkpt><trkpt lat="44.105935" lon="8.0990317"><ele>341.83333333333337</ele><time>2026-04-10T13:10:25.951Z</time></trkpt><trkpt lat="44.1059783" lon="8.099125"><ele>344.0</ele><time>2026-04-10T13:10:26.951Z</time></trkpt><trkpt lat="44.1060317" lon="8.0992117"><ele>344.0</ele><time>2026-04-10T13:10:27.951Z</time></trkpt><trkpt lat="44.1060817" lon="8.0993017"><ele>344.0</ele><time>2026-04-10T13:10:28.951Z</time></trkpt><trkpt lat="44.106125" lon="8.099395"><ele>344.0</ele><time>2026-04-10T13:10:29.951Z</time></trkpt><trkpt lat="44.1061783" lon="8.0994933"><ele>344.0</ele><time>2026-04-10T13:10:30.951Z</time></trkpt><trkpt lat="44.10623" lon="8.0996067"><ele>344.0</ele><time>2026-04-10T13:10:31.952Z</time></trkpt><trkpt lat="44.106285" lon="8.0997317"><ele>344.0</ele><time>2026-04-10T13:10:32.951Z</time></trkpt><trkpt lat="44.1063383" lon="8.0998667"><ele>344.0</ele><time>2026-04-10T13:10:33.951Z</time></trkpt><trkpt lat="44.106395" lon="8.1"><ele>344.0</ele><time>2026-04-10T13:10:34.951Z</time></trkpt><trkpt lat="44.1064617" lon="8.100125"><ele>344.0</ele><time>2026-04-10T13:10:35.952Z</time></trkpt><trkpt lat="44.1065333" lon="8.10024"><ele>344.0</ele><time>2026-04-10T13:10:36.951Z</time></trkpt><trkpt lat="44.1065917" lon="8.1003583"><ele>346.1666666666667</ele><time>2026-04-10T13:10:37.951Z</time></trkpt><trkpt lat="44.1066233" lon="8.1004767"><ele>348.33333333333337</ele><time>2026-04-10T13:10:38.951Z</time></trkpt><trkpt lat="44.1066433" lon="8.1005983"><ele>350.5</ele><time>2026-04-10T13:10:39.951Z</time></trkpt><trkpt lat="44.10665" lon="8.1007167"><ele>352.6666666666667</ele><time>2026-04-10T13:10:40.951Z</time></trkpt><trkpt lat="44.106635" lon="8.1008167"><ele>354.8333333333333</ele><time>2026-04-10T13:10:41.951Z</time></trkpt><trkpt lat="44.1065733" lon="8.1009117"><ele>357.0</ele><time>2026-04-10T13:10:42.951Z</time></trkpt><trkpt lat="44.1064883" lon="8.1010033"><ele>351.0</ele><time>2026-04-10T13:10:43.951Z</time></trkpt><trkpt lat="44.10641" lon="8.1011117"><ele>345.0</ele><time>2026-04-10T13:10:44.951Z</time></trkpt><trkpt lat="44.1063383" lon="8.1012233"><ele>339.0</ele><time>2026-04-10T13:10:45.951Z</time></trkpt><trkpt lat="44.1062783" lon="8.1013367"><ele>333.0</ele><time>2026-04-10T13:10:46.952Z</time></trkpt><trkpt lat="44.1062167" lon="8.1014517"><ele>327.0</ele><time>2026-04-10T13:10:47.952Z</time></trkpt><trkpt lat="44.1061583" lon="8.1015467"><ele>328.3333333333333</ele><time>2026-04-10T13:10:48.951Z</time></trkpt><trkpt lat="44.1060967" lon="8.10161"><ele>329.6666666666667</ele><time>2026-04-10T13:10:49.951Z</time></trkpt><trkpt lat="44.1060333" lon="8.1016383"><ele>331.0</ele><time>2026-04-10T13:10:50.951Z</time></trkpt><trkpt lat="44.1059717" lon="8.1016617"><ele>332.33333333333337</ele><time>2026-04-10T13:10:51.951Z</time></trkpt><trkpt lat="44.1058833" lon="8.10167"><ele>333.6666666666667</ele><time>2026-04-10T13:10:52.951Z</time></trkpt><trkpt lat="44.105795" lon="8.1016917"><ele>335.0</ele><time>2026-04-10T13:10:53.951Z</time></trkpt><trkpt lat="44.1057117" lon="8.1017117"><ele>335.0</ele><time>2026-04-10T13:10:54.951Z</time></trkpt><trkpt lat="44.105615" lon="8.1017567"><ele>335.0</ele><time>2026-04-10T13:10:55.951Z</time></trkpt><trkpt lat="44.1055217" lon="8.1018133"><ele>335.0</ele><time>2026-04-10T13:10:56.951Z</time></trkpt><trkpt lat="44.10543" lon="8.1018717"><ele>335.0</ele><time>2026-04-10T13:10:57.951Z</time></trkpt><trkpt lat="44.1053417" lon="8.10195"><ele>335.0</ele><time>2026-04-10T13:10:58.951Z</time></trkpt><trkpt lat="44.1052617" lon="8.1020283"><ele>335.0</ele><time>2026-04-10T13:10:59.951Z</time></trkpt><trkpt lat="44.1051733" lon="8.10211"><ele>335.0</ele><time>2026-04-10T13:11:00.951Z</time></trkpt><trkpt lat="44.1050867" lon="8.1021917"><ele>335.0</ele><time>2026-04-10T13:11:01.951Z</time></trkpt><trkpt lat="44.105005" lon="8.1022867"><ele>335.0</ele><time>2026-04-10T13:11:02.951Z</time></trkpt><trkpt lat="44.1049317" lon="8.10233"><ele>335.0</ele><time>2026-04-10T13:11:03.951Z</time></trkpt><trkpt lat="44.10487" lon="8.102395"><ele>334.33333333333337</ele><time>2026-04-10T13:11:04.951Z</time></trkpt><trkpt lat="44.1048217" lon="8.10246"><ele>333.6666666666667</ele><time>2026-04-10T13:11:05.951Z</time></trkpt><trkpt lat="44.1047533" lon="8.1025633"><ele>333.0</ele><time>2026-04-10T13:11:07.952Z</time></trkpt><trkpt lat="44.10473" lon="8.10266"><ele>332.3333333333333</ele><time>2026-04-10T13:11:30.951Z</time></trkpt><trkpt lat="44.104715" lon="8.1027917"><ele>331.66666666666663</ele><time>2026-04-10T13:11:32.951Z</time></trkpt><trkpt lat="44.1047267" lon="8.1029033"><ele>331.0</ele><time>2026-04-10T13:11:34.951Z</time></trkpt><trkpt lat="44.1047733" lon="8.1029667"><ele>331.0</ele><time>2026-04-10T13:11:36.951Z</time></trkpt><trkpt lat="44.1048417" lon="8.10293"><ele>331.0</ele><time>2026-04-10T13:11:38.951Z</time></trkpt><trkpt lat="44.1049267" lon="8.1029033"><ele>331.0</ele><time>2026-04-10T13:11:40.951Z</time></trkpt><trkpt lat="44.1050017" lon="8.1029317"><ele>331.0</ele><time>2026-04-10T13:11:42.951Z</time></trkpt><trkpt lat="44.1050683" lon="8.102985"><ele>331.0</ele><time>2026-04-10T13:11:44.951Z</time></trkpt><trkpt lat="44.1051733" lon="8.1030067"><ele>331.0</ele><time>2026-04-10T13:11:47.952Z</time></trkpt><trkpt lat="44.1052833" lon="8.10301"><ele>337.4</ele><time>2026-04-10T13:11:49.951Z</time></trkpt><trkpt lat="44.105415" lon="8.1030467"><ele>343.8</ele><time>2026-04-10T13:11:51.951Z</time></trkpt><trkpt lat="44.1054917" lon="8.1030633"><ele>350.2</ele><time>2026-04-10T13:11:52.951Z</time></trkpt><trkpt lat="44.10556" lon="8.1030767"><ele>356.59999999999997</ele><time>2026-04-10T13:11:53.951Z</time></trkpt><trkpt lat="44.1056583" lon="8.10309"><ele>363.0</ele><time>2026-04-10T13:11:55.951Z</time></trkpt><trkpt lat="44.1057283" lon="8.1030967"><ele>363.0</ele><time>2026-04-10T13:11:57.951Z</time></trkpt><trkpt lat="44.1056333" lon="8.103105"><ele>363.0</ele><time>2026-04-10T13:14:10.951Z</time></trkpt><trkpt lat="44.1055333" lon="8.1030917"><ele>363.0</ele><time>2026-04-10T13:14:12.951Z</time></trkpt><trkpt lat="44.1054367" lon="8.1030667"><ele>363.0</ele><time>2026-04-10T13:14:14.951Z</time></trkpt><trkpt lat="44.1053467" lon="8.1030417"><ele>363.0</ele><time>2026-04-10T13:14:16.951Z</time></trkpt><trkpt lat="44.10526" lon="8.1030233"><ele>362.99999999999994</ele><time>2026-04-10T13:14:18.951Z</time></trkpt><trkpt lat="44.1051783" lon="8.103025"><ele>363.0</ele><time>2026-04-10T13:14:20.952Z</time></trkpt><trkpt lat="44.1051133" lon="8.103015"><ele>363.0</ele><time>2026-04-10T13:14:22.952Z</time></trkpt><trkpt lat="44.1050533" lon="8.102975"><ele>363.0</ele><time>2026-04-10T13:14:24.951Z</time></trkpt><trkpt lat="44.105" lon="8.10291"><ele>363.0</ele><time>2026-04-10T13:14:26.951Z</time></trkpt><trkpt lat="44.1049383" lon="8.1028733"><ele>362.99999999999994</ele><time>2026-04-10T13:14:28.952Z</time></trkpt><trkpt lat="44.104855" lon="8.1028967"><ele>363.0</ele><time>2026-04-10T13:14:31.951Z</time></trkpt><trkpt lat="44.1047967" lon="8.1029417"><ele>357.6666666666667</ele><time>2026-04-10T13:14:33.951Z</time></trkpt><trkpt lat="44.1047333" lon="8.10291"><ele>352.3333333333333</ele><time>2026-04-10T13:14:35.951Z</time></trkpt><trkpt lat="44.1047033" lon="8.1028217"><ele>347.0</ele><time>2026-04-10T13:14:37.952Z</time></trkpt><trkpt lat="44.10471" lon="8.1027183"><ele>341.66666666666663</ele><time>2026-04-10T13:14:39.951Z</time></trkpt><trkpt lat="44.10464" lon="8.1027983"><ele>336.3333333333333</ele><time>2026-04-10T13:14:46.951Z</time></trkpt><trkpt lat="44.1046417" lon="8.102935"><ele>331.0</ele><time>2026-04-10T13:14:48.951Z</time></trkpt><trkpt lat="44.1046883" lon="8.1030917"><ele>331.0</ele><time>2026-04-10T13:14:50.951Z</time></trkpt><trkpt lat="44.1047367" lon="8.1031817"><ele>331.0</ele><time>2026-04-10T13:14:51.952Z</time></trkpt><trkpt lat="44.1047883" lon="8.10327"><ele>331.0</ele><time>2026-04-10T13:14:52.951Z</time></trkpt><trkpt lat="44.1048517" lon="8.1033317"><ele>331.0</ele><time>2026-04-10T13:14:53.952Z</time></trkpt><trkpt lat="44.1049183" lon="8.1033883"><ele>331.0</ele><time>2026-04-10T13:14:54.952Z</time></trkpt><trkpt lat="44.10499" lon="8.1034433"><ele>331.0</ele><time>2026-04-10T13:14:55.951Z</time></trkpt><trkpt lat="44.10505" lon="8.1035083"><ele>337.0</ele><time>2026-04-10T13:14:56.951Z</time></trkpt><trkpt lat="44.1051217" lon="8.103575"><ele>343.0</ele><time>2026-04-10T13:14:57.951Z</time></trkpt><trkpt lat="44.10519" lon="8.1036467"><ele>349.0</ele><time>2026-04-10T13:14:58.951Z</time></trkpt><trkpt lat="44.10526" lon="8.103715"><ele>355.0</ele><time>2026-04-10T13:14:59.951Z</time></trkpt><trkpt lat="44.1053183" lon="8.10379"><ele>361.0</ele><time>2026-04-10T13:15:00.951Z</time></trkpt><trkpt lat="44.1053667" lon="8.1038533"><ele>367.0</ele><time>2026-04-10T13:15:01.951Z</time></trkpt><trkpt lat="44.1053683" lon="8.1039683"><ele>367.0</ele><time>2026-04-10T13:15:03.951Z</time></trkpt><trkpt lat="44.1052917" lon="8.104015"><ele>367.0</ele><time>2026-04-10T13:15:04.952Z</time></trkpt><trkpt lat="44.1052117" lon="8.1040583"><ele>367.0</ele><time>2026-04-10T13:15:05.951Z</time></trkpt><trkpt lat="44.1051417" lon="8.1041017"><ele>367.0</ele><time>2026-04-10T13:15:06.951Z</time></trkpt><trkpt lat="44.1050667" lon="8.104165"><ele>367.0</ele><time>2026-04-10T13:15:07.951Z</time></trkpt><trkpt lat="44.1049883" lon="8.10424"><ele>367.0</ele><time>2026-04-10T13:15:08.951Z</time></trkpt><trkpt lat="44.1049133" lon="8.1043367"><ele>363.66666666666663</ele><time>2026-04-10T13:15:09.951Z</time></trkpt><trkpt lat="44.1048433" lon="8.104445"><ele>360.3333333333333</ele><time>2026-04-10T13:15:10.951Z</time></trkpt><trkpt lat="44.1047783" lon="8.1045483"><ele>357.0</ele><time>2026-04-10T13:15:11.952Z</time></trkpt><trkpt lat="44.1047267" lon="8.1046467"><ele>353.6666666666667</ele><time>2026-04-10T13:15:12.952Z</time></trkpt><trkpt lat="44.1046883" lon="8.10474"><ele>350.33333333333337</ele><time>2026-04-10T13:15:13.951Z</time></trkpt><trkpt lat="44.104665" lon="8.1048367"><ele>347.0</ele><time>2026-04-10T13:15:14.951Z</time></trkpt><trkpt lat="44.1046567" lon="8.10495"><ele>347.0</ele><time>2026-04-10T13:15:15.952Z</time></trkpt><trkpt lat="44.104665" lon="8.1050767"><ele>347.0</ele><time>2026-04-10T13:15:16.952Z</time></trkpt><trkpt lat="44.1046667" lon="8.1051917"><ele>347.0</ele><time>2026-04-10T13:15:17.951Z</time></trkpt><trkpt lat="44.10465" lon="8.105295"><ele>347.0</ele><time>2026-04-10T13:15:18.951Z</time></trkpt><trkpt lat="44.1046217" lon="8.1053767"><ele>347.0</ele><time>2026-04-10T13:15:19.951Z</time></trkpt><trkpt lat="44.104575" lon="8.1054483"><ele>347.0</ele><time>2026-04-10T13:15:20.951Z</time></trkpt><trkpt lat="44.1045217" lon="8.1055283"><ele>347.0</ele><time>2026-04-10T13:15:21.952Z</time></trkpt><trkpt lat="44.1044783" lon="8.1056133"><ele>347.0</ele><time>2026-04-10T13:15:22.951Z</time></trkpt><trkpt lat="44.1044367" lon="8.1057133"><ele>347.0</ele><time>2026-04-10T13:15:23.951Z</time></trkpt><trkpt lat="44.104395" lon="8.1058233"><ele>347.0</ele><time>2026-04-10T13:15:24.952Z</time></trkpt><trkpt lat="44.1043533" lon="8.1059383"><ele>347.0</ele><time>2026-04-10T13:15:25.951Z</time></trkpt><trkpt lat="44.1043083" lon="8.1060517"><ele>347.0</ele><time>2026-04-10T13:15:26.951Z</time></trkpt><trkpt lat="44.10427" lon="8.1061433"><ele>348.33333333333337</ele><time>2026-04-10T13:15:27.951Z</time></trkpt><trkpt lat="44.1042167" lon="8.10623"><ele>349.6666666666667</ele><time>2026-04-10T13:15:28.951Z</time></trkpt><trkpt lat="44.1041517" lon="8.1062867"><ele>351.0</ele><time>2026-04-10T13:15:29.951Z</time></trkpt><trkpt lat="44.1040783" lon="8.106305"><ele>352.3333333333333</ele><time>2026-04-10T13:15:30.952Z</time></trkpt><trkpt lat="44.1039933" lon="8.1063167"><ele>353.66666666666663</ele><time>2026-04-10T13:15:31.951Z</time></trkpt><trkpt lat="44.1039033" lon="8.1063317"><ele>355.0</ele><time>2026-04-10T13:15:32.952Z</time></trkpt><trkpt lat="44.1038267" lon="8.10632"><ele>355.0</ele><time>2026-04-10T13:15:33.952Z</time></trkpt><trkpt lat="44.10376" lon="8.1062933"><ele>355.0</ele><time>2026-04-10T13:15:34.952Z</time></trkpt><trkpt lat="44.103695" lon="8.1062683"><ele>355.0</ele><time>2026-04-10T13:15:35.952Z</time></trkpt><trkpt lat="44.1036217" lon="8.1062383"><ele>355.0</ele><time>2026-04-10T13:15:36.951Z</time></trkpt><trkpt lat="44.1035417" lon="8.106205"><ele>355.0</ele><time>2026-04-10T13:15:37.951Z</time></trkpt><trkpt lat="44.1034533" lon="8.10618"><ele>355.0</ele><time>2026-04-10T13:15:38.951Z</time></trkpt><trkpt lat="44.103355" lon="8.1061567"><ele>355.0</ele><time>2026-04-10T13:15:39.951Z</time></trkpt><trkpt lat="44.1032567" lon="8.1061317"><ele>355.0</ele><time>2026-04-10T13:15:40.951Z</time></trkpt><trkpt lat="44.1031683" lon="8.1061183"><ele>355.0</ele><time>2026-04-10T13:15:41.951Z</time></trkpt><trkpt lat="44.103105" lon="8.1061283"><ele>355.0</ele><time>2026-04-10T13:15:42.951Z</time></trkpt><trkpt lat="44.1030383" lon="8.1061467"><ele>355.0</ele><time>2026-04-10T13:15:43.951Z</time></trkpt><trkpt lat="44.1029833" lon="8.10619"><ele>355.0</ele><time>2026-04-10T13:15:44.951Z</time></trkpt><trkpt lat="44.102935" lon="8.1062533"><ele>355.3333333333333</ele><time>2026-04-10T13:15:45.952Z</time></trkpt><trkpt lat="44.1029" lon="8.1063317"><ele>355.66666666666663</ele><time>2026-04-10T13:15:46.952Z</time></trkpt><trkpt lat="44.1028733" lon="8.1064267"><ele>356.0</ele><time>2026-04-10T13:15:47.951Z</time></trkpt><trkpt lat="44.1028283" lon="8.1065167"><ele>356.3333333333333</ele><time>2026-04-10T13:15:48.952Z</time></trkpt><trkpt lat="44.1027817" lon="8.10658"><ele>356.6666666666667</ele><time>2026-04-10T13:15:49.951Z</time></trkpt><trkpt lat="44.1027267" lon="8.1066267"><ele>357.0</ele><time>2026-04-10T13:15:50.951Z</time></trkpt><trkpt lat="44.1026" lon="8.10666"><ele>361.0</ele><time>2026-04-10T13:15:52.95Z</time></trkpt><trkpt lat="44.1025183" lon="8.1066483"><ele>365.0</ele><time>2026-04-10T13:15:53.95Z</time></trkpt><trkpt lat="44.1024383" lon="8.10665"><ele>369.0</ele><time>2026-04-10T13:15:54.95Z</time></trkpt><trkpt lat="44.1023583" lon="8.106665"><ele>373.0</ele><time>2026-04-10T13:15:55.951Z</time></trkpt><trkpt lat="44.1022817" lon="8.10669"><ele>377.0</ele><time>2026-04-10T13:15:56.95Z</time></trkpt><trkpt lat="44.10221" lon="8.1067233"><ele>381.0</ele><time>2026-04-10T13:15:57.951Z</time></trkpt><trkpt lat="44.1021367" lon="8.1067567"><ele>381.0</ele><time>2026-04-10T13:15:58.95Z</time></trkpt><trkpt lat="44.1020617" lon="8.1067817"><ele>381.0</ele><time>2026-04-10T13:15:59.95Z</time></trkpt><trkpt lat="44.10199" lon="8.10681"><ele>381.0</ele><time>2026-04-10T13:16:00.951Z</time></trkpt><trkpt lat="44.1019133" lon="8.1068267"><ele>381.0</ele><time>2026-04-10T13:16:01.95Z</time></trkpt><trkpt lat="44.1018317" lon="8.1068517"><ele>381.0</ele><time>2026-04-10T13:16:02.95Z</time></trkpt><trkpt lat="44.10174" lon="8.106875"><ele>381.0</ele><time>2026-04-10T13:16:03.95Z</time></trkpt><trkpt lat="44.101645" lon="8.1069067"><ele>374.8</ele><time>2026-04-10T13:16:04.95Z</time></trkpt><trkpt lat="44.1015617" lon="8.1069433"><ele>368.6</ele><time>2026-04-10T13:16:05.95Z</time></trkpt><trkpt lat="44.101495" lon="8.1070167"><ele>362.4</ele><time>2026-04-10T13:16:06.95Z</time></trkpt><trkpt lat="44.1014383" lon="8.1071167"><ele>356.2</ele><time>2026-04-10T13:16:07.95Z</time></trkpt><trkpt lat="44.1013717" lon="8.1072217"><ele>350.0</ele><time>2026-04-10T13:16:08.95Z</time></trkpt><trkpt lat="44.101305" lon="8.1073217"><ele>354.33333333333337</ele><time>2026-04-10T13:16:09.95Z</time></trkpt><trkpt lat="44.1012267" lon="8.10742"><ele>358.6666666666667</ele><time>2026-04-10T13:16:10.95Z</time></trkpt><trkpt lat="44.1011517" lon="8.1074933"><ele>363.0</ele><time>2026-04-10T13:16:11.951Z</time></trkpt><trkpt lat="44.1010817" lon="8.1075733"><ele>367.3333333333333</ele><time>2026-04-10T13:16:12.95Z</time></trkpt><trkpt lat="44.1010233" lon="8.107635"><ele>371.66666666666663</ele><time>2026-04-10T13:16:13.951Z</time></trkpt><trkpt lat="44.10098" lon="8.1077033"><ele>376.0</ele><time>2026-04-10T13:16:14.95Z</time></trkpt><trkpt lat="44.100935" lon="8.1077683"><ele>376.0</ele><time>2026-04-10T13:16:15.95Z</time></trkpt><trkpt lat="44.100885" lon="8.1078417"><ele>376.0</ele><time>2026-04-10T13:16:16.95Z</time></trkpt><trkpt lat="44.1008383" lon="8.1079267"><ele>376.0</ele><time>2026-04-10T13:16:17.95Z</time></trkpt><trkpt lat="44.1007967" lon="8.1080133"><ele>376.0</ele><time>2026-04-10T13:16:18.95Z</time></trkpt><trkpt lat="44.100765" lon="8.1081083"><ele>376.0</ele><time>2026-04-10T13:16:19.95Z</time></trkpt><trkpt lat="44.1007233" lon="8.108215"><ele>376.0</ele><time>2026-04-10T13:16:20.95Z</time></trkpt><trkpt lat="44.1006717" lon="8.1083117"><ele>372.8</ele><time>2026-04-10T13:16:21.951Z</time></trkpt><trkpt lat="44.1006167" lon="8.1084117"><ele>369.6</ele><time>2026-04-10T13:16:22.95Z</time></trkpt><trkpt lat="44.100555" lon="8.1085067"><ele>366.4</ele><time>2026-04-10T13:16:23.95Z</time></trkpt><trkpt lat="44.1004917" lon="8.1086083"><ele>363.2</ele><time>2026-04-10T13:16:24.95Z</time></trkpt><trkpt lat="44.1004167" lon="8.1086917"><ele>360.0</ele><time>2026-04-10T13:16:25.95Z</time></trkpt><trkpt lat="44.1003333" lon="8.10878"><ele>360.0</ele><time>2026-04-10T13:16:26.95Z</time></trkpt><trkpt lat="44.1002517" lon="8.1088683"><ele>360.0</ele><time>2026-04-10T13:16:27.95Z</time></trkpt><trkpt lat="44.1001717" lon="8.10895"><ele>360.0</ele><time>2026-04-10T13:16:28.95Z</time></trkpt><trkpt lat="44.1000967" lon="8.1090433"><ele>360.0</ele><time>2026-04-10T13:16:29.95Z</time></trkpt><trkpt lat="44.1000333" lon="8.1091433"><ele>360.0</ele><time>2026-04-10T13:16:30.95Z</time></trkpt><trkpt lat="44.09997" lon="8.1092317"><ele>359.4</ele><time>2026-04-10T13:16:31.95Z</time></trkpt><trkpt lat="44.099905" lon="8.1093183"><ele>358.8</ele><time>2026-04-10T13:16:32.95Z</time></trkpt><trkpt lat="44.09983" lon="8.1093933"><ele>358.20000000000005</ele><time>2026-04-10T13:16:33.95Z</time></trkpt><trkpt lat="44.0997467" lon="8.10945"><ele>357.6</ele><time>2026-04-10T13:16:34.95Z</time></trkpt><trkpt lat="44.0996633" lon="8.10952"><ele>357.0</ele><time>2026-04-10T13:16:35.95Z</time></trkpt><trkpt lat="44.099575" lon="8.1095967"><ele>357.0</ele><time>2026-04-10T13:16:36.95Z</time></trkpt><trkpt lat="44.0994867" lon="8.1096783"><ele>357.0</ele><time>2026-04-10T13:16:37.95Z</time></trkpt><trkpt lat="44.0993917" lon="8.109755"><ele>357.0</ele><time>2026-04-10T13:16:38.95Z</time></trkpt><trkpt lat="44.0993" lon="8.1098433"><ele>357.0</ele><time>2026-04-10T13:16:39.95Z</time></trkpt><trkpt lat="44.0992067" lon="8.109945"><ele>357.0</ele><time>2026-04-10T13:16:40.95Z</time></trkpt><trkpt lat="44.0991167" lon="8.1100467"><ele>363.6</ele><time>2026-04-10T13:16:41.95Z</time></trkpt><trkpt lat="44.0990317" lon="8.1101133"><ele>370.20000000000005</ele><time>2026-04-10T13:16:42.95Z</time></trkpt><trkpt lat="44.0989483" lon="8.11015"><ele>376.8</ele><time>2026-04-10T13:16:43.95Z</time></trkpt><trkpt lat="44.0988417" lon="8.110165"><ele>383.4</ele><time>2026-04-10T13:16:44.95Z</time></trkpt><trkpt lat="44.09874" lon="8.11016"><ele>390.0</ele><time>2026-04-10T13:16:45.95Z</time></trkpt><trkpt lat="44.0986417" lon="8.1101533"><ele>390.0</ele><time>2026-04-10T13:16:46.95Z</time></trkpt><trkpt lat="44.098545" lon="8.110145"><ele>390.0</ele><time>2026-04-10T13:16:47.95Z</time></trkpt><trkpt lat="44.0984467" lon="8.1101383"><ele>390.0</ele><time>2026-04-10T13:16:48.95Z</time></trkpt><trkpt lat="44.0983467" lon="8.11014"><ele>390.0</ele><time>2026-04-10T13:16:49.95Z</time></trkpt><trkpt lat="44.09826" lon="8.1101617"><ele>390.0</ele><time>2026-04-10T13:16:50.95Z</time></trkpt><trkpt lat="44.0981667" lon="8.110175"><ele>388.8333333333333</ele><time>2026-04-10T13:16:51.95Z</time></trkpt><trkpt lat="44.0980833" lon="8.1101717"><ele>387.6666666666667</ele><time>2026-04-10T13:16:52.95Z</time></trkpt><trkpt lat="44.0980167" lon="8.1101667"><ele>386.5</ele><time>2026-04-10T13:16:53.95Z</time></trkpt><trkpt lat="44.0979483" lon="8.110175"><ele>385.33333333333337</ele><time>2026-04-10T13:16:54.95Z</time></trkpt><trkpt lat="44.0978817" lon="8.1101967"><ele>384.1666666666667</ele><time>2026-04-10T13:16:55.951Z</time></trkpt><trkpt lat="44.09781" lon="8.1102317"><ele>383.0</ele><time>2026-04-10T13:16:56.951Z</time></trkpt><trkpt lat="44.0977217" lon="8.1102817"><ele>383.0</ele><time>2026-04-10T13:16:57.95Z</time></trkpt><trkpt lat="44.09762" lon="8.1103317"><ele>383.0</ele><time>2026-04-10T13:16:58.95Z</time></trkpt><trkpt lat="44.097515" lon="8.1103933"><ele>383.0</ele><time>2026-04-10T13:16:59.95Z</time></trkpt><trkpt lat="44.0974017" lon="8.110435"><ele>383.0</ele><time>2026-04-10T13:17:00.95Z</time></trkpt><trkpt lat="44.0972817" lon="8.1104817"><ele>379.0</ele><time>2026-04-10T13:17:01.95Z</time></trkpt><trkpt lat="44.0971733" lon="8.1105217"><ele>375.0</ele><time>2026-04-10T13:17:02.95Z</time></trkpt><trkpt lat="44.0970683" lon="8.1105517"><ele>371.0</ele><time>2026-04-10T13:17:03.95Z</time></trkpt><trkpt lat="44.0969733" lon="8.11058"><ele>367.0</ele><time>2026-04-10T13:17:04.95Z</time></trkpt><trkpt lat="44.09689" lon="8.1106167"><ele>363.0</ele><time>2026-04-10T13:17:05.95Z</time></trkpt><trkpt lat="44.0968183" lon="8.11066"><ele>363.0</ele><time>2026-04-10T13:17:06.95Z</time></trkpt><trkpt lat="44.0967583" lon="8.1107083"><ele>363.0</ele><time>2026-04-10T13:17:07.95Z</time></trkpt><trkpt lat="44.0967117" lon="8.1107683"><ele>363.0</ele><time>2026-04-10T13:17:08.95Z</time></trkpt><trkpt lat="44.09666" lon="8.1108833"><ele>363.0</ele><time>2026-04-10T13:17:10.95Z</time></trkpt><trkpt lat="44.0966483" lon="8.11099"><ele>363.0</ele><time>2026-04-10T13:17:12.951Z</time></trkpt><trkpt lat="44.0966283" lon="8.1111367"><ele>363.0</ele><time>2026-04-10T13:17:14.95Z</time></trkpt><trkpt lat="44.0966" lon="8.1112917"><ele>362.3333333333333</ele><time>2026-04-10T13:17:16.95Z</time></trkpt><trkpt lat="44.0965367" lon="8.1114483"><ele>361.6666666666667</ele><time>2026-04-10T13:17:18.95Z</time></trkpt><trkpt lat="44.0964867" lon="8.1115283"><ele>361.0</ele><time>2026-04-10T13:17:19.951Z</time></trkpt><trkpt lat="44.0964333" lon="8.1116167"><ele>360.33333333333337</ele><time>2026-04-10T13:17:20.95Z</time></trkpt><trkpt lat="44.096395" lon="8.1117117"><ele>359.6666666666667</ele><time>2026-04-10T13:17:21.95Z</time></trkpt><trkpt lat="44.09637" lon="8.1118067"><ele>359.0</ele><time>2026-04-10T13:17:22.95Z</time></trkpt><trkpt lat="44.0963467" lon="8.1119217"><ele>359.0</ele><time>2026-04-10T13:17:23.95Z</time></trkpt><trkpt lat="44.096325" lon="8.11204"><ele>359.0</ele><time>2026-04-10T13:17:24.95Z</time></trkpt><trkpt lat="44.0963033" lon="8.112135"><ele>359.0</ele><time>2026-04-10T13:17:25.95Z</time></trkpt><trkpt lat="44.0962667" lon="8.1122333"><ele>359.0</ele><time>2026-04-10T13:17:26.95Z</time></trkpt><trkpt lat="44.0962183" lon="8.1123233"><ele>359.0</ele><time>2026-04-10T13:17:27.95Z</time></trkpt><trkpt lat="44.0961617" lon="8.1124083"><ele>359.0</ele><time>2026-04-10T13:17:28.95Z</time></trkpt><trkpt lat="44.09609" lon="8.1124967"><ele>361.4</ele><time>2026-04-10T13:17:29.95Z</time></trkpt><trkpt lat="44.09602" lon="8.112585"><ele>363.79999999999995</ele><time>2026-04-10T13:17:30.95Z</time></trkpt><trkpt lat="44.0959467" lon="8.1126867"><ele>366.20000000000005</ele><time>2026-04-10T13:17:31.95Z</time></trkpt><trkpt lat="44.095875" lon="8.1128"><ele>368.6</ele><time>2026-04-10T13:17:32.95Z</time></trkpt><trkpt lat="44.0958" lon="8.1129017"><ele>371.0</ele><time>2026-04-10T13:17:33.95Z</time></trkpt><trkpt lat="44.09573" lon="8.1129967"><ele>367.4</ele><time>2026-04-10T13:17:34.95Z</time></trkpt><trkpt lat="44.0956617" lon="8.1131"><ele>363.8</ele><time>2026-04-10T13:17:35.95Z</time></trkpt><trkpt lat="44.0956" lon="8.1132"><ele>360.2</ele><time>2026-04-10T13:17:36.95Z</time></trkpt><trkpt lat="44.0955483" lon="8.1133033"><ele>356.59999999999997</ele><time>2026-04-10T13:17:37.95Z</time></trkpt><trkpt lat="44.09551" lon="8.1134183"><ele>353.0</ele><time>2026-04-10T13:17:38.95Z</time></trkpt><trkpt lat="44.0954767" lon="8.113555"><ele>353.0</ele><time>2026-04-10T13:17:39.951Z</time></trkpt><trkpt lat="44.0954567" lon="8.1137067"><ele>353.0</ele><time>2026-04-10T13:17:40.95Z</time></trkpt><trkpt lat="44.0954417" lon="8.113845"><ele>353.0</ele><time>2026-04-10T13:17:41.95Z</time></trkpt><trkpt lat="44.09542" lon="8.1139733"><ele>353.0</ele><time>2026-04-10T13:17:42.95Z</time></trkpt><trkpt lat="44.0953967" lon="8.11407"><ele>353.0</ele><time>2026-04-10T13:17:43.95Z</time></trkpt><trkpt lat="44.09536" lon="8.1141467"><ele>353.0</ele><time>2026-04-10T13:17:44.95Z</time></trkpt><trkpt lat="44.0952467" lon="8.1142283"><ele>354.5</ele><time>2026-04-10T13:17:46.95Z</time></trkpt><trkpt lat="44.0951583" lon="8.1142567"><ele>356.0</ele><time>2026-04-10T13:17:47.951Z</time></trkpt><trkpt lat="44.0950567" lon="8.1142883"><ele>357.5</ele><time>2026-04-10T13:17:48.95Z</time></trkpt><trkpt lat="44.0949733" lon="8.11433"><ele>359.0</ele><time>2026-04-10T13:17:49.951Z</time></trkpt><trkpt lat="44.0949017" lon="8.114385"><ele>360.5</ele><time>2026-04-10T13:17:50.95Z</time></trkpt><trkpt lat="44.0948367" lon="8.1144433"><ele>362.0</ele><time>2026-04-10T13:17:51.95Z</time></trkpt><trkpt lat="44.09479" lon="8.114525"><ele>355.5</ele><time>2026-04-10T13:17:52.95Z</time></trkpt><trkpt lat="44.0947483" lon="8.1146317"><ele>349.0</ele><time>2026-04-10T13:17:53.95Z</time></trkpt><trkpt lat="44.0947283" lon="8.11475"><ele>342.5</ele><time>2026-04-10T13:17:54.95Z</time></trkpt><trkpt lat="44.0947167" lon="8.1148717"><ele>336.0</ele><time>2026-04-10T13:17:55.95Z</time></trkpt><trkpt lat="44.0947183" lon="8.114985"><ele>329.5</ele><time>2026-04-10T13:17:56.95Z</time></trkpt><trkpt lat="44.094725" lon="8.1151083"><ele>323.0</ele><time>2026-04-10T13:17:57.951Z</time></trkpt><trkpt lat="44.094725" lon="8.1152267"><ele>323.0</ele><time>2026-04-10T13:17:58.95Z</time></trkpt><trkpt lat="44.0947083" lon="8.1153533"><ele>323.0</ele><time>2026-04-10T13:17:59.95Z</time></trkpt><trkpt lat="44.0946767" lon="8.1154733"><ele>323.0</ele><time>2026-04-10T13:18:00.95Z</time></trkpt><trkpt lat="44.0946617" lon="8.1155933"><ele>323.0</ele><time>2026-04-10T13:18:01.95Z</time></trkpt><trkpt lat="44.0946333" lon="8.115725"><ele>323.0</ele><time>2026-04-10T13:18:02.95Z</time></trkpt><trkpt lat="44.0946117" lon="8.11586"><ele>323.2</ele><time>2026-04-10T13:18:03.95Z</time></trkpt><trkpt lat="44.0945983" lon="8.115995"><ele>323.4</ele><time>2026-04-10T13:18:04.95Z</time></trkpt><trkpt lat="44.0945967" lon="8.1161283"><ele>323.59999999999997</ele><time>2026-04-10T13:18:05.95Z</time></trkpt><trkpt lat="44.0945967" lon="8.1162633"><ele>323.79999999999995</ele><time>2026-04-10T13:18:06.95Z</time></trkpt><trkpt lat="44.09458" lon="8.1163917"><ele>324.0</ele><time>2026-04-10T13:18:07.951Z</time></trkpt><trkpt lat="44.094575" lon="8.1165117"><ele>324.79999999999995</ele><time>2026-04-10T13:18:08.95Z</time></trkpt><trkpt lat="44.0945567" lon="8.1166283"><ele>325.59999999999997</ele><time>2026-04-10T13:18:09.95Z</time></trkpt><trkpt lat="44.094525" lon="8.1167483"><ele>326.4</ele><time>2026-04-10T13:18:10.95Z</time></trkpt><trkpt lat="44.094475" lon="8.1168667"><ele>327.2</ele><time>2026-04-10T13:18:11.95Z</time></trkpt><trkpt lat="44.094415" lon="8.116975"><ele>328.0</ele><time>2026-04-10T13:18:12.951Z</time></trkpt><trkpt lat="44.0943583" lon="8.117075"><ele>328.0</ele><time>2026-04-10T13:18:13.95Z</time></trkpt><trkpt lat="44.09429" lon="8.117175"><ele>328.0</ele><time>2026-04-10T13:18:14.951Z</time></trkpt><trkpt lat="44.09421" lon="8.1172683"><ele>328.0</ele><time>2026-04-10T13:18:15.95Z</time></trkpt><trkpt lat="44.0941233" lon="8.11736"><ele>328.0</ele><time>2026-04-10T13:18:16.95Z</time></trkpt><trkpt lat="44.0940517" lon="8.11744"><ele>328.0</ele><time>2026-04-10T13:18:17.95Z</time></trkpt><trkpt lat="44.0939833" lon="8.1175117"><ele>319.8333333333333</ele><time>2026-04-10T13:18:18.95Z</time></trkpt><trkpt lat="44.0939117" lon="8.117595"><ele>311.66666666666663</ele><time>2026-04-10T13:18:19.95Z</time></trkpt><trkpt lat="44.0938483" lon="8.1176617"><ele>303.5</ele><time>2026-04-10T13:18:20.95Z</time></trkpt><trkpt lat="44.0938" lon="8.1177417"><ele>295.3333333333333</ele><time>2026-04-10T13:18:21.951Z</time></trkpt><trkpt lat="44.093785" lon="8.1178317"><ele>287.1666666666667</ele><time>2026-04-10T13:18:22.95Z</time></trkpt><trkpt lat="44.0937867" lon="8.117935"><ele>279.0</ele><time>2026-04-10T13:18:23.95Z</time></trkpt><trkpt lat="44.0937983" lon="8.11805"><ele>279.0</ele><time>2026-04-10T13:18:24.951Z</time></trkpt><trkpt lat="44.09382" lon="8.11818"><ele>279.0</ele><time>2026-04-10T13:18:25.95Z</time></trkpt><trkpt lat="44.093835" lon="8.118305"><ele>279.0</ele><time>2026-04-10T13:18:26.95Z</time></trkpt><trkpt lat="44.093855" lon="8.1184283"><ele>279.0</ele><time>2026-04-10T13:18:27.95Z</time></trkpt><trkpt lat="44.09387" lon="8.118545"><ele>279.0</ele><time>2026-04-10T13:18:28.95Z</time></trkpt><trkpt lat="44.0938967" lon="8.1186517"><ele>279.0</ele><time>2026-04-10T13:18:29.95Z</time></trkpt><trkpt lat="44.0939283" lon="8.1187583"><ele>284.3333333333333</ele><time>2026-04-10T13:18:30.95Z</time></trkpt><trkpt lat="44.0939567" lon="8.1188733"><ele>289.6666666666667</ele><time>2026-04-10T13:18:31.951Z</time></trkpt><trkpt lat="44.09399" lon="8.1189833"><ele>295.0</ele><time>2026-04-10T13:18:32.95Z</time></trkpt><trkpt lat="44.09402" lon="8.119095"><ele>300.33333333333337</ele><time>2026-04-10T13:18:33.95Z</time></trkpt><trkpt lat="44.094055" lon="8.1192067"><ele>305.6666666666667</ele><time>2026-04-10T13:18:34.95Z</time></trkpt><trkpt lat="44.0940883" lon="8.11933"><ele>311.0</ele><time>2026-04-10T13:18:35.95Z</time></trkpt><trkpt lat="44.0941233" lon="8.11945"><ele>315.33333333333337</ele><time>2026-04-10T13:18:36.95Z</time></trkpt><trkpt lat="44.0941533" lon="8.119565"><ele>319.6666666666667</ele><time>2026-04-10T13:18:37.95Z</time></trkpt><trkpt lat="44.0941817" lon="8.1196717"><ele>324.0</ele><time>2026-04-10T13:18:38.95Z</time></trkpt><trkpt lat="44.0941983" lon="8.1197783"><ele>328.3333333333333</ele><time>2026-04-10T13:18:39.95Z</time></trkpt><trkpt lat="44.094205" lon="8.11989"><ele>332.66666666666663</ele><time>2026-04-10T13:18:40.95Z</time></trkpt><trkpt lat="44.0941967" lon="8.12"><ele>337.0</ele><time>2026-04-10T13:18:41.95Z</time></trkpt><trkpt lat="44.0941817" lon="8.120115"><ele>337.0</ele><time>2026-04-10T13:18:42.95Z</time></trkpt><trkpt lat="44.0941767" lon="8.1202317"><ele>337.0</ele><time>2026-04-10T13:18:43.95Z</time></trkpt><trkpt lat="44.0941783" lon="8.1203483"><ele>337.0</ele><time>2026-04-10T13:18:44.951Z</time></trkpt><trkpt lat="44.0941883" lon="8.1204683"><ele>337.0</ele><time>2026-04-10T13:18:45.95Z</time></trkpt><trkpt lat="44.0941983" lon="8.1205817"><ele>337.0</ele><time>2026-04-10T13:18:46.95Z</time></trkpt><trkpt lat="44.0942" lon="8.120685"><ele>337.0</ele><time>2026-04-10T13:18:47.95Z</time></trkpt><trkpt lat="44.0942" lon="8.1207967"><ele>336.0</ele><time>2026-04-10T13:18:48.95Z</time></trkpt><trkpt lat="44.0942033" lon="8.1209033"><ele>335.0</ele><time>2026-04-10T13:18:49.95Z</time></trkpt><trkpt lat="44.0942133" lon="8.1210083"><ele>334.0</ele><time>2026-04-10T13:18:50.95Z</time></trkpt><trkpt lat="44.0942333" lon="8.1211117"><ele>333.0</ele><time>2026-04-10T13:18:51.95Z</time></trkpt><trkpt lat="44.0942617" lon="8.1212183"><ele>332.0</ele><time>2026-04-10T13:18:52.95Z</time></trkpt><trkpt lat="44.0943067" lon="8.1213067"><ele>331.0</ele><time>2026-04-10T13:18:53.95Z</time></trkpt><trkpt lat="44.0943517" lon="8.12138"><ele>331.0</ele><time>2026-04-10T13:18:54.95Z</time></trkpt><trkpt lat="44.0944317" lon="8.1214683"><ele>331.0</ele><time>2026-04-10T13:18:56.95Z</time></trkpt><trkpt lat="44.0945217" lon="8.1214967"><ele>331.0</ele><time>2026-04-10T13:18:58.95Z</time></trkpt><trkpt lat="44.0946167" lon="8.1214117"><ele>331.0</ele><time>2026-04-10T13:19:00.951Z</time></trkpt><trkpt lat="44.0946433" lon="8.1213317"><ele>331.0</ele><time>2026-04-10T13:19:02.95Z</time></trkpt><trkpt lat="44.094655" lon="8.12123"><ele>331.0</ele><time>2026-04-10T13:19:48.95Z</time></trkpt><trkpt lat="44.0947083" lon="8.1211267"><ele>331.0</ele><time>2026-04-10T13:19:50.951Z</time></trkpt><trkpt lat="44.0947783" lon="8.1209817"><ele>331.0</ele><time>2026-04-10T13:19:52.95Z</time></trkpt><trkpt lat="44.0948267" lon="8.120885"><ele>331.0</ele><time>2026-04-10T13:19:53.95Z</time></trkpt><trkpt lat="44.0948767" lon="8.1207817"><ele>331.0</ele><time>2026-04-10T13:19:54.95Z</time></trkpt><trkpt lat="44.0949383" lon="8.12069"><ele>331.0</ele><time>2026-04-10T13:19:55.951Z</time></trkpt><trkpt lat="44.0949967" lon="8.1206083"><ele>336.5</ele><time>2026-04-10T13:19:56.95Z</time></trkpt><trkpt lat="44.095055" lon="8.1205383"><ele>342.0</ele><time>2026-04-10T13:19:57.95Z</time></trkpt><trkpt lat="44.0950967" lon="8.1204667"><ele>347.5</ele><time>2026-04-10T13:19:58.95Z</time></trkpt><trkpt lat="44.09512" lon="8.12038"><ele>353.0</ele><time>2026-04-10T13:19:59.95Z</time></trkpt><trkpt lat="44.0951383" lon="8.12029"><ele>358.5</ele><time>2026-04-10T13:20:00.95Z</time></trkpt><trkpt lat="44.0951617" lon="8.1201767"><ele>364.0</ele><time>2026-04-10T13:20:01.95Z</time></trkpt><trkpt lat="44.0951883" lon="8.1200383"><ele>368.4</ele><time>2026-04-10T13:20:02.95Z</time></trkpt><trkpt lat="44.0952183" lon="8.1198733"><ele>372.79999999999995</ele><time>2026-04-10T13:20:03.95Z</time></trkpt><trkpt lat="44.0952483" lon="8.11972"><ele>377.20000000000005</ele><time>2026-04-10T13:20:04.95Z</time></trkpt><trkpt lat="44.0952833" lon="8.1195717"><ele>381.6</ele><time>2026-04-10T13:20:05.95Z</time></trkpt><trkpt lat="44.0953183" lon="8.11944"><ele>386.0</ele><time>2026-04-10T13:20:06.95Z</time></trkpt><trkpt lat="44.0953867" lon="8.1193017"><ele>386.0</ele><time>2026-04-10T13:20:07.95Z</time></trkpt><trkpt lat="44.0954583" lon="8.1191633"><ele>386.0</ele><time>2026-04-10T13:20:08.95Z</time></trkpt><trkpt lat="44.0955283" lon="8.119035"><ele>386.0</ele><time>2026-04-10T13:20:09.95Z</time></trkpt><trkpt lat="44.0955917" lon="8.1189283"><ele>386.0</ele><time>2026-04-10T13:20:10.95Z</time></trkpt><trkpt lat="44.0956567" lon="8.11883"><ele>386.0</ele><time>2026-04-10T13:20:11.951Z</time></trkpt><trkpt lat="44.0957167" lon="8.1187283"><ele>385.6</ele><time>2026-04-10T13:20:12.95Z</time></trkpt><trkpt lat="44.0957717" lon="8.118625"><ele>385.20000000000005</ele><time>2026-04-10T13:20:13.95Z</time></trkpt><trkpt lat="44.0958267" lon="8.1185267"><ele>384.79999999999995</ele><time>2026-04-10T13:20:14.95Z</time></trkpt><trkpt lat="44.0958833" lon="8.11841"><ele>384.4</ele><time>2026-04-10T13:20:15.95Z</time></trkpt><trkpt lat="44.09594" lon="8.118285"><ele>384.0</ele><time>2026-04-10T13:20:16.95Z</time></trkpt><trkpt lat="44.0960083" lon="8.1181633"><ele>391.0</ele><time>2026-04-10T13:20:17.95Z</time></trkpt><trkpt lat="44.0960783" lon="8.1180667"><ele>398.0</ele><time>2026-04-10T13:20:18.95Z</time></trkpt><trkpt lat="44.0961767" lon="8.1179883"><ele>405.0</ele><time>2026-04-10T13:20:19.95Z</time></trkpt><trkpt lat="44.096295" lon="8.11791"><ele>412.0</ele><time>2026-04-10T13:20:20.95Z</time></trkpt><trkpt lat="44.0964167" lon="8.1178533"><ele>412.00000000000006</ele><time>2026-04-10T13:20:21.95Z</time></trkpt><trkpt lat="44.0965167" lon="8.117815"><ele>412.0</ele><time>2026-04-10T13:20:22.95Z</time></trkpt><trkpt lat="44.096605" lon="8.1178"><ele>412.0</ele><time>2026-04-10T13:20:23.95Z</time></trkpt><trkpt lat="44.0967017" lon="8.1178033"><ele>412.0</ele><time>2026-04-10T13:20:24.95Z</time></trkpt><trkpt lat="44.0967783" lon="8.11779"><ele>412.00000000000006</ele><time>2026-04-10T13:20:25.951Z</time></trkpt><trkpt lat="44.096845" lon="8.1177367"><ele>412.0</ele><time>2026-04-10T13:20:26.951Z</time></trkpt><trkpt lat="44.0968967" lon="8.117655"><ele>408.00000000000006</ele><time>2026-04-10T13:20:27.95Z</time></trkpt><trkpt lat="44.0969617" lon="8.1175733"><ele>404.0</ele><time>2026-04-10T13:20:28.951Z</time></trkpt><trkpt lat="44.0970383" lon="8.1174967"><ele>400.0</ele><time>2026-04-10T13:20:29.95Z</time></trkpt><trkpt lat="44.0971217" lon="8.1174433"><ele>396.0</ele><time>2026-04-10T13:20:30.95Z</time></trkpt><trkpt lat="44.097205" lon="8.11742"><ele>392.00000000000006</ele><time>2026-04-10T13:20:31.95Z</time></trkpt><trkpt lat="44.0972883" lon="8.1174217"><ele>388.0</ele><time>2026-04-10T13:20:32.951Z</time></trkpt><trkpt lat="44.0973867" lon="8.1174417"><ele>387.4</ele><time>2026-04-10T13:20:33.95Z</time></trkpt><trkpt lat="44.097485" lon="8.1174817"><ele>386.79999999999995</ele><time>2026-04-10T13:20:34.95Z</time></trkpt><trkpt lat="44.09758" lon="8.117535"><ele>386.2</ele><time>2026-04-10T13:20:35.95Z</time></trkpt><trkpt lat="44.097665" lon="8.1175833"><ele>385.6</ele><time>2026-04-10T13:20:36.95Z</time></trkpt><trkpt lat="44.097745" lon="8.117635"><ele>385.0</ele><time>2026-04-10T13:20:37.95Z</time></trkpt><trkpt lat="44.09782" lon="8.1177067"><ele>385.00000000000006</ele><time>2026-04-10T13:20:38.951Z</time></trkpt><trkpt lat="44.0978983" lon="8.11778"><ele>385.0</ele><time>2026-04-10T13:20:39.951Z</time></trkpt><trkpt lat="44.0979767" lon="8.11785"><ele>385.0</ele><time>2026-04-10T13:20:40.95Z</time></trkpt><trkpt lat="44.098055" lon="8.1179017"><ele>385.0</ele><time>2026-04-10T13:20:41.951Z</time></trkpt><trkpt lat="44.098125" lon="8.1179317"><ele>385.00000000000006</ele><time>2026-04-10T13:20:42.95Z</time></trkpt><trkpt lat="44.09819" lon="8.1179233"><ele>385.0</ele><time>2026-04-10T13:20:43.95Z</time></trkpt><trkpt lat="44.0982733" lon="8.1177917"><ele>386.2</ele><time>2026-04-10T13:20:45.95Z</time></trkpt><trkpt lat="44.0983033" lon="8.117705"><ele>387.4</ele><time>2026-04-10T13:20:46.95Z</time></trkpt><trkpt lat="44.0983567" lon="8.1176067"><ele>388.6</ele><time>2026-04-10T13:20:47.95Z</time></trkpt><trkpt lat="44.0984333" lon="8.1175283"><ele>389.8</ele><time>2026-04-10T13:20:48.95Z</time></trkpt><trkpt lat="44.09852" lon="8.117455"><ele>391.0</ele><time>2026-04-10T13:20:49.95Z</time></trkpt><trkpt lat="44.09861" lon="8.1173733"><ele>399.75</ele><time>2026-04-10T13:20:50.95Z</time></trkpt><trkpt lat="44.09871" lon="8.11731"><ele>408.5</ele><time>2026-04-10T13:20:51.95Z</time></trkpt><trkpt lat="44.09883" lon="8.1172467"><ele>417.25</ele><time>2026-04-10T13:20:52.95Z</time></trkpt><trkpt lat="44.098955" lon="8.11719"><ele>426.0</ele><time>2026-04-10T13:20:53.95Z</time></trkpt><trkpt lat="44.0990767" lon="8.1171417"><ele>424.4</ele><time>2026-04-10T13:20:54.95Z</time></trkpt><trkpt lat="44.09919" lon="8.11711"><ele>422.8</ele><time>2026-04-10T13:20:55.951Z</time></trkpt><trkpt lat="44.0992917" lon="8.117095"><ele>421.2</ele><time>2026-04-10T13:20:56.95Z</time></trkpt><trkpt lat="44.0993917" lon="8.1171033"><ele>419.59999999999997</ele><time>2026-04-10T13:20:57.95Z</time></trkpt><trkpt lat="44.0994917" lon="8.117125"><ele>418.0</ele><time>2026-04-10T13:20:58.95Z</time></trkpt><trkpt lat="44.0995917" lon="8.1171617"><ele>418.0</ele><time>2026-04-10T13:20:59.95Z</time></trkpt><trkpt lat="44.099695" lon="8.1171867"><ele>418.0</ele><time>2026-04-10T13:21:00.95Z</time></trkpt><trkpt lat="44.09979" lon="8.1172117"><ele>418.0</ele><time>2026-04-10T13:21:01.95Z</time></trkpt><trkpt lat="44.0998833" lon="8.11723"><ele>418.0</ele><time>2026-04-10T13:21:02.95Z</time></trkpt><trkpt lat="44.0999833" lon="8.1172317"><ele>418.0</ele><time>2026-04-10T13:21:03.95Z</time></trkpt><trkpt lat="44.1001033" lon="8.1172217"><ele>417.2</ele><time>2026-04-10T13:21:04.95Z</time></trkpt><trkpt lat="44.1002133" lon="8.117205"><ele>416.4</ele><time>2026-04-10T13:21:05.95Z</time></trkpt><trkpt lat="44.10032" lon="8.1171867"><ele>415.59999999999997</ele><time>2026-04-10T13:21:06.95Z</time></trkpt><trkpt lat="44.1004117" lon="8.1171667"><ele>414.79999999999995</ele><time>2026-04-10T13:21:07.95Z</time></trkpt><trkpt lat="44.1004867" lon="8.117145"><ele>414.0</ele><time>2026-04-10T13:21:08.95Z</time></trkpt><trkpt lat="44.1005883" lon="8.11705"><ele>414.0</ele><time>2026-04-10T13:21:10.95Z</time></trkpt><trkpt lat="44.1006417" lon="8.116965"><ele>414.0</ele><time>2026-04-10T13:21:11.95Z</time></trkpt><trkpt lat="44.1006967" lon="8.1168733"><ele>414.0</ele><time>2026-04-10T13:21:12.95Z</time></trkpt><trkpt lat="44.1007533" lon="8.1167717"><ele>414.0</ele><time>2026-04-10T13:21:13.95Z</time></trkpt><trkpt lat="44.100805" lon="8.1166667"><ele>414.0</ele><time>2026-04-10T13:21:14.95Z</time></trkpt><trkpt lat="44.1008333" lon="8.1165783"><ele>414.0</ele><time>2026-04-10T13:21:15.951Z</time></trkpt><trkpt lat="44.1008467" lon="8.1164867"><ele>414.0</ele><time>2026-04-10T13:21:16.95Z</time></trkpt><trkpt lat="44.1008467" lon="8.116385"><ele>414.0</ele><time>2026-04-10T13:21:17.951Z</time></trkpt><trkpt lat="44.100845" lon="8.1162833"><ele>414.0</ele><time>2026-04-10T13:21:18.95Z</time></trkpt><trkpt lat="44.10084" lon="8.116195"><ele>414.0</ele><time>2026-04-10T13:21:19.95Z</time></trkpt><trkpt lat="44.1008983" lon="8.1160967"><ele>414.0</ele><time>2026-04-10T13:21:21.95Z</time></trkpt><trkpt lat="44.101035" lon="8.1160967"><ele>414.0</ele><time>2026-04-10T13:21:23.95Z</time></trkpt><trkpt lat="44.10111" lon="8.1161117"><ele>414.0</ele><time>2026-04-10T13:21:24.95Z</time></trkpt><trkpt lat="44.1012067" lon="8.1160917"><ele>414.0</ele><time>2026-04-10T13:21:26.95Z</time></trkpt><trkpt lat="44.101275" lon="8.116065"><ele>414.0</ele><time>2026-04-10T13:21:28.95Z</time></trkpt><trkpt lat="44.1013233" lon="8.1159867"><ele>414.0</ele><time>2026-04-10T13:21:30.951Z</time></trkpt><trkpt lat="44.101305" lon="8.1159017"><ele>414.0</ele><time>2026-04-10T13:22:22.95Z</time></trkpt><trkpt lat="44.101215" lon="8.115905"><ele>414.0</ele><time>2026-04-10T13:22:24.95Z</time></trkpt><trkpt lat="44.1011183" lon="8.1158867"><ele>414.0</ele><time>2026-04-10T13:22:26.95Z</time></trkpt><trkpt lat="44.1010417" lon="8.1158667"><ele>414.0</ele><time>2026-04-10T13:22:27.95Z</time></trkpt><trkpt lat="44.10097" lon="8.1158467"><ele>414.0</ele><time>2026-04-10T13:22:28.95Z</time></trkpt><trkpt lat="44.1008817" lon="8.11579"><ele>414.0</ele><time>2026-04-10T13:22:30.95Z</time></trkpt><trkpt lat="44.1008833" lon="8.1156767"><ele>414.0</ele><time>2026-04-10T13:22:32.95Z</time></trkpt><trkpt lat="44.1009133" lon="8.1155967"><ele>414.0</ele><time>2026-04-10T13:22:33.95Z</time></trkpt><trkpt lat="44.10095" lon="8.11549"><ele>418.0</ele><time>2026-04-10T13:22:34.95Z</time></trkpt><trkpt lat="44.1009917" lon="8.1153217"><ele>422.0</ele><time>2026-04-10T13:22:35.95Z</time></trkpt><trkpt lat="44.1010267" lon="8.115145"><ele>426.0</ele><time>2026-04-10T13:22:36.95Z</time></trkpt><trkpt lat="44.1010583" lon="8.1149817"><ele>430.0</ele><time>2026-04-10T13:22:37.95Z</time></trkpt><trkpt lat="44.101065" lon="8.1148233"><ele>431.83333333333337</ele><time>2026-04-10T13:22:38.95Z</time></trkpt><trkpt lat="44.1010583" lon="8.11466"><ele>433.6666666666667</ele><time>2026-04-10T13:22:39.95Z</time></trkpt><trkpt lat="44.10106" lon="8.11452"><ele>435.5</ele><time>2026-04-10T13:22:40.95Z</time></trkpt><trkpt lat="44.1010467" lon="8.11443"><ele>437.33333333333337</ele><time>2026-04-10T13:22:41.95Z</time></trkpt><trkpt lat="44.1009933" lon="8.1143633"><ele>439.1666666666667</ele><time>2026-04-10T13:22:44.95Z</time></trkpt><trkpt lat="44.100975" lon="8.1144733"><ele>441.0</ele><time>2026-04-10T13:22:45.95Z</time></trkpt><trkpt lat="44.100945" lon="8.1146033"><ele>441.0</ele><time>2026-04-10T13:22:46.95Z</time></trkpt><trkpt lat="44.100905" lon="8.1147117"><ele>441.0</ele><time>2026-04-10T13:22:47.95Z</time></trkpt><trkpt lat="44.1008467" lon="8.1147733"><ele>441.0</ele><time>2026-04-10T13:22:48.95Z</time></trkpt><trkpt lat="44.100755" lon="8.1147217"><ele>441.0</ele><time>2026-04-10T13:22:50.951Z</time></trkpt><trkpt lat="44.10073" lon="8.1146233"><ele>441.0</ele><time>2026-04-10T13:22:51.95Z</time></trkpt><trkpt lat="44.10071" lon="8.1144933"><ele>441.0</ele><time>2026-04-10T13:22:52.95Z</time></trkpt><trkpt lat="44.1006967" lon="8.1143633"><ele>443.0</ele><time>2026-04-10T13:22:53.95Z</time></trkpt><trkpt lat="44.100695" lon="8.1142333"><ele>445.0</ele><time>2026-04-10T13:22:54.95Z</time></trkpt><trkpt lat="44.1006817" lon="8.11412"><ele>447.0</ele><time>2026-04-10T13:22:55.95Z</time></trkpt><trkpt lat="44.1006533" lon="8.1139983"><ele>449.0</ele><time>2026-04-10T13:22:56.95Z</time></trkpt><trkpt lat="44.1005933" lon="8.1139"><ele>451.0</ele><time>2026-04-10T13:22:57.95Z</time></trkpt><trkpt lat="44.1005267" lon="8.1138267"><ele>453.0</ele><time>2026-04-10T13:22:58.95Z</time></trkpt><trkpt lat="44.1004533" lon="8.1137817"><ele>453.2</ele><time>2026-04-10T13:22:59.95Z</time></trkpt><trkpt lat="44.1003617" lon="8.1137767"><ele>453.4</ele><time>2026-04-10T13:23:00.951Z</time></trkpt><trkpt lat="44.10028" lon="8.1137833"><ele>453.59999999999997</ele><time>2026-04-10T13:23:01.95Z</time></trkpt><trkpt lat="44.1002083" lon="8.1137733"><ele>453.79999999999995</ele><time>2026-04-10T13:23:02.95Z</time></trkpt><trkpt lat="44.1001383" lon="8.1136567"><ele>454.0</ele><time>2026-04-10T13:23:04.95Z</time></trkpt><trkpt lat="44.1000767" lon="8.11354"><ele>454.0</ele><time>2026-04-10T13:23:06.95Z</time></trkpt><trkpt lat="44.0999533" lon="8.113525"><ele>454.0</ele><time>2026-04-10T13:23:08.95Z</time></trkpt><trkpt lat="44.09987" lon="8.1135433"><ele>454.0</ele><time>2026-04-10T13:23:09.951Z</time></trkpt><trkpt lat="44.0997667" lon="8.113565"><ele>454.0</ele><time>2026-04-10T13:23:10.95Z</time></trkpt><trkpt lat="44.0996517" lon="8.1135633"><ele>454.0</ele><time>2026-04-10T13:23:11.95Z</time></trkpt><trkpt lat="44.0995767" lon="8.1135383"><ele>456.00000000000006</ele><time>2026-04-10T13:23:12.951Z</time></trkpt><trkpt lat="44.099485" lon="8.1135133"><ele>458.0</ele><time>2026-04-10T13:23:13.95Z</time></trkpt><trkpt lat="44.0994117" lon="8.1134567"><ele>460.0</ele><time>2026-04-10T13:23:14.95Z</time></trkpt><trkpt lat="44.0993233" lon="8.11342"><ele>462.0</ele><time>2026-04-10T13:23:15.95Z</time></trkpt><trkpt lat="44.0992417" lon="8.113415"><ele>464.00000000000006</ele><time>2026-04-10T13:23:16.95Z</time></trkpt><trkpt lat="44.0991667" lon="8.1134433"><ele>466.0</ele><time>2026-04-10T13:23:17.95Z</time></trkpt><trkpt lat="44.0990833" lon="8.11351"><ele>468.20000000000005</ele><time>2026-04-10T13:23:18.95Z</time></trkpt><trkpt lat="44.098995" lon="8.1136033"><ele>470.40000000000003</ele><time>2026-04-10T13:23:19.95Z</time></trkpt><trkpt lat="44.0988917" lon="8.11368"><ele>472.6</ele><time>2026-04-10T13:23:20.951Z</time></trkpt><trkpt lat="44.0987883" lon="8.1137283"><ele>474.8</ele><time>2026-04-10T13:23:21.95Z</time></trkpt><trkpt lat="44.0987083" lon="8.1137483"><ele>477.0</ele><time>2026-04-10T13:23:22.95Z</time></trkpt><trkpt lat="44.0986083" lon="8.1136833"><ele>477.0</ele><time>2026-04-10T13:23:24.95Z</time></trkpt><trkpt lat="44.0985783" lon="8.1135017"><ele>477.0</ele><time>2026-04-10T13:23:26.95Z</time></trkpt><trkpt lat="44.0986167" lon="8.11336"><ele>477.0</ele><time>2026-04-10T13:23:27.95Z</time></trkpt><trkpt lat="44.0986667" lon="8.113205"><ele>477.0</ele><time>2026-04-10T13:23:28.95Z</time></trkpt><trkpt lat="44.0987217" lon="8.1130483"><ele>478.0</ele><time>2026-04-10T13:23:29.95Z</time></trkpt><trkpt lat="44.0987833" lon="8.11291"><ele>479.00000000000006</ele><time>2026-04-10T13:23:30.95Z</time></trkpt><trkpt lat="44.09885" lon="8.1127917"><ele>480.00000000000006</ele><time>2026-04-10T13:23:31.951Z</time></trkpt><trkpt lat="44.0989133" lon="8.112685"><ele>481.0</ele><time>2026-04-10T13:23:32.95Z</time></trkpt><trkpt lat="44.0989783" lon="8.1125917"><ele>482.0</ele><time>2026-04-10T13:23:33.95Z</time></trkpt><trkpt lat="44.0990417" lon="8.1125"><ele>480.6</ele><time>2026-04-10T13:23:34.95Z</time></trkpt><trkpt lat="44.0991" lon="8.1124083"><ele>479.20000000000005</ele><time>2026-04-10T13:23:35.95Z</time></trkpt><trkpt lat="44.0991633" lon="8.1123133"><ele>477.8</ele><time>2026-04-10T13:23:36.95Z</time></trkpt><trkpt lat="44.0992333" lon="8.1122067"><ele>476.4</ele><time>2026-04-10T13:23:37.95Z</time></trkpt><trkpt lat="44.099315" lon="8.11211"><ele>475.0</ele><time>2026-04-10T13:23:38.95Z</time></trkpt><trkpt lat="44.0994033" lon="8.1120133"><ele>474.4</ele><time>2026-04-10T13:23:39.95Z</time></trkpt><trkpt lat="44.0994917" lon="8.1119183"><ele>473.8</ele><time>2026-04-10T13:23:40.951Z</time></trkpt><trkpt lat="44.0995733" lon="8.1118333"><ele>473.20000000000005</ele><time>2026-04-10T13:23:41.95Z</time></trkpt><trkpt lat="44.0996533" lon="8.111755"><ele>472.6</ele><time>2026-04-10T13:23:42.95Z</time></trkpt><trkpt lat="44.0997333" lon="8.1116733"><ele>472.0</ele><time>2026-04-10T13:23:43.95Z</time></trkpt><trkpt lat="44.0997967" lon="8.1115967"><ele>470.1666666666667</ele><time>2026-04-10T13:23:44.951Z</time></trkpt><trkpt lat="44.09987" lon="8.1115317"><ele>468.33333333333337</ele><time>2026-04-10T13:23:45.95Z</time></trkpt><trkpt lat="44.0999383" lon="8.1114983"><ele>466.5</ele><time>2026-04-10T13:23:46.95Z</time></trkpt><trkpt lat="44.10001" lon="8.1114717"><ele>464.66666666666663</ele><time>2026-04-10T13:23:47.95Z</time></trkpt><trkpt lat="44.10009" lon="8.1114467"><ele>462.8333333333333</ele><time>2026-04-10T13:23:48.95Z</time></trkpt><trkpt lat="44.1001867" lon="8.1114167"><ele>461.0</ele><time>2026-04-10T13:23:49.95Z</time></trkpt><trkpt lat="44.1002833" lon="8.111395"><ele>461.0</ele><time>2026-04-10T13:23:50.951Z</time></trkpt><trkpt lat="44.100395" lon="8.1113533"><ele>461.0</ele><time>2026-04-10T13:23:51.95Z</time></trkpt><trkpt lat="44.1005067" lon="8.111305"><ele>461.0</ele><time>2026-04-10T13:23:52.95Z</time></trkpt><trkpt lat="44.1006217" lon="8.1112467"><ele>461.0</ele><time>2026-04-10T13:23:53.951Z</time></trkpt><trkpt lat="44.100745" lon="8.1111933"><ele>465.20000000000005</ele><time>2026-04-10T13:23:54.95Z</time></trkpt><trkpt lat="44.1008567" lon="8.1111567"><ele>469.40000000000003</ele><time>2026-04-10T13:23:55.95Z</time></trkpt><trkpt lat="44.1009633" lon="8.1111217"><ele>473.6</ele><time>2026-04-10T13:23:56.95Z</time></trkpt><trkpt lat="44.1010717" lon="8.1111017"><ele>477.8</ele><time>2026-04-10T13:23:57.95Z</time></trkpt><trkpt lat="44.1011833" lon="8.1110867"><ele>482.0</ele><time>2026-04-10T13:23:58.95Z</time></trkpt><trkpt lat="44.1012867" lon="8.11106"><ele>482.0</ele><time>2026-04-10T13:23:59.95Z</time></trkpt><trkpt lat="44.10137" lon="8.1110233"><ele>482.00000000000006</ele><time>2026-04-10T13:24:00.95Z</time></trkpt><trkpt lat="44.1014517" lon="8.1109983"><ele>482.00000000000006</ele><time>2026-04-10T13:24:01.95Z</time></trkpt><trkpt lat="44.1015367" lon="8.1109917"><ele>482.0</ele><time>2026-04-10T13:24:02.95Z</time></trkpt><trkpt lat="44.1016283" lon="8.111"><ele>482.0</ele><time>2026-04-10T13:24:03.95Z</time></trkpt><trkpt lat="44.10173" lon="8.1110133"><ele>486.8</ele><time>2026-04-10T13:24:04.95Z</time></trkpt><trkpt lat="44.1018233" lon="8.1110283"><ele>491.6</ele><time>2026-04-10T13:24:05.95Z</time></trkpt><trkpt lat="44.1019233" lon="8.1110533"><ele>496.40000000000003</ele><time>2026-04-10T13:24:06.95Z</time></trkpt><trkpt lat="44.1020217" lon="8.1110683"><ele>501.20000000000005</ele><time>2026-04-10T13:24:07.95Z</time></trkpt><trkpt lat="44.102115" lon="8.111075"><ele>506.0</ele><time>2026-04-10T13:24:08.95Z</time></trkpt><trkpt lat="44.1022167" lon="8.1110633"><ele>506.0</ele><time>2026-04-10T13:24:09.95Z</time></trkpt><trkpt lat="44.10232" lon="8.1110317"><ele>506.0</ele><time>2026-04-10T13:24:10.95Z</time></trkpt><trkpt lat="44.1024317" lon="8.1109817"><ele>506.0</ele><time>2026-04-10T13:24:11.95Z</time></trkpt><trkpt lat="44.1025383" lon="8.1109533"><ele>506.0</ele><time>2026-04-10T13:24:12.95Z</time></trkpt><trkpt lat="44.1026533" lon="8.11094"><ele>506.0</ele><time>2026-04-10T13:24:13.95Z</time></trkpt><trkpt lat="44.1027633" lon="8.1109033"><ele>508.5</ele><time>2026-04-10T13:24:14.95Z</time></trkpt><trkpt lat="44.1028933" lon="8.110835"><ele>511.0</ele><time>2026-04-10T13:24:15.95Z</time></trkpt><trkpt lat="44.1030217" lon="8.1107883"><ele>513.5</ele><time>2026-04-10T13:24:16.95Z</time></trkpt><trkpt lat="44.1031467" lon="8.1107633"><ele>516.0</ele><time>2026-04-10T13:24:17.95Z</time></trkpt><trkpt lat="44.103265" lon="8.1107617"><ele>516.0</ele><time>2026-04-10T13:24:18.95Z</time></trkpt><trkpt lat="44.103385" lon="8.110745"><ele>516.0</ele><time>2026-04-10T13:24:19.95Z</time></trkpt><trkpt lat="44.1035017" lon="8.1107383"><ele>516.0</ele><time>2026-04-10T13:24:20.95Z</time></trkpt><trkpt lat="44.1036183" lon="8.11071"><ele>516.0</ele><time>2026-04-10T13:24:21.95Z</time></trkpt><trkpt lat="44.103725" lon="8.1107067"><ele>518.0</ele><time>2026-04-10T13:24:22.95Z</time></trkpt><trkpt lat="44.1038283" lon="8.110715"><ele>520.0</ele><time>2026-04-10T13:24:23.95Z</time></trkpt><trkpt lat="44.1039317" lon="8.11072"><ele>522.0</ele><time>2026-04-10T13:24:24.95Z</time></trkpt><trkpt lat="44.1040183" lon="8.11071"><ele>524.0</ele><time>2026-04-10T13:24:25.95Z</time></trkpt><trkpt lat="44.1040883" lon="8.1106583"><ele>526.0</ele><time>2026-04-10T13:24:26.95Z</time></trkpt><trkpt lat="44.10415" lon="8.11058"><ele>526.6666666666667</ele><time>2026-04-10T13:24:27.95Z</time></trkpt><trkpt lat="44.10421" lon="8.110505"><ele>527.3333333333334</ele><time>2026-04-10T13:24:28.95Z</time></trkpt><trkpt lat="44.104335" lon="8.110455"><ele>528.0</ele><time>2026-04-10T13:24:30.95Z</time></trkpt><trkpt lat="44.104405" lon="8.11046"><ele>528.6666666666666</ele><time>2026-04-10T13:24:31.951Z</time></trkpt><trkpt lat="44.1044683" lon="8.1104283"><ele>529.3333333333333</ele><time>2026-04-10T13:24:32.951Z</time></trkpt><trkpt lat="44.10454" lon="8.1103667"><ele>530.0</ele><time>2026-04-10T13:24:33.95Z</time></trkpt><trkpt lat="44.1046267" lon="8.1103033"><ele>530.0</ele><time>2026-04-10T13:24:34.95Z</time></trkpt><trkpt lat="44.1047167" lon="8.1102517"><ele>530.0</ele><time>2026-04-10T13:24:35.95Z</time></trkpt><trkpt lat="44.1048183" lon="8.11021"><ele>530.0</ele><time>2026-04-10T13:24:36.95Z</time></trkpt><trkpt lat="44.1049233" lon="8.11018"><ele>530.0</ele><time>2026-04-10T13:24:37.95Z</time></trkpt><trkpt lat="44.1050317" lon="8.11016"><ele>530.0</ele><time>2026-04-10T13:24:38.951Z</time></trkpt><trkpt lat="44.105135" lon="8.1101333"><ele>529.0</ele><time>2026-04-10T13:24:39.95Z</time></trkpt><trkpt lat="44.1052317" lon="8.1101233"><ele>528.0</ele><time>2026-04-10T13:24:40.951Z</time></trkpt><trkpt lat="44.1053117" lon="8.1101033"><ele>527.0</ele><time>2026-04-10T13:24:41.95Z</time></trkpt><trkpt lat="44.1053783" lon="8.1100733"><ele>526.0</ele><time>2026-04-10T13:24:42.95Z</time></trkpt><trkpt lat="44.1054433" lon="8.1100117"><ele>525.0</ele><time>2026-04-10T13:24:43.95Z</time></trkpt><trkpt lat="44.1055117" lon="8.1099283"><ele>524.0</ele><time>2026-04-10T13:24:44.951Z</time></trkpt><trkpt lat="44.1055717" lon="8.1098267"><ele>522.2</ele><time>2026-04-10T13:24:45.951Z</time></trkpt><trkpt lat="44.1056383" lon="8.1097233"><ele>520.4</ele><time>2026-04-10T13:24:46.951Z</time></trkpt><trkpt lat="44.1056767" lon="8.10961"><ele>518.6</ele><time>2026-04-10T13:24:47.95Z</time></trkpt><trkpt lat="44.1057033" lon="8.109475"><ele>516.8</ele><time>2026-04-10T13:24:48.95Z</time></trkpt><trkpt lat="44.10572" lon="8.1093283"><ele>515.0</ele><time>2026-04-10T13:24:49.951Z</time></trkpt><trkpt lat="44.1057217" lon="8.1091667"><ele>513.8</ele><time>2026-04-10T13:24:50.95Z</time></trkpt><trkpt lat="44.1057283" lon="8.1089967"><ele>512.6</ele><time>2026-04-10T13:24:51.95Z</time></trkpt><trkpt lat="44.1057467" lon="8.1088433"><ele>511.4</ele><time>2026-04-10T13:24:52.95Z</time></trkpt><trkpt lat="44.1057733" lon="8.10869"><ele>510.2</ele><time>2026-04-10T13:24:53.951Z</time></trkpt><trkpt lat="44.1058083" lon="8.10856"><ele>509.0</ele><time>2026-04-10T13:24:54.95Z</time></trkpt><trkpt lat="44.1058533" lon="8.1084483"><ele>508.99999999999994</ele><time>2026-04-10T13:24:55.951Z</time></trkpt><trkpt lat="44.1059133" lon="8.10837"><ele>509.0</ele><time>2026-04-10T13:24:56.95Z</time></trkpt><trkpt lat="44.1059783" lon="8.1082983"><ele>509.0</ele><time>2026-04-10T13:24:57.95Z</time></trkpt><trkpt lat="44.1060467" lon="8.1082183"><ele>509.0</ele><time>2026-04-10T13:24:58.95Z</time></trkpt><trkpt lat="44.1061117" lon="8.1081217"><ele>508.99999999999994</ele><time>2026-04-10T13:24:59.95Z</time></trkpt><trkpt lat="44.1061633" lon="8.1080117"><ele>509.0</ele><time>2026-04-10T13:25:00.95Z</time></trkpt><trkpt lat="44.1062133" lon="8.1078883"><ele>505.2</ele><time>2026-04-10T13:25:01.95Z</time></trkpt><trkpt lat="44.1062633" lon="8.1077683"><ele>501.4</ele><time>2026-04-10T13:25:02.951Z</time></trkpt><trkpt lat="44.10632" lon="8.1076533"><ele>497.6</ele><time>2026-04-10T13:25:03.95Z</time></trkpt><trkpt lat="44.1063817" lon="8.1075417"><ele>493.8</ele><time>2026-04-10T13:25:04.95Z</time></trkpt><trkpt lat="44.10645" lon="8.1074417"><ele>490.0</ele><time>2026-04-10T13:25:05.95Z</time></trkpt><trkpt lat="44.1065267" lon="8.1073617"><ele>490.0</ele><time>2026-04-10T13:25:06.95Z</time></trkpt><trkpt lat="44.106625" lon="8.1072867"><ele>490.0</ele><time>2026-04-10T13:25:07.951Z</time></trkpt><trkpt lat="44.1067233" lon="8.1072367"><ele>490.0</ele><time>2026-04-10T13:25:08.95Z</time></trkpt><trkpt lat="44.1068183" lon="8.107165"><ele>490.0</ele><time>2026-04-10T13:25:09.95Z</time></trkpt><trkpt lat="44.106915" lon="8.1071017"><ele>490.0</ele><time>2026-04-10T13:25:10.95Z</time></trkpt><trkpt lat="44.106995" lon="8.1070583"><ele>490.00000000000006</ele><time>2026-04-10T13:25:11.95Z</time></trkpt><trkpt lat="44.1070683" lon="8.1070233"><ele>490.0</ele><time>2026-04-10T13:25:12.95Z</time></trkpt><trkpt lat="44.10716" lon="8.107025"><ele>490.0</ele><time>2026-04-10T13:25:14.951Z</time></trkpt><trkpt lat="44.1072317" lon="8.1070567"><ele>490.0</ele><time>2026-04-10T13:25:17.95Z</time></trkpt><trkpt lat="44.1072967" lon="8.1070567"><ele>490.00000000000006</ele><time>2026-04-10T13:25:19.95Z</time></trkpt><trkpt lat="44.1073733" lon="8.1070533"><ele>490.0</ele><time>2026-04-10T13:25:21.951Z</time></trkpt><trkpt lat="44.1074267" lon="8.106995"><ele>491.1666666666667</ele><time>2026-04-10T13:25:23.95Z</time></trkpt><trkpt lat="44.1074683" lon="8.1069217"><ele>492.33333333333337</ele><time>2026-04-10T13:25:25.95Z</time></trkpt><trkpt lat="44.10753" lon="8.10681"><ele>493.5</ele><time>2026-04-10T13:25:27.95Z</time></trkpt><trkpt lat="44.1075617" lon="8.1067317"><ele>494.66666666666663</ele><time>2026-04-10T13:25:28.95Z</time></trkpt><trkpt lat="44.1076" lon="8.106645"><ele>495.8333333333333</ele><time>2026-04-10T13:25:29.951Z</time></trkpt><trkpt lat="44.1076383" lon="8.106545"><ele>497.0</ele><time>2026-04-10T13:25:30.95Z</time></trkpt><trkpt lat="44.107685" lon="8.1064367"><ele>496.99999999999994</ele><time>2026-04-10T13:25:31.951Z</time></trkpt><trkpt lat="44.1077233" lon="8.106335"><ele>497.0</ele><time>2026-04-10T13:25:32.95Z</time></trkpt><trkpt lat="44.1077667" lon="8.1062533"><ele>497.0</ele><time>2026-04-10T13:25:33.951Z</time></trkpt><trkpt lat="44.1078217" lon="8.1061583"><ele>497.0</ele><time>2026-04-10T13:25:34.95Z</time></trkpt><trkpt lat="44.1078733" lon="8.1060783"><ele>496.99999999999994</ele><time>2026-04-10T13:25:35.95Z</time></trkpt><trkpt lat="44.1079283" lon="8.1059967"><ele>497.0</ele><time>2026-04-10T13:25:36.95Z</time></trkpt><trkpt lat="44.1080083" lon="8.10588"><ele>496.99999999999994</ele><time>2026-04-10T13:25:38.95Z</time></trkpt><trkpt lat="44.1081" lon="8.1058167"><ele>497.0</ele><time>2026-04-10T13:25:40.95Z</time></trkpt><trkpt lat="44.1081617" lon="8.10579"><ele>497.0</ele><time>2026-04-10T13:25:41.95Z</time></trkpt><trkpt lat="44.1082233" lon="8.10575"><ele>497.0</ele><time>2026-04-10T13:25:42.95Z</time></trkpt><trkpt lat="44.10829" lon="8.1056983"><ele>496.99999999999994</ele><time>2026-04-10T13:25:43.95Z</time></trkpt><trkpt lat="44.1083533" lon="8.1056233"><ele>497.0</ele><time>2026-04-10T13:25:44.95Z</time></trkpt><trkpt lat="44.108415" lon="8.105545"><ele>499.6</ele><time>2026-04-10T13:25:45.95Z</time></trkpt><trkpt lat="44.10848" lon="8.1054683"><ele>502.20000000000005</ele><time>2026-04-10T13:25:46.951Z</time></trkpt><trkpt lat="44.108535" lon="8.1053667"><ele>504.8</ele><time>2026-04-10T13:25:47.951Z</time></trkpt><trkpt lat="44.1085683" lon="8.1052417"><ele>507.4</ele><time>2026-04-10T13:25:48.95Z</time></trkpt><trkpt lat="44.1085967" lon="8.1051183"><ele>510.0</ele><time>2026-04-10T13:25:49.95Z</time></trkpt><trkpt lat="44.10864" lon="8.10501"><ele>510.0</ele><time>2026-04-10T13:25:50.951Z</time></trkpt><trkpt lat="44.1086917" lon="8.1049183"><ele>510.0</ele><time>2026-04-10T13:25:51.95Z</time></trkpt><trkpt lat="44.1087467" lon="8.1048367"><ele>510.0</ele><time>2026-04-10T13:25:52.95Z</time></trkpt><trkpt lat="44.1088" lon="8.1047483"><ele>510.0</ele><time>2026-04-10T13:25:53.95Z</time></trkpt><trkpt lat="44.1088483" lon="8.1046517"><ele>510.0</ele><time>2026-04-10T13:25:54.95Z</time></trkpt><trkpt lat="44.1088867" lon="8.1045667"><ele>510.0</ele><time>2026-04-10T13:25:55.95Z</time></trkpt><trkpt lat="44.1089317" lon="8.1044967"><ele>510.5</ele><time>2026-04-10T13:25:56.95Z</time></trkpt><trkpt lat="44.1089733" lon="8.10443"><ele>511.0</ele><time>2026-04-10T13:25:57.95Z</time></trkpt><trkpt lat="44.1090183" lon="8.1043633"><ele>511.5</ele><time>2026-04-10T13:25:58.95Z</time></trkpt><trkpt lat="44.10907" lon="8.1042983"><ele>512.0</ele><time>2026-04-10T13:25:59.95Z</time></trkpt><trkpt lat="44.10915" lon="8.1041917"><ele>512.5</ele><time>2026-04-10T13:26:01.95Z</time></trkpt><trkpt lat="44.1092167" lon="8.1041133"><ele>513.0</ele><time>2026-04-10T13:26:03.951Z</time></trkpt><trkpt lat="44.10928" lon="8.1039967"><ele>513.0</ele><time>2026-04-10T13:26:05.95Z</time></trkpt><trkpt lat="44.109365" lon="8.10388"><ele>513.0</ele><time>2026-04-10T13:26:07.95Z</time></trkpt><trkpt lat="44.109415" lon="8.1038183"><ele>513.0</ele><time>2026-04-10T13:26:08.95Z</time></trkpt><trkpt lat="44.1094633" lon="8.1037533"><ele>513.0</ele><time>2026-04-10T13:26:09.95Z</time></trkpt><trkpt lat="44.1095067" lon="8.103675"><ele>513.0</ele><time>2026-04-10T13:26:10.95Z</time></trkpt><trkpt lat="44.109545" lon="8.1035967"><ele>513.0</ele><time>2026-04-10T13:26:11.95Z</time></trkpt><trkpt lat="44.1095867" lon="8.1035133"><ele>513.0000000000001</ele><time>2026-04-10T13:26:12.951Z</time></trkpt><trkpt lat="44.109625" lon="8.1034283"><ele>513.0</ele><time>2026-04-10T13:26:13.95Z</time></trkpt><trkpt lat="44.1096617" lon="8.1033383"><ele>513.0</ele><time>2026-04-10T13:26:14.95Z</time></trkpt><trkpt lat="44.109695" lon="8.1032633"><ele>513.0</ele><time>2026-04-10T13:26:15.95Z</time></trkpt><trkpt lat="44.1097217" lon="8.1031833"><ele>513.0</ele><time>2026-04-10T13:26:17.95Z</time></trkpt><trkpt lat="44.1097983" lon="8.1032183"><ele>513.0000000000001</ele><time>2026-04-10T13:27:12.951Z</time></trkpt><trkpt lat="44.109885" lon="8.1032483"><ele>513.0</ele><time>2026-04-10T13:27:14.951Z</time></trkpt><trkpt lat="44.1100033" lon="8.1031917"><ele>518.1999999999999</ele><time>2026-04-10T13:27:16.95Z</time></trkpt><trkpt lat="44.1101017" lon="8.1031317"><ele>523.4</ele><time>2026-04-10T13:27:18.95Z</time></trkpt><trkpt lat="44.11021" lon="8.1030267"><ele>528.5999999999999</ele><time>2026-04-10T13:27:20.95Z</time></trkpt><trkpt lat="44.11027" lon="8.10297"><ele>533.8</ele><time>2026-04-10T13:27:21.95Z</time></trkpt><trkpt lat="44.1103517" lon="8.102905"><ele>539.0</ele><time>2026-04-10T13:27:22.95Z</time></trkpt><trkpt lat="44.11042" lon="8.10285"><ele>539.0</ele><time>2026-04-10T13:27:23.95Z</time></trkpt><trkpt lat="44.1104967" lon="8.1028017"><ele>539.0</ele><time>2026-04-10T13:27:24.951Z</time></trkpt><trkpt lat="44.1105717" lon="8.1027817"><ele>539.0</ele><time>2026-04-10T13:27:25.95Z</time></trkpt><trkpt lat="44.1106433" lon="8.10277"><ele>539.0</ele><time>2026-04-10T13:27:26.95Z</time></trkpt><trkpt lat="44.1107267" lon="8.1027467"><ele>539.0</ele><time>2026-04-10T13:27:27.951Z</time></trkpt><trkpt lat="44.11081" lon="8.1027283"><ele>539.0</ele><time>2026-04-10T13:27:28.95Z</time></trkpt><trkpt lat="44.1108833" lon="8.10274"><ele>541.2</ele><time>2026-04-10T13:27:29.95Z</time></trkpt><trkpt lat="44.1109583" lon="8.10278"><ele>543.4</ele><time>2026-04-10T13:27:30.95Z</time></trkpt><trkpt lat="44.1110267" lon="8.10284"><ele>545.6</ele><time>2026-04-10T13:27:31.95Z</time></trkpt><trkpt lat="44.11109" lon="8.10293"><ele>547.8</ele><time>2026-04-10T13:27:32.951Z</time></trkpt><trkpt lat="44.11117" lon="8.1030167"><ele>550.0</ele><time>2026-04-10T13:27:33.95Z</time></trkpt><trkpt lat="44.11127" lon="8.103095"><ele>550.0</ele><time>2026-04-10T13:27:34.95Z</time></trkpt><trkpt lat="44.111375" lon="8.1031667"><ele>550.0</ele><time>2026-04-10T13:27:35.95Z</time></trkpt><trkpt lat="44.1114733" lon="8.1032417"><ele>550.0</ele><time>2026-04-10T13:27:36.95Z</time></trkpt><trkpt lat="44.1115533" lon="8.1032967"><ele>550.0</ele><time>2026-04-10T13:27:37.95Z</time></trkpt><trkpt lat="44.1116117" lon="8.1033533"><ele>550.0</ele><time>2026-04-10T13:27:38.95Z</time></trkpt><trkpt lat="44.11167" lon="8.1034133"><ele>547.0</ele><time>2026-04-10T13:27:40.95Z</time></trkpt><trkpt lat="44.1115933" lon="8.1034467"><ele>544.0</ele><time>2026-04-10T13:27:43.95Z</time></trkpt><trkpt lat="44.1115283" lon="8.10343"><ele>541.0</ele><time>2026-04-10T13:27:44.95Z</time></trkpt><trkpt lat="44.1114467" lon="8.1034083"><ele>538.0</ele><time>2026-04-10T13:27:45.95Z</time></trkpt><trkpt lat="44.1113517" lon="8.103395"><ele>535.0</ele><time>2026-04-10T13:27:46.95Z</time></trkpt><trkpt lat="44.1112483" lon="8.10339"><ele>532.0</ele><time>2026-04-10T13:27:47.95Z</time></trkpt><trkpt lat="44.1111467" lon="8.1033717"><ele>531.8333333333334</ele><time>2026-04-10T13:27:48.95Z</time></trkpt><trkpt lat="44.1110533" lon="8.1033517"><ele>531.6666666666667</ele><time>2026-04-10T13:27:49.95Z</time></trkpt><trkpt lat="44.110965" lon="8.1033283"><ele>531.5</ele><time>2026-04-10T13:27:50.95Z</time></trkpt><trkpt lat="44.11089" lon="8.1033133"><ele>531.3333333333334</ele><time>2026-04-10T13:27:51.95Z</time></trkpt><trkpt lat="44.11082" lon="8.103295"><ele>531.1666666666666</ele><time>2026-04-10T13:27:52.95Z</time></trkpt><trkpt lat="44.1107117" lon="8.103295"><ele>531.0</ele><time>2026-04-10T13:27:54.95Z</time></trkpt><trkpt lat="44.1106017" lon="8.1033933"><ele>531.0</ele><time>2026-04-10T13:27:56.95Z</time></trkpt><trkpt lat="44.11054" lon="8.10347"><ele>531.0</ele><time>2026-04-10T13:27:57.951Z</time></trkpt><trkpt lat="44.1104917" lon="8.1035567"><ele>531.0</ele><time>2026-04-10T13:27:58.95Z</time></trkpt><trkpt lat="44.1104617" lon="8.1036533"><ele>531.0</ele><time>2026-04-10T13:27:59.95Z</time></trkpt><trkpt lat="44.1104417" lon="8.103755"><ele>531.0</ele><time>2026-04-10T13:28:00.95Z</time></trkpt><trkpt lat="44.11044" lon="8.1039033"><ele>531.0</ele><time>2026-04-10T13:28:01.95Z</time></trkpt><trkpt lat="44.1104383" lon="8.1040417"><ele>530.8</ele><time>2026-04-10T13:28:02.95Z</time></trkpt><trkpt lat="44.11044" lon="8.1041917"><ele>530.6</ele><time>2026-04-10T13:28:03.951Z</time></trkpt><trkpt lat="44.1104467" lon="8.1043483"><ele>530.4</ele><time>2026-04-10T13:28:04.95Z</time></trkpt><trkpt lat="44.110445" lon="8.104495"><ele>530.2</ele><time>2026-04-10T13:28:05.951Z</time></trkpt><trkpt lat="44.1104333" lon="8.10464"><ele>530.0</ele><time>2026-04-10T13:28:06.951Z</time></trkpt><trkpt lat="44.11043" lon="8.10478"><ele>530.0</ele><time>2026-04-10T13:28:07.951Z</time></trkpt><trkpt lat="44.1104283" lon="8.1049017"><ele>530.0</ele><time>2026-04-10T13:28:08.951Z</time></trkpt><trkpt lat="44.11043" lon="8.1050017"><ele>530.0</ele><time>2026-04-10T13:28:09.951Z</time></trkpt><trkpt lat="44.1104333" lon="8.1051383"><ele>530.0</ele><time>2026-04-10T13:28:11.95Z</time></trkpt><trkpt lat="44.1105" lon="8.1050667"><ele>530.0</ele><time>2026-04-10T13:28:15.95Z</time></trkpt><trkpt lat="44.1105317" lon="8.1049583"><ele>530.0</ele><time>2026-04-10T13:28:16.95Z</time></trkpt><trkpt lat="44.110565" lon="8.10484"><ele>530.0</ele><time>2026-04-10T13:28:17.95Z</time></trkpt><trkpt lat="44.1106083" lon="8.1047217"><ele>530.0</ele><time>2026-04-10T13:28:18.95Z</time></trkpt><trkpt lat="44.1106467" lon="8.1046183"><ele>530.0</ele><time>2026-04-10T13:28:19.95Z</time></trkpt><trkpt lat="44.110695" lon="8.1045267"><ele>530.0</ele><time>2026-04-10T13:28:20.95Z</time></trkpt><trkpt lat="44.11076" lon="8.1044567"><ele>530.0</ele><time>2026-04-10T13:28:21.951Z</time></trkpt><trkpt lat="44.11083" lon="8.1044367"><ele>530.0</ele><time>2026-04-10T13:28:22.95Z</time></trkpt><trkpt lat="44.1109517" lon="8.104475"><ele>526.1666666666666</ele><time>2026-04-10T13:28:24.95Z</time></trkpt><trkpt lat="44.11104" lon="8.10452"><ele>522.3333333333333</ele><time>2026-04-10T13:28:25.95Z</time></trkpt><trkpt lat="44.1111267" lon="8.104585"><ele>518.5</ele><time>2026-04-10T13:28:26.95Z</time></trkpt><trkpt lat="44.1112083" lon="8.10465"><ele>514.6666666666666</ele><time>2026-04-10T13:28:27.95Z</time></trkpt><trkpt lat="44.1112833" lon="8.104715"><ele>510.8333333333333</ele><time>2026-04-10T13:28:28.95Z</time></trkpt><trkpt lat="44.1113433" lon="8.1047767"><ele>507.0</ele><time>2026-04-10T13:28:29.95Z</time></trkpt><trkpt lat="44.1113917" lon="8.1048533"><ele>504.5</ele><time>2026-04-10T13:28:30.95Z</time></trkpt><trkpt lat="44.111435" lon="8.1049483"><ele>502.0</ele><time>2026-04-10T13:28:31.95Z</time></trkpt><trkpt lat="44.1114783" lon="8.1050233"><ele>499.5</ele><time>2026-04-10T13:28:32.951Z</time></trkpt><trkpt lat="44.1115183" lon="8.1051067"><ele>497.0</ele><time>2026-04-10T13:28:33.951Z</time></trkpt><trkpt lat="44.1115617" lon="8.1051967"><ele>494.5</ele><time>2026-04-10T13:28:34.95Z</time></trkpt><trkpt lat="44.1116083" lon="8.105265"><ele>492.0</ele><time>2026-04-10T13:28:35.95Z</time></trkpt><trkpt lat="44.111675" lon="8.105335"><ele>492.0</ele><time>2026-04-10T13:28:37.95Z</time></trkpt><trkpt lat="44.1116017" lon="8.10541"><ele>492.0</ele><time>2026-04-10T13:28:41.95Z</time></trkpt><trkpt lat="44.1115367" lon="8.1053883"><ele>492.0</ele><time>2026-04-10T13:28:42.95Z</time></trkpt><trkpt lat="44.1114733" lon="8.1053483"><ele>492.0</ele><time>2026-04-10T13:28:43.951Z</time></trkpt><trkpt lat="44.1114067" lon="8.1053017"><ele>492.0</ele><time>2026-04-10T13:28:44.95Z</time></trkpt><trkpt lat="44.1113417" lon="8.1052717"><ele>492.0</ele><time>2026-04-10T13:28:45.95Z</time></trkpt><trkpt lat="44.1112333" lon="8.1052983"><ele>492.0</ele><time>2026-04-10T13:28:47.95Z</time></trkpt><trkpt lat="44.1111767" lon="8.1054433"><ele>492.0</ele><time>2026-04-10T13:28:49.95Z</time></trkpt><trkpt lat="44.11117" lon="8.1055567"><ele>492.0</ele><time>2026-04-10T13:28:50.95Z</time></trkpt><trkpt lat="44.1111583" lon="8.1056633"><ele>492.0</ele><time>2026-04-10T13:28:51.95Z</time></trkpt><trkpt lat="44.1111583" lon="8.1057683"><ele>492.0</ele><time>2026-04-10T13:28:52.951Z</time></trkpt><trkpt lat="44.111155" lon="8.1058783"><ele>492.0</ele><time>2026-04-10T13:28:53.95Z</time></trkpt><trkpt lat="44.1111533" lon="8.105975"><ele>490.28571428571433</ele><time>2026-04-10T13:28:54.95Z</time></trkpt><trkpt lat="44.111135" lon="8.106065"><ele>488.57142857142856</ele><time>2026-04-10T13:28:55.95Z</time></trkpt><trkpt lat="44.1111017" lon="8.10616"><ele>486.8571428571429</ele><time>2026-04-10T13:28:56.95Z</time></trkpt><trkpt lat="44.1110733" lon="8.10625"><ele>485.14285714285717</ele><time>2026-04-10T13:28:57.95Z</time></trkpt><trkpt lat="44.11105" lon="8.106345"><ele>483.42857142857144</ele><time>2026-04-10T13:28:58.95Z</time></trkpt><trkpt lat="44.1110333" lon="8.1064433"><ele>481.7142857142857</ele><time>2026-04-10T13:28:59.95Z</time></trkpt><trkpt lat="44.1110217" lon="8.1065367"><ele>480.0</ele><time>2026-04-10T13:29:00.95Z</time></trkpt><trkpt lat="44.1109983" lon="8.1066183"><ele>479.42857142857144</ele><time>2026-04-10T13:29:01.95Z</time></trkpt><trkpt lat="44.1109683" lon="8.106705"><ele>478.85714285714283</ele><time>2026-04-10T13:29:02.95Z</time></trkpt><trkpt lat="44.1109333" lon="8.1067833"><ele>478.2857142857143</ele><time>2026-04-10T13:29:03.95Z</time></trkpt><trkpt lat="44.1108867" lon="8.10687"><ele>477.7142857142857</ele><time>2026-04-10T13:29:04.95Z</time></trkpt><trkpt lat="44.1108417" lon="8.1069567"><ele>477.1428571428571</ele><time>2026-04-10T13:29:05.95Z</time></trkpt><trkpt lat="44.1107917" lon="8.1070283"><ele>476.57142857142856</ele><time>2026-04-10T13:29:06.95Z</time></trkpt><trkpt lat="44.11074" lon="8.107105"><ele>476.0</ele><time>2026-04-10T13:29:07.95Z</time></trkpt><trkpt lat="44.110695" lon="8.107185"><ele>475.99999999999994</ele><time>2026-04-10T13:29:08.95Z</time></trkpt><trkpt lat="44.1106483" lon="8.1072517"><ele>476.0</ele><time>2026-04-10T13:29:09.95Z</time></trkpt><trkpt lat="44.11059" lon="8.107335"><ele>476.0</ele><time>2026-04-10T13:29:10.95Z</time></trkpt><trkpt lat="44.1105417" lon="8.1074017"><ele>476.0</ele><time>2026-04-10T13:29:11.95Z</time></trkpt><trkpt lat="44.11049" lon="8.107465"><ele>475.99999999999994</ele><time>2026-04-10T13:29:12.951Z</time></trkpt><trkpt lat="44.11041" lon="8.1075333"><ele>476.0</ele><time>2026-04-10T13:29:13.95Z</time></trkpt><trkpt lat="44.110335" lon="8.107595"><ele>470.6</ele><time>2026-04-10T13:29:14.95Z</time></trkpt><trkpt lat="44.1102617" lon="8.1076417"><ele>465.20000000000005</ele><time>2026-04-10T13:29:15.951Z</time></trkpt><trkpt lat="44.1101983" lon="8.1076967"><ele>459.79999999999995</ele><time>2026-04-10T13:29:16.95Z</time></trkpt><trkpt lat="44.1101233" lon="8.107755"><ele>454.4</ele><time>2026-04-10T13:29:18.95Z</time></trkpt><trkpt lat="44.1102167" lon="8.107825"><ele>449.0</ele><time>2026-04-10T13:29:46.951Z</time></trkpt><trkpt lat="44.1103417" lon="8.1078733"><ele>449.0</ele><time>2026-04-10T13:29:48.951Z</time></trkpt><trkpt lat="44.1104067" lon="8.1078833"><ele>448.99999999999994</ele><time>2026-04-10T13:29:49.95Z</time></trkpt><trkpt lat="44.110475" lon="8.10788"><ele>449.0</ele><time>2026-04-10T13:29:50.95Z</time></trkpt><trkpt lat="44.1105533" lon="8.1078533"><ele>449.0</ele><time>2026-04-10T13:29:51.95Z</time></trkpt><trkpt lat="44.1106283" lon="8.1078217"><ele>448.99999999999994</ele><time>2026-04-10T13:29:52.95Z</time></trkpt><trkpt lat="44.1107" lon="8.1077867"><ele>449.0</ele><time>2026-04-10T13:29:53.95Z</time></trkpt><trkpt lat="44.110765" lon="8.10776"><ele>449.0</ele><time>2026-04-10T13:29:54.95Z</time></trkpt><trkpt lat="44.110875" lon="8.1077067"><ele>449.99999999999994</ele><time>2026-04-10T13:29:56.95Z</time></trkpt><trkpt lat="44.1109417" lon="8.10765"><ele>451.0</ele><time>2026-04-10T13:29:57.951Z</time></trkpt><trkpt lat="44.111015" lon="8.107585"><ele>452.0</ele><time>2026-04-10T13:29:58.951Z</time></trkpt><trkpt lat="44.1110867" lon="8.1075217"><ele>453.0</ele><time>2026-04-10T13:29:59.95Z</time></trkpt><trkpt lat="44.11116" lon="8.107455"><ele>453.99999999999994</ele><time>2026-04-10T13:30:00.951Z</time></trkpt><trkpt lat="44.111215" lon="8.1073933"><ele>455.0</ele><time>2026-04-10T13:30:01.95Z</time></trkpt><trkpt lat="44.1112783" lon="8.107345"><ele>454.99999999999994</ele><time>2026-04-10T13:30:02.95Z</time></trkpt><trkpt lat="44.1113533" lon="8.1073133"><ele>455.0</ele><time>2026-04-10T13:30:03.95Z</time></trkpt><trkpt lat="44.1114383" lon="8.1073117"><ele>455.0</ele><time>2026-04-10T13:30:05.95Z</time></trkpt><trkpt lat="44.1114933" lon="8.107375"><ele>455.0</ele><time>2026-04-10T13:30:09.95Z</time></trkpt><trkpt lat="44.1116283" lon="8.1073483"><ele>454.99999999999994</ele><time>2026-04-10T13:34:57.95Z</time></trkpt><trkpt lat="44.11168" lon="8.10728"><ele>455.0</ele><time>2026-04-10T13:35:00.95Z</time></trkpt><trkpt lat="44.1117633" lon="8.107135"><ele>450.66666666666663</ele><time>2026-04-10T13:35:02.95Z</time></trkpt><trkpt lat="44.111815" lon="8.10705"><ele>446.3333333333333</ele><time>2026-04-10T13:35:03.95Z</time></trkpt><trkpt lat="44.1118683" lon="8.106965"><ele>442.0</ele><time>2026-04-10T13:35:04.95Z</time></trkpt><trkpt lat="44.11193" lon="8.1068783"><ele>437.66666666666663</ele><time>2026-04-10T13:35:05.951Z</time></trkpt><trkpt lat="44.1119917" lon="8.1067867"><ele>433.3333333333333</ele><time>2026-04-10T13:35:06.95Z</time></trkpt><trkpt lat="44.1120517" lon="8.1066867"><ele>429.0</ele><time>2026-04-10T13:35:07.95Z</time></trkpt><trkpt lat="44.1121117" lon="8.10658"><ele>427.8333333333333</ele><time>2026-04-10T13:35:08.95Z</time></trkpt><trkpt lat="44.11217" lon="8.10649"><ele>426.66666666666663</ele><time>2026-04-10T13:35:09.95Z</time></trkpt><trkpt lat="44.112225" lon="8.106405"><ele>425.5</ele><time>2026-04-10T13:35:10.95Z</time></trkpt><trkpt lat="44.1122867" lon="8.106325"><ele>424.3333333333333</ele><time>2026-04-10T13:35:11.95Z</time></trkpt><trkpt lat="44.1123517" lon="8.1062467"><ele>423.16666666666663</ele><time>2026-04-10T13:35:12.95Z</time></trkpt><trkpt lat="44.1124233" lon="8.1061683"><ele>422.0</ele><time>2026-04-10T13:35:13.95Z</time></trkpt><trkpt lat="44.1124917" lon="8.106095"><ele>421.99999999999994</ele><time>2026-04-10T13:35:14.95Z</time></trkpt><trkpt lat="44.1125783" lon="8.1060233"><ele>422.0</ele><time>2026-04-10T13:35:15.95Z</time></trkpt><trkpt lat="44.11266" lon="8.1059783"><ele>422.0</ele><time>2026-04-10T13:35:16.95Z</time></trkpt><trkpt lat="44.11273" lon="8.1059483"><ele>422.0</ele><time>2026-04-10T13:35:17.95Z</time></trkpt><trkpt lat="44.1127967" lon="8.1059117"><ele>421.99999999999994</ele><time>2026-04-10T13:35:18.95Z</time></trkpt><trkpt lat="44.1128583" lon="8.1058583"><ele>422.0</ele><time>2026-04-10T13:35:19.95Z</time></trkpt><trkpt lat="44.1129233" lon="8.1057917"><ele>418.3333333333333</ele><time>2026-04-10T13:35:20.95Z</time></trkpt><trkpt lat="44.1130083" lon="8.1057033"><ele>414.66666666666663</ele><time>2026-04-10T13:35:21.949Z</time></trkpt><trkpt lat="44.1130833" lon="8.1056333"><ele>411.0</ele><time>2026-04-10T13:35:22.95Z</time></trkpt><trkpt lat="44.1131633" lon="8.1055683"><ele>407.33333333333337</ele><time>2026-04-10T13:35:23.951Z</time></trkpt><trkpt lat="44.1132333" lon="8.1055117"><ele>403.6666666666667</ele><time>2026-04-10T13:35:24.95Z</time></trkpt><trkpt lat="44.1132883" lon="8.10545"><ele>400.0</ele><time>2026-04-10T13:35:25.95Z</time></trkpt><trkpt lat="44.11333" lon="8.1053717"><ele>400.00000000000006</ele><time>2026-04-10T13:35:26.95Z</time></trkpt><trkpt lat="44.11337" lon="8.105275"><ele>400.0</ele><time>2026-04-10T13:35:27.951Z</time></trkpt><trkpt lat="44.1134067" lon="8.1051683"><ele>400.0</ele><time>2026-04-10T13:35:28.95Z</time></trkpt><trkpt lat="44.1134383" lon="8.10506"><ele>400.0</ele><time>2026-04-10T13:35:29.951Z</time></trkpt><trkpt lat="44.1134533" lon="8.1049517"><ele>400.00000000000006</ele><time>2026-04-10T13:35:30.95Z</time></trkpt><trkpt lat="44.113465" lon="8.10484"><ele>400.0</ele><time>2026-04-10T13:35:31.951Z</time></trkpt><trkpt lat="44.1134583" lon="8.104715"><ele>403.0</ele><time>2026-04-10T13:35:32.951Z</time></trkpt><trkpt lat="44.11346" lon="8.10457"><ele>406.0</ele><time>2026-04-10T13:35:33.95Z</time></trkpt><trkpt lat="44.1134783" lon="8.10443"><ele>409.0</ele><time>2026-04-10T13:35:34.95Z</time></trkpt><trkpt lat="44.113505" lon="8.1043033"><ele>412.0</ele><time>2026-04-10T13:35:35.95Z</time></trkpt><trkpt lat="44.11353" lon="8.104195"><ele>415.0</ele><time>2026-04-10T13:35:36.95Z</time></trkpt><trkpt lat="44.11358" lon="8.1040983"><ele>416.00000000000006</ele><time>2026-04-10T13:35:37.95Z</time></trkpt><trkpt lat="44.1136383" lon="8.1040167"><ele>417.0</ele><time>2026-04-10T13:35:38.95Z</time></trkpt><trkpt lat="44.1136967" lon="8.1039433"><ele>418.0</ele><time>2026-04-10T13:35:39.95Z</time></trkpt><trkpt lat="44.11375" lon="8.103875"><ele>419.0</ele><time>2026-04-10T13:35:40.95Z</time></trkpt><trkpt lat="44.1138067" lon="8.103805"><ele>420.00000000000006</ele><time>2026-04-10T13:35:41.95Z</time></trkpt><trkpt lat="44.1138717" lon="8.1036967"><ele>421.0</ele><time>2026-04-10T13:35:43.95Z</time></trkpt><trkpt lat="44.1138717" lon="8.10355"><ele>421.00000000000006</ele><time>2026-04-10T13:35:45.95Z</time></trkpt><trkpt lat="44.1138383" lon="8.1033733"><ele>421.0</ele><time>2026-04-10T13:35:47.95Z</time></trkpt><trkpt lat="44.1138117" lon="8.1032583"><ele>421.0</ele><time>2026-04-10T13:35:48.95Z</time></trkpt><trkpt lat="44.113785" lon="8.1031333"><ele>421.0</ele><time>2026-04-10T13:35:49.95Z</time></trkpt><trkpt lat="44.1137683" lon="8.1030417"><ele>421.00000000000006</ele><time>2026-04-10T13:35:50.95Z</time></trkpt><trkpt lat="44.11376" lon="8.102945"><ele>421.0</ele><time>2026-04-10T13:35:51.95Z</time></trkpt><trkpt lat="44.1137783" lon="8.102845"><ele>421.00000000000006</ele><time>2026-04-10T13:35:52.95Z</time></trkpt><trkpt lat="44.113805" lon="8.102745"><ele>421.0</ele><time>2026-04-10T13:35:53.95Z</time></trkpt><trkpt lat="44.11383" lon="8.102645"><ele>421.0</ele><time>2026-04-10T13:35:54.95Z</time></trkpt><trkpt lat="44.11384" lon="8.1025483"><ele>421.0</ele><time>2026-04-10T13:35:55.95Z</time></trkpt><trkpt lat="44.11384" lon="8.1024383"><ele>421.00000000000006</ele><time>2026-04-10T13:35:56.95Z</time></trkpt><trkpt lat="44.1138267" lon="8.102325"><ele>421.0</ele><time>2026-04-10T13:35:57.95Z</time></trkpt><trkpt lat="44.113815" lon="8.1022133"><ele>421.00000000000006</ele><time>2026-04-10T13:35:58.95Z</time></trkpt><trkpt lat="44.11382" lon="8.1021"><ele>421.0</ele><time>2026-04-10T13:35:59.95Z</time></trkpt><trkpt lat="44.113835" lon="8.10199"><ele>421.0</ele><time>2026-04-10T13:36:00.95Z</time></trkpt><trkpt lat="44.1138533" lon="8.101895"><ele>421.0</ele><time>2026-04-10T13:36:01.95Z</time></trkpt><trkpt lat="44.1138883" lon="8.1018217"><ele>421.0</ele><time>2026-04-10T13:36:02.95Z</time></trkpt><trkpt lat="44.1139467" lon="8.1017533"><ele>421.00000000000006</ele><time>2026-04-10T13:36:03.95Z</time></trkpt><trkpt lat="44.1140067" lon="8.101685"><ele>421.0</ele><time>2026-04-10T13:36:04.95Z</time></trkpt><trkpt lat="44.1140883" lon="8.1016133"><ele>414.1666666666667</ele><time>2026-04-10T13:36:05.951Z</time></trkpt><trkpt lat="44.1141633" lon="8.1015467"><ele>407.33333333333337</ele><time>2026-04-10T13:36:06.95Z</time></trkpt><trkpt lat="44.1142683" lon="8.1014617"><ele>400.5</ele><time>2026-04-10T13:36:08.95Z</time></trkpt><trkpt lat="44.11433" lon="8.10142"><ele>393.6666666666667</ele><time>2026-04-10T13:37:01.951Z</time></trkpt><trkpt lat="44.1143533" lon="8.1013117"><ele>386.83333333333337</ele><time>2026-04-10T13:37:03.95Z</time></trkpt><trkpt lat="44.1143583" lon="8.101215"><ele>380.0</ele><time>2026-04-10T13:37:04.95Z</time></trkpt><trkpt lat="44.1143783" lon="8.10111"><ele>380.0</ele><time>2026-04-10T13:37:05.95Z</time></trkpt><trkpt lat="44.1144033" lon="8.101025"><ele>380.0</ele><time>2026-04-10T13:37:06.95Z</time></trkpt><trkpt lat="44.11447" lon="8.1009917"><ele>380.0</ele><time>2026-04-10T13:37:08.95Z</time></trkpt><trkpt lat="44.1145083" lon="8.1011033"><ele>380.0</ele><time>2026-04-10T13:37:11.95Z</time></trkpt><trkpt lat="44.1145417" lon="8.1012583"><ele>380.0</ele><time>2026-04-10T13:37:13.95Z</time></trkpt><trkpt lat="44.1145583" lon="8.1013517"><ele>380.0</ele><time>2026-04-10T13:37:14.951Z</time></trkpt><trkpt lat="44.114595" lon="8.1015067"><ele>377.0</ele><time>2026-04-10T13:37:16.95Z</time></trkpt><trkpt lat="44.1147083" lon="8.1015867"><ele>374.0</ele><time>2026-04-10T13:37:18.95Z</time></trkpt><trkpt lat="44.1147867" lon="8.101615"><ele>371.0</ele><time>2026-04-10T13:37:19.95Z</time></trkpt><trkpt lat="44.1148833" lon="8.10164"><ele>368.0</ele><time>2026-04-10T13:37:20.95Z</time></trkpt><trkpt lat="44.114995" lon="8.1016567"><ele>365.0</ele><time>2026-04-10T13:37:21.95Z</time></trkpt><trkpt lat="44.1151033" lon="8.1016883"><ele>362.8</ele><time>2026-04-10T13:37:22.951Z</time></trkpt><trkpt lat="44.1152" lon="8.10172"><ele>360.6</ele><time>2026-04-10T13:37:23.951Z</time></trkpt><trkpt lat="44.1152817" lon="8.10176"><ele>358.4</ele><time>2026-04-10T13:37:24.95Z</time></trkpt><trkpt lat="44.1153583" lon="8.1018017"><ele>356.2</ele><time>2026-04-10T13:37:25.95Z</time></trkpt><trkpt lat="44.11545" lon="8.1018567"><ele>354.0</ele><time>2026-04-10T13:37:26.95Z</time></trkpt><trkpt lat="44.11555" lon="8.1019267"><ele>354.0</ele><time>2026-04-10T13:37:27.95Z</time></trkpt><trkpt lat="44.1156517" lon="8.1019883"><ele>354.0</ele><time>2026-04-10T13:37:28.951Z</time></trkpt><trkpt lat="44.1157583" lon="8.102055"><ele>354.0</ele><time>2026-04-10T13:37:29.95Z</time></trkpt><trkpt lat="44.1158417" lon="8.102115"><ele>354.0</ele><time>2026-04-10T13:37:30.95Z</time></trkpt><trkpt lat="44.1159033" lon="8.1021633"><ele>354.0</ele><time>2026-04-10T13:37:31.95Z</time></trkpt><trkpt lat="44.116025" lon="8.102215"><ele>350.4</ele><time>2026-04-10T13:37:33.95Z</time></trkpt><trkpt lat="44.1160933" lon="8.1022267"><ele>346.79999999999995</ele><time>2026-04-10T13:37:34.95Z</time></trkpt><trkpt lat="44.1161583" lon="8.1022567"><ele>343.20000000000005</ele><time>2026-04-10T13:37:35.95Z</time></trkpt><trkpt lat="44.1162567" lon="8.102365"><ele>339.6</ele><time>2026-04-10T13:37:37.95Z</time></trkpt><trkpt lat="44.1163283" lon="8.1025167"><ele>336.0</ele><time>2026-04-10T13:37:39.95Z</time></trkpt><trkpt lat="44.1163367" lon="8.1026233"><ele>336.0</ele><time>2026-04-10T13:37:40.95Z</time></trkpt><trkpt lat="44.116345" lon="8.1027417"><ele>336.0</ele><time>2026-04-10T13:37:41.951Z</time></trkpt><trkpt lat="44.1163667" lon="8.10285"><ele>336.0</ele><time>2026-04-10T13:37:42.95Z</time></trkpt><trkpt lat="44.116375" lon="8.1029433"><ele>336.0</ele><time>2026-04-10T13:37:43.95Z</time></trkpt><trkpt lat="44.1163583" lon="8.1031267"><ele>336.0</ele><time>2026-04-10T13:37:45.95Z</time></trkpt><trkpt lat="44.1163483" lon="8.103225"><ele>336.0</ele><time>2026-04-10T13:37:46.95Z</time></trkpt><trkpt lat="44.1163467" lon="8.1033333"><ele>332.1666666666667</ele><time>2026-04-10T13:37:47.95Z</time></trkpt><trkpt lat="44.1163583" lon="8.103445"><ele>328.3333333333333</ele><time>2026-04-10T13:37:48.95Z</time></trkpt><trkpt lat="44.1163767" lon="8.1035667"><ele>324.5</ele><time>2026-04-10T13:37:49.95Z</time></trkpt><trkpt lat="44.1163983" lon="8.1036867"><ele>320.66666666666663</ele><time>2026-04-10T13:37:50.95Z</time></trkpt><trkpt lat="44.116415" lon="8.1038"><ele>316.8333333333333</ele><time>2026-04-10T13:37:51.95Z</time></trkpt><trkpt lat="44.11645" lon="8.1039133"><ele>313.0</ele><time>2026-04-10T13:37:52.95Z</time></trkpt><trkpt lat="44.1164817" lon="8.10404"><ele>310.0</ele><time>2026-04-10T13:37:53.95Z</time></trkpt><trkpt lat="44.116515" lon="8.104135"><ele>307.0</ele><time>2026-04-10T13:37:54.95Z</time></trkpt><trkpt lat="44.1165617" lon="8.1042167"><ele>304.0</ele><time>2026-04-10T13:37:55.95Z</time></trkpt><trkpt lat="44.1166183" lon="8.1042933"><ele>301.0</ele><time>2026-04-10T13:37:56.95Z</time></trkpt><trkpt lat="44.1166883" lon="8.1043783"><ele>298.0</ele><time>2026-04-10T13:37:57.951Z</time></trkpt><trkpt lat="44.11676" lon="8.1044383"><ele>295.0</ele><time>2026-04-10T13:37:58.95Z</time></trkpt><trkpt lat="44.116845" lon="8.1044833"><ele>301.0</ele><time>2026-04-10T13:37:59.95Z</time></trkpt><trkpt lat="44.1169283" lon="8.1045417"><ele>307.0</ele><time>2026-04-10T13:38:00.95Z</time></trkpt><trkpt lat="44.1170183" lon="8.1046133"><ele>313.0</ele><time>2026-04-10T13:38:01.95Z</time></trkpt><trkpt lat="44.1171033" lon="8.1046667"><ele>319.0</ele><time>2026-04-10T13:38:02.95Z</time></trkpt><trkpt lat="44.1171733" lon="8.10469"><ele>325.0</ele><time>2026-04-10T13:38:03.95Z</time></trkpt><trkpt lat="44.11724" lon="8.10469"><ele>331.0</ele><time>2026-04-10T13:38:04.95Z</time></trkpt><trkpt lat="44.1173083" lon="8.1046767"><ele>331.0</ele><time>2026-04-10T13:38:05.95Z</time></trkpt><trkpt lat="44.11739" lon="8.1046433"><ele>331.0</ele><time>2026-04-10T13:38:06.951Z</time></trkpt><trkpt lat="44.1174933" lon="8.1045833"><ele>331.0</ele><time>2026-04-10T13:38:07.95Z</time></trkpt><trkpt lat="44.117595" lon="8.1045167"><ele>331.0</ele><time>2026-04-10T13:38:08.95Z</time></trkpt><trkpt lat="44.1176733" lon="8.1044567"><ele>331.0</ele><time>2026-04-10T13:38:09.95Z</time></trkpt><trkpt lat="44.1177483" lon="8.1044033"><ele>332.8</ele><time>2026-04-10T13:38:11.95Z</time></trkpt><trkpt lat="44.1178533" lon="8.1043217"><ele>334.6</ele><time>2026-04-10T13:38:41.95Z</time></trkpt><trkpt lat="44.117935" lon="8.1042617"><ele>336.4</ele><time>2026-04-10T13:38:42.95Z</time></trkpt><trkpt lat="44.1180217" lon="8.104195"><ele>338.2</ele><time>2026-04-10T13:38:43.95Z</time></trkpt><trkpt lat="44.11811" lon="8.1041267"><ele>340.0</ele><time>2026-04-10T13:38:44.95Z</time></trkpt><trkpt lat="44.1182033" lon="8.1040417"><ele>341.8</ele><time>2026-04-10T13:38:45.95Z</time></trkpt><trkpt lat="44.118295" lon="8.103955"><ele>343.6</ele><time>2026-04-10T13:38:46.95Z</time></trkpt><trkpt lat="44.1183733" lon="8.10386"><ele>345.4</ele><time>2026-04-10T13:38:47.95Z</time></trkpt><trkpt lat="44.1184367" lon="8.1037717"><ele>347.2</ele><time>2026-04-10T13:38:48.95Z</time></trkpt><trkpt lat="44.1184967" lon="8.1036867"><ele>349.0</ele><time>2026-04-10T13:38:49.95Z</time></trkpt><trkpt lat="44.1185533" lon="8.1036067"><ele>348.99999999999994</ele><time>2026-04-10T13:38:50.951Z</time></trkpt><trkpt lat="44.11862" lon="8.1035417"><ele>349.0</ele><time>2026-04-10T13:38:51.951Z</time></trkpt><trkpt lat="44.1186817" lon="8.1034917"><ele>349.0</ele><time>2026-04-10T13:38:52.95Z</time></trkpt><trkpt lat="44.118745" lon="8.1034483"><ele>349.0</ele><time>2026-04-10T13:38:53.95Z</time></trkpt><trkpt lat="44.1188167" lon="8.1034267"><ele>349.0</ele><time>2026-04-10T13:38:54.951Z</time></trkpt><trkpt lat="44.1188867" lon="8.1034167"><ele>348.99999999999994</ele><time>2026-04-10T13:38:55.95Z</time></trkpt><trkpt lat="44.1189533" lon="8.10341"><ele>349.0</ele><time>2026-04-10T13:38:56.95Z</time></trkpt><trkpt lat="44.1190333" lon="8.1034233"><ele>347.16666666666663</ele><time>2026-04-10T13:38:57.95Z</time></trkpt><trkpt lat="44.1191017" lon="8.10344"><ele>345.3333333333333</ele><time>2026-04-10T13:38:58.95Z</time></trkpt><trkpt lat="44.1192067" lon="8.103525"><ele>343.5</ele><time>2026-04-10T13:39:00.95Z</time></trkpt><trkpt lat="44.119175" lon="8.1036817"><ele>341.6666666666667</ele><time>2026-04-10T13:39:02.95Z</time></trkpt><trkpt lat="44.1191533" lon="8.10377"><ele>339.83333333333337</ele><time>2026-04-10T13:39:03.95Z</time></trkpt><trkpt lat="44.1191167" lon="8.103855"><ele>338.0</ele><time>2026-04-10T13:39:04.951Z</time></trkpt><trkpt lat="44.1190767" lon="8.1039433"><ele>340.2</ele><time>2026-04-10T13:39:05.95Z</time></trkpt><trkpt lat="44.11904" lon="8.1040317"><ele>342.4</ele><time>2026-04-10T13:39:06.95Z</time></trkpt><trkpt lat="44.1189833" lon="8.1041783"><ele>344.59999999999997</ele><time>2026-04-10T13:39:08.951Z</time></trkpt><trkpt lat="44.1189517" lon="8.1043383"><ele>346.79999999999995</ele><time>2026-04-10T13:39:10.95Z</time></trkpt><trkpt lat="44.11894" lon="8.10445"><ele>349.0</ele><time>2026-04-10T13:39:11.95Z</time></trkpt><trkpt lat="44.1189283" lon="8.1045733"><ele>344.66666666666663</ele><time>2026-04-10T13:39:12.95Z</time></trkpt><trkpt lat="44.1189233" lon="8.1046967"><ele>340.3333333333333</ele><time>2026-04-10T13:39:13.95Z</time></trkpt><trkpt lat="44.1189233" lon="8.1048133"><ele>336.0</ele><time>2026-04-10T13:39:14.95Z</time></trkpt><trkpt lat="44.1189267" lon="8.10493"><ele>331.6666666666667</ele><time>2026-04-10T13:39:15.95Z</time></trkpt><trkpt lat="44.1189283" lon="8.1050483"><ele>327.33333333333337</ele><time>2026-04-10T13:39:16.95Z</time></trkpt><trkpt lat="44.118925" lon="8.1051783"><ele>323.0</ele><time>2026-04-10T13:39:17.95Z</time></trkpt><trkpt lat="44.11892" lon="8.1053033"><ele>318.5</ele><time>2026-04-10T13:39:18.95Z</time></trkpt><trkpt lat="44.1189117" lon="8.1054167"><ele>314.0</ele><time>2026-04-10T13:39:19.95Z</time></trkpt><trkpt lat="44.1189017" lon="8.1055217"><ele>309.5</ele><time>2026-04-10T13:39:20.95Z</time></trkpt><trkpt lat="44.118885" lon="8.105625"><ele>305.0</ele><time>2026-04-10T13:39:21.95Z</time></trkpt><trkpt lat="44.1188517" lon="8.1057133"><ele>300.5</ele><time>2026-04-10T13:39:22.951Z</time></trkpt><trkpt lat="44.118815" lon="8.1057933"><ele>296.0</ele><time>2026-04-10T13:39:23.95Z</time></trkpt><trkpt lat="44.1187733" lon="8.105885"><ele>294.0</ele><time>2026-04-10T13:39:24.95Z</time></trkpt><trkpt lat="44.1187267" lon="8.10598"><ele>292.0</ele><time>2026-04-10T13:39:25.95Z</time></trkpt><trkpt lat="44.1186733" lon="8.10607"><ele>290.0</ele><time>2026-04-10T13:39:26.95Z</time></trkpt><trkpt lat="44.1186217" lon="8.106155"><ele>288.0</ele><time>2026-04-10T13:39:27.95Z</time></trkpt><trkpt lat="44.1185633" lon="8.106245"><ele>286.0</ele><time>2026-04-10T13:39:28.95Z</time></trkpt><trkpt lat="44.1185117" lon="8.1063383"><ele>284.0</ele><time>2026-04-10T13:39:29.95Z</time></trkpt><trkpt lat="44.1184683" lon="8.1064333"><ele>284.0</ele><time>2026-04-10T13:39:30.95Z</time></trkpt><trkpt lat="44.118445" lon="8.1065533"><ele>284.0</ele><time>2026-04-10T13:39:31.95Z</time></trkpt><trkpt lat="44.1184167" lon="8.1066683"><ele>284.0</ele><time>2026-04-10T13:39:32.95Z</time></trkpt><trkpt lat="44.1184017" lon="8.1068117"><ele>284.0</ele><time>2026-04-10T13:39:33.95Z</time></trkpt><trkpt lat="44.1183683" lon="8.1069267"><ele>284.0</ele><time>2026-04-10T13:39:34.95Z</time></trkpt><trkpt lat="44.1183433" lon="8.107015"><ele>284.0</ele><time>2026-04-10T13:39:35.95Z</time></trkpt><trkpt lat="44.118335" lon="8.10711"><ele>284.0</ele><time>2026-04-10T13:39:36.95Z</time></trkpt><trkpt lat="44.118345" lon="8.1072"><ele>284.0</ele><time>2026-04-10T13:39:37.95Z</time></trkpt><trkpt lat="44.1183633" lon="8.107285"><ele>284.0</ele><time>2026-04-10T13:39:38.95Z</time></trkpt><trkpt lat="44.1183883" lon="8.10738"><ele>284.0</ele><time>2026-04-10T13:39:39.95Z</time></trkpt><trkpt lat="44.11842" lon="8.1074733"><ele>284.0</ele><time>2026-04-10T13:39:40.95Z</time></trkpt><trkpt lat="44.11846" lon="8.1075767"><ele>284.0</ele><time>2026-04-10T13:39:41.95Z</time></trkpt><trkpt lat="44.1184867" lon="8.1076767"><ele>284.0</ele><time>2026-04-10T13:39:42.95Z</time></trkpt><trkpt lat="44.1184983" lon="8.1078067"><ele>284.0</ele><time>2026-04-10T13:39:43.95Z</time></trkpt><trkpt lat="44.11849" lon="8.1079467"><ele>284.0</ele><time>2026-04-10T13:39:44.95Z</time></trkpt><trkpt lat="44.1184767" lon="8.1080817"><ele>284.0</ele><time>2026-04-10T13:39:45.95Z</time></trkpt><trkpt lat="44.1184683" lon="8.1082183"><ele>284.0</ele><time>2026-04-10T13:39:46.95Z</time></trkpt><trkpt lat="44.1184533" lon="8.108365"><ele>284.0</ele><time>2026-04-10T13:39:47.95Z</time></trkpt><trkpt lat="44.1184333" lon="8.1085067"><ele>284.0</ele><time>2026-04-10T13:39:48.95Z</time></trkpt><trkpt lat="44.1184167" lon="8.1086467"><ele>284.0</ele><time>2026-04-10T13:39:49.95Z</time></trkpt><trkpt lat="44.1183983" lon="8.1087767"><ele>284.0</ele><time>2026-04-10T13:39:50.95Z</time></trkpt><trkpt lat="44.1183833" lon="8.1088883"><ele>284.0</ele><time>2026-04-10T13:39:51.95Z</time></trkpt><trkpt lat="44.1183683" lon="8.1089917"><ele>284.0</ele><time>2026-04-10T13:39:52.95Z</time></trkpt><trkpt lat="44.1183583" lon="8.109105"><ele>284.0</ele><time>2026-04-10T13:39:53.95Z</time></trkpt><trkpt lat="44.11837" lon="8.1092317"><ele>284.59999999999997</ele><time>2026-04-10T13:39:54.95Z</time></trkpt><trkpt lat="44.11838" lon="8.1093617"><ele>285.2</ele><time>2026-04-10T13:39:55.95Z</time></trkpt><trkpt lat="44.1183817" lon="8.1094883"><ele>285.79999999999995</ele><time>2026-04-10T13:39:56.95Z</time></trkpt><trkpt lat="44.1183717" lon="8.1096017"><ele>286.4</ele><time>2026-04-10T13:39:57.95Z</time></trkpt><trkpt lat="44.11836" lon="8.1097133"><ele>287.0</ele><time>2026-04-10T13:39:58.95Z</time></trkpt><trkpt lat="44.1183733" lon="8.10988"><ele>285.0</ele><time>2026-04-10T13:40:00.95Z</time></trkpt><trkpt lat="44.1184083" lon="8.1099617"><ele>283.0</ele><time>2026-04-10T13:40:01.951Z</time></trkpt><trkpt lat="44.1184667" lon="8.11004"><ele>281.0</ele><time>2026-04-10T13:40:02.95Z</time></trkpt><trkpt lat="44.11853" lon="8.1101267"><ele>279.0</ele><time>2026-04-10T13:40:03.95Z</time></trkpt><trkpt lat="44.1185817" lon="8.1102217"><ele>277.0</ele><time>2026-04-10T13:40:04.949Z</time></trkpt><trkpt lat="44.118615" lon="8.1103283"><ele>275.0</ele><time>2026-04-10T13:40:05.949Z</time></trkpt><trkpt lat="44.1186383" lon="8.110465"><ele>275.0</ele><time>2026-04-10T13:40:06.95Z</time></trkpt><trkpt lat="44.1186717" lon="8.1106017"><ele>275.0</ele><time>2026-04-10T13:40:07.95Z</time></trkpt><trkpt lat="44.1187033" lon="8.1107333"><ele>275.0</ele><time>2026-04-10T13:40:08.949Z</time></trkpt><trkpt lat="44.118715" lon="8.1108617"><ele>275.0</ele><time>2026-04-10T13:40:09.949Z</time></trkpt><trkpt lat="44.118725" lon="8.1109717"><ele>275.0</ele><time>2026-04-10T13:40:10.949Z</time></trkpt><trkpt lat="44.1187367" lon="8.111085"><ele>274.4</ele><time>2026-04-10T13:40:11.949Z</time></trkpt><trkpt lat="44.1187533" lon="8.1111717"><ele>273.8</ele><time>2026-04-10T13:40:12.95Z</time></trkpt><trkpt lat="44.11884" lon="8.11127"><ele>273.2</ele><time>2026-04-10T13:40:14.949Z</time></trkpt><trkpt lat="44.1189383" lon="8.1112767"><ele>272.6</ele><time>2026-04-10T13:40:16.949Z</time></trkpt><trkpt lat="44.1190417" lon="8.1111983"><ele>272.0</ele><time>2026-04-10T13:40:18.949Z</time></trkpt><trkpt lat="44.1190883" lon="8.1111383"><ele>272.0</ele><time>2026-04-10T13:40:19.949Z</time></trkpt><trkpt lat="44.1191683" lon="8.1110367"><ele>272.0</ele><time>2026-04-10T13:40:21.949Z</time></trkpt><trkpt lat="44.1192567" lon="8.1109217"><ele>272.0</ele><time>2026-04-10T13:40:23.949Z</time></trkpt><trkpt lat="44.1193733" lon="8.1108883"><ele>272.0</ele><time>2026-04-10T13:40:25.949Z</time></trkpt><trkpt lat="44.1194933" lon="8.110875"><ele>272.0</ele><time>2026-04-10T13:40:27.949Z</time></trkpt><trkpt lat="44.1195617" lon="8.11088"><ele>272.0</ele><time>2026-04-10T13:40:28.949Z</time></trkpt><trkpt lat="44.11966" lon="8.1108783"><ele>272.0</ele><time>2026-04-10T13:40:30.949Z</time></trkpt><trkpt lat="44.1197417" lon="8.110815"><ele>272.0</ele><time>2026-04-10T13:40:32.949Z</time></trkpt><trkpt lat="44.1198117" lon="8.1107367"><ele>272.0</ele><time>2026-04-10T13:40:34.949Z</time></trkpt><trkpt lat="44.119905" lon="8.1106717"><ele>275.6</ele><time>2026-04-10T13:40:36.949Z</time></trkpt><trkpt lat="44.12" lon="8.11063"><ele>279.2</ele><time>2026-04-10T13:40:38.949Z</time></trkpt><trkpt lat="44.1201317" lon="8.110615"><ele>282.8</ele><time>2026-04-10T13:40:40.949Z</time></trkpt><trkpt lat="44.1201983" lon="8.1106083"><ele>286.4</ele><time>2026-04-10T13:40:41.949Z</time></trkpt><trkpt lat="44.120265" lon="8.110605"><ele>290.0</ele><time>2026-04-10T13:40:42.95Z</time></trkpt><trkpt lat="44.1203767" lon="8.110555"><ele>290.0</ele><time>2026-04-10T13:40:44.949Z</time></trkpt><trkpt lat="44.120455" lon="8.1104767"><ele>290.0</ele><time>2026-04-10T13:40:46.949Z</time></trkpt><trkpt lat="44.1205267" lon="8.1103517"><ele>290.0</ele><time>2026-04-10T13:40:48.949Z</time></trkpt><trkpt lat="44.1205983" lon="8.110215"><ele>290.0</ele><time>2026-04-10T13:40:50.949Z</time></trkpt><trkpt lat="44.1206783" lon="8.110195"><ele>290.0</ele><time>2026-04-10T13:40:52.95Z</time></trkpt><trkpt lat="44.1207483" lon="8.11025"><ele>283.6666666666667</ele><time>2026-04-10T13:40:54.949Z</time></trkpt><trkpt lat="44.120845" lon="8.1103402"><ele>277.33333333333337</ele><time>2026-04-10T13:40:56.95Z</time></trkpt><trkpt lat="44.1209067" lon="8.1103897"><ele>271.0</ele><time>2026-04-10T13:40:57.949Z</time></trkpt><trkpt lat="44.1209684" lon="8.1104326"><ele>264.6666666666667</ele><time>2026-04-10T13:40:58.949Z</time></trkpt><trkpt lat="44.1210297" lon="8.1104722"><ele>258.3333333333333</ele><time>2026-04-10T13:40:59.949Z</time></trkpt><trkpt lat="44.1211232" lon="8.1105565"><ele>252.0</ele><time>2026-04-10T13:41:01.949Z</time></trkpt><trkpt lat="44.1212192" lon="8.1106406"><ele>252.0</ele><time>2026-04-10T13:41:03.949Z</time></trkpt><trkpt lat="44.1213337" lon="8.1107142"><ele>252.0</ele><time>2026-04-10T13:41:05.949Z</time></trkpt><trkpt lat="44.1213915" lon="8.1107494"><ele>252.0</ele><time>2026-04-10T13:41:06.95Z</time></trkpt><trkpt lat="44.1214685" lon="8.1108213"><ele>252.0</ele><time>2026-04-10T13:41:08.949Z</time></trkpt><trkpt lat="44.1214186" lon="8.1108973"><ele>252.0</ele><time>2026-04-10T13:41:32.95Z</time></trkpt><trkpt lat="44.1213222" lon="8.1108883"><ele>245.6</ele><time>2026-04-10T13:41:34.949Z</time></trkpt><trkpt lat="44.121214" lon="8.1109207"><ele>239.2</ele><time>2026-04-10T13:41:36.949Z</time></trkpt><trkpt lat="44.1211397" lon="8.1110194"><ele>232.8</ele><time>2026-04-10T13:41:38.949Z</time></trkpt><trkpt lat="44.1210567" lon="8.1110667"><ele>226.4</ele><time>2026-04-10T13:41:40.949Z</time></trkpt><trkpt lat="44.1209545" lon="8.1110003"><ele>220.0</ele><time>2026-04-10T13:41:42.949Z</time></trkpt><trkpt lat="44.1209028" lon="8.1109341"><ele>220.0</ele><time>2026-04-10T13:41:43.949Z</time></trkpt><trkpt lat="44.1208469" lon="8.1108695"><ele>220.0</ele><time>2026-04-10T13:41:44.949Z</time></trkpt><trkpt lat="44.1207568" lon="8.1108187"><ele>220.0</ele><time>2026-04-10T13:41:46.949Z</time></trkpt><trkpt lat="44.1206823" lon="8.1109153"><ele>220.0</ele><time>2026-04-10T13:41:49.949Z</time></trkpt><trkpt lat="44.1206259" lon="8.1110778"><ele>220.0</ele><time>2026-04-10T13:41:51.949Z</time></trkpt><trkpt lat="44.1205812" lon="8.1111815"><ele>218.49999999999997</ele><time>2026-04-10T13:41:52.95Z</time></trkpt><trkpt lat="44.1205239" lon="8.1112891"><ele>217.0</ele><time>2026-04-10T13:41:53.949Z</time></trkpt><trkpt lat="44.1204688" lon="8.1113885"><ele>215.5</ele><time>2026-04-10T13:41:54.949Z</time></trkpt><trkpt lat="44.1204215" lon="8.111476"><ele>214.0</ele><time>2026-04-10T13:41:55.949Z</time></trkpt><trkpt lat="44.120379" lon="8.1115668"><ele>212.49999999999997</ele><time>2026-04-10T13:41:56.949Z</time></trkpt><trkpt lat="44.1203307" lon="8.1116695"><ele>211.0</ele><time>2026-04-10T13:41:57.949Z</time></trkpt><trkpt lat="44.1202708" lon="8.1117534"><ele>211.0</ele><time>2026-04-10T13:41:58.949Z</time></trkpt><trkpt lat="44.1202" lon="8.1118012"><ele>211.0</ele><time>2026-04-10T13:41:59.949Z</time></trkpt><trkpt lat="44.120125" lon="8.1118347"><ele>211.0</ele><time>2026-04-10T13:42:00.949Z</time></trkpt><trkpt lat="44.1200592" lon="8.1118713"><ele>211.0</ele><time>2026-04-10T13:42:01.949Z</time></trkpt><trkpt lat="44.1200077" lon="8.1119254"><ele>211.0</ele><time>2026-04-10T13:42:02.95Z</time></trkpt><trkpt lat="44.1199577" lon="8.1119923"><ele>211.0</ele><time>2026-04-10T13:42:03.949Z</time></trkpt><trkpt lat="44.1199034" lon="8.1120647"><ele>211.0</ele><time>2026-04-10T13:42:04.95Z</time></trkpt><trkpt lat="44.119846" lon="8.1121545"><ele>211.16666666666666</ele><time>2026-04-10T13:42:05.95Z</time></trkpt><trkpt lat="44.1197834" lon="8.112255"><ele>211.33333333333331</ele><time>2026-04-10T13:42:06.949Z</time></trkpt><trkpt lat="44.1197253" lon="8.1123552"><ele>211.5</ele><time>2026-04-10T13:42:07.95Z</time></trkpt><trkpt lat="44.1196715" lon="8.1124575"><ele>211.66666666666669</ele><time>2026-04-10T13:42:08.949Z</time></trkpt><trkpt lat="44.119631" lon="8.1125589"><ele>211.83333333333334</ele><time>2026-04-10T13:42:09.949Z</time></trkpt><trkpt lat="44.1195907" lon="8.112656"><ele>212.0</ele><time>2026-04-10T13:42:10.949Z</time></trkpt><trkpt lat="44.1195449" lon="8.1127588"><ele>212.00000000000003</ele><time>2026-04-10T13:42:11.95Z</time></trkpt><trkpt lat="44.1195011" lon="8.1128608"><ele>212.0</ele><time>2026-04-10T13:42:12.949Z</time></trkpt><trkpt lat="44.1194619" lon="8.112965"><ele>212.0</ele><time>2026-04-10T13:42:13.949Z</time></trkpt><trkpt lat="44.1194327" lon="8.1130679"><ele>212.0</ele><time>2026-04-10T13:42:14.949Z</time></trkpt><trkpt lat="44.1194097" lon="8.1131831"><ele>212.00000000000003</ele><time>2026-04-10T13:42:15.949Z</time></trkpt><trkpt lat="44.1193921" lon="8.1133024"><ele>212.0</ele><time>2026-04-10T13:42:16.949Z</time></trkpt><trkpt lat="44.119381" lon="8.113427"><ele>205.0</ele><time>2026-04-10T13:42:17.949Z</time></trkpt><trkpt lat="44.1193673" lon="8.113544"><ele>198.0</ele><time>2026-04-10T13:42:18.949Z</time></trkpt><trkpt lat="44.1193497" lon="8.113643"><ele>191.0</ele><time>2026-04-10T13:42:19.949Z</time></trkpt><trkpt lat="44.1192911" lon="8.1137809"><ele>184.0</ele><time>2026-04-10T13:42:21.949Z</time></trkpt><trkpt lat="44.1191816" lon="8.1138615"><ele>177.0</ele><time>2026-04-10T13:42:23.949Z</time></trkpt><trkpt lat="44.1191054" lon="8.1138815"><ele>176.0</ele><time>2026-04-10T13:42:24.949Z</time></trkpt><trkpt lat="44.1190268" lon="8.1138904"><ele>175.0</ele><time>2026-04-10T13:42:25.95Z</time></trkpt><trkpt lat="44.1189484" lon="8.1138744"><ele>174.0</ele><time>2026-04-10T13:42:26.949Z</time></trkpt><trkpt lat="44.1188696" lon="8.1138228"><ele>173.0</ele><time>2026-04-10T13:42:27.949Z</time></trkpt><trkpt lat="44.1187901" lon="8.1137576"><ele>172.0</ele><time>2026-04-10T13:42:28.949Z</time></trkpt><trkpt lat="44.1187127" lon="8.1136977"><ele>171.0</ele><time>2026-04-10T13:42:29.949Z</time></trkpt><trkpt lat="44.1186375" lon="8.1136435"><ele>171.0</ele><time>2026-04-10T13:42:30.949Z</time></trkpt><trkpt lat="44.1185631" lon="8.1136012"><ele>171.0</ele><time>2026-04-10T13:42:31.949Z</time></trkpt><trkpt lat="44.118486" lon="8.1135755"><ele>171.0</ele><time>2026-04-10T13:42:32.949Z</time></trkpt><trkpt lat="44.1184065" lon="8.1135579"><ele>171.0</ele><time>2026-04-10T13:42:33.949Z</time></trkpt><trkpt lat="44.1183304" lon="8.1135425"><ele>171.0</ele><time>2026-04-10T13:42:34.949Z</time></trkpt><trkpt lat="44.1182595" lon="8.113519"><ele>171.0</ele><time>2026-04-10T13:42:35.949Z</time></trkpt><trkpt lat="44.1181931" lon="8.1134899"><ele>167.0</ele><time>2026-04-10T13:42:36.949Z</time></trkpt><trkpt lat="44.1181233" lon="8.1134608"><ele>163.0</ele><time>2026-04-10T13:42:37.95Z</time></trkpt><trkpt lat="44.1180387" lon="8.1134368"><ele>159.0</ele><time>2026-04-10T13:42:38.949Z</time></trkpt><trkpt lat="44.117942" lon="8.1134156"><ele>155.0</ele><time>2026-04-10T13:42:39.949Z</time></trkpt><trkpt lat="44.1178396" lon="8.113398"><ele>151.0</ele><time>2026-04-10T13:42:40.949Z</time></trkpt><trkpt lat="44.117729" lon="8.1133878"><ele>151.0</ele><time>2026-04-10T13:42:41.949Z</time></trkpt><trkpt lat="44.1176171" lon="8.1133838"><ele>151.0</ele><time>2026-04-10T13:42:42.949Z</time></trkpt><trkpt lat="44.117519" lon="8.1133771"><ele>151.0</ele><time>2026-04-10T13:42:43.949Z</time></trkpt><trkpt lat="44.1174452" lon="8.1133619"><ele>151.0</ele><time>2026-04-10T13:42:44.949Z</time></trkpt><trkpt lat="44.1173337" lon="8.1132727"><ele>151.0</ele><time>2026-04-10T13:42:46.949Z</time></trkpt><trkpt lat="44.11729" lon="8.1131932"><ele>153.66666666666669</ele><time>2026-04-10T13:42:47.949Z</time></trkpt><trkpt lat="44.1172296" lon="8.1131044"><ele>156.33333333333334</ele><time>2026-04-10T13:42:48.949Z</time></trkpt><trkpt lat="44.1171641" lon="8.113026"><ele>159.0</ele><time>2026-04-10T13:42:49.949Z</time></trkpt><trkpt lat="44.1170896" lon="8.1129649"><ele>161.66666666666666</ele><time>2026-04-10T13:42:50.949Z</time></trkpt><trkpt lat="44.1170137" lon="8.1129277"><ele>164.33333333333331</ele><time>2026-04-10T13:42:51.949Z</time></trkpt><trkpt lat="44.1169393" lon="8.1129243"><ele>167.0</ele><time>2026-04-10T13:42:52.949Z</time></trkpt><trkpt lat="44.1168814" lon="8.1129599"><ele>167.0</ele><time>2026-04-10T13:42:53.949Z</time></trkpt><trkpt lat="44.116833" lon="8.1130301"><ele>167.0</ele><time>2026-04-10T13:42:54.949Z</time></trkpt><trkpt lat="44.1168047" lon="8.1131217"><ele>167.0</ele><time>2026-04-10T13:42:55.949Z</time></trkpt><trkpt lat="44.1167987" lon="8.1132342"><ele>167.0</ele><time>2026-04-10T13:42:56.949Z</time></trkpt><trkpt lat="44.11681" lon="8.1133692"><ele>167.0</ele><time>2026-04-10T13:42:57.949Z</time></trkpt><trkpt lat="44.1168211" lon="8.1134944"><ele>167.0</ele><time>2026-04-10T13:42:58.949Z</time></trkpt><trkpt lat="44.1168133" lon="8.1135991"><ele>165.66666666666666</ele><time>2026-04-10T13:42:59.949Z</time></trkpt><trkpt lat="44.1167715" lon="8.1136836"><ele>164.33333333333331</ele><time>2026-04-10T13:43:00.949Z</time></trkpt><trkpt lat="44.1167074" lon="8.1137505"><ele>163.0</ele><time>2026-04-10T13:43:01.949Z</time></trkpt><trkpt lat="44.1166201" lon="8.1138003"><ele>161.66666666666666</ele><time>2026-04-10T13:43:02.949Z</time></trkpt><trkpt lat="44.1165291" lon="8.1138435"><ele>160.33333333333334</ele><time>2026-04-10T13:43:03.949Z</time></trkpt><trkpt lat="44.1164293" lon="8.1138766"><ele>159.0</ele><time>2026-04-10T13:43:04.949Z</time></trkpt><trkpt lat="44.1163335" lon="8.1139074"><ele>160.0</ele><time>2026-04-10T13:43:05.949Z</time></trkpt><trkpt lat="44.1162437" lon="8.1139438"><ele>161.0</ele><time>2026-04-10T13:43:06.949Z</time></trkpt><trkpt lat="44.1161639" lon="8.1139812"><ele>162.0</ele><time>2026-04-10T13:43:07.949Z</time></trkpt><trkpt lat="44.116091" lon="8.1140236"><ele>163.0</ele><time>2026-04-10T13:43:08.949Z</time></trkpt><trkpt lat="44.116031" lon="8.1140752"><ele>164.0</ele><time>2026-04-10T13:43:09.949Z</time></trkpt><trkpt lat="44.1159696" lon="8.114147"><ele>165.0</ele><time>2026-04-10T13:43:10.949Z</time></trkpt><trkpt lat="44.1159066" lon="8.1142298"><ele>165.0</ele><time>2026-04-10T13:43:11.949Z</time></trkpt><trkpt lat="44.1158494" lon="8.1143296"><ele>165.0</ele><time>2026-04-10T13:43:12.95Z</time></trkpt><trkpt lat="44.1157988" lon="8.1144522"><ele>165.0</ele><time>2026-04-10T13:43:13.95Z</time></trkpt><trkpt lat="44.1157543" lon="8.1145612"><ele>165.0</ele><time>2026-04-10T13:43:14.949Z</time></trkpt><trkpt lat="44.115707" lon="8.1146675"><ele>165.0</ele><time>2026-04-10T13:43:15.949Z</time></trkpt><trkpt lat="44.115642" lon="8.1147637"><ele>164.8</ele><time>2026-04-10T13:43:16.949Z</time></trkpt><trkpt lat="44.1155762" lon="8.1148543"><ele>164.6</ele><time>2026-04-10T13:43:17.949Z</time></trkpt><trkpt lat="44.1155076" lon="8.1149447"><ele>164.39999999999998</ele><time>2026-04-10T13:43:18.949Z</time></trkpt><trkpt lat="44.1154436" lon="8.1150393"><ele>164.2</ele><time>2026-04-10T13:43:19.949Z</time></trkpt><trkpt lat="44.1153934" lon="8.115139"><ele>164.0</ele><time>2026-04-10T13:43:20.949Z</time></trkpt><trkpt lat="44.1153609" lon="8.1152453"><ele>164.0</ele><time>2026-04-10T13:43:21.949Z</time></trkpt><trkpt lat="44.1153484" lon="8.1153469"><ele>164.0</ele><time>2026-04-10T13:43:22.95Z</time></trkpt><trkpt lat="44.1153497" lon="8.1155116"><ele>164.0</ele><time>2026-04-10T13:43:24.949Z</time></trkpt><trkpt lat="44.1152786" lon="8.1156062"><ele>164.0</ele><time>2026-04-10T13:43:26.949Z</time></trkpt><trkpt lat="44.1152077" lon="8.1156252"><ele>164.0</ele><time>2026-04-10T13:43:27.95Z</time></trkpt><trkpt lat="44.1151191" lon="8.1156312"><ele>164.0</ele><time>2026-04-10T13:43:28.949Z</time></trkpt><trkpt lat="44.115027" lon="8.1156218"><ele>164.0</ele><time>2026-04-10T13:43:29.949Z</time></trkpt><trkpt lat="44.1149449" lon="8.1156102"><ele>164.0</ele><time>2026-04-10T13:43:30.949Z</time></trkpt><trkpt lat="44.1148636" lon="8.1156127"><ele>164.0</ele><time>2026-04-10T13:43:31.949Z</time></trkpt><trkpt lat="44.114785" lon="8.1156276"><ele>164.0</ele><time>2026-04-10T13:43:32.949Z</time></trkpt><trkpt lat="44.1147026" lon="8.1156562"><ele>164.0</ele><time>2026-04-10T13:43:33.949Z</time></trkpt><trkpt lat="44.1146216" lon="8.1156855"><ele>162.16666666666666</ele><time>2026-04-10T13:43:34.949Z</time></trkpt><trkpt lat="44.1145398" lon="8.1157113"><ele>160.33333333333331</ele><time>2026-04-10T13:43:35.949Z</time></trkpt><trkpt lat="44.1144571" lon="8.1157342"><ele>158.5</ele><time>2026-04-10T13:43:36.949Z</time></trkpt><trkpt lat="44.1143775" lon="8.115748"><ele>156.66666666666666</ele><time>2026-04-10T13:43:37.949Z</time></trkpt><trkpt lat="44.1142988" lon="8.1157462"><ele>154.83333333333334</ele><time>2026-04-10T13:43:38.949Z</time></trkpt><trkpt lat="44.1142212" lon="8.1157351"><ele>153.0</ele><time>2026-04-10T13:43:39.949Z</time></trkpt><trkpt lat="44.1141511" lon="8.1157219"><ele>153.0</ele><time>2026-04-10T13:43:40.949Z</time></trkpt><trkpt lat="44.1140797" lon="8.1157145"><ele>153.0</ele><time>2026-04-10T13:43:41.949Z</time></trkpt><trkpt lat="44.1140051" lon="8.11571"><ele>153.0</ele><time>2026-04-10T13:43:42.95Z</time></trkpt><trkpt lat="44.1139211" lon="8.1157005"><ele>153.0</ele><time>2026-04-10T13:43:43.949Z</time></trkpt><trkpt lat="44.1138331" lon="8.1156818"><ele>153.0</ele><time>2026-04-10T13:43:44.949Z</time></trkpt><trkpt lat="44.1137456" lon="8.1156539"><ele>153.0</ele><time>2026-04-10T13:43:45.949Z</time></trkpt><trkpt lat="44.1136688" lon="8.1156176"><ele>149.20000000000002</ele><time>2026-04-10T13:43:46.949Z</time></trkpt><trkpt lat="44.1135979" lon="8.1155799"><ele>145.4</ele><time>2026-04-10T13:43:47.949Z</time></trkpt><trkpt lat="44.113535" lon="8.1155467"><ele>141.60000000000002</ele><time>2026-04-10T13:43:48.949Z</time></trkpt><trkpt lat="44.1134299" lon="8.1154904"><ele>137.8</ele><time>2026-04-10T13:43:50.949Z</time></trkpt><trkpt lat="44.1133371" lon="8.1154438"><ele>134.0</ele><time>2026-04-10T13:43:52.949Z</time></trkpt><trkpt lat="44.1132409" lon="8.1154177"><ele>132.0</ele><time>2026-04-10T13:43:54.949Z</time></trkpt><trkpt lat="44.1131679" lon="8.1154612"><ele>130.0</ele><time>2026-04-10T13:43:56.949Z</time></trkpt><trkpt lat="44.1131288" lon="8.1155439"><ele>128.0</ele><time>2026-04-10T13:43:59.949Z</time></trkpt><trkpt lat="44.1130417" lon="8.115585"><ele>126.0</ele><time>2026-04-10T13:45:49.949Z</time></trkpt><trkpt lat="44.1129183" lon="8.1154933"><ele>124.0</ele><time>2026-04-10T13:45:51.949Z</time></trkpt><trkpt lat="44.11284" lon="8.115435"><ele>124.0</ele><time>2026-04-10T13:45:52.949Z</time></trkpt><trkpt lat="44.1127567" lon="8.115385"><ele>124.0</ele><time>2026-04-10T13:45:53.949Z</time></trkpt><trkpt lat="44.1126733" lon="8.115325"><ele>124.0</ele><time>2026-04-10T13:45:54.949Z</time></trkpt><trkpt lat="44.1125933" lon="8.11526"><ele>124.0</ele><time>2026-04-10T13:45:55.949Z</time></trkpt><trkpt lat="44.1125083" lon="8.1151983"><ele>124.0</ele><time>2026-04-10T13:45:56.949Z</time></trkpt><trkpt lat="44.1124167" lon="8.115135"><ele>123.6</ele><time>2026-04-10T13:45:57.949Z</time></trkpt><trkpt lat="44.1123217" lon="8.11506"><ele>123.2</ele><time>2026-04-10T13:45:58.949Z</time></trkpt><trkpt lat="44.1122267" lon="8.114985"><ele>122.79999999999998</ele><time>2026-04-10T13:45:59.949Z</time></trkpt><trkpt lat="44.11213" lon="8.1149"><ele>122.39999999999999</ele><time>2026-04-10T13:46:00.95Z</time></trkpt><trkpt lat="44.1120283" lon="8.1148217"><ele>122.0</ele><time>2026-04-10T13:46:01.949Z</time></trkpt><trkpt lat="44.111915" lon="8.11476"><ele>125.5</ele><time>2026-04-10T13:46:02.949Z</time></trkpt><trkpt lat="44.111795" lon="8.1147117"><ele>129.0</ele><time>2026-04-10T13:46:03.95Z</time></trkpt><trkpt lat="44.11167" lon="8.1146633"><ele>132.5</ele><time>2026-04-10T13:46:04.949Z</time></trkpt><trkpt lat="44.1115283" lon="8.11463"><ele>136.0</ele><time>2026-04-10T13:46:05.949Z</time></trkpt><trkpt lat="44.1113917" lon="8.11462"><ele>139.0</ele><time>2026-04-10T13:46:06.949Z</time></trkpt><trkpt lat="44.1112517" lon="8.1146217"><ele>142.0</ele><time>2026-04-10T13:46:07.949Z</time></trkpt><trkpt lat="44.1111183" lon="8.1146767"><ele>145.0</ele><time>2026-04-10T13:46:08.949Z</time></trkpt><trkpt lat="44.1109883" lon="8.11477"><ele>148.0</ele><time>2026-04-10T13:46:09.949Z</time></trkpt><trkpt lat="44.1108633" lon="8.1148617"><ele>143.75</ele><time>2026-04-10T13:46:10.95Z</time></trkpt><trkpt lat="44.1107317" lon="8.114945"><ele>139.5</ele><time>2026-04-10T13:46:11.949Z</time></trkpt><trkpt lat="44.1105983" lon="8.1150283"><ele>135.25</ele><time>2026-04-10T13:46:12.95Z</time></trkpt><trkpt lat="44.1104633" lon="8.1151083"><ele>131.0</ele><time>2026-04-10T13:46:13.949Z</time></trkpt><trkpt lat="44.1103267" lon="8.115175"><ele>131.0</ele><time>2026-04-10T13:46:14.949Z</time></trkpt><trkpt lat="44.1101933" lon="8.1152367"><ele>131.0</ele><time>2026-04-10T13:46:15.949Z</time></trkpt><trkpt lat="44.1100617" lon="8.1152933"><ele>131.0</ele><time>2026-04-10T13:46:16.95Z</time></trkpt><trkpt lat="44.10993" lon="8.1153517"><ele>131.0</ele><time>2026-04-10T13:46:17.949Z</time></trkpt><trkpt lat="44.1098033" lon="8.1154283"><ele>129.5</ele><time>2026-04-10T13:46:18.949Z</time></trkpt><trkpt lat="44.10969" lon="8.1155333"><ele>128.0</ele><time>2026-04-10T13:46:19.949Z</time></trkpt><trkpt lat="44.1095917" lon="8.115645"><ele>126.5</ele><time>2026-04-10T13:46:20.949Z</time></trkpt><trkpt lat="44.109495" lon="8.115765"><ele>125.0</ele><time>2026-04-10T13:46:21.949Z</time></trkpt><trkpt lat="44.1093983" lon="8.1158633"><ele>125.0</ele><time>2026-04-10T13:46:22.949Z</time></trkpt><trkpt lat="44.1093083" lon="8.1159633"><ele>125.0</ele><time>2026-04-10T13:46:23.949Z</time></trkpt><trkpt lat="44.1092283" lon="8.116065"><ele>125.0</ele><time>2026-04-10T13:46:24.949Z</time></trkpt><trkpt lat="44.1091367" lon="8.1161633"><ele>125.0</ele><time>2026-04-10T13:46:25.949Z</time></trkpt><trkpt lat="44.109045" lon="8.1162667"><ele>124.75</ele><time>2026-04-10T13:46:26.949Z</time></trkpt><trkpt lat="44.1089617" lon="8.11638"><ele>124.5</ele><time>2026-04-10T13:46:27.949Z</time></trkpt><trkpt lat="44.10889" lon="8.1165033"><ele>124.25</ele><time>2026-04-10T13:46:28.949Z</time></trkpt><trkpt lat="44.1088317" lon="8.11664"><ele>124.0</ele><time>2026-04-10T13:46:29.949Z</time></trkpt><trkpt lat="44.1087833" lon="8.1167833"><ele>124.00000000000001</ele><time>2026-04-10T13:46:30.95Z</time></trkpt><trkpt lat="44.1087467" lon="8.1169167"><ele>124.0</ele><time>2026-04-10T13:46:31.949Z</time></trkpt><trkpt lat="44.1087183" lon="8.1170383"><ele>124.0</ele><time>2026-04-10T13:46:32.949Z</time></trkpt><trkpt lat="44.108705" lon="8.1171483"><ele>124.0</ele><time>2026-04-10T13:46:33.949Z</time></trkpt><trkpt lat="44.108705" lon="8.1172383"><ele>124.00000000000001</ele><time>2026-04-10T13:46:34.949Z</time></trkpt><trkpt lat="44.108765" lon="8.1173133"><ele>124.0</ele><time>2026-04-10T13:46:36.949Z</time></trkpt><trkpt lat="44.1088683" lon="8.1172083"><ele>124.0</ele><time>2026-04-10T13:46:38.949Z</time></trkpt><trkpt lat="44.10892" lon="8.1171333"><ele>124.00000000000001</ele><time>2026-04-10T13:46:39.949Z</time></trkpt><trkpt lat="44.10897" lon="8.1170583"><ele>124.0</ele><time>2026-04-10T13:46:40.949Z</time></trkpt><trkpt lat="44.1090167" lon="8.1169917"><ele>124.0</ele><time>2026-04-10T13:46:41.949Z</time></trkpt><trkpt lat="44.1090733" lon="8.1169333"><ele>124.00000000000001</ele><time>2026-04-10T13:46:42.949Z</time></trkpt><trkpt lat="44.1091333" lon="8.1168683"><ele>124.0</ele><time>2026-04-10T13:46:43.949Z</time></trkpt><trkpt lat="44.109185" lon="8.1168067"><ele>124.0</ele><time>2026-04-10T13:46:44.949Z</time></trkpt><trkpt lat="44.1092367" lon="8.11675"><ele>124.16666666666667</ele><time>2026-04-10T13:46:45.949Z</time></trkpt><trkpt lat="44.109325" lon="8.116685"><ele>124.33333333333334</ele><time>2026-04-10T13:46:47.949Z</time></trkpt><trkpt lat="44.1093867" lon="8.116655"><ele>124.5</ele><time>2026-04-10T13:46:48.949Z</time></trkpt><trkpt lat="44.1094733" lon="8.11655"><ele>124.66666666666666</ele><time>2026-04-10T13:46:50.95Z</time></trkpt><trkpt lat="44.10953" lon="8.1164833"><ele>124.83333333333333</ele><time>2026-04-10T13:46:51.949Z</time></trkpt><trkpt lat="44.10959" lon="8.11643"><ele>125.0</ele><time>2026-04-10T13:46:52.949Z</time></trkpt><trkpt lat="44.109705" lon="8.11635"><ele>124.99999999999999</ele><time>2026-04-10T13:46:54.949Z</time></trkpt><trkpt lat="44.109785" lon="8.1162783"><ele>125.0</ele><time>2026-04-10T13:46:56.949Z</time></trkpt><trkpt lat="44.109835" lon="8.1162183"><ele>125.0</ele><time>2026-04-10T13:46:57.949Z</time></trkpt><trkpt lat="44.1099033" lon="8.11615"><ele>125.0</ele><time>2026-04-10T13:46:58.949Z</time></trkpt><trkpt lat="44.1099733" lon="8.1160817"><ele>124.99999999999999</ele><time>2026-04-10T13:46:59.949Z</time></trkpt><trkpt lat="44.1100383" lon="8.116015"><ele>125.0</ele><time>2026-04-10T13:47:00.949Z</time></trkpt><trkpt lat="44.1100983" lon="8.1159617"><ele>125.85714285714286</ele><time>2026-04-10T13:47:01.949Z</time></trkpt><trkpt lat="44.11016" lon="8.11591"><ele>126.71428571428572</ele><time>2026-04-10T13:47:02.949Z</time></trkpt><trkpt lat="44.1102183" lon="8.1158533"><ele>127.57142857142858</ele><time>2026-04-10T13:47:03.949Z</time></trkpt><trkpt lat="44.1102817" lon="8.1158183"><ele>128.42857142857144</ele><time>2026-04-10T13:47:04.95Z</time></trkpt><trkpt lat="44.1103467" lon="8.1157933"><ele>129.2857142857143</ele><time>2026-04-10T13:47:05.95Z</time></trkpt><trkpt lat="44.1104217" lon="8.11576"><ele>130.14285714285714</ele><time>2026-04-10T13:47:06.949Z</time></trkpt><trkpt lat="44.11051" lon="8.115735"><ele>131.0</ele><time>2026-04-10T13:47:07.95Z</time></trkpt><trkpt lat="44.1105867" lon="8.1157033"><ele>131.0</ele><time>2026-04-10T13:47:08.949Z</time></trkpt><trkpt lat="44.1106483" lon="8.1156817"><ele>131.0</ele><time>2026-04-10T13:47:09.949Z</time></trkpt><trkpt lat="44.1107117" lon="8.1156633"><ele>131.0</ele><time>2026-04-10T13:47:10.949Z</time></trkpt><trkpt lat="44.1108" lon="8.1156267"><ele>131.0</ele><time>2026-04-10T13:47:12.95Z</time></trkpt><trkpt lat="44.1108733" lon="8.1155967"><ele>131.0</ele><time>2026-04-10T13:47:15.949Z</time></trkpt><trkpt lat="44.110895" lon="8.11575"><ele>131.0</ele><time>2026-04-10T14:06:45.95Z</time></trkpt><trkpt lat="44.1109583" lon="8.1156333"><ele>129.2</ele><time>2026-04-10T14:08:38.951Z</time></trkpt><trkpt lat="44.1110233" lon="8.115615"><ele>127.39999999999999</ele><time>2026-04-10T14:08:40.95Z</time></trkpt><trkpt lat="44.1110983" lon="8.1156"><ele>125.6</ele><time>2026-04-10T14:08:42.95Z</time></trkpt><trkpt lat="44.1111933" lon="8.1155867"><ele>123.8</ele><time>2026-04-10T14:09:06.95Z</time></trkpt><trkpt lat="44.1113017" lon="8.1155783"><ele>122.0</ele><time>2026-04-10T14:09:08.95Z</time></trkpt><trkpt lat="44.1114167" lon="8.11555"><ele>122.0</ele><time>2026-04-10T14:09:10.95Z</time></trkpt><trkpt lat="44.11153" lon="8.11554"><ele>121.99999999999999</ele><time>2026-04-10T14:09:12.95Z</time></trkpt><trkpt lat="44.1116383" lon="8.1155367"><ele>121.99999999999999</ele><time>2026-04-10T14:09:14.95Z</time></trkpt><trkpt lat="44.1117417" lon="8.1155533"><ele>122.0</ele><time>2026-04-10T14:09:16.95Z</time></trkpt><trkpt lat="44.1118517" lon="8.115575"><ele>122.0</ele><time>2026-04-10T14:09:18.95Z</time></trkpt><trkpt lat="44.1119283" lon="8.1155733"><ele>121.99999999999999</ele><time>2026-04-10T14:09:20.95Z</time></trkpt><trkpt lat="44.112035" lon="8.1155967"><ele>122.0</ele><time>2026-04-10T14:09:22.95Z</time></trkpt><trkpt lat="44.1121067" lon="8.1156433"><ele>122.0</ele><time>2026-04-10T14:09:23.95Z</time></trkpt><trkpt lat="44.1121783" lon="8.1157067"><ele>122.0</ele><time>2026-04-10T14:09:24.951Z</time></trkpt><trkpt lat="44.1122367" lon="8.1157883"><ele>121.99999999999999</ele><time>2026-04-10T14:09:25.95Z</time></trkpt><trkpt lat="44.1122967" lon="8.1158733"><ele>122.0</ele><time>2026-04-10T14:09:26.95Z</time></trkpt><trkpt lat="44.1123517" lon="8.115955"><ele>122.33333333333333</ele><time>2026-04-10T14:09:27.95Z</time></trkpt><trkpt lat="44.1124" lon="8.1160283"><ele>122.66666666666666</ele><time>2026-04-10T14:09:28.95Z</time></trkpt><trkpt lat="44.1124683" lon="8.1161017"><ele>123.0</ele><time>2026-04-10T14:09:29.95Z</time></trkpt><trkpt lat="44.11253" lon="8.11619"><ele>123.33333333333334</ele><time>2026-04-10T14:09:30.95Z</time></trkpt><trkpt lat="44.1126" lon="8.1162783"><ele>123.66666666666667</ele><time>2026-04-10T14:09:31.95Z</time></trkpt><trkpt lat="44.112665" lon="8.1163783"><ele>124.0</ele><time>2026-04-10T14:09:32.95Z</time></trkpt><trkpt lat="44.112725" lon="8.1164667"><ele>123.2</ele><time>2026-04-10T14:09:33.95Z</time></trkpt><trkpt lat="44.112785" lon="8.1165567"><ele>122.4</ele><time>2026-04-10T14:09:34.95Z</time></trkpt><trkpt lat="44.1128433" lon="8.116655"><ele>121.6</ele><time>2026-04-10T14:09:35.95Z</time></trkpt><trkpt lat="44.1129117" lon="8.11676"><ele>120.8</ele><time>2026-04-10T14:09:36.95Z</time></trkpt><trkpt lat="44.11298" lon="8.1168483"><ele>120.0</ele><time>2026-04-10T14:09:37.95Z</time></trkpt><trkpt lat="44.1130467" lon="8.1169217"><ele>120.2</ele><time>2026-04-10T14:09:38.951Z</time></trkpt><trkpt lat="44.1131133" lon="8.1169833"><ele>120.4</ele><time>2026-04-10T14:09:39.951Z</time></trkpt><trkpt lat="44.1131683" lon="8.1170483"><ele>120.6</ele><time>2026-04-10T14:09:40.95Z</time></trkpt><trkpt lat="44.113265" lon="8.1171517"><ele>120.8</ele><time>2026-04-10T14:09:42.95Z</time></trkpt><trkpt lat="44.11336" lon="8.11709"><ele>121.0</ele><time>2026-04-10T14:09:48.95Z</time></trkpt><trkpt lat="44.113375" lon="8.1169917"><ele>121.0</ele><time>2026-04-10T14:09:49.95Z</time></trkpt><trkpt lat="44.1133833" lon="8.116875"><ele>121.0</ele><time>2026-04-10T14:09:50.951Z</time></trkpt><trkpt lat="44.11338" lon="8.1167417"><ele>121.0</ele><time>2026-04-10T14:09:51.951Z</time></trkpt><trkpt lat="44.1133717" lon="8.1165983"><ele>121.0</ele><time>2026-04-10T14:09:52.95Z</time></trkpt><trkpt lat="44.1133767" lon="8.116445"><ele>121.0</ele><time>2026-04-10T14:09:53.951Z</time></trkpt><trkpt lat="44.11338" lon="8.1162883"><ele>121.19999999999999</ele><time>2026-04-10T14:09:54.95Z</time></trkpt><trkpt lat="44.1133767" lon="8.1161317"><ele>121.39999999999999</ele><time>2026-04-10T14:09:55.95Z</time></trkpt><trkpt lat="44.1133517" lon="8.1159883"><ele>121.6</ele><time>2026-04-10T14:09:56.951Z</time></trkpt><trkpt lat="44.1133017" lon="8.1158633"><ele>121.8</ele><time>2026-04-10T14:09:57.95Z</time></trkpt><trkpt lat="44.1132317" lon="8.1157483"><ele>122.0</ele><time>2026-04-10T14:09:58.95Z</time></trkpt><trkpt lat="44.113155" lon="8.11567"><ele>122.39999999999999</ele><time>2026-04-10T14:09:59.95Z</time></trkpt><trkpt lat="44.1130667" lon="8.1156117"><ele>122.79999999999998</ele><time>2026-04-10T14:10:00.95Z</time></trkpt><trkpt lat="44.112985" lon="8.1155633"><ele>123.2</ele><time>2026-04-10T14:10:01.95Z</time></trkpt><trkpt lat="44.1129033" lon="8.1155033"><ele>123.6</ele><time>2026-04-10T14:10:02.95Z</time></trkpt><trkpt lat="44.1128133" lon="8.1154367"><ele>124.0</ele><time>2026-04-10T14:10:03.95Z</time></trkpt><trkpt lat="44.1127167" lon="8.1153617"><ele>124.0</ele><time>2026-04-10T14:10:04.95Z</time></trkpt><trkpt lat="44.1126183" lon="8.115285"><ele>124.0</ele><time>2026-04-10T14:10:05.951Z</time></trkpt><trkpt lat="44.11252" lon="8.1152083"><ele>124.0</ele><time>2026-04-10T14:10:06.95Z</time></trkpt><trkpt lat="44.11241" lon="8.1151333"><ele>124.0</ele><time>2026-04-10T14:10:07.95Z</time></trkpt><trkpt lat="44.1123083" lon="8.1150533"><ele>123.5</ele><time>2026-04-10T14:10:08.95Z</time></trkpt><trkpt lat="44.1122" lon="8.1149683"><ele>123.0</ele><time>2026-04-10T14:10:09.95Z</time></trkpt><trkpt lat="44.112085" lon="8.1148917"><ele>122.5</ele><time>2026-04-10T14:10:10.95Z</time></trkpt><trkpt lat="44.11197" lon="8.1148133"><ele>122.0</ele><time>2026-04-10T14:10:11.95Z</time></trkpt><trkpt lat="44.111855" lon="8.1147417"><ele>125.5</ele><time>2026-04-10T14:10:12.951Z</time></trkpt><trkpt lat="44.1117333" lon="8.1146833"><ele>129.0</ele><time>2026-04-10T14:10:13.95Z</time></trkpt><trkpt lat="44.111605" lon="8.1146383"><ele>132.5</ele><time>2026-04-10T14:10:14.95Z</time></trkpt><trkpt lat="44.1114883" lon="8.1146067"><ele>136.0</ele><time>2026-04-10T14:10:15.95Z</time></trkpt><trkpt lat="44.11137" lon="8.1145883"><ele>139.0</ele><time>2026-04-10T14:10:16.95Z</time></trkpt><trkpt lat="44.11126" lon="8.1145933"><ele>142.0</ele><time>2026-04-10T14:10:17.95Z</time></trkpt><trkpt lat="44.1111517" lon="8.1146133"><ele>145.0</ele><time>2026-04-10T14:10:18.95Z</time></trkpt><trkpt lat="44.111045" lon="8.11467"><ele>148.0</ele><time>2026-04-10T14:10:19.95Z</time></trkpt><trkpt lat="44.1109333" lon="8.1147317"><ele>148.0</ele><time>2026-04-10T14:10:20.951Z</time></trkpt><trkpt lat="44.1108117" lon="8.1148117"><ele>148.0</ele><time>2026-04-10T14:10:21.95Z</time></trkpt><trkpt lat="44.1106917" lon="8.11489"><ele>148.0</ele><time>2026-04-10T14:10:22.95Z</time></trkpt><trkpt lat="44.1105667" lon="8.114965"><ele>148.0</ele><time>2026-04-10T14:10:23.95Z</time></trkpt><trkpt lat="44.11044" lon="8.11503"><ele>143.75</ele><time>2026-04-10T14:10:24.95Z</time></trkpt><trkpt lat="44.1103117" lon="8.1150767"><ele>139.5</ele><time>2026-04-10T14:10:25.95Z</time></trkpt><trkpt lat="44.1101767" lon="8.11514"><ele>135.25</ele><time>2026-04-10T14:10:26.951Z</time></trkpt><trkpt lat="44.1100533" lon="8.115225"><ele>131.0</ele><time>2026-04-10T14:10:27.95Z</time></trkpt><trkpt lat="44.10994" lon="8.1152817"><ele>137.75</ele><time>2026-04-10T14:10:28.95Z</time></trkpt><trkpt lat="44.10984" lon="8.1153433"><ele>144.5</ele><time>2026-04-10T14:10:29.95Z</time></trkpt><trkpt lat="44.1097433" lon="8.1154267"><ele>151.25</ele><time>2026-04-10T14:10:30.95Z</time></trkpt><trkpt lat="44.1096517" lon="8.1155283"><ele>158.0</ele><time>2026-04-10T14:10:31.95Z</time></trkpt><trkpt lat="44.1095467" lon="8.115665"><ele>149.75</ele><time>2026-04-10T14:10:32.95Z</time></trkpt><trkpt lat="44.1094467" lon="8.1157933"><ele>141.5</ele><time>2026-04-10T14:10:33.95Z</time></trkpt><trkpt lat="44.109345" lon="8.11592"><ele>133.25</ele><time>2026-04-10T14:10:34.95Z</time></trkpt><trkpt lat="44.10924" lon="8.1160333"><ele>125.0</ele><time>2026-04-10T14:10:35.95Z</time></trkpt><trkpt lat="44.1091383" lon="8.116155"><ele>124.75</ele><time>2026-04-10T14:10:36.95Z</time></trkpt><trkpt lat="44.1090433" lon="8.11628"><ele>124.5</ele><time>2026-04-10T14:10:37.95Z</time></trkpt><trkpt lat="44.1089533" lon="8.1164067"><ele>124.25</ele><time>2026-04-10T14:10:38.95Z</time></trkpt><trkpt lat="44.1088833" lon="8.1165267"><ele>124.0</ele><time>2026-04-10T14:10:39.951Z</time></trkpt><trkpt lat="44.1088233" lon="8.11667"><ele>124.0</ele><time>2026-04-10T14:10:40.95Z</time></trkpt><trkpt lat="44.1087817" lon="8.1168267"><ele>124.0</ele><time>2026-04-10T14:10:41.95Z</time></trkpt><trkpt lat="44.1087433" lon="8.11699"><ele>124.0</ele><time>2026-04-10T14:10:42.95Z</time></trkpt><trkpt lat="44.1087133" lon="8.11715"><ele>124.0</ele><time>2026-04-10T14:10:43.95Z</time></trkpt><trkpt lat="44.1086667" lon="8.1173133"><ele>120.75</ele><time>2026-04-10T14:10:44.95Z</time></trkpt><trkpt lat="44.1086133" lon="8.1174683"><ele>117.5</ele><time>2026-04-10T14:10:45.95Z</time></trkpt><trkpt lat="44.1085383" lon="8.1176017"><ele>114.25</ele><time>2026-04-10T14:10:46.95Z</time></trkpt><trkpt lat="44.108465" lon="8.1177167"><ele>111.0</ele><time>2026-04-10T14:10:47.95Z</time></trkpt><trkpt lat="44.1083817" lon="8.117855"><ele>111.0</ele><time>2026-04-10T14:10:48.95Z</time></trkpt><trkpt lat="44.1082933" lon="8.1179883"><ele>111.0</ele><time>2026-04-10T14:10:49.951Z</time></trkpt><trkpt lat="44.1082183" lon="8.1181283"><ele>111.0</ele><time>2026-04-10T14:10:50.951Z</time></trkpt><trkpt lat="44.10815" lon="8.118275"><ele>111.0</ele><time>2026-04-10T14:10:51.95Z</time></trkpt><trkpt lat="44.108095" lon="8.1184417"><ele>112.5</ele><time>2026-04-10T14:10:52.95Z</time></trkpt><trkpt lat="44.1080533" lon="8.11861"><ele>114.0</ele><time>2026-04-10T14:10:53.95Z</time></trkpt><trkpt lat="44.1080167" lon="8.1187583"><ele>115.5</ele><time>2026-04-10T14:10:54.95Z</time></trkpt><trkpt lat="44.1079983" lon="8.1189233"><ele>117.0</ele><time>2026-04-10T14:10:55.95Z</time></trkpt><trkpt lat="44.1079867" lon="8.1190933"><ele>117.0</ele><time>2026-04-10T14:10:56.95Z</time></trkpt><trkpt lat="44.1079783" lon="8.1192617"><ele>117.0</ele><time>2026-04-10T14:10:57.951Z</time></trkpt><trkpt lat="44.1079633" lon="8.11943"><ele>117.0</ele><time>2026-04-10T14:10:58.951Z</time></trkpt><trkpt lat="44.10795" lon="8.1195983"><ele>117.0</ele><time>2026-04-10T14:10:59.95Z</time></trkpt><trkpt lat="44.1079367" lon="8.1197617"><ele>115.75</ele><time>2026-04-10T14:11:00.95Z</time></trkpt><trkpt lat="44.1079317" lon="8.1199317"><ele>114.5</ele><time>2026-04-10T14:11:01.95Z</time></trkpt><trkpt lat="44.1079433" lon="8.1200867"><ele>113.25</ele><time>2026-04-10T14:11:02.95Z</time></trkpt><trkpt lat="44.1079733" lon="8.12025"><ele>112.0</ele><time>2026-04-10T14:11:03.95Z</time></trkpt><trkpt lat="44.1080067" lon="8.1204183"><ele>112.0</ele><time>2026-04-10T14:11:04.95Z</time></trkpt><trkpt lat="44.108025" lon="8.1206033"><ele>112.0</ele><time>2026-04-10T14:11:05.95Z</time></trkpt><trkpt lat="44.108035" lon="8.1207783"><ele>112.0</ele><time>2026-04-10T14:11:06.95Z</time></trkpt><trkpt lat="44.1080233" lon="8.12095"><ele>112.0</ele><time>2026-04-10T14:11:07.95Z</time></trkpt><trkpt lat="44.108" lon="8.12112"><ele>110.0</ele><time>2026-04-10T14:11:08.95Z</time></trkpt><trkpt lat="44.1079633" lon="8.1212817"><ele>108.0</ele><time>2026-04-10T14:11:09.95Z</time></trkpt><trkpt lat="44.1079067" lon="8.1214267"><ele>106.0</ele><time>2026-04-10T14:11:10.95Z</time></trkpt><trkpt lat="44.1078317" lon="8.12155"><ele>104.0</ele><time>2026-04-10T14:11:11.95Z</time></trkpt><trkpt lat="44.1077467" lon="8.12166"><ele>103.75</ele><time>2026-04-10T14:11:12.95Z</time></trkpt><trkpt lat="44.1076533" lon="8.1217633"><ele>103.5</ele><time>2026-04-10T14:11:13.95Z</time></trkpt><trkpt lat="44.1075483" lon="8.1218567"><ele>103.25</ele><time>2026-04-10T14:11:14.95Z</time></trkpt><trkpt lat="44.1074483" lon="8.1219333"><ele>103.0</ele><time>2026-04-10T14:11:15.95Z</time></trkpt><trkpt lat="44.1073417" lon="8.1220267"><ele>102.5</ele><time>2026-04-10T14:11:16.95Z</time></trkpt><trkpt lat="44.10725" lon="8.1221283"><ele>102.0</ele><time>2026-04-10T14:11:17.951Z</time></trkpt><trkpt lat="44.1071533" lon="8.122225"><ele>101.5</ele><time>2026-04-10T14:11:18.95Z</time></trkpt><trkpt lat="44.1070517" lon="8.1223333"><ele>101.0</ele><time>2026-04-10T14:11:19.95Z</time></trkpt><trkpt lat="44.106945" lon="8.122445"><ele>101.0</ele><time>2026-04-10T14:11:20.95Z</time></trkpt><trkpt lat="44.10684" lon="8.1225533"><ele>101.0</ele><time>2026-04-10T14:11:21.95Z</time></trkpt><trkpt lat="44.1067333" lon="8.1226683"><ele>101.0</ele><time>2026-04-10T14:11:22.95Z</time></trkpt><trkpt lat="44.106625" lon="8.1227683"><ele>101.0</ele><time>2026-04-10T14:11:23.95Z</time></trkpt><trkpt lat="44.10652" lon="8.1228717"><ele>102.5</ele><time>2026-04-10T14:11:24.95Z</time></trkpt><trkpt lat="44.1064167" lon="8.1229717"><ele>104.0</ele><time>2026-04-10T14:11:25.95Z</time></trkpt><trkpt lat="44.106315" lon="8.123065"><ele>105.5</ele><time>2026-04-10T14:11:26.95Z</time></trkpt><trkpt lat="44.1062183" lon="8.1231533"><ele>107.0</ele><time>2026-04-10T14:11:27.95Z</time></trkpt><trkpt lat="44.1061233" lon="8.123245"><ele>107.0</ele><time>2026-04-10T14:11:28.95Z</time></trkpt><trkpt lat="44.1060267" lon="8.12334"><ele>107.0</ele><time>2026-04-10T14:11:29.95Z</time></trkpt><trkpt lat="44.1059217" lon="8.1234333"><ele>107.0</ele><time>2026-04-10T14:11:30.95Z</time></trkpt><trkpt lat="44.1058167" lon="8.1235317"><ele>107.0</ele><time>2026-04-10T14:11:31.951Z</time></trkpt><trkpt lat="44.10571" lon="8.1236417"><ele>106.25</ele><time>2026-04-10T14:11:32.95Z</time></trkpt><trkpt lat="44.1056117" lon="8.1237583"><ele>105.5</ele><time>2026-04-10T14:11:33.951Z</time></trkpt><trkpt lat="44.1055183" lon="8.1238667"><ele>104.75</ele><time>2026-04-10T14:11:34.95Z</time></trkpt><trkpt lat="44.105425" lon="8.12398"><ele>104.0</ele><time>2026-04-10T14:11:35.95Z</time></trkpt><trkpt lat="44.1053183" lon="8.1240967"><ele>104.0</ele><time>2026-04-10T14:11:36.951Z</time></trkpt><trkpt lat="44.1052117" lon="8.1242117"><ele>104.0</ele><time>2026-04-10T14:11:37.95Z</time></trkpt><trkpt lat="44.1051067" lon="8.1243217"><ele>104.0</ele><time>2026-04-10T14:11:38.95Z</time></trkpt><trkpt lat="44.105005" lon="8.12442"><ele>104.0</ele><time>2026-04-10T14:11:39.95Z</time></trkpt><trkpt lat="44.104875" lon="8.1245167"><ele>104.0</ele><time>2026-04-10T14:11:40.95Z</time></trkpt><trkpt lat="44.1047383" lon="8.12459"><ele>104.0</ele><time>2026-04-10T14:11:41.95Z</time></trkpt><trkpt lat="44.104605" lon="8.1246483"><ele>104.0</ele><time>2026-04-10T14:11:42.95Z</time></trkpt><trkpt lat="44.104475" lon="8.1246833"><ele>104.0</ele><time>2026-04-10T14:11:43.95Z</time></trkpt><trkpt lat="44.1043333" lon="8.1247117"><ele>104.0</ele><time>2026-04-10T14:11:44.95Z</time></trkpt><trkpt lat="44.1042067" lon="8.1247233"><ele>104.0</ele><time>2026-04-10T14:11:45.95Z</time></trkpt><trkpt lat="44.1040867" lon="8.124715"><ele>104.0</ele><time>2026-04-10T14:11:46.951Z</time></trkpt><trkpt lat="44.10396" lon="8.124665"><ele>104.0</ele><time>2026-04-10T14:11:47.951Z</time></trkpt><trkpt lat="44.103835" lon="8.1245533"><ele>105.0</ele><time>2026-04-10T14:11:48.95Z</time></trkpt><trkpt lat="44.1037" lon="8.1244517"><ele>106.0</ele><time>2026-04-10T14:11:49.95Z</time></trkpt><trkpt lat="44.1035617" lon="8.1243483"><ele>107.0</ele><time>2026-04-10T14:11:50.95Z</time></trkpt><trkpt lat="44.1034233" lon="8.1242483"><ele>107.0</ele><time>2026-04-10T14:11:51.95Z</time></trkpt><trkpt lat="44.10328" lon="8.12415"><ele>107.0</ele><time>2026-04-10T14:11:52.951Z</time></trkpt><trkpt lat="44.10314" lon="8.124045"><ele>107.0</ele><time>2026-04-10T14:11:53.95Z</time></trkpt><trkpt lat="44.103" lon="8.123945"><ele>105.0</ele><time>2026-04-10T14:11:54.95Z</time></trkpt><trkpt lat="44.1028567" lon="8.1238517"><ele>103.0</ele><time>2026-04-10T14:11:55.95Z</time></trkpt><trkpt lat="44.1027133" lon="8.1237833"><ele>101.0</ele><time>2026-04-10T14:11:56.95Z</time></trkpt><trkpt lat="44.1025817" lon="8.1237333"><ele>99.0</ele><time>2026-04-10T14:11:57.95Z</time></trkpt><trkpt lat="44.1024633" lon="8.1236967"><ele>98.5</ele><time>2026-04-10T14:11:58.95Z</time></trkpt><trkpt lat="44.1023383" lon="8.1236783"><ele>98.0</ele><time>2026-04-10T14:11:59.95Z</time></trkpt><trkpt lat="44.10219" lon="8.1236767"><ele>97.5</ele><time>2026-04-10T14:12:00.951Z</time></trkpt><trkpt lat="44.1020467" lon="8.1236783"><ele>97.0</ele><time>2026-04-10T14:12:01.95Z</time></trkpt><trkpt lat="44.101905" lon="8.1236617"><ele>97.0</ele><time>2026-04-10T14:12:02.95Z</time></trkpt><trkpt lat="44.1017667" lon="8.1236367"><ele>97.0</ele><time>2026-04-10T14:12:03.95Z</time></trkpt><trkpt lat="44.1016417" lon="8.12358"><ele>97.0</ele><time>2026-04-10T14:12:04.95Z</time></trkpt><trkpt lat="44.1015233" lon="8.1234967"><ele>97.0</ele><time>2026-04-10T14:12:05.95Z</time></trkpt><trkpt lat="44.1014033" lon="8.12341"><ele>97.25</ele><time>2026-04-10T14:12:06.95Z</time></trkpt><trkpt lat="44.10129" lon="8.1233183"><ele>97.5</ele><time>2026-04-10T14:12:07.951Z</time></trkpt><trkpt lat="44.101165" lon="8.1232433"><ele>97.75</ele><time>2026-04-10T14:12:08.95Z</time></trkpt><trkpt lat="44.1010383" lon="8.1231717"><ele>98.0</ele><time>2026-04-10T14:12:09.95Z</time></trkpt><trkpt lat="44.1009033" lon="8.1231267"><ele>98.5</ele><time>2026-04-10T14:12:10.95Z</time></trkpt><trkpt lat="44.10077" lon="8.1231017"><ele>99.0</ele><time>2026-04-10T14:12:11.95Z</time></trkpt><trkpt lat="44.1006317" lon="8.1231"><ele>99.5</ele><time>2026-04-10T14:12:12.95Z</time></trkpt><trkpt lat="44.1005033" lon="8.1231317"><ele>100.0</ele><time>2026-04-10T14:12:13.95Z</time></trkpt><trkpt lat="44.1003833" lon="8.1231983"><ele>98.25</ele><time>2026-04-10T14:12:14.95Z</time></trkpt><trkpt lat="44.1002633" lon="8.1232783"><ele>96.5</ele><time>2026-04-10T14:12:15.95Z</time></trkpt><trkpt lat="44.10015" lon="8.1233783"><ele>94.75</ele><time>2026-04-10T14:12:16.95Z</time></trkpt><trkpt lat="44.100035" lon="8.1234917"><ele>93.0</ele><time>2026-04-10T14:12:17.95Z</time></trkpt><trkpt lat="44.0999267" lon="8.123635"><ele>92.75</ele><time>2026-04-10T14:12:18.95Z</time></trkpt><trkpt lat="44.0998217" lon="8.1237667"><ele>92.5</ele><time>2026-04-10T14:12:19.95Z</time></trkpt><trkpt lat="44.0997233" lon="8.12391"><ele>92.25</ele><time>2026-04-10T14:12:20.95Z</time></trkpt><trkpt lat="44.0996333" lon="8.1240333"><ele>92.0</ele><time>2026-04-10T14:12:21.951Z</time></trkpt><trkpt lat="44.0995583" lon="8.12415"><ele>92.0</ele><time>2026-04-10T14:12:22.95Z</time></trkpt><trkpt lat="44.0994683" lon="8.12428"><ele>92.0</ele><time>2026-04-10T14:12:23.95Z</time></trkpt><trkpt lat="44.099375" lon="8.1243983"><ele>92.0</ele><time>2026-04-10T14:12:24.95Z</time></trkpt><trkpt lat="44.0992833" lon="8.1245333"><ele>92.0</ele><time>2026-04-10T14:12:25.95Z</time></trkpt><trkpt lat="44.0991867" lon="8.1246467"><ele>92.0</ele><time>2026-04-10T14:12:26.95Z</time></trkpt><trkpt lat="44.09909" lon="8.1247633"><ele>92.0</ele><time>2026-04-10T14:12:27.95Z</time></trkpt><trkpt lat="44.0989917" lon="8.124885"><ele>92.0</ele><time>2026-04-10T14:12:28.95Z</time></trkpt><trkpt lat="44.0989033" lon="8.1249917"><ele>92.0</ele><time>2026-04-10T14:12:29.95Z</time></trkpt><trkpt lat="44.0988083" lon="8.1251067"><ele>92.0</ele><time>2026-04-10T14:12:30.95Z</time></trkpt><trkpt lat="44.0987067" lon="8.1251917"><ele>92.0</ele><time>2026-04-10T14:12:31.951Z</time></trkpt><trkpt lat="44.0985917" lon="8.12527"><ele>92.0</ele><time>2026-04-10T14:12:32.95Z</time></trkpt><trkpt lat="44.09847" lon="8.1253267"><ele>92.0</ele><time>2026-04-10T14:12:33.95Z</time></trkpt><trkpt lat="44.0983233" lon="8.12534"><ele>92.25</ele><time>2026-04-10T14:12:34.95Z</time></trkpt><trkpt lat="44.0981733" lon="8.125325"><ele>92.5</ele><time>2026-04-10T14:12:35.95Z</time></trkpt><trkpt lat="44.0980367" lon="8.1253067"><ele>92.75</ele><time>2026-04-10T14:12:36.95Z</time></trkpt><trkpt lat="44.09789" lon="8.12526"><ele>93.0</ele><time>2026-04-10T14:12:37.95Z</time></trkpt><trkpt lat="44.0977517" lon="8.1252033"><ele>93.0</ele><time>2026-04-10T14:12:38.95Z</time></trkpt><trkpt lat="44.0976017" lon="8.12515"><ele>93.0</ele><time>2026-04-10T14:12:39.95Z</time></trkpt><trkpt lat="44.0974833" lon="8.125095"><ele>93.0</ele><time>2026-04-10T14:12:40.95Z</time></trkpt><trkpt lat="44.0973683" lon="8.1250733"><ele>93.0</ele><time>2026-04-10T14:12:41.951Z</time></trkpt><trkpt lat="44.09725" lon="8.1250767"><ele>90.75</ele><time>2026-04-10T14:12:42.95Z</time></trkpt><trkpt lat="44.09713" lon="8.125105"><ele>88.5</ele><time>2026-04-10T14:12:43.95Z</time></trkpt><trkpt lat="44.0970317" lon="8.125175"><ele>86.25</ele><time>2026-04-10T14:12:44.95Z</time></trkpt><trkpt lat="44.096935" lon="8.125295"><ele>84.0</ele><time>2026-04-10T14:12:45.951Z</time></trkpt><trkpt lat="44.0968383" lon="8.12545"><ele>84.0</ele><time>2026-04-10T14:12:46.95Z</time></trkpt><trkpt lat="44.096735" lon="8.1255967"><ele>84.0</ele><time>2026-04-10T14:12:47.95Z</time></trkpt><trkpt lat="44.0966383" lon="8.1257467"><ele>84.0</ele><time>2026-04-10T14:12:48.95Z</time></trkpt><trkpt lat="44.0965467" lon="8.1258983"><ele>84.0</ele><time>2026-04-10T14:12:49.951Z</time></trkpt><trkpt lat="44.0964617" lon="8.126055"><ele>84.25</ele><time>2026-04-10T14:12:50.95Z</time></trkpt><trkpt lat="44.096365" lon="8.1262133"><ele>84.5</ele><time>2026-04-10T14:12:51.95Z</time></trkpt><trkpt lat="44.0962717" lon="8.1263783"><ele>84.75</ele><time>2026-04-10T14:12:52.95Z</time></trkpt><trkpt lat="44.0961833" lon="8.12654"><ele>85.0</ele><time>2026-04-10T14:12:53.95Z</time></trkpt><trkpt lat="44.0961" lon="8.12669"><ele>84.25</ele><time>2026-04-10T14:12:54.95Z</time></trkpt><trkpt lat="44.096015" lon="8.1268467"><ele>83.5</ele><time>2026-04-10T14:12:55.95Z</time></trkpt><trkpt lat="44.09594" lon="8.1269917"><ele>82.75</ele><time>2026-04-10T14:12:56.95Z</time></trkpt><trkpt lat="44.09587" lon="8.1271117"><ele>82.0</ele><time>2026-04-10T14:12:57.95Z</time></trkpt><trkpt lat="44.0957867" lon="8.1272383"><ele>80.75</ele><time>2026-04-10T14:12:58.95Z</time></trkpt><trkpt lat="44.0956933" lon="8.1273633"><ele>79.5</ele><time>2026-04-10T14:12:59.95Z</time></trkpt><trkpt lat="44.0955917" lon="8.1274583"><ele>78.25</ele><time>2026-04-10T14:13:00.95Z</time></trkpt><trkpt lat="44.095475" lon="8.127545"><ele>77.0</ele><time>2026-04-10T14:13:01.95Z</time></trkpt><trkpt lat="44.0953617" lon="8.1276317"><ele>77.0</ele><time>2026-04-10T14:13:02.951Z</time></trkpt><trkpt lat="44.0952417" lon="8.1277"><ele>77.0</ele><time>2026-04-10T14:13:03.951Z</time></trkpt><trkpt lat="44.0951083" lon="8.1277617"><ele>77.0</ele><time>2026-04-10T14:13:04.95Z</time></trkpt><trkpt lat="44.0949717" lon="8.127815"><ele>77.0</ele><time>2026-04-10T14:13:05.95Z</time></trkpt><trkpt lat="44.09484" lon="8.1278733"><ele>76.75</ele><time>2026-04-10T14:13:06.95Z</time></trkpt><trkpt lat="44.094715" lon="8.1279167"><ele>76.5</ele><time>2026-04-10T14:13:07.951Z</time></trkpt><trkpt lat="44.0945733" lon="8.1279617"><ele>76.25</ele><time>2026-04-10T14:13:08.95Z</time></trkpt><trkpt lat="44.094435" lon="8.1279967"><ele>76.0</ele><time>2026-04-10T14:13:09.951Z</time></trkpt><trkpt lat="44.0943017" lon="8.1280217"><ele>76.0</ele><time>2026-04-10T14:13:10.95Z</time></trkpt><trkpt lat="44.0941783" lon="8.12802"><ele>76.0</ele><time>2026-04-10T14:13:11.95Z</time></trkpt><trkpt lat="44.0940483" lon="8.1280017"><ele>76.0</ele><time>2026-04-10T14:13:12.95Z</time></trkpt><trkpt lat="44.0939183" lon="8.1279717"><ele>76.0</ele><time>2026-04-10T14:13:13.95Z</time></trkpt><trkpt lat="44.0937917" lon="8.1279467"><ele>76.0</ele><time>2026-04-10T14:13:14.95Z</time></trkpt><trkpt lat="44.0936683" lon="8.1279367"><ele>76.0</ele><time>2026-04-10T14:13:15.95Z</time></trkpt><trkpt lat="44.0935533" lon="8.1279267"><ele>76.0</ele><time>2026-04-10T14:13:16.95Z</time></trkpt><trkpt lat="44.093435" lon="8.1279483"><ele>76.0</ele><time>2026-04-10T14:13:17.95Z</time></trkpt><trkpt lat="44.0933083" lon="8.1279817"><ele>75.5</ele><time>2026-04-10T14:13:18.95Z</time></trkpt><trkpt lat="44.093185" lon="8.12801"><ele>75.0</ele><time>2026-04-10T14:13:19.95Z</time></trkpt><trkpt lat="44.093055" lon="8.128045"><ele>74.5</ele><time>2026-04-10T14:13:20.95Z</time></trkpt><trkpt lat="44.092925" lon="8.1280983"><ele>74.0</ele><time>2026-04-10T14:13:21.951Z</time></trkpt><trkpt lat="44.0928117" lon="8.1281583"><ele>74.0</ele><time>2026-04-10T14:13:22.951Z</time></trkpt><trkpt lat="44.0927167" lon="8.12821"><ele>74.0</ele><time>2026-04-10T14:13:23.95Z</time></trkpt><trkpt lat="44.092625" lon="8.1282617"><ele>74.0</ele><time>2026-04-10T14:13:24.95Z</time></trkpt><trkpt lat="44.0925433" lon="8.128325"><ele>74.0</ele><time>2026-04-10T14:13:25.95Z</time></trkpt><trkpt lat="44.0924717" lon="8.1284117"><ele>74.0</ele><time>2026-04-10T14:13:26.95Z</time></trkpt><trkpt lat="44.09241" lon="8.1285083"><ele>73.33333333333334</ele><time>2026-04-10T14:13:27.95Z</time></trkpt><trkpt lat="44.0923433" lon="8.12861"><ele>72.66666666666667</ele><time>2026-04-10T14:13:28.95Z</time></trkpt><trkpt lat="44.092285" lon="8.128705"><ele>72.0</ele><time>2026-04-10T14:13:29.95Z</time></trkpt><trkpt lat="44.09225" lon="8.1288017"><ele>71.33333333333333</ele><time>2026-04-10T14:13:30.95Z</time></trkpt><trkpt lat="44.0922133" lon="8.1288733"><ele>70.66666666666666</ele><time>2026-04-10T14:13:31.95Z</time></trkpt><trkpt lat="44.0921683" lon="8.128955"><ele>70.0</ele><time>2026-04-10T14:13:32.95Z</time></trkpt><trkpt lat="44.0921267" lon="8.1290383"><ele>69.66666666666666</ele><time>2026-04-10T14:13:33.95Z</time></trkpt><trkpt lat="44.09209" lon="8.12912"><ele>69.33333333333333</ele><time>2026-04-10T14:13:34.95Z</time></trkpt><trkpt lat="44.092055" lon="8.12922"><ele>69.0</ele><time>2026-04-10T14:13:35.95Z</time></trkpt><trkpt lat="44.0920117" lon="8.1293217"><ele>68.66666666666667</ele><time>2026-04-10T14:13:36.95Z</time></trkpt><trkpt lat="44.0919817" lon="8.1294333"><ele>68.33333333333334</ele><time>2026-04-10T14:13:37.95Z</time></trkpt><trkpt lat="44.091955" lon="8.1295667"><ele>68.0</ele><time>2026-04-10T14:13:38.95Z</time></trkpt><trkpt lat="44.091935" lon="8.1297083"><ele>68.0</ele><time>2026-04-10T14:13:39.95Z</time></trkpt><trkpt lat="44.0919167" lon="8.12985"><ele>68.0</ele><time>2026-04-10T14:13:40.95Z</time></trkpt><trkpt lat="44.0918933" lon="8.1299967"><ele>68.0</ele><time>2026-04-10T14:13:41.95Z</time></trkpt><trkpt lat="44.0918767" lon="8.1301217"><ele>68.0</ele><time>2026-04-10T14:13:42.95Z</time></trkpt><trkpt lat="44.0918567" lon="8.1302467"><ele>68.0</ele><time>2026-04-10T14:13:43.95Z</time></trkpt><trkpt lat="44.0918433" lon="8.1303917"><ele>67.8</ele><time>2026-04-10T14:13:44.95Z</time></trkpt><trkpt lat="44.091835" lon="8.1305333"><ele>67.6</ele><time>2026-04-10T14:13:45.951Z</time></trkpt><trkpt lat="44.09183" lon="8.1306817"><ele>67.4</ele><time>2026-04-10T14:13:46.95Z</time></trkpt><trkpt lat="44.0918217" lon="8.1308333"><ele>67.2</ele><time>2026-04-10T14:13:47.951Z</time></trkpt><trkpt lat="44.0918233" lon="8.1309967"><ele>67.0</ele><time>2026-04-10T14:13:48.951Z</time></trkpt><trkpt lat="44.0918367" lon="8.131155"><ele>67.0</ele><time>2026-04-10T14:13:49.95Z</time></trkpt><trkpt lat="44.0918367" lon="8.1313217"><ele>67.0</ele><time>2026-04-10T14:13:50.95Z</time></trkpt><trkpt lat="44.09184" lon="8.1314833"><ele>67.0</ele><time>2026-04-10T14:13:51.95Z</time></trkpt><trkpt lat="44.0918383" lon="8.1316367"><ele>67.0</ele><time>2026-04-10T14:13:52.95Z</time></trkpt><trkpt lat="44.09184" lon="8.1318017"><ele>67.0</ele><time>2026-04-10T14:13:53.951Z</time></trkpt><trkpt lat="44.0918433" lon="8.1319683"><ele>67.0</ele><time>2026-04-10T14:13:54.95Z</time></trkpt><trkpt lat="44.09184" lon="8.132135"><ele>67.0</ele><time>2026-04-10T14:13:55.95Z</time></trkpt><trkpt lat="44.0918233" lon="8.13231"><ele>67.0</ele><time>2026-04-10T14:13:56.95Z</time></trkpt><trkpt lat="44.09179" lon="8.1324717"><ele>67.25</ele><time>2026-04-10T14:13:57.95Z</time></trkpt><trkpt lat="44.0917517" lon="8.1326267"><ele>67.5</ele><time>2026-04-10T14:13:58.95Z</time></trkpt><trkpt lat="44.0916917" lon="8.1327633"><ele>67.75</ele><time>2026-04-10T14:13:59.95Z</time></trkpt><trkpt lat="44.0916467" lon="8.1329417"><ele>68.0</ele><time>2026-04-10T14:14:00.95Z</time></trkpt><trkpt lat="44.0916217" lon="8.1331317"><ele>68.25</ele><time>2026-04-10T14:14:01.95Z</time></trkpt><trkpt lat="44.0915967" lon="8.1333233"><ele>68.5</ele><time>2026-04-10T14:14:02.95Z</time></trkpt><trkpt lat="44.0915783" lon="8.133525"><ele>68.75</ele><time>2026-04-10T14:14:03.95Z</time></trkpt><trkpt lat="44.0915517" lon="8.1337367"><ele>69.0</ele><time>2026-04-10T14:14:04.95Z</time></trkpt><trkpt lat="44.0915267" lon="8.13394"><ele>68.0</ele><time>2026-04-10T14:14:05.95Z</time></trkpt><trkpt lat="44.0914867" lon="8.1341333"><ele>67.0</ele><time>2026-04-10T14:14:06.95Z</time></trkpt><trkpt lat="44.0914633" lon="8.1343067"><ele>66.0</ele><time>2026-04-10T14:14:07.95Z</time></trkpt><trkpt lat="44.0914133" lon="8.1344567"><ele>65.0</ele><time>2026-04-10T14:14:08.95Z</time></trkpt><trkpt lat="44.091375" lon="8.1346317"><ele>65.0</ele><time>2026-04-10T14:14:09.95Z</time></trkpt><trkpt lat="44.0913383" lon="8.134795"><ele>65.0</ele><time>2026-04-10T14:14:10.95Z</time></trkpt><trkpt lat="44.09131" lon="8.13499"><ele>65.0</ele><time>2026-04-10T14:14:11.951Z</time></trkpt><trkpt lat="44.0912933" lon="8.1351817"><ele>65.0</ele><time>2026-04-10T14:14:12.95Z</time></trkpt><trkpt lat="44.091255" lon="8.135355"><ele>63.75</ele><time>2026-04-10T14:14:13.95Z</time></trkpt><trkpt lat="44.0912033" lon="8.135505"><ele>62.5</ele><time>2026-04-10T14:14:14.95Z</time></trkpt><trkpt lat="44.0911333" lon="8.1356683"><ele>61.25</ele><time>2026-04-10T14:14:15.951Z</time></trkpt><trkpt lat="44.0910483" lon="8.1358133"><ele>60.0</ele><time>2026-04-10T14:14:16.95Z</time></trkpt><trkpt lat="44.09096" lon="8.135955"><ele>60.0</ele><time>2026-04-10T14:14:17.95Z</time></trkpt><trkpt lat="44.0908833" lon="8.13608"><ele>60.0</ele><time>2026-04-10T14:14:18.95Z</time></trkpt><trkpt lat="44.0908" lon="8.1362267"><ele>60.0</ele><time>2026-04-10T14:14:19.95Z</time></trkpt><trkpt lat="44.09073" lon="8.1363733"><ele>60.0</ele><time>2026-04-10T14:14:20.95Z</time></trkpt><trkpt lat="44.090665" lon="8.13653"><ele>59.5</ele><time>2026-04-10T14:14:21.95Z</time></trkpt><trkpt lat="44.0905967" lon="8.1366817"><ele>59.0</ele><time>2026-04-10T14:14:22.95Z</time></trkpt><trkpt lat="44.0905217" lon="8.13685"><ele>58.5</ele><time>2026-04-10T14:14:23.95Z</time></trkpt><trkpt lat="44.0904517" lon="8.1370083"><ele>58.0</ele><time>2026-04-10T14:14:24.95Z</time></trkpt><trkpt lat="44.0903817" lon="8.1371583"><ele>58.0</ele><time>2026-04-10T14:14:25.95Z</time></trkpt><trkpt lat="44.0903117" lon="8.1373017"><ele>58.0</ele><time>2026-04-10T14:14:26.95Z</time></trkpt><trkpt lat="44.0902483" lon="8.1374433"><ele>58.0</ele><time>2026-04-10T14:14:27.95Z</time></trkpt><trkpt lat="44.09016" lon="8.137605"><ele>58.0</ele><time>2026-04-10T14:14:28.95Z</time></trkpt><trkpt lat="44.090085" lon="8.1377683"><ele>58.5</ele><time>2026-04-10T14:14:29.95Z</time></trkpt><trkpt lat="44.0900233" lon="8.137935"><ele>59.0</ele><time>2026-04-10T14:14:30.95Z</time></trkpt><trkpt lat="44.0899567" lon="8.1380833"><ele>59.5</ele><time>2026-04-10T14:14:31.951Z</time></trkpt><trkpt lat="44.0898933" lon="8.13823"><ele>60.0</ele><time>2026-04-10T14:14:32.95Z</time></trkpt><trkpt lat="44.0898283" lon="8.13838"><ele>58.25</ele><time>2026-04-10T14:14:33.951Z</time></trkpt><trkpt lat="44.0897483" lon="8.1385167"><ele>56.5</ele><time>2026-04-10T14:14:34.95Z</time></trkpt><trkpt lat="44.08967" lon="8.1386633"><ele>54.75</ele><time>2026-04-10T14:14:35.95Z</time></trkpt><trkpt lat="44.0895883" lon="8.138805"><ele>53.0</ele><time>2026-04-10T14:14:36.95Z</time></trkpt><trkpt lat="44.0895117" lon="8.1389517"><ele>55.0</ele><time>2026-04-10T14:14:37.95Z</time></trkpt><trkpt lat="44.0894333" lon="8.13911"><ele>57.0</ele><time>2026-04-10T14:14:38.95Z</time></trkpt><trkpt lat="44.0893617" lon="8.1392517"><ele>59.0</ele><time>2026-04-10T14:14:39.95Z</time></trkpt><trkpt lat="44.0892967" lon="8.139415"><ele>61.0</ele><time>2026-04-10T14:14:40.95Z</time></trkpt><trkpt lat="44.08924" lon="8.1395533"><ele>61.0</ele><time>2026-04-10T14:14:41.95Z</time></trkpt><trkpt lat="44.089165" lon="8.1397067"><ele>61.0</ele><time>2026-04-10T14:14:42.95Z</time></trkpt><trkpt lat="44.089095" lon="8.1398533"><ele>61.0</ele><time>2026-04-10T14:14:43.95Z</time></trkpt><trkpt lat="44.0890283" lon="8.1400017"><ele>61.0</ele><time>2026-04-10T14:14:44.95Z</time></trkpt><trkpt lat="44.088975" lon="8.1401733"><ele>59.0</ele><time>2026-04-10T14:14:45.95Z</time></trkpt><trkpt lat="44.0889533" lon="8.1403517"><ele>57.0</ele><time>2026-04-10T14:14:46.95Z</time></trkpt><trkpt lat="44.088935" lon="8.140535"><ele>55.0</ele><time>2026-04-10T14:14:47.95Z</time></trkpt><trkpt lat="44.0889083" lon="8.14072"><ele>53.0</ele><time>2026-04-10T14:14:48.951Z</time></trkpt><trkpt lat="44.0888817" lon="8.140905"><ele>53.0</ele><time>2026-04-10T14:14:49.95Z</time></trkpt><trkpt lat="44.08886" lon="8.1410933"><ele>53.0</ele><time>2026-04-10T14:14:50.95Z</time></trkpt><trkpt lat="44.0888333" lon="8.1412867"><ele>53.0</ele><time>2026-04-10T14:14:51.951Z</time></trkpt><trkpt lat="44.08881" lon="8.1414867"><ele>53.0</ele><time>2026-04-10T14:14:52.95Z</time></trkpt><trkpt lat="44.0887767" lon="8.1416933"><ele>53.0</ele><time>2026-04-10T14:14:53.95Z</time></trkpt><trkpt lat="44.0887517" lon="8.1418717"><ele>53.0</ele><time>2026-04-10T14:14:54.95Z</time></trkpt><trkpt lat="44.08874" lon="8.1420533"><ele>53.0</ele><time>2026-04-10T14:14:55.95Z</time></trkpt><trkpt lat="44.0887233" lon="8.14223"><ele>53.0</ele><time>2026-04-10T14:14:56.95Z</time></trkpt><trkpt lat="44.0886983" lon="8.142405"><ele>52.25</ele><time>2026-04-10T14:14:57.95Z</time></trkpt><trkpt lat="44.0886817" lon="8.142575"><ele>51.5</ele><time>2026-04-10T14:14:58.95Z</time></trkpt><trkpt lat="44.088655" lon="8.1427317"><ele>50.75</ele><time>2026-04-10T14:14:59.95Z</time></trkpt><trkpt lat="44.0886233" lon="8.1429083"><ele>50.0</ele><time>2026-04-10T14:15:00.95Z</time></trkpt><trkpt lat="44.08858" lon="8.143085"><ele>51.25</ele><time>2026-04-10T14:15:01.951Z</time></trkpt><trkpt lat="44.0885383" lon="8.143255"><ele>52.5</ele><time>2026-04-10T14:15:02.95Z</time></trkpt><trkpt lat="44.0885" lon="8.14341"><ele>53.75</ele><time>2026-04-10T14:15:03.95Z</time></trkpt><trkpt lat="44.0884467" lon="8.1435717"><ele>55.0</ele><time>2026-04-10T14:15:04.951Z</time></trkpt><trkpt lat="44.08841" lon="8.1437433"><ele>55.0</ele><time>2026-04-10T14:15:05.95Z</time></trkpt><trkpt lat="44.08836" lon="8.1439217"><ele>55.0</ele><time>2026-04-10T14:15:06.951Z</time></trkpt><trkpt lat="44.0883133" lon="8.1440833"><ele>55.0</ele><time>2026-04-10T14:15:07.95Z</time></trkpt><trkpt lat="44.0882617" lon="8.14426"><ele>55.0</ele><time>2026-04-10T14:15:08.95Z</time></trkpt><trkpt lat="44.0882083" lon="8.1444267"><ele>55.0</ele><time>2026-04-10T14:15:09.95Z</time></trkpt><trkpt lat="44.0881633" lon="8.1445967"><ele>55.0</ele><time>2026-04-10T14:15:10.95Z</time></trkpt><trkpt lat="44.088115" lon="8.1447567"><ele>55.0</ele><time>2026-04-10T14:15:11.95Z</time></trkpt><trkpt lat="44.0880683" lon="8.144925"><ele>55.0</ele><time>2026-04-10T14:15:12.95Z</time></trkpt><trkpt lat="44.0880217" lon="8.145075"><ele>55.0</ele><time>2026-04-10T14:15:13.95Z</time></trkpt><trkpt lat="44.0879733" lon="8.1452267"><ele>55.0</ele><time>2026-04-10T14:15:14.95Z</time></trkpt><trkpt lat="44.0879333" lon="8.1453767"><ele>55.0</ele><time>2026-04-10T14:15:15.95Z</time></trkpt><trkpt lat="44.087885" lon="8.1455367"><ele>55.0</ele><time>2026-04-10T14:15:16.95Z</time></trkpt><trkpt lat="44.087835" lon="8.145695"><ele>56.0</ele><time>2026-04-10T14:15:17.95Z</time></trkpt><trkpt lat="44.0877883" lon="8.145855"><ele>57.0</ele><time>2026-04-10T14:15:18.95Z</time></trkpt><trkpt lat="44.0877483" lon="8.146005"><ele>58.0</ele><time>2026-04-10T14:15:19.95Z</time></trkpt><trkpt lat="44.0876867" lon="8.146155"><ele>59.0</ele><time>2026-04-10T14:15:20.95Z</time></trkpt><trkpt lat="44.0876467" lon="8.1463117"><ele>59.0</ele><time>2026-04-10T14:15:21.95Z</time></trkpt><trkpt lat="44.0876067" lon="8.146465"><ele>59.0</ele><time>2026-04-10T14:15:22.95Z</time></trkpt><trkpt lat="44.0875683" lon="8.1466117"><ele>59.0</ele><time>2026-04-10T14:15:23.95Z</time></trkpt><trkpt lat="44.0875" lon="8.14673"><ele>59.0</ele><time>2026-04-10T14:15:24.95Z</time></trkpt><trkpt lat="44.0874167" lon="8.1468483"><ele>58.75</ele><time>2026-04-10T14:15:25.95Z</time></trkpt><trkpt lat="44.0873317" lon="8.1469583"><ele>58.5</ele><time>2026-04-10T14:15:26.95Z</time></trkpt><trkpt lat="44.087245" lon="8.1470633"><ele>58.25</ele><time>2026-04-10T14:15:27.95Z</time></trkpt><trkpt lat="44.0871633" lon="8.14717"><ele>58.0</ele><time>2026-04-10T14:15:28.951Z</time></trkpt><trkpt lat="44.0870767" lon="8.1472833"><ele>57.75</ele><time>2026-04-10T14:15:29.951Z</time></trkpt><trkpt lat="44.08699" lon="8.1474017"><ele>57.5</ele><time>2026-04-10T14:15:30.95Z</time></trkpt><trkpt lat="44.086895" lon="8.147535"><ele>57.25</ele><time>2026-04-10T14:15:31.95Z</time></trkpt><trkpt lat="44.0867983" lon="8.14767"><ele>57.0</ele><time>2026-04-10T14:15:32.95Z</time></trkpt><trkpt lat="44.0867167" lon="8.14779"><ele>57.0</ele><time>2026-04-10T14:15:33.95Z</time></trkpt><trkpt lat="44.08664" lon="8.147885"><ele>57.0</ele><time>2026-04-10T14:15:34.95Z</time></trkpt><trkpt lat="44.0865683" lon="8.14798"><ele>57.0</ele><time>2026-04-10T14:15:35.95Z</time></trkpt><trkpt lat="44.0865033" lon="8.1480667"><ele>57.0</ele><time>2026-04-10T14:15:36.95Z</time></trkpt><trkpt lat="44.0864433" lon="8.1481417"><ele>57.0</ele><time>2026-04-10T14:15:37.95Z</time></trkpt><trkpt lat="44.0863733" lon="8.14822"><ele>56.25</ele><time>2026-04-10T14:15:38.951Z</time></trkpt><trkpt lat="44.0863033" lon="8.1483117"><ele>55.5</ele><time>2026-04-10T14:15:39.95Z</time></trkpt><trkpt lat="44.0862233" lon="8.148415"><ele>54.75</ele><time>2026-04-10T14:15:40.95Z</time></trkpt><trkpt lat="44.08613" lon="8.14853"><ele>54.0</ele><time>2026-04-10T14:15:41.951Z</time></trkpt><trkpt lat="44.086035" lon="8.1486583"><ele>54.0</ele><time>2026-04-10T14:15:42.95Z</time></trkpt><trkpt lat="44.0859433" lon="8.1487833"><ele>54.0</ele><time>2026-04-10T14:15:43.95Z</time></trkpt><trkpt lat="44.0858467" lon="8.1489183"><ele>54.0</ele><time>2026-04-10T14:15:44.951Z</time></trkpt><trkpt lat="44.085745" lon="8.1490483"><ele>54.0</ele><time>2026-04-10T14:15:45.95Z</time></trkpt><trkpt lat="44.0856367" lon="8.149175"><ele>52.66666666666667</ele><time>2026-04-10T14:15:46.95Z</time></trkpt><trkpt lat="44.08553" lon="8.149295"><ele>51.333333333333336</ele><time>2026-04-10T14:15:47.95Z</time></trkpt><trkpt lat="44.0854167" lon="8.1494483"><ele>50.0</ele><time>2026-04-10T14:15:48.95Z</time></trkpt><trkpt lat="44.0853167" lon="8.1496217"><ele>50.0</ele><time>2026-04-10T14:15:49.951Z</time></trkpt><trkpt lat="44.0852333" lon="8.14979"><ele>50.0</ele><time>2026-04-10T14:15:50.951Z</time></trkpt><trkpt lat="44.085155" lon="8.1499683"><ele>50.0</ele><time>2026-04-10T14:15:51.95Z</time></trkpt><trkpt lat="44.0850733" lon="8.1501183"><ele>50.0</ele><time>2026-04-10T14:15:52.951Z</time></trkpt><trkpt lat="44.08499" lon="8.1502617"><ele>49.75</ele><time>2026-04-10T14:15:53.95Z</time></trkpt><trkpt lat="44.08491" lon="8.1504033"><ele>49.5</ele><time>2026-04-10T14:15:54.95Z</time></trkpt><trkpt lat="44.084825" lon="8.150565"><ele>49.25</ele><time>2026-04-10T14:15:55.951Z</time></trkpt><trkpt lat="44.0847267" lon="8.1507367"><ele>49.0</ele><time>2026-04-10T14:15:56.95Z</time></trkpt><trkpt lat="44.0846317" lon="8.1508983"><ele>49.0</ele><time>2026-04-10T14:15:57.95Z</time></trkpt><trkpt lat="44.0845467" lon="8.1510433"><ele>49.0</ele><time>2026-04-10T14:15:58.951Z</time></trkpt><trkpt lat="44.0844767" lon="8.1511967"><ele>49.0</ele><time>2026-04-10T14:15:59.95Z</time></trkpt><trkpt lat="44.0844083" lon="8.15133"><ele>49.0</ele><time>2026-04-10T14:16:00.95Z</time></trkpt><trkpt lat="44.08432" lon="8.1514617"><ele>49.25</ele><time>2026-04-10T14:16:01.95Z</time></trkpt><trkpt lat="44.084225" lon="8.1516083"><ele>49.5</ele><time>2026-04-10T14:16:02.95Z</time></trkpt><trkpt lat="44.08414" lon="8.1517417"><ele>49.75</ele><time>2026-04-10T14:16:03.95Z</time></trkpt><trkpt lat="44.08406" lon="8.1518633"><ele>50.0</ele><time>2026-04-10T14:16:04.95Z</time></trkpt><trkpt lat="44.0839867" lon="8.15197"><ele>50.2</ele><time>2026-04-10T14:16:05.95Z</time></trkpt><trkpt lat="44.0839133" lon="8.1520683"><ele>50.4</ele><time>2026-04-10T14:16:06.95Z</time></trkpt><trkpt lat="44.0838433" lon="8.1521617"><ele>50.599999999999994</ele><time>2026-04-10T14:16:07.95Z</time></trkpt><trkpt lat="44.0837783" lon="8.1522633"><ele>50.8</ele><time>2026-04-10T14:16:08.95Z</time></trkpt><trkpt lat="44.0837183" lon="8.1523633"><ele>51.0</ele><time>2026-04-10T14:16:09.95Z</time></trkpt><trkpt lat="44.083665" lon="8.1524667"><ele>51.0</ele><time>2026-04-10T14:16:10.95Z</time></trkpt><trkpt lat="44.0836117" lon="8.1525567"><ele>51.0</ele><time>2026-04-10T14:16:11.95Z</time></trkpt><trkpt lat="44.0835733" lon="8.1527"><ele>51.0</ele><time>2026-04-10T14:16:13.95Z</time></trkpt><trkpt lat="44.0836467" lon="8.1528167"><ele>51.0</ele><time>2026-04-10T14:16:15.95Z</time></trkpt><trkpt lat="44.083725" lon="8.1528883"><ele>51.0</ele><time>2026-04-10T14:16:16.95Z</time></trkpt><trkpt lat="44.0838283" lon="8.1529817"><ele>51.0</ele><time>2026-04-10T14:16:17.95Z</time></trkpt><trkpt lat="44.0839383" lon="8.15309"><ele>51.0</ele><time>2026-04-10T14:16:18.95Z</time></trkpt><trkpt lat="44.0840683" lon="8.1532117"><ele>51.0</ele><time>2026-04-10T14:16:19.95Z</time></trkpt><trkpt lat="44.08419" lon="8.1533217"><ele>51.0</ele><time>2026-04-10T14:16:20.95Z</time></trkpt><trkpt lat="44.0842917" lon="8.1534167"><ele>52.8</ele><time>2026-04-10T14:16:21.951Z</time></trkpt><trkpt lat="44.0843967" lon="8.15351"><ele>54.599999999999994</ele><time>2026-04-10T14:16:22.95Z</time></trkpt><trkpt lat="44.0844817" lon="8.1536067"><ele>56.4</ele><time>2026-04-10T14:16:23.95Z</time></trkpt><trkpt lat="44.0845433" lon="8.1537133"><ele>58.2</ele><time>2026-04-10T14:16:24.95Z</time></trkpt><trkpt lat="44.0845917" lon="8.1538217"><ele>60.0</ele><time>2026-04-10T14:16:25.951Z</time></trkpt><trkpt lat="44.0846433" lon="8.1539083"><ele>60.0</ele><time>2026-04-10T14:16:26.95Z</time></trkpt><trkpt lat="44.0847033" lon="8.1539833"><ele>60.0</ele><time>2026-04-10T14:16:27.95Z</time></trkpt><trkpt lat="44.08478" lon="8.1540433"><ele>60.0</ele><time>2026-04-10T14:16:28.951Z</time></trkpt><trkpt lat="44.0848683" lon="8.1541067"><ele>60.0</ele><time>2026-04-10T14:16:29.95Z</time></trkpt><trkpt lat="44.0849867" lon="8.1541567"><ele>60.0</ele><time>2026-04-10T14:16:30.95Z</time></trkpt><trkpt lat="44.0851083" lon="8.1542067"><ele>62.166666666666664</ele><time>2026-04-10T14:16:31.95Z</time></trkpt><trkpt lat="44.0852017" lon="8.154265"><ele>64.33333333333333</ele><time>2026-04-10T14:16:32.95Z</time></trkpt><trkpt lat="44.0852683" lon="8.15431"><ele>66.5</ele><time>2026-04-10T14:16:33.95Z</time></trkpt><trkpt lat="44.08532" lon="8.1544"><ele>68.66666666666666</ele><time>2026-04-10T14:16:35.95Z</time></trkpt><trkpt lat="44.08531" lon="8.1544917"><ele>70.83333333333333</ele><time>2026-04-10T14:16:36.95Z</time></trkpt><trkpt lat="44.0853117" lon="8.1546"><ele>73.0</ele><time>2026-04-10T14:16:37.95Z</time></trkpt><trkpt lat="44.0853217" lon="8.1547133"><ele>73.0</ele><time>2026-04-10T14:16:38.95Z</time></trkpt><trkpt lat="44.0853417" lon="8.1548267"><ele>73.0</ele><time>2026-04-10T14:16:39.95Z</time></trkpt><trkpt lat="44.085355" lon="8.1549283"><ele>73.0</ele><time>2026-04-10T14:16:40.95Z</time></trkpt><trkpt lat="44.0853267" lon="8.1550517"><ele>73.0</ele><time>2026-04-10T14:16:42.95Z</time></trkpt><trkpt lat="44.0852267" lon="8.1550017"><ele>73.0</ele><time>2026-04-10T14:16:44.95Z</time></trkpt><trkpt lat="44.085105" lon="8.155075"><ele>73.0</ele><time>2026-04-10T14:16:46.95Z</time></trkpt><trkpt lat="44.0850367" lon="8.1551367"><ele>73.0</ele><time>2026-04-10T14:16:47.95Z</time></trkpt><trkpt lat="44.0849783" lon="8.1551917"><ele>73.0</ele><time>2026-04-10T14:16:48.95Z</time></trkpt><trkpt lat="44.0848983" lon="8.15528"><ele>73.0</ele><time>2026-04-10T14:16:50.95Z</time></trkpt><trkpt lat="44.084865" lon="8.1553717"><ele>73.0</ele><time>2026-04-10T14:16:52.95Z</time></trkpt><trkpt lat="44.0849183" lon="8.155465"><ele>73.0</ele><time>2026-04-10T14:16:57.95Z</time></trkpt><trkpt lat="44.0849767" lon="8.155545"><ele>74.5</ele><time>2026-04-10T14:16:58.95Z</time></trkpt><trkpt lat="44.0850383" lon="8.15562"><ele>76.0</ele><time>2026-04-10T14:16:59.95Z</time></trkpt><trkpt lat="44.085095" lon="8.15568"><ele>77.5</ele><time>2026-04-10T14:17:00.95Z</time></trkpt><trkpt lat="44.0851767" lon="8.155765"><ele>79.0</ele><time>2026-04-10T14:17:02.951Z</time></trkpt><trkpt lat="44.0852467" lon="8.1558017"><ele>80.5</ele><time>2026-04-10T14:17:04.95Z</time></trkpt><trkpt lat="44.0853017" lon="8.15587"><ele>82.0</ele><time>2026-04-10T14:17:08.951Z</time></trkpt><trkpt lat="44.08526" lon="8.155785"><ele>82.0</ele><time>2026-04-10T14:17:15.951Z</time></trkpt><trkpt lat="44.0851617" lon="8.1556983"><ele>82.0</ele><time>2026-04-10T14:17:17.95Z</time></trkpt><trkpt lat="44.0850467" lon="8.1556033"><ele>82.0</ele><time>2026-04-10T14:17:19.95Z</time></trkpt><trkpt lat="44.0849883" lon="8.1555567"><ele>82.0</ele><time>2026-04-10T14:17:20.95Z</time></trkpt><trkpt lat="44.0849283" lon="8.1554983"><ele>82.0</ele><time>2026-04-10T14:17:21.951Z</time></trkpt><trkpt lat="44.0848833" lon="8.15543"><ele>80.5</ele><time>2026-04-10T14:17:22.95Z</time></trkpt><trkpt lat="44.0848417" lon="8.1553467"><ele>79.0</ele><time>2026-04-10T14:17:23.95Z</time></trkpt><trkpt lat="44.0848133" lon="8.1552633"><ele>77.5</ele><time>2026-04-10T14:17:24.95Z</time></trkpt><trkpt lat="44.0847517" lon="8.1551417"><ele>76.0</ele><time>2026-04-10T14:17:26.951Z</time></trkpt><trkpt lat="44.084685" lon="8.15508"><ele>74.5</ele><time>2026-04-10T14:17:27.95Z</time></trkpt><trkpt lat="44.084625" lon="8.155045"><ele>73.0</ele><time>2026-04-10T14:17:28.951Z</time></trkpt><trkpt lat="44.0845717" lon="8.1549783"><ele>73.0</ele><time>2026-04-10T14:17:30.95Z</time></trkpt><trkpt lat="44.084605" lon="8.155055"><ele>73.0</ele><time>2026-04-10T14:17:35.95Z</time></trkpt><trkpt lat="44.0847283" lon="8.155135"><ele>73.0</ele><time>2026-04-10T14:17:37.95Z</time></trkpt><trkpt lat="44.0847983" lon="8.1551867"><ele>73.0</ele><time>2026-04-10T14:17:38.95Z</time></trkpt><trkpt lat="44.0848683" lon="8.1552267"><ele>73.0</ele><time>2026-04-10T14:17:39.95Z</time></trkpt><trkpt lat="44.0849467" lon="8.1552283"><ele>73.0</ele><time>2026-04-10T14:17:40.95Z</time></trkpt><trkpt lat="44.08502" lon="8.1551833"><ele>74.5</ele><time>2026-04-10T14:17:41.95Z</time></trkpt><trkpt lat="44.08509" lon="8.1551117"><ele>76.0</ele><time>2026-04-10T14:17:42.951Z</time></trkpt><trkpt lat="44.0851483" lon="8.1550567"><ele>77.5</ele><time>2026-04-10T14:17:43.95Z</time></trkpt><trkpt lat="44.0852067" lon="8.1550167"><ele>79.0</ele><time>2026-04-10T14:17:44.951Z</time></trkpt><trkpt lat="44.0852867" lon="8.1550167"><ele>80.5</ele><time>2026-04-10T14:17:45.95Z</time></trkpt><trkpt lat="44.0853533" lon="8.1549967"><ele>82.0</ele><time>2026-04-10T14:17:46.95Z</time></trkpt><trkpt lat="44.085395" lon="8.1548867"><ele>80.5</ele><time>2026-04-10T14:17:48.95Z</time></trkpt><trkpt lat="44.0853733" lon="8.1547917"><ele>79.0</ele><time>2026-04-10T14:17:49.95Z</time></trkpt><trkpt lat="44.0853417" lon="8.154675"><ele>77.5</ele><time>2026-04-10T14:17:50.95Z</time></trkpt><trkpt lat="44.0853233" lon="8.1545633"><ele>76.0</ele><time>2026-04-10T14:17:51.95Z</time></trkpt><trkpt lat="44.08532" lon="8.154455"><ele>74.5</ele><time>2026-04-10T14:17:52.95Z</time></trkpt><trkpt lat="44.08536" lon="8.1543667"><ele>73.0</ele><time>2026-04-10T14:17:54.95Z</time></trkpt><trkpt lat="44.08544" lon="8.1543867"><ele>73.0</ele><time>2026-04-10T14:17:56.95Z</time></trkpt><trkpt lat="44.085515" lon="8.15444"><ele>73.0</ele><time>2026-04-10T14:17:57.95Z</time></trkpt><trkpt lat="44.0855983" lon="8.1545283"><ele>73.0</ele><time>2026-04-10T14:17:58.951Z</time></trkpt><trkpt lat="44.0856733" lon="8.1546367"><ele>73.0</ele><time>2026-04-10T14:17:59.95Z</time></trkpt><trkpt lat="44.0857483" lon="8.1547533"><ele>73.0</ele><time>2026-04-10T14:18:00.95Z</time></trkpt><trkpt lat="44.085835" lon="8.1548383"><ele>76.0</ele><time>2026-04-10T14:18:01.95Z</time></trkpt><trkpt lat="44.0859167" lon="8.1548883"><ele>79.0</ele><time>2026-04-10T14:18:02.95Z</time></trkpt><trkpt lat="44.085985" lon="8.1549267"><ele>82.0</ele><time>2026-04-10T14:18:03.95Z</time></trkpt><trkpt lat="44.08606" lon="8.155095"><ele>85.0</ele><time>2026-04-10T14:18:05.951Z</time></trkpt><trkpt lat="44.0861067" lon="8.155225"><ele>88.0</ele><time>2026-04-10T14:18:06.95Z</time></trkpt><trkpt lat="44.0861817" lon="8.1553617"><ele>88.0</ele><time>2026-04-10T14:18:07.95Z</time></trkpt><trkpt lat="44.086255" lon="8.1554717"><ele>88.0</ele><time>2026-04-10T14:18:08.95Z</time></trkpt><trkpt lat="44.08634" lon="8.1555517"><ele>88.0</ele><time>2026-04-10T14:18:09.95Z</time></trkpt><trkpt lat="44.0864467" lon="8.155585"><ele>88.0</ele><time>2026-04-10T14:18:10.95Z</time></trkpt><trkpt lat="44.0865533" lon="8.1555983"><ele>88.0</ele><time>2026-04-10T14:18:11.95Z</time></trkpt><trkpt lat="44.0866767" lon="8.1556"><ele>90.0</ele><time>2026-04-10T14:18:12.95Z</time></trkpt><trkpt lat="44.0868" lon="8.1556033"><ele>92.0</ele><time>2026-04-10T14:18:13.95Z</time></trkpt><trkpt lat="44.086915" lon="8.1556317"><ele>94.0</ele><time>2026-04-10T14:18:14.95Z</time></trkpt><trkpt lat="44.087015" lon="8.15569"><ele>96.0</ele><time>2026-04-10T14:18:15.95Z</time></trkpt><trkpt lat="44.0870683" lon="8.1557567"><ele>98.0</ele><time>2026-04-10T14:18:16.95Z</time></trkpt><trkpt lat="44.087085" lon="8.155915"><ele>98.4</ele><time>2026-04-10T14:18:18.95Z</time></trkpt><trkpt lat="44.0870483" lon="8.1559917"><ele>98.80000000000001</ele><time>2026-04-10T14:18:19.95Z</time></trkpt><trkpt lat="44.08699" lon="8.1560667"><ele>99.2</ele><time>2026-04-10T14:18:20.95Z</time></trkpt><trkpt lat="44.0869083" lon="8.1561067"><ele>99.6</ele><time>2026-04-10T14:18:21.95Z</time></trkpt><trkpt lat="44.0868067" lon="8.1561317"><ele>100.0</ele><time>2026-04-10T14:18:22.95Z</time></trkpt><trkpt lat="44.086695" lon="8.1561683"><ele>97.75</ele><time>2026-04-10T14:18:23.95Z</time></trkpt><trkpt lat="44.0865783" lon="8.1562433"><ele>95.5</ele><time>2026-04-10T14:18:24.95Z</time></trkpt><trkpt lat="44.08646" lon="8.156315"><ele>93.25</ele><time>2026-04-10T14:18:25.95Z</time></trkpt><trkpt lat="44.0863467" lon="8.1563967"><ele>91.0</ele><time>2026-04-10T14:18:26.95Z</time></trkpt><trkpt lat="44.086265" lon="8.156475"><ele>91.16666666666666</ele><time>2026-04-10T14:18:27.95Z</time></trkpt><trkpt lat="44.0862167" lon="8.1565617"><ele>91.33333333333333</ele><time>2026-04-10T14:18:28.95Z</time></trkpt><trkpt lat="44.0861983" lon="8.1566617"><ele>91.5</ele><time>2026-04-10T14:18:29.951Z</time></trkpt><trkpt lat="44.086215" lon="8.15678"><ele>91.66666666666667</ele><time>2026-04-10T14:18:30.95Z</time></trkpt><trkpt lat="44.0862533" lon="8.1568967"><ele>91.83333333333334</ele><time>2026-04-10T14:18:31.95Z</time></trkpt><trkpt lat="44.0863233" lon="8.1569883"><ele>92.0</ele><time>2026-04-10T14:18:32.95Z</time></trkpt><trkpt lat="44.0864333" lon="8.157025"><ele>92.0</ele><time>2026-04-10T14:18:33.95Z</time></trkpt><trkpt lat="44.0865533" lon="8.15705"><ele>92.0</ele><time>2026-04-10T14:18:34.95Z</time></trkpt><trkpt lat="44.0866833" lon="8.1570817"><ele>92.0</ele><time>2026-04-10T14:18:35.95Z</time></trkpt><trkpt lat="44.0868133" lon="8.1571217"><ele>92.0</ele><time>2026-04-10T14:18:36.95Z</time></trkpt><trkpt lat="44.0869117" lon="8.157185"><ele>93.5</ele><time>2026-04-10T14:18:37.95Z</time></trkpt><trkpt lat="44.0869633" lon="8.1572617"><ele>95.0</ele><time>2026-04-10T14:18:38.95Z</time></trkpt><trkpt lat="44.0869817" lon="8.1573583"><ele>96.5</ele><time>2026-04-10T14:18:39.95Z</time></trkpt><trkpt lat="44.086975" lon="8.1574783"><ele>98.0</ele><time>2026-04-10T14:18:40.95Z</time></trkpt><trkpt lat="44.0869767" lon="8.1575967"><ele>99.49999999999999</ele><time>2026-04-10T14:18:41.95Z</time></trkpt><trkpt lat="44.087" lon="8.157695"><ele>101.0</ele><time>2026-04-10T14:18:42.95Z</time></trkpt><trkpt lat="44.0870317" lon="8.1577817"><ele>101.0</ele><time>2026-04-10T14:18:43.95Z</time></trkpt><trkpt lat="44.0871133" lon="8.157795"><ele>101.0</ele><time>2026-04-10T14:18:44.95Z</time></trkpt><trkpt lat="44.0871983" lon="8.1577733"><ele>101.0</ele><time>2026-04-10T14:18:45.95Z</time></trkpt><trkpt lat="44.087295" lon="8.1576783"><ele>101.0</ele><time>2026-04-10T14:18:46.95Z</time></trkpt><trkpt lat="44.0873983" lon="8.1575917"><ele>101.0</ele><time>2026-04-10T14:18:47.95Z</time></trkpt><trkpt lat="44.0875133" lon="8.1575183"><ele>102.8</ele><time>2026-04-10T14:18:48.95Z</time></trkpt><trkpt lat="44.08763" lon="8.1574567"><ele>104.6</ele><time>2026-04-10T14:18:49.951Z</time></trkpt><trkpt lat="44.087725" lon="8.157435"><ele>106.4</ele><time>2026-04-10T14:18:50.95Z</time></trkpt><trkpt lat="44.087795" lon="8.1574317"><ele>108.2</ele><time>2026-04-10T14:18:51.95Z</time></trkpt><trkpt lat="44.0878733" lon="8.157545"><ele>110.0</ele><time>2026-04-10T14:18:53.95Z</time></trkpt><trkpt lat="44.0878683" lon="8.157635"><ele>109.99999999999999</ele><time>2026-04-10T14:18:54.95Z</time></trkpt><trkpt lat="44.087835" lon="8.157755"><ele>110.0</ele><time>2026-04-10T14:18:55.95Z</time></trkpt><trkpt lat="44.0877967" lon="8.15789"><ele>110.0</ele><time>2026-04-10T14:18:56.95Z</time></trkpt><trkpt lat="44.0877717" lon="8.158005"><ele>110.0</ele><time>2026-04-10T14:18:57.95Z</time></trkpt><trkpt lat="44.087775" lon="8.158105"><ele>109.99999999999999</ele><time>2026-04-10T14:18:58.95Z</time></trkpt><trkpt lat="44.087795" lon="8.1581917"><ele>110.0</ele><time>2026-04-10T14:18:59.95Z</time></trkpt><trkpt lat="44.087825" lon="8.1582733"><ele>107.2</ele><time>2026-04-10T14:19:00.95Z</time></trkpt><trkpt lat="44.0878933" lon="8.15841"><ele>104.4</ele><time>2026-04-10T14:19:02.95Z</time></trkpt><trkpt lat="44.0879333" lon="8.1584783"><ele>101.6</ele><time>2026-04-10T14:19:03.95Z</time></trkpt><trkpt lat="44.0879967" lon="8.1586217"><ele>98.8</ele><time>2026-04-10T14:19:05.95Z</time></trkpt><trkpt lat="44.088025" lon="8.15871"><ele>96.0</ele><time>2026-04-10T14:19:06.95Z</time></trkpt><trkpt lat="44.08806" lon="8.1588167"><ele>96.0</ele><time>2026-04-10T14:19:07.95Z</time></trkpt><trkpt lat="44.0880883" lon="8.15893"><ele>96.0</ele><time>2026-04-10T14:19:08.95Z</time></trkpt><trkpt lat="44.0880967" lon="8.1590467"><ele>96.0</ele><time>2026-04-10T14:19:09.95Z</time></trkpt><trkpt lat="44.0880833" lon="8.159155"><ele>96.0</ele><time>2026-04-10T14:19:10.95Z</time></trkpt><trkpt lat="44.08804" lon="8.159245"><ele>96.0</ele><time>2026-04-10T14:19:11.95Z</time></trkpt><trkpt lat="44.0879517" lon="8.1592783"><ele>96.0</ele><time>2026-04-10T14:19:12.95Z</time></trkpt><trkpt lat="44.0878517" lon="8.1592983"><ele>97.33333333333333</ele><time>2026-04-10T14:19:13.95Z</time></trkpt><trkpt lat="44.08775" lon="8.1593117"><ele>98.66666666666666</ele><time>2026-04-10T14:19:14.95Z</time></trkpt><trkpt lat="44.0876583" lon="8.1593167"><ele>100.0</ele><time>2026-04-10T14:19:15.95Z</time></trkpt><trkpt lat="44.0875883" lon="8.159325"><ele>101.33333333333333</ele><time>2026-04-10T14:19:16.95Z</time></trkpt><trkpt lat="44.0875033" lon="8.1593767"><ele>102.66666666666666</ele><time>2026-04-10T14:19:18.95Z</time></trkpt><trkpt lat="44.0875417" lon="8.1594567"><ele>104.0</ele><time>2026-04-10T14:19:21.95Z</time></trkpt><trkpt lat="44.0876333" lon="8.159485"><ele>104.0</ele><time>2026-04-10T14:19:27.95Z</time></trkpt><trkpt lat="44.0877333" lon="8.1594767"><ele>104.0</ele><time>2026-04-10T14:21:19.95Z</time></trkpt><trkpt lat="44.0878483" lon="8.1595067"><ele>104.0</ele><time>2026-04-10T14:21:21.951Z</time></trkpt><trkpt lat="44.0879517" lon="8.159555"><ele>104.0</ele><time>2026-04-10T14:21:23.95Z</time></trkpt><trkpt lat="44.0880533" lon="8.1595633"><ele>104.0</ele><time>2026-04-10T14:21:25.95Z</time></trkpt><trkpt lat="44.0881467" lon="8.1595217"><ele>103.99999999999999</ele><time>2026-04-10T14:21:27.95Z</time></trkpt><trkpt lat="44.088235" lon="8.159485"><ele>104.0</ele><time>2026-04-10T14:21:29.95Z</time></trkpt><trkpt lat="44.08834" lon="8.15944"><ele>104.0</ele><time>2026-04-10T14:21:31.95Z</time></trkpt><trkpt lat="44.0884067" lon="8.15941"><ele>104.0</ele><time>2026-04-10T14:21:32.95Z</time></trkpt><trkpt lat="44.0884733" lon="8.1593883"><ele>103.99999999999999</ele><time>2026-04-10T14:21:33.95Z</time></trkpt><trkpt lat="44.08854" lon="8.1593633"><ele>104.0</ele><time>2026-04-10T14:21:34.951Z</time></trkpt><trkpt lat="44.0886017" lon="8.1593233"><ele>107.33333333333333</ele><time>2026-04-10T14:21:35.95Z</time></trkpt><trkpt lat="44.0887017" lon="8.15927"><ele>110.66666666666666</ele><time>2026-04-10T14:21:37.95Z</time></trkpt><trkpt lat="44.0886933" lon="8.1593933"><ele>114.0</ele><time>2026-04-10T14:21:42.951Z</time></trkpt><trkpt lat="44.0886617" lon="8.15948"><ele>117.33333333333334</ele><time>2026-04-10T14:21:43.95Z</time></trkpt><trkpt lat="44.0886333" lon="8.1595633"><ele>120.66666666666667</ele><time>2026-04-10T14:21:44.95Z</time></trkpt><trkpt lat="44.0886233" lon="8.1596967"><ele>124.0</ele><time>2026-04-10T14:21:46.95Z</time></trkpt><trkpt lat="44.0886983" lon="8.1597033"><ele>124.00000000000001</ele><time>2026-04-10T14:21:49.95Z</time></trkpt><trkpt lat="44.0887667" lon="8.1596017"><ele>124.0</ele><time>2026-04-10T14:21:51.951Z</time></trkpt><trkpt lat="44.088825" lon="8.15956"><ele>124.0</ele><time>2026-04-10T14:21:52.95Z</time></trkpt><trkpt lat="44.0888917" lon="8.1595417"><ele>124.0</ele><time>2026-04-10T14:21:53.95Z</time></trkpt><trkpt lat="44.0889633" lon="8.1595267"><ele>124.00000000000001</ele><time>2026-04-10T14:21:54.95Z</time></trkpt><trkpt lat="44.0890417" lon="8.1595167"><ele>124.0</ele><time>2026-04-10T14:21:55.95Z</time></trkpt><trkpt lat="44.0891217" lon="8.1595133"><ele>128.33333333333334</ele><time>2026-04-10T14:21:56.949Z</time></trkpt><trkpt lat="44.08919" lon="8.15952"><ele>132.66666666666669</ele><time>2026-04-10T14:21:57.95Z</time></trkpt><trkpt lat="44.0892533" lon="8.1595267"><ele>137.0</ele><time>2026-04-10T14:21:58.95Z</time></trkpt><trkpt lat="44.08938" lon="8.1595417"><ele>141.33333333333334</ele><time>2026-04-10T14:22:00.951Z</time></trkpt><trkpt lat="44.0894433" lon="8.1595567"><ele>145.66666666666666</ele><time>2026-04-10T14:22:02.95Z</time></trkpt><trkpt lat="44.08939" lon="8.1596417"><ele>150.0</ele><time>2026-04-10T14:22:05.95Z</time></trkpt><trkpt lat="44.089305" lon="8.159755"><ele>150.6</ele><time>2026-04-10T14:22:07.951Z</time></trkpt><trkpt lat="44.0892383" lon="8.1599"><ele>151.2</ele><time>2026-04-10T14:22:09.95Z</time></trkpt><trkpt lat="44.0892133" lon="8.16003"><ele>151.8</ele><time>2026-04-10T14:22:11.95Z</time></trkpt><trkpt lat="44.0893017" lon="8.1599917"><ele>152.4</ele><time>2026-04-10T14:22:16.95Z</time></trkpt><trkpt lat="44.0893717" lon="8.1599533"><ele>153.0</ele><time>2026-04-10T14:22:18.95Z</time></trkpt><trkpt lat="44.089415" lon="8.1598833"><ele>153.0</ele><time>2026-04-10T14:22:27.95Z</time></trkpt><trkpt lat="44.0894767" lon="8.159925"><ele>153.0</ele><time>2026-04-10T14:22:33.951Z</time></trkpt><trkpt lat="44.08952" lon="8.1600083"><ele>153.0</ele><time>2026-04-10T14:22:37.95Z</time></trkpt><trkpt lat="44.0895617" lon="8.1601033"><ele>153.0</ele><time>2026-04-10T14:22:44.95Z</time></trkpt><trkpt lat="44.0895733" lon="8.160195"><ele>153.0</ele><time>2026-04-10T14:22:46.95Z</time></trkpt><trkpt lat="44.0895883" lon="8.1602967"><ele>153.0</ele><time>2026-04-10T14:22:49.95Z</time></trkpt><trkpt lat="44.08961" lon="8.1603833"><ele>153.0</ele><time>2026-04-10T14:22:53.95Z</time></trkpt><trkpt lat="44.0896067" lon="8.1604933"><ele>153.0</ele><time>2026-04-10T14:22:55.95Z</time></trkpt><trkpt lat="44.089615" lon="8.1605967"><ele>153.0</ele><time>2026-04-10T14:22:57.95Z</time></trkpt><trkpt lat="44.089635" lon="8.1607133"><ele>153.0</ele><time>2026-04-10T14:22:59.95Z</time></trkpt><trkpt lat="44.0896833" lon="8.1608067"><ele>153.0</ele><time>2026-04-10T14:23:01.95Z</time></trkpt><trkpt lat="44.08974" lon="8.1609083"><ele>153.0</ele><time>2026-04-10T14:23:04.95Z</time></trkpt><trkpt lat="44.0898033" lon="8.160995"><ele>153.0</ele><time>2026-04-10T14:23:06.95Z</time></trkpt><trkpt lat="44.0898483" lon="8.161075"><ele>153.66666666666666</ele><time>2026-04-10T14:23:08.95Z</time></trkpt><trkpt lat="44.0898833" lon="8.16115"><ele>154.33333333333334</ele><time>2026-04-10T14:23:10.95Z</time></trkpt><trkpt lat="44.0899167" lon="8.1612367"><ele>155.0</ele><time>2026-04-10T14:23:16.95Z</time></trkpt><trkpt lat="44.0898567" lon="8.1612833"><ele>155.66666666666669</ele><time>2026-04-10T14:23:18.95Z</time></trkpt><trkpt lat="44.0897733" lon="8.1613467"><ele>156.33333333333334</ele><time>2026-04-10T14:23:20.95Z</time></trkpt><trkpt lat="44.08969" lon="8.1613933"><ele>157.0</ele><time>2026-04-10T14:23:22.95Z</time></trkpt><trkpt lat="44.089605" lon="8.161445"><ele>157.0</ele><time>2026-04-10T14:23:24.95Z</time></trkpt><trkpt lat="44.0895133" lon="8.1614867"><ele>157.0</ele><time>2026-04-10T14:23:26.95Z</time></trkpt><trkpt lat="44.0894333" lon="8.1615467"><ele>157.0</ele><time>2026-04-10T14:23:29.95Z</time></trkpt><trkpt lat="44.089365" lon="8.1615983"><ele>157.0</ele><time>2026-04-10T14:23:31.95Z</time></trkpt><trkpt lat="44.0893183" lon="8.1616883"><ele>157.0</ele><time>2026-04-10T14:23:34.95Z</time></trkpt><trkpt lat="44.0893567" lon="8.16179"><ele>157.0</ele><time>2026-04-10T14:23:37.95Z</time></trkpt><trkpt lat="44.0893883" lon="8.1618667"><ele>159.83333333333334</ele><time>2026-04-10T14:23:39.95Z</time></trkpt><trkpt lat="44.08943" lon="8.1619617"><ele>162.66666666666669</ele><time>2026-04-10T14:23:42.95Z</time></trkpt><trkpt lat="44.0894383" lon="8.1620667"><ele>165.5</ele><time>2026-04-10T14:23:47.95Z</time></trkpt><trkpt lat="44.0894417" lon="8.1621767"><ele>168.33333333333334</ele><time>2026-04-10T14:23:50.95Z</time></trkpt><trkpt lat="44.089505" lon="8.162275"><ele>171.16666666666666</ele><time>2026-04-10T14:23:53.95Z</time></trkpt><trkpt lat="44.08957" lon="8.1623433"><ele>174.0</ele><time>2026-04-10T14:23:55.951Z</time></trkpt><trkpt lat="44.08961" lon="8.1624367"><ele>176.66666666666666</ele><time>2026-04-10T14:23:57.95Z</time></trkpt><trkpt lat="44.0896467" lon="8.16251"><ele>179.33333333333334</ele><time>2026-04-10T14:23:59.95Z</time></trkpt><trkpt lat="44.089695" lon="8.1625783"><ele>182.0</ele><time>2026-04-10T14:24:01.95Z</time></trkpt><trkpt lat="44.0897183" lon="8.1627017"><ele>184.66666666666669</ele><time>2026-04-10T14:24:04.95Z</time></trkpt><trkpt lat="44.0897433" lon="8.162815"><ele>187.33333333333334</ele><time>2026-04-10T14:24:06.951Z</time></trkpt><trkpt lat="44.089795" lon="8.1629083"><ele>190.0</ele><time>2026-04-10T14:24:08.95Z</time></trkpt><trkpt lat="44.0898433" lon="8.1629667"><ele>190.0</ele><time>2026-04-10T14:24:10.95Z</time></trkpt><trkpt lat="44.0898967" lon="8.163015"><ele>190.0</ele><time>2026-04-10T14:24:12.95Z</time></trkpt><trkpt lat="44.08998" lon="8.163"><ele>190.0</ele><time>2026-04-10T14:24:15.95Z</time></trkpt><trkpt lat="44.0900883" lon="8.1630133"><ele>190.0</ele><time>2026-04-10T14:24:17.95Z</time></trkpt><trkpt lat="44.0901583" lon="8.1630367"><ele>190.0</ele><time>2026-04-10T14:24:19.95Z</time></trkpt><trkpt lat="44.0902267" lon="8.1630783"><ele>190.0</ele><time>2026-04-10T14:24:22.95Z</time></trkpt><trkpt lat="44.0902883" lon="8.163105"><ele>195.16666666666669</ele><time>2026-04-10T14:24:25.95Z</time></trkpt><trkpt lat="44.09025" lon="8.1632067"><ele>200.33333333333334</ele><time>2026-04-10T14:24:58.95Z</time></trkpt><trkpt lat="44.0902183" lon="8.1633"><ele>205.5</ele><time>2026-04-10T14:25:00.95Z</time></trkpt><trkpt lat="44.090185" lon="8.163405"><ele>210.66666666666669</ele><time>2026-04-10T14:25:02.95Z</time></trkpt><trkpt lat="44.090145" lon="8.163515"><ele>215.83333333333334</ele><time>2026-04-10T14:25:05.95Z</time></trkpt><trkpt lat="44.0901133" lon="8.16361"><ele>221.0</ele><time>2026-04-10T14:25:07.95Z</time></trkpt><trkpt lat="44.0900767" lon="8.1637183"><ele>221.00000000000003</ele><time>2026-04-10T14:25:09.95Z</time></trkpt><trkpt lat="44.0900367" lon="8.1638183"><ele>221.0</ele><time>2026-04-10T14:25:11.95Z</time></trkpt><trkpt lat="44.0900083" lon="8.1639317"><ele>221.0</ele><time>2026-04-10T14:25:13.95Z</time></trkpt><trkpt lat="44.089975" lon="8.164045"><ele>221.0</ele><time>2026-04-10T14:25:15.95Z</time></trkpt><trkpt lat="44.08995" lon="8.1641567"><ele>221.00000000000003</ele><time>2026-04-10T14:25:17.951Z</time></trkpt><trkpt lat="44.08993" lon="8.1642717"><ele>221.0</ele><time>2026-04-10T14:25:19.95Z</time></trkpt><trkpt lat="44.0899167" lon="8.1644017"><ele>221.16666666666669</ele><time>2026-04-10T14:25:21.95Z</time></trkpt><trkpt lat="44.0899133" lon="8.1645"><ele>221.33333333333334</ele><time>2026-04-10T14:25:23.95Z</time></trkpt><trkpt lat="44.08994" lon="8.1645867"><ele>221.5</ele><time>2026-04-10T14:25:25.95Z</time></trkpt><trkpt lat="44.0899633" lon="8.1646883"><ele>221.66666666666669</ele><time>2026-04-10T14:25:27.95Z</time></trkpt><trkpt lat="44.0899767" lon="8.1647867"><ele>221.83333333333334</ele><time>2026-04-10T14:25:29.95Z</time></trkpt><trkpt lat="44.0900133" lon="8.1649117"><ele>222.0</ele><time>2026-04-10T14:25:32.95Z</time></trkpt><trkpt lat="44.0900267" lon="8.1650067"><ele>222.0</ele><time>2026-04-10T14:25:34.951Z</time></trkpt><trkpt lat="44.0900117" lon="8.1651233"><ele>222.0</ele><time>2026-04-10T14:25:36.95Z</time></trkpt><trkpt lat="44.08999" lon="8.16526"><ele>222.0</ele><time>2026-04-10T14:25:38.95Z</time></trkpt><trkpt lat="44.0899583" lon="8.1653483"><ele>222.0</ele><time>2026-04-10T14:25:40.95Z</time></trkpt><trkpt lat="44.0899233" lon="8.1654683"><ele>222.0</ele><time>2026-04-10T14:25:42.95Z</time></trkpt><trkpt lat="44.0898917" lon="8.165595"><ele>222.0</ele><time>2026-04-10T14:25:44.95Z</time></trkpt><trkpt lat="44.0898533" lon="8.1657033"><ele>216.66666666666666</ele><time>2026-04-10T14:25:46.95Z</time></trkpt><trkpt lat="44.089825" lon="8.1658083"><ele>211.33333333333334</ele><time>2026-04-10T14:25:49.95Z</time></trkpt><trkpt lat="44.0898083" lon="8.1659033"><ele>206.0</ele><time>2026-04-10T14:25:51.95Z</time></trkpt><trkpt lat="44.0897833" lon="8.16601"><ele>200.66666666666669</ele><time>2026-04-10T14:25:53.95Z</time></trkpt><trkpt lat="44.089755" lon="8.1661117"><ele>195.33333333333334</ele><time>2026-04-10T14:25:55.95Z</time></trkpt><trkpt lat="44.089735" lon="8.1662233"><ele>190.0</ele><time>2026-04-10T14:25:57.95Z</time></trkpt><trkpt lat="44.089715" lon="8.16632"><ele>190.0</ele><time>2026-04-10T14:25:59.95Z</time></trkpt><trkpt lat="44.0896967" lon="8.1664233"><ele>190.0</ele><time>2026-04-10T14:26:01.95Z</time></trkpt><trkpt lat="44.0896617" lon="8.1665417"><ele>190.0</ele><time>2026-04-10T14:26:04.95Z</time></trkpt><trkpt lat="44.0896433" lon="8.1666717"><ele>190.0</ele><time>2026-04-10T14:26:07.951Z</time></trkpt><trkpt lat="44.0896217" lon="8.1667733"><ele>190.0</ele><time>2026-04-10T14:26:09.951Z</time></trkpt><trkpt lat="44.0896" lon="8.16688"><ele>190.0</ele><time>2026-04-10T14:26:11.95Z</time></trkpt><trkpt lat="44.08958" lon="8.1669717"><ele>190.6</ele><time>2026-04-10T14:26:13.95Z</time></trkpt><trkpt lat="44.0895633" lon="8.1670733"><ele>191.2</ele><time>2026-04-10T14:26:16.95Z</time></trkpt><trkpt lat="44.0895217" lon="8.1671883"><ele>191.8</ele><time>2026-04-10T14:26:19.95Z</time></trkpt><trkpt lat="44.0895133" lon="8.1673367"><ele>192.4</ele><time>2026-04-10T14:26:22.95Z</time></trkpt><trkpt lat="44.0894833" lon="8.16748"><ele>193.0</ele><time>2026-04-10T14:26:24.95Z</time></trkpt><trkpt lat="44.0894533" lon="8.1676183"><ele>194.0</ele><time>2026-04-10T14:26:26.95Z</time></trkpt><trkpt lat="44.089425" lon="8.1677533"><ele>195.0</ele><time>2026-04-10T14:26:28.95Z</time></trkpt><trkpt lat="44.089385" lon="8.1678783"><ele>196.0</ele><time>2026-04-10T14:26:30.95Z</time></trkpt><trkpt lat="44.08935" lon="8.1680183"><ele>197.0</ele><time>2026-04-10T14:26:32.95Z</time></trkpt><trkpt lat="44.0893183" lon="8.1681867"><ele>198.0</ele><time>2026-04-10T14:26:34.95Z</time></trkpt><trkpt lat="44.0893083" lon="8.168275"><ele>198.83333333333334</ele><time>2026-04-10T14:26:35.95Z</time></trkpt><trkpt lat="44.0893017" lon="8.1683633"><ele>199.66666666666669</ele><time>2026-04-10T14:26:36.95Z</time></trkpt><trkpt lat="44.089295" lon="8.168515"><ele>200.5</ele><time>2026-04-10T14:26:38.951Z</time></trkpt><trkpt lat="44.0893217" lon="8.1686333"><ele>201.33333333333334</ele><time>2026-04-10T14:26:40.95Z</time></trkpt><trkpt lat="44.0893717" lon="8.1687383"><ele>202.16666666666669</ele><time>2026-04-10T14:26:42.95Z</time></trkpt><trkpt lat="44.0894317" lon="8.1687967"><ele>203.0</ele><time>2026-04-10T14:26:44.951Z</time></trkpt><trkpt lat="44.0895167" lon="8.16883"><ele>203.0</ele><time>2026-04-10T14:26:46.95Z</time></trkpt><trkpt lat="44.0896317" lon="8.16887"><ele>203.0</ele><time>2026-04-10T14:26:48.95Z</time></trkpt><trkpt lat="44.0897183" lon="8.1689033"><ele>203.0</ele><time>2026-04-10T14:26:50.95Z</time></trkpt><trkpt lat="44.08973" lon="8.1690033"><ele>203.0</ele><time>2026-04-10T14:26:53.95Z</time></trkpt><trkpt lat="44.089675" lon="8.169105"><ele>203.0</ele><time>2026-04-10T14:26:55.95Z</time></trkpt><trkpt lat="44.0895917" lon="8.169235"><ele>203.33333333333334</ele><time>2026-04-10T14:26:57.95Z</time></trkpt><trkpt lat="44.0895417" lon="8.169315"><ele>203.66666666666669</ele><time>2026-04-10T14:26:58.95Z</time></trkpt><trkpt lat="44.0894933" lon="8.1694133"><ele>204.0</ele><time>2026-04-10T14:26:59.951Z</time></trkpt><trkpt lat="44.0894483" lon="8.1695033"><ele>204.33333333333331</ele><time>2026-04-10T14:27:00.95Z</time></trkpt><trkpt lat="44.089415" lon="8.16958"><ele>204.66666666666666</ele><time>2026-04-10T14:27:01.95Z</time></trkpt><trkpt lat="44.089355" lon="8.1697233"><ele>205.0</ele><time>2026-04-10T14:27:03.95Z</time></trkpt><trkpt lat="44.0892983" lon="8.16986"><ele>205.0</ele><time>2026-04-10T14:27:05.95Z</time></trkpt><trkpt lat="44.0892583" lon="8.1700033"><ele>205.0</ele><time>2026-04-10T14:27:07.95Z</time></trkpt><trkpt lat="44.0892183" lon="8.1701317"><ele>205.0</ele><time>2026-04-10T14:27:09.95Z</time></trkpt><trkpt lat="44.0891867" lon="8.1702167"><ele>205.0</ele><time>2026-04-10T14:27:11.95Z</time></trkpt><trkpt lat="44.0891467" lon="8.17031"><ele>205.0</ele><time>2026-04-10T14:27:13.95Z</time></trkpt><trkpt lat="44.08909" lon="8.1704417"><ele>200.85714285714286</ele><time>2026-04-10T14:27:15.95Z</time></trkpt><trkpt lat="44.0890533" lon="8.1705217"><ele>196.7142857142857</ele><time>2026-04-10T14:27:16.95Z</time></trkpt><trkpt lat="44.089025" lon="8.1706083"><ele>192.57142857142856</ele><time>2026-04-10T14:27:17.95Z</time></trkpt><trkpt lat="44.089" lon="8.1706967"><ele>188.42857142857144</ele><time>2026-04-10T14:27:18.95Z</time></trkpt><trkpt lat="44.0889683" lon="8.1707783"><ele>184.28571428571428</ele><time>2026-04-10T14:27:19.951Z</time></trkpt><trkpt lat="44.0889383" lon="8.1708617"><ele>180.14285714285714</ele><time>2026-04-10T14:27:20.95Z</time></trkpt><trkpt lat="44.0889183" lon="8.17095"><ele>176.0</ele><time>2026-04-10T14:27:21.95Z</time></trkpt><trkpt lat="44.0888983" lon="8.1710433"><ele>176.0</ele><time>2026-04-10T14:27:22.95Z</time></trkpt><trkpt lat="44.08889" lon="8.1711333"><ele>176.0</ele><time>2026-04-10T14:27:23.95Z</time></trkpt><trkpt lat="44.0888733" lon="8.1712633"><ele>176.0</ele><time>2026-04-10T14:27:25.95Z</time></trkpt><trkpt lat="44.0888583" lon="8.1713717"><ele>176.0</ele><time>2026-04-10T14:27:27.951Z</time></trkpt><trkpt lat="44.088845" lon="8.17146"><ele>176.0</ele><time>2026-04-10T14:27:29.95Z</time></trkpt><trkpt lat="44.088865" lon="8.1715433"><ele>176.0</ele><time>2026-04-10T14:27:31.95Z</time></trkpt><trkpt lat="44.08892" lon="8.171655"><ele>173.4</ele><time>2026-04-10T14:27:34.95Z</time></trkpt><trkpt lat="44.0889717" lon="8.17174"><ele>170.8</ele><time>2026-04-10T14:27:36.95Z</time></trkpt><trkpt lat="44.089015" lon="8.1718283"><ele>168.20000000000002</ele><time>2026-04-10T14:27:38.951Z</time></trkpt><trkpt lat="44.0890883" lon="8.171925"><ele>165.60000000000002</ele><time>2026-04-10T14:27:40.95Z</time></trkpt><trkpt lat="44.0891883" lon="8.171975"><ele>163.0</ele><time>2026-04-10T14:27:42.95Z</time></trkpt><trkpt lat="44.0892317" lon="8.17208"><ele>168.33333333333334</ele><time>2026-04-10T14:27:45.95Z</time></trkpt><trkpt lat="44.0892133" lon="8.172165"><ele>173.66666666666669</ele><time>2026-04-10T14:27:47.95Z</time></trkpt><trkpt lat="44.0891983" lon="8.1723"><ele>179.0</ele><time>2026-04-10T14:27:49.95Z</time></trkpt><trkpt lat="44.0891967" lon="8.1723883"><ele>184.33333333333334</ele><time>2026-04-10T14:27:50.95Z</time></trkpt><trkpt lat="44.089185" lon="8.1724783"><ele>189.66666666666666</ele><time>2026-04-10T14:27:51.95Z</time></trkpt><trkpt lat="44.0891833" lon="8.1726267"><ele>195.0</ele><time>2026-04-10T14:27:53.951Z</time></trkpt><trkpt lat="44.0891933" lon="8.17277"><ele>195.0</ele><time>2026-04-10T14:27:55.951Z</time></trkpt><trkpt lat="44.0891867" lon="8.1728833"><ele>195.0</ele><time>2026-04-10T14:27:57.95Z</time></trkpt><trkpt lat="44.0891783" lon="8.1730283"><ele>195.0</ele><time>2026-04-10T14:27:59.95Z</time></trkpt><trkpt lat="44.0891733" lon="8.1731533"><ele>195.0</ele><time>2026-04-10T14:28:01.95Z</time></trkpt><trkpt lat="44.0891767" lon="8.17327"><ele>195.0</ele><time>2026-04-10T14:28:49.95Z</time></trkpt><trkpt lat="44.089175" lon="8.1733867"><ele>195.0</ele><time>2026-04-10T14:29:09.95Z</time></trkpt><trkpt lat="44.0891617" lon="8.1735133"><ele>194.16666666666666</ele><time>2026-04-10T14:29:12.951Z</time></trkpt><trkpt lat="44.0891633" lon="8.173625"><ele>193.33333333333334</ele><time>2026-04-10T14:29:15.95Z</time></trkpt><trkpt lat="44.0891667" lon="8.173725"><ele>192.5</ele><time>2026-04-10T14:29:18.951Z</time></trkpt><trkpt lat="44.0891617" lon="8.17384"><ele>191.66666666666669</ele><time>2026-04-10T14:29:21.95Z</time></trkpt><trkpt lat="44.089195" lon="8.1739383"><ele>190.83333333333334</ele><time>2026-04-10T14:29:24.951Z</time></trkpt><trkpt lat="44.089225" lon="8.1740467"><ele>190.0</ele><time>2026-04-10T14:29:27.95Z</time></trkpt><trkpt lat="44.0892217" lon="8.174145"><ele>189.16666666666669</ele><time>2026-04-10T14:29:30.95Z</time></trkpt><trkpt lat="44.08919" lon="8.1742417"><ele>188.33333333333334</ele><time>2026-04-10T14:29:32.95Z</time></trkpt><trkpt lat="44.0891817" lon="8.17435"><ele>187.5</ele><time>2026-04-10T14:29:34.95Z</time></trkpt><trkpt lat="44.0892317" lon="8.174425"><ele>186.66666666666666</ele><time>2026-04-10T14:29:36.951Z</time></trkpt><trkpt lat="44.089305" lon="8.1744667"><ele>185.83333333333331</ele><time>2026-04-10T14:29:39.95Z</time></trkpt><trkpt lat="44.0893717" lon="8.174535"><ele>185.0</ele><time>2026-04-10T14:29:42.95Z</time></trkpt><trkpt lat="44.0894333" lon="8.1745567"><ele>185.0</ele><time>2026-04-10T14:29:45.95Z</time></trkpt><trkpt lat="44.0895333" lon="8.1745267"><ele>185.0</ele><time>2026-04-10T14:29:53.95Z</time></trkpt><trkpt lat="44.089625" lon="8.1744983"><ele>185.0</ele><time>2026-04-10T14:29:55.95Z</time></trkpt><trkpt lat="44.0897183" lon="8.174495"><ele>185.0</ele><time>2026-04-10T14:29:57.95Z</time></trkpt><trkpt lat="44.0897767" lon="8.1745767"><ele>185.0</ele><time>2026-04-10T14:30:00.95Z</time></trkpt><trkpt lat="44.089745" lon="8.1746617"><ele>185.0</ele><time>2026-04-10T14:30:02.951Z</time></trkpt><trkpt lat="44.0897133" lon="8.174785"><ele>183.4</ele><time>2026-04-10T14:30:04.95Z</time></trkpt><trkpt lat="44.08966" lon="8.17492"><ele>181.8</ele><time>2026-04-10T14:30:06.95Z</time></trkpt><trkpt lat="44.0896283" lon="8.17504"><ele>180.2</ele><time>2026-04-10T14:30:08.95Z</time></trkpt><trkpt lat="44.08964" lon="8.1751717"><ele>178.6</ele><time>2026-04-10T14:30:10.95Z</time></trkpt><trkpt lat="44.0896733" lon="8.1752733"><ele>177.0</ele><time>2026-04-10T14:30:12.95Z</time></trkpt><trkpt lat="44.08972" lon="8.1753633"><ele>177.0</ele><time>2026-04-10T14:30:14.95Z</time></trkpt><trkpt lat="44.08978" lon="8.175455"><ele>177.0</ele><time>2026-04-10T14:30:16.95Z</time></trkpt><trkpt lat="44.0898833" lon="8.1754883"><ele>177.0</ele><time>2026-04-10T14:30:18.95Z</time></trkpt><trkpt lat="44.0899833" lon="8.175505"><ele>177.0</ele><time>2026-04-10T14:30:20.95Z</time></trkpt><trkpt lat="44.0900483" lon="8.175515"><ele>177.0</ele><time>2026-04-10T14:30:21.95Z</time></trkpt><trkpt lat="44.09012" lon="8.1755067"><ele>177.0</ele><time>2026-04-10T14:30:22.95Z</time></trkpt><trkpt lat="44.090195" lon="8.1755"><ele>178.83333333333334</ele><time>2026-04-10T14:30:23.95Z</time></trkpt><trkpt lat="44.09026" lon="8.17549"><ele>180.66666666666666</ele><time>2026-04-10T14:30:24.95Z</time></trkpt><trkpt lat="44.09036" lon="8.1754733"><ele>182.5</ele><time>2026-04-10T14:30:26.95Z</time></trkpt><trkpt lat="44.0904367" lon="8.1754517"><ele>184.33333333333331</ele><time>2026-04-10T14:30:29.95Z</time></trkpt><trkpt lat="44.0904333" lon="8.1755433"><ele>186.16666666666666</ele><time>2026-04-10T14:30:32.95Z</time></trkpt><trkpt lat="44.09039" lon="8.1756367"><ele>188.0</ele><time>2026-04-10T14:30:34.95Z</time></trkpt><trkpt lat="44.090355" lon="8.1757483"><ele>188.0</ele><time>2026-04-10T14:30:36.951Z</time></trkpt><trkpt lat="44.090325" lon="8.175895"><ele>188.0</ele><time>2026-04-10T14:30:38.95Z</time></trkpt><trkpt lat="44.0903283" lon="8.1760183"><ele>188.0</ele><time>2026-04-10T14:30:40.951Z</time></trkpt><trkpt lat="44.09036" lon="8.1761583"><ele>188.0</ele><time>2026-04-10T14:30:42.95Z</time></trkpt><trkpt lat="44.0903917" lon="8.1762933"><ele>188.0</ele><time>2026-04-10T14:30:44.95Z</time></trkpt><trkpt lat="44.090415" lon="8.1764033"><ele>188.0</ele><time>2026-04-10T14:30:46.951Z</time></trkpt><trkpt lat="44.0904467" lon="8.176495"><ele>188.0</ele><time>2026-04-10T14:30:48.951Z</time></trkpt><trkpt lat="44.0904783" lon="8.17661"><ele>188.0</ele><time>2026-04-10T14:30:50.95Z</time></trkpt><trkpt lat="44.0904583" lon="8.1767067"><ele>188.0</ele><time>2026-04-10T14:30:52.95Z</time></trkpt><trkpt lat="44.0903517" lon="8.17678"><ele>188.0</ele><time>2026-04-10T14:30:54.95Z</time></trkpt><trkpt lat="44.090255" lon="8.1768117"><ele>188.2</ele><time>2026-04-10T14:30:56.95Z</time></trkpt><trkpt lat="44.09019" lon="8.1768567"><ele>188.4</ele><time>2026-04-10T14:31:00.95Z</time></trkpt><trkpt lat="44.0901183" lon="8.1769383"><ele>188.6</ele><time>2026-04-10T14:31:03.951Z</time></trkpt><trkpt lat="44.0900617" lon="8.1770083"><ele>188.79999999999998</ele><time>2026-04-10T14:31:05.951Z</time></trkpt><trkpt lat="44.0900283" lon="8.1771267"><ele>189.0</ele><time>2026-04-10T14:31:07.95Z</time></trkpt><trkpt lat="44.09002" lon="8.17729"><ele>191.0</ele><time>2026-04-10T14:31:09.95Z</time></trkpt><trkpt lat="44.0900083" lon="8.17738"><ele>193.0</ele><time>2026-04-10T14:31:10.95Z</time></trkpt><trkpt lat="44.0899833" lon="8.177535"><ele>195.0</ele><time>2026-04-10T14:31:12.95Z</time></trkpt><trkpt lat="44.08996" lon="8.1776317"><ele>197.0</ele><time>2026-04-10T14:31:14.95Z</time></trkpt><trkpt lat="44.0899767" lon="8.1777417"><ele>199.0</ele><time>2026-04-10T14:31:16.95Z</time></trkpt><trkpt lat="44.0900183" lon="8.1778883"><ele>201.0</ele><time>2026-04-10T14:31:18.951Z</time></trkpt><trkpt lat="44.0900517" lon="8.1780017"><ele>201.0</ele><time>2026-04-10T14:31:20.95Z</time></trkpt><trkpt lat="44.090095" lon="8.1781583"><ele>201.0</ele><time>2026-04-10T14:31:22.95Z</time></trkpt><trkpt lat="44.0901383" lon="8.1782767"><ele>201.0</ele><time>2026-04-10T14:31:24.95Z</time></trkpt><trkpt lat="44.0901633" lon="8.1783733"><ele>201.0</ele><time>2026-04-10T14:31:26.95Z</time></trkpt><trkpt lat="44.0901783" lon="8.178475"><ele>201.0</ele><time>2026-04-10T14:31:28.95Z</time></trkpt><trkpt lat="44.0901417" lon="8.1785533"><ele>201.0</ele><time>2026-04-10T14:31:30.95Z</time></trkpt><trkpt lat="44.090105" lon="8.1786367"><ele>200.83333333333334</ele><time>2026-04-10T14:31:33.95Z</time></trkpt><trkpt lat="44.090045" lon="8.1787267"><ele>200.66666666666669</ele><time>2026-04-10T14:31:39.951Z</time></trkpt><trkpt lat="44.09" lon="8.178825"><ele>200.5</ele><time>2026-04-10T14:31:41.95Z</time></trkpt><trkpt lat="44.0899767" lon="8.1789333"><ele>200.33333333333334</ele><time>2026-04-10T14:31:43.95Z</time></trkpt><trkpt lat="44.0899583" lon="8.179045"><ele>200.16666666666669</ele><time>2026-04-10T14:31:45.951Z</time></trkpt><trkpt lat="44.0899483" lon="8.1791617"><ele>200.0</ele><time>2026-04-10T14:31:47.951Z</time></trkpt><trkpt lat="44.089915" lon="8.179265"><ele>194.33333333333334</ele><time>2026-04-10T14:31:49.95Z</time></trkpt><trkpt lat="44.0898467" lon="8.1793133"><ele>188.66666666666669</ele><time>2026-04-10T14:31:51.95Z</time></trkpt><trkpt lat="44.0897967" lon="8.1793883"><ele>183.0</ele><time>2026-04-10T14:31:53.95Z</time></trkpt><trkpt lat="44.0897517" lon="8.1795"><ele>177.33333333333334</ele><time>2026-04-10T14:31:55.95Z</time></trkpt><trkpt lat="44.08971" lon="8.1795983"><ele>171.66666666666669</ele><time>2026-04-10T14:31:57.951Z</time></trkpt><trkpt lat="44.08968" lon="8.17968"><ele>166.0</ele><time>2026-04-10T14:31:59.95Z</time></trkpt><trkpt lat="44.089645" lon="8.1797667"><ele>166.0</ele><time>2026-04-10T14:32:01.95Z</time></trkpt><trkpt lat="44.0895867" lon="8.1798517"><ele>166.0</ele><time>2026-04-10T14:32:03.95Z</time></trkpt><trkpt lat="44.0895" lon="8.1798883"><ele>166.0</ele><time>2026-04-10T14:32:05.95Z</time></trkpt><trkpt lat="44.0894383" lon="8.179925"><ele>166.0</ele><time>2026-04-10T14:32:07.95Z</time></trkpt><trkpt lat="44.0893783" lon="8.1799917"><ele>166.0</ele><time>2026-04-10T14:32:10.95Z</time></trkpt><trkpt lat="44.0893283" lon="8.1800633"><ele>166.0</ele><time>2026-04-10T14:32:12.95Z</time></trkpt><trkpt lat="44.0892817" lon="8.1801617"><ele>166.0</ele><time>2026-04-10T14:32:14.95Z</time></trkpt><trkpt lat="44.0892633" lon="8.1802683"><ele>166.0</ele><time>2026-04-10T14:32:16.951Z</time></trkpt><trkpt lat="44.0892733" lon="8.1803683"><ele>166.0</ele><time>2026-04-10T14:32:18.95Z</time></trkpt><trkpt lat="44.0892417" lon="8.1804483"><ele>166.0</ele><time>2026-04-10T14:32:20.95Z</time></trkpt><trkpt lat="44.08917" lon="8.18051"><ele>166.0</ele><time>2026-04-10T14:32:23.95Z</time></trkpt><trkpt lat="44.08919" lon="8.1806083"><ele>166.0</ele><time>2026-04-10T14:32:26.951Z</time></trkpt><trkpt lat="44.0892217" lon="8.1807067"><ele>165.0</ele><time>2026-04-10T14:32:29.95Z</time></trkpt><trkpt lat="44.0892017" lon="8.1807983"><ele>164.0</ele><time>2026-04-10T14:32:31.95Z</time></trkpt><trkpt lat="44.08914" lon="8.18087"><ele>163.0</ele><time>2026-04-10T14:32:33.95Z</time></trkpt><trkpt lat="44.0890883" lon="8.1809483"><ele>162.0</ele><time>2026-04-10T14:32:35.95Z</time></trkpt><trkpt lat="44.08903" lon="8.1810017"><ele>161.0</ele><time>2026-04-10T14:32:37.95Z</time></trkpt><trkpt lat="44.08901" lon="8.1811083"><ele>160.0</ele><time>2026-04-10T14:32:40.95Z</time></trkpt><trkpt lat="44.0890017" lon="8.181245"><ele>157.0</ele><time>2026-04-10T14:32:43.95Z</time></trkpt><trkpt lat="44.0889683" lon="8.1813767"><ele>154.0</ele><time>2026-04-10T14:32:45.95Z</time></trkpt><trkpt lat="44.0889133" lon="8.1814283"><ele>151.0</ele><time>2026-04-10T14:32:47.95Z</time></trkpt><trkpt lat="44.0888533" lon="8.1815167"><ele>148.0</ele><time>2026-04-10T14:32:50.95Z</time></trkpt><trkpt lat="44.08888" lon="8.1816333"><ele>145.0</ele><time>2026-04-10T14:32:53.95Z</time></trkpt><trkpt lat="44.0888083" lon="8.18172"><ele>142.0</ele><time>2026-04-10T14:32:56.95Z</time></trkpt><trkpt lat="44.0887483" lon="8.181795"><ele>140.5</ele><time>2026-04-10T14:32:58.95Z</time></trkpt><trkpt lat="44.0887283" lon="8.1818967"><ele>139.0</ele><time>2026-04-10T14:33:00.95Z</time></trkpt><trkpt lat="44.08869" lon="8.1819817"><ele>137.5</ele><time>2026-04-10T14:33:02.951Z</time></trkpt><trkpt lat="44.0886267" lon="8.18204"><ele>136.0</ele><time>2026-04-10T14:33:04.95Z</time></trkpt><trkpt lat="44.0885433" lon="8.1820533"><ele>134.5</ele><time>2026-04-10T14:33:06.95Z</time></trkpt><trkpt lat="44.0884817" lon="8.1820883"><ele>133.0</ele><time>2026-04-10T14:33:08.95Z</time></trkpt><trkpt lat="44.088445" lon="8.1822"><ele>133.0</ele><time>2026-04-10T14:33:11.95Z</time></trkpt><trkpt lat="44.0883783" lon="8.1823033"><ele>133.0</ele><time>2026-04-10T14:33:14.95Z</time></trkpt><trkpt lat="44.0883083" lon="8.1823583"><ele>133.0</ele><time>2026-04-10T14:33:16.951Z</time></trkpt><trkpt lat="44.0882217" lon="8.1823567"><ele>133.0</ele><time>2026-04-10T14:33:19.95Z</time></trkpt><trkpt lat="44.0881483" lon="8.1823067"><ele>133.0</ele><time>2026-04-10T14:33:25.95Z</time></trkpt><trkpt lat="44.08811" lon="8.1824017"><ele>133.0</ele><time>2026-04-10T14:33:28.95Z</time></trkpt><trkpt lat="44.0880883" lon="8.182535"><ele>131.5</ele><time>2026-04-10T14:33:31.95Z</time></trkpt><trkpt lat="44.0880967" lon="8.1826367"><ele>130.0</ele><time>2026-04-10T14:33:33.95Z</time></trkpt><trkpt lat="44.0881467" lon="8.182725"><ele>128.5</ele><time>2026-04-10T14:33:35.95Z</time></trkpt><trkpt lat="44.0882083" lon="8.1828"><ele>127.0</ele><time>2026-04-10T14:33:37.95Z</time></trkpt><trkpt lat="44.0882767" lon="8.18283"><ele>125.50000000000001</ele><time>2026-04-10T14:33:39.95Z</time></trkpt><trkpt lat="44.0882933" lon="8.1829683"><ele>124.0</ele><time>2026-04-10T14:33:43.95Z</time></trkpt><trkpt lat="44.0882567" lon="8.1831017"><ele>121.83333333333334</ele><time>2026-04-10T14:33:45.95Z</time></trkpt><trkpt lat="44.0881717" lon="8.1831833"><ele>119.66666666666667</ele><time>2026-04-10T14:33:47.95Z</time></trkpt><trkpt lat="44.0881167" lon="8.1832483"><ele>117.5</ele><time>2026-04-10T14:33:48.95Z</time></trkpt><trkpt lat="44.0880617" lon="8.1833033"><ele>115.33333333333334</ele><time>2026-04-10T14:33:49.95Z</time></trkpt><trkpt lat="44.0879783" lon="8.183335"><ele>113.16666666666667</ele><time>2026-04-10T14:33:51.951Z</time></trkpt><trkpt lat="44.0879433" lon="8.1834083"><ele>111.0</ele><time>2026-04-10T14:33:54.95Z</time></trkpt><trkpt lat="44.0879933" lon="8.183555"><ele>111.0</ele><time>2026-04-10T14:33:56.95Z</time></trkpt><trkpt lat="44.0880717" lon="8.1836533"><ele>111.0</ele><time>2026-04-10T14:33:58.95Z</time></trkpt><trkpt lat="44.0881483" lon="8.18367"><ele>111.0</ele><time>2026-04-10T14:34:00.95Z</time></trkpt><trkpt lat="44.0882783" lon="8.1836717"><ele>111.0</ele><time>2026-04-10T14:34:02.95Z</time></trkpt><trkpt lat="44.0883517" lon="8.1837067"><ele>111.0</ele><time>2026-04-10T14:34:03.95Z</time></trkpt><trkpt lat="44.08843" lon="8.18372"><ele>112.16666666666667</ele><time>2026-04-10T14:34:04.951Z</time></trkpt><trkpt lat="44.0885" lon="8.1837283"><ele>113.33333333333334</ele><time>2026-04-10T14:34:05.95Z</time></trkpt><trkpt lat="44.088575" lon="8.183735"><ele>114.5</ele><time>2026-04-10T14:34:06.95Z</time></trkpt><trkpt lat="44.0886517" lon="8.1837417"><ele>115.66666666666667</ele><time>2026-04-10T14:34:07.951Z</time></trkpt><trkpt lat="44.0887233" lon="8.1837383"><ele>116.83333333333334</ele><time>2026-04-10T14:34:08.95Z</time></trkpt><trkpt lat="44.0888017" lon="8.1837883"><ele>118.0</ele><time>2026-04-10T14:34:10.95Z</time></trkpt><trkpt lat="44.0887917" lon="8.183905"><ele>117.33333333333334</ele><time>2026-04-10T14:34:12.95Z</time></trkpt><trkpt lat="44.088735" lon="8.1840667"><ele>116.66666666666667</ele><time>2026-04-10T14:34:14.95Z</time></trkpt><trkpt lat="44.0887033" lon="8.1841467"><ele>116.0</ele><time>2026-04-10T14:34:15.95Z</time></trkpt><trkpt lat="44.0886783" lon="8.1842383"><ele>115.33333333333334</ele><time>2026-04-10T14:34:16.95Z</time></trkpt><trkpt lat="44.088645" lon="8.1843433"><ele>114.66666666666667</ele><time>2026-04-10T14:34:17.951Z</time></trkpt><trkpt lat="44.0886117" lon="8.1844383"><ele>114.0</ele><time>2026-04-10T14:34:18.951Z</time></trkpt><trkpt lat="44.0885883" lon="8.1845267"><ele>114.0</ele><time>2026-04-10T14:34:19.95Z</time></trkpt><trkpt lat="44.088575" lon="8.1846133"><ele>114.0</ele><time>2026-04-10T14:34:20.95Z</time></trkpt><trkpt lat="44.0885617" lon="8.1847033"><ele>114.0</ele><time>2026-04-10T14:34:21.95Z</time></trkpt><trkpt lat="44.0885383" lon="8.1847967"><ele>114.0</ele><time>2026-04-10T14:34:22.95Z</time></trkpt><trkpt lat="44.0885517" lon="8.1849417"><ele>114.0</ele><time>2026-04-10T14:34:24.95Z</time></trkpt><trkpt lat="44.0886267" lon="8.1850467"><ele>114.0</ele><time>2026-04-10T14:34:26.95Z</time></trkpt><trkpt lat="44.0887333" lon="8.1851283"><ele>115.0</ele><time>2026-04-10T14:34:28.951Z</time></trkpt><trkpt lat="44.088795" lon="8.185155"><ele>116.0</ele><time>2026-04-10T14:34:29.95Z</time></trkpt><trkpt lat="44.0888683" lon="8.185165"><ele>117.0</ele><time>2026-04-10T14:34:30.95Z</time></trkpt><trkpt lat="44.088935" lon="8.185185"><ele>118.0</ele><time>2026-04-10T14:34:31.95Z</time></trkpt><trkpt lat="44.089045" lon="8.1852117"><ele>119.0</ele><time>2026-04-10T14:34:33.95Z</time></trkpt><trkpt lat="44.0890683" lon="8.185295"><ele>120.0</ele><time>2026-04-10T14:34:36.95Z</time></trkpt><trkpt lat="44.0890383" lon="8.1853833"><ele>120.0</ele><time>2026-04-10T14:34:39.95Z</time></trkpt><trkpt lat="44.089075" lon="8.1854883"><ele>120.0</ele><time>2026-04-10T14:34:41.95Z</time></trkpt><trkpt lat="44.0891083" lon="8.1855683"><ele>120.0</ele><time>2026-04-10T14:34:42.95Z</time></trkpt><trkpt lat="44.0891383" lon="8.18565"><ele>120.0</ele><time>2026-04-10T14:34:43.95Z</time></trkpt><trkpt lat="44.0891867" lon="8.1857717"><ele>120.0</ele><time>2026-04-10T14:34:45.95Z</time></trkpt><trkpt lat="44.0892217" lon="8.18587"><ele>120.0</ele><time>2026-04-10T14:34:47.95Z</time></trkpt><trkpt lat="44.0892633" lon="8.18595"><ele>121.33333333333333</ele><time>2026-04-10T14:34:49.95Z</time></trkpt><trkpt lat="44.089305" lon="8.1860183"><ele>122.66666666666666</ele><time>2026-04-10T14:34:51.95Z</time></trkpt><trkpt lat="44.08938" lon="8.1860467"><ele>124.0</ele><time>2026-04-10T14:34:53.95Z</time></trkpt><trkpt lat="44.0894467" lon="8.1860867"><ele>125.33333333333333</ele><time>2026-04-10T14:34:55.95Z</time></trkpt><trkpt lat="44.08951" lon="8.1861017"><ele>126.66666666666666</ele><time>2026-04-10T14:34:57.95Z</time></trkpt><trkpt lat="44.0895833" lon="8.1861333"><ele>128.0</ele><time>2026-04-10T14:35:00.951Z</time></trkpt><trkpt lat="44.0896717" lon="8.1861817"><ele>127.99999999999999</ele><time>2026-04-10T14:35:03.95Z</time></trkpt><trkpt lat="44.0897" lon="8.186275"><ele>128.0</ele><time>2026-04-10T14:35:06.95Z</time></trkpt><trkpt lat="44.089695" lon="8.1863667"><ele>128.0</ele><time>2026-04-10T14:35:09.95Z</time></trkpt><trkpt lat="44.0897067" lon="8.1864967"><ele>128.0</ele><time>2026-04-10T14:35:11.951Z</time></trkpt><trkpt lat="44.0896917" lon="8.1866317"><ele>127.99999999999999</ele><time>2026-04-10T14:35:13.95Z</time></trkpt><trkpt lat="44.089685" lon="8.186735"><ele>128.0</ele><time>2026-04-10T14:35:18.95Z</time></trkpt><trkpt lat="44.08967" lon="8.1868267"><ele>128.5</ele><time>2026-04-10T14:35:20.95Z</time></trkpt><trkpt lat="44.0896333" lon="8.1869017"><ele>129.0</ele><time>2026-04-10T14:35:22.95Z</time></trkpt><trkpt lat="44.0896033" lon="8.1869817"><ele>129.5</ele><time>2026-04-10T14:35:24.95Z</time></trkpt><trkpt lat="44.0896067" lon="8.1870867"><ele>130.0</ele><time>2026-04-10T14:35:26.95Z</time></trkpt><trkpt lat="44.0896367" lon="8.1872067"><ele>130.5</ele><time>2026-04-10T14:35:28.95Z</time></trkpt><trkpt lat="44.0896467" lon="8.18733"><ele>131.0</ele><time>2026-04-10T14:35:30.951Z</time></trkpt><trkpt lat="44.0896433" lon="8.18744"><ele>134.0</ele><time>2026-04-10T14:35:32.95Z</time></trkpt><trkpt lat="44.0896267" lon="8.1875467"><ele>137.0</ele><time>2026-04-10T14:35:35.95Z</time></trkpt><trkpt lat="44.0896067" lon="8.187645"><ele>140.0</ele><time>2026-04-10T14:35:52.95Z</time></trkpt><trkpt lat="44.0896133" lon="8.1877617"><ele>143.0</ele><time>2026-04-10T14:35:55.95Z</time></trkpt><trkpt lat="44.08968" lon="8.1878133"><ele>146.0</ele><time>2026-04-10T14:35:58.95Z</time></trkpt><trkpt lat="44.0897" lon="8.187935"><ele>149.0</ele><time>2026-04-10T14:36:01.95Z</time></trkpt><trkpt lat="44.08971" lon="8.1880567"><ele>149.0</ele><time>2026-04-10T14:36:03.951Z</time></trkpt><trkpt lat="44.0897317" lon="8.1881567"><ele>149.0</ele><time>2026-04-10T14:36:05.95Z</time></trkpt><trkpt lat="44.0897783" lon="8.1882317"><ele>149.0</ele><time>2026-04-10T14:36:07.95Z</time></trkpt><trkpt lat="44.089815" lon="8.18832"><ele>149.0</ele><time>2026-04-10T14:36:09.95Z</time></trkpt><trkpt lat="44.0898233" lon="8.18841"><ele>149.0</ele><time>2026-04-10T14:36:27.95Z</time></trkpt><trkpt lat="44.0897617" lon="8.18845"><ele>149.0</ele><time>2026-04-10T14:36:30.951Z</time></trkpt><trkpt lat="44.0896717" lon="8.188485"><ele>149.0</ele><time>2026-04-10T14:36:32.95Z</time></trkpt><trkpt lat="44.0895967" lon="8.1885183"><ele>151.8</ele><time>2026-04-10T14:36:34.95Z</time></trkpt><trkpt lat="44.0895133" lon="8.1885317"><ele>154.60000000000002</ele><time>2026-04-10T14:36:36.95Z</time></trkpt><trkpt lat="44.0894067" lon="8.188565"><ele>157.4</ele><time>2026-04-10T14:36:38.95Z</time></trkpt><trkpt lat="44.089345" lon="8.1885833"><ele>160.20000000000002</ele><time>2026-04-10T14:36:39.95Z</time></trkpt><trkpt lat="44.0892283" lon="8.188625"><ele>163.0</ele><time>2026-04-10T14:36:41.95Z</time></trkpt><trkpt lat="44.08912" lon="8.18865"><ele>160.4</ele><time>2026-04-10T14:36:43.951Z</time></trkpt><trkpt lat="44.089" lon="8.1886883"><ele>157.8</ele><time>2026-04-10T14:36:45.95Z</time></trkpt><trkpt lat="44.0888967" lon="8.1887517"><ele>155.2</ele><time>2026-04-10T14:36:47.95Z</time></trkpt><trkpt lat="44.0888283" lon="8.1887733"><ele>152.6</ele><time>2026-04-10T14:36:48.95Z</time></trkpt><trkpt lat="44.088745" lon="8.188825"><ele>150.0</ele><time>2026-04-10T14:36:50.95Z</time></trkpt><trkpt lat="44.0886783" lon="8.1888783"><ele>150.0</ele><time>2026-04-10T14:36:52.95Z</time></trkpt><trkpt lat="44.0885833" lon="8.1889217"><ele>150.0</ele><time>2026-04-10T14:36:54.95Z</time></trkpt><trkpt lat="44.088475" lon="8.18898"><ele>150.0</ele><time>2026-04-10T14:36:56.95Z</time></trkpt><trkpt lat="44.0883817" lon="8.1890067"><ele>150.0</ele><time>2026-04-10T14:36:58.951Z</time></trkpt><trkpt lat="44.08828" lon="8.1890183"><ele>150.0</ele><time>2026-04-10T14:37:00.951Z</time></trkpt><trkpt lat="44.0881883" lon="8.1890433"><ele>150.33333333333334</ele><time>2026-04-10T14:37:02.95Z</time></trkpt><trkpt lat="44.0881233" lon="8.1890733"><ele>150.66666666666666</ele><time>2026-04-10T14:37:03.95Z</time></trkpt><trkpt lat="44.08806" lon="8.1890817"><ele>151.0</ele><time>2026-04-10T14:37:04.95Z</time></trkpt><trkpt lat="44.0879433" lon="8.189055"><ele>151.33333333333331</ele><time>2026-04-10T14:37:06.95Z</time></trkpt><trkpt lat="44.0878467" lon="8.1890567"><ele>151.66666666666666</ele><time>2026-04-10T14:37:08.95Z</time></trkpt><trkpt lat="44.0877583" lon="8.1891017"><ele>152.0</ele><time>2026-04-10T14:37:10.95Z</time></trkpt><trkpt lat="44.08765" lon="8.1891333"><ele>152.0</ele><time>2026-04-10T14:37:12.95Z</time></trkpt><trkpt lat="44.0875483" lon="8.1891483"><ele>152.0</ele><time>2026-04-10T14:37:14.95Z</time></trkpt><trkpt lat="44.0874867" lon="8.18919"><ele>152.0</ele><time>2026-04-10T14:37:16.95Z</time></trkpt><trkpt lat="44.0874567" lon="8.189285"><ele>152.0</ele><time>2026-04-10T14:37:18.951Z</time></trkpt><trkpt lat="44.0874417" lon="8.1893933"><ele>152.0</ele><time>2026-04-10T14:37:20.95Z</time></trkpt><trkpt lat="44.0874283" lon="8.1895183"><ele>152.0</ele><time>2026-04-10T14:37:23.95Z</time></trkpt><trkpt lat="44.087375" lon="8.1896217"><ele>149.57142857142856</ele><time>2026-04-10T14:37:26.95Z</time></trkpt><trkpt lat="44.0873283" lon="8.18971"><ele>147.14285714285717</ele><time>2026-04-10T14:37:29.95Z</time></trkpt><trkpt lat="44.0873183" lon="8.1898183"><ele>144.71428571428572</ele><time>2026-04-10T14:37:32.95Z</time></trkpt><trkpt lat="44.0873583" lon="8.1899067"><ele>142.28571428571428</ele><time>2026-04-10T14:37:36.95Z</time></trkpt><trkpt lat="44.0873367" lon="8.1900017"><ele>139.85714285714283</ele><time>2026-04-10T14:37:40.95Z</time></trkpt><trkpt lat="44.0873117" lon="8.1901033"><ele>137.42857142857142</ele><time>2026-04-10T14:37:44.95Z</time></trkpt><trkpt lat="44.08727" lon="8.1901733"><ele>135.0</ele><time>2026-04-10T14:37:48.95Z</time></trkpt><trkpt lat="44.0872133" lon="8.1902467"><ele>133.83333333333334</ele><time>2026-04-10T14:38:42.95Z</time></trkpt><trkpt lat="44.0872167" lon="8.1903433"><ele>132.66666666666666</ele><time>2026-04-10T14:38:45.95Z</time></trkpt><trkpt lat="44.0871383" lon="8.1903917"><ele>131.5</ele><time>2026-04-10T14:38:50.95Z</time></trkpt><trkpt lat="44.0870517" lon="8.1904"><ele>130.33333333333331</ele><time>2026-04-10T14:38:52.951Z</time></trkpt><trkpt lat="44.0869817" lon="8.190375"><ele>129.16666666666666</ele><time>2026-04-10T14:38:54.95Z</time></trkpt><trkpt lat="44.0869017" lon="8.1903233"><ele>128.0</ele><time>2026-04-10T14:38:57.95Z</time></trkpt><trkpt lat="44.08682" lon="8.1903267"><ele>127.99999999999999</ele><time>2026-04-10T14:39:01.95Z</time></trkpt><trkpt lat="44.0867567" lon="8.19027"><ele>128.0</ele><time>2026-04-10T14:39:04.95Z</time></trkpt><trkpt lat="44.086705" lon="8.190185"><ele>128.0</ele><time>2026-04-10T14:39:06.95Z</time></trkpt><trkpt lat="44.086645" lon="8.19012"><ele>128.0</ele><time>2026-04-10T14:39:08.95Z</time></trkpt><trkpt lat="44.08658" lon="8.1900533"><ele>127.99999999999999</ele><time>2026-04-10T14:39:10.95Z</time></trkpt><trkpt lat="44.0865083" lon="8.1900033"><ele>128.0</ele><time>2026-04-10T14:39:13.95Z</time></trkpt><trkpt lat="44.086435" lon="8.189975"><ele>123.33333333333333</ele><time>2026-04-10T14:39:18.95Z</time></trkpt><trkpt lat="44.0863717" lon="8.1899017"><ele>118.66666666666666</ele><time>2026-04-10T14:39:21.95Z</time></trkpt><trkpt lat="44.086315" lon="8.1898617"><ele>114.0</ele><time>2026-04-10T14:39:23.95Z</time></trkpt><trkpt lat="44.0862417" lon="8.1898417"><ele>109.33333333333334</ele><time>2026-04-10T14:39:26.95Z</time></trkpt><trkpt lat="44.0861517" lon="8.1897917"><ele>104.66666666666667</ele><time>2026-04-10T14:39:29.95Z</time></trkpt><trkpt lat="44.0860933" lon="8.1897217"><ele>100.0</ele><time>2026-04-10T14:39:31.95Z</time></trkpt><trkpt lat="44.0860433" lon="8.189775"><ele>99.16666666666667</ele><time>2026-04-10T14:39:36.95Z</time></trkpt><trkpt lat="44.0860883" lon="8.189865"><ele>98.33333333333334</ele><time>2026-04-10T14:39:38.95Z</time></trkpt><trkpt lat="44.0861483" lon="8.1899767"><ele>97.5</ele><time>2026-04-10T14:39:40.951Z</time></trkpt><trkpt lat="44.0862233" lon="8.1900833"><ele>96.66666666666667</ele><time>2026-04-10T14:39:42.95Z</time></trkpt><trkpt lat="44.0862667" lon="8.1901633"><ele>95.83333333333334</ele><time>2026-04-10T14:39:44.95Z</time></trkpt><trkpt lat="44.086265" lon="8.1902617"><ele>95.0</ele><time>2026-04-10T14:39:46.95Z</time></trkpt><trkpt lat="44.086265" lon="8.190385"><ele>95.0</ele><time>2026-04-10T14:39:48.951Z</time></trkpt><trkpt lat="44.086285" lon="8.1905167"><ele>95.0</ele><time>2026-04-10T14:39:50.95Z</time></trkpt><trkpt lat="44.086325" lon="8.19065"><ele>95.0</ele><time>2026-04-10T14:39:52.95Z</time></trkpt><trkpt lat="44.0863933" lon="8.190755"><ele>95.0</ele><time>2026-04-10T14:39:54.95Z</time></trkpt><trkpt lat="44.0864617" lon="8.1908567"><ele>95.0</ele><time>2026-04-10T14:39:56.95Z</time></trkpt><trkpt lat="44.08654" lon="8.190945"><ele>96.6</ele><time>2026-04-10T14:39:58.95Z</time></trkpt><trkpt lat="44.0866367" lon="8.191025"><ele>98.2</ele><time>2026-04-10T14:40:00.951Z</time></trkpt><trkpt lat="44.086675" lon="8.191105"><ele>99.80000000000001</ele><time>2026-04-10T14:40:02.95Z</time></trkpt><trkpt lat="44.086695" lon="8.1912483"><ele>101.4</ele><time>2026-04-10T14:40:05.95Z</time></trkpt><trkpt lat="44.0867167" lon="8.19138"><ele>103.0</ele><time>2026-04-10T14:40:07.95Z</time></trkpt><trkpt lat="44.0867883" lon="8.1914733"><ele>97.60000000000001</ele><time>2026-04-10T14:40:09.95Z</time></trkpt><trkpt lat="44.0868517" lon="8.1915583"><ele>92.2</ele><time>2026-04-10T14:40:11.95Z</time></trkpt><trkpt lat="44.08693" lon="8.1915967"><ele>86.8</ele><time>2026-04-10T14:40:13.95Z</time></trkpt><trkpt lat="44.0870517" lon="8.1916633"><ele>81.4</ele><time>2026-04-10T14:40:15.951Z</time></trkpt><trkpt lat="44.087105" lon="8.1917117"><ele>76.0</ele><time>2026-04-10T14:40:16.95Z</time></trkpt><trkpt lat="44.0871767" lon="8.1917967"><ele>76.0</ele><time>2026-04-10T14:40:18.95Z</time></trkpt><trkpt lat="44.0872317" lon="8.1918717"><ele>76.0</ele><time>2026-04-10T14:40:20.951Z</time></trkpt><trkpt lat="44.0872933" lon="8.1919233"><ele>76.0</ele><time>2026-04-10T14:40:22.95Z</time></trkpt><trkpt lat="44.0873367" lon="8.1920067"><ele>76.0</ele><time>2026-04-10T14:40:25.95Z</time></trkpt><trkpt lat="44.08734" lon="8.1921117"><ele>76.0</ele><time>2026-04-10T14:40:30.95Z</time></trkpt><trkpt lat="44.0872883" lon="8.192205"><ele>76.0</ele><time>2026-04-10T14:40:33.95Z</time></trkpt><trkpt lat="44.0872083" lon="8.1922767"><ele>75.0</ele><time>2026-04-10T14:40:35.95Z</time></trkpt><trkpt lat="44.0871467" lon="8.1923467"><ele>74.0</ele><time>2026-04-10T14:40:37.95Z</time></trkpt><trkpt lat="44.087205" lon="8.19241"><ele>73.0</ele><time>2026-04-10T14:40:40.95Z</time></trkpt><trkpt lat="44.08727" lon="8.192505"><ele>72.0</ele><time>2026-04-10T14:41:07.95Z</time></trkpt><trkpt lat="44.0873733" lon="8.192625"><ele>71.0</ele><time>2026-04-10T14:41:23.951Z</time></trkpt><trkpt lat="44.087495" lon="8.19262"><ele>71.0</ele><time>2026-04-10T14:41:25.95Z</time></trkpt><trkpt lat="44.087615" lon="8.192645"><ele>71.0</ele><time>2026-04-10T14:41:27.95Z</time></trkpt><trkpt lat="44.087675" lon="8.1926783"><ele>71.0</ele><time>2026-04-10T14:41:28.95Z</time></trkpt><trkpt lat="44.0877717" lon="8.1927567"><ele>71.0</ele><time>2026-04-10T14:41:30.951Z</time></trkpt><trkpt lat="44.0878617" lon="8.1928117"><ele>71.0</ele><time>2026-04-10T14:41:32.95Z</time></trkpt><trkpt lat="44.0879233" lon="8.1928367"><ele>71.0</ele><time>2026-04-10T14:41:33.951Z</time></trkpt><trkpt lat="44.088" lon="8.1928583"><ele>71.0</ele><time>2026-04-10T14:41:34.95Z</time></trkpt><trkpt lat="44.0880733" lon="8.1928717"><ele>71.0</ele><time>2026-04-10T14:41:35.95Z</time></trkpt><trkpt lat="44.08816" lon="8.1928717"><ele>71.0</ele><time>2026-04-10T14:41:36.95Z</time></trkpt><trkpt lat="44.08825" lon="8.1928633"><ele>71.0</ele><time>2026-04-10T14:41:37.95Z</time></trkpt><trkpt lat="44.08833" lon="8.1928517"><ele>71.0</ele><time>2026-04-10T14:41:38.95Z</time></trkpt><trkpt lat="44.08842" lon="8.1928"><ele>71.0</ele><time>2026-04-10T14:41:40.95Z</time></trkpt><trkpt lat="44.0884417" lon="8.1927083"><ele>71.0</ele><time>2026-04-10T14:41:42.95Z</time></trkpt><trkpt lat="44.088405" lon="8.192615"><ele>71.0</ele><time>2026-04-10T14:41:52.951Z</time></trkpt><trkpt lat="44.0883283" lon="8.1925483"><ele>71.0</ele><time>2026-04-10T14:41:54.951Z</time></trkpt><trkpt lat="44.0882567" lon="8.1924617"><ele>71.0</ele><time>2026-04-10T14:41:57.95Z</time></trkpt><trkpt lat="44.08826" lon="8.19235"><ele>71.0</ele><time>2026-04-10T14:41:59.951Z</time></trkpt><trkpt lat="44.0883183" lon="8.192255"><ele>74.0</ele><time>2026-04-10T14:42:01.95Z</time></trkpt><trkpt lat="44.0883883" lon="8.1922067"><ele>77.0</ele><time>2026-04-10T14:42:03.95Z</time></trkpt><trkpt lat="44.0884667" lon="8.1921967"><ele>80.0</ele><time>2026-04-10T14:42:06.95Z</time></trkpt><trkpt lat="44.08856" lon="8.1921667"><ele>83.0</ele><time>2026-04-10T14:42:08.951Z</time></trkpt><trkpt lat="44.08869" lon="8.1921317"><ele>86.0</ele><time>2026-04-10T14:42:10.95Z</time></trkpt><trkpt lat="44.0887683" lon="8.1921017"><ele>86.0</ele><time>2026-04-10T14:42:11.95Z</time></trkpt><trkpt lat="44.0888417" lon="8.1920833"><ele>86.0</ele><time>2026-04-10T14:42:12.95Z</time></trkpt><trkpt lat="44.088955" lon="8.1921"><ele>86.0</ele><time>2026-04-10T14:42:14.95Z</time></trkpt><trkpt lat="44.0890733" lon="8.1921667"><ele>86.0</ele><time>2026-04-10T14:42:16.95Z</time></trkpt><trkpt lat="44.0891517" lon="8.1921617"><ele>86.0</ele><time>2026-04-10T14:42:17.95Z</time></trkpt><trkpt lat="44.0892167" lon="8.19215"><ele>87.5</ele><time>2026-04-10T14:42:18.95Z</time></trkpt><trkpt lat="44.0893317" lon="8.192125"><ele>89.0</ele><time>2026-04-10T14:42:20.95Z</time></trkpt><trkpt lat="44.0894317" lon="8.1921533"><ele>90.5</ele><time>2026-04-10T14:42:22.95Z</time></trkpt><trkpt lat="44.0895367" lon="8.1921867"><ele>92.0</ele><time>2026-04-10T14:42:24.95Z</time></trkpt><trkpt lat="44.0896667" lon="8.192175"><ele>92.0</ele><time>2026-04-10T14:42:26.95Z</time></trkpt><trkpt lat="44.0897383" lon="8.1921633"><ele>92.0</ele><time>2026-04-10T14:42:27.95Z</time></trkpt><trkpt lat="44.0898067" lon="8.1921367"><ele>92.0</ele><time>2026-04-10T14:42:28.95Z</time></trkpt><trkpt lat="44.0898767" lon="8.1921117"><ele>92.0</ele><time>2026-04-10T14:42:29.95Z</time></trkpt><trkpt lat="44.08998" lon="8.1920867"><ele>92.0</ele><time>2026-04-10T14:42:31.951Z</time></trkpt><trkpt lat="44.0901" lon="8.1920467"><ele>92.0</ele><time>2026-04-10T14:42:33.95Z</time></trkpt><trkpt lat="44.0901633" lon="8.1920267"><ele>93.5</ele><time>2026-04-10T14:42:34.95Z</time></trkpt><trkpt lat="44.0902667" lon="8.1920033"><ele>95.0</ele><time>2026-04-10T14:42:36.95Z</time></trkpt><trkpt lat="44.090345" lon="8.1919617"><ele>96.5</ele><time>2026-04-10T14:42:38.95Z</time></trkpt><trkpt lat="44.0903883" lon="8.1918717"><ele>98.0</ele><time>2026-04-10T14:42:40.95Z</time></trkpt><trkpt lat="44.0904517" lon="8.1918183"><ele>99.49999999999999</ele><time>2026-04-10T14:42:42.95Z</time></trkpt><trkpt lat="44.0905217" lon="8.1918067"><ele>101.0</ele><time>2026-04-10T14:42:44.95Z</time></trkpt><trkpt lat="44.0906233" lon="8.1917967"><ele>100.99999999999999</ele><time>2026-04-10T14:42:46.95Z</time></trkpt><trkpt lat="44.0906883" lon="8.191795"><ele>101.0</ele><time>2026-04-10T14:42:47.951Z</time></trkpt><trkpt lat="44.0907633" lon="8.1917867"><ele>101.0</ele><time>2026-04-10T14:42:48.95Z</time></trkpt><trkpt lat="44.0908383" lon="8.1917733"><ele>101.0</ele><time>2026-04-10T14:42:49.95Z</time></trkpt><trkpt lat="44.09091" lon="8.1917567"><ele>100.99999999999999</ele><time>2026-04-10T14:42:50.95Z</time></trkpt><trkpt lat="44.090985" lon="8.1917283"><ele>101.0</ele><time>2026-04-10T14:42:51.95Z</time></trkpt><trkpt lat="44.0911117" lon="8.1917167"><ele>103.83333333333333</ele><time>2026-04-10T14:42:53.951Z</time></trkpt><trkpt lat="44.09119" lon="8.1917083"><ele>106.66666666666666</ele><time>2026-04-10T14:42:54.951Z</time></trkpt><trkpt lat="44.09128" lon="8.1917017"><ele>109.5</ele><time>2026-04-10T14:42:55.95Z</time></trkpt><trkpt lat="44.0913567" lon="8.1916967"><ele>112.33333333333334</ele><time>2026-04-10T14:42:56.95Z</time></trkpt><trkpt lat="44.0914267" lon="8.1916817"><ele>115.16666666666667</ele><time>2026-04-10T14:42:57.95Z</time></trkpt><trkpt lat="44.0914967" lon="8.19168"><ele>118.0</ele><time>2026-04-10T14:42:58.95Z</time></trkpt><trkpt lat="44.091565" lon="8.1916717"><ele>120.50000000000001</ele><time>2026-04-10T14:42:59.95Z</time></trkpt><trkpt lat="44.09164" lon="8.1917083"><ele>123.0</ele><time>2026-04-10T14:43:01.95Z</time></trkpt><trkpt lat="44.091655" lon="8.191795"><ele>125.5</ele><time>2026-04-10T14:43:03.95Z</time></trkpt><trkpt lat="44.0916733" lon="8.1919367"><ele>128.0</ele><time>2026-04-10T14:43:05.95Z</time></trkpt><trkpt lat="44.0917183" lon="8.192075"><ele>130.5</ele><time>2026-04-10T14:43:07.95Z</time></trkpt><trkpt lat="44.09176" lon="8.1921767"><ele>133.0</ele><time>2026-04-10T14:43:09.951Z</time></trkpt><trkpt lat="44.0918217" lon="8.192255"><ele>133.0</ele><time>2026-04-10T14:43:12.95Z</time></trkpt><trkpt lat="44.0918917" lon="8.1923117"><ele>133.0</ele><time>2026-04-10T14:43:14.95Z</time></trkpt><trkpt lat="44.091965" lon="8.1923417"><ele>133.0</ele><time>2026-04-10T14:43:16.95Z</time></trkpt><trkpt lat="44.092055" lon="8.1923767"><ele>133.0</ele><time>2026-04-10T14:43:18.95Z</time></trkpt><trkpt lat="44.09215" lon="8.1923667"><ele>133.0</ele><time>2026-04-10T14:43:20.95Z</time></trkpt><trkpt lat="44.0922283" lon="8.1924017"><ele>133.0</ele><time>2026-04-10T14:43:22.95Z</time></trkpt><trkpt lat="44.0922867" lon="8.1924833"><ele>134.16666666666669</ele><time>2026-04-10T14:43:24.95Z</time></trkpt><trkpt lat="44.0923267" lon="8.19257"><ele>135.33333333333334</ele><time>2026-04-10T14:43:26.95Z</time></trkpt><trkpt lat="44.0923583" lon="8.1926533"><ele>136.5</ele><time>2026-04-10T14:43:28.95Z</time></trkpt><trkpt lat="44.0924183" lon="8.1927633"><ele>137.66666666666666</ele><time>2026-04-10T14:43:30.95Z</time></trkpt><trkpt lat="44.09248" lon="8.192875"><ele>138.83333333333331</ele><time>2026-04-10T14:43:32.95Z</time></trkpt><trkpt lat="44.09255" lon="8.1929717"><ele>140.0</ele><time>2026-04-10T14:43:34.95Z</time></trkpt><trkpt lat="44.09262" lon="8.19309"><ele>140.0</ele><time>2026-04-10T14:43:36.95Z</time></trkpt><trkpt lat="44.0926633" lon="8.193165"><ele>140.0</ele><time>2026-04-10T14:43:37.95Z</time></trkpt><trkpt lat="44.09271" lon="8.1932383"><ele>140.0</ele><time>2026-04-10T14:43:38.951Z</time></trkpt><trkpt lat="44.0927517" lon="8.1933117"><ele>140.0</ele><time>2026-04-10T14:43:39.95Z</time></trkpt><trkpt lat="44.0928417" lon="8.1933967"><ele>140.0</ele><time>2026-04-10T14:43:41.951Z</time></trkpt><trkpt lat="44.0929367" lon="8.19346"><ele>140.0</ele><time>2026-04-10T14:43:43.95Z</time></trkpt><trkpt lat="44.0930317" lon="8.1934933"><ele>139.6</ele><time>2026-04-10T14:43:45.951Z</time></trkpt><trkpt lat="44.09311" lon="8.1935883"><ele>139.2</ele><time>2026-04-10T14:43:47.95Z</time></trkpt><trkpt lat="44.0931767" lon="8.1937183"><ele>138.8</ele><time>2026-04-10T14:43:49.95Z</time></trkpt><trkpt lat="44.0932417" lon="8.19385"><ele>138.4</ele><time>2026-04-10T14:43:51.95Z</time></trkpt><trkpt lat="44.0933" lon="8.19397"><ele>138.0</ele><time>2026-04-10T14:43:53.95Z</time></trkpt><trkpt lat="44.0933333" lon="8.19407"><ele>138.0</ele><time>2026-04-10T14:43:55.95Z</time></trkpt><trkpt lat="44.0933167" lon="8.194185"><ele>138.0</ele><time>2026-04-10T14:43:57.951Z</time></trkpt><trkpt lat="44.0932417" lon="8.19431"><ele>138.0</ele><time>2026-04-10T14:43:59.95Z</time></trkpt><trkpt lat="44.0931767" lon="8.1943883"><ele>138.0</ele><time>2026-04-10T14:44:00.95Z</time></trkpt><trkpt lat="44.09311" lon="8.1944517"><ele>138.0</ele><time>2026-04-10T14:44:01.95Z</time></trkpt><trkpt lat="44.0930367" lon="8.1944917"><ele>138.0</ele><time>2026-04-10T14:44:02.95Z</time></trkpt><trkpt lat="44.0929617" lon="8.1945083"><ele>136.33333333333334</ele><time>2026-04-10T14:44:03.95Z</time></trkpt><trkpt lat="44.0928883" lon="8.1945017"><ele>134.66666666666666</ele><time>2026-04-10T14:44:04.95Z</time></trkpt><trkpt lat="44.09282" lon="8.1944733"><ele>133.0</ele><time>2026-04-10T14:44:05.95Z</time></trkpt><trkpt lat="44.0927617" lon="8.1944367"><ele>131.33333333333331</ele><time>2026-04-10T14:44:06.95Z</time></trkpt><trkpt lat="44.092685" lon="8.1943817"><ele>129.66666666666666</ele><time>2026-04-10T14:44:08.95Z</time></trkpt><trkpt lat="44.092705" lon="8.1944933"><ele>128.0</ele><time>2026-04-10T14:44:12.951Z</time></trkpt><trkpt lat="44.092725" lon="8.194685"><ele>127.99999999999999</ele><time>2026-04-10T14:44:14.95Z</time></trkpt><trkpt lat="44.0927217" lon="8.1948"><ele>128.0</ele><time>2026-04-10T14:44:15.95Z</time></trkpt><trkpt lat="44.092725" lon="8.1949233"><ele>128.0</ele><time>2026-04-10T14:44:16.951Z</time></trkpt><trkpt lat="44.0927433" lon="8.1950233"><ele>128.0</ele><time>2026-04-10T14:44:17.95Z</time></trkpt><trkpt lat="44.0928217" lon="8.1950967"><ele>127.99999999999999</ele><time>2026-04-10T14:44:19.95Z</time></trkpt><trkpt lat="44.09289" lon="8.1951067"><ele>128.0</ele><time>2026-04-10T14:44:20.95Z</time></trkpt><trkpt lat="44.0929917" lon="8.195105"><ele>128.6</ele><time>2026-04-10T14:44:21.95Z</time></trkpt><trkpt lat="44.093085" lon="8.1951017"><ele>129.20000000000002</ele><time>2026-04-10T14:44:22.95Z</time></trkpt><trkpt lat="44.09316" lon="8.195105"><ele>129.8</ele><time>2026-04-10T14:44:23.95Z</time></trkpt><trkpt lat="44.09327" lon="8.1951767"><ele>130.4</ele><time>2026-04-10T14:44:25.95Z</time></trkpt><trkpt lat="44.0933817" lon="8.195245"><ele>131.0</ele><time>2026-04-10T14:44:27.95Z</time></trkpt><trkpt lat="44.09349" lon="8.1953017"><ele>131.4</ele><time>2026-04-10T14:44:29.95Z</time></trkpt><trkpt lat="44.0935883" lon="8.1954017"><ele>131.8</ele><time>2026-04-10T14:44:31.95Z</time></trkpt><trkpt lat="44.0936383" lon="8.19546"><ele>132.20000000000002</ele><time>2026-04-10T14:44:32.95Z</time></trkpt><trkpt lat="44.093745" lon="8.1954883"><ele>132.6</ele><time>2026-04-10T14:44:34.95Z</time></trkpt><trkpt lat="44.0938633" lon="8.1954933"><ele>133.0</ele><time>2026-04-10T14:44:36.95Z</time></trkpt><trkpt lat="44.09393" lon="8.195515"><ele>133.0</ele><time>2026-04-10T14:44:37.95Z</time></trkpt><trkpt lat="44.09403" lon="8.19561"><ele>133.0</ele><time>2026-04-10T14:44:39.951Z</time></trkpt><trkpt lat="44.09409" lon="8.195655"><ele>133.0</ele><time>2026-04-10T14:44:40.951Z</time></trkpt><trkpt lat="44.09416" lon="8.1956817"><ele>133.0</ele><time>2026-04-10T14:44:41.951Z</time></trkpt><trkpt lat="44.0942817" lon="8.1956717"><ele>133.0</ele><time>2026-04-10T14:44:43.951Z</time></trkpt><trkpt lat="44.0943433" lon="8.195645"><ele>133.0</ele><time>2026-04-10T14:44:44.951Z</time></trkpt><trkpt lat="44.0944467" lon="8.1956317"><ele>131.6</ele><time>2026-04-10T14:44:46.951Z</time></trkpt><trkpt lat="44.0945383" lon="8.19569"><ele>130.20000000000002</ele><time>2026-04-10T14:44:48.952Z</time></trkpt><trkpt lat="44.0945867" lon="8.1958233"><ele>128.8</ele><time>2026-04-10T14:44:50.951Z</time></trkpt><trkpt lat="44.0946483" lon="8.1959483"><ele>127.4</ele><time>2026-04-10T14:44:52.951Z</time></trkpt><trkpt lat="44.0947517" lon="8.195995"><ele>126.0</ele><time>2026-04-10T14:44:54.951Z</time></trkpt><trkpt lat="44.094815" lon="8.1960067"><ele>128.5</ele><time>2026-04-10T14:44:55.951Z</time></trkpt><trkpt lat="44.094935" lon="8.1960317"><ele>131.0</ele><time>2026-04-10T14:44:57.951Z</time></trkpt><trkpt lat="44.0950383" lon="8.1960333"><ele>133.5</ele><time>2026-04-10T14:44:59.951Z</time></trkpt><trkpt lat="44.0951633" lon="8.196015"><ele>136.0</ele><time>2026-04-10T14:45:01.951Z</time></trkpt><trkpt lat="44.0952817" lon="8.1959867"><ele>136.0</ele><time>2026-04-10T14:45:03.951Z</time></trkpt><trkpt lat="44.0954" lon="8.195995"><ele>136.0</ele><time>2026-04-10T14:45:05.952Z</time></trkpt><trkpt lat="44.0955" lon="8.1960083"><ele>136.0</ele><time>2026-04-10T14:45:07.951Z</time></trkpt><trkpt lat="44.0955933" lon="8.1959767"><ele>136.0</ele><time>2026-04-10T14:45:09.951Z</time></trkpt><trkpt lat="44.095675" lon="8.195915"><ele>136.0</ele><time>2026-04-10T14:45:11.951Z</time></trkpt><trkpt lat="44.0957517" lon="8.1958333"><ele>136.0</ele><time>2026-04-10T14:45:13.951Z</time></trkpt><trkpt lat="44.0958167" lon="8.1957367"><ele>136.0</ele><time>2026-04-10T14:45:15.951Z</time></trkpt><trkpt lat="44.0958717" lon="8.1957967"><ele>136.0</ele><time>2026-04-10T14:45:19.951Z</time></trkpt><trkpt lat="44.09591" lon="8.19588"><ele>136.0</ele><time>2026-04-10T14:45:22.951Z</time></trkpt><trkpt lat="44.0959467" lon="8.19596"><ele>136.0</ele><time>2026-04-10T14:45:24.951Z</time></trkpt><trkpt lat="44.0959567" lon="8.19605"><ele>136.0</ele><time>2026-04-10T14:45:26.951Z</time></trkpt><trkpt lat="44.095925" lon="8.1962017"><ele>136.0</ele><time>2026-04-10T14:45:28.951Z</time></trkpt><trkpt lat="44.0958833" lon="8.1962933"><ele>136.0</ele><time>2026-04-10T14:45:29.952Z</time></trkpt><trkpt lat="44.0958433" lon="8.19639"><ele>136.0</ele><time>2026-04-10T14:45:30.951Z</time></trkpt><trkpt lat="44.0957983" lon="8.1964767"><ele>136.0</ele><time>2026-04-10T14:45:31.952Z</time></trkpt><trkpt lat="44.0957483" lon="8.196565"><ele>136.0</ele><time>2026-04-10T14:45:32.951Z</time></trkpt><trkpt lat="44.0956983" lon="8.196645"><ele>136.0</ele><time>2026-04-10T14:45:33.951Z</time></trkpt><trkpt lat="44.0956333" lon="8.1967167"><ele>134.16666666666669</ele><time>2026-04-10T14:45:34.951Z</time></trkpt><trkpt lat="44.0955817" lon="8.1967817"><ele>132.33333333333334</ele><time>2026-04-10T14:45:35.951Z</time></trkpt><trkpt lat="44.0954867" lon="8.1968933"><ele>130.5</ele><time>2026-04-10T14:45:37.951Z</time></trkpt><trkpt lat="44.0954167" lon="8.196935"><ele>128.66666666666666</ele><time>2026-04-10T14:45:38.952Z</time></trkpt><trkpt lat="44.095335" lon="8.196975"><ele>126.83333333333333</ele><time>2026-04-10T14:45:39.951Z</time></trkpt><trkpt lat="44.09526" lon="8.1970183"><ele>125.0</ele><time>2026-04-10T14:45:40.951Z</time></trkpt><trkpt lat="44.09519" lon="8.19708"><ele>124.99999999999999</ele><time>2026-04-10T14:45:41.951Z</time></trkpt><trkpt lat="44.09513" lon="8.1971417"><ele>125.0</ele><time>2026-04-10T14:45:42.951Z</time></trkpt><trkpt lat="44.0950683" lon="8.1972083"><ele>125.0</ele><time>2026-04-10T14:45:43.951Z</time></trkpt><trkpt lat="44.0949883" lon="8.1972883"><ele>125.0</ele><time>2026-04-10T14:45:44.952Z</time></trkpt><trkpt lat="44.0949117" lon="8.197365"><ele>124.99999999999999</ele><time>2026-04-10T14:45:45.951Z</time></trkpt><trkpt lat="44.0948333" lon="8.1974167"><ele>125.0</ele><time>2026-04-10T14:45:46.951Z</time></trkpt><trkpt lat="44.0947433" lon="8.19745"><ele>125.33333333333333</ele><time>2026-04-10T14:45:47.951Z</time></trkpt><trkpt lat="44.094655" lon="8.1974733"><ele>125.66666666666666</ele><time>2026-04-10T14:45:48.951Z</time></trkpt><trkpt lat="44.0945733" lon="8.1974883"><ele>126.0</ele><time>2026-04-10T14:45:49.951Z</time></trkpt><trkpt lat="44.0944933" lon="8.19751"><ele>126.33333333333334</ele><time>2026-04-10T14:45:50.951Z</time></trkpt><trkpt lat="44.09441" lon="8.19755"><ele>126.66666666666667</ele><time>2026-04-10T14:45:51.951Z</time></trkpt><trkpt lat="44.0943317" lon="8.1975967"><ele>127.0</ele><time>2026-04-10T14:45:52.951Z</time></trkpt><trkpt lat="44.09425" lon="8.19765"><ele>127.0</ele><time>2026-04-10T14:45:53.951Z</time></trkpt><trkpt lat="44.0941767" lon="8.1976883"><ele>126.99999999999999</ele><time>2026-04-10T14:45:54.951Z</time></trkpt><trkpt lat="44.0941017" lon="8.1977067"><ele>126.99999999999999</ele><time>2026-04-10T14:45:55.951Z</time></trkpt><trkpt lat="44.093985" lon="8.19774"><ele>127.0</ele><time>2026-04-10T14:45:57.951Z</time></trkpt><trkpt lat="44.0938767" lon="8.19774"><ele>127.0</ele><time>2026-04-10T14:45:59.952Z</time></trkpt><trkpt lat="44.0937733" lon="8.197735"><ele>125.66666666666667</ele><time>2026-04-10T14:46:01.951Z</time></trkpt><trkpt lat="44.0937067" lon="8.1977567"><ele>124.33333333333334</ele><time>2026-04-10T14:46:03.951Z</time></trkpt><trkpt lat="44.0936583" lon="8.19784"><ele>123.0</ele><time>2026-04-10T14:46:06.952Z</time></trkpt><trkpt lat="44.0936383" lon="8.1977267"><ele>121.66666666666666</ele><time>2026-04-10T14:46:17.951Z</time></trkpt><trkpt lat="44.0937083" lon="8.1976867"><ele>120.33333333333333</ele><time>2026-04-10T14:46:21.951Z</time></trkpt><trkpt lat="44.0937317" lon="8.19759"><ele>119.0</ele><time>2026-04-10T14:46:25.951Z</time></trkpt><trkpt lat="44.0936933" lon="8.1974983"><ele>118.99999999999999</ele><time>2026-04-10T14:46:30.952Z</time></trkpt><trkpt lat="44.093665" lon="8.1974033"><ele>119.0</ele><time>2026-04-10T14:46:34.952Z</time></trkpt><trkpt lat="44.09359" lon="8.1973333"><ele>119.0</ele><time>2026-04-10T14:46:38.951Z</time></trkpt><trkpt lat="44.09351" lon="8.19734"><ele>119.0</ele><time>2026-04-10T14:46:41.951Z</time></trkpt><trkpt lat="44.0934367" lon="8.1973267"><ele>118.99999999999999</ele><time>2026-04-10T14:46:45.951Z</time></trkpt><trkpt lat="44.0933917" lon="8.19726"><ele>119.0</ele><time>2026-04-10T14:46:49.951Z</time></trkpt><trkpt lat="44.0933167" lon="8.197205"><ele>116.0</ele><time>2026-04-10T14:46:53.951Z</time></trkpt><trkpt lat="44.0932367" lon="8.19718"><ele>113.0</ele><time>2026-04-10T14:46:56.951Z</time></trkpt><trkpt lat="44.0931733" lon="8.197125"><ele>110.0</ele><time>2026-04-10T14:46:59.951Z</time></trkpt><trkpt lat="44.0931033" lon="8.197125"><ele>107.0</ele><time>2026-04-10T14:47:01.951Z</time></trkpt><trkpt lat="44.0930333" lon="8.1971317"><ele>104.0</ele><time>2026-04-10T14:47:03.951Z</time></trkpt><trkpt lat="44.0929717" lon="8.19716"><ele>101.0</ele><time>2026-04-10T14:47:05.951Z</time></trkpt><trkpt lat="44.0929117" lon="8.1971967"><ele>98.0</ele><time>2026-04-10T14:47:07.951Z</time></trkpt><trkpt lat="44.0928567" lon="8.1972517"><ele>98.0</ele><time>2026-04-10T14:47:09.951Z</time></trkpt><trkpt lat="44.092805" lon="8.1973083"><ele>98.0</ele><time>2026-04-10T14:47:11.951Z</time></trkpt><trkpt lat="44.09274" lon="8.1973"><ele>98.0</ele><time>2026-04-10T14:47:14.951Z</time></trkpt><trkpt lat="44.0926867" lon="8.19721"><ele>98.0</ele><time>2026-04-10T14:47:17.951Z</time></trkpt><trkpt lat="44.0927317" lon="8.1971367"><ele>98.0</ele><time>2026-04-10T14:47:20.951Z</time></trkpt><trkpt lat="44.0926783" lon="8.1970667"><ele>98.0</ele><time>2026-04-10T14:47:51.952Z</time></trkpt><trkpt lat="44.0926117" lon="8.197105"><ele>98.0</ele><time>2026-04-10T14:47:54.951Z</time></trkpt><trkpt lat="44.09255" lon="8.1971633"><ele>97.99999999999999</ele><time>2026-04-10T14:47:57.951Z</time></trkpt><trkpt lat="44.092495" lon="8.19727"><ele>98.0</ele><time>2026-04-10T14:47:59.951Z</time></trkpt><trkpt lat="44.0924333" lon="8.19737"><ele>98.0</ele><time>2026-04-10T14:48:01.952Z</time></trkpt><trkpt lat="44.0923633" lon="8.1974367"><ele>98.0</ele><time>2026-04-10T14:48:03.952Z</time></trkpt><trkpt lat="44.0923067" lon="8.1975067"><ele>97.99999999999999</ele><time>2026-04-10T14:48:06.951Z</time></trkpt><trkpt lat="44.0922267" lon="8.1975217"><ele>98.0</ele><time>2026-04-10T14:48:09.951Z</time></trkpt><trkpt lat="44.0921667" lon="8.197565"><ele>95.16666666666666</ele><time>2026-04-10T14:48:11.951Z</time></trkpt><trkpt lat="44.0921067" lon="8.197605"><ele>92.33333333333333</ele><time>2026-04-10T14:48:13.951Z</time></trkpt><trkpt lat="44.0920133" lon="8.1976783"><ele>89.5</ele><time>2026-04-10T14:48:16.951Z</time></trkpt><trkpt lat="44.09194" lon="8.1977117"><ele>86.66666666666666</ele><time>2026-04-10T14:48:18.951Z</time></trkpt><trkpt lat="44.0918767" lon="8.1976817"><ele>83.83333333333333</ele><time>2026-04-10T14:48:22.951Z</time></trkpt><trkpt lat="44.09181" lon="8.1976633"><ele>81.0</ele><time>2026-04-10T14:48:25.951Z</time></trkpt><trkpt lat="44.0917583" lon="8.1977267"><ele>81.0</ele><time>2026-04-10T14:48:29.951Z</time></trkpt><trkpt lat="44.0917" lon="8.1978267"><ele>81.0</ele><time>2026-04-10T14:48:32.951Z</time></trkpt><trkpt lat="44.09165" lon="8.1979083"><ele>81.0</ele><time>2026-04-10T14:48:34.951Z</time></trkpt><trkpt lat="44.09162" lon="8.1979883"><ele>81.0</ele><time>2026-04-10T14:48:36.951Z</time></trkpt><trkpt lat="44.0915917" lon="8.198095"><ele>81.0</ele><time>2026-04-10T14:48:38.951Z</time></trkpt><trkpt lat="44.0915733" lon="8.198185"><ele>81.0</ele><time>2026-04-10T14:48:40.952Z</time></trkpt><trkpt lat="44.09155" lon="8.1982783"><ele>81.33333333333333</ele><time>2026-04-10T14:48:42.951Z</time></trkpt><trkpt lat="44.0914883" lon="8.198345"><ele>81.66666666666667</ele><time>2026-04-10T14:48:45.951Z</time></trkpt><trkpt lat="44.0914183" lon="8.19836"><ele>82.0</ele><time>2026-04-10T14:48:48.951Z</time></trkpt><trkpt lat="44.09135" lon="8.1983533"><ele>82.33333333333334</ele><time>2026-04-10T14:48:51.951Z</time></trkpt><trkpt lat="44.09129" lon="8.1983083"><ele>82.66666666666667</ele><time>2026-04-10T14:48:54.951Z</time></trkpt><trkpt lat="44.0911967" lon="8.198305"><ele>83.0</ele><time>2026-04-10T14:48:57.951Z</time></trkpt><trkpt lat="44.0911217" lon="8.1983467"><ele>83.0</ele><time>2026-04-10T14:49:00.951Z</time></trkpt><trkpt lat="44.0910717" lon="8.198425"><ele>83.0</ele><time>2026-04-10T14:49:02.951Z</time></trkpt><trkpt lat="44.0910267" lon="8.19851"><ele>83.0</ele><time>2026-04-10T14:49:04.951Z</time></trkpt><trkpt lat="44.09097" lon="8.1985483"><ele>83.0</ele><time>2026-04-10T14:49:06.951Z</time></trkpt><trkpt lat="44.09092" lon="8.1986533"><ele>83.0</ele><time>2026-04-10T14:49:09.952Z</time></trkpt><trkpt lat="44.0908567" lon="8.1987267"><ele>83.0</ele><time>2026-04-10T14:49:12.951Z</time></trkpt><trkpt lat="44.09078" lon="8.1987333"><ele>82.5</ele><time>2026-04-10T14:49:15.951Z</time></trkpt><trkpt lat="44.0907167" lon="8.1987033"><ele>82.0</ele><time>2026-04-10T14:49:17.951Z</time></trkpt><trkpt lat="44.0906217" lon="8.1986767"><ele>81.5</ele><time>2026-04-10T14:49:20.951Z</time></trkpt><trkpt lat="44.0905317" lon="8.1986383"><ele>81.0</ele><time>2026-04-10T14:49:22.951Z</time></trkpt><trkpt lat="44.090475" lon="8.198585"><ele>80.5</ele><time>2026-04-10T14:49:47.951Z</time></trkpt><trkpt lat="44.0903883" lon="8.1985533"><ele>80.0</ele><time>2026-04-10T14:49:51.951Z</time></trkpt><trkpt lat="44.0902983" lon="8.19855"><ele>80.0</ele><time>2026-04-10T14:49:53.951Z</time></trkpt><trkpt lat="44.0902133" lon="8.198505"><ele>80.0</ele><time>2026-04-10T14:49:55.951Z</time></trkpt><trkpt lat="44.09011" lon="8.19842"><ele>80.0</ele><time>2026-04-10T14:49:57.951Z</time></trkpt><trkpt lat="44.090015" lon="8.198345"><ele>80.0</ele><time>2026-04-10T14:49:59.951Z</time></trkpt><trkpt lat="44.0899467" lon="8.1983633"><ele>80.0</ele><time>2026-04-10T14:50:01.951Z</time></trkpt><trkpt lat="44.0898833" lon="8.1983483"><ele>79.2</ele><time>2026-04-10T14:50:03.951Z</time></trkpt><trkpt lat="44.0897867" lon="8.19829"><ele>78.4</ele><time>2026-04-10T14:50:05.951Z</time></trkpt><trkpt lat="44.0897033" lon="8.1982267"><ele>77.6</ele><time>2026-04-10T14:50:07.951Z</time></trkpt><trkpt lat="44.0896183" lon="8.19814"><ele>76.8</ele><time>2026-04-10T14:50:09.951Z</time></trkpt><trkpt lat="44.08953" lon="8.1980917"><ele>76.0</ele><time>2026-04-10T14:50:11.951Z</time></trkpt><trkpt lat="44.08944" lon="8.198085"><ele>75.42857142857143</ele><time>2026-04-10T14:50:13.951Z</time></trkpt><trkpt lat="44.089365" lon="8.1980733"><ele>74.85714285714286</ele><time>2026-04-10T14:50:15.952Z</time></trkpt><trkpt lat="44.0893" lon="8.19807"><ele>74.28571428571429</ele><time>2026-04-10T14:50:17.951Z</time></trkpt><trkpt lat="44.089225" lon="8.198075"><ele>73.71428571428572</ele><time>2026-04-10T14:50:20.951Z</time></trkpt><trkpt lat="44.08915" lon="8.19811"><ele>73.14285714285714</ele><time>2026-04-10T14:50:23.951Z</time></trkpt><trkpt lat="44.0890817" lon="8.1980733"><ele>72.57142857142858</ele><time>2026-04-10T14:50:26.951Z</time></trkpt><trkpt lat="44.0890217" lon="8.19803"><ele>72.0</ele><time>2026-04-10T14:50:28.951Z</time></trkpt><trkpt lat="44.0889417" lon="8.1980017"><ele>71.16666666666667</ele><time>2026-04-10T14:50:30.951Z</time></trkpt><trkpt lat="44.08885" lon="8.1979917"><ele>70.33333333333333</ele><time>2026-04-10T14:50:32.951Z</time></trkpt><trkpt lat="44.088785" lon="8.1979583"><ele>69.5</ele><time>2026-04-10T14:50:34.951Z</time></trkpt><trkpt lat="44.08871" lon="8.197885"><ele>68.66666666666666</ele><time>2026-04-10T14:50:37.951Z</time></trkpt><trkpt lat="44.0886367" lon="8.1978533"><ele>67.83333333333333</ele><time>2026-04-10T14:50:39.951Z</time></trkpt><trkpt lat="44.08854" lon="8.1978617"><ele>67.0</ele><time>2026-04-10T14:50:41.951Z</time></trkpt><trkpt lat="44.088465" lon="8.1978317"><ele>67.0</ele><time>2026-04-10T14:50:43.951Z</time></trkpt><trkpt lat="44.0883917" lon="8.1977883"><ele>67.0</ele><time>2026-04-10T14:50:45.951Z</time></trkpt><trkpt lat="44.088315" lon="8.197775"><ele>67.0</ele><time>2026-04-10T14:50:47.952Z</time></trkpt><trkpt lat="44.0882167" lon="8.19775"><ele>67.0</ele><time>2026-04-10T14:50:49.951Z</time></trkpt><trkpt lat="44.088105" lon="8.1977"><ele>67.0</ele><time>2026-04-10T14:50:51.951Z</time></trkpt><trkpt lat="44.088005" lon="8.1976817"><ele>65.0</ele><time>2026-04-10T14:50:53.951Z</time></trkpt><trkpt lat="44.0879183" lon="8.1976833"><ele>63.0</ele><time>2026-04-10T14:50:55.951Z</time></trkpt><trkpt lat="44.08783" lon="8.1976983"><ele>61.0</ele><time>2026-04-10T14:50:57.951Z</time></trkpt><trkpt lat="44.0877383" lon="8.1977217"><ele>59.0</ele><time>2026-04-10T14:50:59.951Z</time></trkpt><trkpt lat="44.0876417" lon="8.1977283"><ele>57.0</ele><time>2026-04-10T14:51:01.951Z</time></trkpt><trkpt lat="44.0875367" lon="8.1977383"><ele>56.0</ele><time>2026-04-10T14:51:03.951Z</time></trkpt><trkpt lat="44.0874183" lon="8.197775"><ele>55.0</ele><time>2026-04-10T14:51:05.951Z</time></trkpt><trkpt lat="44.0873417" lon="8.1978017"><ele>54.0</ele><time>2026-04-10T14:51:06.951Z</time></trkpt><trkpt lat="44.0872617" lon="8.197815"><ele>53.0</ele><time>2026-04-10T14:51:07.951Z</time></trkpt><trkpt lat="44.087195" lon="8.1978233"><ele>52.0</ele><time>2026-04-10T14:51:08.951Z</time></trkpt><trkpt lat="44.08713" lon="8.1978483"><ele>51.0</ele><time>2026-04-10T14:51:09.951Z</time></trkpt><trkpt lat="44.0870583" lon="8.1978683"><ele>51.0</ele><time>2026-04-10T14:51:10.951Z</time></trkpt><trkpt lat="44.08699" lon="8.1978867"><ele>51.0</ele><time>2026-04-10T14:51:11.951Z</time></trkpt><trkpt lat="44.086915" lon="8.1978983"><ele>51.0</ele><time>2026-04-10T14:51:12.951Z</time></trkpt><trkpt lat="44.086845" lon="8.197875"><ele>51.0</ele><time>2026-04-10T14:51:13.951Z</time></trkpt><trkpt lat="44.0867367" lon="8.1978683"><ele>51.0</ele><time>2026-04-10T14:51:15.951Z</time></trkpt><trkpt lat="44.0866267" lon="8.1979017"><ele>51.0</ele><time>2026-04-10T14:51:17.951Z</time></trkpt><trkpt lat="44.08653" lon="8.1979633"><ele>51.333333333333336</ele><time>2026-04-10T14:51:19.951Z</time></trkpt><trkpt lat="44.086445" lon="8.1980217"><ele>51.66666666666667</ele><time>2026-04-10T14:51:21.951Z</time></trkpt><trkpt lat="44.08639" lon="8.198095"><ele>52.0</ele><time>2026-04-10T14:51:23.951Z</time></trkpt><trkpt lat="44.0863317" lon="8.1981783"><ele>52.333333333333336</ele><time>2026-04-10T14:51:25.951Z</time></trkpt><trkpt lat="44.0862733" lon="8.1982333"><ele>52.66666666666667</ele><time>2026-04-10T14:51:27.951Z</time></trkpt><trkpt lat="44.0862617" lon="8.1983317"><ele>53.0</ele><time>2026-04-10T14:51:29.951Z</time></trkpt><trkpt lat="44.08624" lon="8.1985117"><ele>52.599999999999994</ele><time>2026-04-10T14:51:31.951Z</time></trkpt><trkpt lat="44.0862367" lon="8.1986033"><ele>52.199999999999996</ele><time>2026-04-10T14:51:32.951Z</time></trkpt><trkpt lat="44.0862367" lon="8.1986933"><ele>51.8</ele><time>2026-04-10T14:51:33.951Z</time></trkpt><trkpt lat="44.0862367" lon="8.1987833"><ele>51.4</ele><time>2026-04-10T14:51:34.951Z</time></trkpt><trkpt lat="44.086215" lon="8.1989583"><ele>51.0</ele><time>2026-04-10T14:51:36.951Z</time></trkpt><trkpt lat="44.08621" lon="8.1991383"><ele>51.0</ele><time>2026-04-10T14:51:38.951Z</time></trkpt><trkpt lat="44.08619" lon="8.19929"><ele>51.0</ele><time>2026-04-10T14:51:40.952Z</time></trkpt><trkpt lat="44.086215" lon="8.1994117"><ele>51.0</ele><time>2026-04-10T14:51:42.951Z</time></trkpt><trkpt lat="44.0862867" lon="8.1995317"><ele>51.0</ele><time>2026-04-10T14:51:44.951Z</time></trkpt><trkpt lat="44.08637" lon="8.1996633"><ele>51.0</ele><time>2026-04-10T14:51:46.951Z</time></trkpt><trkpt lat="44.086405" lon="8.1997367"><ele>51.0</ele><time>2026-04-10T14:51:47.952Z</time></trkpt><trkpt lat="44.08643" lon="8.199825"><ele>51.0</ele><time>2026-04-10T14:51:48.951Z</time></trkpt><trkpt lat="44.0864517" lon="8.1999233"><ele>51.0</ele><time>2026-04-10T14:51:49.951Z</time></trkpt><trkpt lat="44.0864733" lon="8.2000317"><ele>51.0</ele><time>2026-04-10T14:51:50.951Z</time></trkpt><trkpt lat="44.0865" lon="8.2001217"><ele>51.0</ele><time>2026-04-10T14:51:51.952Z</time></trkpt><trkpt lat="44.08654" lon="8.2002067"><ele>51.0</ele><time>2026-04-10T14:51:52.951Z</time></trkpt><trkpt lat="44.08659" lon="8.200285"><ele>51.0</ele><time>2026-04-10T14:51:53.951Z</time></trkpt><trkpt lat="44.086665" lon="8.20034"><ele>52.599999999999994</ele><time>2026-04-10T14:51:54.951Z</time></trkpt><trkpt lat="44.0867533" lon="8.20036"><ele>54.2</ele><time>2026-04-10T14:51:55.951Z</time></trkpt><trkpt lat="44.0868367" lon="8.2003817"><ele>55.800000000000004</ele><time>2026-04-10T14:51:56.951Z</time></trkpt><trkpt lat="44.0869133" lon="8.20041"><ele>57.400000000000006</ele><time>2026-04-10T14:51:57.951Z</time></trkpt><trkpt lat="44.0869883" lon="8.20052"><ele>59.0</ele><time>2026-04-10T14:51:59.951Z</time></trkpt><trkpt lat="44.0869583" lon="8.2006583"><ele>58.333333333333336</ele><time>2026-04-10T14:52:01.951Z</time></trkpt><trkpt lat="44.0869083" lon="8.2007467"><ele>57.66666666666667</ele><time>2026-04-10T14:52:02.951Z</time></trkpt><trkpt lat="44.086875" lon="8.2008367"><ele>57.0</ele><time>2026-04-10T14:52:03.951Z</time></trkpt><trkpt lat="44.0868983" lon="8.2009867"><ele>56.33333333333333</ele><time>2026-04-10T14:52:05.951Z</time></trkpt><trkpt lat="44.08694" lon="8.2010617"><ele>55.666666666666664</ele><time>2026-04-10T14:52:06.951Z</time></trkpt><trkpt lat="44.087" lon="8.2011317"><ele>55.0</ele><time>2026-04-10T14:52:07.951Z</time></trkpt><trkpt lat="44.0870617" lon="8.201195"><ele>54.99999999999999</ele><time>2026-04-10T14:52:08.951Z</time></trkpt><trkpt lat="44.0871217" lon="8.2012733"><ele>55.0</ele><time>2026-04-10T14:52:09.951Z</time></trkpt><trkpt lat="44.0871833" lon="8.2013417"><ele>55.0</ele><time>2026-04-10T14:52:10.951Z</time></trkpt><trkpt lat="44.0872333" lon="8.20141"><ele>55.0</ele><time>2026-04-10T14:52:11.951Z</time></trkpt><trkpt lat="44.0872783" lon="8.2015217"><ele>54.99999999999999</ele><time>2026-04-10T14:52:13.951Z</time></trkpt><trkpt lat="44.08722" lon="8.2015917"><ele>55.0</ele><time>2026-04-10T14:52:15.951Z</time></trkpt><trkpt lat="44.0871633" lon="8.20163"><ele>54.83333333333333</ele><time>2026-04-10T14:52:16.951Z</time></trkpt><trkpt lat="44.0871033" lon="8.201675"><ele>54.666666666666664</ele><time>2026-04-10T14:52:17.952Z</time></trkpt><trkpt lat="44.087045" lon="8.201725"><ele>54.5</ele><time>2026-04-10T14:52:18.951Z</time></trkpt><trkpt lat="44.08698" lon="8.2017967"><ele>54.33333333333333</ele><time>2026-04-10T14:52:19.951Z</time></trkpt><trkpt lat="44.08692" lon="8.2018783"><ele>54.166666666666664</ele><time>2026-04-10T14:52:20.951Z</time></trkpt><trkpt lat="44.0868617" lon="8.2019767"><ele>54.0</ele><time>2026-04-10T14:52:21.951Z</time></trkpt><trkpt lat="44.0868067" lon="8.20208"><ele>54.0</ele><time>2026-04-10T14:52:22.951Z</time></trkpt><trkpt lat="44.0867667" lon="8.20216"><ele>54.0</ele><time>2026-04-10T14:52:23.951Z</time></trkpt><trkpt lat="44.086715" lon="8.202285"><ele>54.0</ele><time>2026-04-10T14:52:25.951Z</time></trkpt><trkpt lat="44.0866667" lon="8.2024283"><ele>54.0</ele><time>2026-04-10T14:52:27.951Z</time></trkpt><trkpt lat="44.0866317" lon="8.2025017"><ele>54.0</ele><time>2026-04-10T14:52:28.951Z</time></trkpt><trkpt lat="44.08658" lon="8.202585"><ele>54.0</ele><time>2026-04-10T14:52:29.951Z</time></trkpt><trkpt lat="44.0865133" lon="8.202675"><ele>54.400000000000006</ele><time>2026-04-10T14:52:30.951Z</time></trkpt><trkpt lat="44.0864517" lon="8.2027833"><ele>54.800000000000004</ele><time>2026-04-10T14:52:31.951Z</time></trkpt><trkpt lat="44.086415" lon="8.2029217"><ele>55.199999999999996</ele><time>2026-04-10T14:52:32.951Z</time></trkpt><trkpt lat="44.0864083" lon="8.203065"><ele>55.599999999999994</ele><time>2026-04-10T14:52:33.951Z</time></trkpt><trkpt lat="44.0864117" lon="8.203205"><ele>56.0</ele><time>2026-04-10T14:52:34.951Z</time></trkpt><trkpt lat="44.0864083" lon="8.2033417"><ele>56.0</ele><time>2026-04-10T14:52:35.951Z</time></trkpt><trkpt lat="44.0863783" lon="8.2034683"><ele>55.99999999999999</ele><time>2026-04-10T14:52:36.951Z</time></trkpt><trkpt lat="44.0863467" lon="8.2035783"><ele>55.99999999999999</ele><time>2026-04-10T14:52:37.951Z</time></trkpt><trkpt lat="44.0863183" lon="8.2036817"><ele>56.0</ele><time>2026-04-10T14:52:38.951Z</time></trkpt><trkpt lat="44.0862583" lon="8.2038183"><ele>56.0</ele><time>2026-04-10T14:52:39.952Z</time></trkpt><trkpt lat="44.0861633" lon="8.203925"><ele>55.75</ele><time>2026-04-10T14:52:40.952Z</time></trkpt><trkpt lat="44.0860583" lon="8.2040267"><ele>55.5</ele><time>2026-04-10T14:52:41.951Z</time></trkpt><trkpt lat="44.0859733" lon="8.2041417"><ele>55.25</ele><time>2026-04-10T14:52:42.951Z</time></trkpt><trkpt lat="44.0858967" lon="8.204255"><ele>55.0</ele><time>2026-04-10T14:52:43.951Z</time></trkpt><trkpt lat="44.0858133" lon="8.2043667"><ele>54.25</ele><time>2026-04-10T14:52:44.951Z</time></trkpt><trkpt lat="44.08574" lon="8.2044833"><ele>53.5</ele><time>2026-04-10T14:52:45.951Z</time></trkpt><trkpt lat="44.08566" lon="8.2046"><ele>52.75</ele><time>2026-04-10T14:52:46.951Z</time></trkpt><trkpt lat="44.0855733" lon="8.2047083"><ele>52.0</ele><time>2026-04-10T14:52:47.951Z</time></trkpt><trkpt lat="44.0854783" lon="8.2047983"><ele>51.75</ele><time>2026-04-10T14:52:48.951Z</time></trkpt><trkpt lat="44.0853717" lon="8.2049067"><ele>51.5</ele><time>2026-04-10T14:52:49.951Z</time></trkpt><trkpt lat="44.0852517" lon="8.2049933"><ele>51.25</ele><time>2026-04-10T14:52:50.951Z</time></trkpt><trkpt lat="44.085135" lon="8.20507"><ele>51.0</ele><time>2026-04-10T14:52:51.951Z</time></trkpt><trkpt lat="44.0850217" lon="8.2051317"><ele>50.4</ele><time>2026-04-10T14:52:52.951Z</time></trkpt><trkpt lat="44.0849117" lon="8.205185"><ele>49.8</ele><time>2026-04-10T14:52:53.951Z</time></trkpt><trkpt lat="44.0848217" lon="8.205235"><ele>49.199999999999996</ele><time>2026-04-10T14:52:54.951Z</time></trkpt><trkpt lat="44.0847383" lon="8.205295"><ele>48.599999999999994</ele><time>2026-04-10T14:52:55.951Z</time></trkpt><trkpt lat="44.0846567" lon="8.20536"><ele>48.0</ele><time>2026-04-10T14:52:56.951Z</time></trkpt><trkpt lat="44.084575" lon="8.2054217"><ele>48.0</ele><time>2026-04-10T14:52:57.951Z</time></trkpt><trkpt lat="44.0844833" lon="8.2054683"><ele>48.0</ele><time>2026-04-10T14:52:58.951Z</time></trkpt><trkpt lat="44.0843883" lon="8.205495"><ele>48.0</ele><time>2026-04-10T14:52:59.951Z</time></trkpt><trkpt lat="44.0843033" lon="8.2055067"><ele>48.0</ele><time>2026-04-10T14:53:00.952Z</time></trkpt><trkpt lat="44.0842233" lon="8.205515"><ele>48.0</ele><time>2026-04-10T14:53:01.951Z</time></trkpt><trkpt lat="44.0841333" lon="8.2055133"><ele>46.0</ele><time>2026-04-10T14:53:02.951Z</time></trkpt><trkpt lat="44.0840283" lon="8.2055"><ele>44.0</ele><time>2026-04-10T14:53:03.952Z</time></trkpt><trkpt lat="44.0839117" lon="8.2054867"><ele>42.0</ele><time>2026-04-10T14:53:04.951Z</time></trkpt><trkpt lat="44.0837917" lon="8.2054783"><ele>40.0</ele><time>2026-04-10T14:53:05.951Z</time></trkpt><trkpt lat="44.0836733" lon="8.2054717"><ele>40.0</ele><time>2026-04-10T14:53:06.951Z</time></trkpt><trkpt lat="44.0835617" lon="8.2054567"><ele>40.0</ele><time>2026-04-10T14:53:07.951Z</time></trkpt><trkpt lat="44.083455" lon="8.2054383"><ele>40.0</ele><time>2026-04-10T14:53:08.951Z</time></trkpt><trkpt lat="44.0833417" lon="8.2054017"><ele>40.0</ele><time>2026-04-10T14:53:09.951Z</time></trkpt><trkpt lat="44.083235" lon="8.20535"><ele>40.0</ele><time>2026-04-10T14:53:10.951Z</time></trkpt><trkpt lat="44.0831317" lon="8.2052967"><ele>39.2</ele><time>2026-04-10T14:53:11.951Z</time></trkpt><trkpt lat="44.0830533" lon="8.2052183"><ele>38.4</ele><time>2026-04-10T14:53:12.951Z</time></trkpt><trkpt lat="44.0829733" lon="8.2051317"><ele>37.6</ele><time>2026-04-10T14:53:13.952Z</time></trkpt><trkpt lat="44.0828983" lon="8.2050267"><ele>36.8</ele><time>2026-04-10T14:53:14.951Z</time></trkpt><trkpt lat="44.0828167" lon="8.2049217"><ele>36.0</ele><time>2026-04-10T14:53:15.952Z</time></trkpt><trkpt lat="44.0827217" lon="8.2048217"><ele>36.0</ele><time>2026-04-10T14:53:16.951Z</time></trkpt><trkpt lat="44.0826367" lon="8.2047433"><ele>36.0</ele><time>2026-04-10T14:53:17.951Z</time></trkpt><trkpt lat="44.0825417" lon="8.2047017"><ele>36.0</ele><time>2026-04-10T14:53:18.951Z</time></trkpt><trkpt lat="44.082435" lon="8.204685"><ele>36.0</ele><time>2026-04-10T14:53:19.951Z</time></trkpt><trkpt lat="44.0823083" lon="8.20469"><ele>36.0</ele><time>2026-04-10T14:53:20.951Z</time></trkpt><trkpt lat="44.08217" lon="8.2047367"><ele>34.75</ele><time>2026-04-10T14:53:21.951Z</time></trkpt><trkpt lat="44.0820417" lon="8.2047633"><ele>33.5</ele><time>2026-04-10T14:53:22.951Z</time></trkpt><trkpt lat="44.08192" lon="8.2047717"><ele>32.25</ele><time>2026-04-10T14:53:23.952Z</time></trkpt><trkpt lat="44.0817917" lon="8.2047517"><ele>31.0</ele><time>2026-04-10T14:53:24.951Z</time></trkpt><trkpt lat="44.0816617" lon="8.20473"><ele>30.0</ele><time>2026-04-10T14:53:25.951Z</time></trkpt><trkpt lat="44.0815417" lon="8.204685"><ele>29.0</ele><time>2026-04-10T14:53:26.952Z</time></trkpt><trkpt lat="44.08143" lon="8.2046683"><ele>28.0</ele><time>2026-04-10T14:53:27.951Z</time></trkpt><trkpt lat="44.0813133" lon="8.2046867"><ele>27.0</ele><time>2026-04-10T14:53:28.951Z</time></trkpt><trkpt lat="44.0812067" lon="8.204765"><ele>27.25</ele><time>2026-04-10T14:53:29.951Z</time></trkpt><trkpt lat="44.0810967" lon="8.2048717"><ele>27.5</ele><time>2026-04-10T14:53:30.951Z</time></trkpt><trkpt lat="44.0809833" lon="8.20498"><ele>27.75</ele><time>2026-04-10T14:53:31.952Z</time></trkpt><trkpt lat="44.0808717" lon="8.2050883"><ele>28.0</ele><time>2026-04-10T14:53:32.951Z</time></trkpt><trkpt lat="44.0807567" lon="8.2052017"><ele>27.0</ele><time>2026-04-10T14:53:33.951Z</time></trkpt><trkpt lat="44.08065" lon="8.2053133"><ele>26.0</ele><time>2026-04-10T14:53:34.951Z</time></trkpt><trkpt lat="44.0805383" lon="8.2054317"><ele>25.0</ele><time>2026-04-10T14:53:35.951Z</time></trkpt><trkpt lat="44.080425" lon="8.2055583"><ele>24.0</ele><time>2026-04-10T14:53:36.951Z</time></trkpt><trkpt lat="44.080305" lon="8.2056833"><ele>24.0</ele><time>2026-04-10T14:53:37.951Z</time></trkpt><trkpt lat="44.0801983" lon="8.2058217"><ele>24.0</ele><time>2026-04-10T14:53:38.951Z</time></trkpt><trkpt lat="44.0800933" lon="8.2059683"><ele>24.0</ele><time>2026-04-10T14:53:39.951Z</time></trkpt><trkpt lat="44.079995" lon="8.206095"><ele>24.0</ele><time>2026-04-10T14:53:40.952Z</time></trkpt><trkpt lat="44.0799067" lon="8.2062167"><ele>22.5</ele><time>2026-04-10T14:53:41.951Z</time></trkpt><trkpt lat="44.0798117" lon="8.2063317"><ele>21.0</ele><time>2026-04-10T14:53:42.951Z</time></trkpt><trkpt lat="44.0797217" lon="8.2064517"><ele>19.5</ele><time>2026-04-10T14:53:43.951Z</time></trkpt><trkpt lat="44.0796333" lon="8.2065633"><ele>18.0</ele><time>2026-04-10T14:53:44.951Z</time></trkpt><trkpt lat="44.0795633" lon="8.20668"><ele>18.0</ele><time>2026-04-10T14:53:45.951Z</time></trkpt><trkpt lat="44.0795" lon="8.2067833"><ele>18.0</ele><time>2026-04-10T14:53:46.951Z</time></trkpt><trkpt lat="44.0794483" lon="8.2068667"><ele>18.0</ele><time>2026-04-10T14:53:47.951Z</time></trkpt><trkpt lat="44.0794167" lon="8.2070067"><ele>18.0</ele><time>2026-04-10T14:53:49.951Z</time></trkpt><trkpt lat="44.0794733" lon="8.207165"><ele>18.0</ele><time>2026-04-10T14:53:51.951Z</time></trkpt><trkpt lat="44.0795017" lon="8.2072683"><ele>18.6</ele><time>2026-04-10T14:53:52.952Z</time></trkpt><trkpt lat="44.0795317" lon="8.20739"><ele>19.200000000000003</ele><time>2026-04-10T14:53:53.951Z</time></trkpt><trkpt lat="44.0795733" lon="8.2075133"><ele>19.8</ele><time>2026-04-10T14:53:54.951Z</time></trkpt><trkpt lat="44.0796183" lon="8.2076317"><ele>20.400000000000002</ele><time>2026-04-10T14:53:55.951Z</time></trkpt><trkpt lat="44.0796533" lon="8.2077583"><ele>21.0</ele><time>2026-04-10T14:53:56.951Z</time></trkpt><trkpt lat="44.0796833" lon="8.2078883"><ele>21.0</ele><time>2026-04-10T14:53:57.951Z</time></trkpt><trkpt lat="44.0797217" lon="8.208025"><ele>21.0</ele><time>2026-04-10T14:53:58.951Z</time></trkpt><trkpt lat="44.07976" lon="8.20816"><ele>21.0</ele><time>2026-04-10T14:53:59.951Z</time></trkpt><trkpt lat="44.0797933" lon="8.20829"><ele>21.0</ele><time>2026-04-10T14:54:00.951Z</time></trkpt><trkpt lat="44.079825" lon="8.2084167"><ele>21.0</ele><time>2026-04-10T14:54:01.951Z</time></trkpt><trkpt lat="44.0798517" lon="8.2085317"><ele>21.166666666666668</ele><time>2026-04-10T14:54:02.951Z</time></trkpt><trkpt lat="44.079895" lon="8.2086217"><ele>21.333333333333332</ele><time>2026-04-10T14:54:03.952Z</time></trkpt><trkpt lat="44.079965" lon="8.2087033"><ele>21.5</ele><time>2026-04-10T14:54:04.951Z</time></trkpt><trkpt lat="44.0800517" lon="8.20876"><ele>21.666666666666664</ele><time>2026-04-10T14:54:05.951Z</time></trkpt><trkpt lat="44.08013" lon="8.2088"><ele>21.833333333333332</ele><time>2026-04-10T14:54:06.951Z</time></trkpt><trkpt lat="44.0801933" lon="8.2088467"><ele>22.0</ele><time>2026-04-10T14:54:07.951Z</time></trkpt><trkpt lat="44.0802683" lon="8.2089333"><ele>21.666666666666664</ele><time>2026-04-10T14:54:09.951Z</time></trkpt><trkpt lat="44.0802567" lon="8.2090383"><ele>21.333333333333332</ele><time>2026-04-10T14:54:12.951Z</time></trkpt><trkpt lat="44.080205" lon="8.2091733"><ele>21.0</ele><time>2026-04-10T14:54:14.951Z</time></trkpt><trkpt lat="44.0801733" lon="8.2092667"><ele>20.666666666666668</ele><time>2026-04-10T14:54:15.951Z</time></trkpt><trkpt lat="44.0801367" lon="8.2093483"><ele>20.333333333333336</ele><time>2026-04-10T14:54:16.951Z</time></trkpt><trkpt lat="44.0800933" lon="8.2094383"><ele>20.0</ele><time>2026-04-10T14:54:17.952Z</time></trkpt><trkpt lat="44.0800483" lon="8.209535"><ele>20.0</ele><time>2026-04-10T14:54:18.951Z</time></trkpt><trkpt lat="44.0800033" lon="8.209635"><ele>20.0</ele><time>2026-04-10T14:54:19.951Z</time></trkpt><trkpt lat="44.07995" lon="8.20973"><ele>20.0</ele><time>2026-04-10T14:54:20.951Z</time></trkpt><trkpt lat="44.0799017" lon="8.2098217"><ele>20.0</ele><time>2026-04-10T14:54:21.951Z</time></trkpt><trkpt lat="44.0798483" lon="8.209915"><ele>20.0</ele><time>2026-04-10T14:54:22.952Z</time></trkpt><trkpt lat="44.0797883" lon="8.209995"><ele>20.0</ele><time>2026-04-10T14:54:23.951Z</time></trkpt><trkpt lat="44.079735" lon="8.2101067"><ele>19.0</ele><time>2026-04-10T14:54:24.951Z</time></trkpt><trkpt lat="44.079685" lon="8.2102267"><ele>18.0</ele><time>2026-04-10T14:54:25.951Z</time></trkpt><trkpt lat="44.0796367" lon="8.2103367"><ele>17.0</ele><time>2026-04-10T14:54:26.951Z</time></trkpt><trkpt lat="44.0795933" lon="8.210455"><ele>16.0</ele><time>2026-04-10T14:54:27.951Z</time></trkpt><trkpt lat="44.0795467" lon="8.2105717"><ele>15.0</ele><time>2026-04-10T14:54:28.951Z</time></trkpt><trkpt lat="44.07949" lon="8.2106767"><ele>15.0</ele><time>2026-04-10T14:54:29.952Z</time></trkpt><trkpt lat="44.0794383" lon="8.2107833"><ele>15.0</ele><time>2026-04-10T14:54:30.951Z</time></trkpt><trkpt lat="44.0794017" lon="8.2109017"><ele>15.0</ele><time>2026-04-10T14:54:31.951Z</time></trkpt><trkpt lat="44.0793517" lon="8.2110183"><ele>15.0</ele><time>2026-04-10T14:54:32.952Z</time></trkpt><trkpt lat="44.0793067" lon="8.2111383"><ele>15.0</ele><time>2026-04-10T14:54:33.952Z</time></trkpt><trkpt lat="44.07924" lon="8.2112433"><ele>15.0</ele><time>2026-04-10T14:54:34.951Z</time></trkpt><trkpt lat="44.079165" lon="8.2113133"><ele>15.0</ele><time>2026-04-10T14:54:35.951Z</time></trkpt><trkpt lat="44.0790867" lon="8.2114067"><ele>15.0</ele><time>2026-04-10T14:54:36.951Z</time></trkpt><trkpt lat="44.0790017" lon="8.2114967"><ele>15.0</ele><time>2026-04-10T14:54:37.951Z</time></trkpt><trkpt lat="44.0789233" lon="8.2115867"><ele>15.0</ele><time>2026-04-10T14:54:38.951Z</time></trkpt><trkpt lat="44.0788483" lon="8.2116583"><ele>14.0</ele><time>2026-04-10T14:54:39.951Z</time></trkpt><trkpt lat="44.0787683" lon="8.2117117"><ele>13.0</ele><time>2026-04-10T14:54:40.951Z</time></trkpt><trkpt lat="44.078695" lon="8.2117817"><ele>12.0</ele><time>2026-04-10T14:54:41.951Z</time></trkpt><trkpt lat="44.078635" lon="8.211865"><ele>11.0</ele><time>2026-04-10T14:54:42.951Z</time></trkpt><trkpt lat="44.0785767" lon="8.2119783"><ele>10.0</ele><time>2026-04-10T14:54:43.951Z</time></trkpt><trkpt lat="44.0785083" lon="8.2121017"><ele>10.0</ele><time>2026-04-10T14:54:44.951Z</time></trkpt><trkpt lat="44.0784483" lon="8.212235"><ele>10.0</ele><time>2026-04-10T14:54:45.951Z</time></trkpt><trkpt lat="44.0783833" lon="8.21237"><ele>10.0</ele><time>2026-04-10T14:54:46.952Z</time></trkpt><trkpt lat="44.078315" lon="8.212505"><ele>10.0</ele><time>2026-04-10T14:54:47.951Z</time></trkpt><trkpt lat="44.0782533" lon="8.2126267"><ele>9.5</ele><time>2026-04-10T14:54:48.952Z</time></trkpt><trkpt lat="44.078205" lon="8.21274"><ele>9.0</ele><time>2026-04-10T14:54:49.951Z</time></trkpt><trkpt lat="44.078155" lon="8.2128367"><ele>8.5</ele><time>2026-04-10T14:54:50.951Z</time></trkpt><trkpt lat="44.0781067" lon="8.2129267"><ele>8.0</ele><time>2026-04-10T14:54:51.951Z</time></trkpt><trkpt lat="44.078055" lon="8.21301"><ele>7.500000000000001</ele><time>2026-04-10T14:54:52.952Z</time></trkpt><trkpt lat="44.0780117" lon="8.2130917"><ele>7.0</ele><time>2026-04-10T14:54:53.951Z</time></trkpt><trkpt lat="44.0779683" lon="8.2131617"><ele>6.833333333333334</ele><time>2026-04-10T14:54:54.952Z</time></trkpt><trkpt lat="44.07791" lon="8.21326"><ele>6.666666666666667</ele><time>2026-04-10T14:54:56.951Z</time></trkpt><trkpt lat="44.0778417" lon="8.2133017"><ele>6.5</ele><time>2026-04-10T14:55:27.952Z</time></trkpt><trkpt lat="44.0777583" lon="8.2133567"><ele>6.333333333333334</ele><time>2026-04-10T14:55:29.951Z</time></trkpt><trkpt lat="44.0776983" lon="8.2134133"><ele>6.166666666666667</ele><time>2026-04-10T14:55:30.951Z</time></trkpt><trkpt lat="44.0776367" lon="8.2134683"><ele>6.0</ele><time>2026-04-10T14:55:31.951Z</time></trkpt><trkpt lat="44.07757" lon="8.2135333"><ele>6.0</ele><time>2026-04-10T14:55:32.951Z</time></trkpt><trkpt lat="44.0774983" lon="8.2135983"><ele>6.0</ele><time>2026-04-10T14:55:33.951Z</time></trkpt><trkpt lat="44.0774217" lon="8.2136733"><ele>6.0</ele><time>2026-04-10T14:55:34.951Z</time></trkpt><trkpt lat="44.0773467" lon="8.2137617"><ele>6.0</ele><time>2026-04-10T14:55:35.951Z</time></trkpt><trkpt lat="44.07726" lon="8.2138533"><ele>6.0</ele><time>2026-04-10T14:55:36.951Z</time></trkpt><trkpt lat="44.0771717" lon="8.2139383"><ele>5.833333333333333</ele><time>2026-04-10T14:55:37.951Z</time></trkpt><trkpt lat="44.0770817" lon="8.2140333"><ele>5.666666666666667</ele><time>2026-04-10T14:55:38.951Z</time></trkpt><trkpt lat="44.0770117" lon="8.2141117"><ele>5.5</ele><time>2026-04-10T14:55:39.951Z</time></trkpt><trkpt lat="44.0769517" lon="8.2141883"><ele>5.333333333333334</ele><time>2026-04-10T14:55:40.951Z</time></trkpt><trkpt lat="44.076895" lon="8.2142683"><ele>5.166666666666667</ele><time>2026-04-10T14:55:41.952Z</time></trkpt><trkpt lat="44.0768467" lon="8.2143333"><ele>5.0</ele><time>2026-04-10T14:55:42.951Z</time></trkpt><trkpt lat="44.07676" lon="8.2143867"><ele>5.0</ele><time>2026-04-10T14:55:44.951Z</time></trkpt><trkpt lat="44.0766517" lon="8.2143067"><ele>5.0</ele><time>2026-04-10T14:55:46.951Z</time></trkpt><trkpt lat="44.0765917" lon="8.2142717"><ele>5.0</ele><time>2026-04-10T14:55:47.951Z</time></trkpt><trkpt lat="44.0765183" lon="8.2142333"><ele>5.0</ele><time>2026-04-10T14:55:48.951Z</time></trkpt><trkpt lat="44.07643" lon="8.214195"><ele>5.0</ele><time>2026-04-10T14:55:49.951Z</time></trkpt><trkpt lat="44.076335" lon="8.214165"><ele>4.6</ele><time>2026-04-10T14:55:50.951Z</time></trkpt><trkpt lat="44.076235" lon="8.2141267"><ele>4.2</ele><time>2026-04-10T14:55:51.951Z</time></trkpt><trkpt lat="44.0761317" lon="8.214065"><ele>3.8</ele><time>2026-04-10T14:55:52.951Z</time></trkpt><trkpt lat="44.07604" lon="8.2139883"><ele>3.4</ele><time>2026-04-10T14:55:53.952Z</time></trkpt><trkpt lat="44.0759483" lon="8.2138967"><ele>3.0</ele><time>2026-04-10T14:55:54.951Z</time></trkpt><trkpt lat="44.0758583" lon="8.2138033"><ele>3.0</ele><time>2026-04-10T14:55:55.951Z</time></trkpt><trkpt lat="44.0757717" lon="8.21372"><ele>3.0</ele><time>2026-04-10T14:55:56.951Z</time></trkpt><trkpt lat="44.075685" lon="8.21364"><ele>3.0</ele><time>2026-04-10T14:55:57.951Z</time></trkpt><trkpt lat="44.0756017" lon="8.213555"><ele>3.0</ele><time>2026-04-10T14:55:58.951Z</time></trkpt><trkpt lat="44.07551" lon="8.2134717"><ele>3.0</ele><time>2026-04-10T14:55:59.951Z</time></trkpt><trkpt lat="44.075405" lon="8.2133933"><ele>3.2</ele><time>2026-04-10T14:56:00.951Z</time></trkpt><trkpt lat="44.0753033" lon="8.213305"><ele>3.4</ele><time>2026-04-10T14:56:01.951Z</time></trkpt><trkpt lat="44.07521" lon="8.2132283"><ele>3.6000000000000005</ele><time>2026-04-10T14:56:02.951Z</time></trkpt><trkpt lat="44.0751183" lon="8.2131517"><ele>3.8000000000000003</ele><time>2026-04-10T14:56:03.951Z</time></trkpt><trkpt lat="44.0750283" lon="8.213075"><ele>4.0</ele><time>2026-04-10T14:56:04.951Z</time></trkpt><trkpt lat="44.0749317" lon="8.2129983"><ele>4.0</ele><time>2026-04-10T14:56:05.951Z</time></trkpt><trkpt lat="44.0748317" lon="8.2129483"><ele>4.0</ele><time>2026-04-10T14:56:06.951Z</time></trkpt><trkpt lat="44.0747333" lon="8.21291"><ele>4.0</ele><time>2026-04-10T14:56:07.952Z</time></trkpt><trkpt lat="44.0746533" lon="8.212865"><ele>4.0</ele><time>2026-04-10T14:56:08.951Z</time></trkpt><trkpt lat="44.07458" lon="8.2128317"><ele>4.0</ele><time>2026-04-10T14:56:09.951Z</time></trkpt><trkpt lat="44.074475" lon="8.2127617"><ele>4.0</ele><time>2026-04-10T14:56:11.951Z</time></trkpt><trkpt lat="44.07439" lon="8.21281"><ele>4.0</ele><time>2026-04-10T14:56:14.951Z</time></trkpt><trkpt lat="44.0743883" lon="8.2127217"><ele>4.0</ele><time>2026-04-10T15:07:28.951Z</time></trkpt><trkpt lat="44.07438" lon="8.2125917"><ele>4.0</ele><time>2026-04-10T15:07:29.951Z</time></trkpt></trkseg></trk></gpx>